<?xml version='1.0' encoding='UTF-8'?><gpx version="1.1" creator="JPX - https://github.com/jenetics/jpx" xmlns="http://www.topografix.com/GPX/1/1"><trk><trkseg><trkpt lat="38.838329525774675" lon="16.262391626596607"><ele>36.00000000000001</ele><time>2026-04-19T07:17:46Z</time></trkpt><trkpt lat="38.838386148211974" lon="16.26243893475901"><ele>36.0</ele><time>2026-04-19T07:17:49Z</time></trkpt><trkpt lat="38.83844820988239" lon="16.262466222112028"><ele>36.0</ele><time>2026-04-19T07:17:54Z</time></trkpt><trkpt lat="38.83851548214021" lon="16.262468813612486"><ele>36.0</ele><time>2026-04-19T07:19:29Z</time></trkpt><trkpt lat="38.838578110579626" lon="16.262497265320096"><ele>36.0</ele><time>2026-04-19T07:22:53Z</time></trkpt><trkpt lat="38.83866011928819" lon="16.26252531606522"><ele>36.00000000000001</ele><time>2026-04-19T07:23:32Z</time></trkpt><trkpt lat="38.838731211095755" lon="16.262536364472265"><ele>36.0</ele><time>2026-04-19T07:23:35Z</time></trkpt><trkpt lat="38.83879907261613" lon="16.262565629848964"><ele>35.85714285714286</ele><time>2026-04-19T07:23:39Z</time></trkpt><trkpt lat="38.838841597887395" lon="16.262628533048204"><ele>35.714285714285715</ele><time>2026-04-19T07:23:43Z</time></trkpt><trkpt lat="38.8388223366728" lon="16.262713913873306"><ele>35.57142857142857</ele><time>2026-04-19T07:23:48Z</time></trkpt><trkpt lat="38.838764306402695" lon="16.262778194816825"><ele>35.42857142857143</ele><time>2026-04-19T07:23:54Z</time></trkpt><trkpt lat="38.83872686910389" lon="16.26284331721911"><ele>35.285714285714285</ele><time>2026-04-19T07:23:57Z</time></trkpt><trkpt lat="38.83867860539238" lon="16.262897961139863"><ele>35.142857142857146</ele><time>2026-04-19T07:24:07Z</time></trkpt><trkpt lat="38.83863597313251" lon="16.26295862765243"><ele>35.0</ele><time>2026-04-19T07:24:16Z</time></trkpt><trkpt lat="38.83857473748924" lon="16.262985957179986"><ele>35.5</ele><time>2026-04-19T07:24:21Z</time></trkpt><trkpt lat="38.838480743401256" lon="16.263117329997907"><ele>36.0</ele><time>2026-04-19T07:24:27Z</time></trkpt><trkpt lat="38.83839306181483" lon="16.263229429131066"><ele>36.5</ele><time>2026-04-19T07:24:28Z</time></trkpt><trkpt lat="38.838322895866895" lon="16.263373535107387"><ele>37.0</ele><time>2026-04-19T07:24:29Z</time></trkpt><trkpt lat="38.83826569058335" lon="16.263534036005908"><ele>37.0</ele><time>2026-04-19T07:24:30Z</time></trkpt><trkpt lat="38.838213032425905" lon="16.263711200716816"><ele>37.0</ele><time>2026-04-19T07:24:31Z</time></trkpt><trkpt lat="38.83818409651969" lon="16.26391600398624"><ele>37.0</ele><time>2026-04-19T07:24:32Z</time></trkpt><trkpt lat="38.83814720149561" lon="16.264111236694706"><ele>37.66666666666667</ele><time>2026-04-19T07:24:33Z</time></trkpt><trkpt lat="38.83809714841538" lon="16.264314463646475"><ele>38.333333333333336</ele><time>2026-04-19T07:24:34Z</time></trkpt><trkpt lat="38.838042900242314" lon="16.264544553725003"><ele>39.0</ele><time>2026-04-19T07:24:35Z</time></trkpt><trkpt lat="38.83798387019907" lon="16.264766892289465"><ele>39.333333333333336</ele><time>2026-04-19T07:24:36Z</time></trkpt><trkpt lat="38.83791298076529" lon="16.26500368926299"><ele>39.66666666666667</ele><time>2026-04-19T07:24:37Z</time></trkpt><trkpt lat="38.837839980536465" lon="16.26522624085535"><ele>40.0</ele><time>2026-04-19T07:24:38Z</time></trkpt><trkpt lat="38.83781395715668" lon="16.265452464270588"><ele>40.75</ele><time>2026-04-19T07:24:39Z</time></trkpt><trkpt lat="38.83777710223101" lon="16.265659806289037"><ele>41.5</ele><time>2026-04-19T07:24:40Z</time></trkpt><trkpt lat="38.837742428118815" lon="16.265839342123957"><ele>42.25</ele><time>2026-04-19T07:24:41Z</time></trkpt><trkpt lat="38.83771843710335" lon="16.266003560095026"><ele>43.0</ele><time>2026-04-19T07:24:42Z</time></trkpt><trkpt lat="38.837674487047586" lon="16.26616859942984"><ele>43.25</ele><time>2026-04-19T07:24:43Z</time></trkpt><trkpt lat="38.837625852848674" lon="16.266323037582936"><ele>43.5</ele><time>2026-04-19T07:24:44Z</time></trkpt><trkpt lat="38.837565009561644" lon="16.26646748643196"><ele>43.75</ele><time>2026-04-19T07:24:45Z</time></trkpt><trkpt lat="38.83752057174871" lon="16.2666177870395"><ele>44.0</ele><time>2026-04-19T07:24:46Z</time></trkpt><trkpt lat="38.83746457203807" lon="16.26678654530577"><ele>44.33333333333333</ele><time>2026-04-19T07:24:47Z</time></trkpt><trkpt lat="38.83738962856943" lon="16.2669590278756"><ele>44.666666666666664</ele><time>2026-04-19T07:24:48Z</time></trkpt><trkpt lat="38.83729772476348" lon="16.267156269743023"><ele>45.0</ele><time>2026-04-19T07:24:49Z</time></trkpt><trkpt lat="38.837217270917016" lon="16.267348008285826"><ele>46.0</ele><time>2026-04-19T07:24:50Z</time></trkpt><trkpt lat="38.837137796445006" lon="16.267543909360132"><ele>47.0</ele><time>2026-04-19T07:24:51Z</time></trkpt><trkpt lat="38.83706698010364" lon="16.267725475007854"><ele>48.0</ele><time>2026-04-19T07:24:52Z</time></trkpt><trkpt lat="38.83699768001426" lon="16.2679072500237"><ele>48.0</ele><time>2026-04-19T07:24:53Z</time></trkpt><trkpt lat="38.83693040034743" lon="16.268089703415157"><ele>48.0</ele><time>2026-04-19T07:24:54Z</time></trkpt><trkpt lat="38.836864477671554" lon="16.2682879299501"><ele>48.0</ele><time>2026-04-19T07:24:55Z</time></trkpt><trkpt lat="38.836809648648064" lon="16.26847866473166"><ele>48.0</ele><time>2026-04-19T07:24:55.999Z</time></trkpt><trkpt lat="38.836765378718006" lon="16.26866497483096"><ele>48.0</ele><time>2026-04-19T07:24:56.999Z</time></trkpt><trkpt lat="38.83670300691402" lon="16.268840678104365"><ele>48.0</ele><time>2026-04-19T07:24:57.999Z</time></trkpt><trkpt lat="38.83663624102489" lon="16.2690182405176"><ele>48.0</ele><time>2026-04-19T07:24:58.999Z</time></trkpt><trkpt lat="38.83656442451474" lon="16.269206439741378"><ele>48.0</ele><time>2026-04-19T07:24:59.999Z</time></trkpt><trkpt lat="38.8364951121355" lon="16.269371959409693"><ele>48.0</ele><time>2026-04-19T07:25:00.999Z</time></trkpt><trkpt lat="38.83643692747419" lon="16.269532412544145"><ele>48.0</ele><time>2026-04-19T07:25:01.999Z</time></trkpt><trkpt lat="38.836381907889646" lon="16.269676685440942"><ele>48.2</ele><time>2026-04-19T07:25:02.999Z</time></trkpt><trkpt lat="38.83632981559458" lon="16.269813213667174"><ele>48.4</ele><time>2026-04-19T07:25:03.999Z</time></trkpt><trkpt lat="38.836284637078805" lon="16.269934004787007"><ele>48.6</ele><time>2026-04-19T07:25:04.999Z</time></trkpt><trkpt lat="38.83622280366612" lon="16.270041668484957"><ele>48.800000000000004</ele><time>2026-04-19T07:25:05.999Z</time></trkpt><trkpt lat="38.8361631555412" lon="16.270155007478355"><ele>49.0</ele><time>2026-04-19T07:25:06.999Z</time></trkpt><trkpt lat="38.83609397493896" lon="16.2702835785666"><ele>49.0</ele><time>2026-04-19T07:25:07.999Z</time></trkpt><trkpt lat="38.83602670941151" lon="16.270433991694418"><ele>49.0</ele><time>2026-04-19T07:25:08.999Z</time></trkpt><trkpt lat="38.83596680802197" lon="16.270580714050464"><ele>49.0</ele><time>2026-04-19T07:25:09.999Z</time></trkpt><trkpt lat="38.835870791404204" lon="16.270702539986555"><ele>49.0</ele><time>2026-04-19T07:25:10.999Z</time></trkpt><trkpt lat="38.835772103131106" lon="16.27081461654086"><ele>50.2</ele><time>2026-04-19T07:25:11.999Z</time></trkpt><trkpt lat="38.83569842451912" lon="16.27091973854822"><ele>51.400000000000006</ele><time>2026-04-19T07:25:12.999Z</time></trkpt><trkpt lat="38.83563435955565" lon="16.271008153102247"><ele>52.6</ele><time>2026-04-19T07:25:13.999Z</time></trkpt><trkpt lat="38.83552075296934" lon="16.27102780989152"><ele>53.8</ele><time>2026-04-19T07:25:14.999Z</time></trkpt><trkpt lat="38.8354505244245" lon="16.271098759889217"><ele>55.0</ele><time>2026-04-19T07:25:15.999Z</time></trkpt><trkpt lat="38.83539860175981" lon="16.27117900895393"><ele>55.0</ele><time>2026-04-19T07:25:16.999Z</time></trkpt><trkpt lat="38.83536119896693" lon="16.271269629806948"><ele>55.0</ele><time>2026-04-19T07:25:17.999Z</time></trkpt><trkpt lat="38.83529108371152" lon="16.271395026265587"><ele>55.0</ele><time>2026-04-19T07:25:19.999Z</time></trkpt><trkpt lat="38.835357299871724" lon="16.27149277201314"><ele>55.0</ele><time>2026-04-19T07:25:21.999Z</time></trkpt><trkpt lat="38.83541053358828" lon="16.271546716291297"><ele>55.0</ele><time>2026-04-19T07:25:22.999Z</time></trkpt><trkpt lat="38.835468124723015" lon="16.271623047652636"><ele>55.0</ele><time>2026-04-19T07:25:23.999Z</time></trkpt><trkpt lat="38.83555195439139" lon="16.271673337179266"><ele>55.0</ele><time>2026-04-19T07:25:24.999Z</time></trkpt><trkpt lat="38.835662525351054" lon="16.271703099734072"><ele>55.0</ele><time>2026-04-19T07:25:25.999Z</time></trkpt><trkpt lat="38.835780098222756" lon="16.271696008589007"><ele>55.0</ele><time>2026-04-19T07:25:26.999Z</time></trkpt><trkpt lat="38.835888214736784" lon="16.27168575879454"><ele>55.0</ele><time>2026-04-19T07:25:27.999Z</time></trkpt><trkpt lat="38.835983917060894" lon="16.271685948510587"><ele>54.666666666666664</ele><time>2026-04-19T07:25:28.999Z</time></trkpt><trkpt lat="38.836049900774924" lon="16.271708168202924"><ele>54.33333333333333</ele><time>2026-04-19T07:25:29.999Z</time></trkpt><trkpt lat="38.83610824581602" lon="16.27174403687371"><ele>54.0</ele><time>2026-04-19T07:25:30.999Z</time></trkpt><trkpt lat="38.83618827112488" lon="16.271817907988865"><ele>53.66666666666667</ele><time>2026-04-19T07:25:32.999Z</time></trkpt><trkpt lat="38.83624497119987" lon="16.271886811760343"><ele>53.333333333333336</ele><time>2026-04-19T07:25:34.999Z</time></trkpt><trkpt lat="38.836306136763135" lon="16.271964879283015"><ele>53.0</ele><time>2026-04-19T07:25:35.999Z</time></trkpt><trkpt lat="38.83637691512825" lon="16.2720552159264"><ele>53.0</ele><time>2026-04-19T07:25:36.999Z</time></trkpt><trkpt lat="38.83644457508299" lon="16.272150868361532"><ele>53.0</ele><time>2026-04-19T07:25:37.999Z</time></trkpt><trkpt lat="38.8365020702855" lon="16.272244554195304"><ele>53.0</ele><time>2026-04-19T07:25:38.999Z</time></trkpt><trkpt lat="38.836555912895136" lon="16.272388731506517"><ele>53.0</ele><time>2026-04-19T07:25:39.999Z</time></trkpt><trkpt lat="38.836596817272515" lon="16.272555034298843"><ele>53.0</ele><time>2026-04-19T07:25:40.999Z</time></trkpt><trkpt lat="38.83665659360866" lon="16.272718197441918"><ele>53.0</ele><time>2026-04-19T07:25:41.999Z</time></trkpt><trkpt lat="38.83669868959309" lon="16.27292964808402"><ele>53.0</ele><time>2026-04-19T07:25:42.999Z</time></trkpt><trkpt lat="38.83672655656521" lon="16.27313388795343"><ele>53.0</ele><time>2026-04-19T07:25:43.999Z</time></trkpt><trkpt lat="38.836775708402385" lon="16.273344643265045"><ele>53.0</ele><time>2026-04-19T07:25:44.999Z</time></trkpt><trkpt lat="38.83682312385027" lon="16.2735368458225"><ele>53.0</ele><time>2026-04-19T07:25:45.999Z</time></trkpt><trkpt lat="38.836866402221254" lon="16.273719131672944"><ele>52.5</ele><time>2026-04-19T07:25:46.999Z</time></trkpt><trkpt lat="38.83691552878832" lon="16.273899746362936"><ele>52.0</ele><time>2026-04-19T07:25:47.999Z</time></trkpt><trkpt lat="38.836971594109514" lon="16.274076426028333"><ele>51.5</ele><time>2026-04-19T07:25:48.999Z</time></trkpt><trkpt lat="38.837036354981095" lon="16.274237673288212"><ele>51.0</ele><time>2026-04-19T07:25:49.999Z</time></trkpt><trkpt lat="38.837111035641975" lon="16.274389788688456"><ele>51.0</ele><time>2026-04-19T07:25:50.999Z</time></trkpt><trkpt lat="38.83717635539945" lon="16.27452688594269"><ele>51.0</ele><time>2026-04-19T07:25:51.999Z</time></trkpt><trkpt lat="38.837245216740634" lon="16.274629947730947"><ele>51.0</ele><time>2026-04-19T07:25:52.999Z</time></trkpt><trkpt lat="38.83731145634707" lon="16.27474529578359"><ele>51.0</ele><time>2026-04-19T07:25:53.999Z</time></trkpt><trkpt lat="38.83738042068316" lon="16.274855175505053"><ele>51.0</ele><time>2026-04-19T07:25:54.999Z</time></trkpt><trkpt lat="38.8374289030713" lon="16.27496222352638"><ele>51.0</ele><time>2026-04-19T07:25:55.999Z</time></trkpt><trkpt lat="38.83746565302347" lon="16.27504319738737"><ele>51.0</ele><time>2026-04-19T07:25:56.999Z</time></trkpt><trkpt lat="38.83749827389215" lon="16.27511555124641"><ele>51.0</ele><time>2026-04-19T07:25:57.999Z</time></trkpt><trkpt lat="38.8375466943232" lon="16.275169681779335"><ele>51.0</ele><time>2026-04-19T07:25:58.999Z</time></trkpt><trkpt lat="38.83758348195651" lon="16.275236501676588"><ele>51.0</ele><time>2026-04-19T07:25:59.999Z</time></trkpt><trkpt lat="38.83764315597195" lon="16.27528811215693"><ele>51.0</ele><time>2026-04-19T07:26:00.999Z</time></trkpt><trkpt lat="38.837683910730235" lon="16.275353794088108"><ele>51.0</ele><time>2026-04-19T07:26:01.999Z</time></trkpt><trkpt lat="38.83772083076047" lon="16.275421760488054"><ele>51.0</ele><time>2026-04-19T07:26:02.999Z</time></trkpt><trkpt lat="38.83775966756468" lon="16.27549455001984"><ele>51.0</ele><time>2026-04-19T07:26:03.999Z</time></trkpt><trkpt lat="38.837798527005496" lon="16.275572152890874"><ele>51.0</ele><time>2026-04-19T07:26:04.999Z</time></trkpt><trkpt lat="38.837832431313785" lon="16.275643837828824"><ele>51.0</ele><time>2026-04-19T07:26:05.999Z</time></trkpt><trkpt lat="38.83786853359147" lon="16.275711187246785"><ele>51.0</ele><time>2026-04-19T07:26:06.999Z</time></trkpt><trkpt lat="38.83790620887963" lon="16.27577828448467"><ele>51.0</ele><time>2026-04-19T07:26:07.999Z</time></trkpt><trkpt lat="38.8379387393252" lon="16.275851581864227"><ele>51.75</ele><time>2026-04-19T07:26:08.999Z</time></trkpt><trkpt lat="38.83802309804745" lon="16.276021429811458"><ele>52.5</ele><time>2026-04-19T07:26:10.999Z</time></trkpt><trkpt lat="38.83807951770102" lon="16.276158746011234"><ele>53.25</ele><time>2026-04-19T07:26:11.999Z</time></trkpt><trkpt lat="38.838143459416735" lon="16.276303053448125"><ele>54.0</ele><time>2026-04-19T07:26:12.999Z</time></trkpt><trkpt lat="38.83819863714335" lon="16.276404152049235"><ele>54.400000000000006</ele><time>2026-04-19T07:26:13.999Z</time></trkpt><trkpt lat="38.838242950484364" lon="16.276492725622035"><ele>54.800000000000004</ele><time>2026-04-19T07:26:14.999Z</time></trkpt><trkpt lat="38.838276255869395" lon="16.27656820435023"><ele>55.199999999999996</ele><time>2026-04-19T07:26:15.999Z</time></trkpt><trkpt lat="38.8383061130554" lon="16.276652030591883"><ele>55.599999999999994</ele><time>2026-04-19T07:26:16.999Z</time></trkpt><trkpt lat="38.838355975791714" lon="16.276797056646213"><ele>56.0</ele><time>2026-04-19T07:26:18.999Z</time></trkpt><trkpt lat="38.838420745091774" lon="16.276956840691103"><ele>56.00000000000001</ele><time>2026-04-19T07:26:20.999Z</time></trkpt><trkpt lat="38.83846678112535" lon="16.277052537832414"><ele>56.0</ele><time>2026-04-19T07:26:21.999Z</time></trkpt><trkpt lat="38.838469330608184" lon="16.277170054429437"><ele>56.0</ele><time>2026-04-19T07:26:22.999Z</time></trkpt><trkpt lat="38.838508544284366" lon="16.27725965260224"><ele>56.0</ele><time>2026-04-19T07:26:23.999Z</time></trkpt><trkpt lat="38.83853394631117" lon="16.277351495454518"><ele>56.00000000000001</ele><time>2026-04-19T07:26:24.999Z</time></trkpt><trkpt lat="38.8385522512383" lon="16.27745031942748"><ele>56.0</ele><time>2026-04-19T07:26:25.999Z</time></trkpt><trkpt lat="38.83858077320287" lon="16.27758223240786"><ele>55.8</ele><time>2026-04-19T07:26:26.999Z</time></trkpt><trkpt lat="38.838625172301484" lon="16.277709428682154"><ele>55.599999999999994</ele><time>2026-04-19T07:26:27.999Z</time></trkpt><trkpt lat="38.8386586119297" lon="16.277834214541624"><ele>55.4</ele><time>2026-04-19T07:26:28.999Z</time></trkpt><trkpt lat="38.83871710345184" lon="16.277931811957988"><ele>55.2</ele><time>2026-04-19T07:26:29.999Z</time></trkpt><trkpt lat="38.83875377933525" lon="16.278009893507157"><ele>55.0</ele><time>2026-04-19T07:26:30.999Z</time></trkpt><trkpt lat="38.83880023698254" lon="16.27810736547313"><ele>54.83333333333333</ele><time>2026-04-19T07:26:32.999Z</time></trkpt><trkpt lat="38.838842109581044" lon="16.278188002072806"><ele>54.666666666666664</ele><time>2026-04-19T07:26:38.999Z</time></trkpt><trkpt lat="38.83888740275013" lon="16.278281731689045"><ele>54.5</ele><time>2026-04-19T07:26:42.999Z</time></trkpt><trkpt lat="38.838916637344575" lon="16.278353613701732"><ele>54.33333333333333</ele><time>2026-04-19T07:26:44.999Z</time></trkpt><trkpt lat="38.83892587224249" lon="16.278434230466058"><ele>54.166666666666664</ele><time>2026-04-19T07:26:46.999Z</time></trkpt><trkpt lat="38.83885937955207" lon="16.278483675018943"><ele>54.0</ele><time>2026-04-19T07:26:50.999Z</time></trkpt><trkpt lat="38.83879450666221" lon="16.27856762755899"><ele>54.0</ele><time>2026-04-19T07:26:54.999Z</time></trkpt><trkpt lat="38.8387422946285" lon="16.278632636344717"><ele>54.00000000000001</ele><time>2026-04-19T07:26:56.999Z</time></trkpt><trkpt lat="38.838658595628914" lon="16.27873001810908"><ele>54.00000000000001</ele><time>2026-04-19T07:26:58.999Z</time></trkpt><trkpt lat="38.83857791478506" lon="16.278823888321845"><ele>54.0</ele><time>2026-04-19T07:27:00.999Z</time></trkpt><trkpt lat="38.8384856562766" lon="16.278928541897233"><ele>54.0</ele><time>2026-04-19T07:27:02.999Z</time></trkpt><trkpt lat="38.83844236375765" lon="16.279002995385934"><ele>54.285714285714285</ele><time>2026-04-19T07:27:03.999Z</time></trkpt><trkpt lat="38.83839107069654" lon="16.279060282106187"><ele>54.57142857142857</ele><time>2026-04-19T07:27:04.999Z</time></trkpt><trkpt lat="38.838325653820675" lon="16.279109741945287"><ele>54.85714285714286</ele><time>2026-04-19T07:27:05.999Z</time></trkpt><trkpt lat="38.83828184985552" lon="16.279180234209743"><ele>55.14285714285714</ele><time>2026-04-19T07:27:06.999Z</time></trkpt><trkpt lat="38.83823000710783" lon="16.279242854120152"><ele>55.42857142857143</ele><time>2026-04-19T07:27:07.999Z</time></trkpt><trkpt lat="38.83818666281119" lon="16.279311836287537"><ele>55.714285714285715</ele><time>2026-04-19T07:27:08.999Z</time></trkpt><trkpt lat="38.83814650524849" lon="16.279398092916104"><ele>56.0</ele><time>2026-04-19T07:27:09.999Z</time></trkpt><trkpt lat="38.83811800916714" lon="16.279533826827265"><ele>56.00000000000001</ele><time>2026-04-19T07:27:11.999Z</time></trkpt><trkpt lat="38.838085349750926" lon="16.279622223868877"><ele>56.0</ele><time>2026-04-19T07:27:13.999Z</time></trkpt><trkpt lat="38.838018670894755" lon="16.279635325485312"><ele>56.0</ele><time>2026-04-19T07:27:15.999Z</time></trkpt><trkpt lat="38.83791804260958" lon="16.27961890309404"><ele>56.0</ele><time>2026-04-19T07:27:17.999Z</time></trkpt><trkpt lat="38.83785452256284" lon="16.279602810820677"><ele>56.00000000000001</ele><time>2026-04-19T07:27:18.999Z</time></trkpt><trkpt lat="38.83778556936497" lon="16.279602260224856"><ele>56.0</ele><time>2026-04-19T07:27:19.999Z</time></trkpt><trkpt lat="38.83771148625505" lon="16.2795841218158"><ele>56.00000000000001</ele><time>2026-04-19T07:27:20.999Z</time></trkpt><trkpt lat="38.837655006068225" lon="16.27953452611589"><ele>56.0</ele><time>2026-04-19T07:27:21.999Z</time></trkpt><trkpt lat="38.837584734503444" lon="16.27951285037395"><ele>56.0</ele><time>2026-04-19T07:27:22.999Z</time></trkpt><trkpt lat="38.8375049145169" lon="16.279499049465507"><ele>56.0</ele><time>2026-04-19T07:27:23.999Z</time></trkpt><trkpt lat="38.83742277309977" lon="16.279485582627736"><ele>56.00000000000001</ele><time>2026-04-19T07:27:24.999Z</time></trkpt><trkpt lat="38.83733491203479" lon="16.279491847671633"><ele>56.0</ele><time>2026-04-19T07:27:25.999Z</time></trkpt><trkpt lat="38.83726110686306" lon="16.279458099065113"><ele>56.00000000000001</ele><time>2026-04-19T07:27:26.999Z</time></trkpt><trkpt lat="38.83717944323942" lon="16.279449986579465"><ele>56.0</ele><time>2026-04-19T07:27:27.999Z</time></trkpt><trkpt lat="38.837094256376176" lon="16.27945318685428"><ele>56.0</ele><time>2026-04-19T07:27:28.999Z</time></trkpt><trkpt lat="38.837021546852036" lon="16.279435525093216"><ele>56.0</ele><time>2026-04-19T07:27:29.999Z</time></trkpt><trkpt lat="38.83695200807239" lon="16.27942245282763"><ele>56.00000000000001</ele><time>2026-04-19T07:27:30.999Z</time></trkpt><trkpt lat="38.83684085240843" lon="16.279438996876674"><ele>56.0</ele><time>2026-04-19T07:27:32.999Z</time></trkpt><trkpt lat="38.836761472268755" lon="16.27947177462273"><ele>56.50000000000001</ele><time>2026-04-19T07:27:34.999Z</time></trkpt><trkpt lat="38.836684806451586" lon="16.279473237532997"><ele>57.0</ele><time>2026-04-19T07:27:36.999Z</time></trkpt><trkpt lat="38.83658745440894" lon="16.279490428015414"><ele>57.5</ele><time>2026-04-19T07:27:38.999Z</time></trkpt><trkpt lat="38.836494030590046" lon="16.27948278957484"><ele>58.0</ele><time>2026-04-19T07:27:40.999Z</time></trkpt><trkpt lat="38.836406756237324" lon="16.279494290630307"><ele>58.50000000000001</ele><time>2026-04-19T07:27:42.999Z</time></trkpt><trkpt lat="38.83633105678849" lon="16.279521241275003"><ele>59.0</ele><time>2026-04-19T07:27:44.999Z</time></trkpt><trkpt lat="38.836251747681075" lon="16.279516914510978"><ele>59.00000000000001</ele><time>2026-04-19T07:27:46.999Z</time></trkpt><trkpt lat="38.83616973854156" lon="16.27953039576057"><ele>59.0</ele><time>2026-04-19T07:27:48.999Z</time></trkpt><trkpt lat="38.83608924194408" lon="16.279556417534113"><ele>59.0</ele><time>2026-04-19T07:27:50.999Z</time></trkpt><trkpt lat="38.8360097606305" lon="16.27957503252193"><ele>59.0</ele><time>2026-04-19T07:27:52.999Z</time></trkpt><trkpt lat="38.835931409535405" lon="16.279631042389013"><ele>59.00000000000001</ele><time>2026-04-19T07:27:54.999Z</time></trkpt><trkpt lat="38.83583237938509" lon="16.27967240365745"><ele>59.0</ele><time>2026-04-19T07:27:56.999Z</time></trkpt><trkpt lat="38.83572177420371" lon="16.27969262763445"><ele>59.66666666666667</ele><time>2026-04-19T07:27:58.999Z</time></trkpt><trkpt lat="38.83561754397545" lon="16.2796542859184"><ele>60.333333333333336</ele><time>2026-04-19T07:28:00.999Z</time></trkpt><trkpt lat="38.83551622101853" lon="16.279627353420747"><ele>61.0</ele><time>2026-04-19T07:28:02.999Z</time></trkpt><trkpt lat="38.835440975455455" lon="16.279606967555612"><ele>61.66666666666667</ele><time>2026-04-19T07:28:04.999Z</time></trkpt><trkpt lat="38.83537574551369" lon="16.279588619493694"><ele>62.333333333333336</ele><time>2026-04-19T07:28:06.999Z</time></trkpt><trkpt lat="38.83531193730448" lon="16.27958392586579"><ele>63.0</ele><time>2026-04-19T07:28:08.999Z</time></trkpt><trkpt lat="38.83523703897904" lon="16.279561226113483"><ele>63.0</ele><time>2026-04-19T07:28:10.999Z</time></trkpt><trkpt lat="38.83515816939287" lon="16.279513701333634"><ele>63.0</ele><time>2026-04-19T07:28:12.999Z</time></trkpt><trkpt lat="38.83507938915798" lon="16.279483412794075"><ele>63.0</ele><time>2026-04-19T07:28:14.999Z</time></trkpt><trkpt lat="38.83499649533284" lon="16.279448772759583"><ele>63.0</ele><time>2026-04-19T07:28:16.999Z</time></trkpt><trkpt lat="38.834900824405246" lon="16.279408793373207"><ele>63.0</ele><time>2026-04-19T07:28:18.999Z</time></trkpt><trkpt lat="38.834796980728676" lon="16.27936539871915"><ele>63.8</ele><time>2026-04-19T07:28:20.999Z</time></trkpt><trkpt lat="38.83468794315364" lon="16.279338210327193"><ele>64.6</ele><time>2026-04-19T07:28:22.999Z</time></trkpt><trkpt lat="38.834581869406804" lon="16.2792899216464"><ele>65.4</ele><time>2026-04-19T07:28:24.999Z</time></trkpt><trkpt lat="38.83446887982059" lon="16.279238486766392"><ele>66.2</ele><time>2026-04-19T07:28:26.999Z</time></trkpt><trkpt lat="38.83437426229264" lon="16.27920213402014"><ele>67.0</ele><time>2026-04-19T07:28:28.999Z</time></trkpt><trkpt lat="38.83429658355325" lon="16.279203175252828"><ele>67.0</ele><time>2026-04-19T07:28:30.999Z</time></trkpt><trkpt lat="38.834233329593594" lon="16.27925624138518"><ele>67.0</ele><time>2026-04-19T07:28:32.999Z</time></trkpt><trkpt lat="38.834191130436416" lon="16.27933607862994"><ele>67.0</ele><time>2026-04-19T07:28:34.999Z</time></trkpt><trkpt lat="38.834155708823026" lon="16.27941920632724"><ele>67.0</ele><time>2026-04-19T07:28:36.999Z</time></trkpt><trkpt lat="38.834129411087716" lon="16.279492709755647"><ele>67.0</ele><time>2026-04-19T07:28:38.999Z</time></trkpt><trkpt lat="38.834104133067015" lon="16.279571610061254"><ele>67.0</ele><time>2026-04-19T07:28:43.999Z</time></trkpt><trkpt lat="38.834081979979366" lon="16.279654636722288"><ele>67.0</ele><time>2026-04-19T07:29:09.999Z</time></trkpt><trkpt lat="38.83406345961595" lon="16.279737084773558"><ele>67.5</ele><time>2026-04-19T07:29:12.999Z</time></trkpt><trkpt lat="38.83404631364675" lon="16.279816540120603"><ele>68.0</ele><time>2026-04-19T07:29:15.002Z</time></trkpt><trkpt lat="38.834016673182866" lon="16.279938825313096"><ele>68.5</ele><time>2026-04-19T07:29:17.002Z</time></trkpt><trkpt lat="38.83397903725864" lon="16.280073033086662"><ele>69.0</ele><time>2026-04-19T07:29:19.002Z</time></trkpt><trkpt lat="38.83393899261404" lon="16.28016363275641"><ele>69.5</ele><time>2026-04-19T07:29:21.002Z</time></trkpt><trkpt lat="38.833857569824126" lon="16.280219120614174"><ele>70.0</ele><time>2026-04-19T07:29:23.001Z</time></trkpt><trkpt lat="38.83377748831671" lon="16.28017019528467"><ele>70.0</ele><time>2026-04-19T07:29:24.001Z</time></trkpt><trkpt lat="38.833702142159616" lon="16.280163046454728"><ele>70.0</ele><time>2026-04-19T07:29:25.001Z</time></trkpt><trkpt lat="38.83362551756311" lon="16.280161653217228"><ele>70.0</ele><time>2026-04-19T07:29:26.001Z</time></trkpt><trkpt lat="38.83354981861943" lon="16.280154861013166"><ele>70.0</ele><time>2026-04-19T07:29:27.001Z</time></trkpt><trkpt lat="38.83347525659274" lon="16.280169178782735"><ele>70.0</ele><time>2026-04-19T07:29:28.001Z</time></trkpt><trkpt lat="38.833402159003604" lon="16.28015925715371"><ele>70.0</ele><time>2026-04-19T07:29:29.001Z</time></trkpt><trkpt lat="38.833330312471325" lon="16.280158963900668"><ele>70.0</ele><time>2026-04-19T07:29:30.001Z</time></trkpt><trkpt lat="38.833259871548385" lon="16.280155493533886"><ele>70.42857142857143</ele><time>2026-04-19T07:29:31.001Z</time></trkpt><trkpt lat="38.8331934102824" lon="16.28013523624886"><ele>70.85714285714286</ele><time>2026-04-19T07:29:32.001Z</time></trkpt><trkpt lat="38.8331285833022" lon="16.28013740202806"><ele>71.28571428571428</ele><time>2026-04-19T07:29:33.001Z</time></trkpt><trkpt lat="38.83306167271751" lon="16.280140946417696"><ele>71.71428571428572</ele><time>2026-04-19T07:29:34.001Z</time></trkpt><trkpt lat="38.83299404230949" lon="16.28014739585428"><ele>72.14285714285714</ele><time>2026-04-19T07:29:35.001Z</time></trkpt><trkpt lat="38.83292625107666" lon="16.280155740912694"><ele>72.57142857142857</ele><time>2026-04-19T07:29:36.001Z</time></trkpt><trkpt lat="38.83285593137507" lon="16.280169420415064"><ele>73.0</ele><time>2026-04-19T07:29:37.001Z</time></trkpt><trkpt lat="38.83278285283862" lon="16.280185016812148"><ele>73.0</ele><time>2026-04-19T07:29:38.001Z</time></trkpt><trkpt lat="38.83270875539982" lon="16.280204525602958"><ele>73.0</ele><time>2026-04-19T07:29:39.001Z</time></trkpt><trkpt lat="38.832632234520844" lon="16.28022763903999"><ele>73.0</ele><time>2026-04-19T07:29:40.001Z</time></trkpt><trkpt lat="38.83255603361313" lon="16.280250704506503"><ele>73.0</ele><time>2026-04-19T07:29:41.001Z</time></trkpt><trkpt lat="38.83248397401687" lon="16.28029657956427"><ele>73.0</ele><time>2026-04-19T07:29:42.001Z</time></trkpt><trkpt lat="38.83240816533721" lon="16.280317328963122"><ele>73.0</ele><time>2026-04-19T07:29:43.001Z</time></trkpt><trkpt lat="38.83233566268937" lon="16.280333314153403"><ele>73.5</ele><time>2026-04-19T07:29:44.001Z</time></trkpt><trkpt lat="38.83226464277531" lon="16.280331820914853"><ele>74.0</ele><time>2026-04-19T07:29:45.001Z</time></trkpt><trkpt lat="38.83219510920948" lon="16.280346697993437"><ele>74.5</ele><time>2026-04-19T07:29:46.001Z</time></trkpt><trkpt lat="38.832142346421115" lon="16.280469750188654"><ele>75.0</ele><time>2026-04-19T07:29:47.001Z</time></trkpt><trkpt lat="38.832080412576595" lon="16.280531240349024"><ele>75.5</ele><time>2026-04-19T07:29:48.001Z</time></trkpt><trkpt lat="38.83201857454593" lon="16.28059780501903"><ele>76.0</ele><time>2026-04-19T07:29:49Z</time></trkpt><trkpt lat="38.83195859285061" lon="16.280658568953417"><ele>76.33333333333333</ele><time>2026-04-19T07:29:50Z</time></trkpt><trkpt lat="38.83189858455139" lon="16.280722927542804"><ele>76.66666666666666</ele><time>2026-04-19T07:29:51Z</time></trkpt><trkpt lat="38.83183598399891" lon="16.280790675242688"><ele>77.0</ele><time>2026-04-19T07:29:52Z</time></trkpt><trkpt lat="38.83176530565405" lon="16.28086616470454"><ele>77.33333333333333</ele><time>2026-04-19T07:29:53Z</time></trkpt><trkpt lat="38.83169251764043" lon="16.28095114089126"><ele>77.66666666666667</ele><time>2026-04-19T07:29:54Z</time></trkpt><trkpt lat="38.831625921454325" lon="16.281035459201004"><ele>78.0</ele><time>2026-04-19T07:29:55Z</time></trkpt><trkpt lat="38.83156574199337" lon="16.281117591487668"><ele>78.6</ele><time>2026-04-19T07:29:56Z</time></trkpt><trkpt lat="38.83150096372915" lon="16.281200508164094"><ele>79.19999999999999</ele><time>2026-04-19T07:29:57Z</time></trkpt><trkpt lat="38.831431875915186" lon="16.28129952312133"><ele>79.8</ele><time>2026-04-19T07:29:58Z</time></trkpt><trkpt lat="38.831358569453734" lon="16.281384188648328"><ele>80.39999999999999</ele><time>2026-04-19T07:29:59Z</time></trkpt><trkpt lat="38.83128861219193" lon="16.281458268298408"><ele>81.0</ele><time>2026-04-19T07:30:00Z</time></trkpt><trkpt lat="38.831201961546824" lon="16.281526438855902"><ele>81.0</ele><time>2026-04-19T07:30:01Z</time></trkpt><trkpt lat="38.83109648359001" lon="16.28158132903947"><ele>81.0</ele><time>2026-04-19T07:30:02Z</time></trkpt><trkpt lat="38.8309991474458" lon="16.281650825353214"><ele>81.0</ele><time>2026-04-19T07:30:03Z</time></trkpt><trkpt lat="38.83090986431771" lon="16.281729062646782"><ele>81.0</ele><time>2026-04-19T07:30:04Z</time></trkpt><trkpt lat="38.830819559607264" lon="16.28180862157126"><ele>81.0</ele><time>2026-04-19T07:30:05Z</time></trkpt><trkpt lat="38.830719989072485" lon="16.2818735681364"><ele>82.0</ele><time>2026-04-19T07:30:06Z</time></trkpt><trkpt lat="38.830611561068984" lon="16.281924922777982"><ele>83.0</ele><time>2026-04-19T07:30:07Z</time></trkpt><trkpt lat="38.83050835125767" lon="16.28198771992238"><ele>84.0</ele><time>2026-04-19T07:30:08Z</time></trkpt><trkpt lat="38.830407979293675" lon="16.282056205598074"><ele>85.0</ele><time>2026-04-19T07:30:09Z</time></trkpt><trkpt lat="38.83031082380888" lon="16.282134026162673"><ele>85.0</ele><time>2026-04-19T07:30:10Z</time></trkpt><trkpt lat="38.830227950460156" lon="16.282221067953984"><ele>85.0</ele><time>2026-04-19T07:30:11Z</time></trkpt><trkpt lat="38.83015729346833" lon="16.28229963286549"><ele>85.0</ele><time>2026-04-19T07:30:12Z</time></trkpt><trkpt lat="38.8300996257923" lon="16.282379989524024"><ele>85.0</ele><time>2026-04-19T07:30:13Z</time></trkpt><trkpt lat="38.83004767311115" lon="16.282453585376434"><ele>85.0</ele><time>2026-04-19T07:30:14Z</time></trkpt><trkpt lat="38.83001584946683" lon="16.28253538791835"><ele>85.0</ele><time>2026-04-19T07:30:15Z</time></trkpt><trkpt lat="38.83000280702412" lon="16.28268065782996"><ele>85.0</ele><time>2026-04-19T07:30:17Z</time></trkpt><trkpt lat="38.83001564597804" lon="16.282793632376517"><ele>85.0</ele><time>2026-04-19T07:30:19Z</time></trkpt><trkpt lat="38.83003649980004" lon="16.282877450482786"><ele>85.0</ele><time>2026-04-19T07:30:21Z</time></trkpt><trkpt lat="38.830099479205934" lon="16.282929375993213"><ele>85.0</ele><time>2026-04-19T07:30:26Z</time></trkpt><trkpt lat="38.83013355859005" lon="16.28301190529151"><ele>85.0</ele><time>2026-04-19T07:30:31Z</time></trkpt><trkpt lat="38.83017369880714" lon="16.283084650396773"><ele>85.0</ele><time>2026-04-19T07:30:37Z</time></trkpt><trkpt lat="38.8302095027338" lon="16.283159227682958"><ele>85.0</ele><time>2026-04-19T07:30:43Z</time></trkpt><trkpt lat="38.83021427453999" lon="16.28325917168511"><ele>85.33333333333333</ele><time>2026-04-19T07:30:47Z</time></trkpt><trkpt lat="38.830253877749236" lon="16.28332407519509"><ele>85.66666666666666</ele><time>2026-04-19T07:30:50Z</time></trkpt><trkpt lat="38.830327921784" lon="16.283306915209618"><ele>86.0</ele><time>2026-04-19T07:30:53Z</time></trkpt><trkpt lat="38.830404316752606" lon="16.283274884426206"><ele>86.33333333333333</ele><time>2026-04-19T07:30:55Z</time></trkpt><trkpt lat="38.83048138597146" lon="16.283267302841306"><ele>86.66666666666667</ele><time>2026-04-19T07:30:57Z</time></trkpt><trkpt lat="38.830537599341454" lon="16.2833382190779"><ele>87.0</ele><time>2026-04-19T07:30:59Z</time></trkpt><trkpt lat="38.830566414971166" lon="16.28342850742551"><ele>87.0</ele><time>2026-04-19T07:31:01Z</time></trkpt><trkpt lat="38.83059413337342" lon="16.283521965681256"><ele>87.0</ele><time>2026-04-19T07:31:03Z</time></trkpt><trkpt lat="38.830635842085265" lon="16.283607153185528"><ele>87.0</ele><time>2026-04-19T07:31:06Z</time></trkpt><trkpt lat="38.83068608661883" lon="16.28369836448787"><ele>87.0</ele><time>2026-04-19T07:31:10Z</time></trkpt><trkpt lat="38.83072990939403" lon="16.283792800931725"><ele>87.0</ele><time>2026-04-19T07:31:12Z</time></trkpt><trkpt lat="38.83077010909094" lon="16.28389858240496"><ele>87.0</ele><time>2026-04-19T07:31:14Z</time></trkpt><trkpt lat="38.83081571321211" lon="16.28398807777895"><ele>88.6</ele><time>2026-04-19T07:31:16Z</time></trkpt><trkpt lat="38.830854675384984" lon="16.28408250317722"><ele>90.19999999999999</ele><time>2026-04-19T07:31:18Z</time></trkpt><trkpt lat="38.8309045866372" lon="16.284178161753093"><ele>91.8</ele><time>2026-04-19T07:31:20Z</time></trkpt><trkpt lat="38.83097294935715" lon="16.28428526857387"><ele>93.4</ele><time>2026-04-19T07:31:22Z</time></trkpt><trkpt lat="38.83104372575335" lon="16.284421592641518"><ele>95.0</ele><time>2026-04-19T07:31:24Z</time></trkpt><trkpt lat="38.83107373509486" lon="16.284494898618767"><ele>95.2</ele><time>2026-04-19T07:31:25Z</time></trkpt><trkpt lat="38.83113719496887" lon="16.284645315444333"><ele>95.4</ele><time>2026-04-19T07:31:27Z</time></trkpt><trkpt lat="38.831178811205824" lon="16.28473355367107"><ele>95.6</ele><time>2026-04-19T07:31:28Z</time></trkpt><trkpt lat="38.831221606877484" lon="16.2848078128797"><ele>95.8</ele><time>2026-04-19T07:31:29Z</time></trkpt><trkpt lat="38.831292619382246" lon="16.28493044846294"><ele>96.0</ele><time>2026-04-19T07:31:31Z</time></trkpt><trkpt lat="38.831343108944765" lon="16.285044234044474"><ele>97.6</ele><time>2026-04-19T07:31:33Z</time></trkpt><trkpt lat="38.83138412428056" lon="16.285129150079815"><ele>99.19999999999999</ele><time>2026-04-19T07:31:35Z</time></trkpt><trkpt lat="38.83144254654165" lon="16.285221289520226"><ele>100.80000000000001</ele><time>2026-04-19T07:31:37Z</time></trkpt><trkpt lat="38.83157409246478" lon="16.285251328679834"><ele>102.4</ele><time>2026-04-19T07:31:39Z</time></trkpt><trkpt lat="38.83168673296256" lon="16.285208636735774"><ele>104.0</ele><time>2026-04-19T07:31:40Z</time></trkpt><trkpt lat="38.83183205910652" lon="16.2852774034135"><ele>104.0</ele><time>2026-04-19T07:31:41Z</time></trkpt><trkpt lat="38.83197980419561" lon="16.285267148693723"><ele>104.0</ele><time>2026-04-19T07:31:42Z</time></trkpt><trkpt lat="38.83214092423373" lon="16.28525991855156"><ele>104.0</ele><time>2026-04-19T07:31:43Z</time></trkpt><trkpt lat="38.83231248577936" lon="16.285253402604383"><ele>104.0</ele><time>2026-04-19T07:31:44Z</time></trkpt><trkpt lat="38.83248167007467" lon="16.28524697694346"><ele>104.0</ele><time>2026-04-19T07:31:45Z</time></trkpt><trkpt lat="38.83264786649337" lon="16.285240664761712"><ele>104.0</ele><time>2026-04-19T07:31:46Z</time></trkpt><trkpt lat="38.832813871507916" lon="16.285234359850932"><ele>104.0</ele><time>2026-04-19T07:31:47Z</time></trkpt><trkpt lat="38.83293895728348" lon="16.285229609064064"><ele>104.0</ele><time>2026-04-19T07:31:48Z</time></trkpt><trkpt lat="38.833066375805785" lon="16.28522428479856"><ele>104.0</ele><time>2026-04-19T07:31:48.999Z</time></trkpt><trkpt lat="38.83316988849266" lon="16.28521919692693"><ele>104.0</ele><time>2026-04-19T07:31:49.999Z</time></trkpt><trkpt lat="38.8332736633837" lon="16.28521378698086"><ele>103.99999999999999</ele><time>2026-04-19T07:31:50.999Z</time></trkpt><trkpt lat="38.833353367919436" lon="16.285211590498168"><ele>104.0</ele><time>2026-04-19T07:31:51.999Z</time></trkpt><trkpt lat="38.83342363122693" lon="16.28521094629345"><ele>104.0</ele><time>2026-04-19T07:31:52.999Z</time></trkpt><trkpt lat="38.83348984443134" lon="16.285190573440126"><ele>104.0</ele><time>2026-04-19T07:31:54.999Z</time></trkpt><trkpt lat="38.83351203697795" lon="16.285280360583624"><ele>103.99999999999999</ele><time>2026-04-19T07:31:56.999Z</time></trkpt><trkpt lat="38.83355048480359" lon="16.28537903262728"><ele>104.0</ele><time>2026-04-19T07:31:59.999Z</time></trkpt><trkpt lat="38.83356629083337" lon="16.285494823400633"><ele>103.6</ele><time>2026-04-19T07:32:02.999Z</time></trkpt><trkpt lat="38.83350295044723" lon="16.285562585786415"><ele>103.2</ele><time>2026-04-19T07:32:04.999Z</time></trkpt><trkpt lat="38.83348041668092" lon="16.285705942687294"><ele>102.8</ele><time>2026-04-19T07:32:06.999Z</time></trkpt><trkpt lat="38.833527870151755" lon="16.28580802407683"><ele>102.39999999999999</ele><time>2026-04-19T07:32:08.999Z</time></trkpt><trkpt lat="38.83361121102147" lon="16.285878123565872"><ele>102.0</ele><time>2026-04-19T07:32:10.999Z</time></trkpt><trkpt lat="38.83370565421962" lon="16.285908021630487"><ele>103.33333333333333</ele><time>2026-04-19T07:32:12.999Z</time></trkpt><trkpt lat="38.833771836681386" lon="16.285925617585413"><ele>104.66666666666666</ele><time>2026-04-19T07:32:14.999Z</time></trkpt><trkpt lat="38.83384197448689" lon="16.285939659061917"><ele>106.0</ele><time>2026-04-19T07:32:16.999Z</time></trkpt><trkpt lat="38.83393749660177" lon="16.286014704092683"><ele>107.33333333333333</ele><time>2026-04-19T07:32:18.999Z</time></trkpt><trkpt lat="38.83401782412915" lon="16.286067615957776"><ele>108.66666666666666</ele><time>2026-04-19T07:32:20.999Z</time></trkpt><trkpt lat="38.83409922282099" lon="16.286084065709982"><ele>110.0</ele><time>2026-04-19T07:32:22.999Z</time></trkpt><trkpt lat="38.83417164615554" lon="16.286126318296258"><ele>109.66666666666666</ele><time>2026-04-19T07:32:24.999Z</time></trkpt><trkpt lat="38.83435498602477" lon="16.286164740544336"><ele>109.33333333333334</ele><time>2026-04-19T07:32:28.999Z</time></trkpt><trkpt lat="38.83455110733781" lon="16.28617838956572"><ele>109.0</ele><time>2026-04-19T07:32:33.999Z</time></trkpt><trkpt lat="38.83464818858922" lon="16.286195574264"><ele>109.00000000000001</ele><time>2026-04-19T07:32:35.999Z</time></trkpt><trkpt lat="38.83471113710877" lon="16.286233779183302"><ele>109.0</ele><time>2026-04-19T07:32:37.999Z</time></trkpt><trkpt lat="38.834775542473864" lon="16.28627150016715"><ele>109.0</ele><time>2026-04-19T07:32:39.999Z</time></trkpt><trkpt lat="38.83486096812014" lon="16.286333568999552"><ele>109.0</ele><time>2026-04-19T07:32:41.999Z</time></trkpt><trkpt lat="38.834914579427846" lon="16.286380293778432"><ele>109.00000000000001</ele><time>2026-04-19T07:32:42.999Z</time></trkpt><trkpt lat="38.834999869523955" lon="16.286496918627428"><ele>109.0</ele><time>2026-04-19T07:32:44.999Z</time></trkpt><trkpt lat="38.83505756391851" lon="16.28658263771893"><ele>110.50000000000001</ele><time>2026-04-19T07:32:45.999Z</time></trkpt><trkpt lat="38.835113595562234" lon="16.2866619533867"><ele>112.0</ele><time>2026-04-19T07:32:46.999Z</time></trkpt><trkpt lat="38.83515378289519" lon="16.28674030159921"><ele>113.5</ele><time>2026-04-19T07:32:47.999Z</time></trkpt><trkpt lat="38.83519117413688" lon="16.286819580092992"><ele>115.0</ele><time>2026-04-19T07:32:48.999Z</time></trkpt><trkpt lat="38.83522429493421" lon="16.286907173638074"><ele>116.50000000000001</ele><time>2026-04-19T07:32:49.999Z</time></trkpt><trkpt lat="38.83524980205996" lon="16.286991159759296"><ele>118.0</ele><time>2026-04-19T07:32:50.999Z</time></trkpt><trkpt lat="38.83528420749013" lon="16.287128774592755"><ele>118.00000000000001</ele><time>2026-04-19T07:32:52.999Z</time></trkpt><trkpt lat="38.8352992748629" lon="16.287213306147816"><ele>118.0</ele><time>2026-04-19T07:32:53.999Z</time></trkpt><trkpt lat="38.835321743866864" lon="16.287289657514705"><ele>118.0</ele><time>2026-04-19T07:32:54.999Z</time></trkpt><trkpt lat="38.8353495062749" lon="16.287374931561757"><ele>118.0</ele><time>2026-04-19T07:32:55.999Z</time></trkpt><trkpt lat="38.83537884051775" lon="16.28745430096153"><ele>118.00000000000001</ele><time>2026-04-19T07:32:56.999Z</time></trkpt><trkpt lat="38.83544301708096" lon="16.287572363749625"><ele>118.0</ele><time>2026-04-19T07:32:58.999Z</time></trkpt><trkpt lat="38.8354877152972" lon="16.28766461467676"><ele>120.0</ele><time>2026-04-19T07:33:00.999Z</time></trkpt><trkpt lat="38.835577374246796" lon="16.287756372518196"><ele>122.00000000000001</ele><time>2026-04-19T07:33:02.999Z</time></trkpt><trkpt lat="38.83564455010451" lon="16.287794342409647"><ele>124.00000000000001</ele><time>2026-04-19T07:33:03.999Z</time></trkpt><trkpt lat="38.83572258866092" lon="16.287848296531227"><ele>126.0</ele><time>2026-04-19T07:33:05.999Z</time></trkpt><trkpt lat="38.83584908736139" lon="16.28790524643397"><ele>128.0</ele><time>2026-04-19T07:33:07.999Z</time></trkpt><trkpt lat="38.83599209770709" lon="16.28792045520725"><ele>127.99999999999999</ele><time>2026-04-19T07:33:09.999Z</time></trkpt><trkpt lat="38.836076383050646" lon="16.28792042956862"><ele>128.0</ele><time>2026-04-19T07:33:10.999Z</time></trkpt><trkpt lat="38.836157636423046" lon="16.287932227464466"><ele>128.0</ele><time>2026-04-19T07:33:11.999Z</time></trkpt><trkpt lat="38.836223317482485" lon="16.287937069774546"><ele>128.0</ele><time>2026-04-19T07:33:12.999Z</time></trkpt><trkpt lat="38.8362939330375" lon="16.287959447018167"><ele>127.99999999999999</ele><time>2026-04-19T07:33:13.999Z</time></trkpt><trkpt lat="38.836377427561594" lon="16.28798232101754"><ele>128.0</ele><time>2026-04-19T07:33:14.999Z</time></trkpt><trkpt lat="38.8364849384815" lon="16.288008666563623"><ele>127.99999999999999</ele><time>2026-04-19T07:33:15.999Z</time></trkpt><trkpt lat="38.836594879967386" lon="16.28802325484772"><ele>128.0</ele><time>2026-04-19T07:33:16.999Z</time></trkpt><trkpt lat="38.83667681756" lon="16.288052341331387"><ele>128.0</ele><time>2026-04-19T07:33:17.999Z</time></trkpt><trkpt lat="38.83675795310645" lon="16.2880544274934"><ele>128.0</ele><time>2026-04-19T07:33:18.999Z</time></trkpt><trkpt lat="38.836834430511544" lon="16.288067740936487"><ele>127.99999999999999</ele><time>2026-04-19T07:33:19.999Z</time></trkpt><trkpt lat="38.83690192640954" lon="16.288065240611107"><ele>128.0</ele><time>2026-04-19T07:33:20.999Z</time></trkpt><trkpt lat="38.83698034757454" lon="16.288075167787927"><ele>127.66666666666666</ele><time>2026-04-19T07:33:21.999Z</time></trkpt><trkpt lat="38.83705974352932" lon="16.28805998020833"><ele>127.33333333333333</ele><time>2026-04-19T07:33:22.999Z</time></trkpt><trkpt lat="38.83715021045336" lon="16.288055613237187"><ele>127.0</ele><time>2026-04-19T07:33:23.999Z</time></trkpt><trkpt lat="38.83722659449236" lon="16.288076805299827"><ele>126.66666666666666</ele><time>2026-04-19T07:33:24.999Z</time></trkpt><trkpt lat="38.837314608092875" lon="16.288105460588735"><ele>126.33333333333333</ele><time>2026-04-19T07:33:25.999Z</time></trkpt><trkpt lat="38.83739912808528" lon="16.288132416105643"><ele>126.0</ele><time>2026-04-19T07:33:26.999Z</time></trkpt><trkpt lat="38.837478316087584" lon="16.28817122442998"><ele>128.16666666666666</ele><time>2026-04-19T07:33:27.999Z</time></trkpt><trkpt lat="38.837548585675144" lon="16.28821963999542"><ele>130.33333333333334</ele><time>2026-04-19T07:33:28.999Z</time></trkpt><trkpt lat="38.83761399745885" lon="16.288277538368412"><ele>132.5</ele><time>2026-04-19T07:33:29.999Z</time></trkpt><trkpt lat="38.83767807407496" lon="16.288353314008837"><ele>134.66666666666669</ele><time>2026-04-19T07:33:30.999Z</time></trkpt><trkpt lat="38.8377282945484" lon="16.288420570746776"><ele>136.83333333333334</ele><time>2026-04-19T07:33:31.999Z</time></trkpt><trkpt lat="38.837789133521746" lon="16.288491320462718"><ele>139.0</ele><time>2026-04-19T07:33:32.999Z</time></trkpt><trkpt lat="38.837856884886705" lon="16.288563681856978"><ele>139.0</ele><time>2026-04-19T07:33:33.999Z</time></trkpt><trkpt lat="38.83794279400103" lon="16.28859933665652"><ele>139.0</ele><time>2026-04-19T07:33:34.999Z</time></trkpt><trkpt lat="38.838015840927426" lon="16.28860877705048"><ele>139.0</ele><time>2026-04-19T07:33:35.999Z</time></trkpt><trkpt lat="38.83807491298382" lon="16.288651655841544"><ele>139.0</ele><time>2026-04-19T07:33:36.999Z</time></trkpt><trkpt lat="38.838129088961395" lon="16.288700609633437"><ele>139.0</ele><time>2026-04-19T07:33:37.999Z</time></trkpt><trkpt lat="38.83817353778553" lon="16.28876032571575"><ele>139.0</ele><time>2026-04-19T07:33:38.999Z</time></trkpt><trkpt lat="38.83825360299228" lon="16.28886110473666"><ele>139.0</ele><time>2026-04-19T07:33:40.999Z</time></trkpt><trkpt lat="38.838331763723225" lon="16.288887460861712"><ele>139.0</ele><time>2026-04-19T07:33:41.999Z</time></trkpt><trkpt lat="38.83841293195511" lon="16.288951090698404"><ele>139.0</ele><time>2026-04-19T07:33:42.999Z</time></trkpt><trkpt lat="38.83850122508289" lon="16.28902941650997"><ele>139.0</ele><time>2026-04-19T07:33:43.999Z</time></trkpt><trkpt lat="38.838563440231155" lon="16.289101732338036"><ele>139.0</ele><time>2026-04-19T07:33:44.999Z</time></trkpt><trkpt lat="38.838610606452086" lon="16.289162846293856"><ele>139.0</ele><time>2026-04-19T07:33:45.999Z</time></trkpt><trkpt lat="38.83868121403644" lon="16.289232843699697"><ele>140.5</ele><time>2026-04-19T07:33:46.999Z</time></trkpt><trkpt lat="38.838755714805295" lon="16.289288295971456"><ele>142.0</ele><time>2026-04-19T07:33:47.999Z</time></trkpt><trkpt lat="38.83883431393198" lon="16.289346149229964"><ele>143.5</ele><time>2026-04-19T07:33:48.999Z</time></trkpt><trkpt lat="38.83891541423181" lon="16.289385605953257"><ele>145.0</ele><time>2026-04-19T07:33:49.999Z</time></trkpt><trkpt lat="38.838994330363235" lon="16.28943856142103"><ele>146.5</ele><time>2026-04-19T07:33:50.999Z</time></trkpt><trkpt lat="38.839073669680765" lon="16.28950911084259"><ele>148.0</ele><time>2026-04-19T07:33:51.999Z</time></trkpt><trkpt lat="38.839150784711954" lon="16.2895799222597"><ele>148.0</ele><time>2026-04-19T07:33:52.999Z</time></trkpt><trkpt lat="38.8392164179748" lon="16.289643121416383"><ele>148.0</ele><time>2026-04-19T07:33:53.999Z</time></trkpt><trkpt lat="38.83928537734542" lon="16.289704334089794"><ele>148.0</ele><time>2026-04-19T07:33:54.999Z</time></trkpt><trkpt lat="38.83935219758683" lon="16.28977667882093"><ele>148.0</ele><time>2026-04-19T07:33:55.999Z</time></trkpt><trkpt lat="38.83940942225057" lon="16.289870398942845"><ele>148.0</ele><time>2026-04-19T07:33:56.999Z</time></trkpt><trkpt lat="38.83945903372646" lon="16.289970274685423"><ele>148.0</ele><time>2026-04-19T07:33:57.999Z</time></trkpt><trkpt lat="38.83949993499817" lon="16.29008102404061"><ele>148.5</ele><time>2026-04-19T07:33:58.999Z</time></trkpt><trkpt lat="38.83952995201548" lon="16.29020406150781"><ele>149.0</ele><time>2026-04-19T07:33:59.999Z</time></trkpt><trkpt lat="38.83955266857686" lon="16.290322523945143"><ele>149.5</ele><time>2026-04-19T07:34:00.999Z</time></trkpt><trkpt lat="38.83957640902346" lon="16.290427897558793"><ele>150.0</ele><time>2026-04-19T07:34:01.999Z</time></trkpt><trkpt lat="38.839589464695024" lon="16.290523606204573"><ele>150.5</ele><time>2026-04-19T07:34:02.999Z</time></trkpt><trkpt lat="38.83960603426316" lon="16.290613114805943"><ele>151.0</ele><time>2026-04-19T07:34:03.999Z</time></trkpt><trkpt lat="38.83961480142066" lon="16.290700477313674"><ele>152.57142857142858</ele><time>2026-04-19T07:34:04.999Z</time></trkpt><trkpt lat="38.839623124335596" lon="16.290789221090847"><ele>154.14285714285714</ele><time>2026-04-19T07:34:05.999Z</time></trkpt><trkpt lat="38.839631912875106" lon="16.290875543457076"><ele>155.71428571428572</ele><time>2026-04-19T07:34:06.999Z</time></trkpt><trkpt lat="38.839635794532796" lon="16.290965273622348"><ele>157.28571428571428</ele><time>2026-04-19T07:34:07.999Z</time></trkpt><trkpt lat="38.8396427582439" lon="16.29106129264102"><ele>158.85714285714286</ele><time>2026-04-19T07:34:08.999Z</time></trkpt><trkpt lat="38.83965546483417" lon="16.291161194161692"><ele>160.42857142857144</ele><time>2026-04-19T07:34:09.999Z</time></trkpt><trkpt lat="38.83966552207461" lon="16.291258293764486"><ele>162.0</ele><time>2026-04-19T07:34:10.999Z</time></trkpt><trkpt lat="38.83966505505443" lon="16.29135457129302"><ele>164.39999999999998</ele><time>2026-04-19T07:34:11.999Z</time></trkpt><trkpt lat="38.8396565204082" lon="16.291456092524324"><ele>166.79999999999998</ele><time>2026-04-19T07:34:12.999Z</time></trkpt><trkpt lat="38.8396569037311" lon="16.291572836763475"><ele>169.2</ele><time>2026-04-19T07:34:13.999Z</time></trkpt><trkpt lat="38.83966972970559" lon="16.291706067933468"><ele>171.6</ele><time>2026-04-19T07:34:14.999Z</time></trkpt><trkpt lat="38.8396782206597" lon="16.29183578144517"><ele>174.0</ele><time>2026-04-19T07:34:15.999Z</time></trkpt><trkpt lat="38.839686399551375" lon="16.2919672991217"><ele>174.0</ele><time>2026-04-19T07:34:16.999Z</time></trkpt><trkpt lat="38.839703209877804" lon="16.292106810528235"><ele>174.0</ele><time>2026-04-19T07:34:17.999Z</time></trkpt><trkpt lat="38.83972411353637" lon="16.292235834202835"><ele>174.0</ele><time>2026-04-19T07:34:18.999Z</time></trkpt><trkpt lat="38.83973810800649" lon="16.292350449727977"><ele>174.0</ele><time>2026-04-19T07:34:19.999Z</time></trkpt><trkpt lat="38.83974403340816" lon="16.292457295369353"><ele>174.0</ele><time>2026-04-19T07:34:20.999Z</time></trkpt><trkpt lat="38.83975087912309" lon="16.292564389602557"><ele>176.0</ele><time>2026-04-19T07:34:21.998Z</time></trkpt><trkpt lat="38.839758797202094" lon="16.292664168152353"><ele>178.0</ele><time>2026-04-19T07:34:22.998Z</time></trkpt><trkpt lat="38.83976588227726" lon="16.29276005714648"><ele>180.0</ele><time>2026-04-19T07:34:23.998Z</time></trkpt><trkpt lat="38.83976151431908" lon="16.292870814994263"><ele>182.0</ele><time>2026-04-19T07:34:24.998Z</time></trkpt><trkpt lat="38.839746771758996" lon="16.29297887635194"><ele>184.0</ele><time>2026-04-19T07:34:25.998Z</time></trkpt><trkpt lat="38.839730189998456" lon="16.293065589913972"><ele>186.0</ele><time>2026-04-19T07:34:26.998Z</time></trkpt><trkpt lat="38.839713824459416" lon="16.29321947054592"><ele>186.5</ele><time>2026-04-19T07:34:28.998Z</time></trkpt><trkpt lat="38.83970851621463" lon="16.293312264893867"><ele>187.0</ele><time>2026-04-19T07:34:29.998Z</time></trkpt><trkpt lat="38.839699304911164" lon="16.293411755215864"><ele>187.5</ele><time>2026-04-19T07:34:30.998Z</time></trkpt><trkpt lat="38.839708631753226" lon="16.29350980622271"><ele>188.0</ele><time>2026-04-19T07:34:31.998Z</time></trkpt><trkpt lat="38.839721529150275" lon="16.29360944835507"><ele>188.5</ele><time>2026-04-19T07:34:32.998Z</time></trkpt><trkpt lat="38.83973045957182" lon="16.29371613839692"><ele>189.0</ele><time>2026-04-19T07:34:33.998Z</time></trkpt><trkpt lat="38.83973192130972" lon="16.293827500348726"><ele>190.33333333333334</ele><time>2026-04-19T07:34:34.998Z</time></trkpt><trkpt lat="38.83973853171991" lon="16.293934051700415"><ele>191.66666666666669</ele><time>2026-04-19T07:34:35.998Z</time></trkpt><trkpt lat="38.83975636888675" lon="16.29403264399814"><ele>193.0</ele><time>2026-04-19T07:34:36.998Z</time></trkpt><trkpt lat="38.839771081311156" lon="16.2941396402791"><ele>194.33333333333334</ele><time>2026-04-19T07:34:37.997Z</time></trkpt><trkpt lat="38.83977359912512" lon="16.294257851820163"><ele>195.66666666666669</ele><time>2026-04-19T07:34:38.997Z</time></trkpt><trkpt lat="38.83977279770763" lon="16.29437367621287"><ele>197.0</ele><time>2026-04-19T07:34:39.997Z</time></trkpt><trkpt lat="38.83978341662627" lon="16.29448239706175"><ele>197.00000000000003</ele><time>2026-04-19T07:34:40.997Z</time></trkpt><trkpt lat="38.83979612531361" lon="16.294585786278954"><ele>197.0</ele><time>2026-04-19T07:34:41.997Z</time></trkpt><trkpt lat="38.83981286501379" lon="16.29469039583493"><ele>197.0</ele><time>2026-04-19T07:34:42.997Z</time></trkpt><trkpt lat="38.83983907358051" lon="16.29479717570642"><ele>197.0</ele><time>2026-04-19T07:34:43.997Z</time></trkpt><trkpt lat="38.83985724377748" lon="16.2949168295245"><ele>197.00000000000003</ele><time>2026-04-19T07:34:44.997Z</time></trkpt><trkpt lat="38.83988127591672" lon="16.295044407752545"><ele>197.0</ele><time>2026-04-19T07:34:45.997Z</time></trkpt><trkpt lat="38.83989220922948" lon="16.295173110896997"><ele>200.2</ele><time>2026-04-19T07:34:46.997Z</time></trkpt><trkpt lat="38.83990744501039" lon="16.295292055177505"><ele>203.39999999999998</ele><time>2026-04-19T07:34:47.997Z</time></trkpt><trkpt lat="38.839931136872565" lon="16.295405832920842"><ele>206.60000000000002</ele><time>2026-04-19T07:34:48.997Z</time></trkpt><trkpt lat="38.83995399264164" lon="16.29552516673834"><ele>209.8</ele><time>2026-04-19T07:34:49.997Z</time></trkpt><trkpt lat="38.83998102491313" lon="16.295641652918015"><ele>213.0</ele><time>2026-04-19T07:34:50.997Z</time></trkpt><trkpt lat="38.84000783744365" lon="16.295759526838857"><ele>216.0</ele><time>2026-04-19T07:34:51.997Z</time></trkpt><trkpt lat="38.84003124675047" lon="16.295880943746774"><ele>219.0</ele><time>2026-04-19T07:34:52.997Z</time></trkpt><trkpt lat="38.84006315245685" lon="16.29601332308287"><ele>222.0</ele><time>2026-04-19T07:34:53.997Z</time></trkpt><trkpt lat="38.84005876881899" lon="16.29614226989678"><ele>225.0</ele><time>2026-04-19T07:34:54.997Z</time></trkpt><trkpt lat="38.840071440203346" lon="16.29625324534008"><ele>228.0</ele><time>2026-04-19T07:34:55.997Z</time></trkpt><trkpt lat="38.840079829396096" lon="16.296362760762367"><ele>228.0</ele><time>2026-04-19T07:34:56.997Z</time></trkpt><trkpt lat="38.84008657815216" lon="16.29647254757185"><ele>228.0</ele><time>2026-04-19T07:34:57.997Z</time></trkpt><trkpt lat="38.84009154045358" lon="16.296582316561437"><ele>228.0</ele><time>2026-04-19T07:34:58.997Z</time></trkpt><trkpt lat="38.840101788422245" lon="16.29669148371839"><ele>228.0</ele><time>2026-04-19T07:34:59.997Z</time></trkpt><trkpt lat="38.84010288166219" lon="16.2968055228354"><ele>228.0</ele><time>2026-04-19T07:35:00.997Z</time></trkpt><trkpt lat="38.84010835109218" lon="16.29691457948133"><ele>228.0</ele><time>2026-04-19T07:35:01.997Z</time></trkpt><trkpt lat="38.840113676868185" lon="16.297004640202807"><ele>228.0</ele><time>2026-04-19T07:35:02.997Z</time></trkpt><trkpt lat="38.84011350787606" lon="16.297128428566666"><ele>228.0</ele><time>2026-04-19T07:35:04.997Z</time></trkpt><trkpt lat="38.84006711940522" lon="16.297208233605623"><ele>228.0</ele><time>2026-04-19T07:35:06.997Z</time></trkpt><trkpt lat="38.839995716112675" lon="16.297204131195745"><ele>228.0</ele><time>2026-04-19T07:35:11.997Z</time></trkpt><trkpt lat="38.83993402900659" lon="16.297109735002458"><ele>228.0</ele><time>2026-04-19T07:35:14.997Z</time></trkpt><trkpt lat="38.839902948377954" lon="16.297011865639945"><ele>228.0</ele><time>2026-04-19T07:35:15.997Z</time></trkpt><trkpt lat="38.839882338261646" lon="16.296906816548336"><ele>228.0</ele><time>2026-04-19T07:35:16.997Z</time></trkpt><trkpt lat="38.839882377497396" lon="16.2967842290066"><ele>228.0</ele><time>2026-04-19T07:35:18.997Z</time></trkpt><trkpt lat="38.83984994556707" lon="16.296704076520708"><ele>228.0</ele><time>2026-04-19T07:35:20.997Z</time></trkpt><trkpt lat="38.83983330122387" lon="16.296571118665724"><ele>228.0</ele><time>2026-04-19T07:35:23.997Z</time></trkpt><trkpt lat="38.83983497577329" lon="16.29648432832366"><ele>228.0</ele><time>2026-04-19T07:35:24.997Z</time></trkpt><trkpt lat="38.83982992451116" lon="16.296398974179834"><ele>228.0</ele><time>2026-04-19T07:35:25.997Z</time></trkpt><trkpt lat="38.839828899207" lon="16.29629209532108"><ele>228.0</ele><time>2026-04-19T07:35:27.997Z</time></trkpt><trkpt lat="38.83983495312486" lon="16.296208029416952"><ele>228.0</ele><time>2026-04-19T07:35:29.997Z</time></trkpt><trkpt lat="38.83981595120233" lon="16.296072929910782"><ele>228.0</ele><time>2026-04-19T07:35:31.997Z</time></trkpt><trkpt lat="38.83980257359208" lon="16.29593952899711"><ele>228.0</ele><time>2026-04-19T07:35:33.997Z</time></trkpt><trkpt lat="38.83978785746855" lon="16.29584603281025"><ele>228.0</ele><time>2026-04-19T07:35:35.997Z</time></trkpt><trkpt lat="38.839780440740995" lon="16.29575931528052"><ele>228.0</ele><time>2026-04-19T07:35:38.997Z</time></trkpt><trkpt lat="38.83975795957411" lon="16.295675700713733"><ele>228.0</ele><time>2026-04-19T07:35:40.997Z</time></trkpt><trkpt lat="38.839724096764265" lon="16.295589834782486"><ele>228.0</ele><time>2026-04-19T07:35:42.997Z</time></trkpt><trkpt lat="38.8396705506447" lon="16.29549119159003"><ele>228.0</ele><time>2026-04-19T07:35:44.997Z</time></trkpt><trkpt lat="38.83962831739576" lon="16.295381979814405"><ele>228.0</ele><time>2026-04-19T07:35:46.997Z</time></trkpt><trkpt lat="38.839584192705416" lon="16.29526501805306"><ele>228.0</ele><time>2026-04-19T07:35:48.997Z</time></trkpt><trkpt lat="38.83954854787779" lon="16.295184483538918"><ele>228.0</ele><time>2026-04-19T07:35:49.997Z</time></trkpt><trkpt lat="38.839511271387316" lon="16.295113343519514"><ele>229.8</ele><time>2026-04-19T07:35:50.997Z</time></trkpt><trkpt lat="38.83945973286761" lon="16.295011870895515"><ele>231.60000000000002</ele><time>2026-04-19T07:35:52.997Z</time></trkpt><trkpt lat="38.83942293357986" lon="16.294915923628704"><ele>233.39999999999998</ele><time>2026-04-19T07:35:54.997Z</time></trkpt><trkpt lat="38.83940457796408" lon="16.29479866486872"><ele>235.2</ele><time>2026-04-19T07:35:56.997Z</time></trkpt><trkpt lat="38.83934610828641" lon="16.29470440535979"><ele>237.0</ele><time>2026-04-19T07:35:58.997Z</time></trkpt><trkpt lat="38.83926677501427" lon="16.29460730331311"><ele>237.0</ele><time>2026-04-19T07:36:00.997Z</time></trkpt><trkpt lat="38.83920368058232" lon="16.294583939645886"><ele>237.0</ele><time>2026-04-19T07:36:01.997Z</time></trkpt><trkpt lat="38.83914044754346" lon="16.294562657999588"><ele>237.0</ele><time>2026-04-19T07:36:02.997Z</time></trkpt><trkpt lat="38.83906604444005" lon="16.29451694533392"><ele>237.0</ele><time>2026-04-19T07:36:04.997Z</time></trkpt><trkpt lat="38.838988834232076" lon="16.29449926964246"><ele>237.0</ele><time>2026-04-19T07:36:06.997Z</time></trkpt><trkpt lat="38.83890191843375" lon="16.29442949956584"><ele>237.0</ele><time>2026-04-19T07:36:08.997Z</time></trkpt><trkpt lat="38.8388213045765" lon="16.294393820786027"><ele>237.0</ele><time>2026-04-19T07:36:10.997Z</time></trkpt><trkpt lat="38.83873429738516" lon="16.29435351570943"><ele>237.0</ele><time>2026-04-19T07:36:12.997Z</time></trkpt><trkpt lat="38.838673727375664" lon="16.294273090265314"><ele>237.0</ele><time>2026-04-19T07:36:14.997Z</time></trkpt><trkpt lat="38.83863266700491" lon="16.29417478989631"><ele>237.0</ele><time>2026-04-19T07:36:16.997Z</time></trkpt><trkpt lat="38.83857781208609" lon="16.294084482228058"><ele>237.0</ele><time>2026-04-19T07:36:18.997Z</time></trkpt><trkpt lat="38.83855857100423" lon="16.294002217355498"><ele>237.0</ele><time>2026-04-19T07:36:20.999Z</time></trkpt><trkpt lat="38.838540754733366" lon="16.29391541349419"><ele>236.2</ele><time>2026-04-19T07:36:22.999Z</time></trkpt><trkpt lat="38.83855153793278" lon="16.293781890906647"><ele>235.39999999999998</ele><time>2026-04-19T07:36:24.999Z</time></trkpt><trkpt lat="38.838553006750324" lon="16.293660604949693"><ele>234.60000000000002</ele><time>2026-04-19T07:36:26.999Z</time></trkpt><trkpt lat="38.838566170831356" lon="16.293527051195316"><ele>233.8</ele><time>2026-04-19T07:36:28.999Z</time></trkpt><trkpt lat="38.83856869945408" lon="16.293426259085198"><ele>233.0</ele><time>2026-04-19T07:36:30.999Z</time></trkpt><trkpt lat="38.83858066700064" lon="16.293293654773205"><ele>233.0</ele><time>2026-04-19T07:36:32.999Z</time></trkpt><trkpt lat="38.838606934698284" lon="16.293157054445913"><ele>233.0</ele><time>2026-04-19T07:36:34.999Z</time></trkpt><trkpt lat="38.83854218314501" lon="16.293023590941004"><ele>233.0</ele><time>2026-04-19T07:36:36.999Z</time></trkpt><trkpt lat="38.83848654903371" lon="16.2929640759608"><ele>233.0</ele><time>2026-04-19T07:36:37.999Z</time></trkpt><trkpt lat="38.83842466149569" lon="16.2929381238014"><ele>233.0</ele><time>2026-04-19T07:36:38.999Z</time></trkpt><trkpt lat="38.838307574442936" lon="16.292934439063966"><ele>237.0</ele><time>2026-04-19T07:36:40.999Z</time></trkpt><trkpt lat="38.838181160794534" lon="16.292910154866235"><ele>241.0</ele><time>2026-04-19T07:36:42.999Z</time></trkpt><trkpt lat="38.83808423069941" lon="16.292896195151187"><ele>245.0</ele><time>2026-04-19T07:36:44.999Z</time></trkpt><trkpt lat="38.83800572562146" lon="16.292876844205594"><ele>249.0</ele><time>2026-04-19T07:36:46.999Z</time></trkpt><trkpt lat="38.83789210494841" lon="16.292867016305095"><ele>253.0</ele><time>2026-04-19T07:36:48.999Z</time></trkpt><trkpt lat="38.83778536310885" lon="16.292877745833803"><ele>252.99999999999997</ele><time>2026-04-19T07:36:50.999Z</time></trkpt><trkpt lat="38.83772138375607" lon="16.292851265726963"><ele>253.0</ele><time>2026-04-19T07:36:51.999Z</time></trkpt><trkpt lat="38.83763477601481" lon="16.292827433393402"><ele>253.0</ele><time>2026-04-19T07:36:53.999Z</time></trkpt><trkpt lat="38.83755612647229" lon="16.292806539734453"><ele>253.0</ele><time>2026-04-19T07:36:58.999Z</time></trkpt><trkpt lat="38.83747741615185" lon="16.292792726776756"><ele>252.99999999999997</ele><time>2026-04-19T07:37:00.999Z</time></trkpt><trkpt lat="38.837379907963054" lon="16.292759165648693"><ele>253.0</ele><time>2026-04-19T07:37:02.999Z</time></trkpt><trkpt lat="38.83729864774898" lon="16.292742757755907"><ele>255.99999999999997</ele><time>2026-04-19T07:37:04.999Z</time></trkpt><trkpt lat="38.83723267666473" lon="16.29280243538172"><ele>259.0</ele><time>2026-04-19T07:37:06.999Z</time></trkpt><trkpt lat="38.837174215932315" lon="16.292859655372226"><ele>262.0</ele><time>2026-04-19T07:37:08.999Z</time></trkpt><trkpt lat="38.83710172619906" lon="16.292894238078052"><ele>265.0</ele><time>2026-04-19T07:37:10.999Z</time></trkpt><trkpt lat="38.83700947400553" lon="16.292933133060416"><ele>268.0</ele><time>2026-04-19T07:37:12.999Z</time></trkpt><trkpt lat="38.83694716567948" lon="16.292996358479396"><ele>271.0</ele><time>2026-04-19T07:37:14.999Z</time></trkpt><trkpt lat="38.836897709572554" lon="16.293053994000278"><ele>273.0</ele><time>2026-04-19T07:37:17.999Z</time></trkpt><trkpt lat="38.83685039913268" lon="16.293108499382082"><ele>275.0</ele><time>2026-04-19T07:37:24.999Z</time></trkpt><trkpt lat="38.83676877573457" lon="16.293228913902862"><ele>277.0</ele><time>2026-04-19T07:37:40.999Z</time></trkpt><trkpt lat="38.83679604205674" lon="16.293318952591967"><ele>279.0</ele><time>2026-04-19T07:37:44.999Z</time></trkpt><trkpt lat="38.83688388102728" lon="16.293347813008445"><ele>281.0</ele><time>2026-04-19T07:37:47.999Z</time></trkpt><trkpt lat="38.836965498830324" lon="16.29333661523708"><ele>283.0</ele><time>2026-04-19T07:37:49.999Z</time></trkpt><trkpt lat="38.83706439073162" lon="16.29330539822705"><ele>284.2</ele><time>2026-04-19T07:37:51.999Z</time></trkpt><trkpt lat="38.83713980190243" lon="16.29329317700626"><ele>285.4</ele><time>2026-04-19T07:37:53.999Z</time></trkpt><trkpt lat="38.83721131472683" lon="16.29329802120356"><ele>286.59999999999997</ele><time>2026-04-19T07:37:56.999Z</time></trkpt><trkpt lat="38.83737990983413" lon="16.29330467747826"><ele>287.8</ele><time>2026-04-19T07:38:03.999Z</time></trkpt><trkpt lat="38.83745792530976" lon="16.293351553522477"><ele>289.0</ele><time>2026-04-19T07:38:07.999Z</time></trkpt><trkpt lat="38.83752552113661" lon="16.293394333426196"><ele>289.0</ele><time>2026-04-19T07:38:10.999Z</time></trkpt><trkpt lat="38.83759501337624" lon="16.293446226513456"><ele>289.0</ele><time>2026-04-19T07:38:13.999Z</time></trkpt><trkpt lat="38.83762994408556" lon="16.29354273739385"><ele>289.0</ele><time>2026-04-19T07:38:16.999Z</time></trkpt><trkpt lat="38.837648014235945" lon="16.293636844313514"><ele>289.0</ele><time>2026-04-19T07:38:18.999Z</time></trkpt><trkpt lat="38.83767169385617" lon="16.293714690994907"><ele>289.0</ele><time>2026-04-19T07:38:20.999Z</time></trkpt><trkpt lat="38.83769938494393" lon="16.293808311296118"><ele>289.0</ele><time>2026-04-19T07:38:22.999Z</time></trkpt><trkpt lat="38.83772246456394" lon="16.29393321221378"><ele>287.5</ele><time>2026-04-19T07:38:25.999Z</time></trkpt><trkpt lat="38.83772884261118" lon="16.294043007869433"><ele>286.0</ele><time>2026-04-19T07:38:27.999Z</time></trkpt><trkpt lat="38.83771352397654" lon="16.294171171425422"><ele>284.5</ele><time>2026-04-19T07:38:29.999Z</time></trkpt><trkpt lat="38.837687608989945" lon="16.29426225136941"><ele>283.0</ele><time>2026-04-19T07:38:31.999Z</time></trkpt><trkpt lat="38.83766708873847" lon="16.294371371233535"><ele>281.5</ele><time>2026-04-19T07:38:34.999Z</time></trkpt><trkpt lat="38.83761482154856" lon="16.294450568385294"><ele>280.0</ele><time>2026-04-19T07:38:38.999Z</time></trkpt><trkpt lat="38.83758971811751" lon="16.294529416073008"><ele>284.66666666666663</ele><time>2026-04-19T07:38:41.999Z</time></trkpt><trkpt lat="38.837557521348224" lon="16.294617713069165"><ele>289.3333333333333</ele><time>2026-04-19T07:38:44.999Z</time></trkpt><trkpt lat="38.837520974451444" lon="16.29469369022665"><ele>294.0</ele><time>2026-04-19T07:38:47.999Z</time></trkpt><trkpt lat="38.83748577160786" lon="16.29477322777088"><ele>298.6666666666667</ele><time>2026-04-19T07:38:50.999Z</time></trkpt><trkpt lat="38.83744667156371" lon="16.294844489554272"><ele>303.33333333333337</ele><time>2026-04-19T07:38:52.999Z</time></trkpt><trkpt lat="38.83740775762176" lon="16.29496406254938"><ele>308.0</ele><time>2026-04-19T07:38:54.999Z</time></trkpt><trkpt lat="38.83736451340775" lon="16.29508933194702"><ele>309.6</ele><time>2026-04-19T07:38:56.999Z</time></trkpt><trkpt lat="38.83734572277078" lon="16.295204968460904"><ele>311.20000000000005</ele><time>2026-04-19T07:38:58.999Z</time></trkpt><trkpt lat="38.837318214579845" lon="16.29533518556038"><ele>312.8</ele><time>2026-04-19T07:39:00.999Z</time></trkpt><trkpt lat="38.837319880085445" lon="16.295450796623324"><ele>314.40000000000003</ele><time>2026-04-19T07:39:02.999Z</time></trkpt><trkpt lat="38.837320515114406" lon="16.295573815101434"><ele>316.0</ele><time>2026-04-19T07:39:04.999Z</time></trkpt><trkpt lat="38.837328754022806" lon="16.29572319202934"><ele>316.8571428571429</ele><time>2026-04-19T07:39:06.999Z</time></trkpt><trkpt lat="38.83733346490175" lon="16.295804849752837"><ele>317.7142857142857</ele><time>2026-04-19T07:39:07.999Z</time></trkpt><trkpt lat="38.83733032301102" lon="16.2958898463179"><ele>318.57142857142856</ele><time>2026-04-19T07:39:08.999Z</time></trkpt><trkpt lat="38.837325609181086" lon="16.295974510824383"><ele>319.42857142857144</ele><time>2026-04-19T07:39:09.999Z</time></trkpt><trkpt lat="38.83733294961691" lon="16.29606281231555"><ele>320.2857142857143</ele><time>2026-04-19T07:39:10.999Z</time></trkpt><trkpt lat="38.83733885170868" lon="16.296193375871795"><ele>321.14285714285717</ele><time>2026-04-19T07:39:12.999Z</time></trkpt><trkpt lat="38.837345569245585" lon="16.296275874550442"><ele>322.0</ele><time>2026-04-19T07:39:17.999Z</time></trkpt><trkpt lat="38.83733534336354" lon="16.296385691014937"><ele>322.40000000000003</ele><time>2026-04-19T07:39:25.999Z</time></trkpt><trkpt lat="38.837305225850365" lon="16.296492040424965"><ele>322.8</ele><time>2026-04-19T07:39:28.999Z</time></trkpt><trkpt lat="38.83727548528817" lon="16.296578316507087"><ele>323.2</ele><time>2026-04-19T07:39:30.999Z</time></trkpt><trkpt lat="38.837235769380165" lon="16.29668436337841"><ele>323.6</ele><time>2026-04-19T07:39:32.999Z</time></trkpt><trkpt lat="38.83719172473118" lon="16.296816017229823"><ele>324.0</ele><time>2026-04-19T07:39:34.999Z</time></trkpt><trkpt lat="38.837138705540774" lon="16.296941870279095"><ele>324.0</ele><time>2026-04-19T07:39:36.998Z</time></trkpt><trkpt lat="38.83709275092909" lon="16.297071836238235"><ele>324.0</ele><time>2026-04-19T07:39:38.998Z</time></trkpt><trkpt lat="38.83704669977834" lon="16.29718122809685"><ele>324.0</ele><time>2026-04-19T07:39:40.998Z</time></trkpt><trkpt lat="38.83702067490231" lon="16.29729763397668"><ele>324.0</ele><time>2026-04-19T07:39:42.998Z</time></trkpt><trkpt lat="38.836994816480235" lon="16.29737676608648"><ele>324.0</ele><time>2026-04-19T07:39:43.998Z</time></trkpt><trkpt lat="38.836970581779674" lon="16.297471191877026"><ele>324.0</ele><time>2026-04-19T07:39:44.998Z</time></trkpt><trkpt lat="38.836937655124295" lon="16.297557894958132"><ele>323.8333333333333</ele><time>2026-04-19T07:39:45.998Z</time></trkpt><trkpt lat="38.836901110325634" lon="16.29763251686733"><ele>323.6666666666667</ele><time>2026-04-19T07:39:46.998Z</time></trkpt><trkpt lat="38.836858840188874" lon="16.29770230408355"><ele>323.5</ele><time>2026-04-19T07:39:47.998Z</time></trkpt><trkpt lat="38.83681868394255" lon="16.297777259304986"><ele>323.33333333333337</ele><time>2026-04-19T07:39:48.998Z</time></trkpt><trkpt lat="38.836777800308425" lon="16.29784513132675"><ele>323.1666666666667</ele><time>2026-04-19T07:39:49.998Z</time></trkpt><trkpt lat="38.83671677715283" lon="16.2979688415317"><ele>323.0</ele><time>2026-04-19T07:39:51.998Z</time></trkpt><trkpt lat="38.836647550051595" lon="16.29810376722507"><ele>324.5</ele><time>2026-04-19T07:39:53.998Z</time></trkpt><trkpt lat="38.83660957150945" lon="16.29817120853272"><ele>326.0</ele><time>2026-04-19T07:39:54.998Z</time></trkpt><trkpt lat="38.83656633216453" lon="16.298242463987467"><ele>327.5</ele><time>2026-04-19T07:39:55.998Z</time></trkpt><trkpt lat="38.83652023874118" lon="16.298324341833595"><ele>329.0</ele><time>2026-04-19T07:39:56.998Z</time></trkpt><trkpt lat="38.83646514824725" lon="16.29841134325014"><ele>330.5</ele><time>2026-04-19T07:39:57.998Z</time></trkpt><trkpt lat="38.836405837838" lon="16.29850250466952"><ele>332.0</ele><time>2026-04-19T07:39:58.998Z</time></trkpt><trkpt lat="38.83635102663328" lon="16.29860090752815"><ele>332.0</ele><time>2026-04-19T07:39:59.998Z</time></trkpt><trkpt lat="38.836294879214925" lon="16.298698271491848"><ele>332.0</ele><time>2026-04-19T07:40:00.998Z</time></trkpt><trkpt lat="38.83623935143999" lon="16.29879077847205"><ele>332.0</ele><time>2026-04-19T07:40:01.998Z</time></trkpt><trkpt lat="38.836183061446576" lon="16.298878667733817"><ele>332.0</ele><time>2026-04-19T07:40:02.998Z</time></trkpt><trkpt lat="38.83612674137494" lon="16.298955129778346"><ele>332.0</ele><time>2026-04-19T07:40:03.998Z</time></trkpt><trkpt lat="38.83607130896839" lon="16.299028659892265"><ele>332.0</ele><time>2026-04-19T07:40:04.998Z</time></trkpt><trkpt lat="38.83602180958589" lon="16.299113026573757"><ele>332.1666666666667</ele><time>2026-04-19T07:40:05.998Z</time></trkpt><trkpt lat="38.835985081050346" lon="16.299211038149092"><ele>332.33333333333337</ele><time>2026-04-19T07:40:06.998Z</time></trkpt><trkpt lat="38.83594114430378" lon="16.299306770723852"><ele>332.5</ele><time>2026-04-19T07:40:07.998Z</time></trkpt><trkpt lat="38.83589093627622" lon="16.299400495034384"><ele>332.6666666666667</ele><time>2026-04-19T07:40:08.998Z</time></trkpt><trkpt lat="38.835839224644786" lon="16.299491177521276"><ele>332.8333333333333</ele><time>2026-04-19T07:40:09.998Z</time></trkpt><trkpt lat="38.83578145066308" lon="16.299592616534714"><ele>333.0</ele><time>2026-04-19T07:40:10.998Z</time></trkpt><trkpt lat="38.83572289879589" lon="16.299705604093234"><ele>334.2</ele><time>2026-04-19T07:40:11.998Z</time></trkpt><trkpt lat="38.83566568455532" lon="16.299807597572624"><ele>335.4</ele><time>2026-04-19T07:40:12.998Z</time></trkpt><trkpt lat="38.83560641869522" lon="16.29990106930729"><ele>336.59999999999997</ele><time>2026-04-19T07:40:13.998Z</time></trkpt><trkpt lat="38.83554378928109" lon="16.299984356833857"><ele>337.79999999999995</ele><time>2026-04-19T07:40:14.998Z</time></trkpt><trkpt lat="38.835471418292165" lon="16.300063492283183"><ele>339.0</ele><time>2026-04-19T07:40:15.998Z</time></trkpt><trkpt lat="38.83538033401294" lon="16.300133757703183"><ele>339.0</ele><time>2026-04-19T07:40:16.998Z</time></trkpt><trkpt lat="38.83527900185124" lon="16.30020573119864"><ele>339.0</ele><time>2026-04-19T07:40:17.998Z</time></trkpt><trkpt lat="38.835181671031755" lon="16.300274332031254"><ele>339.0</ele><time>2026-04-19T07:40:18.998Z</time></trkpt><trkpt lat="38.83508095842826" lon="16.30034415373142"><ele>339.0</ele><time>2026-04-19T07:40:19.998Z</time></trkpt><trkpt lat="38.83497136089901" lon="16.30042248637411"><ele>339.5</ele><time>2026-04-19T07:40:20.998Z</time></trkpt><trkpt lat="38.83485331745498" lon="16.30050734979791"><ele>340.0</ele><time>2026-04-19T07:40:21.998Z</time></trkpt><trkpt lat="38.834733428769944" lon="16.300599052134217"><ele>340.5</ele><time>2026-04-19T07:40:22.998Z</time></trkpt><trkpt lat="38.834618312857586" lon="16.30068660903123"><ele>341.0</ele><time>2026-04-19T07:40:23.998Z</time></trkpt><trkpt lat="38.83450799539781" lon="16.300766613206"><ele>341.20000000000005</ele><time>2026-04-19T07:40:24.998Z</time></trkpt><trkpt lat="38.83440212688394" lon="16.300839472477882"><ele>341.40000000000003</ele><time>2026-04-19T07:40:25.998Z</time></trkpt><trkpt lat="38.83430186406914" lon="16.30090580787159"><ele>341.6</ele><time>2026-04-19T07:40:26.998Z</time></trkpt><trkpt lat="38.8342094085968" lon="16.3009710859267"><ele>341.8</ele><time>2026-04-19T07:40:27.998Z</time></trkpt><trkpt lat="38.834118824452396" lon="16.30104036015384"><ele>342.0</ele><time>2026-04-19T07:40:28.998Z</time></trkpt><trkpt lat="38.834015699814" lon="16.301049391904616"><ele>343.0</ele><time>2026-04-19T07:40:29.998Z</time></trkpt><trkpt lat="38.8339171714241" lon="16.30108291825126"><ele>344.0</ele><time>2026-04-19T07:40:30.998Z</time></trkpt><trkpt lat="38.83381885774077" lon="16.301112126953996"><ele>345.0</ele><time>2026-04-19T07:40:31.998Z</time></trkpt><trkpt lat="38.83371329769453" lon="16.301128711150263"><ele>346.0</ele><time>2026-04-19T07:40:32.998Z</time></trkpt><trkpt lat="38.83358816350899" lon="16.30114986696059"><ele>347.0</ele><time>2026-04-19T07:40:33.998Z</time></trkpt><trkpt lat="38.83344886985182" lon="16.301173416644748"><ele>348.0</ele><time>2026-04-19T07:40:34.998Z</time></trkpt><trkpt lat="38.833298951711726" lon="16.301198272186394"><ele>349.0</ele><time>2026-04-19T07:40:35.998Z</time></trkpt><trkpt lat="38.83314251161151" lon="16.301221242827268"><ele>350.0</ele><time>2026-04-19T07:40:36.998Z</time></trkpt><trkpt lat="38.83298816003535" lon="16.30124366676266"><ele>350.0</ele><time>2026-04-19T07:40:37.998Z</time></trkpt><trkpt lat="38.83284233485373" lon="16.301283238764928"><ele>350.0</ele><time>2026-04-19T07:40:38.998Z</time></trkpt><trkpt lat="38.83269895365475" lon="16.30129152444847"><ele>350.0</ele><time>2026-04-19T07:40:39.998Z</time></trkpt><trkpt lat="38.83254736652847" lon="16.30131804417462"><ele>350.0</ele><time>2026-04-19T07:40:40.998Z</time></trkpt><trkpt lat="38.83239415919056" lon="16.301318689060782"><ele>351.0</ele><time>2026-04-19T07:40:41.998Z</time></trkpt><trkpt lat="38.832258985998166" lon="16.30132594964665"><ele>352.0</ele><time>2026-04-19T07:40:42.998Z</time></trkpt><trkpt lat="38.83215008122155" lon="16.30139732035449"><ele>353.0</ele><time>2026-04-19T07:40:43.998Z</time></trkpt><trkpt lat="38.83205689170675" lon="16.301477132285005"><ele>354.0</ele><time>2026-04-19T07:40:44.998Z</time></trkpt><trkpt lat="38.83196499109169" lon="16.301602601402333"><ele>355.0</ele><time>2026-04-19T07:40:45.998Z</time></trkpt><trkpt lat="38.83188101717329" lon="16.301742708113746"><ele>356.0</ele><time>2026-04-19T07:40:46.998Z</time></trkpt><trkpt lat="38.8318086145479" lon="16.301871424426093"><ele>357.0</ele><time>2026-04-19T07:40:47.998Z</time></trkpt><trkpt lat="38.83175727198325" lon="16.302029025527396"><ele>358.0</ele><time>2026-04-19T07:40:48.998Z</time></trkpt><trkpt lat="38.83168292894593" lon="16.302153957976948"><ele>359.25</ele><time>2026-04-19T07:40:49.998Z</time></trkpt><trkpt lat="38.83162051649276" lon="16.30228481595176"><ele>360.5</ele><time>2026-04-19T07:40:50.998Z</time></trkpt><trkpt lat="38.83156477767441" lon="16.30241839321819"><ele>361.75</ele><time>2026-04-19T07:40:51.998Z</time></trkpt><trkpt lat="38.83151526600986" lon="16.302559147840473"><ele>363.0</ele><time>2026-04-19T07:40:52.998Z</time></trkpt><trkpt lat="38.83147796935887" lon="16.302713360256902"><ele>363.0</ele><time>2026-04-19T07:40:53.998Z</time></trkpt><trkpt lat="38.83145235180908" lon="16.302860886156495"><ele>363.0</ele><time>2026-04-19T07:40:54.998Z</time></trkpt><trkpt lat="38.83145450078736" lon="16.302980794014772"><ele>363.0</ele><time>2026-04-19T07:40:55.998Z</time></trkpt><trkpt lat="38.83144086344155" lon="16.30309164882802"><ele>363.0</ele><time>2026-04-19T07:40:56.998Z</time></trkpt><trkpt lat="38.831413701838244" lon="16.30321621315123"><ele>363.0</ele><time>2026-04-19T07:40:57.998Z</time></trkpt><trkpt lat="38.83139399485934" lon="16.303328943798807"><ele>363.4</ele><time>2026-04-19T07:40:58.998Z</time></trkpt><trkpt lat="38.83137147996045" lon="16.30344492285989"><ele>363.79999999999995</ele><time>2026-04-19T07:40:59.998Z</time></trkpt><trkpt lat="38.8313498127701" lon="16.303567426495622"><ele>364.2</ele><time>2026-04-19T07:41:00.998Z</time></trkpt><trkpt lat="38.83132896619266" lon="16.303678523609115"><ele>364.6</ele><time>2026-04-19T07:41:01.998Z</time></trkpt><trkpt lat="38.83128397320787" lon="16.30381873631039"><ele>365.0</ele><time>2026-04-19T07:41:03.998Z</time></trkpt><trkpt lat="38.83126169388494" lon="16.30390453836772"><ele>366.2</ele><time>2026-04-19T07:41:04.998Z</time></trkpt><trkpt lat="38.831258915709164" lon="16.304037820881156"><ele>367.4</ele><time>2026-04-19T07:41:07.998Z</time></trkpt><trkpt lat="38.83119773952119" lon="16.304089998173346"><ele>368.6</ele><time>2026-04-19T07:41:09.998Z</time></trkpt><trkpt lat="38.83124164069987" lon="16.30426387236346"><ele>369.8</ele><time>2026-04-19T07:41:11.998Z</time></trkpt><trkpt lat="38.83125679078657" lon="16.304394493051557"><ele>371.0</ele><time>2026-04-19T07:41:12.998Z</time></trkpt><trkpt lat="38.83128473503684" lon="16.30456006005682"><ele>371.0</ele><time>2026-04-19T07:41:13.998Z</time></trkpt><trkpt lat="38.8312949070784" lon="16.304739338060863"><ele>371.0</ele><time>2026-04-19T07:41:14.998Z</time></trkpt><trkpt lat="38.83130635020366" lon="16.304932317690998"><ele>371.0</ele><time>2026-04-19T07:41:15.998Z</time></trkpt><trkpt lat="38.831333415215425" lon="16.305111673204966"><ele>371.0</ele><time>2026-04-19T07:41:16.998Z</time></trkpt><trkpt lat="38.831337816882865" lon="16.305266585277913"><ele>373.0</ele><time>2026-04-19T07:41:17.998Z</time></trkpt><trkpt lat="38.831337533819216" lon="16.305428172906105"><ele>375.0</ele><time>2026-04-19T07:41:18.998Z</time></trkpt><trkpt lat="38.83134290209225" lon="16.305605690931397"><ele>377.0</ele><time>2026-04-19T07:41:19.998Z</time></trkpt><trkpt lat="38.83136269548907" lon="16.305809593251553"><ele>379.0</ele><time>2026-04-19T07:41:20.998Z</time></trkpt><trkpt lat="38.83141050395399" lon="16.30599268195653"><ele>381.2</ele><time>2026-04-19T07:41:21.998Z</time></trkpt><trkpt lat="38.831470321913784" lon="16.30613704145386"><ele>383.4</ele><time>2026-04-19T07:41:22.998Z</time></trkpt><trkpt lat="38.831499048737165" lon="16.306253339416863"><ele>385.6</ele><time>2026-04-19T07:41:23.998Z</time></trkpt><trkpt lat="38.83148958241282" lon="16.30638828184035"><ele>387.8</ele><time>2026-04-19T07:41:24.998Z</time></trkpt><trkpt lat="38.83146539476519" lon="16.30652285085678"><ele>390.0</ele><time>2026-04-19T07:41:25.998Z</time></trkpt><trkpt lat="38.831395140198225" lon="16.306599766149343"><ele>392.25</ele><time>2026-04-19T07:41:26.998Z</time></trkpt><trkpt lat="38.831300139053766" lon="16.306706146433058"><ele>394.5</ele><time>2026-04-19T07:41:27.998Z</time></trkpt><trkpt lat="38.83119855706262" lon="16.306818615188543"><ele>396.75</ele><time>2026-04-19T07:41:28.998Z</time></trkpt><trkpt lat="38.83110320059455" lon="16.30692585929207"><ele>399.0</ele><time>2026-04-19T07:41:29.998Z</time></trkpt><trkpt lat="38.83101656831526" lon="16.3070232919977"><ele>401.4</ele><time>2026-04-19T07:41:30.998Z</time></trkpt><trkpt lat="38.83095351670002" lon="16.307119995687753"><ele>403.79999999999995</ele><time>2026-04-19T07:41:31.998Z</time></trkpt><trkpt lat="38.83086953044256" lon="16.307213154634162"><ele>406.20000000000005</ele><time>2026-04-19T07:41:32.998Z</time></trkpt><trkpt lat="38.830799471161995" lon="16.307291377823404"><ele>408.6</ele><time>2026-04-19T07:41:33.998Z</time></trkpt><trkpt lat="38.830731510016165" lon="16.307380913253358"><ele>411.0</ele><time>2026-04-19T07:41:34.998Z</time></trkpt><trkpt lat="38.83066106911162" lon="16.30746282163694"><ele>411.0</ele><time>2026-04-19T07:41:35.998Z</time></trkpt><trkpt lat="38.83062345630657" lon="16.30757724898396"><ele>411.0</ele><time>2026-04-19T07:41:36.998Z</time></trkpt><trkpt lat="38.83058691183114" lon="16.307713737507417"><ele>411.0</ele><time>2026-04-19T07:41:37.998Z</time></trkpt><trkpt lat="38.83057303869624" lon="16.30786445232881"><ele>411.0</ele><time>2026-04-19T07:41:38.998Z</time></trkpt><trkpt lat="38.830531032118905" lon="16.30801433438951"><ele>410.5</ele><time>2026-04-19T07:41:39.998Z</time></trkpt><trkpt lat="38.830474534107324" lon="16.30819623012149"><ele>410.0</ele><time>2026-04-19T07:41:40.998Z</time></trkpt><trkpt lat="38.83038410749952" lon="16.308332308072874"><ele>409.5</ele><time>2026-04-19T07:41:41.998Z</time></trkpt><trkpt lat="38.83030326952164" lon="16.308469864503905"><ele>409.0</ele><time>2026-04-19T07:41:42.998Z</time></trkpt><trkpt lat="38.83024430630256" lon="16.30857019820021"><ele>409.0</ele><time>2026-04-19T07:41:43.998Z</time></trkpt><trkpt lat="38.83018739235583" lon="16.308666367304127"><ele>409.0</ele><time>2026-04-19T07:41:44.998Z</time></trkpt><trkpt lat="38.830132819570736" lon="16.308757650079237"><ele>409.0</ele><time>2026-04-19T07:41:45.998Z</time></trkpt><trkpt lat="38.830091793551496" lon="16.308826273398537"><ele>409.0</ele><time>2026-04-19T07:41:46.998Z</time></trkpt><trkpt lat="38.83003289986738" lon="16.3089461771281"><ele>409.0</ele><time>2026-04-19T07:41:48.998Z</time></trkpt><trkpt lat="38.829958095890056" lon="16.30903952002867"><ele>411.75</ele><time>2026-04-19T07:41:50.998Z</time></trkpt><trkpt lat="38.829882506898336" lon="16.30916593318288"><ele>414.5</ele><time>2026-04-19T07:41:52.998Z</time></trkpt><trkpt lat="38.82990401819304" lon="16.30928790770901"><ele>417.25</ele><time>2026-04-19T07:41:53.998Z</time></trkpt><trkpt lat="38.82995528470238" lon="16.30941027476551"><ele>420.0</ele><time>2026-04-19T07:41:54.998Z</time></trkpt><trkpt lat="38.83002869593062" lon="16.309554048508694"><ele>420.0</ele><time>2026-04-19T07:41:55.998Z</time></trkpt><trkpt lat="38.83004563675432" lon="16.309736074970456"><ele>420.0</ele><time>2026-04-19T07:41:56.998Z</time></trkpt><trkpt lat="38.830058479959135" lon="16.30994442447936"><ele>420.0</ele><time>2026-04-19T07:41:57.998Z</time></trkpt><trkpt lat="38.83002735806159" lon="16.31015548758255"><ele>420.66666666666663</ele><time>2026-04-19T07:41:58.998Z</time></trkpt><trkpt lat="38.82997783333267" lon="16.31039783492518"><ele>421.3333333333333</ele><time>2026-04-19T07:41:59.998Z</time></trkpt><trkpt lat="38.82991503883867" lon="16.310627747509816"><ele>422.0</ele><time>2026-04-19T07:42:00.998Z</time></trkpt><trkpt lat="38.82984472133607" lon="16.3108516278954"><ele>422.3333333333333</ele><time>2026-04-19T07:42:01.998Z</time></trkpt><trkpt lat="38.82975188677172" lon="16.311041291484408"><ele>422.66666666666663</ele><time>2026-04-19T07:42:02.998Z</time></trkpt><trkpt lat="38.829656769469494" lon="16.31121194518807"><ele>423.0</ele><time>2026-04-19T07:42:03.998Z</time></trkpt><trkpt lat="38.829579478240134" lon="16.311355535097004"><ele>423.25</ele><time>2026-04-19T07:42:04.998Z</time></trkpt><trkpt lat="38.82952564937983" lon="16.311492787578917"><ele>423.5</ele><time>2026-04-19T07:42:05.998Z</time></trkpt><trkpt lat="38.82944618119007" lon="16.311600762795592"><ele>423.75</ele><time>2026-04-19T07:42:06.998Z</time></trkpt><trkpt lat="38.82938201257158" lon="16.31171579852371"><ele>424.0</ele><time>2026-04-19T07:42:07.998Z</time></trkpt><trkpt lat="38.829309660053646" lon="16.311840634936225"><ele>424.79999999999995</ele><time>2026-04-19T07:42:08.998Z</time></trkpt><trkpt lat="38.82923826919732" lon="16.311960936310076"><ele>425.59999999999997</ele><time>2026-04-19T07:42:09.998Z</time></trkpt><trkpt lat="38.82916446508495" lon="16.312072670999466"><ele>426.4</ele><time>2026-04-19T07:42:10.998Z</time></trkpt><trkpt lat="38.8290937897195" lon="16.3121490592791"><ele>427.2</ele><time>2026-04-19T07:42:11.998Z</time></trkpt><trkpt lat="38.8290155436766" lon="16.312217092876512"><ele>428.0</ele><time>2026-04-19T07:42:12.998Z</time></trkpt><trkpt lat="38.828906084786695" lon="16.312209676646088"><ele>428.0</ele><time>2026-04-19T07:42:13.998Z</time></trkpt><trkpt lat="38.82878209616017" lon="16.312193940210626"><ele>428.0</ele><time>2026-04-19T07:42:14.998Z</time></trkpt><trkpt lat="38.828659756025814" lon="16.312167470492767"><ele>428.0</ele><time>2026-04-19T07:42:15.998Z</time></trkpt><trkpt lat="38.828554175206506" lon="16.3121210073846"><ele>428.0</ele><time>2026-04-19T07:42:16.997Z</time></trkpt><trkpt lat="38.828460226307065" lon="16.312085470367716"><ele>428.3333333333333</ele><time>2026-04-19T07:42:17.997Z</time></trkpt><trkpt lat="38.82837635352092" lon="16.31207044643378"><ele>428.66666666666663</ele><time>2026-04-19T07:42:18.997Z</time></trkpt><trkpt lat="38.828313225494426" lon="16.3120601296153"><ele>429.0</ele><time>2026-04-19T07:42:19.997Z</time></trkpt><trkpt lat="38.828215183399976" lon="16.31205126471492"><ele>429.33333333333337</ele><time>2026-04-19T07:42:21.997Z</time></trkpt><trkpt lat="38.82813427464753" lon="16.31214691758799"><ele>429.6666666666667</ele><time>2026-04-19T07:42:23.997Z</time></trkpt><trkpt lat="38.82810961675241" lon="16.31223521759089"><ele>430.0</ele><time>2026-04-19T07:42:24.997Z</time></trkpt><trkpt lat="38.82809211477852" lon="16.31234036464764"><ele>430.2</ele><time>2026-04-19T07:42:25.997Z</time></trkpt><trkpt lat="38.82811150917718" lon="16.312486183652197"><ele>430.4</ele><time>2026-04-19T07:42:26.997Z</time></trkpt><trkpt lat="38.82809574891925" lon="16.312626298852738"><ele>430.6</ele><time>2026-04-19T07:42:27.997Z</time></trkpt><trkpt lat="38.828111857229345" lon="16.31275912828739"><ele>430.8</ele><time>2026-04-19T07:42:28.997Z</time></trkpt><trkpt lat="38.82808324409645" lon="16.312864361597995"><ele>431.0</ele><time>2026-04-19T07:42:29.997Z</time></trkpt><trkpt lat="38.82807053860896" lon="16.312956611337782"><ele>431.4</ele><time>2026-04-19T07:42:30.997Z</time></trkpt><trkpt lat="38.828054555421225" lon="16.31308138785202"><ele>431.8</ele><time>2026-04-19T07:42:32.997Z</time></trkpt><trkpt lat="38.82802567787482" lon="16.31320331246002"><ele>432.19999999999993</ele><time>2026-04-19T07:42:34.997Z</time></trkpt><trkpt lat="38.828030362321385" lon="16.313358607036175"><ele>432.59999999999997</ele><time>2026-04-19T07:42:36.997Z</time></trkpt><trkpt lat="38.828031900581806" lon="16.313464534903645"><ele>433.0</ele><time>2026-04-19T07:42:37.997Z</time></trkpt><trkpt lat="38.82804835323553" lon="16.31355987465396"><ele>433.0</ele><time>2026-04-19T07:42:38.997Z</time></trkpt><trkpt lat="38.82804101922413" lon="16.31365938075485"><ele>432.99999999999994</ele><time>2026-04-19T07:42:39.997Z</time></trkpt><trkpt lat="38.828074449027085" lon="16.313767155779423"><ele>432.99999999999994</ele><time>2026-04-19T07:42:40.997Z</time></trkpt><trkpt lat="38.82809644848765" lon="16.313902195420685"><ele>433.0</ele><time>2026-04-19T07:42:41.997Z</time></trkpt><trkpt lat="38.828115028494175" lon="16.314036994142995"><ele>433.0</ele><time>2026-04-19T07:42:42.997Z</time></trkpt><trkpt lat="38.828127248868626" lon="16.314184551549758"><ele>432.25</ele><time>2026-04-19T07:42:43.997Z</time></trkpt><trkpt lat="38.82814568848317" lon="16.31433479385624"><ele>431.5</ele><time>2026-04-19T07:42:44.997Z</time></trkpt><trkpt lat="38.8281595269552" lon="16.314497267651873"><ele>430.75</ele><time>2026-04-19T07:42:45.997Z</time></trkpt><trkpt lat="38.828171380717265" lon="16.314682558363536"><ele>430.0</ele><time>2026-04-19T07:42:46.997Z</time></trkpt><trkpt lat="38.828139297087645" lon="16.314851194353853"><ele>429.5</ele><time>2026-04-19T07:42:47.997Z</time></trkpt><trkpt lat="38.82812216802772" lon="16.315007553746224"><ele>429.0</ele><time>2026-04-19T07:42:48.997Z</time></trkpt><trkpt lat="38.828106808236065" lon="16.31514776270445"><ele>428.5</ele><time>2026-04-19T07:42:49.997Z</time></trkpt><trkpt lat="38.82812155715052" lon="16.315295808857243"><ele>428.0</ele><time>2026-04-19T07:42:50.997Z</time></trkpt><trkpt lat="38.82811388797927" lon="16.31546798789271"><ele>427.25</ele><time>2026-04-19T07:42:51.997Z</time></trkpt><trkpt lat="38.828114207042844" lon="16.315631245939567"><ele>426.5</ele><time>2026-04-19T07:42:52.997Z</time></trkpt><trkpt lat="38.82807921129755" lon="16.315776649352845"><ele>425.75</ele><time>2026-04-19T07:42:53.997Z</time></trkpt><trkpt lat="38.82800878781523" lon="16.315933887276966"><ele>425.0</ele><time>2026-04-19T07:42:54.997Z</time></trkpt><trkpt lat="38.8279911228082" lon="16.31609029722326"><ele>425.0</ele><time>2026-04-19T07:42:55.997Z</time></trkpt><trkpt lat="38.82797601878598" lon="16.316230062845715"><ele>425.0</ele><time>2026-04-19T07:42:56.997Z</time></trkpt><trkpt lat="38.82796245345114" lon="16.316363124015062"><ele>425.0</ele><time>2026-04-19T07:42:57.997Z</time></trkpt><trkpt lat="38.82794801987337" lon="16.31650470169983"><ele>425.0</ele><time>2026-04-19T07:42:58.997Z</time></trkpt><trkpt lat="38.82793087595559" lon="16.31667286489186"><ele>424.5</ele><time>2026-04-19T07:42:59.997Z</time></trkpt><trkpt lat="38.82791310786798" lon="16.316848188670686"><ele>424.0</ele><time>2026-04-19T07:43:00.997Z</time></trkpt><trkpt lat="38.827892343607886" lon="16.31700926020988"><ele>423.5</ele><time>2026-04-19T07:43:01.997Z</time></trkpt><trkpt lat="38.82787525289044" lon="16.31715551612405"><ele>423.0</ele><time>2026-04-19T07:43:02.997Z</time></trkpt><trkpt lat="38.82786739214435" lon="16.317310911938378"><ele>422.25</ele><time>2026-04-19T07:43:03.997Z</time></trkpt><trkpt lat="38.82783417676273" lon="16.31746360640007"><ele>421.5</ele><time>2026-04-19T07:43:04.997Z</time></trkpt><trkpt lat="38.827812487279445" lon="16.31761110475989"><ele>420.75</ele><time>2026-04-19T07:43:05.997Z</time></trkpt><trkpt lat="38.82778901981346" lon="16.3177673986583"><ele>420.0</ele><time>2026-04-19T07:43:06.997Z</time></trkpt><trkpt lat="38.82776808864728" lon="16.317895764981223"><ele>420.0</ele><time>2026-04-19T07:43:07.997Z</time></trkpt><trkpt lat="38.82775482578379" lon="16.31802422035165"><ele>420.0</ele><time>2026-04-19T07:43:08.997Z</time></trkpt><trkpt lat="38.82774039730371" lon="16.318142975220642"><ele>420.0</ele><time>2026-04-19T07:43:09.997Z</time></trkpt><trkpt lat="38.82772415595545" lon="16.318239242121088"><ele>420.0</ele><time>2026-04-19T07:43:10.997Z</time></trkpt><trkpt lat="38.82773216178446" lon="16.31834134633129"><ele>420.0</ele><time>2026-04-19T07:43:11.997Z</time></trkpt><trkpt lat="38.8277006377034" lon="16.318449421934382"><ele>420.0</ele><time>2026-04-19T07:43:12.997Z</time></trkpt><trkpt lat="38.82769886854989" lon="16.31855292957881"><ele>420.0</ele><time>2026-04-19T07:43:13.997Z</time></trkpt><trkpt lat="38.82770903121964" lon="16.31865147822709"><ele>420.0</ele><time>2026-04-19T07:43:15.997Z</time></trkpt><trkpt lat="38.82764216662277" lon="16.318899070184475"><ele>420.0</ele><time>2026-04-19T07:43:23.997Z</time></trkpt><trkpt lat="38.82764142365596" lon="16.318981331098662"><ele>420.0</ele><time>2026-04-19T07:43:24.997Z</time></trkpt><trkpt lat="38.827664423021425" lon="16.319130288523134"><ele>419.75</ele><time>2026-04-19T07:43:25.999Z</time></trkpt><trkpt lat="38.827697219265595" lon="16.319286081464345"><ele>419.5</ele><time>2026-04-19T07:43:26.999Z</time></trkpt><trkpt lat="38.8277368613983" lon="16.319463838192892"><ele>419.25</ele><time>2026-04-19T07:43:27.999Z</time></trkpt><trkpt lat="38.82776054915197" lon="16.319629919969074"><ele>419.0</ele><time>2026-04-19T07:43:28.999Z</time></trkpt><trkpt lat="38.82779715664821" lon="16.319780012628268"><ele>420.2</ele><time>2026-04-19T07:43:29.999Z</time></trkpt><trkpt lat="38.82784410204769" lon="16.3198982304787"><ele>421.4</ele><time>2026-04-19T07:43:30.999Z</time></trkpt><trkpt lat="38.82787545236498" lon="16.320027688395946"><ele>422.6</ele><time>2026-04-19T07:43:31.999Z</time></trkpt><trkpt lat="38.827886964451885" lon="16.320139138171083"><ele>423.8</ele><time>2026-04-19T07:43:32.999Z</time></trkpt><trkpt lat="38.82791816395237" lon="16.320236781440634"><ele>425.0</ele><time>2026-04-19T07:43:33.999Z</time></trkpt><trkpt lat="38.82794472288191" lon="16.320337838859164"><ele>425.0</ele><time>2026-04-19T07:43:34.999Z</time></trkpt><trkpt lat="38.827943325041474" lon="16.320436629854314"><ele>425.0</ele><time>2026-04-19T07:43:35.999Z</time></trkpt><trkpt lat="38.827911802634304" lon="16.320560921310037"><ele>425.0</ele><time>2026-04-19T07:43:36.999Z</time></trkpt><trkpt lat="38.82785943200264" lon="16.320694605456925"><ele>425.0</ele><time>2026-04-19T07:43:37.999Z</time></trkpt><trkpt lat="38.82778744987284" lon="16.32084545249816"><ele>425.0</ele><time>2026-04-19T07:43:38.999Z</time></trkpt><trkpt lat="38.82772020937251" lon="16.321024329634746"><ele>424.3333333333333</ele><time>2026-04-19T07:43:39.999Z</time></trkpt><trkpt lat="38.82765789816411" lon="16.321205931546036"><ele>423.66666666666663</ele><time>2026-04-19T07:43:40.999Z</time></trkpt><trkpt lat="38.82758425957694" lon="16.32137193613481"><ele>423.0</ele><time>2026-04-19T07:43:41.999Z</time></trkpt><trkpt lat="38.82750968301441" lon="16.32154167933924"><ele>426.33333333333337</ele><time>2026-04-19T07:43:42.999Z</time></trkpt><trkpt lat="38.827423468620076" lon="16.321696475158877"><ele>429.6666666666667</ele><time>2026-04-19T07:43:43.999Z</time></trkpt><trkpt lat="38.82732681398373" lon="16.32184915121404"><ele>433.0</ele><time>2026-04-19T07:43:44.999Z</time></trkpt><trkpt lat="38.82723371001921" lon="16.322014452680403"><ele>433.0</ele><time>2026-04-19T07:43:45.999Z</time></trkpt><trkpt lat="38.827140764670574" lon="16.322159653111914"><ele>433.0</ele><time>2026-04-19T07:43:47Z</time></trkpt><trkpt lat="38.82707055021043" lon="16.322303054571503"><ele>433.0</ele><time>2026-04-19T07:43:48Z</time></trkpt><trkpt lat="38.82699278717729" lon="16.32242797856443"><ele>433.0</ele><time>2026-04-19T07:43:49Z</time></trkpt><trkpt lat="38.82694149483935" lon="16.322559436195938"><ele>433.75</ele><time>2026-04-19T07:43:50Z</time></trkpt><trkpt lat="38.82688194527116" lon="16.32271709148238"><ele>434.5</ele><time>2026-04-19T07:43:51Z</time></trkpt><trkpt lat="38.826837610183794" lon="16.322860053706822"><ele>435.25</ele><time>2026-04-19T07:43:52Z</time></trkpt><trkpt lat="38.82680028922626" lon="16.32298760981561"><ele>436.0</ele><time>2026-04-19T07:43:53Z</time></trkpt><trkpt lat="38.826757706604155" lon="16.323133149397137"><ele>436.5</ele><time>2026-04-19T07:43:54Z</time></trkpt><trkpt lat="38.826710094670176" lon="16.32332534920355"><ele>437.0</ele><time>2026-04-19T07:43:55Z</time></trkpt><trkpt lat="38.826676297089584" lon="16.32350905925074"><ele>437.5</ele><time>2026-04-19T07:43:56Z</time></trkpt><trkpt lat="38.82664522710779" lon="16.323666761625102"><ele>438.0</ele><time>2026-04-19T07:43:57Z</time></trkpt><trkpt lat="38.82659617770178" lon="16.323809428298297"><ele>439.0</ele><time>2026-04-19T07:43:58Z</time></trkpt><trkpt lat="38.82656289484853" lon="16.32395249865954"><ele>439.99999999999994</ele><time>2026-04-19T07:43:59Z</time></trkpt><trkpt lat="38.82653083871467" lon="16.32409029580743"><ele>440.99999999999994</ele><time>2026-04-19T07:44:00Z</time></trkpt><trkpt lat="38.82650181400256" lon="16.324216433739558"><ele>442.0</ele><time>2026-04-19T07:44:01Z</time></trkpt><trkpt lat="38.82648131218249" lon="16.32431124085625"><ele>443.0</ele><time>2026-04-19T07:44:02Z</time></trkpt><trkpt lat="38.82645173798531" lon="16.32444800161272"><ele>442.99999999999994</ele><time>2026-04-19T07:44:04Z</time></trkpt><trkpt lat="38.826383289642386" lon="16.32453433207707"><ele>443.0</ele><time>2026-04-19T07:44:06Z</time></trkpt><trkpt lat="38.82631622688135" lon="16.324503527047018"><ele>443.0</ele><time>2026-04-19T07:44:07Z</time></trkpt><trkpt lat="38.8262381514873" lon="16.324501801597552"><ele>443.0</ele><time>2026-04-19T07:44:08Z</time></trkpt><trkpt lat="38.82615561581752" lon="16.324479886607342"><ele>442.99999999999994</ele><time>2026-04-19T07:44:09Z</time></trkpt><trkpt lat="38.826062809401506" lon="16.32448566724502"><ele>443.0</ele><time>2026-04-19T07:44:10Z</time></trkpt><trkpt lat="38.82596602330077" lon="16.324515588051387"><ele>443.59999999999997</ele><time>2026-04-19T07:44:11Z</time></trkpt><trkpt lat="38.82586635082553" lon="16.324554767443715"><ele>444.19999999999993</ele><time>2026-04-19T07:44:12Z</time></trkpt><trkpt lat="38.82577450004044" lon="16.324619988840013"><ele>444.8</ele><time>2026-04-19T07:44:13Z</time></trkpt><trkpt lat="38.82568101077615" lon="16.324683118946183"><ele>445.4</ele><time>2026-04-19T07:44:14Z</time></trkpt><trkpt lat="38.82561128038728" lon="16.324755302840714"><ele>446.0</ele><time>2026-04-19T07:44:15Z</time></trkpt><trkpt lat="38.82553815584178" lon="16.324799144323435"><ele>446.0</ele><time>2026-04-19T07:44:16Z</time></trkpt><trkpt lat="38.825439215548386" lon="16.324777066543973"><ele>446.0</ele><time>2026-04-19T07:44:17Z</time></trkpt><trkpt lat="38.825336779045216" lon="16.324715217648045"><ele>446.0</ele><time>2026-04-19T07:44:18Z</time></trkpt><trkpt lat="38.825224473502345" lon="16.324671382374138"><ele>446.0</ele><time>2026-04-19T07:44:19Z</time></trkpt><trkpt lat="38.82513782976565" lon="16.324623584415523"><ele>446.0</ele><time>2026-04-19T07:44:20Z</time></trkpt><trkpt lat="38.82505231653374" lon="16.324609902945692"><ele>446.0</ele><time>2026-04-19T07:44:21Z</time></trkpt><trkpt lat="38.824963900564256" lon="16.324603855441346"><ele>446.0</ele><time>2026-04-19T07:44:22Z</time></trkpt><trkpt lat="38.82487217172955" lon="16.324614117804273"><ele>446.0</ele><time>2026-04-19T07:44:23Z</time></trkpt><trkpt lat="38.824776895903" lon="16.32466298901922"><ele>446.0</ele><time>2026-04-19T07:44:24Z</time></trkpt><trkpt lat="38.82467654378226" lon="16.324701906377133"><ele>446.0</ele><time>2026-04-19T07:44:25Z</time></trkpt><trkpt lat="38.82457031063033" lon="16.32474523133814"><ele>446.0</ele><time>2026-04-19T07:44:26Z</time></trkpt><trkpt lat="38.82446895433945" lon="16.324771617520643"><ele>446.0</ele><time>2026-04-19T07:44:27Z</time></trkpt><trkpt lat="38.82436710962125" lon="16.324767174743677"><ele>446.0</ele><time>2026-04-19T07:44:28Z</time></trkpt><trkpt lat="38.824271961543865" lon="16.324728192619506"><ele>446.0</ele><time>2026-04-19T07:44:29Z</time></trkpt><trkpt lat="38.824166725448286" lon="16.324725168538485"><ele>446.0</ele><time>2026-04-19T07:44:30Z</time></trkpt><trkpt lat="38.82405889629885" lon="16.3247131692096"><ele>444.8</ele><time>2026-04-19T07:44:31Z</time></trkpt><trkpt lat="38.82394339056074" lon="16.32477396377397"><ele>443.6</ele><time>2026-04-19T07:44:32Z</time></trkpt><trkpt lat="38.82383860179095" lon="16.32483187097779"><ele>442.4</ele><time>2026-04-19T07:44:33Z</time></trkpt><trkpt lat="38.823751496255845" lon="16.324893679875803"><ele>441.2</ele><time>2026-04-19T07:44:34Z</time></trkpt><trkpt lat="38.82366799729577" lon="16.324961714688417"><ele>440.0</ele><time>2026-04-19T07:44:35Z</time></trkpt><trkpt lat="38.8235804672199" lon="16.3250079445202"><ele>440.0</ele><time>2026-04-19T07:44:36Z</time></trkpt><trkpt lat="38.82348686101953" lon="16.325037020506922"><ele>440.0</ele><time>2026-04-19T07:44:37Z</time></trkpt><trkpt lat="38.82339022805153" lon="16.325098688552803"><ele>440.0</ele><time>2026-04-19T07:44:38Z</time></trkpt><trkpt lat="38.8232827434196" lon="16.325138448414254"><ele>440.0</ele><time>2026-04-19T07:44:39Z</time></trkpt><trkpt lat="38.823175753647355" lon="16.325187107822295"><ele>440.0</ele><time>2026-04-19T07:44:40Z</time></trkpt><trkpt lat="38.823077133711564" lon="16.32524640962748"><ele>436.8</ele><time>2026-04-19T07:44:41Z</time></trkpt><trkpt lat="38.822967187750244" lon="16.32527617848034"><ele>433.6</ele><time>2026-04-19T07:44:42Z</time></trkpt><trkpt lat="38.82285790693525" lon="16.32531360457155"><ele>430.4</ele><time>2026-04-19T07:44:43Z</time></trkpt><trkpt lat="38.822758429516966" lon="16.3253352610842"><ele>427.2</ele><time>2026-04-19T07:44:44Z</time></trkpt><trkpt lat="38.822677043116144" lon="16.325344919939774"><ele>424.0</ele><time>2026-04-19T07:44:45Z</time></trkpt><trkpt lat="38.822592262278874" lon="16.325398577608382"><ele>423.4</ele><time>2026-04-19T07:44:46Z</time></trkpt><trkpt lat="38.82251646670649" lon="16.325477686196848"><ele>422.79999999999995</ele><time>2026-04-19T07:44:47Z</time></trkpt><trkpt lat="38.8224409577669" lon="16.32555880819047"><ele>422.20000000000005</ele><time>2026-04-19T07:44:48Z</time></trkpt><trkpt lat="38.822354587145874" lon="16.325615476632922"><ele>421.6</ele><time>2026-04-19T07:44:49Z</time></trkpt><trkpt lat="38.82226677428774" lon="16.325704115957233"><ele>421.0</ele><time>2026-04-19T07:44:50Z</time></trkpt><trkpt lat="38.82220255349295" lon="16.325820053021094"><ele>421.0</ele><time>2026-04-19T07:44:51Z</time></trkpt><trkpt lat="38.82215573925387" lon="16.325932746708062"><ele>421.0</ele><time>2026-04-19T07:44:52Z</time></trkpt><trkpt lat="38.82210701793617" lon="16.32604029117139"><ele>421.0</ele><time>2026-04-19T07:44:53Z</time></trkpt><trkpt lat="38.82210173457359" lon="16.326154206008166"><ele>421.0</ele><time>2026-04-19T07:44:54Z</time></trkpt><trkpt lat="38.82209540974414" lon="16.326280057341137"><ele>421.0</ele><time>2026-04-19T07:44:55Z</time></trkpt><trkpt lat="38.82206554988821" lon="16.326413068938034"><ele>421.42857142857144</ele><time>2026-04-19T07:44:56Z</time></trkpt><trkpt lat="38.822074542540605" lon="16.326511673002937"><ele>421.8571428571429</ele><time>2026-04-19T07:44:57Z</time></trkpt><trkpt lat="38.82204063757444" lon="16.326591847039353"><ele>422.28571428571433</ele><time>2026-04-19T07:44:58Z</time></trkpt><trkpt lat="38.82201797910599" lon="16.326671259975516"><ele>422.7142857142857</ele><time>2026-04-19T07:44:59Z</time></trkpt><trkpt lat="38.82200660721076" lon="16.32675843754428"><ele>423.1428571428571</ele><time>2026-04-19T07:45:00Z</time></trkpt><trkpt lat="38.82203125351512" lon="16.3268442773077"><ele>423.5714285714286</ele><time>2026-04-19T07:45:01Z</time></trkpt><trkpt lat="38.822099073679766" lon="16.326904431221365"><ele>424.0</ele><time>2026-04-19T07:45:02Z</time></trkpt><trkpt lat="38.822171733960275" lon="16.32697025639443"><ele>424.00000000000006</ele><time>2026-04-19T07:45:03Z</time></trkpt><trkpt lat="38.822249924899616" lon="16.327019061296063"><ele>424.0</ele><time>2026-04-19T07:45:04Z</time></trkpt><trkpt lat="38.82230597924484" lon="16.32706576751454"><ele>424.0</ele><time>2026-04-19T07:45:05Z</time></trkpt><trkpt lat="38.822352940672204" lon="16.327124430636324"><ele>424.0</ele><time>2026-04-19T07:45:06Z</time></trkpt><trkpt lat="38.822335825031146" lon="16.32727564557727"><ele>424.00000000000006</ele><time>2026-04-19T07:45:08Z</time></trkpt><trkpt lat="38.82225061789283" lon="16.32735292400597"><ele>424.0</ele><time>2026-04-19T07:45:09Z</time></trkpt><trkpt lat="38.82216170742727" lon="16.327462042214055"><ele>419.75</ele><time>2026-04-19T07:45:10Z</time></trkpt><trkpt lat="38.822062105336485" lon="16.327581950730895"><ele>415.5</ele><time>2026-04-19T07:45:11Z</time></trkpt><trkpt lat="38.82199341368139" lon="16.327698899075905"><ele>411.25</ele><time>2026-04-19T07:45:12Z</time></trkpt><trkpt lat="38.82192870921056" lon="16.32782649682533"><ele>407.0</ele><time>2026-04-19T07:45:13Z</time></trkpt><trkpt lat="38.821885709910944" lon="16.32794131957173"><ele>407.0</ele><time>2026-04-19T07:45:14Z</time></trkpt><trkpt lat="38.82185115197553" lon="16.328052739008346"><ele>407.0</ele><time>2026-04-19T07:45:14.999Z</time></trkpt><trkpt lat="38.82178506365868" lon="16.32817268767721"><ele>407.0</ele><time>2026-04-19T07:45:15.999Z</time></trkpt><trkpt lat="38.821726970603585" lon="16.328295638151452"><ele>407.0</ele><time>2026-04-19T07:45:16.999Z</time></trkpt><trkpt lat="38.82167850532987" lon="16.328422261747768"><ele>407.0</ele><time>2026-04-19T07:45:17.999Z</time></trkpt><trkpt lat="38.82166538190161" lon="16.328578595816687"><ele>404.5</ele><time>2026-04-19T07:45:18.999Z</time></trkpt><trkpt lat="38.82164570136536" lon="16.32875607782201"><ele>402.0</ele><time>2026-04-19T07:45:19.999Z</time></trkpt><trkpt lat="38.821630199603085" lon="16.328890491695354"><ele>399.5</ele><time>2026-04-19T07:45:20.999Z</time></trkpt><trkpt lat="38.82158995097442" lon="16.329013219533817"><ele>397.0</ele><time>2026-04-19T07:45:21.999Z</time></trkpt><trkpt lat="38.821551604259156" lon="16.32913237183822"><ele>397.0</ele><time>2026-04-19T07:45:22.999Z</time></trkpt><trkpt lat="38.821506556987394" lon="16.329257536320217"><ele>397.0</ele><time>2026-04-19T07:45:23.999Z</time></trkpt><trkpt lat="38.82146140837338" lon="16.32939409322472"><ele>397.0</ele><time>2026-04-19T07:45:24.999Z</time></trkpt><trkpt lat="38.82139799473701" lon="16.329501397520723"><ele>397.0</ele><time>2026-04-19T07:45:25.999Z</time></trkpt><trkpt lat="38.82132210213273" lon="16.32958724522258"><ele>397.0</ele><time>2026-04-19T07:45:26.999Z</time></trkpt><trkpt lat="38.82127798965841" lon="16.32969891443871"><ele>399.00000000000006</ele><time>2026-04-19T07:45:27.999Z</time></trkpt><trkpt lat="38.82126015586388" lon="16.32982287874944"><ele>401.0</ele><time>2026-04-19T07:45:28.999Z</time></trkpt><trkpt lat="38.821217567155855" lon="16.329945908150574"><ele>403.0</ele><time>2026-04-19T07:45:29.999Z</time></trkpt><trkpt lat="38.821215702680604" lon="16.33004476992507"><ele>405.0</ele><time>2026-04-19T07:45:30.999Z</time></trkpt><trkpt lat="38.821188748955684" lon="16.330126361381744"><ele>407.00000000000006</ele><time>2026-04-19T07:45:31.999Z</time></trkpt><trkpt lat="38.82117525653358" lon="16.330224725800605"><ele>409.0</ele><time>2026-04-19T07:45:32.999Z</time></trkpt><trkpt lat="38.8211797148185" lon="16.33032172704746"><ele>409.00000000000006</ele><time>2026-04-19T07:45:33.999Z</time></trkpt><trkpt lat="38.82114973700371" lon="16.330404651320723"><ele>409.0</ele><time>2026-04-19T07:45:34.999Z</time></trkpt><trkpt lat="38.821163374493004" lon="16.330569351834292"><ele>409.0</ele><time>2026-04-19T07:45:36.999Z</time></trkpt><trkpt lat="38.8211759111503" lon="16.33067275495581"><ele>409.0</ele><time>2026-04-19T07:45:37.999Z</time></trkpt><trkpt lat="38.821192716335105" lon="16.33076944589265"><ele>409.00000000000006</ele><time>2026-04-19T07:45:38.999Z</time></trkpt><trkpt lat="38.82121076156415" lon="16.330864146962192"><ele>409.0</ele><time>2026-04-19T07:45:39.999Z</time></trkpt><trkpt lat="38.821224183346494" lon="16.3309584071244"><ele>408.83333333333337</ele><time>2026-04-19T07:45:40.999Z</time></trkpt><trkpt lat="38.821247232189315" lon="16.331047980616976"><ele>408.6666666666667</ele><time>2026-04-19T07:45:41.999Z</time></trkpt><trkpt lat="38.82127677820199" lon="16.331158213573385"><ele>408.5</ele><time>2026-04-19T07:45:42.999Z</time></trkpt><trkpt lat="38.82126615842576" lon="16.33125209669308"><ele>408.33333333333337</ele><time>2026-04-19T07:45:43.999Z</time></trkpt><trkpt lat="38.82124837791574" lon="16.331356210398457"><ele>408.1666666666667</ele><time>2026-04-19T07:45:44.999Z</time></trkpt><trkpt lat="38.82120358157012" lon="16.331470440336485"><ele>408.0</ele><time>2026-04-19T07:45:45.999Z</time></trkpt><trkpt lat="38.82115411032618" lon="16.33156440021511"><ele>407.0</ele><time>2026-04-19T07:45:46.999Z</time></trkpt><trkpt lat="38.821098844430686" lon="16.331667949109896"><ele>406.0</ele><time>2026-04-19T07:45:47.999Z</time></trkpt><trkpt lat="38.82105529512364" lon="16.331739020123646"><ele>405.0</ele><time>2026-04-19T07:45:48.999Z</time></trkpt><trkpt lat="38.82095944072307" lon="16.33180919312971"><ele>404.0</ele><time>2026-04-19T07:45:50.999Z</time></trkpt><trkpt lat="38.820877888283505" lon="16.331802016793574"><ele>403.0</ele><time>2026-04-19T07:45:51.999Z</time></trkpt><trkpt lat="38.82077454700587" lon="16.33175958819761"><ele>399.5</ele><time>2026-04-19T07:45:52.999Z</time></trkpt><trkpt lat="38.820649522393445" lon="16.331715545248112"><ele>396.0</ele><time>2026-04-19T07:45:53.999Z</time></trkpt><trkpt lat="38.82052343882264" lon="16.331665108382385"><ele>392.5</ele><time>2026-04-19T07:45:54.999Z</time></trkpt><trkpt lat="38.82039005360058" lon="16.3316019971748"><ele>389.0</ele><time>2026-04-19T07:45:55.999Z</time></trkpt><trkpt lat="38.82026581992641" lon="16.331538358040678"><ele>389.0</ele><time>2026-04-19T07:45:56.999Z</time></trkpt><trkpt lat="38.820173545506584" lon="16.331420928534694"><ele>389.0</ele><time>2026-04-19T07:45:57.999Z</time></trkpt><trkpt lat="38.82007714843859" lon="16.331298520581772"><ele>389.0</ele><time>2026-04-19T07:45:58.999Z</time></trkpt><trkpt lat="38.81998731514979" lon="16.33115370092052"><ele>389.0</ele><time>2026-04-19T07:45:59.999Z</time></trkpt><trkpt lat="38.819923713054315" lon="16.330969095744265"><ele>386.3333333333333</ele><time>2026-04-19T07:46:00.999Z</time></trkpt><trkpt lat="38.81988182593033" lon="16.330762095930687"><ele>383.66666666666663</ele><time>2026-04-19T07:46:01.999Z</time></trkpt><trkpt lat="38.81979322244027" lon="16.330568882323888"><ele>381.0</ele><time>2026-04-19T07:46:02.999Z</time></trkpt><trkpt lat="38.8196922342659" lon="16.330391367137338"><ele>381.0</ele><time>2026-04-19T07:46:03.999Z</time></trkpt><trkpt lat="38.81960102793778" lon="16.330234175315997"><ele>381.0</ele><time>2026-04-19T07:46:04.999Z</time></trkpt><trkpt lat="38.81952781102916" lon="16.330104569042074"><ele>381.0</ele><time>2026-04-19T07:46:05.999Z</time></trkpt><trkpt lat="38.819488704709784" lon="16.329965735022583"><ele>381.0</ele><time>2026-04-19T07:46:06.999Z</time></trkpt><trkpt lat="38.81945722156978" lon="16.32979065471802"><ele>378.20000000000005</ele><time>2026-04-19T07:46:07.999Z</time></trkpt><trkpt lat="38.819389873577954" lon="16.329659889926493"><ele>375.40000000000003</ele><time>2026-04-19T07:46:08.999Z</time></trkpt><trkpt lat="38.81929426435766" lon="16.32955679033754"><ele>372.6</ele><time>2026-04-19T07:46:10.999Z</time></trkpt><trkpt lat="38.819213124269325" lon="16.32954395531238"><ele>369.8</ele><time>2026-04-19T07:46:11.999Z</time></trkpt><trkpt lat="38.81909844424499" lon="16.329551515912122"><ele>367.0</ele><time>2026-04-19T07:46:12.999Z</time></trkpt><trkpt lat="38.81899827325487" lon="16.329561945269365"><ele>375.5</ele><time>2026-04-19T07:46:13.999Z</time></trkpt><trkpt lat="38.81885961254694" lon="16.3295628501267"><ele>384.0</ele><time>2026-04-19T07:46:14.999Z</time></trkpt><trkpt lat="38.818751084364365" lon="16.32948269926064"><ele>392.5</ele><time>2026-04-19T07:46:15.999Z</time></trkpt><trkpt lat="38.81864264836476" lon="16.329423374615942"><ele>401.0</ele><time>2026-04-19T07:46:16.999Z</time></trkpt><trkpt lat="38.818520772633015" lon="16.329390685402196"><ele>404.5</ele><time>2026-04-19T07:46:17.999Z</time></trkpt><trkpt lat="38.818398125591514" lon="16.329305155900506"><ele>408.0</ele><time>2026-04-19T07:46:18.999Z</time></trkpt><trkpt lat="38.81826904401591" lon="16.329265060672235"><ele>411.5</ele><time>2026-04-19T07:46:19.999Z</time></trkpt><trkpt lat="38.8181579418157" lon="16.329218851348433"><ele>415.0</ele><time>2026-04-19T07:46:20.999Z</time></trkpt><trkpt lat="38.81802339747959" lon="16.32921314076778"><ele>415.0</ele><time>2026-04-19T07:46:21.999Z</time></trkpt><trkpt lat="38.81789619146651" lon="16.329232610917423"><ele>415.0</ele><time>2026-04-19T07:46:22.999Z</time></trkpt><trkpt lat="38.81777743694971" lon="16.32922693016419"><ele>415.0</ele><time>2026-04-19T07:46:23.999Z</time></trkpt><trkpt lat="38.81765759280955" lon="16.32922774974236"><ele>415.0</ele><time>2026-04-19T07:46:24.999Z</time></trkpt><trkpt lat="38.81754288893984" lon="16.32924896876369"><ele>416.4</ele><time>2026-04-19T07:46:25.999Z</time></trkpt><trkpt lat="38.817415349909794" lon="16.32925313775908"><ele>417.8</ele><time>2026-04-19T07:46:26.999Z</time></trkpt><trkpt lat="38.8172998595834" lon="16.32923087948875"><ele>419.20000000000005</ele><time>2026-04-19T07:46:27.999Z</time></trkpt><trkpt lat="38.817205802130374" lon="16.329216758461616"><ele>420.6</ele><time>2026-04-19T07:46:28.999Z</time></trkpt><trkpt lat="38.81710703672474" lon="16.32920219076064"><ele>422.0</ele><time>2026-04-19T07:46:29.999Z</time></trkpt><trkpt lat="38.81701381546984" lon="16.3291513778043"><ele>421.99999999999994</ele><time>2026-04-19T07:46:30.999Z</time></trkpt><trkpt lat="38.81689887936829" lon="16.329130812129968"><ele>422.0</ele><time>2026-04-19T07:46:32.999Z</time></trkpt><trkpt lat="38.8168342891003" lon="16.329108150078305"><ele>422.0</ele><time>2026-04-19T07:46:33.999Z</time></trkpt><trkpt lat="38.81676498949822" lon="16.329097158075193"><ele>422.0</ele><time>2026-04-19T07:46:34.999Z</time></trkpt><trkpt lat="38.816698295888514" lon="16.329033269281393"><ele>421.99999999999994</ele><time>2026-04-19T07:46:36.999Z</time></trkpt><trkpt lat="38.816761061813686" lon="16.32898750581416"><ele>422.0</ele><time>2026-04-19T07:46:38.999Z</time></trkpt><trkpt lat="38.81682200960056" lon="16.328919706899605"><ele>420.6</ele><time>2026-04-19T07:46:39.999Z</time></trkpt><trkpt lat="38.81688275258267" lon="16.32882070768932"><ele>419.20000000000005</ele><time>2026-04-19T07:46:40.999Z</time></trkpt><trkpt lat="38.81693033471614" lon="16.32872625048977"><ele>417.8</ele><time>2026-04-19T07:46:41.999Z</time></trkpt><trkpt lat="38.81699238436527" lon="16.32859755095294"><ele>416.4</ele><time>2026-04-19T07:46:43.999Z</time></trkpt><trkpt lat="38.817026619973326" lon="16.328526541321224"><ele>415.0</ele><time>2026-04-19T07:46:45.999Z</time></trkpt><trkpt lat="38.81699314842655" lon="16.32833751119206"><ele>415.00000000000006</ele><time>2026-04-19T07:46:48.999Z</time></trkpt><trkpt lat="38.81700147475511" lon="16.328249102326424"><ele>415.0</ele><time>2026-04-19T07:46:49.999Z</time></trkpt><trkpt lat="38.817015678559294" lon="16.328167112505767"><ele>415.0</ele><time>2026-04-19T07:46:50.999Z</time></trkpt><trkpt lat="38.81701701049426" lon="16.328086127389664"><ele>415.0</ele><time>2026-04-19T07:46:53.999Z</time></trkpt><trkpt lat="38.81698951609239" lon="16.32798382837089"><ele>415.00000000000006</ele><time>2026-04-19T07:46:55.999Z</time></trkpt><trkpt lat="38.816974854388064" lon="16.32781520602949"><ele>415.0</ele><time>2026-04-19T07:46:57.999Z</time></trkpt><trkpt lat="38.81697980613489" lon="16.32773297201204"><ele>412.00000000000006</ele><time>2026-04-19T07:46:58.999Z</time></trkpt><trkpt lat="38.81698757643049" lon="16.327608402874084"><ele>409.0</ele><time>2026-04-19T07:47:00.999Z</time></trkpt><trkpt lat="38.817000305090225" lon="16.327522322865043"><ele>406.0</ele><time>2026-04-19T07:47:02.999Z</time></trkpt><trkpt lat="38.816990031295084" lon="16.327439494878643"><ele>403.0</ele><time>2026-04-19T07:47:04.999Z</time></trkpt><trkpt lat="38.81697388562891" lon="16.327348052340472"><ele>400.00000000000006</ele><time>2026-04-19T07:47:07.999Z</time></trkpt><trkpt lat="38.81697284538671" lon="16.32722593943726"><ele>397.0</ele><time>2026-04-19T07:47:10.999Z</time></trkpt><trkpt lat="38.81696602760806" lon="16.32712092593853"><ele>393.8</ele><time>2026-04-19T07:47:13.999Z</time></trkpt><trkpt lat="38.81698104801138" lon="16.327017525097176"><ele>390.6</ele><time>2026-04-19T07:47:17.999Z</time></trkpt><trkpt lat="38.81697637282234" lon="16.326936151691815"><ele>387.40000000000003</ele><time>2026-04-19T07:47:19.999Z</time></trkpt><trkpt lat="38.81699329474994" lon="16.32685443734417"><ele>384.20000000000005</ele><time>2026-04-19T07:47:25.999Z</time></trkpt><trkpt lat="38.81720327328461" lon="16.326805251438493"><ele>381.0</ele><time>2026-04-19T07:47:27.999Z</time></trkpt><trkpt lat="38.81729333270882" lon="16.326813015005996"><ele>381.0</ele><time>2026-04-19T07:47:30.999Z</time></trkpt><trkpt lat="38.81736538759114" lon="16.32683530877355"><ele>381.0</ele><time>2026-04-19T07:47:32.999Z</time></trkpt><trkpt lat="38.817450554705395" lon="16.326866404543864"><ele>381.0</ele><time>2026-04-19T07:47:34.999Z</time></trkpt><trkpt lat="38.81752544521573" lon="16.326867595693024"><ele>381.0</ele><time>2026-04-19T07:47:36.999Z</time></trkpt><trkpt lat="38.81759576965048" lon="16.326818550572803"><ele>381.0</ele><time>2026-04-19T07:47:39.999Z</time></trkpt><trkpt lat="38.81758796122885" lon="16.32673153514023"><ele>381.0</ele><time>2026-04-19T07:47:42.999Z</time></trkpt><trkpt lat="38.81756170115759" lon="16.32662739243049"><ele>381.0</ele><time>2026-04-19T07:47:44.999Z</time></trkpt><trkpt lat="38.81756327996423" lon="16.326528831988675"><ele>381.0</ele><time>2026-04-19T07:47:46.999Z</time></trkpt><trkpt lat="38.817563185365636" lon="16.326444382329072"><ele>381.0</ele><time>2026-04-19T07:47:48.999Z</time></trkpt><trkpt lat="38.81756902724703" lon="16.326337125104857"><ele>381.0</ele><time>2026-04-19T07:47:50.999Z</time></trkpt><trkpt lat="38.81758577586862" lon="16.32625496139161"><ele>381.0</ele><time>2026-04-19T07:47:52.999Z</time></trkpt><trkpt lat="38.81755794968856" lon="16.326157328150515"><ele>381.0</ele><time>2026-04-19T07:47:55.999Z</time></trkpt><trkpt lat="38.81756477793769" lon="16.32605070785546"><ele>376.0</ele><time>2026-04-19T07:47:58.999Z</time></trkpt><trkpt lat="38.81756909829478" lon="16.325947171277093"><ele>371.0</ele><time>2026-04-19T07:48:03.999Z</time></trkpt><trkpt lat="38.81762262904534" lon="16.325884649921935"><ele>366.0</ele><time>2026-04-19T07:48:06.999Z</time></trkpt><trkpt lat="38.81779124034769" lon="16.325880604992694"><ele>361.0</ele><time>2026-04-19T07:48:14.999Z</time></trkpt><trkpt lat="38.81786270391905" lon="16.325819364150394"><ele>356.0</ele><time>2026-04-19T07:48:16.999Z</time></trkpt><trkpt lat="38.817949119050255" lon="16.325772670382754"><ele>356.0</ele><time>2026-04-19T07:48:18.999Z</time></trkpt><trkpt lat="38.81803821723949" lon="16.32572825625006"><ele>356.0</ele><time>2026-04-19T07:48:21.999Z</time></trkpt><trkpt lat="38.81813258214068" lon="16.325726223534076"><ele>356.0</ele><time>2026-04-19T07:48:24.999Z</time></trkpt><trkpt lat="38.81819521467958" lon="16.325651957865"><ele>356.0</ele><time>2026-04-19T07:48:27.999Z</time></trkpt><trkpt lat="38.81821607282989" lon="16.325574936064182"><ele>356.0</ele><time>2026-04-19T07:48:29.999Z</time></trkpt><trkpt lat="38.81823209740526" lon="16.32548491065129"><ele>356.0</ele><time>2026-04-19T07:48:32.999Z</time></trkpt><trkpt lat="38.81823816651749" lon="16.325403904649736"><ele>352.0</ele><time>2026-04-19T07:48:36.999Z</time></trkpt><trkpt lat="38.8182340800642" lon="16.325298765852956"><ele>348.0</ele><time>2026-04-19T07:48:39.999Z</time></trkpt><trkpt lat="38.818260457257146" lon="16.32515640861874"><ele>344.0</ele><time>2026-04-19T07:48:43.999Z</time></trkpt><trkpt lat="38.818261440414574" lon="16.325066981471448"><ele>340.0</ele><time>2026-04-19T07:48:46.999Z</time></trkpt><trkpt lat="38.81823544918383" lon="16.324989857800173"><ele>336.0</ele><time>2026-04-19T07:48:48.999Z</time></trkpt><trkpt lat="38.81820678320036" lon="16.324861294680233"><ele>332.0</ele><time>2026-04-19T07:48:51.999Z</time></trkpt><trkpt lat="38.818177898897495" lon="16.324764363619824"><ele>328.5</ele><time>2026-04-19T07:48:54.999Z</time></trkpt><trkpt lat="38.818171057129895" lon="16.324664493063928"><ele>325.0</ele><time>2026-04-19T07:48:56.999Z</time></trkpt><trkpt lat="38.818174426578565" lon="16.32458270518803"><ele>321.5</ele><time>2026-04-19T07:48:58.999Z</time></trkpt><trkpt lat="38.81816692715743" lon="16.324494292229968"><ele>318.0</ele><time>2026-04-19T07:49:00.999Z</time></trkpt><trkpt lat="38.818163065351555" lon="16.324387389590644"><ele>314.5</ele><time>2026-04-19T07:49:02.999Z</time></trkpt><trkpt lat="38.81811228987436" lon="16.324299318960946"><ele>311.0</ele><time>2026-04-19T07:49:05.999Z</time></trkpt><trkpt lat="38.81805756272806" lon="16.324236339146513"><ele>311.0</ele><time>2026-04-19T07:49:10.998Z</time></trkpt><trkpt lat="38.81799509838134" lon="16.32419061290573"><ele>311.0</ele><time>2026-04-19T07:49:13.998Z</time></trkpt><trkpt lat="38.817946669597255" lon="16.324124098252717"><ele>311.0</ele><time>2026-04-19T07:49:15.998Z</time></trkpt><trkpt lat="38.817918561689815" lon="16.324050536220714"><ele>311.0</ele><time>2026-04-19T07:49:18.998Z</time></trkpt><trkpt lat="38.81786785063608" lon="16.32397694302259"><ele>311.0</ele><time>2026-04-19T07:49:21.998Z</time></trkpt><trkpt lat="38.81781346569119" lon="16.323931911819283"><ele>311.0</ele><time>2026-04-19T07:49:25.998Z</time></trkpt><trkpt lat="38.81776224211063" lon="16.324014978352505"><ele>311.0</ele><time>2026-04-19T07:49:30.998Z</time></trkpt><trkpt lat="38.817736868898216" lon="16.32410529839318"><ele>311.0</ele><time>2026-04-19T07:49:35.998Z</time></trkpt><trkpt lat="38.81770773044376" lon="16.324182616758748"><ele>311.0</ele><time>2026-04-19T07:49:39.998Z</time></trkpt><trkpt lat="38.8176810472037" lon="16.324275491977275"><ele>311.0</ele><time>2026-04-19T07:49:43.998Z</time></trkpt><trkpt lat="38.81761398558742" lon="16.324321632157066"><ele>311.0</ele><time>2026-04-19T07:49:46.998Z</time></trkpt><trkpt lat="38.81755679320459" lon="16.324367290292365"><ele>311.0</ele><time>2026-04-19T07:49:51.998Z</time></trkpt><trkpt lat="38.81747185479877" lon="16.32441501022654"><ele>311.0</ele><time>2026-04-19T07:49:57.998Z</time></trkpt><trkpt lat="38.81741211928871" lon="16.324461739852268"><ele>308.1666666666667</ele><time>2026-04-19T07:49:59.998Z</time></trkpt><trkpt lat="38.817345894209915" lon="16.324505180479573"><ele>305.33333333333337</ele><time>2026-04-19T07:50:01.998Z</time></trkpt><trkpt lat="38.817280627708165" lon="16.324455834202134"><ele>302.5</ele><time>2026-04-19T07:50:03.998Z</time></trkpt><trkpt lat="38.817206702658304" lon="16.32444874479873"><ele>299.6666666666667</ele><time>2026-04-19T07:50:06.998Z</time></trkpt><trkpt lat="38.817109085471294" lon="16.324535220285473"><ele>296.8333333333333</ele><time>2026-04-19T07:50:08.998Z</time></trkpt><trkpt lat="38.817058638050746" lon="16.3246141506446"><ele>294.0</ele><time>2026-04-19T07:50:10.998Z</time></trkpt><trkpt lat="38.81700979296714" lon="16.324668020678622"><ele>294.0</ele><time>2026-04-19T07:50:13.998Z</time></trkpt><trkpt lat="38.81694398726461" lon="16.324716689743145"><ele>294.0</ele><time>2026-04-19T07:50:17.998Z</time></trkpt><trkpt lat="38.81687919045119" lon="16.32473643448823"><ele>294.0</ele><time>2026-04-19T07:51:42Z</time></trkpt><trkpt lat="38.81682409748503" lon="16.3247880951257"><ele>294.0</ele><time>2026-04-19T07:51:45Z</time></trkpt><trkpt lat="38.81676614783864" lon="16.324836102033004"><ele>294.0</ele><time>2026-04-19T07:51:50.999Z</time></trkpt><trkpt lat="38.81671081065993" lon="16.32477127695723"><ele>294.0</ele><time>2026-04-19T07:52:10.999Z</time></trkpt><trkpt lat="38.81675123568921" lon="16.324696124631593"><ele>294.0</ele><time>2026-04-19T07:52:18.999Z</time></trkpt><trkpt lat="38.81679917048092" lon="16.324628635567603"><ele>294.0</ele><time>2026-04-19T07:52:20.999Z</time></trkpt><trkpt lat="38.81684914737925" lon="16.324520319789908"><ele>294.0</ele><time>2026-04-19T07:52:22.999Z</time></trkpt><trkpt lat="38.816892110005845" lon="16.324425804562477"><ele>294.0</ele><time>2026-04-19T07:52:24.999Z</time></trkpt><trkpt lat="38.816926815341944" lon="16.324348668016444"><ele>294.0</ele><time>2026-04-19T07:52:27.999Z</time></trkpt><trkpt lat="38.81695819807574" lon="16.324262299112984"><ele>294.0</ele><time>2026-04-19T07:52:29.999Z</time></trkpt><trkpt lat="38.816962712373076" lon="16.32413962706967"><ele>294.0</ele><time>2026-04-19T07:52:32.999Z</time></trkpt><trkpt lat="38.816969982169894" lon="16.324009730118128"><ele>294.0</ele><time>2026-04-19T07:52:35.999Z</time></trkpt><trkpt lat="38.816977986004225" lon="16.323927489398464"><ele>294.0</ele><time>2026-04-19T07:52:37.999Z</time></trkpt><trkpt lat="38.81696083564498" lon="16.323832296088497"><ele>294.0</ele><time>2026-04-19T07:52:43.999Z</time></trkpt><trkpt lat="38.816985427621375" lon="16.32375585085002"><ele>294.0</ele><time>2026-04-19T07:52:47.999Z</time></trkpt><trkpt lat="38.81700938494483" lon="16.323670702172368"><ele>294.0</ele><time>2026-04-19T07:52:52.999Z</time></trkpt><trkpt lat="38.8170335407828" lon="16.32357277899881"><ele>294.0</ele><time>2026-04-19T07:52:55.999Z</time></trkpt><trkpt lat="38.81704251795273" lon="16.32345967798949"><ele>294.0</ele><time>2026-04-19T07:52:59.999Z</time></trkpt><trkpt lat="38.81703769186703" lon="16.323365433189057"><ele>292.59999999999997</ele><time>2026-04-19T07:53:02.999Z</time></trkpt><trkpt lat="38.8169949350691" lon="16.323290579123864"><ele>291.2</ele><time>2026-04-19T07:53:05.999Z</time></trkpt><trkpt lat="38.816935181827866" lon="16.323135495673128"><ele>289.79999999999995</ele><time>2026-04-19T07:53:13.999Z</time></trkpt><trkpt lat="38.81692135744032" lon="16.32304873398468"><ele>288.4</ele><time>2026-04-19T07:53:14.999Z</time></trkpt><trkpt lat="38.81693555468956" lon="16.3229160370005"><ele>287.0</ele><time>2026-04-19T07:53:16.999Z</time></trkpt><trkpt lat="38.81692742167509" lon="16.322762118799545"><ele>286.33333333333337</ele><time>2026-04-19T07:53:18.999Z</time></trkpt><trkpt lat="38.81694060119842" lon="16.322682185387468"><ele>285.6666666666667</ele><time>2026-04-19T07:53:19.999Z</time></trkpt><trkpt lat="38.81697409679642" lon="16.322601614277314"><ele>285.0</ele><time>2026-04-19T07:53:20.999Z</time></trkpt><trkpt lat="38.817016046369794" lon="16.322533469660087"><ele>284.3333333333333</ele><time>2026-04-19T07:53:21.999Z</time></trkpt><trkpt lat="38.81707259811415" lon="16.32242169728419"><ele>283.66666666666663</ele><time>2026-04-19T07:53:23.999Z</time></trkpt><trkpt lat="38.81707234019615" lon="16.322309767010267"><ele>283.0</ele><time>2026-04-19T07:53:25.999Z</time></trkpt><trkpt lat="38.817098301060796" lon="16.32221867332925"><ele>285.16666666666663</ele><time>2026-04-19T07:53:27.999Z</time></trkpt><trkpt lat="38.81715349764342" lon="16.322098692568247"><ele>287.3333333333333</ele><time>2026-04-19T07:53:29.999Z</time></trkpt><trkpt lat="38.81720566440431" lon="16.322031279780493"><ele>289.5</ele><time>2026-04-19T07:53:31.999Z</time></trkpt><trkpt lat="38.81729057838415" lon="16.321962782218794"><ele>291.6666666666667</ele><time>2026-04-19T07:53:33.999Z</time></trkpt><trkpt lat="38.81735233294303" lon="16.321923135728746"><ele>293.83333333333337</ele><time>2026-04-19T07:53:39.999Z</time></trkpt><trkpt lat="38.81740951289155" lon="16.321867754500563"><ele>296.0</ele><time>2026-04-19T07:53:42.999Z</time></trkpt><trkpt lat="38.817483031370706" lon="16.321851384285672"><ele>296.0</ele><time>2026-04-19T07:53:45.999Z</time></trkpt><trkpt lat="38.817540426364836" lon="16.321898553880544"><ele>296.0</ele><time>2026-04-19T07:53:47.999Z</time></trkpt><trkpt lat="38.817628181845095" lon="16.32193784004282"><ele>296.0</ele><time>2026-04-19T07:53:50.999Z</time></trkpt><trkpt lat="38.81772954935349" lon="16.321841891849317"><ele>296.0</ele><time>2026-04-19T07:53:54.999Z</time></trkpt><trkpt lat="38.81781540352623" lon="16.321787073393818"><ele>296.0</ele><time>2026-04-19T07:53:56.999Z</time></trkpt><trkpt lat="38.81788785416987" lon="16.32172734224617"><ele>294.6</ele><time>2026-04-19T07:53:58.999Z</time></trkpt><trkpt lat="38.81795482414006" lon="16.321668185016105"><ele>293.20000000000005</ele><time>2026-04-19T07:54:00.999Z</time></trkpt><trkpt lat="38.81801412973408" lon="16.321612128011793"><ele>291.79999999999995</ele><time>2026-04-19T07:54:02.999Z</time></trkpt><trkpt lat="38.81806047867287" lon="16.321477150827256"><ele>290.4</ele><time>2026-04-19T07:54:04.999Z</time></trkpt><trkpt lat="38.81813328337646" lon="16.321370232583646"><ele>289.0</ele><time>2026-04-19T07:54:06.999Z</time></trkpt><trkpt lat="38.818215886755254" lon="16.32129042183029"><ele>289.0</ele><time>2026-04-19T07:54:08.999Z</time></trkpt><trkpt lat="38.81827503147531" lon="16.321158304025076"><ele>289.0</ele><time>2026-04-19T07:54:10.999Z</time></trkpt><trkpt lat="38.81830241167119" lon="16.321076973480853"><ele>289.0</ele><time>2026-04-19T07:54:11.999Z</time></trkpt><trkpt lat="38.81835647835618" lon="16.320972424268145"><ele>289.0</ele><time>2026-04-19T07:54:13.999Z</time></trkpt><trkpt lat="38.81839038281192" lon="16.320903050040787"><ele>289.0</ele><time>2026-04-19T07:54:15.999Z</time></trkpt><trkpt lat="38.81844173515423" lon="16.320823776656912"><ele>289.0</ele><time>2026-04-19T07:54:18.999Z</time></trkpt><trkpt lat="38.81849140644483" lon="16.320730939534048"><ele>287.0</ele><time>2026-04-19T07:54:20.999Z</time></trkpt><trkpt lat="38.818537334654636" lon="16.320654037202658"><ele>285.0</ele><time>2026-04-19T07:54:22.999Z</time></trkpt><trkpt lat="38.818583974256754" lon="16.3205947038393"><ele>283.0</ele><time>2026-04-19T07:54:23.999Z</time></trkpt><trkpt lat="38.81865903843655" lon="16.320518102789826"><ele>281.0</ele><time>2026-04-19T07:54:25.999Z</time></trkpt><trkpt lat="38.818710110240104" lon="16.320457589382954"><ele>279.0</ele><time>2026-04-19T07:54:27.999Z</time></trkpt><trkpt lat="38.81877588654458" lon="16.32040345049939"><ele>277.0</ele><time>2026-04-19T07:54:29.999Z</time></trkpt><trkpt lat="38.81885532173499" lon="16.32033894704846"><ele>277.0</ele><time>2026-04-19T07:54:31.999Z</time></trkpt><trkpt lat="38.818929406012565" lon="16.320269494404258"><ele>277.0</ele><time>2026-04-19T07:54:33.999Z</time></trkpt><trkpt lat="38.81900739518733" lon="16.32019278262639"><ele>277.0</ele><time>2026-04-19T07:54:35.999Z</time></trkpt><trkpt lat="38.819093057072024" lon="16.32010506888606"><ele>277.0</ele><time>2026-04-19T07:54:37.999Z</time></trkpt><trkpt lat="38.81920172661937" lon="16.3200205131374"><ele>277.0</ele><time>2026-04-19T07:54:39.999Z</time></trkpt><trkpt lat="38.819303641413875" lon="16.319950305946627"><ele>273.8</ele><time>2026-04-19T07:54:41.999Z</time></trkpt><trkpt lat="38.81940607117147" lon="16.31991126037548"><ele>270.6</ele><time>2026-04-19T07:54:43.999Z</time></trkpt><trkpt lat="38.81949858991725" lon="16.319870047403803"><ele>267.40000000000003</ele><time>2026-04-19T07:54:45.999Z</time></trkpt><trkpt lat="38.819576984567476" lon="16.319843760490453"><ele>264.2</ele><time>2026-04-19T07:54:47.999Z</time></trkpt><trkpt lat="38.81968701404819" lon="16.319861137729465"><ele>261.0</ele><time>2026-04-19T07:54:49.999Z</time></trkpt><trkpt lat="38.81974894649739" lon="16.319880654302057"><ele>261.0</ele><time>2026-04-19T07:54:50.999Z</time></trkpt><trkpt lat="38.819850112703925" lon="16.319927419075615"><ele>261.0</ele><time>2026-04-19T07:54:52.999Z</time></trkpt><trkpt lat="38.819957498848694" lon="16.31998118505663"><ele>261.0</ele><time>2026-04-19T07:54:54.999Z</time></trkpt><trkpt lat="38.82007747134089" lon="16.319959274916602"><ele>261.0</ele><time>2026-04-19T07:54:56.999Z</time></trkpt><trkpt lat="38.8201781188905" lon="16.31986465238005"><ele>260.0</ele><time>2026-04-19T07:54:58.999Z</time></trkpt><trkpt lat="38.82025267667788" lon="16.319734872537097"><ele>259.0</ele><time>2026-04-19T07:55:00.999Z</time></trkpt><trkpt lat="38.820282518065746" lon="16.319653678900615"><ele>258.0</ele><time>2026-04-19T07:55:01.999Z</time></trkpt><trkpt lat="38.82032884026261" lon="16.319507056075647"><ele>257.0</ele><time>2026-04-19T07:55:03.999Z</time></trkpt><trkpt lat="38.820349947511346" lon="16.319429361321166"><ele>256.0</ele><time>2026-04-19T07:55:04.999Z</time></trkpt><trkpt lat="38.820374723113616" lon="16.319345744299955"><ele>255.99999999999997</ele><time>2026-04-19T07:55:05.999Z</time></trkpt><trkpt lat="38.82040893118457" lon="16.319234986012976"><ele>256.0</ele><time>2026-04-19T07:55:06.999Z</time></trkpt><trkpt lat="38.8204351128576" lon="16.31914063349761"><ele>256.0</ele><time>2026-04-19T07:55:07.999Z</time></trkpt><trkpt lat="38.82046113271874" lon="16.319039974122237"><ele>256.0</ele><time>2026-04-19T07:55:08.999Z</time></trkpt><trkpt lat="38.82047705195686" lon="16.31894356081929"><ele>255.99999999999997</ele><time>2026-04-19T07:55:09.999Z</time></trkpt><trkpt lat="38.820492395542196" lon="16.318837739458477"><ele>256.0</ele><time>2026-04-19T07:55:10.999Z</time></trkpt><trkpt lat="38.8205114940005" lon="16.3187319725937"><ele>254.20000000000002</ele><time>2026-04-19T07:55:11.999Z</time></trkpt><trkpt lat="38.82055736510736" lon="16.318643936791563"><ele>252.40000000000003</ele><time>2026-04-19T07:55:12.999Z</time></trkpt><trkpt lat="38.820615062793635" lon="16.31855865857583"><ele>250.6</ele><time>2026-04-19T07:55:13.999Z</time></trkpt><trkpt lat="38.820664812294915" lon="16.31846323427189"><ele>248.8</ele><time>2026-04-19T07:55:14.999Z</time></trkpt><trkpt lat="38.82069233351202" lon="16.31834095419793"><ele>247.0</ele><time>2026-04-19T07:55:15.999Z</time></trkpt><trkpt lat="38.82070876334414" lon="16.318213710916744"><ele>247.0</ele><time>2026-04-19T07:55:16.999Z</time></trkpt><trkpt lat="38.820713897914516" lon="16.31809694185953"><ele>247.0</ele><time>2026-04-19T07:55:17.999Z</time></trkpt><trkpt lat="38.82071606764457" lon="16.317990423779943"><ele>247.0</ele><time>2026-04-19T07:55:18.999Z</time></trkpt><trkpt lat="38.820721608200984" lon="16.317873851407843"><ele>247.0</ele><time>2026-04-19T07:55:19.999Z</time></trkpt><trkpt lat="38.820734282236316" lon="16.317752020778123"><ele>247.0</ele><time>2026-04-19T07:55:20.999Z</time></trkpt><trkpt lat="38.82074449791219" lon="16.317628518266595"><ele>247.66666666666666</ele><time>2026-04-19T07:55:21.999Z</time></trkpt><trkpt lat="38.82076079521183" lon="16.31752725233216"><ele>248.33333333333331</ele><time>2026-04-19T07:55:22.999Z</time></trkpt><trkpt lat="38.82078002657014" lon="16.317444488894335"><ele>249.0</ele><time>2026-04-19T07:55:23.999Z</time></trkpt><trkpt lat="38.82080791264441" lon="16.317371335093696"><ele>249.66666666666669</ele><time>2026-04-19T07:55:24.999Z</time></trkpt><trkpt lat="38.82084794019416" lon="16.317290740194647"><ele>250.33333333333334</ele><time>2026-04-19T07:55:25.999Z</time></trkpt><trkpt lat="38.82092223548081" lon="16.31718810365531"><ele>251.0</ele><time>2026-04-19T07:55:27.999Z</time></trkpt><trkpt lat="38.82100382421026" lon="16.317082106530183"><ele>251.66666666666669</ele><time>2026-04-19T07:55:29.999Z</time></trkpt><trkpt lat="38.82103641836743" lon="16.317010977242788"><ele>252.33333333333334</ele><time>2026-04-19T07:55:30.999Z</time></trkpt><trkpt lat="38.821055087626235" lon="16.316922569751387"><ele>253.0</ele><time>2026-04-19T07:55:31.999Z</time></trkpt><trkpt lat="38.821066380038125" lon="16.316828101547195"><ele>253.66666666666669</ele><time>2026-04-19T07:55:32.999Z</time></trkpt><trkpt lat="38.82107601605968" lon="16.316721890655405"><ele>254.33333333333334</ele><time>2026-04-19T07:55:33.999Z</time></trkpt><trkpt lat="38.82108410535706" lon="16.316603851228457"><ele>255.0</ele><time>2026-04-19T07:55:34.999Z</time></trkpt><trkpt lat="38.82108383943442" lon="16.316481782737828"><ele>255.33333333333334</ele><time>2026-04-19T07:55:35.999Z</time></trkpt><trkpt lat="38.82107945197223" lon="16.316361458071654"><ele>255.66666666666669</ele><time>2026-04-19T07:55:36.999Z</time></trkpt><trkpt lat="38.82107954341075" lon="16.316249322159276"><ele>256.0</ele><time>2026-04-19T07:55:37.999Z</time></trkpt><trkpt lat="38.82107948913601" lon="16.316160347067957"><ele>256.33333333333337</ele><time>2026-04-19T07:55:38.999Z</time></trkpt><trkpt lat="38.82107451822974" lon="16.316077329818857"><ele>256.6666666666667</ele><time>2026-04-19T07:55:39.999Z</time></trkpt><trkpt lat="38.82103526659139" lon="16.31593476283642"><ele>257.0</ele><time>2026-04-19T07:55:41.999Z</time></trkpt><trkpt lat="38.82099267546525" lon="16.3158396852442"><ele>255.50000000000003</ele><time>2026-04-19T07:55:42.999Z</time></trkpt><trkpt lat="38.82095288775503" lon="16.315757506762957"><ele>254.0</ele><time>2026-04-19T07:55:43.999Z</time></trkpt><trkpt lat="38.82092441593179" lon="16.315681222377922"><ele>252.5</ele><time>2026-04-19T07:55:44.999Z</time></trkpt><trkpt lat="38.82087457228233" lon="16.315547831807937"><ele>251.0</ele><time>2026-04-19T07:55:46.999Z</time></trkpt><trkpt lat="38.820824540323905" lon="16.31549027957065"><ele>249.50000000000003</ele><time>2026-04-19T07:55:47.999Z</time></trkpt><trkpt lat="38.82074390870832" lon="16.315399595624836"><ele>248.0</ele><time>2026-04-19T07:55:49.999Z</time></trkpt><trkpt lat="38.82071730846104" lon="16.315301743128074"><ele>246.2</ele><time>2026-04-19T07:55:52.999Z</time></trkpt><trkpt lat="38.82072333059265" lon="16.315169713679605"><ele>244.4</ele><time>2026-04-19T07:55:54.999Z</time></trkpt><trkpt lat="38.820747955084954" lon="16.315086901295924"><ele>242.59999999999997</ele><time>2026-04-19T07:55:56.999Z</time></trkpt><trkpt lat="38.82075879466845" lon="16.31498129706948"><ele>240.79999999999998</ele><time>2026-04-19T07:55:58.999Z</time></trkpt><trkpt lat="38.82073701365188" lon="16.314871765776495"><ele>239.0</ele><time>2026-04-19T07:56:00.999Z</time></trkpt><trkpt lat="38.820717508636996" lon="16.314726309859154"><ele>237.0</ele><time>2026-04-19T07:56:02.999Z</time></trkpt><trkpt lat="38.82071782319834" lon="16.314636437624074"><ele>234.99999999999997</ele><time>2026-04-19T07:56:04.999Z</time></trkpt><trkpt lat="38.82078383853757" lon="16.314514883920594"><ele>232.99999999999997</ele><time>2026-04-19T07:56:06.999Z</time></trkpt><trkpt lat="38.82080324413009" lon="16.314407637777087"><ele>231.0</ele><time>2026-04-19T07:56:08.999Z</time></trkpt><trkpt lat="38.820767288869945" lon="16.31428344707389"><ele>229.0</ele><time>2026-04-19T07:56:10.999Z</time></trkpt><trkpt lat="38.820709438747755" lon="16.314165097850054"><ele>229.0</ele><time>2026-04-19T07:56:12.999Z</time></trkpt><trkpt lat="38.820670780722494" lon="16.314091748067757"><ele>228.99999999999997</ele><time>2026-04-19T07:56:13.999Z</time></trkpt><trkpt lat="38.82063951083909" lon="16.314000880354822"><ele>228.99999999999997</ele><time>2026-04-19T07:56:14.999Z</time></trkpt><trkpt lat="38.82060160086549" lon="16.3138829101762"><ele>229.0</ele><time>2026-04-19T07:56:15.999Z</time></trkpt><trkpt lat="38.82057849035624" lon="16.313749962303035"><ele>229.0</ele><time>2026-04-19T07:56:16.999Z</time></trkpt><trkpt lat="38.82055754532701" lon="16.313607477017882"><ele>229.2</ele><time>2026-04-19T07:56:17.999Z</time></trkpt><trkpt lat="38.82054855055988" lon="16.31346773095259"><ele>229.39999999999998</ele><time>2026-04-19T07:56:18.999Z</time></trkpt><trkpt lat="38.82054508415696" lon="16.313332293574575"><ele>229.6</ele><time>2026-04-19T07:56:19.999Z</time></trkpt><trkpt lat="38.820536173271464" lon="16.31321747509215"><ele>229.8</ele><time>2026-04-19T07:56:20.999Z</time></trkpt><trkpt lat="38.82052425753963" lon="16.313107892237664"><ele>230.0</ele><time>2026-04-19T07:56:21.998Z</time></trkpt><trkpt lat="38.820513676199496" lon="16.313001050567912"><ele>230.16666666666669</ele><time>2026-04-19T07:56:22.998Z</time></trkpt><trkpt lat="38.82052796888498" lon="16.312890833174038"><ele>230.33333333333334</ele><time>2026-04-19T07:56:23.998Z</time></trkpt><trkpt lat="38.82054508353615" lon="16.31278678007252"><ele>230.5</ele><time>2026-04-19T07:56:24.998Z</time></trkpt><trkpt lat="38.82055066756796" lon="16.312692712457256"><ele>230.66666666666669</ele><time>2026-04-19T07:56:25.998Z</time></trkpt><trkpt lat="38.8205595727641" lon="16.31260722041167"><ele>230.83333333333334</ele><time>2026-04-19T07:56:26.998Z</time></trkpt><trkpt lat="38.820596070250645" lon="16.312461843047505"><ele>231.0</ele><time>2026-04-19T07:56:28.998Z</time></trkpt><trkpt lat="38.820675165508085" lon="16.312328216119266"><ele>231.0</ele><time>2026-04-19T07:56:30.998Z</time></trkpt><trkpt lat="38.820716911681444" lon="16.312249028532563"><ele>231.0</ele><time>2026-04-19T07:56:31.998Z</time></trkpt><trkpt lat="38.820763208010426" lon="16.31217952663529"><ele>231.0</ele><time>2026-04-19T07:56:32.998Z</time></trkpt><trkpt lat="38.82081161594934" lon="16.312111176248962"><ele>231.0</ele><time>2026-04-19T07:56:33.998Z</time></trkpt><trkpt lat="38.82084560364502" lon="16.312032830438753"><ele>231.0</ele><time>2026-04-19T07:56:34.998Z</time></trkpt><trkpt lat="38.82086322331537" lon="16.31195236723018"><ele>231.0</ele><time>2026-04-19T07:56:35.998Z</time></trkpt><trkpt lat="38.82090744149636" lon="16.311805243195344"><ele>231.14285714285714</ele><time>2026-04-19T07:56:37.998Z</time></trkpt><trkpt lat="38.82095116497513" lon="16.311725090306943"><ele>231.28571428571428</ele><time>2026-04-19T07:56:38.998Z</time></trkpt><trkpt lat="38.820977953728075" lon="16.31163749720952"><ele>231.42857142857144</ele><time>2026-04-19T07:56:39.998Z</time></trkpt><trkpt lat="38.820986873818974" lon="16.311553700370293"><ele>231.57142857142858</ele><time>2026-04-19T07:56:40.998Z</time></trkpt><trkpt lat="38.820971015938454" lon="16.311463501222395"><ele>231.71428571428572</ele><time>2026-04-19T07:56:41.998Z</time></trkpt><trkpt lat="38.82095383740506" lon="16.31137637664395"><ele>231.8571428571429</ele><time>2026-04-19T07:56:42.998Z</time></trkpt><trkpt lat="38.82094134676447" lon="16.31128865216463"><ele>232.00000000000003</ele><time>2026-04-19T07:56:43.998Z</time></trkpt><trkpt lat="38.820921091565715" lon="16.311201752533687"><ele>230.0</ele><time>2026-04-19T07:56:44.998Z</time></trkpt><trkpt lat="38.8209012983752" lon="16.311108826743425"><ele>228.0</ele><time>2026-04-19T07:56:45.998Z</time></trkpt><trkpt lat="38.82087821605088" lon="16.310945322204343"><ele>226.0</ele><time>2026-04-19T07:56:47.998Z</time></trkpt><trkpt lat="38.82082748900058" lon="16.310793152675902"><ele>224.0</ele><time>2026-04-19T07:56:49.998Z</time></trkpt><trkpt lat="38.82076455736241" lon="16.310734235218384"><ele>222.0</ele><time>2026-04-19T07:56:50.998Z</time></trkpt><trkpt lat="38.82070616222449" lon="16.31068240439125"><ele>222.0</ele><time>2026-04-19T07:56:51.998Z</time></trkpt><trkpt lat="38.82062917876821" lon="16.31058849566783"><ele>222.0</ele><time>2026-04-19T07:56:53.998Z</time></trkpt><trkpt lat="38.820552223448466" lon="16.310465320739706"><ele>222.0</ele><time>2026-04-19T07:56:55.998Z</time></trkpt><trkpt lat="38.82050622256248" lon="16.310375085005376"><ele>222.0</ele><time>2026-04-19T07:56:56.998Z</time></trkpt><trkpt lat="38.82046851013923" lon="16.310275256472014"><ele>222.0</ele><time>2026-04-19T07:56:57.998Z</time></trkpt><trkpt lat="38.82045116637234" lon="16.31014158544372"><ele>220.2</ele><time>2026-04-19T07:56:58.998Z</time></trkpt><trkpt lat="38.820430926490126" lon="16.309994787434466"><ele>218.39999999999998</ele><time>2026-04-19T07:56:59.998Z</time></trkpt><trkpt lat="38.8204335500997" lon="16.309839055237656"><ele>216.60000000000002</ele><time>2026-04-19T07:57:00.998Z</time></trkpt><trkpt lat="38.82045667035293" lon="16.30970078029553"><ele>214.8</ele><time>2026-04-19T07:57:01.998Z</time></trkpt><trkpt lat="38.82047667991805" lon="16.309588603451004"><ele>213.0</ele><time>2026-04-19T07:57:02.998Z</time></trkpt><trkpt lat="38.82049174606739" lon="16.309489423231852"><ele>213.0</ele><time>2026-04-19T07:57:03.998Z</time></trkpt><trkpt lat="38.8204930887654" lon="16.309359184472495"><ele>213.0</ele><time>2026-04-19T07:57:04.998Z</time></trkpt><trkpt lat="38.82049634945022" lon="16.309226144028177"><ele>213.0</ele><time>2026-04-19T07:57:05.998Z</time></trkpt><trkpt lat="38.820511109238645" lon="16.30908847405786"><ele>213.0</ele><time>2026-04-19T07:57:06.998Z</time></trkpt><trkpt lat="38.820519664584786" lon="16.30895252401334"><ele>213.0</ele><time>2026-04-19T07:57:07.998Z</time></trkpt><trkpt lat="38.8205213176876" lon="16.308816051588956"><ele>213.25</ele><time>2026-04-19T07:57:08.998Z</time></trkpt><trkpt lat="38.820508250573994" lon="16.308670973019698"><ele>213.5</ele><time>2026-04-19T07:57:09.998Z</time></trkpt><trkpt lat="38.82050749787815" lon="16.308501180496194"><ele>213.75</ele><time>2026-04-19T07:57:10.998Z</time></trkpt><trkpt lat="38.820511289818036" lon="16.30834787991832"><ele>214.0</ele><time>2026-04-19T07:57:11.998Z</time></trkpt><trkpt lat="38.82052121288201" lon="16.3082167433044"><ele>214.0</ele><time>2026-04-19T07:57:12.998Z</time></trkpt><trkpt lat="38.820533019354045" lon="16.308098382367714"><ele>213.99999999999997</ele><time>2026-04-19T07:57:13.998Z</time></trkpt><trkpt lat="38.8205423308663" lon="16.30796509954734"><ele>213.99999999999997</ele><time>2026-04-19T07:57:14.998Z</time></trkpt><trkpt lat="38.8205580257973" lon="16.30782753387038"><ele>214.0</ele><time>2026-04-19T07:57:15.998Z</time></trkpt><trkpt lat="38.82058925179354" lon="16.307692796520403"><ele>214.0</ele><time>2026-04-19T07:57:16.998Z</time></trkpt><trkpt lat="38.820632568268486" lon="16.30757951537468"><ele>215.2</ele><time>2026-04-19T07:57:17.998Z</time></trkpt><trkpt lat="38.82068919155741" lon="16.307473829442657"><ele>216.39999999999998</ele><time>2026-04-19T07:57:18.998Z</time></trkpt><trkpt lat="38.820770533548064" lon="16.30735821086989"><ele>217.6</ele><time>2026-04-19T07:57:19.998Z</time></trkpt><trkpt lat="38.82084931769447" lon="16.307244310898522"><ele>218.8</ele><time>2026-04-19T07:57:20.998Z</time></trkpt><trkpt lat="38.82091832146867" lon="16.307145003853677"><ele>220.0</ele><time>2026-04-19T07:57:21.998Z</time></trkpt><trkpt lat="38.82099417155611" lon="16.307044954941055"><ele>216.16666666666666</ele><time>2026-04-19T07:57:22.998Z</time></trkpt><trkpt lat="38.821078115191504" lon="16.306942468260523"><ele>212.33333333333331</ele><time>2026-04-19T07:57:23.998Z</time></trkpt><trkpt lat="38.82115057698584" lon="16.306874692805607"><ele>208.5</ele><time>2026-04-19T07:57:24.998Z</time></trkpt><trkpt lat="38.82117979353976" lon="16.30679466237444"><ele>204.66666666666669</ele><time>2026-04-19T07:57:25.998Z</time></trkpt><trkpt lat="38.82120386938579" lon="16.306713957275555"><ele>200.83333333333334</ele><time>2026-04-19T07:57:26.998Z</time></trkpt><trkpt lat="38.82123918683914" lon="16.306598441746925"><ele>197.0</ele><time>2026-04-19T07:57:27.998Z</time></trkpt><trkpt lat="38.821285962662905" lon="16.306481084416312"><ele>199.0</ele><time>2026-04-19T07:57:28.998Z</time></trkpt><trkpt lat="38.82133477891143" lon="16.306383225187524"><ele>201.0</ele><time>2026-04-19T07:57:29.998Z</time></trkpt><trkpt lat="38.821395698574996" lon="16.306263981580948"><ele>203.0</ele><time>2026-04-19T07:57:30.998Z</time></trkpt><trkpt lat="38.82146279720137" lon="16.306159154557314"><ele>205.0</ele><time>2026-04-19T07:57:31.998Z</time></trkpt><trkpt lat="38.821528923796535" lon="16.306073831270158"><ele>207.0</ele><time>2026-04-19T07:57:32.998Z</time></trkpt><trkpt lat="38.821593969466875" lon="16.305976141063322"><ele>207.0</ele><time>2026-04-19T07:57:33.998Z</time></trkpt><trkpt lat="38.82165146399163" lon="16.30589395109019"><ele>207.0</ele><time>2026-04-19T07:57:34.998Z</time></trkpt><trkpt lat="38.82169674894394" lon="16.3058197810931"><ele>207.0</ele><time>2026-04-19T07:57:35.998Z</time></trkpt><trkpt lat="38.821746334774645" lon="16.30576326407958"><ele>207.0</ele><time>2026-04-19T07:57:36.998Z</time></trkpt><trkpt lat="38.82181632296557" lon="16.30566776054612"><ele>207.0</ele><time>2026-04-19T07:57:39Z</time></trkpt><trkpt lat="38.82187562873009" lon="16.305551811104714"><ele>207.0</ele><time>2026-04-19T07:57:41Z</time></trkpt><trkpt lat="38.821896305778644" lon="16.305471491926177"><ele>208.16666666666666</ele><time>2026-04-19T07:57:42Z</time></trkpt><trkpt lat="38.821921123340445" lon="16.305316604588"><ele>209.33333333333331</ele><time>2026-04-19T07:57:44Z</time></trkpt><trkpt lat="38.82192298220374" lon="16.305221750812926"><ele>210.5</ele><time>2026-04-19T07:57:45Z</time></trkpt><trkpt lat="38.821908160462115" lon="16.305141215438233"><ele>211.66666666666666</ele><time>2026-04-19T07:57:46Z</time></trkpt><trkpt lat="38.82186654136717" lon="16.30506541496368"><ele>212.83333333333331</ele><time>2026-04-19T07:57:47Z</time></trkpt><trkpt lat="38.82181525813433" lon="16.304984188332213"><ele>214.0</ele><time>2026-04-19T07:57:48Z</time></trkpt><trkpt lat="38.82178466084221" lon="16.304895420420547"><ele>213.99999999999997</ele><time>2026-04-19T07:57:49Z</time></trkpt><trkpt lat="38.82177221004811" lon="16.304789250998546"><ele>214.0</ele><time>2026-04-19T07:57:50Z</time></trkpt><trkpt lat="38.82177138885139" lon="16.304681607228137"><ele>214.0</ele><time>2026-04-19T07:57:51Z</time></trkpt><trkpt lat="38.8217780056485" lon="16.304564314882235"><ele>214.0</ele><time>2026-04-19T07:57:52Z</time></trkpt><trkpt lat="38.8217631244593" lon="16.304459899267297"><ele>213.99999999999997</ele><time>2026-04-19T07:57:53Z</time></trkpt><trkpt lat="38.82173574929563" lon="16.304360409600033"><ele>214.0</ele><time>2026-04-19T07:57:54Z</time></trkpt><trkpt lat="38.82170961312656" lon="16.30424460162853"><ele>213.79999999999998</ele><time>2026-04-19T07:57:55Z</time></trkpt><trkpt lat="38.82168208552754" lon="16.3041397970986"><ele>213.59999999999997</ele><time>2026-04-19T07:57:56Z</time></trkpt><trkpt lat="38.821664228707355" lon="16.304033981578463"><ele>213.4</ele><time>2026-04-19T07:57:57Z</time></trkpt><trkpt lat="38.82165422459767" lon="16.303931128039753"><ele>213.2</ele><time>2026-04-19T07:57:58Z</time></trkpt><trkpt lat="38.82165467967274" lon="16.303824892294095"><ele>213.0</ele><time>2026-04-19T07:57:59Z</time></trkpt><trkpt lat="38.821678435846806" lon="16.303674782111226"><ele>213.0</ele><time>2026-04-19T07:58:00Z</time></trkpt><trkpt lat="38.8217042573069" lon="16.303544031659335"><ele>213.0</ele><time>2026-04-19T07:58:01Z</time></trkpt><trkpt lat="38.82173189075738" lon="16.30341478332996"><ele>213.0</ele><time>2026-04-19T07:58:02Z</time></trkpt><trkpt lat="38.82175071806638" lon="16.303287670071196"><ele>213.0</ele><time>2026-04-19T07:58:03Z</time></trkpt><trkpt lat="38.82176110791634" lon="16.303153564568056"><ele>213.0</ele><time>2026-04-19T07:58:04Z</time></trkpt><trkpt lat="38.821751391519484" lon="16.303023004088683"><ele>212.66666666666666</ele><time>2026-04-19T07:58:05Z</time></trkpt><trkpt lat="38.821718387967366" lon="16.302922953047933"><ele>212.33333333333331</ele><time>2026-04-19T07:58:06Z</time></trkpt><trkpt lat="38.82170174207456" lon="16.302822021112"><ele>212.0</ele><time>2026-04-19T07:58:07Z</time></trkpt><trkpt lat="38.82168343000784" lon="16.302711528129816"><ele>211.66666666666666</ele><time>2026-04-19T07:58:08Z</time></trkpt><trkpt lat="38.821656156676106" lon="16.302625715429325"><ele>211.33333333333331</ele><time>2026-04-19T07:58:09Z</time></trkpt><trkpt lat="38.821616573135" lon="16.302538171493836"><ele>211.0</ele><time>2026-04-19T07:58:10Z</time></trkpt><trkpt lat="38.82156426531059" lon="16.302479395204777"><ele>211.0</ele><time>2026-04-19T07:58:11Z</time></trkpt><trkpt lat="38.82148033223501" lon="16.30240624406063"><ele>211.0</ele><time>2026-04-19T07:58:12Z</time></trkpt><trkpt lat="38.82140828527219" lon="16.302312935219607"><ele>211.0</ele><time>2026-04-19T07:58:13Z</time></trkpt><trkpt lat="38.82134554965906" lon="16.302223491978935"><ele>211.0</ele><time>2026-04-19T07:58:14Z</time></trkpt><trkpt lat="38.82128850434879" lon="16.30214459162575"><ele>211.0</ele><time>2026-04-19T07:58:15Z</time></trkpt><trkpt lat="38.82123295064719" lon="16.30207735710867"><ele>209.99999999999997</ele><time>2026-04-19T07:58:16Z</time></trkpt><trkpt lat="38.82119374106344" lon="16.301993929707255"><ele>209.0</ele><time>2026-04-19T07:58:17Z</time></trkpt><trkpt lat="38.82116874239865" lon="16.301892387652366"><ele>208.0</ele><time>2026-04-19T07:58:18Z</time></trkpt><trkpt lat="38.82113726109611" lon="16.30180880146932"><ele>207.0</ele><time>2026-04-19T07:58:19Z</time></trkpt><trkpt lat="38.82111765262604" lon="16.301728941962775"><ele>205.99999999999997</ele><time>2026-04-19T07:58:20Z</time></trkpt><trkpt lat="38.8211325833505" lon="16.301616177256882"><ele>205.0</ele><time>2026-04-19T07:58:21Z</time></trkpt><trkpt lat="38.82115594206306" lon="16.30149146751716"><ele>206.6</ele><time>2026-04-19T07:58:22Z</time></trkpt><trkpt lat="38.82116975102993" lon="16.301376952859084"><ele>208.2</ele><time>2026-04-19T07:58:23Z</time></trkpt><trkpt lat="38.82116262935669" lon="16.301259378294624"><ele>209.8</ele><time>2026-04-19T07:58:24Z</time></trkpt><trkpt lat="38.82116051717665" lon="16.30114170245674"><ele>211.4</ele><time>2026-04-19T07:58:25Z</time></trkpt><trkpt lat="38.82118069413423" lon="16.301025375427667"><ele>213.0</ele><time>2026-04-19T07:58:26Z</time></trkpt><trkpt lat="38.82119891955717" lon="16.300899561375452"><ele>213.0</ele><time>2026-04-19T07:58:27Z</time></trkpt><trkpt lat="38.82121806728136" lon="16.30079813312141"><ele>213.0</ele><time>2026-04-19T07:58:28Z</time></trkpt><trkpt lat="38.82123779507622" lon="16.300697790640868"><ele>213.0</ele><time>2026-04-19T07:58:29Z</time></trkpt><trkpt lat="38.82128153414443" lon="16.300584960542714"><ele>213.0</ele><time>2026-04-19T07:58:30Z</time></trkpt><trkpt lat="38.8213258832289" lon="16.30046689499273"><ele>213.0</ele><time>2026-04-19T07:58:31Z</time></trkpt><trkpt lat="38.82136215477578" lon="16.300367916164205"><ele>213.0</ele><time>2026-04-19T07:58:32Z</time></trkpt><trkpt lat="38.82138472058701" lon="16.300261309921463"><ele>215.16666666666666</ele><time>2026-04-19T07:58:33Z</time></trkpt><trkpt lat="38.821405344194154" lon="16.300159446920762"><ele>217.33333333333331</ele><time>2026-04-19T07:58:34Z</time></trkpt><trkpt lat="38.82142427083404" lon="16.300052384438207"><ele>219.5</ele><time>2026-04-19T07:58:35Z</time></trkpt><trkpt lat="38.821439281408054" lon="16.299956996900836"><ele>221.66666666666666</ele><time>2026-04-19T07:58:36Z</time></trkpt><trkpt lat="38.82146470870267" lon="16.29986660416456"><ele>223.83333333333331</ele><time>2026-04-19T07:58:37Z</time></trkpt><trkpt lat="38.8214980185283" lon="16.299771577565473"><ele>226.0</ele><time>2026-04-19T07:58:38Z</time></trkpt><trkpt lat="38.82153060540274" lon="16.299683940593216"><ele>228.0</ele><time>2026-04-19T07:58:39Z</time></trkpt><trkpt lat="38.82156198157805" lon="16.299598304188088"><ele>230.00000000000003</ele><time>2026-04-19T07:58:40Z</time></trkpt><trkpt lat="38.82159994012436" lon="16.299481658851853"><ele>232.00000000000003</ele><time>2026-04-19T07:58:42Z</time></trkpt><trkpt lat="38.82162580195104" lon="16.299355429747823"><ele>234.0</ele><time>2026-04-19T07:58:44Z</time></trkpt><trkpt lat="38.821583564668614" lon="16.299247052982892"><ele>236.0</ele><time>2026-04-19T07:58:46Z</time></trkpt><trkpt lat="38.821521603784355" lon="16.29916563303583"><ele>236.0</ele><time>2026-04-19T07:58:48Z</time></trkpt><trkpt lat="38.82144685414342" lon="16.29910536400644"><ele>236.0</ele><time>2026-04-19T07:58:50Z</time></trkpt><trkpt lat="38.821402266288054" lon="16.299046545983266"><ele>236.0</ele><time>2026-04-19T07:58:51Z</time></trkpt><trkpt lat="38.82133547474271" lon="16.29894892626142"><ele>236.0</ele><time>2026-04-19T07:58:53Z</time></trkpt><trkpt lat="38.821284224493155" lon="16.298897143344703"><ele>236.0</ele><time>2026-04-19T07:59:00Z</time></trkpt><trkpt lat="38.821251953613036" lon="16.298825366128707"><ele>236.0</ele><time>2026-04-19T07:59:07Z</time></trkpt><trkpt lat="38.82118779627986" lon="16.29883999524524"><ele>236.0</ele><time>2026-04-19T07:59:19Z</time></trkpt><trkpt lat="38.8211254783006" lon="16.298859348300326"><ele>235.28571428571428</ele><time>2026-04-19T07:59:28Z</time></trkpt><trkpt lat="38.82106294854452" lon="16.29884218396297"><ele>234.57142857142858</ele><time>2026-04-19T07:59:53Z</time></trkpt><trkpt lat="38.82104338905686" lon="16.29875039661066"><ele>233.85714285714286</ele><time>2026-04-19T08:00:22.999Z</time></trkpt><trkpt lat="38.82103528939035" lon="16.29866413563443"><ele>233.14285714285714</ele><time>2026-04-19T08:00:44.999Z</time></trkpt><trkpt lat="38.82097638980273" lon="16.29861639852834"><ele>232.42857142857144</ele><time>2026-04-19T08:00:48.999Z</time></trkpt><trkpt lat="38.820914829344936" lon="16.298572621690752"><ele>231.71428571428572</ele><time>2026-04-19T08:00:50.999Z</time></trkpt><trkpt lat="38.820843643335195" lon="16.298533732046998"><ele>231.0</ele><time>2026-04-19T08:00:52.999Z</time></trkpt><trkpt lat="38.820767610730606" lon="16.298471609631783"><ele>238.4</ele><time>2026-04-19T08:00:54.999Z</time></trkpt><trkpt lat="38.820700167669784" lon="16.298387067676586"><ele>245.8</ele><time>2026-04-19T08:00:56.999Z</time></trkpt><trkpt lat="38.820650892665746" lon="16.298281732096775"><ele>253.20000000000002</ele><time>2026-04-19T08:00:58.999Z</time></trkpt><trkpt lat="38.820584305944756" lon="16.298231280312983"><ele>260.6</ele><time>2026-04-19T08:01:00.999Z</time></trkpt><trkpt lat="38.820482105850836" lon="16.298240304258066"><ele>268.0</ele><time>2026-04-19T08:01:02.999Z</time></trkpt><trkpt lat="38.82037081588678" lon="16.29825354186066"><ele>268.0</ele><time>2026-04-19T08:01:04.999Z</time></trkpt><trkpt lat="38.82026361628745" lon="16.298249640570592"><ele>268.0</ele><time>2026-04-19T08:01:06.999Z</time></trkpt><trkpt lat="38.82015203445311" lon="16.298262438359988"><ele>268.0</ele><time>2026-04-19T08:01:08.999Z</time></trkpt><trkpt lat="38.82003443765403" lon="16.298259533264872"><ele>268.0</ele><time>2026-04-19T08:01:10.999Z</time></trkpt><trkpt lat="38.81992435652019" lon="16.29821459735776"><ele>272.4</ele><time>2026-04-19T08:01:12.999Z</time></trkpt><trkpt lat="38.81983249337325" lon="16.29821968212617"><ele>276.8</ele><time>2026-04-19T08:01:14.999Z</time></trkpt><trkpt lat="38.81975621823835" lon="16.298207807884104"><ele>281.2</ele><time>2026-04-19T08:01:16.999Z</time></trkpt><trkpt lat="38.81966535400929" lon="16.298232615654328"><ele>285.6</ele><time>2026-04-19T08:01:18.999Z</time></trkpt><trkpt lat="38.81956021720798" lon="16.298279790899674"><ele>290.0</ele><time>2026-04-19T08:01:20.999Z</time></trkpt><trkpt lat="38.81944963779061" lon="16.29833087888304"><ele>290.0</ele><time>2026-04-19T08:01:22.999Z</time></trkpt><trkpt lat="38.81935948166997" lon="16.298381784551392"><ele>290.0</ele><time>2026-04-19T08:01:24.999Z</time></trkpt><trkpt lat="38.81927038276982" lon="16.29842837175373"><ele>290.0</ele><time>2026-04-19T08:01:26.999Z</time></trkpt><trkpt lat="38.81919264849632" lon="16.29847730492335"><ele>290.0</ele><time>2026-04-19T08:01:28.999Z</time></trkpt><trkpt lat="38.81910887231641" lon="16.29849543154289"><ele>290.0</ele><time>2026-04-19T08:01:30.999Z</time></trkpt><trkpt lat="38.8190299114786" lon="16.2984856476272"><ele>290.0</ele><time>2026-04-19T08:01:32.999Z</time></trkpt><trkpt lat="38.81895236740817" lon="16.29850165644348"><ele>292.5</ele><time>2026-04-19T08:01:34.999Z</time></trkpt><trkpt lat="38.8188735836349" lon="16.298538315512314"><ele>295.0</ele><time>2026-04-19T08:01:36.999Z</time></trkpt><trkpt lat="38.81879986142314" lon="16.298555948748557"><ele>297.5</ele><time>2026-04-19T08:01:38.999Z</time></trkpt><trkpt lat="38.818739503499195" lon="16.298614937641826"><ele>300.0</ele><time>2026-04-19T08:01:40.999Z</time></trkpt><trkpt lat="38.81868156774598" lon="16.298694484901823"><ele>302.5</ele><time>2026-04-19T08:01:42.999Z</time></trkpt><trkpt lat="38.81862409422022" lon="16.298760629467978"><ele>305.0</ele><time>2026-04-19T08:01:44.999Z</time></trkpt><trkpt lat="38.818566253604786" lon="16.298801629429512"><ele>305.0</ele><time>2026-04-19T08:01:46.999Z</time></trkpt><trkpt lat="38.81851618407536" lon="16.298854822542328"><ele>305.0</ele><time>2026-04-19T08:01:48.999Z</time></trkpt><trkpt lat="38.818472115819155" lon="16.298912942297818"><ele>305.0</ele><time>2026-04-19T08:01:50.999Z</time></trkpt><trkpt lat="38.818423613242224" lon="16.298977885063863"><ele>305.0</ele><time>2026-04-19T08:01:52.999Z</time></trkpt><trkpt lat="38.81834178428227" lon="16.29905107121284"><ele>305.0</ele><time>2026-04-19T08:01:54.999Z</time></trkpt><trkpt lat="38.81827724314743" lon="16.29914809059024"><ele>305.0</ele><time>2026-04-19T08:01:56.999Z</time></trkpt><trkpt lat="38.81823422866652" lon="16.2992581737649"><ele>309.6666666666667</ele><time>2026-04-19T08:01:58.999Z</time></trkpt><trkpt lat="38.81819326960391" lon="16.299348486407492"><ele>314.33333333333337</ele><time>2026-04-19T08:02:00.999Z</time></trkpt><trkpt lat="38.81814576453042" lon="16.2994067196049"><ele>319.0</ele><time>2026-04-19T08:02:02.999Z</time></trkpt><trkpt lat="38.81807310734739" lon="16.299440936971873"><ele>323.6666666666667</ele><time>2026-04-19T08:02:04.999Z</time></trkpt><trkpt lat="38.81798152271069" lon="16.299504234108962"><ele>328.3333333333333</ele><time>2026-04-19T08:02:06.999Z</time></trkpt><trkpt lat="38.81790919762289" lon="16.299597486953548"><ele>333.0</ele><time>2026-04-19T08:02:08.999Z</time></trkpt><trkpt lat="38.817849710035865" lon="16.299728417771192"><ele>335.8333333333333</ele><time>2026-04-19T08:02:10.999Z</time></trkpt><trkpt lat="38.81782477017915" lon="16.299805240745442"><ele>338.6666666666667</ele><time>2026-04-19T08:02:11.999Z</time></trkpt><trkpt lat="38.817794767683594" lon="16.29990428323401"><ele>341.5</ele><time>2026-04-19T08:02:13.999Z</time></trkpt><trkpt lat="38.817747573223116" lon="16.300008122805476"><ele>344.33333333333337</ele><time>2026-04-19T08:02:15.999Z</time></trkpt><trkpt lat="38.81767532441579" lon="16.300079772131266"><ele>347.1666666666667</ele><time>2026-04-19T08:02:17.999Z</time></trkpt><trkpt lat="38.817611816034116" lon="16.300165598399907"><ele>350.0</ele><time>2026-04-19T08:02:19.999Z</time></trkpt><trkpt lat="38.81759284173957" lon="16.30028189094446"><ele>350.0</ele><time>2026-04-19T08:02:21.999Z</time></trkpt><trkpt lat="38.817624749254094" lon="16.300371217318432"><ele>350.0</ele><time>2026-04-19T08:02:23.999Z</time></trkpt><trkpt lat="38.81766298841871" lon="16.300470818907723"><ele>350.0</ele><time>2026-04-19T08:02:25.999Z</time></trkpt><trkpt lat="38.81768204324894" lon="16.300572342837373"><ele>350.0</ele><time>2026-04-19T08:02:27.999Z</time></trkpt><trkpt lat="38.81768619991653" lon="16.30070014909691"><ele>350.0</ele><time>2026-04-19T08:02:29.999Z</time></trkpt><trkpt lat="38.81770554996621" lon="16.300782453851138"><ele>350.0</ele><time>2026-04-19T08:02:30.999Z</time></trkpt><trkpt lat="38.817732931668786" lon="16.300866496984412"><ele>351.4</ele><time>2026-04-19T08:02:31.999Z</time></trkpt><trkpt lat="38.81778998090269" lon="16.300996286010783"><ele>352.8</ele><time>2026-04-19T08:02:33.999Z</time></trkpt><trkpt lat="38.81779409461235" lon="16.30116318000239"><ele>354.20000000000005</ele><time>2026-04-19T08:02:35.999Z</time></trkpt><trkpt lat="38.81778581740647" lon="16.301247095834782"><ele>355.6</ele><time>2026-04-19T08:02:36.999Z</time></trkpt><trkpt lat="38.817773183765716" lon="16.301381919405646"><ele>357.0</ele><time>2026-04-19T08:02:38.999Z</time></trkpt><trkpt lat="38.8177798049425" lon="16.301524186977527"><ele>359.0</ele><time>2026-04-19T08:02:40.999Z</time></trkpt><trkpt lat="38.81780054195957" lon="16.3016712741277"><ele>361.0</ele><time>2026-04-19T08:02:42.999Z</time></trkpt><trkpt lat="38.81782123718726" lon="16.301820143911918"><ele>363.0</ele><time>2026-04-19T08:02:44.999Z</time></trkpt><trkpt lat="38.81784725504549" lon="16.301906598343226"><ele>365.0</ele><time>2026-04-19T08:02:45.999Z</time></trkpt><trkpt lat="38.81787152758248" lon="16.302006843870842"><ele>367.0</ele><time>2026-04-19T08:02:46.999Z</time></trkpt><trkpt lat="38.81789305439278" lon="16.302100336273057"><ele>367.0</ele><time>2026-04-19T08:02:47.999Z</time></trkpt><trkpt lat="38.817915339386985" lon="16.302194670689392"><ele>367.0</ele><time>2026-04-19T08:02:48.999Z</time></trkpt><trkpt lat="38.81792953187839" lon="16.302276456745897"><ele>367.0</ele><time>2026-04-19T08:02:49.999Z</time></trkpt><trkpt lat="38.817940146987766" lon="16.30243138565959"><ele>367.0</ele><time>2026-04-19T08:02:51.999Z</time></trkpt><trkpt lat="38.81792957302425" lon="16.302517270002348"><ele>367.0</ele><time>2026-04-19T08:02:52.999Z</time></trkpt><trkpt lat="38.81791092810891" lon="16.302610039815434"><ele>367.0</ele><time>2026-04-19T08:02:53.999Z</time></trkpt><trkpt lat="38.817891924617676" lon="16.302716067912577"><ele>367.8333333333333</ele><time>2026-04-19T08:02:54.999Z</time></trkpt><trkpt lat="38.81786116094925" lon="16.30279857117932"><ele>368.66666666666663</ele><time>2026-04-19T08:02:55.999Z</time></trkpt><trkpt lat="38.81781038177017" lon="16.302878247172803"><ele>369.5</ele><time>2026-04-19T08:02:56.999Z</time></trkpt><trkpt lat="38.8177574021834" lon="16.30294980327481"><ele>370.3333333333333</ele><time>2026-04-19T08:02:57.999Z</time></trkpt><trkpt lat="38.817699886600195" lon="16.303015920652236"><ele>371.1666666666667</ele><time>2026-04-19T08:02:58.999Z</time></trkpt><trkpt lat="38.817633727035556" lon="16.30307543113962"><ele>372.0</ele><time>2026-04-19T08:02:59.999Z</time></trkpt><trkpt lat="38.81755179883069" lon="16.30319230322256"><ele>379.6666666666667</ele><time>2026-04-19T08:03:01.999Z</time></trkpt><trkpt lat="38.81750376726032" lon="16.303286497969136"><ele>387.33333333333337</ele><time>2026-04-19T08:03:03.999Z</time></trkpt><trkpt lat="38.81748380528389" lon="16.30337006176335"><ele>395.0</ele><time>2026-04-19T08:03:07.999Z</time></trkpt><trkpt lat="38.817464086655264" lon="16.30347620117621"><ele>402.6666666666667</ele><time>2026-04-19T08:03:10.999Z</time></trkpt><trkpt lat="38.81744714582463" lon="16.303600968656028"><ele>410.33333333333337</ele><time>2026-04-19T08:03:12.999Z</time></trkpt><trkpt lat="38.81741354530672" lon="16.303687055059346"><ele>418.0</ele><time>2026-04-19T08:03:14.999Z</time></trkpt><trkpt lat="38.81733155438999" lon="16.303671544254794"><ele>418.0</ele><time>2026-04-19T08:03:17.999Z</time></trkpt><trkpt lat="38.817288198139174" lon="16.30358481284874"><ele>418.0</ele><time>2026-04-19T08:03:21.999Z</time></trkpt><trkpt lat="38.81727427720086" lon="16.303494777421154"><ele>418.0</ele><time>2026-04-19T08:03:23.999Z</time></trkpt><trkpt lat="38.81725158237821" lon="16.303345683532832"><ele>418.0</ele><time>2026-04-19T08:03:25.999Z</time></trkpt><trkpt lat="38.817275890841394" lon="16.303200883171467"><ele>418.0</ele><time>2026-04-19T08:03:27.999Z</time></trkpt><trkpt lat="38.81729031874522" lon="16.30311983028132"><ele>417.6666666666667</ele><time>2026-04-19T08:03:28.999Z</time></trkpt><trkpt lat="38.81730761610259" lon="16.30303143310063"><ele>417.33333333333337</ele><time>2026-04-19T08:03:29.999Z</time></trkpt><trkpt lat="38.817327204105695" lon="16.302942679351244"><ele>417.0</ele><time>2026-04-19T08:03:30.999Z</time></trkpt><trkpt lat="38.81735741462031" lon="16.302803063771865"><ele>416.66666666666663</ele><time>2026-04-19T08:03:32.999Z</time></trkpt><trkpt lat="38.817311826398786" lon="16.302725649554223"><ele>416.3333333333333</ele><time>2026-04-19T08:03:34.999Z</time></trkpt><trkpt lat="38.81722417793295" lon="16.302752475808873"><ele>416.0</ele><time>2026-04-19T08:03:36.999Z</time></trkpt><trkpt lat="38.81715282346345" lon="16.30272000797593"><ele>415.99999999999994</ele><time>2026-04-19T08:03:38.999Z</time></trkpt><trkpt lat="38.81707777547805" lon="16.302670322387456"><ele>416.0</ele><time>2026-04-19T08:03:40.999Z</time></trkpt><trkpt lat="38.81698582617995" lon="16.302618581668586"><ele>416.0</ele><time>2026-04-19T08:03:42.999Z</time></trkpt><trkpt lat="38.8169328726352" lon="16.30257326027659"><ele>416.0</ele><time>2026-04-19T08:03:43.999Z</time></trkpt><trkpt lat="38.816883211122914" lon="16.302510517959075"><ele>415.99999999999994</ele><time>2026-04-19T08:03:44.999Z</time></trkpt><trkpt lat="38.816828422297235" lon="16.302461990424376"><ele>416.0</ele><time>2026-04-19T08:03:45.999Z</time></trkpt><trkpt lat="38.81672860611292" lon="16.30242944444533"><ele>419.66666666666663</ele><time>2026-04-19T08:03:47.999Z</time></trkpt><trkpt lat="38.81664846017878" lon="16.302451365524178"><ele>423.3333333333333</ele><time>2026-04-19T08:03:49.999Z</time></trkpt><trkpt lat="38.81660642611454" lon="16.302527327926693"><ele>427.0</ele><time>2026-04-19T08:03:51.999Z</time></trkpt><trkpt lat="38.81658336980233" lon="16.302630839277384"><ele>430.66666666666663</ele><time>2026-04-19T08:03:53.999Z</time></trkpt><trkpt lat="38.8165570360755" lon="16.30271267220914"><ele>434.3333333333333</ele><time>2026-04-19T08:03:55.999Z</time></trkpt><trkpt lat="38.81653444898855" lon="16.302835327049763"><ele>438.0</ele><time>2026-04-19T08:03:57.999Z</time></trkpt><trkpt lat="38.81649747020099" lon="16.302953229064954"><ele>438.0</ele><time>2026-04-19T08:03:59.999Z</time></trkpt><trkpt lat="38.81640794535048" lon="16.303074503416738"><ele>437.99999999999994</ele><time>2026-04-19T08:04:01.999Z</time></trkpt><trkpt lat="38.816353228528044" lon="16.30313481871388"><ele>437.99999999999994</ele><time>2026-04-19T08:04:02.999Z</time></trkpt><trkpt lat="38.81629477104488" lon="16.30318682310713"><ele>438.0</ele><time>2026-04-19T08:04:03.999Z</time></trkpt><trkpt lat="38.816211831533536" lon="16.303283283952318"><ele>438.0</ele><time>2026-04-19T08:04:05.999Z</time></trkpt><trkpt lat="38.81615790330322" lon="16.303406000791878"><ele>440.0</ele><time>2026-04-19T08:04:07.999Z</time></trkpt><trkpt lat="38.81612575267101" lon="16.30348224463023"><ele>442.0</ele><time>2026-04-19T08:04:08.999Z</time></trkpt><trkpt lat="38.81608141588622" lon="16.303550104654892"><ele>444.0</ele><time>2026-04-19T08:04:09.999Z</time></trkpt><trkpt lat="38.81603542960116" lon="16.303619852977707"><ele>446.0</ele><time>2026-04-19T08:04:10.999Z</time></trkpt><trkpt lat="38.81598479299032" lon="16.303699834351917"><ele>448.0</ele><time>2026-04-19T08:04:11.999Z</time></trkpt><trkpt lat="38.815935256852704" lon="16.3037824676161"><ele>450.0</ele><time>2026-04-19T08:04:12.999Z</time></trkpt><trkpt lat="38.815891584280024" lon="16.303850448403477"><ele>452.0</ele><time>2026-04-19T08:04:13.999Z</time></trkpt><trkpt lat="38.81579529000297" lon="16.303965603057275"><ele>454.8333333333333</ele><time>2026-04-19T08:04:15.999Z</time></trkpt><trkpt lat="38.81576793298958" lon="16.304038872073715"><ele>457.66666666666663</ele><time>2026-04-19T08:04:16.999Z</time></trkpt><trkpt lat="38.815743843044665" lon="16.304123146657048"><ele>460.5</ele><time>2026-04-19T08:04:19.999Z</time></trkpt><trkpt lat="38.815721991000224" lon="16.304224392103453"><ele>463.33333333333337</ele><time>2026-04-19T08:04:22.999Z</time></trkpt><trkpt lat="38.81564586936424" lon="16.30430516805351"><ele>466.1666666666667</ele><time>2026-04-19T08:04:29.999Z</time></trkpt><trkpt lat="38.81558651892281" lon="16.304349513872207"><ele>469.0</ele><time>2026-04-19T08:04:31.999Z</time></trkpt><trkpt lat="38.81553639785961" lon="16.30443370435425"><ele>469.00000000000006</ele><time>2026-04-19T08:04:33.999Z</time></trkpt><trkpt lat="38.81546270094902" lon="16.304544007417476"><ele>469.0</ele><time>2026-04-19T08:04:35.999Z</time></trkpt><trkpt lat="38.81541139266098" lon="16.304601387216817"><ele>469.0</ele><time>2026-04-19T08:04:36.999Z</time></trkpt><trkpt lat="38.81535758929214" lon="16.304664297112"><ele>469.0</ele><time>2026-04-19T08:04:37.999Z</time></trkpt><trkpt lat="38.81530155606425" lon="16.30472709947953"><ele>469.00000000000006</ele><time>2026-04-19T08:04:38.999Z</time></trkpt><trkpt lat="38.815248257732215" lon="16.304788754138055"><ele>469.0</ele><time>2026-04-19T08:04:39.999Z</time></trkpt><trkpt lat="38.81518766150357" lon="16.30488394644114"><ele>471.2</ele><time>2026-04-19T08:04:41.999Z</time></trkpt><trkpt lat="38.81514744905102" lon="16.304997689349605"><ele>473.4</ele><time>2026-04-19T08:04:44.001Z</time></trkpt><trkpt lat="38.81510194462387" lon="16.305152411330862"><ele>475.6</ele><time>2026-04-19T08:04:46.001Z</time></trkpt><trkpt lat="38.8150881868187" lon="16.305232848537116"><ele>477.8</ele><time>2026-04-19T08:04:47.001Z</time></trkpt><trkpt lat="38.81508331180626" lon="16.305340490421845"><ele>480.0</ele><time>2026-04-19T08:04:48.001Z</time></trkpt><trkpt lat="38.81507119780082" lon="16.305445344551543"><ele>480.0</ele><time>2026-04-19T08:04:49.001Z</time></trkpt><trkpt lat="38.81505482138709" lon="16.305527067405418"><ele>480.0</ele><time>2026-04-19T08:04:50.001Z</time></trkpt><trkpt lat="38.81502928138173" lon="16.305604932494404"><ele>480.0</ele><time>2026-04-19T08:04:51.001Z</time></trkpt><trkpt lat="38.81501768199963" lon="16.305737331433132"><ele>480.0</ele><time>2026-04-19T08:04:53.001Z</time></trkpt><trkpt lat="38.815046418865094" lon="16.305888774589878"><ele>480.0</ele><time>2026-04-19T08:04:55.001Z</time></trkpt><trkpt lat="38.81505615955099" lon="16.305995377921683"><ele>480.0</ele><time>2026-04-19T08:04:56.001Z</time></trkpt><trkpt lat="38.81504397883863" lon="16.306106637970466"><ele>481.8</ele><time>2026-04-19T08:04:57.001Z</time></trkpt><trkpt lat="38.81502694395517" lon="16.306200469874486"><ele>483.6</ele><time>2026-04-19T08:04:58.001Z</time></trkpt><trkpt lat="38.81498833989422" lon="16.306301692112385"><ele>485.4</ele><time>2026-04-19T08:04:59.001Z</time></trkpt><trkpt lat="38.81495510951715" lon="16.30638390626812"><ele>487.2</ele><time>2026-04-19T08:05:00.001Z</time></trkpt><trkpt lat="38.81490286204991" lon="16.30649363556526"><ele>489.0</ele><time>2026-04-19T08:05:02.001Z</time></trkpt><trkpt lat="38.81482420617401" lon="16.306611845208433"><ele>489.1666666666667</ele><time>2026-04-19T08:05:04.001Z</time></trkpt><trkpt lat="38.81476501909091" lon="16.3067284180794"><ele>489.33333333333337</ele><time>2026-04-19T08:05:06.001Z</time></trkpt><trkpt lat="38.81472361227517" lon="16.30679633905515"><ele>489.5</ele><time>2026-04-19T08:05:07.001Z</time></trkpt><trkpt lat="38.81468063867575" lon="16.306866249683882"><ele>489.6666666666667</ele><time>2026-04-19T08:05:08Z</time></trkpt><trkpt lat="38.81462465759141" lon="16.306926736181804"><ele>489.83333333333337</ele><time>2026-04-19T08:05:09Z</time></trkpt><trkpt lat="38.81458174408729" lon="16.306992500289997"><ele>490.0</ele><time>2026-04-19T08:05:10Z</time></trkpt><trkpt lat="38.814537386811224" lon="16.30705539793029"><ele>490.00000000000006</ele><time>2026-04-19T08:05:11Z</time></trkpt><trkpt lat="38.81449270405832" lon="16.307125389270144"><ele>490.0</ele><time>2026-04-19T08:05:12Z</time></trkpt><trkpt lat="38.814451520701354" lon="16.30718927931409"><ele>490.0</ele><time>2026-04-19T08:05:13Z</time></trkpt><trkpt lat="38.81439574282035" lon="16.30724013206345"><ele>490.0</ele><time>2026-04-19T08:05:14Z</time></trkpt><trkpt lat="38.814333681808804" lon="16.30729696514425"><ele>490.00000000000006</ele><time>2026-04-19T08:05:15Z</time></trkpt><trkpt lat="38.81427858196768" lon="16.307347849763307"><ele>490.0</ele><time>2026-04-19T08:05:16Z</time></trkpt><trkpt lat="38.81418154434194" lon="16.30742632365454"><ele>493.00000000000006</ele><time>2026-04-19T08:05:18Z</time></trkpt><trkpt lat="38.814095765088695" lon="16.30753161548575"><ele>496.0</ele><time>2026-04-19T08:05:20Z</time></trkpt><trkpt lat="38.81406207176493" lon="16.307606450669073"><ele>499.0</ele><time>2026-04-19T08:05:21Z</time></trkpt><trkpt lat="38.8140212902252" lon="16.307703950221388"><ele>502.0</ele><time>2026-04-19T08:05:22Z</time></trkpt><trkpt lat="38.81397118578897" lon="16.30778895463347"><ele>505.00000000000006</ele><time>2026-04-19T08:05:23Z</time></trkpt><trkpt lat="38.81392137617967" lon="16.30787687462337"><ele>508.0</ele><time>2026-04-19T08:05:24Z</time></trkpt><trkpt lat="38.813870733312925" lon="16.307968799581044"><ele>508.00000000000006</ele><time>2026-04-19T08:05:25Z</time></trkpt><trkpt lat="38.81380679873862" lon="16.308038397371018"><ele>508.0</ele><time>2026-04-19T08:05:26Z</time></trkpt><trkpt lat="38.81373743849207" lon="16.308102903799615"><ele>508.0</ele><time>2026-04-19T08:05:27Z</time></trkpt><trkpt lat="38.81368319672763" lon="16.308164769407057"><ele>508.0</ele><time>2026-04-19T08:05:28Z</time></trkpt><trkpt lat="38.8136231556506" lon="16.308231977226548"><ele>508.00000000000006</ele><time>2026-04-19T08:05:29Z</time></trkpt><trkpt lat="38.81357869296749" lon="16.30830602743156"><ele>508.0</ele><time>2026-04-19T08:05:30Z</time></trkpt><trkpt lat="38.81353013082525" lon="16.30837757032404"><ele>509.33333333333337</ele><time>2026-04-19T08:05:31Z</time></trkpt><trkpt lat="38.813462223062736" lon="16.30845417418899"><ele>510.6666666666667</ele><time>2026-04-19T08:05:32Z</time></trkpt><trkpt lat="38.813390503309314" lon="16.30853542464523"><ele>512.0</ele><time>2026-04-19T08:05:33Z</time></trkpt><trkpt lat="38.81332207181958" lon="16.308607144634298"><ele>513.3333333333334</ele><time>2026-04-19T08:05:34Z</time></trkpt><trkpt lat="38.81326121078589" lon="16.308667021212045"><ele>514.6666666666666</ele><time>2026-04-19T08:05:35Z</time></trkpt><trkpt lat="38.81320346747683" lon="16.30871817787004"><ele>516.0</ele><time>2026-04-19T08:05:36Z</time></trkpt><trkpt lat="38.81313884367282" lon="16.308774850080425"><ele>516.0</ele><time>2026-04-19T08:05:37Z</time></trkpt><trkpt lat="38.81307348484134" lon="16.308837758748183"><ele>516.0</ele><time>2026-04-19T08:05:38Z</time></trkpt><trkpt lat="38.81299607182884" lon="16.30890434406151"><ele>516.0</ele><time>2026-04-19T08:05:39Z</time></trkpt><trkpt lat="38.81291354599415" lon="16.308984692945817"><ele>516.0</ele><time>2026-04-19T08:05:40Z</time></trkpt><trkpt lat="38.812835408748526" lon="16.30905589470068"><ele>516.0</ele><time>2026-04-19T08:05:41Z</time></trkpt><trkpt lat="38.812764679783925" lon="16.309122063702482"><ele>515.3333333333334</ele><time>2026-04-19T08:05:42Z</time></trkpt><trkpt lat="38.812695726568904" lon="16.30918563913864"><ele>514.6666666666666</ele><time>2026-04-19T08:05:43Z</time></trkpt><trkpt lat="38.812623163826736" lon="16.309241147484773"><ele>514.0</ele><time>2026-04-19T08:05:44Z</time></trkpt><trkpt lat="38.812557004830005" lon="16.309300581870414"><ele>513.3333333333333</ele><time>2026-04-19T08:05:45Z</time></trkpt><trkpt lat="38.81248881767981" lon="16.309361140065956"><ele>512.6666666666666</ele><time>2026-04-19T08:05:46Z</time></trkpt><trkpt lat="38.8124206390456" lon="16.30943832150649"><ele>512.0</ele><time>2026-04-19T08:05:47Z</time></trkpt><trkpt lat="38.81234124667153" lon="16.309501731843213"><ele>513.2857142857142</ele><time>2026-04-19T08:05:48Z</time></trkpt><trkpt lat="38.8122536703682" lon="16.309543040920133"><ele>514.5714285714286</ele><time>2026-04-19T08:05:49Z</time></trkpt><trkpt lat="38.81219437220798" lon="16.309605314274418"><ele>515.8571428571429</ele><time>2026-04-19T08:05:50Z</time></trkpt><trkpt lat="38.812125635401664" lon="16.309636837930118"><ele>517.1428571428571</ele><time>2026-04-19T08:05:51Z</time></trkpt><trkpt lat="38.81205857905674" lon="16.30966844418077"><ele>518.4285714285714</ele><time>2026-04-19T08:05:52Z</time></trkpt><trkpt lat="38.81199083046546" lon="16.309685171989244"><ele>519.7142857142857</ele><time>2026-04-19T08:05:53Z</time></trkpt><trkpt lat="38.811927358378156" lon="16.30969236559133"><ele>521.0</ele><time>2026-04-19T08:05:54Z</time></trkpt><trkpt lat="38.811808061902546" lon="16.309712319209453"><ele>522.3333333333333</ele><time>2026-04-19T08:05:56Z</time></trkpt><trkpt lat="38.811744941556405" lon="16.309743930852424"><ele>523.6666666666666</ele><time>2026-04-19T08:05:57Z</time></trkpt><trkpt lat="38.811678616694415" lon="16.309780129812435"><ele>525.0</ele><time>2026-04-19T08:05:58Z</time></trkpt><trkpt lat="38.811599216087814" lon="16.309819393412813"><ele>526.3333333333334</ele><time>2026-04-19T08:05:59Z</time></trkpt><trkpt lat="38.81151560078643" lon="16.309856500092557"><ele>527.6666666666667</ele><time>2026-04-19T08:06:00Z</time></trkpt><trkpt lat="38.81142799309482" lon="16.309900948389103"><ele>529.0</ele><time>2026-04-19T08:06:01Z</time></trkpt><trkpt lat="38.81133801697722" lon="16.309966813207502"><ele>529.0</ele><time>2026-04-19T08:06:02Z</time></trkpt><trkpt lat="38.811258516217706" lon="16.31003653390616"><ele>529.0</ele><time>2026-04-19T08:06:03Z</time></trkpt><trkpt lat="38.811178502995055" lon="16.310095323418246"><ele>529.0</ele><time>2026-04-19T08:06:04Z</time></trkpt><trkpt lat="38.81110418952346" lon="16.31019120417924"><ele>529.0</ele><time>2026-04-19T08:06:05Z</time></trkpt><trkpt lat="38.811034589931666" lon="16.310327001827762"><ele>529.0</ele><time>2026-04-19T08:06:06Z</time></trkpt><trkpt lat="38.81096031415259" lon="16.31047580596737"><ele>530.5</ele><time>2026-04-19T08:06:07Z</time></trkpt><trkpt lat="38.81088338973735" lon="16.31062497126784"><ele>532.0</ele><time>2026-04-19T08:06:08Z</time></trkpt><trkpt lat="38.810820833380276" lon="16.310788527945384"><ele>533.5</ele><time>2026-04-19T08:06:09Z</time></trkpt><trkpt lat="38.81074571191571" lon="16.31093623331889"><ele>535.0</ele><time>2026-04-19T08:06:10Z</time></trkpt><trkpt lat="38.8106646382363" lon="16.31106065465131"><ele>535.0</ele><time>2026-04-19T08:06:11Z</time></trkpt><trkpt lat="38.81060228683706" lon="16.31118922248075"><ele>535.0</ele><time>2026-04-19T08:06:12Z</time></trkpt><trkpt lat="38.81055324374182" lon="16.311331330093108"><ele>535.0</ele><time>2026-04-19T08:06:13Z</time></trkpt><trkpt lat="38.810497360085215" lon="16.31145403031936"><ele>535.0</ele><time>2026-04-19T08:06:14Z</time></trkpt><trkpt lat="38.81042994562005" lon="16.311539942671455"><ele>535.0</ele><time>2026-04-19T08:06:15Z</time></trkpt><trkpt lat="38.810362981945794" lon="16.311620075206296"><ele>536.6</ele><time>2026-04-19T08:06:16Z</time></trkpt><trkpt lat="38.8102951348533" lon="16.31169412159721"><ele>538.2</ele><time>2026-04-19T08:06:17Z</time></trkpt><trkpt lat="38.81024175705375" lon="16.311777370472626"><ele>539.8</ele><time>2026-04-19T08:06:18Z</time></trkpt><trkpt lat="38.810199628674084" lon="16.311886959132483"><ele>541.4</ele><time>2026-04-19T08:06:19Z</time></trkpt><trkpt lat="38.81017367575864" lon="16.312023442928382"><ele>543.0</ele><time>2026-04-19T08:06:20Z</time></trkpt><trkpt lat="38.810158500901444" lon="16.31218242724673"><ele>545.5</ele><time>2026-04-19T08:06:21Z</time></trkpt><trkpt lat="38.81013665816295" lon="16.31234100709125"><ele>548.0</ele><time>2026-04-19T08:06:22Z</time></trkpt><trkpt lat="38.81010333114105" lon="16.312492480771787"><ele>550.5</ele><time>2026-04-19T08:06:23Z</time></trkpt><trkpt lat="38.81006169448718" lon="16.31264356666483"><ele>553.0</ele><time>2026-04-19T08:06:24Z</time></trkpt><trkpt lat="38.81001666490837" lon="16.312789437726643"><ele>553.0</ele><time>2026-04-19T08:06:25Z</time></trkpt><trkpt lat="38.80996769328828" lon="16.312934096651638"><ele>553.0</ele><time>2026-04-19T08:06:26Z</time></trkpt><trkpt lat="38.809915356647764" lon="16.313082601461254"><ele>553.0</ele><time>2026-04-19T08:06:27Z</time></trkpt><trkpt lat="38.809842461406475" lon="16.313230798272958"><ele>553.0</ele><time>2026-04-19T08:06:28Z</time></trkpt><trkpt lat="38.80976618272212" lon="16.3133824924027"><ele>554.75</ele><time>2026-04-19T08:06:29Z</time></trkpt><trkpt lat="38.809690006205344" lon="16.31352656180848"><ele>556.5</ele><time>2026-04-19T08:06:30Z</time></trkpt><trkpt lat="38.809612250747385" lon="16.313665699726855"><ele>558.25</ele><time>2026-04-19T08:06:31Z</time></trkpt><trkpt lat="38.80954305909663" lon="16.313788306472258"><ele>560.0</ele><time>2026-04-19T08:06:32Z</time></trkpt><trkpt lat="38.80948756209133" lon="16.31390756868753"><ele>562.25</ele><time>2026-04-19T08:06:33Z</time></trkpt><trkpt lat="38.809426795488235" lon="16.314031861428617"><ele>564.5</ele><time>2026-04-19T08:06:34Z</time></trkpt><trkpt lat="38.809355443350356" lon="16.314174119683855"><ele>566.75</ele><time>2026-04-19T08:06:35Z</time></trkpt><trkpt lat="38.80926675738323" lon="16.31433278697168"><ele>569.0</ele><time>2026-04-19T08:06:36Z</time></trkpt><trkpt lat="38.809170114343175" lon="16.31450320927579"><ele>569.3333333333333</ele><time>2026-04-19T08:06:37Z</time></trkpt><trkpt lat="38.80905132168716" lon="16.314659578883482"><ele>569.6666666666666</ele><time>2026-04-19T08:06:38Z</time></trkpt><trkpt lat="38.8089459315692" lon="16.314826841890998"><ele>570.0</ele><time>2026-04-19T08:06:39Z</time></trkpt><trkpt lat="38.80884061958689" lon="16.314993982853203"><ele>570.6666666666666</ele><time>2026-04-19T08:06:40Z</time></trkpt><trkpt lat="38.80875188739999" lon="16.315182253485762"><ele>571.3333333333333</ele><time>2026-04-19T08:06:41Z</time></trkpt><trkpt lat="38.80863384588422" lon="16.315349998617155"><ele>572.0</ele><time>2026-04-19T08:06:42Z</time></trkpt><trkpt lat="38.808506897153" lon="16.31552295005528"><ele>574.0</ele><time>2026-04-19T08:06:43Z</time></trkpt><trkpt lat="38.80837120433642" lon="16.315708288308212"><ele>576.0</ele><time>2026-04-19T08:06:44Z</time></trkpt><trkpt lat="38.808235075180484" lon="16.315895165717286"><ele>578.0</ele><time>2026-04-19T08:06:45Z</time></trkpt><trkpt lat="38.808129513730336" lon="16.31609344258879"><ele>578.0</ele><time>2026-04-19T08:06:46Z</time></trkpt><trkpt lat="38.80803064998085" lon="16.316257525909865"><ele>578.0</ele><time>2026-04-19T08:06:47Z</time></trkpt><trkpt lat="38.807920799723895" lon="16.316423500308993"><ele>578.0</ele><time>2026-04-19T08:06:48Z</time></trkpt><trkpt lat="38.8078174969654" lon="16.316590775308725"><ele>579.6666666666666</ele><time>2026-04-19T08:06:49Z</time></trkpt><trkpt lat="38.807733125468836" lon="16.316770844957983"><ele>581.3333333333334</ele><time>2026-04-19T08:06:50Z</time></trkpt><trkpt lat="38.80763698479235" lon="16.3169312583903"><ele>583.0</ele><time>2026-04-19T08:06:51Z</time></trkpt><trkpt lat="38.8075480179814" lon="16.317058568663576"><ele>584.4</ele><time>2026-04-19T08:06:52Z</time></trkpt><trkpt lat="38.80746741692322" lon="16.317163558007515"><ele>585.8</ele><time>2026-04-19T08:06:53Z</time></trkpt><trkpt lat="38.807396664479086" lon="16.317253145729662"><ele>587.2</ele><time>2026-04-19T08:06:54Z</time></trkpt><trkpt lat="38.80732563872001" lon="16.31734698455374"><ele>588.6</ele><time>2026-04-19T08:06:55Z</time></trkpt><trkpt lat="38.807249614966146" lon="16.317472200508657"><ele>590.0</ele><time>2026-04-19T08:06:56Z</time></trkpt><trkpt lat="38.80714688245227" lon="16.317612956695157"><ele>590.75</ele><time>2026-04-19T08:06:57Z</time></trkpt><trkpt lat="38.80703751225076" lon="16.317746143947318"><ele>591.5</ele><time>2026-04-19T08:06:58Z</time></trkpt><trkpt lat="38.80694656638431" lon="16.317843541479274"><ele>592.25</ele><time>2026-04-19T08:06:59Z</time></trkpt><trkpt lat="38.80686509896314" lon="16.31792080994234"><ele>593.0</ele><time>2026-04-19T08:07:00Z</time></trkpt><trkpt lat="38.80677901438523" lon="16.318014232115843"><ele>594.6</ele><time>2026-04-19T08:07:01Z</time></trkpt><trkpt lat="38.80668772685096" lon="16.318093649884414"><ele>596.1999999999999</ele><time>2026-04-19T08:07:02Z</time></trkpt><trkpt lat="38.80663454900202" lon="16.318207763822844"><ele>597.8</ele><time>2026-04-19T08:07:03Z</time></trkpt><trkpt lat="38.80657273434497" lon="16.318302997897806"><ele>599.4</ele><time>2026-04-19T08:07:04Z</time></trkpt><trkpt lat="38.80650117276608" lon="16.31836314389051"><ele>601.0</ele><time>2026-04-19T08:07:05Z</time></trkpt><trkpt lat="38.80642702048237" lon="16.318441695027808"><ele>601.0</ele><time>2026-04-19T08:07:06Z</time></trkpt><trkpt lat="38.8063237126603" lon="16.318513399526513"><ele>601.0</ele><time>2026-04-19T08:07:07Z</time></trkpt><trkpt lat="38.806208543212115" lon="16.318546893467285"><ele>601.0</ele><time>2026-04-19T08:07:08Z</time></trkpt><trkpt lat="38.80610948600244" lon="16.318599455062788"><ele>601.0</ele><time>2026-04-19T08:07:09Z</time></trkpt><trkpt lat="38.80602428848676" lon="16.318631502578285"><ele>601.0</ele><time>2026-04-19T08:07:10Z</time></trkpt><trkpt lat="38.805934272155575" lon="16.318674492645"><ele>601.1666666666667</ele><time>2026-04-19T08:07:11Z</time></trkpt><trkpt lat="38.80585453628895" lon="16.318690298556927"><ele>601.3333333333334</ele><time>2026-04-19T08:07:12Z</time></trkpt><trkpt lat="38.80577611743396" lon="16.318717386521797"><ele>601.5</ele><time>2026-04-19T08:07:13Z</time></trkpt><trkpt lat="38.80567045696809" lon="16.31875982139256"><ele>601.6666666666666</ele><time>2026-04-19T08:07:15Z</time></trkpt><trkpt lat="38.80560583246525" lon="16.31876730947112"><ele>601.8333333333333</ele><time>2026-04-19T08:07:17Z</time></trkpt><trkpt lat="38.8055239211508" lon="16.31875182391906"><ele>602.0</ele><time>2026-04-19T08:07:21Z</time></trkpt><trkpt lat="38.80544782394627" lon="16.31876281336892"><ele>602.0</ele><time>2026-04-19T08:07:28Z</time></trkpt><trkpt lat="38.8053808572446" lon="16.318722473287647"><ele>602.0</ele><time>2026-04-19T08:07:32Z</time></trkpt><trkpt lat="38.80531384228818" lon="16.318677326471327"><ele>602.0</ele><time>2026-04-19T08:07:37Z</time></trkpt><trkpt lat="38.80529289210275" lon="16.318599909361875"><ele>602.0</ele><time>2026-04-19T08:07:40Z</time></trkpt><trkpt lat="38.80523585819775" lon="16.31855599605908"><ele>602.0</ele><time>2026-04-19T08:07:42Z</time></trkpt><trkpt lat="38.80515909976617" lon="16.318509576863693"><ele>602.0</ele><time>2026-04-19T08:07:44Z</time></trkpt><trkpt lat="38.80508325174465" lon="16.318481438378164"><ele>602.0</ele><time>2026-04-19T08:07:46Z</time></trkpt><trkpt lat="38.804864220200216" lon="16.31886667113343"><ele>600.1666666666666</ele><time>2026-04-19T08:07:47Z</time></trkpt><trkpt lat="38.80477626237986" lon="16.31885219984865"><ele>598.3333333333333</ele><time>2026-04-19T08:07:49Z</time></trkpt><trkpt lat="38.804693144758375" lon="16.3188695917367"><ele>596.5</ele><time>2026-04-19T08:07:51Z</time></trkpt><trkpt lat="38.80461225581473" lon="16.318898003386735"><ele>594.6666666666666</ele><time>2026-04-19T08:07:53Z</time></trkpt><trkpt lat="38.80454983260705" lon="16.318953559149957"><ele>592.8333333333334</ele><time>2026-04-19T08:07:55Z</time></trkpt><trkpt lat="38.804467763175644" lon="16.31901626877961"><ele>591.0</ele><time>2026-04-19T08:07:58Z</time></trkpt><trkpt lat="38.80440052286824" lon="16.319003776112886"><ele>587.8</ele><time>2026-04-19T08:08:00Z</time></trkpt><trkpt lat="38.80433111375355" lon="16.318975450386763"><ele>584.6</ele><time>2026-04-19T08:08:02Z</time></trkpt><trkpt lat="38.80426085913747" lon="16.319054745586442"><ele>581.4</ele><time>2026-04-19T08:08:04Z</time></trkpt><trkpt lat="38.80416496497061" lon="16.31913402774877"><ele>578.2</ele><time>2026-04-19T08:08:06Z</time></trkpt><trkpt lat="38.80406221359301" lon="16.319170029657137"><ele>575.0</ele><time>2026-04-19T08:08:08Z</time></trkpt><trkpt lat="38.803997101595094" lon="16.319222886868815"><ele>573.3333333333333</ele><time>2026-04-19T08:08:10Z</time></trkpt><trkpt lat="38.80392109355107" lon="16.319182849864"><ele>571.6666666666666</ele><time>2026-04-19T08:08:13Z</time></trkpt><trkpt lat="38.803827556300085" lon="16.319163994093483"><ele>570.0</ele><time>2026-04-19T08:08:16Z</time></trkpt><trkpt lat="38.80375545077274" lon="16.3192046445179"><ele>568.3333333333334</ele><time>2026-04-19T08:08:18Z</time></trkpt><trkpt lat="38.803710876029434" lon="16.319313285727826"><ele>566.6666666666667</ele><time>2026-04-19T08:08:21Z</time></trkpt><trkpt lat="38.803688158159396" lon="16.319393194218453"><ele>565.0</ele><time>2026-04-19T08:08:26Z</time></trkpt><trkpt lat="38.80372831745076" lon="16.319476825223987"><ele>565.0</ele><time>2026-04-19T08:08:33Z</time></trkpt><trkpt lat="38.803698166822855" lon="16.319561467264542"><ele>565.0</ele><time>2026-04-19T08:08:36Z</time></trkpt><trkpt lat="38.8036346321171" lon="16.31961812278181"><ele>565.0</ele><time>2026-04-19T08:08:38Z</time></trkpt><trkpt lat="38.80360255184109" lon="16.319719876159322"><ele>565.0</ele><time>2026-04-19T08:08:41Z</time></trkpt><trkpt lat="38.803616072845266" lon="16.319802751115738"><ele>565.0</ele><time>2026-04-19T08:08:43Z</time></trkpt><trkpt lat="38.803615413747856" lon="16.31989850176246"><ele>565.0</ele><time>2026-04-19T08:08:46Z</time></trkpt><trkpt lat="38.80359938361436" lon="16.319990972509697"><ele>563.1666666666667</ele><time>2026-04-19T08:08:50Z</time></trkpt><trkpt lat="38.803551867567556" lon="16.320059783348263"><ele>561.3333333333334</ele><time>2026-04-19T08:09:02.999Z</time></trkpt><trkpt lat="38.8035187435814" lon="16.32015587682244"><ele>559.5</ele><time>2026-04-19T08:09:07.999Z</time></trkpt><trkpt lat="38.80345706204589" lon="16.320201521066018"><ele>557.6666666666666</ele><time>2026-04-19T08:09:10.999Z</time></trkpt><trkpt lat="38.8033865574455" lon="16.320284950591137"><ele>555.8333333333333</ele><time>2026-04-19T08:09:13.998Z</time></trkpt><trkpt lat="38.803318934716216" lon="16.32032960582438"><ele>554.0</ele><time>2026-04-19T08:09:15.998Z</time></trkpt><trkpt lat="38.80324231088753" lon="16.32036401308484"><ele>554.0</ele><time>2026-04-19T08:09:17.998Z</time></trkpt><trkpt lat="38.8032022212314" lon="16.320461677453586"><ele>554.0</ele><time>2026-04-19T08:09:20.998Z</time></trkpt><trkpt lat="38.80321780537126" lon="16.320624800225904"><ele>554.0</ele><time>2026-04-19T08:09:22.998Z</time></trkpt><trkpt lat="38.803237000884636" lon="16.320702790790364"><ele>554.0</ele><time>2026-04-19T08:09:23.998Z</time></trkpt><trkpt lat="38.803255738139" lon="16.320813751303202"><ele>554.0</ele><time>2026-04-19T08:09:25.998Z</time></trkpt><trkpt lat="38.803319269730046" lon="16.32085299361178"><ele>554.0</ele><time>2026-04-19T08:09:28.998Z</time></trkpt><trkpt lat="38.80341034500852" lon="16.32086716035754"><ele>552.5</ele><time>2026-04-19T08:09:30.998Z</time></trkpt><trkpt lat="38.80349376302554" lon="16.320944584927286"><ele>551.0</ele><time>2026-04-19T08:09:32.998Z</time></trkpt><trkpt lat="38.80356284517556" lon="16.321039990047176"><ele>549.5</ele><time>2026-04-19T08:09:34.998Z</time></trkpt><trkpt lat="38.803605017725744" lon="16.321111274894065"><ele>548.0</ele><time>2026-04-19T08:09:36.998Z</time></trkpt><trkpt lat="38.803690807236286" lon="16.321135429782387"><ele>546.5</ele><time>2026-04-19T08:09:39.998Z</time></trkpt><trkpt lat="38.803755724416064" lon="16.321180892649025"><ele>545.0</ele><time>2026-04-19T08:09:42.998Z</time></trkpt><trkpt lat="38.80377390952937" lon="16.32127296424659"><ele>543.4</ele><time>2026-04-19T08:09:46.998Z</time></trkpt><trkpt lat="38.803772082205384" lon="16.32140793000862"><ele>541.8</ele><time>2026-04-19T08:09:57.998Z</time></trkpt><trkpt lat="38.80382878848587" lon="16.321456901284048"><ele>540.2</ele><time>2026-04-19T08:09:59.998Z</time></trkpt><trkpt lat="38.80391808865292" lon="16.321516757866647"><ele>538.6</ele><time>2026-04-19T08:10:01.998Z</time></trkpt><trkpt lat="38.80397735853183" lon="16.32162343710884"><ele>537.0</ele><time>2026-04-19T08:10:03.998Z</time></trkpt><trkpt lat="38.804026690430554" lon="16.321714924811833"><ele>537.0</ele><time>2026-04-19T08:10:05.998Z</time></trkpt><trkpt lat="38.8039782440312" lon="16.321777247515932"><ele>537.0</ele><time>2026-04-19T08:10:07.998Z</time></trkpt><trkpt lat="38.8038890011745" lon="16.321821061116612"><ele>537.0</ele><time>2026-04-19T08:10:09.998Z</time></trkpt><trkpt lat="38.80385150145584" lon="16.321889899716215"><ele>537.0</ele><time>2026-04-19T08:10:10.998Z</time></trkpt><trkpt lat="38.80383032613147" lon="16.321969934065926"><ele>537.0</ele><time>2026-04-19T08:10:11.998Z</time></trkpt><trkpt lat="38.80376760911284" lon="16.322110190189537"><ele>537.0</ele><time>2026-04-19T08:10:13.998Z</time></trkpt><trkpt lat="38.80372208332135" lon="16.32220322701919"><ele>538.4</ele><time>2026-04-19T08:10:14.998Z</time></trkpt><trkpt lat="38.80365749089023" lon="16.32229609181015"><ele>539.8000000000001</ele><time>2026-04-19T08:10:15.998Z</time></trkpt><trkpt lat="38.803588157566416" lon="16.32239282773599"><ele>541.2</ele><time>2026-04-19T08:10:16.998Z</time></trkpt><trkpt lat="38.803517451165845" lon="16.32248526015787"><ele>542.6</ele><time>2026-04-19T08:10:17.998Z</time></trkpt><trkpt lat="38.803444990660175" lon="16.322570116849395"><ele>544.0</ele><time>2026-04-19T08:10:18.998Z</time></trkpt><trkpt lat="38.80337677821648" lon="16.3226451622733"><ele>545.3333333333334</ele><time>2026-04-19T08:10:19.998Z</time></trkpt><trkpt lat="38.803324199787454" lon="16.322718350705905"><ele>546.6666666666667</ele><time>2026-04-19T08:10:20.998Z</time></trkpt><trkpt lat="38.80328365160703" lon="16.322782120518895"><ele>548.0</ele><time>2026-04-19T08:10:21.998Z</time></trkpt><trkpt lat="38.80320083660234" lon="16.322812460286215"><ele>549.3333333333334</ele><time>2026-04-19T08:10:23.998Z</time></trkpt><trkpt lat="38.80311540078514" lon="16.322787379111002"><ele>550.6666666666666</ele><time>2026-04-19T08:10:25.998Z</time></trkpt><trkpt lat="38.80304346077506" lon="16.322776678129312"><ele>552.0</ele><time>2026-04-19T08:10:27.998Z</time></trkpt><trkpt lat="38.802960515481544" lon="16.322794903915515"><ele>552.0</ele><time>2026-04-19T08:10:29.998Z</time></trkpt><trkpt lat="38.8028826583296" lon="16.322804602046485"><ele>552.0</ele><time>2026-04-19T08:10:31.998Z</time></trkpt><trkpt lat="38.8027899316785" lon="16.322783898620518"><ele>552.0</ele><time>2026-04-19T08:10:33.998Z</time></trkpt><trkpt lat="38.802688404285355" lon="16.322758220473446"><ele>552.0</ele><time>2026-04-19T08:10:35.998Z</time></trkpt><trkpt lat="38.802591538449164" lon="16.32279108939852"><ele>552.0</ele><time>2026-04-19T08:10:37.998Z</time></trkpt><trkpt lat="38.80250417106427" lon="16.322839877434184"><ele>552.4</ele><time>2026-04-19T08:10:39.998Z</time></trkpt><trkpt lat="38.80242047337963" lon="16.32290043321807"><ele>552.8000000000001</ele><time>2026-04-19T08:10:41.998Z</time></trkpt><trkpt lat="38.802337020120014" lon="16.32288451683445"><ele>553.2</ele><time>2026-04-19T08:10:43.998Z</time></trkpt><trkpt lat="38.80225093979956" lon="16.322871468573595"><ele>553.6</ele><time>2026-04-19T08:10:45.998Z</time></trkpt><trkpt lat="38.802161877477324" lon="16.322866259943105"><ele>554.0</ele><time>2026-04-19T08:10:47.998Z</time></trkpt><trkpt lat="38.80204848850149" lon="16.322854154125665"><ele>554.0</ele><time>2026-04-19T08:10:49.998Z</time></trkpt><trkpt lat="38.80194475835298" lon="16.32286521074592"><ele>554.0</ele><time>2026-04-19T08:10:51.998Z</time></trkpt><trkpt lat="38.80183443627552" lon="16.32287925114403"><ele>554.0</ele><time>2026-04-19T08:10:53.998Z</time></trkpt><trkpt lat="38.80173115807684" lon="16.32287640414499"><ele>554.0</ele><time>2026-04-19T08:10:55.998Z</time></trkpt><trkpt lat="38.80166693578237" lon="16.32288979134128"><ele>554.0</ele><time>2026-04-19T08:10:57.998Z</time></trkpt><trkpt lat="38.80159660564371" lon="16.32291540564166"><ele>553.0</ele><time>2026-04-19T08:11:00.998Z</time></trkpt><trkpt lat="38.801511227950066" lon="16.322969291739827"><ele>552.0</ele><time>2026-04-19T08:11:02.998Z</time></trkpt><trkpt lat="38.801459296217324" lon="16.32301621704174"><ele>551.0</ele><time>2026-04-19T08:11:03.998Z</time></trkpt><trkpt lat="38.80142392256554" lon="16.323100527214986"><ele>550.0</ele><time>2026-04-19T08:11:04.998Z</time></trkpt><trkpt lat="38.80139872155632" lon="16.323184673997268"><ele>549.0</ele><time>2026-04-19T08:11:05.998Z</time></trkpt><trkpt lat="38.80135663773265" lon="16.32331367664112"><ele>548.0</ele><time>2026-04-19T08:11:07.998Z</time></trkpt><trkpt lat="38.801301613736534" lon="16.323438746491238"><ele>546.6</ele><time>2026-04-19T08:11:09.998Z</time></trkpt><trkpt lat="38.80122297752065" lon="16.323531283133654"><ele>545.1999999999999</ele><time>2026-04-19T08:11:11.998Z</time></trkpt><trkpt lat="38.80117295817412" lon="16.32365385750388"><ele>543.8</ele><time>2026-04-19T08:11:13.998Z</time></trkpt><trkpt lat="38.80112950166829" lon="16.323778756607993"><ele>542.4</ele><time>2026-04-19T08:11:15.998Z</time></trkpt><trkpt lat="38.80110865175556" lon="16.32390662532718"><ele>541.0</ele><time>2026-04-19T08:11:17.998Z</time></trkpt><trkpt lat="38.801100357208" lon="16.32406119560077"><ele>541.6</ele><time>2026-04-19T08:11:19.998Z</time></trkpt><trkpt lat="38.80111133179299" lon="16.324204118155954"><ele>542.2</ele><time>2026-04-19T08:11:21.998Z</time></trkpt><trkpt lat="38.801088546026925" lon="16.324368014071023"><ele>542.8</ele><time>2026-04-19T08:11:23.998Z</time></trkpt><trkpt lat="38.80104382730403" lon="16.324432172762098"><ele>543.4</ele><time>2026-04-19T08:11:24.998Z</time></trkpt><trkpt lat="38.80099282575236" lon="16.32454902676106"><ele>544.0</ele><time>2026-04-19T08:11:26.998Z</time></trkpt><trkpt lat="38.800948523329595" lon="16.324680853638867"><ele>541.8</ele><time>2026-04-19T08:11:28.998Z</time></trkpt><trkpt lat="38.800866615863434" lon="16.32478597905433"><ele>539.5999999999999</ele><time>2026-04-19T08:11:30.998Z</time></trkpt><trkpt lat="38.800769761608635" lon="16.324834127293073"><ele>537.4</ele><time>2026-04-19T08:11:32.998Z</time></trkpt><trkpt lat="38.80070372397911" lon="16.324880694095885"><ele>535.1999999999999</ele><time>2026-04-19T08:11:34.998Z</time></trkpt><trkpt lat="38.80065385842872" lon="16.324968786025437"><ele>533.0</ele><time>2026-04-19T08:11:37.998Z</time></trkpt><trkpt lat="38.800637042278176" lon="16.325071402656494"><ele>533.0</ele><time>2026-04-19T08:11:39.998Z</time></trkpt><trkpt lat="38.80062498467491" lon="16.325191032590507"><ele>533.0</ele><time>2026-04-19T08:11:41.998Z</time></trkpt><trkpt lat="38.80062220880757" lon="16.325274293405318"><ele>533.0</ele><time>2026-04-19T08:11:45.998Z</time></trkpt><trkpt lat="38.80066290034103" lon="16.32537551532994"><ele>533.0</ele><time>2026-04-19T08:11:48.998Z</time></trkpt><trkpt lat="38.80073516069203" lon="16.32544626223628"><ele>533.0</ele><time>2026-04-19T08:11:51Z</time></trkpt><trkpt lat="38.800798015054376" lon="16.325526842846052"><ele>533.0</ele><time>2026-04-19T08:11:53Z</time></trkpt><trkpt lat="38.800820018184474" lon="16.325605035727843"><ele>533.0</ele><time>2026-04-19T08:11:56Z</time></trkpt><trkpt lat="38.80085733225078" lon="16.325673880201037"><ele>533.0</ele><time>2026-04-19T08:11:59Z</time></trkpt><trkpt lat="38.80087746472413" lon="16.325766938755443"><ele>533.0</ele><time>2026-04-19T08:12:02Z</time></trkpt><trkpt lat="38.80089307720947" lon="16.325881911527233"><ele>533.0</ele><time>2026-04-19T08:12:04Z</time></trkpt><trkpt lat="38.80092170940538" lon="16.326019179575834"><ele>533.0</ele><time>2026-04-19T08:12:06Z</time></trkpt><trkpt lat="38.80094653879447" lon="16.32612034868568"><ele>533.0</ele><time>2026-04-19T08:12:08Z</time></trkpt><trkpt lat="38.800956746697906" lon="16.326232457397744"><ele>533.0</ele><time>2026-04-19T08:12:10Z</time></trkpt><trkpt lat="38.800971532974614" lon="16.326351704860834"><ele>533.0</ele><time>2026-04-19T08:12:12Z</time></trkpt><trkpt lat="38.8009587391587" lon="16.32644586812382"><ele>533.0</ele><time>2026-04-19T08:12:14Z</time></trkpt><trkpt lat="38.80098441022667" lon="16.32654427729004"><ele>533.0</ele><time>2026-04-19T08:12:17Z</time></trkpt><trkpt lat="38.80101966946336" lon="16.326614671584462"><ele>533.0</ele><time>2026-04-19T08:12:19Z</time></trkpt><trkpt lat="38.801040958969125" lon="16.326697344066844"><ele>533.0</ele><time>2026-04-19T08:12:21Z</time></trkpt><trkpt lat="38.80107092686557" lon="16.32680157611213"><ele>532.2857142857142</ele><time>2026-04-19T08:12:23Z</time></trkpt><trkpt lat="38.80108958842105" lon="16.326893982937307"><ele>531.5714285714286</ele><time>2026-04-19T08:12:25Z</time></trkpt><trkpt lat="38.80110906395381" lon="16.326989005990207"><ele>530.8571428571429</ele><time>2026-04-19T08:12:27Z</time></trkpt><trkpt lat="38.80112402878609" lon="16.32708762782526"><ele>530.1428571428571</ele><time>2026-04-19T08:12:30Z</time></trkpt><trkpt lat="38.80115109769561" lon="16.32718665945581"><ele>529.4285714285714</ele><time>2026-04-19T08:12:33Z</time></trkpt><trkpt lat="38.8011654651795" lon="16.327277073973796"><ele>528.7142857142857</ele><time>2026-04-19T08:12:36Z</time></trkpt><trkpt lat="38.801194925758594" lon="16.327349679480452"><ele>528.0</ele><time>2026-04-19T08:12:38Z</time></trkpt><trkpt lat="38.80117200531575" lon="16.327425941146995"><ele>526.5714285714286</ele><time>2026-04-19T08:12:55Z</time></trkpt><trkpt lat="38.80121416884782" lon="16.327514890082714"><ele>525.1428571428571</ele><time>2026-04-19T08:14:59.999Z</time></trkpt><trkpt lat="38.80125269436205" lon="16.327581414787172"><ele>523.7142857142858</ele><time>2026-04-19T08:20:19Z</time></trkpt><trkpt lat="38.80127684582716" lon="16.327658796509585"><ele>522.2857142857142</ele><time>2026-04-19T08:20:22Z</time></trkpt><trkpt lat="38.80128901591347" lon="16.327746731361607"><ele>520.8571428571429</ele><time>2026-04-19T08:20:25Z</time></trkpt><trkpt lat="38.80130677506317" lon="16.327833722636317"><ele>519.4285714285714</ele><time>2026-04-19T08:20:28Z</time></trkpt><trkpt lat="38.801375991530726" lon="16.327868720767523"><ele>518.0</ele><time>2026-04-19T08:22:22Z</time></trkpt><trkpt lat="38.80131093837573" lon="16.327887534577794"><ele>518.0</ele><time>2026-04-19T08:23:41.999Z</time></trkpt><trkpt lat="38.80124635197426" lon="16.327933968684782"><ele>518.0</ele><time>2026-04-19T08:25:23.999Z</time></trkpt><trkpt lat="38.801309045951264" lon="16.327967812898066"><ele>518.0</ele><time>2026-04-19T08:43:37.999Z</time></trkpt><trkpt lat="38.80125826329678" lon="16.32806048584658"><ele>518.0</ele><time>2026-04-19T09:00:31.999Z</time></trkpt><trkpt lat="38.801296551827896" lon="16.328129651764367"><ele>518.0</ele><time>2026-04-19T09:01:28.999Z</time></trkpt><trkpt lat="38.801342022394515" lon="16.328196563116737"><ele>518.0</ele><time>2026-04-19T09:01:51Z</time></trkpt><trkpt lat="38.801353788543906" lon="16.328286330178525"><ele>518.0</ele><time>2026-04-19T09:01:56Z</time></trkpt><trkpt lat="38.80138179641728" lon="16.328370680702385"><ele>517.2857142857143</ele><time>2026-04-19T09:02:01Z</time></trkpt><trkpt lat="38.8014045080814" lon="16.328476722590462"><ele>516.5714285714286</ele><time>2026-04-19T09:02:05Z</time></trkpt><trkpt lat="38.80141753537928" lon="16.32857297599947"><ele>515.8571428571429</ele><time>2026-04-19T09:02:10Z</time></trkpt><trkpt lat="38.80142032876113" lon="16.328656058589097"><ele>515.1428571428571</ele><time>2026-04-19T09:02:18Z</time></trkpt><trkpt lat="38.80148034327207" lon="16.328700458369262"><ele>514.4285714285714</ele><time>2026-04-19T09:02:50Z</time></trkpt><trkpt lat="38.8015030022913" lon="16.328780487527002"><ele>513.7142857142858</ele><time>2026-04-19T09:03:03Z</time></trkpt><trkpt lat="38.801523588615055" lon="16.3288579204101"><ele>513.0</ele><time>2026-04-19T09:03:14Z</time></trkpt><trkpt lat="38.80152412238725" lon="16.32893957320818"><ele>512.1666666666666</ele><time>2026-04-19T09:04:33Z</time></trkpt><trkpt lat="38.80154066623739" lon="16.329027192866683"><ele>511.33333333333337</ele><time>2026-04-19T09:05:07Z</time></trkpt><trkpt lat="38.801612477013045" lon="16.32914637133106"><ele>510.5</ele><time>2026-04-19T09:06:06Z</time></trkpt><trkpt lat="38.801645005206204" lon="16.329222901450077"><ele>509.6666666666667</ele><time>2026-04-19T09:06:54Z</time></trkpt><trkpt lat="38.80159462171307" lon="16.32927912962485"><ele>508.83333333333337</ele><time>2026-04-19T09:08:35.999Z</time></trkpt><trkpt lat="38.801594785189295" lon="16.32936296279767"><ele>508.0</ele><time>2026-04-19T09:11:43Z</time></trkpt><trkpt lat="38.80163437657235" lon="16.329426420358633"><ele>508.0</ele><time>2026-04-19T09:11:52Z</time></trkpt><trkpt lat="38.80158213671035" lon="16.329481980721496"><ele>508.0</ele><time>2026-04-19T09:12:01Z</time></trkpt><trkpt lat="38.8016557974128" lon="16.32950867438469"><ele>508.0</ele><time>2026-04-19T09:12:22Z</time></trkpt><trkpt lat="38.80167156256456" lon="16.329591719869875"><ele>508.0</ele><time>2026-04-19T09:12:31Z</time></trkpt><trkpt lat="38.80167400886768" lon="16.329682398109092"><ele>508.0</ele><time>2026-04-19T09:13:29.999Z</time></trkpt><trkpt lat="38.801678707153144" lon="16.329764474546494"><ele>508.0</ele><time>2026-04-19T09:13:35.999Z</time></trkpt><trkpt lat="38.801714052490475" lon="16.3298370081462"><ele>508.0</ele><time>2026-04-19T09:13:54.999Z</time></trkpt><trkpt lat="38.801723592132426" lon="16.32992272065634"><ele>507.83333333333337</ele><time>2026-04-19T09:14:05.999Z</time></trkpt><trkpt lat="38.80174574008596" lon="16.330002774077474"><ele>507.6666666666667</ele><time>2026-04-19T09:14:11.999Z</time></trkpt><trkpt lat="38.80181108823077" lon="16.330026989795577"><ele>507.5</ele><time>2026-04-19T09:15:18.999Z</time></trkpt><trkpt lat="38.801809768444926" lon="16.330111948218413"><ele>507.33333333333337</ele><time>2026-04-19T09:15:34.999Z</time></trkpt><trkpt lat="38.801949550563435" lon="16.330232557683818"><ele>507.1666666666667</ele><time>2026-04-19T09:17:30.999Z</time></trkpt><trkpt lat="38.80201259683169" lon="16.330173568968604"><ele>507.0</ele><time>2026-04-19T09:17:32.999Z</time></trkpt><trkpt lat="38.80205496730247" lon="16.330092836617283"><ele>507.0</ele><time>2026-04-19T09:17:35.999Z</time></trkpt><trkpt lat="38.80207277755439" lon="16.3300138271437"><ele>507.0</ele><time>2026-04-19T09:17:41.999Z</time></trkpt><trkpt lat="38.80212422203351" lon="16.329961629744993"><ele>507.0</ele><time>2026-04-19T09:17:48.999Z</time></trkpt><trkpt lat="38.802177006360715" lon="16.329901620682783"><ele>507.0</ele><time>2026-04-19T09:17:51.999Z</time></trkpt><trkpt lat="38.80224176204917" lon="16.32985649733291"><ele>507.0</ele><time>2026-04-19T09:18:27.999Z</time></trkpt><trkpt lat="38.80231907618522" lon="16.329838358751832"><ele>507.0</ele><time>2026-04-19T09:18:31.999Z</time></trkpt><trkpt lat="38.80238212467233" lon="16.329810289937036"><ele>507.0</ele><time>2026-04-19T09:18:33.999Z</time></trkpt><trkpt lat="38.80245214424439" lon="16.32978493426699"><ele>507.0</ele><time>2026-04-19T09:18:35.999Z</time></trkpt><trkpt lat="38.80251755927257" lon="16.329776061561088"><ele>507.0</ele><time>2026-04-19T09:18:37.999Z</time></trkpt><trkpt lat="38.8026054957393" lon="16.329758019715417"><ele>507.0</ele><time>2026-04-19T09:18:40.999Z</time></trkpt><trkpt lat="38.80267354889746" lon="16.32973185258196"><ele>507.0</ele><time>2026-04-19T09:18:44.999Z</time></trkpt><trkpt lat="38.80280375218943" lon="16.329726342140678"><ele>507.0</ele><time>2026-04-19T09:18:49.999Z</time></trkpt><trkpt lat="38.80287642872297" lon="16.32969341710468"><ele>507.0</ele><time>2026-04-19T09:18:50.999Z</time></trkpt><trkpt lat="38.80296360851142" lon="16.32966440300832"><ele>509.0</ele><time>2026-04-19T09:18:51.999Z</time></trkpt><trkpt lat="38.80306696800261" lon="16.32963098776923"><ele>511.00000000000006</ele><time>2026-04-19T09:18:52.999Z</time></trkpt><trkpt lat="38.803167056900705" lon="16.32959071466931"><ele>513.0</ele><time>2026-04-19T09:18:53.999Z</time></trkpt><trkpt lat="38.803248865040935" lon="16.329556555062968"><ele>515.0</ele><time>2026-04-19T09:18:54.999Z</time></trkpt><trkpt lat="38.803325349030814" lon="16.3295348116048"><ele>517.0</ele><time>2026-04-19T09:18:55.999Z</time></trkpt><trkpt lat="38.803399892617854" lon="16.329515249340897"><ele>517.0</ele><time>2026-04-19T09:18:56.999Z</time></trkpt><trkpt lat="38.803483135891916" lon="16.32950929116278"><ele>517.0</ele><time>2026-04-19T09:18:57.999Z</time></trkpt><trkpt lat="38.8035603015057" lon="16.329507338113256"><ele>517.0</ele><time>2026-04-19T09:18:58.999Z</time></trkpt><trkpt lat="38.80363375071817" lon="16.329513701521936"><ele>517.0</ele><time>2026-04-19T09:18:59.999Z</time></trkpt><trkpt lat="38.80373248549998" lon="16.329530548759458"><ele>517.0</ele><time>2026-04-19T09:19:01.999Z</time></trkpt><trkpt lat="38.80380135239227" lon="16.329500706209934"><ele>517.0</ele><time>2026-04-19T09:19:03.999Z</time></trkpt><trkpt lat="38.803868313184026" lon="16.329483948270806"><ele>518.2857142857143</ele><time>2026-04-19T09:19:07.999Z</time></trkpt><trkpt lat="38.8039309191365" lon="16.329518761565765"><ele>519.5714285714287</ele><time>2026-04-19T09:19:15.999Z</time></trkpt><trkpt lat="38.80400137668168" lon="16.32951943856903"><ele>520.8571428571429</ele><time>2026-04-19T09:20:03.998Z</time></trkpt><trkpt lat="38.80407702340066" lon="16.329501962095996"><ele>522.1428571428571</ele><time>2026-04-19T09:20:06.998Z</time></trkpt><trkpt lat="38.80414148455571" lon="16.329514020223822"><ele>523.4285714285713</ele><time>2026-04-19T09:20:09.998Z</time></trkpt><trkpt lat="38.804225177321776" lon="16.329531519830066"><ele>524.7142857142857</ele><time>2026-04-19T09:20:12.998Z</time></trkpt><trkpt lat="38.80426535224381" lon="16.329625832073365"><ele>526.0</ele><time>2026-04-19T09:20:15.998Z</time></trkpt><trkpt lat="38.80430447595855" lon="16.329702980721308"><ele>523.6</ele><time>2026-04-19T09:20:17.998Z</time></trkpt><trkpt lat="38.80436419826936" lon="16.329802440827038"><ele>521.2</ele><time>2026-04-19T09:20:19.998Z</time></trkpt><trkpt lat="38.80440656793195" lon="16.329929737982713"><ele>518.8</ele><time>2026-04-19T09:20:21.998Z</time></trkpt><trkpt lat="38.804465049841184" lon="16.330030207845954"><ele>516.4</ele><time>2026-04-19T09:20:23.998Z</time></trkpt><trkpt lat="38.80451746390277" lon="16.33011359690306"><ele>514.0</ele><time>2026-04-19T09:20:25.998Z</time></trkpt><trkpt lat="38.8045537635398" lon="16.330183600755927"><ele>514.0</ele><time>2026-04-19T09:20:27.998Z</time></trkpt><trkpt lat="38.80459117668403" lon="16.33025418562515"><ele>514.0</ele><time>2026-04-19T09:20:29.998Z</time></trkpt><trkpt lat="38.804607659382455" lon="16.330351777544433"><ele>514.0</ele><time>2026-04-19T09:20:31.998Z</time></trkpt><trkpt lat="38.80459855580899" lon="16.33044343065"><ele>514.0</ele><time>2026-04-19T09:20:33.998Z</time></trkpt><trkpt lat="38.80458138974783" lon="16.330525719930925"><ele>514.0</ele><time>2026-04-19T09:20:36.998Z</time></trkpt><trkpt lat="38.80456176521425" lon="16.330603999646147"><ele>514.0</ele><time>2026-04-19T09:20:40.998Z</time></trkpt><trkpt lat="38.804545465132804" lon="16.330683704556947"><ele>514.0</ele><time>2026-04-19T09:20:43.998Z</time></trkpt><trkpt lat="38.80455113805698" lon="16.330766164542897"><ele>513.0</ele><time>2026-04-19T09:20:48.998Z</time></trkpt><trkpt lat="38.80454548915983" lon="16.33087203358567"><ele>512.0</ele><time>2026-04-19T09:20:52.998Z</time></trkpt><trkpt lat="38.804565396798026" lon="16.330969820302332"><ele>511.0</ele><time>2026-04-19T09:20:55.998Z</time></trkpt><trkpt lat="38.80458741162017" lon="16.331071671190525"><ele>510.0</ele><time>2026-04-19T09:20:58.998Z</time></trkpt><trkpt lat="38.80456681155932" lon="16.331163046085255"><ele>509.00000000000006</ele><time>2026-04-19T09:21:03.998Z</time></trkpt><trkpt lat="38.80454561621145" lon="16.331245872402274"><ele>508.0</ele><time>2026-04-19T09:21:06.998Z</time></trkpt><trkpt lat="38.80451170519302" lon="16.33135173404358"><ele>506.83333333333337</ele><time>2026-04-19T09:21:10.998Z</time></trkpt><trkpt lat="38.80449617583828" lon="16.331459616455064"><ele>505.6666666666667</ele><time>2026-04-19T09:21:12.998Z</time></trkpt><trkpt lat="38.80446802723272" lon="16.331548458558764"><ele>504.5</ele><time>2026-04-19T09:21:15.998Z</time></trkpt><trkpt lat="38.80444445293602" lon="16.33162580365844"><ele>503.33333333333337</ele><time>2026-04-19T09:21:25.998Z</time></trkpt><trkpt lat="38.80442060713099" lon="16.331745161739217"><ele>502.1666666666667</ele><time>2026-04-19T09:21:28.998Z</time></trkpt><trkpt lat="38.80439867751767" lon="16.331824484003697"><ele>501.0</ele><time>2026-04-19T09:21:30.998Z</time></trkpt><trkpt lat="38.80437542963529" lon="16.331924797951416"><ele>501.0</ele><time>2026-04-19T09:21:33.998Z</time></trkpt><trkpt lat="38.80437418583523" lon="16.332035895000683"><ele>501.0</ele><time>2026-04-19T09:21:36.998Z</time></trkpt><trkpt lat="38.804363346133734" lon="16.332115723538575"><ele>501.0</ele><time>2026-04-19T09:21:38.998Z</time></trkpt><trkpt lat="38.80438360027421" lon="16.332200349986138"><ele>501.0</ele><time>2026-04-19T09:21:40.998Z</time></trkpt><trkpt lat="38.8043817739048" lon="16.332301976109804"><ele>501.0</ele><time>2026-04-19T09:21:42.998Z</time></trkpt><trkpt lat="38.804356776456444" lon="16.332381029142066"><ele>501.0</ele><time>2026-04-19T09:21:44.998Z</time></trkpt><trkpt lat="38.80434216463848" lon="16.33246671688226"><ele>501.0</ele><time>2026-04-19T09:21:46.998Z</time></trkpt><trkpt lat="38.80433558351121" lon="16.33254961052759"><ele>501.0</ele><time>2026-04-19T09:21:48.998Z</time></trkpt><trkpt lat="38.80435258104108" lon="16.33265742328215"><ele>501.0</ele><time>2026-04-19T09:21:51.998Z</time></trkpt><trkpt lat="38.80438482775777" lon="16.33274370926652"><ele>501.0</ele><time>2026-04-19T09:21:54.998Z</time></trkpt><trkpt lat="38.80442539711259" lon="16.332811292132916"><ele>501.0</ele><time>2026-04-19T09:21:57.998Z</time></trkpt><trkpt lat="38.80446001194132" lon="16.332891442622934"><ele>501.0</ele><time>2026-04-19T09:22:00.998Z</time></trkpt><trkpt lat="38.80446072708596" lon="16.332980779192248"><ele>501.0</ele><time>2026-04-19T09:22:03.998Z</time></trkpt><trkpt lat="38.804449860943464" lon="16.33308862611013"><ele>501.57142857142856</ele><time>2026-04-19T09:22:07.998Z</time></trkpt><trkpt lat="38.80444013288913" lon="16.333183363231406"><ele>502.1428571428571</ele><time>2026-04-19T09:22:10.998Z</time></trkpt><trkpt lat="38.8044516567784" lon="16.33328668355628"><ele>502.71428571428567</ele><time>2026-04-19T09:22:14.998Z</time></trkpt><trkpt lat="38.80450456774128" lon="16.333357822764178"><ele>503.2857142857143</ele><time>2026-04-19T09:22:17.998Z</time></trkpt><trkpt lat="38.804548934894626" lon="16.33343497533244"><ele>503.8571428571428</ele><time>2026-04-19T09:22:20.998Z</time></trkpt><trkpt lat="38.804589441721326" lon="16.33349873928113"><ele>504.4285714285714</ele><time>2026-04-19T09:22:25.998Z</time></trkpt><trkpt lat="38.80460674698412" lon="16.333592697675165"><ele>505.0</ele><time>2026-04-19T09:22:30.998Z</time></trkpt><trkpt lat="38.804607043763596" lon="16.333674132004997"><ele>505.00000000000006</ele><time>2026-04-19T09:22:33.998Z</time></trkpt><trkpt lat="38.80461257286829" lon="16.3337759778764"><ele>505.0</ele><time>2026-04-19T09:22:36.997Z</time></trkpt><trkpt lat="38.804633631134024" lon="16.333895553436474"><ele>505.0</ele><time>2026-04-19T09:22:39.997Z</time></trkpt><trkpt lat="38.80464428569092" lon="16.33399348670758"><ele>505.0</ele><time>2026-04-19T09:22:41.997Z</time></trkpt><trkpt lat="38.80464470538158" lon="16.334087993416066"><ele>505.00000000000006</ele><time>2026-04-19T09:22:43.997Z</time></trkpt><trkpt lat="38.80465543242222" lon="16.334179045931656"><ele>505.0</ele><time>2026-04-19T09:22:45.997Z</time></trkpt><trkpt lat="38.804684252096955" lon="16.334253495365704"><ele>505.6666666666667</ele><time>2026-04-19T09:22:48.001Z</time></trkpt><trkpt lat="38.80470967468324" lon="16.334339061863695"><ele>506.33333333333337</ele><time>2026-04-19T09:22:50.001Z</time></trkpt><trkpt lat="38.80474044520496" lon="16.33443192780896"><ele>507.0</ele><time>2026-04-19T09:22:52.001Z</time></trkpt><trkpt lat="38.80469828138949" lon="16.334515245087445"><ele>507.66666666666663</ele><time>2026-04-19T09:22:54.001Z</time></trkpt><trkpt lat="38.80465164929108" lon="16.334592877890227"><ele>508.3333333333333</ele><time>2026-04-19T09:22:57.001Z</time></trkpt><trkpt lat="38.80459053427785" lon="16.33468547908377"><ele>509.0</ele><time>2026-04-19T09:23:00.001Z</time></trkpt><trkpt lat="38.80455666651529" lon="16.334771428231274"><ele>507.5714285714285</ele><time>2026-04-19T09:23:02.001Z</time></trkpt><trkpt lat="38.80451035214946" lon="16.334846880697064"><ele>506.1428571428571</ele><time>2026-04-19T09:23:04.001Z</time></trkpt><trkpt lat="38.804451591788286" lon="16.33490514381579"><ele>504.7142857142857</ele><time>2026-04-19T09:23:06Z</time></trkpt><trkpt lat="38.804395347976914" lon="16.33497723003131"><ele>503.2857142857143</ele><time>2026-04-19T09:23:08Z</time></trkpt><trkpt lat="38.80433963486781" lon="16.33502236792225"><ele>501.8571428571429</ele><time>2026-04-19T09:23:10Z</time></trkpt><trkpt lat="38.80429156901133" lon="16.33508585522846"><ele>500.4285714285715</ele><time>2026-04-19T09:23:12Z</time></trkpt><trkpt lat="38.80423769759064" lon="16.335142822580828"><ele>499.00000000000006</ele><time>2026-04-19T09:23:14Z</time></trkpt><trkpt lat="38.804176001405686" lon="16.33518334289748"><ele>503.6666666666667</ele><time>2026-04-19T09:23:16Z</time></trkpt><trkpt lat="38.804100485913125" lon="16.335230748781136"><ele>508.33333333333337</ele><time>2026-04-19T09:23:18Z</time></trkpt><trkpt lat="38.80401752857199" lon="16.33528851771837"><ele>513.0</ele><time>2026-04-19T09:23:21Z</time></trkpt><trkpt lat="38.80395699522223" lon="16.3353257330436"><ele>517.6666666666666</ele><time>2026-04-19T09:23:23Z</time></trkpt><trkpt lat="38.803873634950385" lon="16.335364777080873"><ele>522.3333333333333</ele><time>2026-04-19T09:23:26Z</time></trkpt><trkpt lat="38.80380389538786" lon="16.335401251159396"><ele>527.0</ele><time>2026-04-19T09:23:28Z</time></trkpt><trkpt lat="38.8037677223176" lon="16.335469092409735"><ele>526.8333333333333</ele><time>2026-04-19T09:23:30Z</time></trkpt><trkpt lat="38.80370981309966" lon="16.335554152996412"><ele>526.6666666666666</ele><time>2026-04-19T09:23:33Z</time></trkpt><trkpt lat="38.803636712068005" lon="16.335620730897908"><ele>526.5</ele><time>2026-04-19T09:23:36Z</time></trkpt><trkpt lat="38.803573725249066" lon="16.335688450791537"><ele>526.3333333333334</ele><time>2026-04-19T09:23:38Z</time></trkpt><trkpt lat="38.80349856805192" lon="16.335765024690254"><ele>526.1666666666667</ele><time>2026-04-19T09:23:40Z</time></trkpt><trkpt lat="38.80344007458596" lon="16.335838930541172"><ele>526.0</ele><time>2026-04-19T09:23:42Z</time></trkpt><trkpt lat="38.80338836343482" lon="16.335946168590784"><ele>531.2</ele><time>2026-04-19T09:23:44Z</time></trkpt><trkpt lat="38.803377231098274" lon="16.336042359864315"><ele>536.4000000000001</ele><time>2026-04-19T09:23:45Z</time></trkpt><trkpt lat="38.80336172893527" lon="16.336156412805792"><ele>541.6</ele><time>2026-04-19T09:23:47Z</time></trkpt><trkpt lat="38.803364580058165" lon="16.336292064407356"><ele>546.8000000000001</ele><time>2026-04-19T09:23:49Z</time></trkpt><trkpt lat="38.8033776744576" lon="16.336414937602388"><ele>552.0</ele><time>2026-04-19T09:23:51Z</time></trkpt><trkpt lat="38.80338940415475" lon="16.336557162537815"><ele>552.2</ele><time>2026-04-19T09:23:53Z</time></trkpt><trkpt lat="38.803365510373574" lon="16.33670255434981"><ele>552.4000000000001</ele><time>2026-04-19T09:23:55Z</time></trkpt><trkpt lat="38.80333505166168" lon="16.33682883991554"><ele>552.5999999999999</ele><time>2026-04-19T09:23:57Z</time></trkpt><trkpt lat="38.803307720687954" lon="16.336956763418364"><ele>552.8</ele><time>2026-04-19T09:23:59Z</time></trkpt><trkpt lat="38.80327410801541" lon="16.33704187041136"><ele>553.0</ele><time>2026-04-19T09:24:01Z</time></trkpt><trkpt lat="38.80324946464371" lon="16.33715232457312"><ele>553.0</ele><time>2026-04-19T09:24:03Z</time></trkpt><trkpt lat="38.80321137128844" lon="16.337255573183057"><ele>553.0</ele><time>2026-04-19T09:24:05Z</time></trkpt><trkpt lat="38.80315155513646" lon="16.33734936317907"><ele>553.0</ele><time>2026-04-19T09:24:07Z</time></trkpt><trkpt lat="38.80311201818056" lon="16.337413741558123"><ele>553.0</ele><time>2026-04-19T09:24:08Z</time></trkpt><trkpt lat="38.80307566896008" lon="16.337523248452804"><ele>553.0</ele><time>2026-04-19T09:24:10Z</time></trkpt><trkpt lat="38.803022937955674" lon="16.337646013122693"><ele>553.0</ele><time>2026-04-19T09:24:12Z</time></trkpt><trkpt lat="38.80298614843292" lon="16.337726569935917"><ele>553.0</ele><time>2026-04-19T09:24:13Z</time></trkpt><trkpt lat="38.80294583775876" lon="16.33783508751347"><ele>553.0</ele><time>2026-04-19T09:24:15Z</time></trkpt><trkpt lat="38.802891611123854" lon="16.337943142241564"><ele>553.0</ele><time>2026-04-19T09:24:16.999Z</time></trkpt><trkpt lat="38.80285409959526" lon="16.33813547017648"><ele>553.0</ele><time>2026-04-19T09:24:18.999Z</time></trkpt><trkpt lat="38.802863265795786" lon="16.338221554391595"><ele>553.0</ele><time>2026-04-19T09:24:19.999Z</time></trkpt><trkpt lat="38.80287415452271" lon="16.338318926490285"><ele>552.8</ele><time>2026-04-19T09:24:20.999Z</time></trkpt><trkpt lat="38.80287831350574" lon="16.338482543603646"><ele>552.5999999999999</ele><time>2026-04-19T09:24:22.999Z</time></trkpt><trkpt lat="38.80290623305804" lon="16.338595444382904"><ele>552.4000000000001</ele><time>2026-04-19T09:24:24.999Z</time></trkpt><trkpt lat="38.80295542424562" lon="16.338716381597933"><ele>552.2</ele><time>2026-04-19T09:24:26.999Z</time></trkpt><trkpt lat="38.80299616813976" lon="16.33879095275831"><ele>552.0</ele><time>2026-04-19T09:24:27.999Z</time></trkpt><trkpt lat="38.80306534769987" lon="16.33891011806738"><ele>554.5</ele><time>2026-04-19T09:24:29.999Z</time></trkpt><trkpt lat="38.803108091963075" lon="16.33897349303505"><ele>557.0</ele><time>2026-04-19T09:24:30.999Z</time></trkpt><trkpt lat="38.803146078061594" lon="16.33909360125383"><ele>559.5</ele><time>2026-04-19T09:24:32.999Z</time></trkpt><trkpt lat="38.80319438703512" lon="16.33920925037992"><ele>562.0</ele><time>2026-04-19T09:24:34.999Z</time></trkpt><trkpt lat="38.803225005915806" lon="16.339279849297323"><ele>564.5</ele><time>2026-04-19T09:24:35.999Z</time></trkpt><trkpt lat="38.80325276439075" lon="16.3393596533447"><ele>567.0</ele><time>2026-04-19T09:24:36.999Z</time></trkpt><trkpt lat="38.80328091312029" lon="16.33943269515538"><ele>567.0</ele><time>2026-04-19T09:24:37.999Z</time></trkpt><trkpt lat="38.80336154251094" lon="16.339522127934917"><ele>567.0</ele><time>2026-04-19T09:24:39.999Z</time></trkpt><trkpt lat="38.80344545642967" lon="16.339613061281057"><ele>567.0</ele><time>2026-04-19T09:24:41.999Z</time></trkpt><trkpt lat="38.80348318424478" lon="16.33971585789838"><ele>567.0</ele><time>2026-04-19T09:24:43.999Z</time></trkpt><trkpt lat="38.80352394851105" lon="16.33980082796507"><ele>567.0</ele><time>2026-04-19T09:24:45.999Z</time></trkpt><trkpt lat="38.803549616091715" lon="16.339878456218326"><ele>567.0</ele><time>2026-04-19T09:24:47.999Z</time></trkpt><trkpt lat="38.803574577222435" lon="16.33995269247577"><ele>564.8333333333334</ele><time>2026-04-19T09:24:49.999Z</time></trkpt><trkpt lat="38.80360156294525" lon="16.340034575134567"><ele>562.6666666666666</ele><time>2026-04-19T09:24:51.999Z</time></trkpt><trkpt lat="38.803630979165774" lon="16.340143089332884"><ele>560.5</ele><time>2026-04-19T09:24:54.999Z</time></trkpt><trkpt lat="38.8036469869414" lon="16.34023165869171"><ele>558.3333333333333</ele><time>2026-04-19T09:24:58.999Z</time></trkpt><trkpt lat="38.80363347819677" lon="16.34033223040968"><ele>556.1666666666666</ele><time>2026-04-19T09:25:03.999Z</time></trkpt><trkpt lat="38.80356819474818" lon="16.340403480556997"><ele>554.0</ele><time>2026-04-19T09:25:07.999Z</time></trkpt><trkpt lat="38.80353838899624" lon="16.340493544006744"><ele>554.0</ele><time>2026-04-19T09:25:11.999Z</time></trkpt><trkpt lat="38.80360033119265" lon="16.34051158190648"><ele>554.0</ele><time>2026-04-19T09:25:15.999Z</time></trkpt><trkpt lat="38.803716849232885" lon="16.340484854844263"><ele>554.0</ele><time>2026-04-19T09:25:17.999Z</time></trkpt><trkpt lat="38.803785473156196" lon="16.340421023143854"><ele>554.0</ele><time>2026-04-19T09:25:19.999Z</time></trkpt><trkpt lat="38.803880329826825" lon="16.34041520085009"><ele>554.0</ele><time>2026-04-19T09:25:21.999Z</time></trkpt><trkpt lat="38.803946375969325" lon="16.34040794426224"><ele>554.0</ele><time>2026-04-19T09:25:22.999Z</time></trkpt><trkpt lat="38.8040160669806" lon="16.34039697779709"><ele>554.0</ele><time>2026-04-19T09:25:23.999Z</time></trkpt><trkpt lat="38.80410377609416" lon="16.340378687106494"><ele>554.0</ele><time>2026-04-19T09:25:24.999Z</time></trkpt><trkpt lat="38.80418757527752" lon="16.340355014727525"><ele>554.0</ele><time>2026-04-19T09:25:25.999Z</time></trkpt><trkpt lat="38.8042662867761" lon="16.34032179372757"><ele>554.0</ele><time>2026-04-19T09:25:26.999Z</time></trkpt><trkpt lat="38.804367217909814" lon="16.340329318061666"><ele>554.0</ele><time>2026-04-19T09:25:27.999Z</time></trkpt><trkpt lat="38.80445419358293" lon="16.340347079910046"><ele>554.0</ele><time>2026-04-19T09:25:28.999Z</time></trkpt><trkpt lat="38.804556434431724" lon="16.340391068959292"><ele>555.0</ele><time>2026-04-19T09:25:29.999Z</time></trkpt><trkpt lat="38.80464021639873" lon="16.340421535522868"><ele>556.0</ele><time>2026-04-19T09:25:30.999Z</time></trkpt><trkpt lat="38.80471531319656" lon="16.340454414592212"><ele>557.0</ele><time>2026-04-19T09:25:31.999Z</time></trkpt><trkpt lat="38.804780765989086" lon="16.340482303777314"><ele>558.0</ele><time>2026-04-19T09:25:32.999Z</time></trkpt><trkpt lat="38.8048502086768" lon="16.340533852169145"><ele>559.0</ele><time>2026-04-19T09:25:33.999Z</time></trkpt><trkpt lat="38.804907526975505" lon="16.3405822610213"><ele>560.0</ele><time>2026-04-19T09:25:34.999Z</time></trkpt><trkpt lat="38.80495454693256" lon="16.34064415072607"><ele>560.0</ele><time>2026-04-19T09:25:35.999Z</time></trkpt><trkpt lat="38.80500749956493" lon="16.34076215512834"><ele>560.0</ele><time>2026-04-19T09:25:37.999Z</time></trkpt><trkpt lat="38.805043490374395" lon="16.340855767519646"><ele>560.0</ele><time>2026-04-19T09:25:39.999Z</time></trkpt><trkpt lat="38.80498532651038" lon="16.340944388067836"><ele>560.0</ele><time>2026-04-19T09:25:43.999Z</time></trkpt><trkpt lat="38.80487385249368" lon="16.34093662779915"><ele>560.0</ele><time>2026-04-19T09:25:45.999Z</time></trkpt><trkpt lat="38.804801816546686" lon="16.340943865708375"><ele>560.0</ele><time>2026-04-19T09:25:46.999Z</time></trkpt><trkpt lat="38.804733904547184" lon="16.340956066936137"><ele>560.0</ele><time>2026-04-19T09:25:47.999Z</time></trkpt><trkpt lat="38.80467024092551" lon="16.340976008703205"><ele>560.0</ele><time>2026-04-19T09:25:48.999Z</time></trkpt><trkpt lat="38.804581351269015" lon="16.3410418588475"><ele>560.0</ele><time>2026-04-19T09:25:50.999Z</time></trkpt><trkpt lat="38.804536140866055" lon="16.341162202994866"><ele>560.0</ele><time>2026-04-19T09:25:52.999Z</time></trkpt><trkpt lat="38.80449631922383" lon="16.341283992210734"><ele>560.0</ele><time>2026-04-19T09:25:54.999Z</time></trkpt><trkpt lat="38.80445595940027" lon="16.34140616076117"><ele>562.1666666666666</ele><time>2026-04-19T09:25:56.999Z</time></trkpt><trkpt lat="38.80440965382417" lon="16.341534613213614"><ele>564.3333333333333</ele><time>2026-04-19T09:25:58.999Z</time></trkpt><trkpt lat="38.80436812784797" lon="16.341615831913384"><ele>566.5</ele><time>2026-04-19T09:25:59.999Z</time></trkpt><trkpt lat="38.8043245509746" lon="16.341679505737247"><ele>568.6666666666666</ele><time>2026-04-19T09:26:00.999Z</time></trkpt><trkpt lat="38.80422612702105" lon="16.341758681762524"><ele>570.8333333333334</ele><time>2026-04-19T09:26:02.999Z</time></trkpt><trkpt lat="38.804167167365506" lon="16.341807613746127"><ele>573.0</ele><time>2026-04-19T09:26:03.999Z</time></trkpt><trkpt lat="38.804108184233584" lon="16.34187646236901"><ele>576.0</ele><time>2026-04-19T09:26:04.999Z</time></trkpt><trkpt lat="38.80403207147084" lon="16.341994795520407"><ele>579.0</ele><time>2026-04-19T09:26:06.999Z</time></trkpt><trkpt lat="38.803981659133264" lon="16.34205861915809"><ele>582.0</ele><time>2026-04-19T09:26:07.999Z</time></trkpt><trkpt lat="38.80401642964946" lon="16.342309948589218"><ele>585.0</ele><time>2026-04-19T09:26:09.999Z</time></trkpt><trkpt lat="38.80395183820182" lon="16.342357553789615"><ele>587.8333333333334</ele><time>2026-04-19T09:26:11.999Z</time></trkpt><trkpt lat="38.803858058114876" lon="16.342411491906617"><ele>590.6666666666666</ele><time>2026-04-19T09:26:14.999Z</time></trkpt><trkpt lat="38.80384741722063" lon="16.342523230035464"><ele>593.5</ele><time>2026-04-19T09:26:17.999Z</time></trkpt><trkpt lat="38.803815905504656" lon="16.34259431663161"><ele>596.3333333333333</ele><time>2026-04-19T09:26:25.999Z</time></trkpt><trkpt lat="38.803799859661694" lon="16.342675134035584"><ele>599.1666666666666</ele><time>2026-04-19T09:29:24.997Z</time></trkpt><trkpt lat="38.803765075950245" lon="16.342753428617712"><ele>602.0</ele><time>2026-04-19T09:29:33.997Z</time></trkpt><trkpt lat="38.8037436769871" lon="16.342866802954358"><ele>602.0</ele><time>2026-04-19T09:29:35.997Z</time></trkpt><trkpt lat="38.80371137435603" lon="16.342956683980347"><ele>602.0</ele><time>2026-04-19T09:29:36.997Z</time></trkpt><trkpt lat="38.80368735251408" lon="16.343048582798666"><ele>602.0</ele><time>2026-04-19T09:29:37.997Z</time></trkpt><trkpt lat="38.80366808826225" lon="16.343138524121144"><ele>602.0</ele><time>2026-04-19T09:29:38.997Z</time></trkpt><trkpt lat="38.803636203937685" lon="16.343213951064328"><ele>602.0</ele><time>2026-04-19T09:29:39.997Z</time></trkpt><trkpt lat="38.80355794754512" lon="16.34335535923573"><ele>602.0</ele><time>2026-04-19T09:29:41.997Z</time></trkpt><trkpt lat="38.803491876245175" lon="16.34342261030665"><ele>604.6666666666666</ele><time>2026-04-19T09:29:42.997Z</time></trkpt><trkpt lat="38.803426237808864" lon="16.343502991603977"><ele>607.3333333333333</ele><time>2026-04-19T09:29:43.997Z</time></trkpt><trkpt lat="38.80335543841768" lon="16.343589693245107"><ele>610.0</ele><time>2026-04-19T09:29:44.997Z</time></trkpt><trkpt lat="38.80328284689119" lon="16.343681550044632"><ele>612.6666666666666</ele><time>2026-04-19T09:29:45.997Z</time></trkpt><trkpt lat="38.8032225297097" lon="16.343759738499447"><ele>615.3333333333334</ele><time>2026-04-19T09:29:46.997Z</time></trkpt><trkpt lat="38.80317790270665" lon="16.34381758807698"><ele>618.0</ele><time>2026-04-19T09:29:47.997Z</time></trkpt><trkpt lat="38.8031041444446" lon="16.343931709830397"><ele>620.8333333333334</ele><time>2026-04-19T09:29:49.997Z</time></trkpt><trkpt lat="38.80300931038682" lon="16.344025464003725"><ele>623.6666666666666</ele><time>2026-04-19T09:29:51.997Z</time></trkpt><trkpt lat="38.80296034243271" lon="16.344084098729763"><ele>626.5</ele><time>2026-04-19T09:29:52.997Z</time></trkpt><trkpt lat="38.80291167646241" lon="16.34414735790218"><ele>629.3333333333333</ele><time>2026-04-19T09:29:53.999Z</time></trkpt><trkpt lat="38.80285572991864" lon="16.3442209754463"><ele>632.1666666666666</ele><time>2026-04-19T09:29:54.999Z</time></trkpt><trkpt lat="38.80280094747852" lon="16.3443060335922"><ele>635.0</ele><time>2026-04-19T09:29:55.999Z</time></trkpt><trkpt lat="38.802764452219144" lon="16.344393354321557"><ele>635.0</ele><time>2026-04-19T09:29:56.999Z</time></trkpt><trkpt lat="38.80271333554371" lon="16.34445051293951"><ele>635.0</ele><time>2026-04-19T09:29:57.999Z</time></trkpt><trkpt lat="38.80267240026659" lon="16.344512643418113"><ele>635.0</ele><time>2026-04-19T09:29:58.999Z</time></trkpt><trkpt lat="38.80264296380952" lon="16.344595518360205"><ele>635.0</ele><time>2026-04-19T09:30:00Z</time></trkpt><trkpt lat="38.80262454902749" lon="16.344708970472485"><ele>635.0</ele><time>2026-04-19T09:30:01Z</time></trkpt><trkpt lat="38.80262636696264" lon="16.344832773921407"><ele>635.0</ele><time>2026-04-19T09:30:02Z</time></trkpt><trkpt lat="38.80263356309325" lon="16.34496767745616"><ele>636.3333333333333</ele><time>2026-04-19T09:30:03Z</time></trkpt><trkpt lat="38.802676726584714" lon="16.345085291039396"><ele>637.6666666666666</ele><time>2026-04-19T09:30:04Z</time></trkpt><trkpt lat="38.80273007874178" lon="16.34519053399908"><ele>639.0</ele><time>2026-04-19T09:30:05Z</time></trkpt><trkpt lat="38.8027826409416" lon="16.3452754500498"><ele>640.3333333333334</ele><time>2026-04-19T09:30:06Z</time></trkpt><trkpt lat="38.802828191123446" lon="16.345346941915547"><ele>641.6666666666667</ele><time>2026-04-19T09:30:07Z</time></trkpt><trkpt lat="38.80289375153885" lon="16.345390498370136"><ele>643.0</ele><time>2026-04-19T09:30:08Z</time></trkpt><trkpt lat="38.80289634632349" lon="16.345507437495513"><ele>645.0</ele><time>2026-04-19T09:30:10Z</time></trkpt><trkpt lat="38.80285504071185" lon="16.34558469439758"><ele>647.0</ele><time>2026-04-19T09:30:11Z</time></trkpt><trkpt lat="38.80278334190303" lon="16.345631744420288"><ele>649.0</ele><time>2026-04-19T09:30:12Z</time></trkpt><trkpt lat="38.80271363762467" lon="16.345701671577586"><ele>651.0</ele><time>2026-04-19T09:30:13Z</time></trkpt><trkpt lat="38.80268355290138" lon="16.34581545567224"><ele>653.0</ele><time>2026-04-19T09:30:14Z</time></trkpt><trkpt lat="38.8026474565249" lon="16.34592006970669"><ele>655.0</ele><time>2026-04-19T09:30:15Z</time></trkpt><trkpt lat="38.80260680914589" lon="16.34601390354734"><ele>657.3333333333334</ele><time>2026-04-19T09:30:16Z</time></trkpt><trkpt lat="38.802560289073064" lon="16.34611204413649"><ele>659.6666666666667</ele><time>2026-04-19T09:30:17Z</time></trkpt><trkpt lat="38.80251432538593" lon="16.346210718823865"><ele>662.0</ele><time>2026-04-19T09:30:18Z</time></trkpt><trkpt lat="38.802471181724535" lon="16.346305116500844"><ele>664.3333333333334</ele><time>2026-04-19T09:30:19Z</time></trkpt><trkpt lat="38.80242928108965" lon="16.346397072138284"><ele>666.6666666666666</ele><time>2026-04-19T09:30:20Z</time></trkpt><trkpt lat="38.80238751589786" lon="16.346490375562432"><ele>669.0</ele><time>2026-04-19T09:30:21Z</time></trkpt><trkpt lat="38.802349810413766" lon="16.346586730605765"><ele>670.8333333333334</ele><time>2026-04-19T09:30:22Z</time></trkpt><trkpt lat="38.80231477368205" lon="16.346668768160036"><ele>672.6666666666666</ele><time>2026-04-19T09:30:23Z</time></trkpt><trkpt lat="38.802270658487636" lon="16.346758134256966"><ele>674.5</ele><time>2026-04-19T09:30:24Z</time></trkpt><trkpt lat="38.802219740532806" lon="16.346857789355113"><ele>676.3333333333333</ele><time>2026-04-19T09:30:25Z</time></trkpt><trkpt lat="38.80216707385589" lon="16.346964897835324"><ele>678.1666666666666</ele><time>2026-04-19T09:30:26Z</time></trkpt><trkpt lat="38.80211999969036" lon="16.34706627609627"><ele>680.0</ele><time>2026-04-19T09:30:27Z</time></trkpt><trkpt lat="38.80207280848479" lon="16.3471679063016"><ele>680.2</ele><time>2026-04-19T09:30:28Z</time></trkpt><trkpt lat="38.80202234469507" lon="16.347274602668048"><ele>680.4</ele><time>2026-04-19T09:30:29Z</time></trkpt><trkpt lat="38.801973957522904" lon="16.347370541640036"><ele>680.5999999999999</ele><time>2026-04-19T09:30:30Z</time></trkpt><trkpt lat="38.801922649734934" lon="16.34746040127372"><ele>680.8</ele><time>2026-04-19T09:30:31Z</time></trkpt><trkpt lat="38.80186668467504" lon="16.34755563725591"><ele>681.0</ele><time>2026-04-19T09:30:32Z</time></trkpt><trkpt lat="38.80181207905703" lon="16.347652829305087"><ele>683.0</ele><time>2026-04-19T09:30:33Z</time></trkpt><trkpt lat="38.80176746688118" lon="16.347762584295065"><ele>685.0</ele><time>2026-04-19T09:30:34Z</time></trkpt><trkpt lat="38.801714284364266" lon="16.34786236426445"><ele>687.0</ele><time>2026-04-19T09:30:35Z</time></trkpt><trkpt lat="38.801666945796356" lon="16.347973289015894"><ele>689.0</ele><time>2026-04-19T09:30:36Z</time></trkpt><trkpt lat="38.80162637237674" lon="16.348093443939117"><ele>691.0</ele><time>2026-04-19T09:30:37Z</time></trkpt><trkpt lat="38.801584322163976" lon="16.348203891191037"><ele>691.8333333333334</ele><time>2026-04-19T09:30:38Z</time></trkpt><trkpt lat="38.801533038525044" lon="16.348287468882237"><ele>692.6666666666667</ele><time>2026-04-19T09:30:39Z</time></trkpt><trkpt lat="38.801484927011685" lon="16.3484002822404"><ele>693.5</ele><time>2026-04-19T09:30:41Z</time></trkpt><trkpt lat="38.80144851349525" lon="16.348469142293332"><ele>694.3333333333334</ele><time>2026-04-19T09:30:43Z</time></trkpt><trkpt lat="38.80139019452423" lon="16.3485561592364"><ele>695.1666666666666</ele><time>2026-04-19T09:30:46Z</time></trkpt><trkpt lat="38.801369013563935" lon="16.348687339659996"><ele>696.0</ele><time>2026-04-19T09:30:47Z</time></trkpt><trkpt lat="38.801380825061486" lon="16.348799567706198"><ele>698.0</ele><time>2026-04-19T09:30:48Z</time></trkpt><trkpt lat="38.80139600080065" lon="16.348943759642786"><ele>700.0</ele><time>2026-04-19T09:30:49Z</time></trkpt><trkpt lat="38.801411126507666" lon="16.3490874761881"><ele>702.0</ele><time>2026-04-19T09:30:50Z</time></trkpt><trkpt lat="38.80142551807029" lon="16.349233166711645"><ele>704.0</ele><time>2026-04-19T09:30:51Z</time></trkpt><trkpt lat="38.80144038657014" lon="16.349381543536552"><ele>704.0</ele><time>2026-04-19T09:30:52Z</time></trkpt><trkpt lat="38.80146515842327" lon="16.349506379999237"><ele>704.0</ele><time>2026-04-19T09:30:53Z</time></trkpt><trkpt lat="38.80148104297822" lon="16.349616131402403"><ele>704.0</ele><time>2026-04-19T09:30:54Z</time></trkpt><trkpt lat="38.80151927017617" lon="16.349717161782234"><ele>704.0</ele><time>2026-04-19T09:30:55Z</time></trkpt><trkpt lat="38.80158077932744" lon="16.349802242749174"><ele>704.0</ele><time>2026-04-19T09:30:56Z</time></trkpt><trkpt lat="38.80167282538817" lon="16.349856437824197"><ele>704.6666666666666</ele><time>2026-04-19T09:30:57Z</time></trkpt><trkpt lat="38.801757141263295" lon="16.349902958859538"><ele>705.3333333333333</ele><time>2026-04-19T09:30:58Z</time></trkpt><trkpt lat="38.801832768670764" lon="16.34992919535717"><ele>706.0</ele><time>2026-04-19T09:30:59Z</time></trkpt><trkpt lat="38.80189536507312" lon="16.349956104485344"><ele>706.6666666666666</ele><time>2026-04-19T09:31:00Z</time></trkpt><trkpt lat="38.80200346304341" lon="16.35001726868624"><ele>707.3333333333334</ele><time>2026-04-19T09:31:02Z</time></trkpt><trkpt lat="38.80206766046939" lon="16.350037805243627"><ele>708.0</ele><time>2026-04-19T09:31:03Z</time></trkpt><trkpt lat="38.8020816030691" lon="16.35017275042825"><ele>708.0</ele><time>2026-04-19T09:31:04Z</time></trkpt><trkpt lat="38.802066838637636" lon="16.350285954783406"><ele>708.0</ele><time>2026-04-19T09:31:05Z</time></trkpt><trkpt lat="38.80205215642622" lon="16.35039242682147"><ele>708.0</ele><time>2026-04-19T09:31:06Z</time></trkpt><trkpt lat="38.802044929016226" lon="16.350487875758795"><ele>708.0</ele><time>2026-04-19T09:31:06.999Z</time></trkpt><trkpt lat="38.80203331513314" lon="16.350571521270002"><ele>708.0</ele><time>2026-04-19T09:31:07.999Z</time></trkpt><trkpt lat="38.802011514114675" lon="16.350649522300955"><ele>708.0</ele><time>2026-04-19T09:31:08.999Z</time></trkpt><trkpt lat="38.80196737434135" lon="16.350785839187438"><ele>708.8333333333334</ele><time>2026-04-19T09:31:10.999Z</time></trkpt><trkpt lat="38.80193487155357" lon="16.35088117232523"><ele>709.6666666666666</ele><time>2026-04-19T09:31:13.999Z</time></trkpt><trkpt lat="38.801925817519475" lon="16.350999850189204"><ele>710.5</ele><time>2026-04-19T09:31:16.999Z</time></trkpt><trkpt lat="38.801894033077055" lon="16.351085928698666"><ele>711.3333333333333</ele><time>2026-04-19T09:31:18.999Z</time></trkpt><trkpt lat="38.80188632938622" lon="16.35117314993672"><ele>712.1666666666666</ele><time>2026-04-19T09:31:20.999Z</time></trkpt><trkpt lat="38.80186002934724" lon="16.351270199500185"><ele>713.0</ele><time>2026-04-19T09:31:23.999Z</time></trkpt><trkpt lat="38.801844111335924" lon="16.351351636296112"><ele>714.3333333333333</ele><time>2026-04-19T09:31:25.999Z</time></trkpt><trkpt lat="38.801834448303865" lon="16.35145901651589"><ele>715.6666666666666</ele><time>2026-04-19T09:31:28.999Z</time></trkpt><trkpt lat="38.80178463186022" lon="16.351575379971834"><ele>717.0</ele><time>2026-04-19T09:31:31.999Z</time></trkpt><trkpt lat="38.801747205897996" lon="16.35166168159934"><ele>718.3333333333334</ele><time>2026-04-19T09:31:33.999Z</time></trkpt><trkpt lat="38.801712428618394" lon="16.35175634073944"><ele>719.6666666666667</ele><time>2026-04-19T09:31:35.999Z</time></trkpt><trkpt lat="38.80168685534283" lon="16.351840641797907"><ele>721.0</ele><time>2026-04-19T09:31:37.999Z</time></trkpt><trkpt lat="38.801681882234355" lon="16.351930455719337"><ele>722.3333333333334</ele><time>2026-04-19T09:31:39.999Z</time></trkpt><trkpt lat="38.801658401192505" lon="16.352031208718206"><ele>723.6666666666667</ele><time>2026-04-19T09:31:41.999Z</time></trkpt><trkpt lat="38.80160754101059" lon="16.35212938108279"><ele>725.0</ele><time>2026-04-19T09:31:43.999Z</time></trkpt><trkpt lat="38.80157436366422" lon="16.352212477310154"><ele>726.3333333333334</ele><time>2026-04-19T09:31:46.999Z</time></trkpt><trkpt lat="38.80157071318144" lon="16.352310334241377"><ele>727.6666666666666</ele><time>2026-04-19T09:32:03.999Z</time></trkpt><trkpt lat="38.80156200185584" lon="16.352405634982905"><ele>729.0</ele><time>2026-04-19T09:32:06.999Z</time></trkpt><trkpt lat="38.801516603012715" lon="16.352463620384647"><ele>730.0</ele><time>2026-04-19T09:32:18.999Z</time></trkpt><trkpt lat="38.801487906896526" lon="16.352536884630688"><ele>731.0</ele><time>2026-04-19T09:33:35.999Z</time></trkpt><trkpt lat="38.80143688684121" lon="16.35259297964849"><ele>732.0</ele><time>2026-04-19T09:33:42.999Z</time></trkpt><trkpt lat="38.80137727569769" lon="16.352626865474466"><ele>733.0</ele><time>2026-04-19T09:33:57.998Z</time></trkpt><trkpt lat="38.801334596098286" lon="16.352691283905518"><ele>734.0</ele><time>2026-04-19T09:34:04.998Z</time></trkpt><trkpt lat="38.8013027869103" lon="16.352766977068583"><ele>735.0</ele><time>2026-04-19T09:34:10.998Z</time></trkpt><trkpt lat="38.80125454935128" lon="16.352819055750718"><ele>736.0</ele><time>2026-04-19T09:34:14.997Z</time></trkpt><trkpt lat="38.80122543527735" lon="16.35289862731489"><ele>736.0</ele><time>2026-04-19T09:34:17.997Z</time></trkpt><trkpt lat="38.80117490399192" lon="16.352961793880162"><ele>736.0</ele><time>2026-04-19T09:34:20.997Z</time></trkpt><trkpt lat="38.801129895741965" lon="16.353075858924313"><ele>736.0</ele><time>2026-04-19T09:34:23.997Z</time></trkpt><trkpt lat="38.80109024360208" lon="16.353154717350723"><ele>736.0</ele><time>2026-04-19T09:34:25.997Z</time></trkpt><trkpt lat="38.801044370966565" lon="16.353222880671332"><ele>736.0</ele><time>2026-04-19T09:34:27.997Z</time></trkpt><trkpt lat="38.80098247663277" lon="16.353330544595856"><ele>736.0</ele><time>2026-04-19T09:34:29.997Z</time></trkpt><trkpt lat="38.800914784795395" lon="16.353431106197192"><ele>739.3333333333334</ele><time>2026-04-19T09:34:31.997Z</time></trkpt><trkpt lat="38.800841015310105" lon="16.353520621468732"><ele>742.6666666666667</ele><time>2026-04-19T09:34:33.997Z</time></trkpt><trkpt lat="38.800769903802504" lon="16.353610598683357"><ele>746.0</ele><time>2026-04-19T09:34:35.997Z</time></trkpt><trkpt lat="38.80071981707443" lon="16.35369138869864"><ele>749.3333333333334</ele><time>2026-04-19T09:34:37.997Z</time></trkpt><trkpt lat="38.80067299090847" lon="16.353753447832776"><ele>752.6666666666666</ele><time>2026-04-19T09:34:39.997Z</time></trkpt><trkpt lat="38.80060854444946" lon="16.353829063007037"><ele>756.0</ele><time>2026-04-19T09:34:41.997Z</time></trkpt><trkpt lat="38.80055505130999" lon="16.353925371115857"><ele>757.6666666666666</ele><time>2026-04-19T09:34:43.997Z</time></trkpt><trkpt lat="38.80049876963855" lon="16.353999102978204"><ele>759.3333333333334</ele><time>2026-04-19T09:34:45.997Z</time></trkpt><trkpt lat="38.800444511024025" lon="16.35408704168699"><ele>761.0</ele><time>2026-04-19T09:34:47.997Z</time></trkpt><trkpt lat="38.80040763777129" lon="16.35417792146604"><ele>762.6666666666667</ele><time>2026-04-19T09:34:49.997Z</time></trkpt><trkpt lat="38.80037818844685" lon="16.354284439364882"><ele>764.3333333333334</ele><time>2026-04-19T09:34:52.997Z</time></trkpt><trkpt lat="38.80035098195349" lon="16.354366007793566"><ele>766.0</ele><time>2026-04-19T09:34:54.997Z</time></trkpt><trkpt lat="38.80030791489167" lon="16.35444517208988"><ele>766.0</ele><time>2026-04-19T09:34:56.997Z</time></trkpt><trkpt lat="38.80022825983539" lon="16.354528336221716"><ele>766.0</ele><time>2026-04-19T09:34:58.997Z</time></trkpt><trkpt lat="38.80016844798692" lon="16.354597048435366"><ele>766.0</ele><time>2026-04-19T09:35:00.997Z</time></trkpt><trkpt lat="38.800125841873836" lon="16.35466030153197"><ele>766.0</ele><time>2026-04-19T09:35:03.997Z</time></trkpt><trkpt lat="38.80010253536008" lon="16.354738606271926"><ele>766.0</ele><time>2026-04-19T09:35:06.997Z</time></trkpt><trkpt lat="38.80007701501197" lon="16.354829865334917"><ele>766.0</ele><time>2026-04-19T09:35:13.997Z</time></trkpt><trkpt lat="38.80003273153849" lon="16.35489800247373"><ele>768.2857142857142</ele><time>2026-04-19T09:35:17.997Z</time></trkpt><trkpt lat="38.799972519650154" lon="16.35496895067464"><ele>770.5714285714286</ele><time>2026-04-19T09:35:21.997Z</time></trkpt><trkpt lat="38.79992539066108" lon="16.35502771696631"><ele>772.8571428571429</ele><time>2026-04-19T09:35:25.997Z</time></trkpt><trkpt lat="38.799850333094184" lon="16.35508898419672"><ele>775.1428571428571</ele><time>2026-04-19T09:35:28.997Z</time></trkpt><trkpt lat="38.79979607566232" lon="16.355134634448014"><ele>777.4285714285714</ele><time>2026-04-19T09:35:30.997Z</time></trkpt><trkpt lat="38.79973742424492" lon="16.355192470798066"><ele>779.7142857142857</ele><time>2026-04-19T09:35:33.997Z</time></trkpt><trkpt lat="38.79968905269865" lon="16.355257891076125"><ele>782.0</ele><time>2026-04-19T09:35:36.997Z</time></trkpt><trkpt lat="38.799632798122175" lon="16.35531364723208"><ele>781.9999999999999</ele><time>2026-04-19T09:35:44.997Z</time></trkpt><trkpt lat="38.799575994604105" lon="16.355349161937724"><ele>782.0</ele><time>2026-04-19T09:35:50.997Z</time></trkpt><trkpt lat="38.799507942324475" lon="16.355388201411138"><ele>782.0</ele><time>2026-04-19T09:35:53.997Z</time></trkpt><trkpt lat="38.79944900203595" lon="16.35546516114879"><ele>782.0</ele><time>2026-04-19T09:35:57.997Z</time></trkpt><trkpt lat="38.799394492682005" lon="16.355510264598013"><ele>782.0</ele><time>2026-04-19T09:36:03.997Z</time></trkpt><trkpt lat="38.799350002389666" lon="16.355579113156285"><ele>781.9999999999999</ele><time>2026-04-19T09:36:13.997Z</time></trkpt><trkpt lat="38.79929988663384" lon="16.355661424303886"><ele>782.0</ele><time>2026-04-19T09:36:17.997Z</time></trkpt><trkpt lat="38.79925872233456" lon="16.35575609909711"><ele>783.4285714285713</ele><time>2026-04-19T09:36:21.997Z</time></trkpt><trkpt lat="38.799216984996725" lon="16.3558181824008"><ele>784.8571428571429</ele><time>2026-04-19T09:36:25.997Z</time></trkpt><trkpt lat="38.79916742798901" lon="16.35588946524224"><ele>786.2857142857142</ele><time>2026-04-19T09:36:28.997Z</time></trkpt><trkpt lat="38.799143463389434" lon="16.355965867381627"><ele>787.7142857142857</ele><time>2026-04-19T09:36:31.996Z</time></trkpt><trkpt lat="38.79910182102265" lon="16.356042140631203"><ele>789.1428571428571</ele><time>2026-04-19T09:36:34.996Z</time></trkpt><trkpt lat="38.79905354118344" lon="16.35610124676299"><ele>790.5714285714286</ele><time>2026-04-19T09:36:38.996Z</time></trkpt><trkpt lat="38.79896984893716" lon="16.356081946827317"><ele>792.0</ele><time>2026-04-19T09:36:41.996Z</time></trkpt><trkpt lat="38.798922608580895" lon="16.35600806078969"><ele>792.0</ele><time>2026-04-19T09:36:43.996Z</time></trkpt><trkpt lat="38.798860328206906" lon="16.35593379916146"><ele>792.0</ele><time>2026-04-19T09:36:45.996Z</time></trkpt><trkpt lat="38.798792696224005" lon="16.35589407275675"><ele>792.0</ele><time>2026-04-19T09:36:47.996Z</time></trkpt><trkpt lat="38.7987283750128" lon="16.355916337072077"><ele>792.0</ele><time>2026-04-19T09:36:49.996Z</time></trkpt><trkpt lat="38.79866497846251" lon="16.355940663178814"><ele>792.0</ele><time>2026-04-19T09:36:50.996Z</time></trkpt><trkpt lat="38.79859554153063" lon="16.35598425004301"><ele>792.0</ele><time>2026-04-19T09:36:52.996Z</time></trkpt><trkpt lat="38.798535538400536" lon="16.356015399421178"><ele>792.0</ele><time>2026-04-19T09:36:54.996Z</time></trkpt><trkpt lat="38.79846962782591" lon="16.356021565365335"><ele>792.6666666666666</ele><time>2026-04-19T09:36:56.996Z</time></trkpt><trkpt lat="38.7983896006817" lon="16.35602939637754"><ele>793.3333333333333</ele><time>2026-04-19T09:37:01.998Z</time></trkpt><trkpt lat="38.798322407215814" lon="16.356053328309283"><ele>794.0</ele><time>2026-04-19T09:37:04.998Z</time></trkpt><trkpt lat="38.79825652037641" lon="16.35608887852386"><ele>794.6666666666666</ele><time>2026-04-19T09:37:08.999Z</time></trkpt><trkpt lat="38.7981875939471" lon="16.356146659327525"><ele>795.3333333333333</ele><time>2026-04-19T09:37:11.999Z</time></trkpt><trkpt lat="38.79812482282737" lon="16.356195383554375"><ele>796.0</ele><time>2026-04-19T09:37:14.999Z</time></trkpt><trkpt lat="38.79804507894243" lon="16.356240680211265"><ele>795.9999999999999</ele><time>2026-04-19T09:37:17.999Z</time></trkpt><trkpt lat="38.79800283805924" lon="16.356302571299494"><ele>796.0</ele><time>2026-04-19T09:37:20.999Z</time></trkpt><trkpt lat="38.7979532557414" lon="16.35636634100399"><ele>796.0</ele><time>2026-04-19T09:37:25.999Z</time></trkpt><trkpt lat="38.7978845911945" lon="16.356407642610673"><ele>796.0</ele><time>2026-04-19T09:37:30.999Z</time></trkpt><trkpt lat="38.79781689526852" lon="16.356466640148263"><ele>796.0</ele><time>2026-04-19T09:37:34.999Z</time></trkpt><trkpt lat="38.79777142624442" lon="16.356533705711257"><ele>795.9999999999999</ele><time>2026-04-19T09:37:37.999Z</time></trkpt><trkpt lat="38.79773962550569" lon="16.3566077220095"><ele>796.0</ele><time>2026-04-19T09:37:41.999Z</time></trkpt><trkpt lat="38.79765749543703" lon="16.356574778511067"><ele>796.9999999999999</ele><time>2026-04-19T09:37:47.999Z</time></trkpt><trkpt lat="38.79756730934161" lon="16.356522794816676"><ele>798.0</ele><time>2026-04-19T09:37:50.999Z</time></trkpt><trkpt lat="38.797500080334764" lon="16.35650484745219"><ele>799.0</ele><time>2026-04-19T09:37:52.999Z</time></trkpt><trkpt lat="38.79742656792861" lon="16.356499497965423"><ele>800.0</ele><time>2026-04-19T09:37:54.999Z</time></trkpt><trkpt lat="38.79735777550836" lon="16.356579384729535"><ele>800.9999999999999</ele><time>2026-04-19T09:37:56.999Z</time></trkpt><trkpt lat="38.79731998890543" lon="16.356684428544753"><ele>802.0</ele><time>2026-04-19T09:37:58.999Z</time></trkpt><trkpt lat="38.797292741432834" lon="16.356759945099828"><ele>801.9999999999999</ele><time>2026-04-19T09:38:00.999Z</time></trkpt><trkpt lat="38.79727782003971" lon="16.356880594813806"><ele>802.0</ele><time>2026-04-19T09:38:03.999Z</time></trkpt><trkpt lat="38.79728024364974" lon="16.356982717674118"><ele>802.0</ele><time>2026-04-19T09:38:06.999Z</time></trkpt><trkpt lat="38.79723080559733" lon="16.357081859871933"><ele>802.0</ele><time>2026-04-19T09:38:09.999Z</time></trkpt><trkpt lat="38.79720087827951" lon="16.357161546504447"><ele>801.9999999999999</ele><time>2026-04-19T09:38:12.999Z</time></trkpt><trkpt lat="38.797186859196074" lon="16.357243598679155"><ele>802.0</ele><time>2026-04-19T09:38:15.999Z</time></trkpt><trkpt lat="38.79715750526198" lon="16.35733593890153"><ele>804.8333333333333</ele><time>2026-04-19T09:38:18.999Z</time></trkpt><trkpt lat="38.79717560984627" lon="16.35742208131087"><ele>807.6666666666666</ele><time>2026-04-19T09:38:23.999Z</time></trkpt><trkpt lat="38.797113196188775" lon="16.357485016569775"><ele>810.5</ele><time>2026-04-19T09:38:26.999Z</time></trkpt><trkpt lat="38.79704228706456" lon="16.35751274303668"><ele>813.3333333333333</ele><time>2026-04-19T09:38:28.999Z</time></trkpt><trkpt lat="38.79696281893312" lon="16.357537034500158"><ele>816.1666666666666</ele><time>2026-04-19T09:38:30.999Z</time></trkpt><trkpt lat="38.7968509439813" lon="16.357560272781008"><ele>819.0</ele><time>2026-04-19T09:38:32.999Z</time></trkpt><trkpt lat="38.79674421102783" lon="16.35765765869592"><ele>820.5</ele><time>2026-04-19T09:38:34.999Z</time></trkpt><trkpt lat="38.7966595944556" lon="16.357674682684202"><ele>822.0</ele><time>2026-04-19T09:38:36.999Z</time></trkpt><trkpt lat="38.796586207844" lon="16.357672678504745"><ele>823.5</ele><time>2026-04-19T09:38:38.999Z</time></trkpt><trkpt lat="38.79652029917177" lon="16.357701121677252"><ele>825.0</ele><time>2026-04-19T09:38:40.999Z</time></trkpt><trkpt lat="38.79643829668863" lon="16.357743598414707"><ele>826.5</ele><time>2026-04-19T09:38:46.999Z</time></trkpt><trkpt lat="38.796329168355406" lon="16.357804387814166"><ele>828.0</ele><time>2026-04-19T09:38:48.999Z</time></trkpt><trkpt lat="38.796270242569435" lon="16.35784768140621"><ele>828.0</ele><time>2026-04-19T09:38:49.999Z</time></trkpt><trkpt lat="38.79616352283816" lon="16.357903422225295"><ele>828.0</ele><time>2026-04-19T09:38:51.999Z</time></trkpt><trkpt lat="38.796045235263286" lon="16.35794500823595"><ele>828.0</ele><time>2026-04-19T09:38:53.999Z</time></trkpt><trkpt lat="38.79597412534573" lon="16.357984180243726"><ele>828.0</ele><time>2026-04-19T09:38:54.999Z</time></trkpt><trkpt lat="38.79589504299662" lon="16.358027954621917"><ele>828.0</ele><time>2026-04-19T09:38:55.999Z</time></trkpt><trkpt lat="38.79582012675824" lon="16.35807153431058"><ele>832.0</ele><time>2026-04-19T09:38:56.999Z</time></trkpt><trkpt lat="38.79575013388043" lon="16.358101748017223"><ele>836.0</ele><time>2026-04-19T09:38:57.999Z</time></trkpt><trkpt lat="38.79568224344239" lon="16.358148191291306"><ele>840.0</ele><time>2026-04-19T09:38:58.999Z</time></trkpt><trkpt lat="38.79561627735759" lon="16.358192775390545"><ele>844.0</ele><time>2026-04-19T09:38:59.999Z</time></trkpt><trkpt lat="38.795506647948876" lon="16.358230329300504"><ele>848.0</ele><time>2026-04-19T09:39:01.999Z</time></trkpt><trkpt lat="38.79538974370585" lon="16.358250357871963"><ele>848.0000000000001</ele><time>2026-04-19T09:39:03.999Z</time></trkpt><trkpt lat="38.795340234684055" lon="16.358315674549836"><ele>848.0</ele><time>2026-04-19T09:39:04.999Z</time></trkpt><trkpt lat="38.79527189482014" lon="16.35838317860045"><ele>848.0</ele><time>2026-04-19T09:39:05.999Z</time></trkpt><trkpt lat="38.79519144451157" lon="16.358444205970628"><ele>848.0</ele><time>2026-04-19T09:39:06.999Z</time></trkpt><trkpt lat="38.795109083290136" lon="16.358501080139064"><ele>848.0000000000001</ele><time>2026-04-19T09:39:07.999Z</time></trkpt><trkpt lat="38.79502705030493" lon="16.35855989396266"><ele>848.0</ele><time>2026-04-19T09:39:08.999Z</time></trkpt><trkpt lat="38.79495440479868" lon="16.35859856623066"><ele>850.0000000000001</ele><time>2026-04-19T09:39:09.999Z</time></trkpt><trkpt lat="38.79489547398523" lon="16.358633925965552"><ele>852.0</ele><time>2026-04-19T09:39:10.999Z</time></trkpt><trkpt lat="38.79480415684746" lon="16.358738339969182"><ele>854.0</ele><time>2026-04-19T09:39:12.999Z</time></trkpt><trkpt lat="38.79474281667873" lon="16.35884965115504"><ele>856.0</ele><time>2026-04-19T09:39:14.999Z</time></trkpt><trkpt lat="38.79469589782359" lon="16.358905669934355"><ele>858.0000000000001</ele><time>2026-04-19T09:39:15.999Z</time></trkpt><trkpt lat="38.79465138654027" lon="16.358964814379966"><ele>860.0</ele><time>2026-04-19T09:39:16.999Z</time></trkpt><trkpt lat="38.79458174049213" lon="16.359071583991934"><ele>863.0</ele><time>2026-04-19T09:39:18.999Z</time></trkpt><trkpt lat="38.7945158916944" lon="16.359167031297297"><ele>866.0</ele><time>2026-04-19T09:39:20.999Z</time></trkpt><trkpt lat="38.7944402643592" lon="16.35927429420743"><ele>869.0</ele><time>2026-04-19T09:39:22.999Z</time></trkpt><trkpt lat="38.79439731323263" lon="16.359422960589214"><ele>872.0</ele><time>2026-04-19T09:39:24.999Z</time></trkpt><trkpt lat="38.794379308369585" lon="16.35956576321041"><ele>875.0</ele><time>2026-04-19T09:39:26.999Z</time></trkpt><trkpt lat="38.79440196795458" lon="16.35968157684656"><ele>876.5000000000001</ele><time>2026-04-19T09:39:28.999Z</time></trkpt><trkpt lat="38.79438151780604" lon="16.359767099227216"><ele>878.0</ele><time>2026-04-19T09:39:30.999Z</time></trkpt><trkpt lat="38.794313792251245" lon="16.3597764458664"><ele>879.5</ele><time>2026-04-19T09:39:31.999Z</time></trkpt><trkpt lat="38.79423001851962" lon="16.359757917412203"><ele>881.0</ele><time>2026-04-19T09:39:32.999Z</time></trkpt><trkpt lat="38.79415471496099" lon="16.35972553587192"><ele>882.5000000000001</ele><time>2026-04-19T09:39:33.999Z</time></trkpt><trkpt lat="38.79405289260933" lon="16.35971570847473"><ele>884.0</ele><time>2026-04-19T09:39:35.999Z</time></trkpt><trkpt lat="38.79401662794157" lon="16.359786416119633"><ele>884.0000000000001</ele><time>2026-04-19T09:39:38.999Z</time></trkpt><trkpt lat="38.79403043519987" lon="16.359915673965936"><ele>884.0</ele><time>2026-04-19T09:39:42.999Z</time></trkpt><trkpt lat="38.79404856703435" lon="16.360003316112845"><ele>884.0</ele><time>2026-04-19T09:39:43.999Z</time></trkpt><trkpt lat="38.79406932925141" lon="16.360097468028084"><ele>884.0</ele><time>2026-04-19T09:39:44.999Z</time></trkpt><trkpt lat="38.794078451614276" lon="16.36018915880118"><ele>884.0000000000001</ele><time>2026-04-19T09:39:45.999Z</time></trkpt><trkpt lat="38.7940690651269" lon="16.36027432202188"><ele>884.0</ele><time>2026-04-19T09:39:46.999Z</time></trkpt><trkpt lat="38.79404430635229" lon="16.360415529234984"><ele>884.0</ele><time>2026-04-19T09:39:48.999Z</time></trkpt><trkpt lat="38.79396453355218" lon="16.360495400973505"><ele>884.0000000000001</ele><time>2026-04-19T09:39:50.999Z</time></trkpt><trkpt lat="38.79387496788173" lon="16.360604464621584"><ele>884.0000000000001</ele><time>2026-04-19T09:39:52.999Z</time></trkpt><trkpt lat="38.79379374766309" lon="16.36069912334679"><ele>884.0</ele><time>2026-04-19T09:39:54.999Z</time></trkpt><trkpt lat="38.79372273052032" lon="16.360767733779348"><ele>884.0</ele><time>2026-04-19T09:39:56.999Z</time></trkpt><trkpt lat="38.793674652036636" lon="16.3608581854276"><ele>883.2857142857143</ele><time>2026-04-19T09:39:58.999Z</time></trkpt><trkpt lat="38.79364447465739" lon="16.36095150093556"><ele>882.5714285714286</ele><time>2026-04-19T09:40:00.999Z</time></trkpt><trkpt lat="38.79359786686438" lon="16.361033402275748"><ele>881.8571428571429</ele><time>2026-04-19T09:40:03.999Z</time></trkpt><trkpt lat="38.79355458923189" lon="16.36110656971769"><ele>881.1428571428571</ele><time>2026-04-19T09:40:05.999Z</time></trkpt><trkpt lat="38.79352254476862" lon="16.361190334157932"><ele>880.4285714285714</ele><time>2026-04-19T09:40:07.999Z</time></trkpt><trkpt lat="38.79351286006172" lon="16.361271154861832"><ele>879.7142857142858</ele><time>2026-04-19T09:40:08.999Z</time></trkpt><trkpt lat="38.793507637373516" lon="16.3613598621959"><ele>879.0</ele><time>2026-04-19T09:40:09.999Z</time></trkpt><trkpt lat="38.793505650428465" lon="16.361502723741182"><ele>876.8000000000001</ele><time>2026-04-19T09:40:11.999Z</time></trkpt><trkpt lat="38.793504013548734" lon="16.36165964373152"><ele>874.6000000000001</ele><time>2026-04-19T09:40:13.999Z</time></trkpt><trkpt lat="38.79350562665794" lon="16.361806930861533"><ele>872.4</ele><time>2026-04-19T09:40:15.999Z</time></trkpt><trkpt lat="38.793508148951815" lon="16.361960086358582"><ele>870.2</ele><time>2026-04-19T09:40:17.999Z</time></trkpt><trkpt lat="38.79349159786167" lon="16.362056148574418"><ele>868.0</ele><time>2026-04-19T09:40:18.999Z</time></trkpt><trkpt lat="38.793487784560114" lon="16.362144694662287"><ele>865.5999999999999</ele><time>2026-04-19T09:40:19.999Z</time></trkpt><trkpt lat="38.79351700183255" lon="16.36227536623046"><ele>863.1999999999999</ele><time>2026-04-19T09:40:21.999Z</time></trkpt><trkpt lat="38.793602557207485" lon="16.362289842304005"><ele>860.8</ele><time>2026-04-19T09:40:23.999Z</time></trkpt><trkpt lat="38.793689496577905" lon="16.362275771302638"><ele>858.4</ele><time>2026-04-19T09:40:24.999Z</time></trkpt><trkpt lat="38.793799945677435" lon="16.362283059457365"><ele>856.0</ele><time>2026-04-19T09:40:25.999Z</time></trkpt><trkpt lat="38.79390608857919" lon="16.362316709716556"><ele>856.0</ele><time>2026-04-19T09:40:26.999Z</time></trkpt><trkpt lat="38.79399371165419" lon="16.362365377952763"><ele>855.9999999999999</ele><time>2026-04-19T09:40:27.999Z</time></trkpt><trkpt lat="38.79405463900206" lon="16.36244524216123"><ele>855.9999999999999</ele><time>2026-04-19T09:40:28.999Z</time></trkpt><trkpt lat="38.794100091802754" lon="16.36254726855847"><ele>856.0</ele><time>2026-04-19T09:40:29.999Z</time></trkpt><trkpt lat="38.794105806294496" lon="16.36267966593533"><ele>856.0</ele><time>2026-04-19T09:40:30.999Z</time></trkpt><trkpt lat="38.79411295246486" lon="16.36281879607429"><ele>855.9999999999999</ele><time>2026-04-19T09:40:31.999Z</time></trkpt><trkpt lat="38.79411911518241" lon="16.362947023676732"><ele>856.0</ele><time>2026-04-19T09:40:32.999Z</time></trkpt><trkpt lat="38.7941247052626" lon="16.363061295410013"><ele>856.0</ele><time>2026-04-19T09:40:33.999Z</time></trkpt><trkpt lat="38.79412418875722" lon="16.363161720767888"><ele>856.0</ele><time>2026-04-19T09:40:34.999Z</time></trkpt><trkpt lat="38.79412063000652" lon="16.363243704728927"><ele>855.9999999999999</ele><time>2026-04-19T09:40:35.999Z</time></trkpt><trkpt lat="38.7941335985562" lon="16.36332795919404"><ele>856.0</ele><time>2026-04-19T09:40:36.999Z</time></trkpt><trkpt lat="38.79419037330633" lon="16.363408986560604"><ele>853.9999999999999</ele><time>2026-04-19T09:40:37.999Z</time></trkpt><trkpt lat="38.79425166719054" lon="16.36348694841801"><ele>852.0</ele><time>2026-04-19T09:40:38.999Z</time></trkpt><trkpt lat="38.79428827588363" lon="16.363566518066257"><ele>850.0</ele><time>2026-04-19T09:40:39.999Z</time></trkpt><trkpt lat="38.794282126170486" lon="16.363705132258048"><ele>848.0</ele><time>2026-04-19T09:40:41.999Z</time></trkpt><trkpt lat="38.794245701003206" lon="16.363816807778715"><ele>845.9999999999999</ele><time>2026-04-19T09:40:43.999Z</time></trkpt><trkpt lat="38.7942199478786" lon="16.36391693399459"><ele>844.0</ele><time>2026-04-19T09:40:45.999Z</time></trkpt><trkpt lat="38.79420899926659" lon="16.363999747975193"><ele>842.8333333333333</ele><time>2026-04-19T09:40:48.999Z</time></trkpt><trkpt lat="38.79418065409251" lon="16.364092598165872"><ele>841.6666666666666</ele><time>2026-04-19T09:40:51.999Z</time></trkpt><trkpt lat="38.794173924230094" lon="16.36419628526668"><ele>840.5</ele><time>2026-04-19T09:40:53.999Z</time></trkpt><trkpt lat="38.79417180648747" lon="16.36428192542411"><ele>839.3333333333333</ele><time>2026-04-19T09:40:55.999Z</time></trkpt><trkpt lat="38.79417733152121" lon="16.364400668758396"><ele>838.1666666666666</ele><time>2026-04-19T09:40:58.999Z</time></trkpt><trkpt lat="38.794186444683184" lon="16.364501995857278"><ele>837.0</ele><time>2026-04-19T09:41:00.999Z</time></trkpt><trkpt lat="38.79419920005111" lon="16.36460005313109"><ele>837.0</ele><time>2026-04-19T09:41:02.999Z</time></trkpt><trkpt lat="38.79421872571896" lon="16.36468096043247"><ele>837.0</ele><time>2026-04-19T09:41:04.999Z</time></trkpt><trkpt lat="38.79421817934581" lon="16.364792460686573"><ele>837.0</ele><time>2026-04-19T09:41:06.999Z</time></trkpt><trkpt lat="38.79420984322744" lon="16.364926449723264"><ele>837.0</ele><time>2026-04-19T09:41:08.999Z</time></trkpt><trkpt lat="38.79417927277285" lon="16.365039283119852"><ele>837.0</ele><time>2026-04-19T09:41:10.999Z</time></trkpt><trkpt lat="38.79418573267024" lon="16.3651842671368"><ele>834.5</ele><time>2026-04-19T09:41:12.999Z</time></trkpt><trkpt lat="38.79417486373915" lon="16.365328415507598"><ele>832.0</ele><time>2026-04-19T09:41:14.999Z</time></trkpt><trkpt lat="38.79415250401016" lon="16.36540429289812"><ele>829.5</ele><time>2026-04-19T09:41:16.999Z</time></trkpt><trkpt lat="38.79411302097194" lon="16.365482796225383"><ele>827.0</ele><time>2026-04-19T09:41:18.999Z</time></trkpt><trkpt lat="38.79407284510941" lon="16.365569994476864"><ele>824.5</ele><time>2026-04-19T09:41:20.998Z</time></trkpt><trkpt lat="38.794034819988404" lon="16.365653881836625"><ele>822.0</ele><time>2026-04-19T09:41:22.998Z</time></trkpt><trkpt lat="38.79400171356262" lon="16.365754967331505"><ele>820.3333333333334</ele><time>2026-04-19T09:41:24.998Z</time></trkpt><trkpt lat="38.79395426342274" lon="16.365880316276034"><ele>818.6666666666667</ele><time>2026-04-19T09:41:26.998Z</time></trkpt><trkpt lat="38.79392826690474" lon="16.366003358131856"><ele>817.0</ele><time>2026-04-19T09:41:28.998Z</time></trkpt><trkpt lat="38.79388621676064" lon="16.366104455148367"><ele>815.3333333333334</ele><time>2026-04-19T09:41:30.998Z</time></trkpt><trkpt lat="38.79384526851739" lon="16.366167866405117"><ele>813.6666666666667</ele><time>2026-04-19T09:41:32.998Z</time></trkpt><trkpt lat="38.793801520699674" lon="16.366225994350547"><ele>812.0</ele><time>2026-04-19T09:41:34.998Z</time></trkpt><trkpt lat="38.79374961282426" lon="16.366289130174046"><ele>810.3333333333334</ele><time>2026-04-19T09:41:37.998Z</time></trkpt><trkpt lat="38.79370884836505" lon="16.36636259673633"><ele>808.6666666666667</ele><time>2026-04-19T09:41:40.998Z</time></trkpt><trkpt lat="38.793665308029254" lon="16.36643495998171"><ele>807.0</ele><time>2026-04-19T09:41:43.998Z</time></trkpt><trkpt lat="38.79362668192332" lon="16.366505641334747"><ele>805.3333333333333</ele><time>2026-04-19T09:41:46.998Z</time></trkpt><trkpt lat="38.79362557385283" lon="16.3666264820837"><ele>803.6666666666666</ele><time>2026-04-19T09:41:49.998Z</time></trkpt><trkpt lat="38.79366755440495" lon="16.36672123560178"><ele>802.0</ele><time>2026-04-19T09:41:52.998Z</time></trkpt><trkpt lat="38.79368002087993" lon="16.366819929665535"><ele>801.9999999999999</ele><time>2026-04-19T09:41:54.998Z</time></trkpt><trkpt lat="38.793701026927785" lon="16.366933812070894"><ele>802.0</ele><time>2026-04-19T09:41:56.998Z</time></trkpt><trkpt lat="38.79372348585434" lon="16.367036251542462"><ele>802.0</ele><time>2026-04-19T09:41:58.998Z</time></trkpt><trkpt lat="38.79376970009944" lon="16.367134291641825"><ele>802.0</ele><time>2026-04-19T09:42:00.998Z</time></trkpt><trkpt lat="38.79371666001713" lon="16.367203609689778"><ele>801.9999999999999</ele><time>2026-04-19T09:42:03.998Z</time></trkpt><trkpt lat="38.793697725695644" lon="16.367297040451156"><ele>802.0</ele><time>2026-04-19T09:42:08.998Z</time></trkpt><trkpt lat="38.793652254971796" lon="16.36736633371304"><ele>800.9999999999999</ele><time>2026-04-19T09:42:11.998Z</time></trkpt><trkpt lat="38.79364503415788" lon="16.36747074404771"><ele>800.0</ele><time>2026-04-19T09:42:15.998Z</time></trkpt><trkpt lat="38.793636693696286" lon="16.36755584474859"><ele>799.0</ele><time>2026-04-19T09:42:18.998Z</time></trkpt><trkpt lat="38.79358974744565" lon="16.36767766140988"><ele>798.0</ele><time>2026-04-19T09:42:55.998Z</time></trkpt><trkpt lat="38.793585932814786" lon="16.367786844600346"><ele>796.9999999999999</ele><time>2026-04-19T09:43:06.998Z</time></trkpt><trkpt lat="38.79362265648098" lon="16.36786886411227"><ele>796.0</ele><time>2026-04-19T09:43:09.998Z</time></trkpt><trkpt lat="38.793655922045886" lon="16.367973836452077"><ele>796.0</ele><time>2026-04-19T09:43:12.998Z</time></trkpt><trkpt lat="38.793663108751765" lon="16.36807388799194"><ele>796.0</ele><time>2026-04-19T09:43:14.998Z</time></trkpt><trkpt lat="38.79368249691361" lon="16.36816392281797"><ele>796.0</ele><time>2026-04-19T09:43:16.998Z</time></trkpt><trkpt lat="38.79370208294927" lon="16.36829417914694"><ele>796.0</ele><time>2026-04-19T09:43:20.998Z</time></trkpt><trkpt lat="38.79371382831717" lon="16.36841988874761"><ele>796.0</ele><time>2026-04-19T09:43:22.998Z</time></trkpt><trkpt lat="38.79378430766605" lon="16.368573390516772"><ele>795.9999999999999</ele><time>2026-04-19T09:43:24.998Z</time></trkpt><trkpt lat="38.7938375508224" lon="16.368663153249596"><ele>796.0</ele><time>2026-04-19T09:43:25.998Z</time></trkpt><trkpt lat="38.79386945546643" lon="16.36876735398474"><ele>796.0</ele><time>2026-04-19T09:43:26.998Z</time></trkpt><trkpt lat="38.793916369381996" lon="16.368868189201688"><ele>796.0</ele><time>2026-04-19T09:43:27.998Z</time></trkpt><trkpt lat="38.793975156464654" lon="16.368948912092538"><ele>795.9999999999999</ele><time>2026-04-19T09:43:28.998Z</time></trkpt><trkpt lat="38.79403435929824" lon="16.369029707860495"><ele>796.0</ele><time>2026-04-19T09:43:29.998Z</time></trkpt><trkpt lat="38.79409847097096" lon="16.369101810828564"><ele>795.5999999999999</ele><time>2026-04-19T09:43:30.998Z</time></trkpt><trkpt lat="38.79416366640857" lon="16.369182434115086"><ele>795.2</ele><time>2026-04-19T09:43:31.998Z</time></trkpt><trkpt lat="38.794217687081854" lon="16.369288248333067"><ele>794.8</ele><time>2026-04-19T09:43:32.998Z</time></trkpt><trkpt lat="38.794272725633846" lon="16.369389506678576"><ele>794.4000000000001</ele><time>2026-04-19T09:43:33.998Z</time></trkpt><trkpt lat="38.79432131598724" lon="16.369494397256954"><ele>794.0</ele><time>2026-04-19T09:43:34.998Z</time></trkpt><trkpt lat="38.79436674155911" lon="16.369620553628707"><ele>794.8000000000001</ele><time>2026-04-19T09:43:35.998Z</time></trkpt><trkpt lat="38.794414136030916" lon="16.36973926507078"><ele>795.6</ele><time>2026-04-19T09:43:36.998Z</time></trkpt><trkpt lat="38.79445974329209" lon="16.369858985053266"><ele>796.4</ele><time>2026-04-19T09:43:37.998Z</time></trkpt><trkpt lat="38.79449767410309" lon="16.36999291867615"><ele>797.2</ele><time>2026-04-19T09:43:38.998Z</time></trkpt><trkpt lat="38.79454578816473" lon="16.370122953348023"><ele>798.0</ele><time>2026-04-19T09:43:39.998Z</time></trkpt><trkpt lat="38.79460396659385" lon="16.37024713605159"><ele>798.0</ele><time>2026-04-19T09:43:40.998Z</time></trkpt><trkpt lat="38.79466839733391" lon="16.370372937185724"><ele>798.0</ele><time>2026-04-19T09:43:41.998Z</time></trkpt><trkpt lat="38.7947263366167" lon="16.370497297502563"><ele>798.0</ele><time>2026-04-19T09:43:42.998Z</time></trkpt><trkpt lat="38.79478123255484" lon="16.37060957031072"><ele>798.0</ele><time>2026-04-19T09:43:43.998Z</time></trkpt><trkpt lat="38.794829400879294" lon="16.370731125032854"><ele>798.0</ele><time>2026-04-19T09:43:44.998Z</time></trkpt><trkpt lat="38.79487719196897" lon="16.370875822997576"><ele>800.25</ele><time>2026-04-19T09:43:45.998Z</time></trkpt><trkpt lat="38.794922193661264" lon="16.371033077722597"><ele>802.5</ele><time>2026-04-19T09:43:46.998Z</time></trkpt><trkpt lat="38.794969101158756" lon="16.37116568523009"><ele>804.75</ele><time>2026-04-19T09:43:47.998Z</time></trkpt><trkpt lat="38.79504051372104" lon="16.37127287683387"><ele>807.0</ele><time>2026-04-19T09:43:48.998Z</time></trkpt><trkpt lat="38.795100658760326" lon="16.37140178969719"><ele>807.0</ele><time>2026-04-19T09:43:49.998Z</time></trkpt><trkpt lat="38.795171937593786" lon="16.37152812377427"><ele>807.0</ele><time>2026-04-19T09:43:50.998Z</time></trkpt><trkpt lat="38.7952438905109" lon="16.371665076305334"><ele>807.0</ele><time>2026-04-19T09:43:51.998Z</time></trkpt><trkpt lat="38.79532373313542" lon="16.371783929961133"><ele>807.0</ele><time>2026-04-19T09:43:52.998Z</time></trkpt><trkpt lat="38.79538052595678" lon="16.371907974374757"><ele>807.0</ele><time>2026-04-19T09:43:53.998Z</time></trkpt><trkpt lat="38.795435941326474" lon="16.37203084334814"><ele>807.0</ele><time>2026-04-19T09:43:54.998Z</time></trkpt><trkpt lat="38.79551831290485" lon="16.372131348918366"><ele>807.0</ele><time>2026-04-19T09:43:55.998Z</time></trkpt><trkpt lat="38.79559501268863" lon="16.372257462119403"><ele>807.0</ele><time>2026-04-19T09:43:56.998Z</time></trkpt><trkpt lat="38.79566568928927" lon="16.372347961685847"><ele>807.0</ele><time>2026-04-19T09:43:57.998Z</time></trkpt><trkpt lat="38.795744240723955" lon="16.372455728962027"><ele>809.25</ele><time>2026-04-19T09:43:58.998Z</time></trkpt><trkpt lat="38.79580707992365" lon="16.37259103320535"><ele>811.5</ele><time>2026-04-19T09:43:59.998Z</time></trkpt><trkpt lat="38.79585264888309" lon="16.372728749737117"><ele>813.75</ele><time>2026-04-19T09:44:00.998Z</time></trkpt><trkpt lat="38.795913707042644" lon="16.37287716173941"><ele>816.0</ele><time>2026-04-19T09:44:01.998Z</time></trkpt><trkpt lat="38.79600896818979" lon="16.3730260311188"><ele>817.25</ele><time>2026-04-19T09:44:02.998Z</time></trkpt><trkpt lat="38.79609892321005" lon="16.37318223244789"><ele>818.5</ele><time>2026-04-19T09:44:03.998Z</time></trkpt><trkpt lat="38.79616330563664" lon="16.373321094417783"><ele>819.75</ele><time>2026-04-19T09:44:04.998Z</time></trkpt><trkpt lat="38.79621495569891" lon="16.373457511640073"><ele>821.0</ele><time>2026-04-19T09:44:06Z</time></trkpt><trkpt lat="38.796265394696064" lon="16.373564301008965"><ele>821.0</ele><time>2026-04-19T09:44:07Z</time></trkpt><trkpt lat="38.796343853142126" lon="16.373649928443992"><ele>821.0</ele><time>2026-04-19T09:44:08Z</time></trkpt><trkpt lat="38.79642767622805" lon="16.37370728654234"><ele>821.0</ele><time>2026-04-19T09:44:09Z</time></trkpt><trkpt lat="38.79654057280439" lon="16.373745782766058"><ele>821.0</ele><time>2026-04-19T09:44:10Z</time></trkpt><trkpt lat="38.7966807687593" lon="16.373776020269016"><ele>821.0</ele><time>2026-04-19T09:44:11Z</time></trkpt><trkpt lat="38.79682460654172" lon="16.37380739263643"><ele>821.0</ele><time>2026-04-19T09:44:12Z</time></trkpt><trkpt lat="38.79695524192209" lon="16.37384176021941"><ele>821.0</ele><time>2026-04-19T09:44:13Z</time></trkpt><trkpt lat="38.79707858590059" lon="16.373870406123697"><ele>821.0</ele><time>2026-04-19T09:44:14Z</time></trkpt><trkpt lat="38.79719068814364" lon="16.37387507060255"><ele>822.0</ele><time>2026-04-19T09:44:15Z</time></trkpt><trkpt lat="38.7972897780387" lon="16.37385572569121"><ele>823.0</ele><time>2026-04-19T09:44:16Z</time></trkpt><trkpt lat="38.79737488236191" lon="16.373799870945554"><ele>824.0</ele><time>2026-04-19T09:44:17Z</time></trkpt><trkpt lat="38.79744003419584" lon="16.373721376407108"><ele>825.0</ele><time>2026-04-19T09:44:18Z</time></trkpt><trkpt lat="38.79747841578194" lon="16.373652493671443"><ele>826.0</ele><time>2026-04-19T09:44:19Z</time></trkpt><trkpt lat="38.7975220679398" lon="16.37352624798859"><ele>826.1666666666666</ele><time>2026-04-19T09:44:21Z</time></trkpt><trkpt lat="38.797537662508496" lon="16.37343295974783"><ele>826.3333333333333</ele><time>2026-04-19T09:44:22Z</time></trkpt><trkpt lat="38.797544517535385" lon="16.373330117512886"><ele>826.5</ele><time>2026-04-19T09:44:23Z</time></trkpt><trkpt lat="38.797541947416555" lon="16.37322028135086"><ele>826.6666666666667</ele><time>2026-04-19T09:44:24Z</time></trkpt><trkpt lat="38.79753314116363" lon="16.373122893520208"><ele>826.8333333333334</ele><time>2026-04-19T09:44:25Z</time></trkpt><trkpt lat="38.79752455506226" lon="16.37298201890118"><ele>827.0</ele><time>2026-04-19T09:44:27Z</time></trkpt><trkpt lat="38.79760441497956" lon="16.372981286238993"><ele>827.4000000000001</ele><time>2026-04-19T09:44:29Z</time></trkpt><trkpt lat="38.79760687664874" lon="16.37312957514716"><ele>827.8000000000001</ele><time>2026-04-19T09:44:31Z</time></trkpt><trkpt lat="38.797583536442865" lon="16.373221930096722"><ele>828.2</ele><time>2026-04-19T09:44:32Z</time></trkpt><trkpt lat="38.797544193444594" lon="16.373350489545054"><ele>828.6</ele><time>2026-04-19T09:44:34Z</time></trkpt><trkpt lat="38.7975203086372" lon="16.373470132793393"><ele>829.0</ele><time>2026-04-19T09:44:36Z</time></trkpt><trkpt lat="38.797494828728745" lon="16.373569202644667"><ele>829.0</ele><time>2026-04-19T09:44:38Z</time></trkpt><trkpt lat="38.79746169728341" lon="16.373643225854153"><ele>829.0</ele><time>2026-04-19T09:44:40Z</time></trkpt><trkpt lat="38.797422173953876" lon="16.373722199921662"><ele>829.0</ele><time>2026-04-19T09:44:48Z</time></trkpt><trkpt lat="38.797350796286025" lon="16.373807720221926"><ele>829.0</ele><time>2026-04-19T09:44:51Z</time></trkpt><trkpt lat="38.79728185229751" lon="16.373851081556808"><ele>829.0</ele><time>2026-04-19T09:44:53Z</time></trkpt><trkpt lat="38.7971448540406" lon="16.373841894721096"><ele>828.9999999999999</ele><time>2026-04-19T09:44:55Z</time></trkpt><trkpt lat="38.79706376591233" lon="16.37383652882894"><ele>829.0</ele><time>2026-04-19T09:44:56Z</time></trkpt><trkpt lat="38.79698900110451" lon="16.37382302398233"><ele>829.0</ele><time>2026-04-19T09:44:57Z</time></trkpt><trkpt lat="38.7969223860846" lon="16.37380386358057"><ele>829.0</ele><time>2026-04-19T09:44:58Z</time></trkpt><trkpt lat="38.79682212918613" lon="16.373769642386584"><ele>828.9999999999999</ele><time>2026-04-19T09:45:00Z</time></trkpt><trkpt lat="38.796835755864905" lon="16.37387557431627"><ele>829.0</ele><time>2026-04-19T09:45:06Z</time></trkpt><trkpt lat="38.79688464613966" lon="16.37394096441936"><ele>828.5714285714286</ele><time>2026-04-19T09:45:07Z</time></trkpt><trkpt lat="38.796935691432" lon="16.37399661776963"><ele>828.1428571428571</ele><time>2026-04-19T09:45:08Z</time></trkpt><trkpt lat="38.796984270323705" lon="16.374057852089607"><ele>827.7142857142858</ele><time>2026-04-19T09:45:09Z</time></trkpt><trkpt lat="38.7970373597885" lon="16.37411893922221"><ele>827.2857142857142</ele><time>2026-04-19T09:45:10Z</time></trkpt><trkpt lat="38.79709713284797" lon="16.374177799614383"><ele>826.8571428571429</ele><time>2026-04-19T09:45:11Z</time></trkpt><trkpt lat="38.79716091998504" lon="16.37424126727885"><ele>826.4285714285714</ele><time>2026-04-19T09:45:12Z</time></trkpt><trkpt lat="38.79722167317614" lon="16.37430757343871"><ele>826.0</ele><time>2026-04-19T09:45:13Z</time></trkpt><trkpt lat="38.797287313873404" lon="16.374358602413523"><ele>826.0</ele><time>2026-04-19T09:45:14Z</time></trkpt><trkpt lat="38.79736570728222" lon="16.37438061667888"><ele>826.0</ele><time>2026-04-19T09:45:15Z</time></trkpt><trkpt lat="38.79744607523493" lon="16.37439176765135"><ele>826.0</ele><time>2026-04-19T09:45:16Z</time></trkpt><trkpt lat="38.797512791577816" lon="16.374427336585832"><ele>826.0</ele><time>2026-04-19T09:45:17Z</time></trkpt><trkpt lat="38.79757109497007" lon="16.374465767045688"><ele>826.0</ele><time>2026-04-19T09:45:18Z</time></trkpt><trkpt lat="38.79763148050227" lon="16.37450472250198"><ele>826.0</ele><time>2026-04-19T09:45:19Z</time></trkpt><trkpt lat="38.7976941339373" lon="16.37456031258443"><ele>826.0</ele><time>2026-04-19T09:45:20Z</time></trkpt><trkpt lat="38.797754679443536" lon="16.37461718246665"><ele>826.5714285714286</ele><time>2026-04-19T09:45:21Z</time></trkpt><trkpt lat="38.797810946372934" lon="16.374670968971667"><ele>827.1428571428571</ele><time>2026-04-19T09:45:22Z</time></trkpt><trkpt lat="38.79786487072592" lon="16.374722039139108"><ele>827.7142857142858</ele><time>2026-04-19T09:45:23Z</time></trkpt><trkpt lat="38.79792188669126" lon="16.37475674776907"><ele>828.2857142857142</ele><time>2026-04-19T09:45:24Z</time></trkpt><trkpt lat="38.797982437429155" lon="16.37478235536536"><ele>828.8571428571429</ele><time>2026-04-19T09:45:25Z</time></trkpt><trkpt lat="38.79805493461595" lon="16.37478094594357"><ele>829.4285714285714</ele><time>2026-04-19T09:45:26Z</time></trkpt><trkpt lat="38.798121497306894" lon="16.37475451408689"><ele>830.0</ele><time>2026-04-19T09:45:27Z</time></trkpt><trkpt lat="38.79822487584337" lon="16.37475307393393"><ele>827.4</ele><time>2026-04-19T09:45:29Z</time></trkpt><trkpt lat="38.798313911994505" lon="16.374817517033232"><ele>824.8</ele><time>2026-04-19T09:45:31Z</time></trkpt><trkpt lat="38.798441349138855" lon="16.374854432695088"><ele>822.2</ele><time>2026-04-19T09:45:33Z</time></trkpt><trkpt lat="38.79850855419178" lon="16.37490293643256"><ele>819.6</ele><time>2026-04-19T09:45:34Z</time></trkpt><trkpt lat="38.79855248080346" lon="16.374974301908615"><ele>817.0</ele><time>2026-04-19T09:45:35Z</time></trkpt><trkpt lat="38.79864003498787" lon="16.375055872908383"><ele>816.6</ele><time>2026-04-19T09:45:37Z</time></trkpt><trkpt lat="38.79873328492129" lon="16.375123807010333"><ele>816.2</ele><time>2026-04-19T09:45:39Z</time></trkpt><trkpt lat="38.798805109438945" lon="16.375214855309764"><ele>815.8</ele><time>2026-04-19T09:45:41Z</time></trkpt><trkpt lat="38.79887371405751" lon="16.375316587699764"><ele>815.4</ele><time>2026-04-19T09:45:43Z</time></trkpt><trkpt lat="38.79894153858939" lon="16.37540311029432"><ele>815.0</ele><time>2026-04-19T09:45:45Z</time></trkpt><trkpt lat="38.79902740015533" lon="16.37544492523477"><ele>815.0</ele><time>2026-04-19T09:45:47Z</time></trkpt><trkpt lat="38.799143467130705" lon="16.37543040161493"><ele>815.0</ele><time>2026-04-19T09:45:49Z</time></trkpt><trkpt lat="38.79921853590143" lon="16.375463949162718"><ele>815.0</ele><time>2026-04-19T09:45:51Z</time></trkpt><trkpt lat="38.79922230694073" lon="16.375580609415763"><ele>815.0</ele><time>2026-04-19T09:45:53Z</time></trkpt><trkpt lat="38.799174612713415" lon="16.375659150049835"><ele>815.0</ele><time>2026-04-19T09:45:54Z</time></trkpt><trkpt lat="38.79912105133354" lon="16.37574842381022"><ele>813.1666666666667</ele><time>2026-04-19T09:45:55Z</time></trkpt><trkpt lat="38.79909169460193" lon="16.375837353078353"><ele>811.3333333333334</ele><time>2026-04-19T09:45:56Z</time></trkpt><trkpt lat="38.79908064696203" lon="16.375923010599955"><ele>809.5</ele><time>2026-04-19T09:45:57Z</time></trkpt><trkpt lat="38.79909775262199" lon="16.376013723770544"><ele>807.6666666666667</ele><time>2026-04-19T09:45:58Z</time></trkpt><trkpt lat="38.79912187208427" lon="16.376118860390683"><ele>805.8333333333334</ele><time>2026-04-19T09:45:59Z</time></trkpt><trkpt lat="38.79918147308936" lon="16.37621167759955"><ele>804.0</ele><time>2026-04-19T09:46:00Z</time></trkpt><trkpt lat="38.79925622205065" lon="16.376275682396205"><ele>804.0</ele><time>2026-04-19T09:46:01Z</time></trkpt><trkpt lat="38.79931705394754" lon="16.376330999239432"><ele>804.0</ele><time>2026-04-19T09:46:02Z</time></trkpt><trkpt lat="38.79938657889567" lon="16.37638107208758"><ele>804.0</ele><time>2026-04-19T09:46:03Z</time></trkpt><trkpt lat="38.799458577338726" lon="16.376444067162993"><ele>804.0</ele><time>2026-04-19T09:46:04Z</time></trkpt><trkpt lat="38.79954291005225" lon="16.376521392859967"><ele>804.0</ele><time>2026-04-19T09:46:05Z</time></trkpt><trkpt lat="38.799645377975516" lon="16.376611056816564"><ele>800.25</ele><time>2026-04-19T09:46:06Z</time></trkpt><trkpt lat="38.799733553355196" lon="16.37673758054419"><ele>796.5</ele><time>2026-04-19T09:46:07Z</time></trkpt><trkpt lat="38.7998206898226" lon="16.3768937251811"><ele>792.75</ele><time>2026-04-19T09:46:08Z</time></trkpt><trkpt lat="38.79989961032864" lon="16.377045871093657"><ele>789.0</ele><time>2026-04-19T09:46:09Z</time></trkpt><trkpt lat="38.79997969863693" lon="16.37715802439061"><ele>787.6</ele><time>2026-04-19T09:46:10Z</time></trkpt><trkpt lat="38.800048342666535" lon="16.37724967419559"><ele>786.2</ele><time>2026-04-19T09:46:11Z</time></trkpt><trkpt lat="38.80009261011436" lon="16.37733161636148"><ele>784.8000000000001</ele><time>2026-04-19T09:46:12Z</time></trkpt><trkpt lat="38.80004117784236" lon="16.377418576885884"><ele>783.4000000000001</ele><time>2026-04-19T09:46:14Z</time></trkpt><trkpt lat="38.799907931893266" lon="16.377401236842452"><ele>782.0</ele><time>2026-04-19T09:46:16Z</time></trkpt><trkpt lat="38.79978015334063" lon="16.377403020559484"><ele>782.0</ele><time>2026-04-19T09:46:17Z</time></trkpt><trkpt lat="38.79963738668495" lon="16.377414389234183"><ele>782.0</ele><time>2026-04-19T09:46:18Z</time></trkpt><trkpt lat="38.79950218912025" lon="16.377427614180924"><ele>782.0</ele><time>2026-04-19T09:46:19Z</time></trkpt><trkpt lat="38.799378317135776" lon="16.377405103303648"><ele>782.0</ele><time>2026-04-19T09:46:20Z</time></trkpt><trkpt lat="38.799256109656056" lon="16.377349675684105"><ele>782.25</ele><time>2026-04-19T09:46:21Z</time></trkpt><trkpt lat="38.79913142336147" lon="16.377283390826587"><ele>782.5</ele><time>2026-04-19T09:46:22Z</time></trkpt><trkpt lat="38.79900144976621" lon="16.37723985825369"><ele>782.75</ele><time>2026-04-19T09:46:23Z</time></trkpt><trkpt lat="38.798901368247996" lon="16.377210444477143"><ele>783.0</ele><time>2026-04-19T09:46:24Z</time></trkpt><trkpt lat="38.798806038093815" lon="16.377180921666174"><ele>784.8</ele><time>2026-04-19T09:46:25Z</time></trkpt><trkpt lat="38.798704960400016" lon="16.377142182747935"><ele>786.5999999999999</ele><time>2026-04-19T09:46:26Z</time></trkpt><trkpt lat="38.79860224356383" lon="16.377088844325094"><ele>788.4000000000001</ele><time>2026-04-19T09:46:27Z</time></trkpt><trkpt lat="38.79849876599081" lon="16.377019680261274"><ele>790.2</ele><time>2026-04-19T09:46:28Z</time></trkpt><trkpt lat="38.79840403433764" lon="16.3769357682003"><ele>792.0</ele><time>2026-04-19T09:46:29Z</time></trkpt><trkpt lat="38.798314050016764" lon="16.376842586488582"><ele>792.0</ele><time>2026-04-19T09:46:30Z</time></trkpt><trkpt lat="38.798210886260755" lon="16.37678060725498"><ele>792.0</ele><time>2026-04-19T09:46:31Z</time></trkpt><trkpt lat="38.79811136500057" lon="16.37677694117372"><ele>792.0</ele><time>2026-04-19T09:46:32Z</time></trkpt><trkpt lat="38.79802165000212" lon="16.376770690730158"><ele>792.0</ele><time>2026-04-19T09:46:33Z</time></trkpt><trkpt lat="38.79792303615791" lon="16.376785304578313"><ele>792.0</ele><time>2026-04-19T09:46:34Z</time></trkpt><trkpt lat="38.79781579952987" lon="16.376771518366663"><ele>792.0</ele><time>2026-04-19T09:46:35Z</time></trkpt><trkpt lat="38.79771821552509" lon="16.376768330363948"><ele>792.0</ele><time>2026-04-19T09:46:36Z</time></trkpt><trkpt lat="38.797625166668304" lon="16.376761268947757"><ele>792.0</ele><time>2026-04-19T09:46:37Z</time></trkpt><trkpt lat="38.79753959445806" lon="16.376745639748506"><ele>792.0</ele><time>2026-04-19T09:46:38Z</time></trkpt><trkpt lat="38.797468007059315" lon="16.376723149394405"><ele>792.0</ele><time>2026-04-19T09:46:39Z</time></trkpt><trkpt lat="38.79736610439094" lon="16.376686023351397"><ele>791.6666666666666</ele><time>2026-04-19T09:46:41Z</time></trkpt><trkpt lat="38.79728376394377" lon="16.37671922752789"><ele>791.3333333333333</ele><time>2026-04-19T09:46:43Z</time></trkpt><trkpt lat="38.79725564530708" lon="16.37679665590178"><ele>791.0</ele><time>2026-04-19T09:46:44Z</time></trkpt><trkpt lat="38.797241707244126" lon="16.376909132290415"><ele>790.6666666666666</ele><time>2026-04-19T09:46:45Z</time></trkpt><trkpt lat="38.79726649827126" lon="16.377033332600973"><ele>790.3333333333333</ele><time>2026-04-19T09:46:46Z</time></trkpt><trkpt lat="38.79728022766956" lon="16.377149022377317"><ele>790.0</ele><time>2026-04-19T09:46:47Z</time></trkpt><trkpt lat="38.797293337197246" lon="16.377245321729212"><ele>789.9999999999999</ele><time>2026-04-19T09:46:48Z</time></trkpt><trkpt lat="38.79730682604412" lon="16.37732987101615"><ele>790.0</ele><time>2026-04-19T09:46:49Z</time></trkpt><trkpt lat="38.797318861495896" lon="16.377412970107606"><ele>790.0</ele><time>2026-04-19T09:46:50Z</time></trkpt><trkpt lat="38.79730532415523" lon="16.377560010152557"><ele>790.0</ele><time>2026-04-19T09:46:52Z</time></trkpt><trkpt lat="38.797232461460666" lon="16.377598258713764"><ele>789.9999999999999</ele><time>2026-04-19T09:46:54Z</time></trkpt><trkpt lat="38.797196422007154" lon="16.377709843052298"><ele>790.0</ele><time>2026-04-19T09:46:56Z</time></trkpt><trkpt lat="38.797175182740524" lon="16.377795527722157"><ele>790.0</ele><time>2026-04-19T09:46:57Z</time></trkpt><trkpt lat="38.797154360258105" lon="16.377886635277118"><ele>790.0</ele><time>2026-04-19T09:46:58Z</time></trkpt><trkpt lat="38.797138189147724" lon="16.377971356738342"><ele>790.0</ele><time>2026-04-19T09:46:59Z</time></trkpt><trkpt lat="38.79743764274618" lon="16.378226431140014"><ele>790.2</ele><time>2026-04-19T09:47:00Z</time></trkpt><trkpt lat="38.797464389577" lon="16.378344724222373"><ele>790.4</ele><time>2026-04-19T09:47:01Z</time></trkpt><trkpt lat="38.7974894587475" lon="16.378460626512283"><ele>790.5999999999999</ele><time>2026-04-19T09:47:02Z</time></trkpt><trkpt lat="38.79751521530696" lon="16.378571023568576"><ele>790.8</ele><time>2026-04-19T09:47:03Z</time></trkpt><trkpt lat="38.79754399087513" lon="16.37868870811362"><ele>791.0</ele><time>2026-04-19T09:47:04Z</time></trkpt><trkpt lat="38.797571660881836" lon="16.378810394193028"><ele>791.0000000000001</ele><time>2026-04-19T09:47:04.999Z</time></trkpt><trkpt lat="38.79759447217365" lon="16.378928941021215"><ele>791.0</ele><time>2026-04-19T09:47:05.999Z</time></trkpt><trkpt lat="38.79761600072776" lon="16.37903945546389"><ele>791.0</ele><time>2026-04-19T09:47:06.999Z</time></trkpt><trkpt lat="38.79764191146344" lon="16.37915228678504"><ele>791.0</ele><time>2026-04-19T09:47:07.999Z</time></trkpt><trkpt lat="38.797657470369245" lon="16.379265660671475"><ele>791.0000000000001</ele><time>2026-04-19T09:47:08.999Z</time></trkpt><trkpt lat="38.797672855472236" lon="16.379361285503037"><ele>791.0</ele><time>2026-04-19T09:47:09.999Z</time></trkpt><trkpt lat="38.79769101312596" lon="16.379448757314336"><ele>788.1666666666667</ele><time>2026-04-19T09:47:10.999Z</time></trkpt><trkpt lat="38.797708999201134" lon="16.379541990829793"><ele>785.3333333333334</ele><time>2026-04-19T09:47:11.999Z</time></trkpt><trkpt lat="38.79773855008332" lon="16.37962568771294"><ele>782.5</ele><time>2026-04-19T09:47:12.999Z</time></trkpt><trkpt lat="38.79780428145682" lon="16.37973292158519"><ele>779.6666666666667</ele><time>2026-04-19T09:47:14.999Z</time></trkpt><trkpt lat="38.79787454960557" lon="16.37985116527155"><ele>776.8333333333334</ele><time>2026-04-19T09:47:16.999Z</time></trkpt><trkpt lat="38.79791599365319" lon="16.379918316425496"><ele>774.0</ele><time>2026-04-19T09:47:17.999Z</time></trkpt><trkpt lat="38.797979373571394" lon="16.38002590271025"><ele>773.4000000000001</ele><time>2026-04-19T09:47:19.999Z</time></trkpt><trkpt lat="38.798002402494205" lon="16.380174884260477"><ele>772.8</ele><time>2026-04-19T09:47:21.999Z</time></trkpt><trkpt lat="38.79801402317775" lon="16.38028375175137"><ele>772.2</ele><time>2026-04-19T09:47:23.999Z</time></trkpt><trkpt lat="38.79801739359721" lon="16.380414661098648"><ele>771.5999999999999</ele><time>2026-04-19T09:47:25.999Z</time></trkpt><trkpt lat="38.79804694044348" lon="16.380528643950417"><ele>771.0</ele><time>2026-04-19T09:47:27.999Z</time></trkpt><trkpt lat="38.79807521653729" lon="16.38060094531494"><ele>770.1666666666666</ele><time>2026-04-19T09:47:28.999Z</time></trkpt><trkpt lat="38.7981027738688" lon="16.38068181677482"><ele>769.3333333333334</ele><time>2026-04-19T09:47:29.999Z</time></trkpt><trkpt lat="38.79813325458958" lon="16.380759799004455"><ele>768.5</ele><time>2026-04-19T09:47:30.999Z</time></trkpt><trkpt lat="38.79815765503767" lon="16.380843527798937"><ele>767.6666666666667</ele><time>2026-04-19T09:47:31.999Z</time></trkpt><trkpt lat="38.79817961055598" lon="16.380935245535213"><ele>766.8333333333334</ele><time>2026-04-19T09:47:32.999Z</time></trkpt><trkpt lat="38.798175110087804" lon="16.381020974071138"><ele>766.0</ele><time>2026-04-19T09:47:33.999Z</time></trkpt><trkpt lat="38.79810871131137" lon="16.38113802860065"><ele>766.0</ele><time>2026-04-19T09:47:35.999Z</time></trkpt><trkpt lat="38.79800002625338" lon="16.38118809830565"><ele>766.0</ele><time>2026-04-19T09:47:37.999Z</time></trkpt><trkpt lat="38.79789558951009" lon="16.381201321412448"><ele>766.0</ele><time>2026-04-19T09:47:39.999Z</time></trkpt><trkpt lat="38.79781572412312" lon="16.38122362810132"><ele>766.0</ele><time>2026-04-19T09:47:41.999Z</time></trkpt><trkpt lat="38.79772271495203" lon="16.381223688658785"><ele>766.0</ele><time>2026-04-19T09:47:43.999Z</time></trkpt><trkpt lat="38.79762210757786" lon="16.38121371151623"><ele>765.5</ele><time>2026-04-19T09:47:45.999Z</time></trkpt><trkpt lat="38.79750524522572" lon="16.38119537984806"><ele>765.0</ele><time>2026-04-19T09:47:47.999Z</time></trkpt><trkpt lat="38.79744116536542" lon="16.381194635081656"><ele>764.5</ele><time>2026-04-19T09:47:48.999Z</time></trkpt><trkpt lat="38.79731761631316" lon="16.381184419618673"><ele>764.0</ele><time>2026-04-19T09:47:50.999Z</time></trkpt><trkpt lat="38.797248118312964" lon="16.381185390978086"><ele>763.5</ele><time>2026-04-19T09:47:51.999Z</time></trkpt><trkpt lat="38.797185569743974" lon="16.381205443063315"><ele>763.0</ele><time>2026-04-19T09:47:52.999Z</time></trkpt><trkpt lat="38.7970761584648" lon="16.381249615250518"><ele>763.0</ele><time>2026-04-19T09:47:54.999Z</time></trkpt><trkpt lat="38.79698549350009" lon="16.381296064034405"><ele>763.0</ele><time>2026-04-19T09:47:56.999Z</time></trkpt><trkpt lat="38.79690102861454" lon="16.38138572191783"><ele>763.0</ele><time>2026-04-19T09:47:58.999Z</time></trkpt><trkpt lat="38.79683573879775" lon="16.381511692125475"><ele>763.0</ele><time>2026-04-19T09:48:00.999Z</time></trkpt><trkpt lat="38.79680198056091" lon="16.38162385476231"><ele>763.0</ele><time>2026-04-19T09:48:02.999Z</time></trkpt><trkpt lat="38.796769093005196" lon="16.381734731691715"><ele>759.0</ele><time>2026-04-19T09:48:04.999Z</time></trkpt><trkpt lat="38.79677851486099" lon="16.3818366971656"><ele>755.0</ele><time>2026-04-19T09:48:06.999Z</time></trkpt><trkpt lat="38.79678986468385" lon="16.38192940115077"><ele>751.0</ele><time>2026-04-19T09:48:11.999Z</time></trkpt><trkpt lat="38.79670353150325" lon="16.382036344266808"><ele>747.0</ele><time>2026-04-19T09:48:15.999Z</time></trkpt><trkpt lat="38.796710181459176" lon="16.38213233423417"><ele>743.0</ele><time>2026-04-19T09:48:17.999Z</time></trkpt><trkpt lat="38.796719298308496" lon="16.382274800755884"><ele>740.8</ele><time>2026-04-19T09:48:19.999Z</time></trkpt><trkpt lat="38.79669729735092" lon="16.382406252487858"><ele>738.5999999999999</ele><time>2026-04-19T09:48:21.999Z</time></trkpt><trkpt lat="38.79669080356347" lon="16.382491841505196"><ele>736.4000000000001</ele><time>2026-04-19T09:48:23.999Z</time></trkpt><trkpt lat="38.796555511362705" lon="16.382590365852245"><ele>734.2</ele><time>2026-04-19T09:48:25.999Z</time></trkpt><trkpt lat="38.79644412395122" lon="16.382598074544564"><ele>732.0</ele><time>2026-04-19T09:48:27.999Z</time></trkpt><trkpt lat="38.796370417647815" lon="16.38259936506971"><ele>732.0</ele><time>2026-04-19T09:48:28.999Z</time></trkpt><trkpt lat="38.796289416184564" lon="16.382595957496072"><ele>732.0</ele><time>2026-04-19T09:48:29.999Z</time></trkpt><trkpt lat="38.796215716206575" lon="16.38259152076013"><ele>732.0</ele><time>2026-04-19T09:48:30.999Z</time></trkpt><trkpt lat="38.79613404245947" lon="16.382600669273728"><ele>732.0</ele><time>2026-04-19T09:48:31.999Z</time></trkpt><trkpt lat="38.79604985326095" lon="16.382580276417997"><ele>732.0</ele><time>2026-04-19T09:48:32.999Z</time></trkpt><trkpt lat="38.79596803583702" lon="16.382572633324735"><ele>732.0</ele><time>2026-04-19T09:48:33.999Z</time></trkpt><trkpt lat="38.795889846908274" lon="16.382573276408742"><ele>730.3333333333334</ele><time>2026-04-19T09:48:34.999Z</time></trkpt><trkpt lat="38.7957953005287" lon="16.38257514754136"><ele>728.6666666666666</ele><time>2026-04-19T09:48:35.999Z</time></trkpt><trkpt lat="38.79572010216906" lon="16.38257490736704"><ele>727.0</ele><time>2026-04-19T09:48:36.999Z</time></trkpt><trkpt lat="38.795637548714346" lon="16.382569220964687"><ele>725.3333333333333</ele><time>2026-04-19T09:48:37.999Z</time></trkpt><trkpt lat="38.795557511380935" lon="16.382515261049267"><ele>723.6666666666666</ele><time>2026-04-19T09:48:38.999Z</time></trkpt><trkpt lat="38.79548067213659" lon="16.38247083716867"><ele>722.0</ele><time>2026-04-19T09:48:39.999Z</time></trkpt><trkpt lat="38.79541508750444" lon="16.382439171960417"><ele>722.0</ele><time>2026-04-19T09:48:40.999Z</time></trkpt><trkpt lat="38.79533284874116" lon="16.38237739898127"><ele>722.0</ele><time>2026-04-19T09:48:42.999Z</time></trkpt><trkpt lat="38.79526778564935" lon="16.382319105505985"><ele>722.0</ele><time>2026-04-19T09:48:44.999Z</time></trkpt><trkpt lat="38.795197364849955" lon="16.3822821282624"><ele>722.0</ele><time>2026-04-19T09:48:47.999Z</time></trkpt><trkpt lat="38.79514764850454" lon="16.38222471712735"><ele>722.0</ele><time>2026-04-19T09:48:49.999Z</time></trkpt><trkpt lat="38.79508720224987" lon="16.382145566591596"><ele>722.0</ele><time>2026-04-19T09:48:52.999Z</time></trkpt><trkpt lat="38.79502429218755" lon="16.382055536454306"><ele>722.2</ele><time>2026-04-19T09:48:54.999Z</time></trkpt><trkpt lat="38.79498438816385" lon="16.38195917176167"><ele>722.4000000000001</ele><time>2026-04-19T09:48:55.999Z</time></trkpt><trkpt lat="38.794896716256666" lon="16.381884461108697"><ele>722.5999999999999</ele><time>2026-04-19T09:48:56.999Z</time></trkpt><trkpt lat="38.79478838839761" lon="16.38182899177035"><ele>722.8</ele><time>2026-04-19T09:48:57.999Z</time></trkpt><trkpt lat="38.79470461792878" lon="16.381796711572743"><ele>723.0</ele><time>2026-04-19T09:48:58.999Z</time></trkpt><trkpt lat="38.79463902950628" lon="16.381771903609387"><ele>723.0</ele><time>2026-04-19T09:48:59.999Z</time></trkpt><trkpt lat="38.79456815310638" lon="16.381741581613607"><ele>723.0</ele><time>2026-04-19T09:49:00.999Z</time></trkpt><trkpt lat="38.79445789124528" lon="16.381685995700643"><ele>723.0</ele><time>2026-04-19T09:49:01.999Z</time></trkpt><trkpt lat="38.79435227181895" lon="16.381764853583153"><ele>723.0</ele><time>2026-04-19T09:49:03.999Z</time></trkpt><trkpt lat="38.79431014036105" lon="16.381844971862687"><ele>723.0</ele><time>2026-04-19T09:49:04.999Z</time></trkpt><trkpt lat="38.79428641252419" lon="16.381936308098187"><ele>723.0</ele><time>2026-04-19T09:49:10.999Z</time></trkpt><trkpt lat="38.79431550611915" lon="16.382022535071428"><ele>723.0</ele><time>2026-04-19T09:49:24.999Z</time></trkpt><trkpt lat="38.794353248058144" lon="16.382106213963798"><ele>723.0</ele><time>2026-04-19T09:49:29.999Z</time></trkpt><trkpt lat="38.79440673900608" lon="16.382191485792504"><ele>723.0</ele><time>2026-04-19T09:49:32.999Z</time></trkpt><trkpt lat="38.79445161393655" lon="16.382347030011058"><ele>723.0</ele><time>2026-04-19T09:49:34.999Z</time></trkpt><trkpt lat="38.79444854803079" lon="16.382434320376234"><ele>723.0</ele><time>2026-04-19T09:49:35.999Z</time></trkpt><trkpt lat="38.794428054817274" lon="16.38254475858547"><ele>723.8333333333334</ele><time>2026-04-19T09:49:36.999Z</time></trkpt><trkpt lat="38.79441163159678" lon="16.38263236703957"><ele>724.6666666666666</ele><time>2026-04-19T09:49:37.999Z</time></trkpt><trkpt lat="38.794400509309" lon="16.382735984445"><ele>725.5</ele><time>2026-04-19T09:49:38.999Z</time></trkpt><trkpt lat="38.794357228789266" lon="16.382871676515563"><ele>726.3333333333333</ele><time>2026-04-19T09:49:39.999Z</time></trkpt><trkpt lat="38.79430150614107" lon="16.382948953736122"><ele>727.1666666666666</ele><time>2026-04-19T09:49:40.999Z</time></trkpt><trkpt lat="38.79422610494654" lon="16.38303174414323"><ele>728.0</ele><time>2026-04-19T09:49:41.999Z</time></trkpt><trkpt lat="38.79415126338343" lon="16.38310976419566"><ele>728.0</ele><time>2026-04-19T09:49:42.999Z</time></trkpt><trkpt lat="38.79406962108235" lon="16.383207620667775"><ele>728.0</ele><time>2026-04-19T09:49:43.999Z</time></trkpt><trkpt lat="38.79399816500715" lon="16.38330727286992"><ele>728.0</ele><time>2026-04-19T09:49:44.999Z</time></trkpt><trkpt lat="38.79392756554889" lon="16.383417441773105"><ele>728.0</ele><time>2026-04-19T09:49:45.999Z</time></trkpt><trkpt lat="38.79384692530821" lon="16.38350767917394"><ele>728.0</ele><time>2026-04-19T09:49:46.999Z</time></trkpt><trkpt lat="38.793756616102385" lon="16.38357225874232"><ele>728.0</ele><time>2026-04-19T09:49:47.999Z</time></trkpt><trkpt lat="38.79367176026971" lon="16.38361838312835"><ele>728.0</ele><time>2026-04-19T09:49:48.999Z</time></trkpt><trkpt lat="38.79357631186677" lon="16.383675532613662"><ele>728.0</ele><time>2026-04-19T09:49:49.999Z</time></trkpt><trkpt lat="38.793470941528014" lon="16.38373781742453"><ele>728.0</ele><time>2026-04-19T09:49:50.999Z</time></trkpt><trkpt lat="38.79335807163015" lon="16.38379863724716"><ele>728.0</ele><time>2026-04-19T09:49:51.999Z</time></trkpt><trkpt lat="38.79324086204625" lon="16.38385877865125"><ele>729.8</ele><time>2026-04-19T09:49:52.999Z</time></trkpt><trkpt lat="38.79312609665823" lon="16.383896602929354"><ele>731.5999999999999</ele><time>2026-04-19T09:49:53.999Z</time></trkpt><trkpt lat="38.79301786890117" lon="16.3839225778411"><ele>733.4000000000001</ele><time>2026-04-19T09:49:54.999Z</time></trkpt><trkpt lat="38.79292797195946" lon="16.383931364501986"><ele>735.2</ele><time>2026-04-19T09:49:55.999Z</time></trkpt><trkpt lat="38.792851821933475" lon="16.38392819344864"><ele>737.0</ele><time>2026-04-19T09:49:56.999Z</time></trkpt><trkpt lat="38.79276779178646" lon="16.383920896275065"><ele>737.0</ele><time>2026-04-19T09:49:57.999Z</time></trkpt><trkpt lat="38.792683869366385" lon="16.38390339376308"><ele>737.0</ele><time>2026-04-19T09:49:58.999Z</time></trkpt><trkpt lat="38.792604803377735" lon="16.38386379025676"><ele>737.0</ele><time>2026-04-19T09:49:59.999Z</time></trkpt><trkpt lat="38.79253736617472" lon="16.38381062368761"><ele>737.0</ele><time>2026-04-19T09:50:00.999Z</time></trkpt><trkpt lat="38.7924427556834" lon="16.38373298030387"><ele>737.0</ele><time>2026-04-19T09:50:01.999Z</time></trkpt><trkpt lat="38.7923356274859" lon="16.383659399848593"><ele>740.4000000000001</ele><time>2026-04-19T09:50:02.999Z</time></trkpt><trkpt lat="38.79223924852493" lon="16.383596383685475"><ele>743.8000000000001</ele><time>2026-04-19T09:50:03.999Z</time></trkpt><trkpt lat="38.792150857421824" lon="16.383539067722758"><ele>747.2</ele><time>2026-04-19T09:50:04.999Z</time></trkpt><trkpt lat="38.79206833311978" lon="16.38348618290739"><ele>750.6</ele><time>2026-04-19T09:50:05.999Z</time></trkpt><trkpt lat="38.79198724212445" lon="16.383422687890967"><ele>754.0</ele><time>2026-04-19T09:50:06.999Z</time></trkpt><trkpt lat="38.79190775415657" lon="16.3833390334513"><ele>754.0</ele><time>2026-04-19T09:50:07.999Z</time></trkpt><trkpt lat="38.79184213572519" lon="16.38324508518301"><ele>754.0</ele><time>2026-04-19T09:50:08.999Z</time></trkpt><trkpt lat="38.7917802469266" lon="16.383157014614447"><ele>754.0</ele><time>2026-04-19T09:50:09.999Z</time></trkpt><trkpt lat="38.791715366108946" lon="16.383088612612447"><ele>754.0</ele><time>2026-04-19T09:50:10.999Z</time></trkpt><trkpt lat="38.79163535588156" lon="16.383050978267605"><ele>754.0</ele><time>2026-04-19T09:50:11.999Z</time></trkpt><trkpt lat="38.79157001256497" lon="16.38300745912463"><ele>754.0</ele><time>2026-04-19T09:50:12.999Z</time></trkpt><trkpt lat="38.79148247803743" lon="16.382992054227042"><ele>754.4000000000001</ele><time>2026-04-19T09:50:13.999Z</time></trkpt><trkpt lat="38.79138031360028" lon="16.382989679610507"><ele>754.8</ele><time>2026-04-19T09:50:14.999Z</time></trkpt><trkpt lat="38.79125209381081" lon="16.38299866591383"><ele>755.2</ele><time>2026-04-19T09:50:15.999Z</time></trkpt><trkpt lat="38.79114445996553" lon="16.38300083462389"><ele>755.5999999999999</ele><time>2026-04-19T09:50:16.999Z</time></trkpt><trkpt lat="38.791056655527065" lon="16.38299833885036"><ele>756.0</ele><time>2026-04-19T09:50:17.999Z</time></trkpt><trkpt lat="38.79098813448928" lon="16.38295655426316"><ele>756.0</ele><time>2026-04-19T09:50:18.999Z</time></trkpt><trkpt lat="38.790938883965225" lon="16.382880188428278"><ele>756.0</ele><time>2026-04-19T09:50:19.999Z</time></trkpt><trkpt lat="38.79090605418525" lon="16.382794639031914"><ele>756.0</ele><time>2026-04-19T09:50:20.999Z</time></trkpt><trkpt lat="38.790898646144534" lon="16.382695274373596"><ele>756.0</ele><time>2026-04-19T09:50:21.999Z</time></trkpt><trkpt lat="38.790932288467346" lon="16.38260219749843"><ele>756.0</ele><time>2026-04-19T09:50:22.999Z</time></trkpt><trkpt lat="38.79093841978176" lon="16.38243699897381"><ele>756.0</ele><time>2026-04-19T09:50:23.999Z</time></trkpt><trkpt lat="38.79094350942257" lon="16.382259867535975"><ele>759.75</ele><time>2026-04-19T09:50:24.999Z</time></trkpt><trkpt lat="38.79094864583809" lon="16.38207246187828"><ele>763.5</ele><time>2026-04-19T09:50:25.999Z</time></trkpt><trkpt lat="38.790928944282356" lon="16.38187806765366"><ele>767.25</ele><time>2026-04-19T09:50:26.999Z</time></trkpt><trkpt lat="38.79089384912286" lon="16.381728378172127"><ele>771.0</ele><time>2026-04-19T09:50:27.999Z</time></trkpt><trkpt lat="38.790852178407185" lon="16.38160366385459"><ele>771.0</ele><time>2026-04-19T09:50:28.999Z</time></trkpt><trkpt lat="38.79081167940871" lon="16.38149576983604"><ele>771.0</ele><time>2026-04-19T09:50:29.999Z</time></trkpt><trkpt lat="38.79076070423689" lon="16.3813894848522"><ele>771.0</ele><time>2026-04-19T09:50:30.999Z</time></trkpt><trkpt lat="38.79069252161591" lon="16.381323510307354"><ele>771.0</ele><time>2026-04-19T09:50:31.999Z</time></trkpt><trkpt lat="38.79062985550846" lon="16.381258746989058"><ele>771.0</ele><time>2026-04-19T09:50:32.999Z</time></trkpt><trkpt lat="38.79055291692342" lon="16.381195742166003"><ele>771.0</ele><time>2026-04-19T09:50:33.999Z</time></trkpt><trkpt lat="38.79044672990431" lon="16.381159281036847"><ele>773.8</ele><time>2026-04-19T09:50:34.999Z</time></trkpt><trkpt lat="38.790345039207885" lon="16.38115112091823"><ele>776.5999999999999</ele><time>2026-04-19T09:50:35.999Z</time></trkpt><trkpt lat="38.790248501603436" lon="16.381156539464726"><ele>779.4</ele><time>2026-04-19T09:50:36.999Z</time></trkpt><trkpt lat="38.790147853796846" lon="16.381160048774735"><ele>782.2</ele><time>2026-04-19T09:50:37.999Z</time></trkpt><trkpt lat="38.79003902720924" lon="16.38114473756223"><ele>785.0</ele><time>2026-04-19T09:50:38.999Z</time></trkpt><trkpt lat="38.789945842692525" lon="16.381080138430438"><ele>785.1666666666667</ele><time>2026-04-19T09:50:39.999Z</time></trkpt><trkpt lat="38.789891579200386" lon="16.38099069720719"><ele>785.3333333333334</ele><time>2026-04-19T09:50:40.999Z</time></trkpt><trkpt lat="38.78982414976651" lon="16.380895764131466"><ele>785.5</ele><time>2026-04-19T09:50:42.999Z</time></trkpt><trkpt lat="38.789792591668" lon="16.380803481828984"><ele>785.6666666666667</ele><time>2026-04-19T09:50:45.998Z</time></trkpt><trkpt lat="38.78977288291974" lon="16.380720073801537"><ele>785.8333333333334</ele><time>2026-04-19T09:50:48.998Z</time></trkpt><trkpt lat="38.78968644766845" lon="16.38069566916362"><ele>786.0</ele><time>2026-04-19T09:50:50.998Z</time></trkpt><trkpt lat="38.78956613015946" lon="16.380767388063983"><ele>786.0</ele><time>2026-04-19T09:50:52.998Z</time></trkpt><trkpt lat="38.78949174613032" lon="16.38080399535444"><ele>786.0</ele><time>2026-04-19T09:50:53.998Z</time></trkpt><trkpt lat="38.78941079443493" lon="16.38083791876215"><ele>786.0</ele><time>2026-04-19T09:50:54.998Z</time></trkpt><trkpt lat="38.78930883629651" lon="16.38088032303616"><ele>786.0</ele><time>2026-04-19T09:50:55.998Z</time></trkpt><trkpt lat="38.78919289395092" lon="16.380885831665"><ele>786.0</ele><time>2026-04-19T09:50:56.998Z</time></trkpt><trkpt lat="38.78908696505855" lon="16.380891127820124"><ele>786.8</ele><time>2026-04-19T09:50:57.998Z</time></trkpt><trkpt lat="38.78898882172867" lon="16.38089465757075"><ele>787.5999999999999</ele><time>2026-04-19T09:50:58.998Z</time></trkpt><trkpt lat="38.78889372653125" lon="16.380904582038482"><ele>788.4</ele><time>2026-04-19T09:50:59.998Z</time></trkpt><trkpt lat="38.7888021334659" lon="16.38089979318244"><ele>789.2</ele><time>2026-04-19T09:51:00.998Z</time></trkpt><trkpt lat="38.788714306404934" lon="16.380890759283762"><ele>790.0</ele><time>2026-04-19T09:51:01.998Z</time></trkpt><trkpt lat="38.78863042320598" lon="16.38087913284964"><ele>789.9999999999999</ele><time>2026-04-19T09:51:02.998Z</time></trkpt><trkpt lat="38.78855295923394" lon="16.380874264569915"><ele>790.0</ele><time>2026-04-19T09:51:03.998Z</time></trkpt><trkpt lat="38.78847888805728" lon="16.380874124229162"><ele>790.0</ele><time>2026-04-19T09:51:04.998Z</time></trkpt><trkpt lat="38.78841379138639" lon="16.380847060946152"><ele>790.0</ele><time>2026-04-19T09:51:05.998Z</time></trkpt><trkpt lat="38.78830191029264" lon="16.38080862184626"><ele>789.9999999999999</ele><time>2026-04-19T09:51:07.998Z</time></trkpt><trkpt lat="38.78823793085258" lon="16.3807849525043"><ele>790.0</ele><time>2026-04-19T09:51:08.998Z</time></trkpt><trkpt lat="38.78817475117712" lon="16.380818327761553"><ele>788.9999999999999</ele><time>2026-04-19T09:51:09.998Z</time></trkpt><trkpt lat="38.788051535764055" lon="16.380755977177188"><ele>788.0</ele><time>2026-04-19T09:51:10.998Z</time></trkpt><trkpt lat="38.78798822306623" lon="16.38081735481009"><ele>787.0</ele><time>2026-04-19T09:51:12Z</time></trkpt><trkpt lat="38.78792629954556" lon="16.380871535327305"><ele>786.0</ele><time>2026-04-19T09:51:13Z</time></trkpt><trkpt lat="38.78786415274096" lon="16.380920988893855"><ele>784.9999999999999</ele><time>2026-04-19T09:51:14Z</time></trkpt><trkpt lat="38.78780777483732" lon="16.380975262451674"><ele>784.0</ele><time>2026-04-19T09:51:15Z</time></trkpt><trkpt lat="38.7877542175973" lon="16.381033964875037"><ele>784.0</ele><time>2026-04-19T09:51:16Z</time></trkpt><trkpt lat="38.787702685401015" lon="16.381093735996966"><ele>784.0</ele><time>2026-04-19T09:51:17Z</time></trkpt><trkpt lat="38.787636004229945" lon="16.38112490461394"><ele>784.0</ele><time>2026-04-19T09:51:18Z</time></trkpt><trkpt lat="38.78756200631556" lon="16.381122382309332"><ele>784.0</ele><time>2026-04-19T09:51:19Z</time></trkpt><trkpt lat="38.787487287425485" lon="16.381109718694383"><ele>784.0</ele><time>2026-04-19T09:51:20Z</time></trkpt><trkpt lat="38.787415603192" lon="16.381093769759453"><ele>784.0</ele><time>2026-04-19T09:51:21Z</time></trkpt><trkpt lat="38.7873357622194" lon="16.381101458704673"><ele>784.0</ele><time>2026-04-19T09:51:22Z</time></trkpt><trkpt lat="38.78724764865712" lon="16.381121568192622"><ele>781.9999999999999</ele><time>2026-04-19T09:51:23Z</time></trkpt><trkpt lat="38.787166378024956" lon="16.381138921271326"><ele>780.0</ele><time>2026-04-19T09:51:24Z</time></trkpt><trkpt lat="38.787091277300775" lon="16.381160994738245"><ele>778.0</ele><time>2026-04-19T09:51:25Z</time></trkpt><trkpt lat="38.787022362864846" lon="16.381192962552923"><ele>776.0</ele><time>2026-04-19T09:51:26Z</time></trkpt><trkpt lat="38.78695741843391" lon="16.381248681695457"><ele>773.9999999999999</ele><time>2026-04-19T09:51:27Z</time></trkpt><trkpt lat="38.7869012369068" lon="16.381327040205658"><ele>772.0</ele><time>2026-04-19T09:51:28Z</time></trkpt><trkpt lat="38.78686347330061" lon="16.381428838954097"><ele>769.8333333333333</ele><time>2026-04-19T09:51:29Z</time></trkpt><trkpt lat="38.78683733261862" lon="16.381538098214964"><ele>767.6666666666666</ele><time>2026-04-19T09:51:30Z</time></trkpt><trkpt lat="38.78682329745294" lon="16.381644193848068"><ele>765.5</ele><time>2026-04-19T09:51:31Z</time></trkpt><trkpt lat="38.78681142341786" lon="16.381741931164605"><ele>763.3333333333333</ele><time>2026-04-19T09:51:32Z</time></trkpt><trkpt lat="38.78679943740268" lon="16.381838666864112"><ele>761.1666666666666</ele><time>2026-04-19T09:51:33Z</time></trkpt><trkpt lat="38.78676570609443" lon="16.38194257355405"><ele>759.0</ele><time>2026-04-19T09:51:34Z</time></trkpt><trkpt lat="38.786708496193626" lon="16.38204777333259"><ele>759.0</ele><time>2026-04-19T09:51:35Z</time></trkpt><trkpt lat="38.78664766472615" lon="16.382151346971387"><ele>759.0</ele><time>2026-04-19T09:51:36Z</time></trkpt><trkpt lat="38.78659616863632" lon="16.382252931975405"><ele>759.0</ele><time>2026-04-19T09:51:37Z</time></trkpt><trkpt lat="38.78655793328158" lon="16.38235888913398"><ele>759.0</ele><time>2026-04-19T09:51:38Z</time></trkpt><trkpt lat="38.78654062776519" lon="16.38247742066442"><ele>759.0</ele><time>2026-04-19T09:51:39Z</time></trkpt><trkpt lat="38.78653782226071" lon="16.382596357213885"><ele>756.6</ele><time>2026-04-19T09:51:40Z</time></trkpt><trkpt lat="38.78651927920873" lon="16.382714763388034"><ele>754.2</ele><time>2026-04-19T09:51:41Z</time></trkpt><trkpt lat="38.78646471344034" lon="16.382823061660854"><ele>751.8000000000001</ele><time>2026-04-19T09:51:42Z</time></trkpt><trkpt lat="38.78639685227174" lon="16.382917593920794"><ele>749.4000000000001</ele><time>2026-04-19T09:51:43Z</time></trkpt><trkpt lat="38.78633087429991" lon="16.382994333969688"><ele>747.0</ele><time>2026-04-19T09:51:44Z</time></trkpt><trkpt lat="38.78627160944156" lon="16.383080139230344"><ele>745.0</ele><time>2026-04-19T09:51:45Z</time></trkpt><trkpt lat="38.7862278399004" lon="16.38318568851143"><ele>743.0</ele><time>2026-04-19T09:51:46Z</time></trkpt><trkpt lat="38.786178725568625" lon="16.38328036664927"><ele>741.0</ele><time>2026-04-19T09:51:46.999Z</time></trkpt><trkpt lat="38.78612587896852" lon="16.38336795019862"><ele>739.0</ele><time>2026-04-19T09:51:47.999Z</time></trkpt><trkpt lat="38.78604876707999" lon="16.383433582526585"><ele>737.0</ele><time>2026-04-19T09:51:48.999Z</time></trkpt><trkpt lat="38.78595953994215" lon="16.383494857584058"><ele>736.6666666666666</ele><time>2026-04-19T09:51:49.999Z</time></trkpt><trkpt lat="38.785876286268554" lon="16.38353835015245"><ele>736.3333333333333</ele><time>2026-04-19T09:51:50.999Z</time></trkpt><trkpt lat="38.78579884379209" lon="16.383574939064637"><ele>736.0</ele><time>2026-04-19T09:51:51.999Z</time></trkpt><trkpt lat="38.78572024683741" lon="16.383607656740736"><ele>735.6666666666666</ele><time>2026-04-19T09:51:52.999Z</time></trkpt><trkpt lat="38.78565111273981" lon="16.383658973348673"><ele>735.3333333333334</ele><time>2026-04-19T09:51:53.999Z</time></trkpt><trkpt lat="38.785608369796456" lon="16.383744574041454"><ele>735.0</ele><time>2026-04-19T09:51:54.999Z</time></trkpt><trkpt lat="38.78556781658962" lon="16.383829169230417"><ele>733.5</ele><time>2026-04-19T09:51:55.999Z</time></trkpt><trkpt lat="38.78553302728816" lon="16.383913326882677"><ele>732.0</ele><time>2026-04-19T09:51:56.999Z</time></trkpt><trkpt lat="38.785494396719415" lon="16.384001137595007"><ele>730.5</ele><time>2026-04-19T09:51:57.999Z</time></trkpt><trkpt lat="38.78544850854524" lon="16.384085302272766"><ele>729.0</ele><time>2026-04-19T09:51:58.999Z</time></trkpt><trkpt lat="38.78540894239439" lon="16.38416960487361"><ele>727.5</ele><time>2026-04-19T09:51:59.999Z</time></trkpt><trkpt lat="38.78536685700807" lon="16.384252538178963"><ele>726.0</ele><time>2026-04-19T09:52:00.999Z</time></trkpt><trkpt lat="38.7853217054835" lon="16.38434013122086"><ele>726.0</ele><time>2026-04-19T09:52:01.999Z</time></trkpt><trkpt lat="38.7852853776473" lon="16.38442096537128"><ele>726.0</ele><time>2026-04-19T09:52:02.999Z</time></trkpt><trkpt lat="38.785261177814974" lon="16.384495802727884"><ele>726.0</ele><time>2026-04-19T09:52:03.999Z</time></trkpt><trkpt lat="38.78524355183228" lon="16.38457442617056"><ele>726.0</ele><time>2026-04-19T09:52:04.999Z</time></trkpt><trkpt lat="38.78517448185414" lon="16.38471124065239"><ele>726.0</ele><time>2026-04-19T09:52:06.999Z</time></trkpt><trkpt lat="38.78511641040746" lon="16.38478603881287"><ele>726.0</ele><time>2026-04-19T09:52:07.999Z</time></trkpt><trkpt lat="38.7850537647594" lon="16.384854081382265"><ele>724.1666666666666</ele><time>2026-04-19T09:52:08.999Z</time></trkpt><trkpt lat="38.78500750259698" lon="16.384927636959638"><ele>722.3333333333334</ele><time>2026-04-19T09:52:09.999Z</time></trkpt><trkpt lat="38.78497498003737" lon="16.385018292181364"><ele>720.5</ele><time>2026-04-19T09:52:10.999Z</time></trkpt><trkpt lat="38.78493805320423" lon="16.385113941753957"><ele>718.6666666666667</ele><time>2026-04-19T09:52:11.999Z</time></trkpt><trkpt lat="38.78491067480217" lon="16.385211669576208"><ele>716.8333333333334</ele><time>2026-04-19T09:52:12.999Z</time></trkpt><trkpt lat="38.784871749089824" lon="16.38529622747567"><ele>715.0</ele><time>2026-04-19T09:52:13.999Z</time></trkpt><trkpt lat="38.78482460254115" lon="16.3853608030413"><ele>715.0</ele><time>2026-04-19T09:52:14.999Z</time></trkpt><trkpt lat="38.784774480272226" lon="16.385411107892587"><ele>715.0</ele><time>2026-04-19T09:52:15.999Z</time></trkpt><trkpt lat="38.78470034975449" lon="16.38542450754551"><ele>715.0</ele><time>2026-04-19T09:52:16.999Z</time></trkpt><trkpt lat="38.784625444523044" lon="16.385405777034098"><ele>715.0</ele><time>2026-04-19T09:52:17.999Z</time></trkpt><trkpt lat="38.78456168305965" lon="16.38537500030618"><ele>715.0</ele><time>2026-04-19T09:52:18.999Z</time></trkpt><trkpt lat="38.78448480395064" lon="16.385384984496998"><ele>715.0</ele><time>2026-04-19T09:52:19.999Z</time></trkpt><trkpt lat="38.78437704762871" lon="16.385343534803003"><ele>714.5</ele><time>2026-04-19T09:52:21.999Z</time></trkpt><trkpt lat="38.784296030827235" lon="16.385327238885104"><ele>714.0</ele><time>2026-04-19T09:52:23.999Z</time></trkpt><trkpt lat="38.784200978444204" lon="16.38535279915337"><ele>713.5</ele><time>2026-04-19T09:52:25.999Z</time></trkpt><trkpt lat="38.78411423290982" lon="16.3854378701722"><ele>713.0</ele><time>2026-04-19T09:52:27.999Z</time></trkpt><trkpt lat="38.78406285585244" lon="16.385496329453435"><ele>712.5</ele><time>2026-04-19T09:52:28.999Z</time></trkpt><trkpt lat="38.78400725511746" lon="16.38555173626231"><ele>712.0</ele><time>2026-04-19T09:52:29.999Z</time></trkpt><trkpt lat="38.783942167683044" lon="16.385600929155267"><ele>710.6</ele><time>2026-04-19T09:52:30.999Z</time></trkpt><trkpt lat="38.78385043224121" lon="16.385658602266176"><ele>709.2</ele><time>2026-04-19T09:52:31.999Z</time></trkpt><trkpt lat="38.783746313017254" lon="16.385716037326677"><ele>707.8</ele><time>2026-04-19T09:52:32.999Z</time></trkpt><trkpt lat="38.78365810354683" lon="16.385758586341318"><ele>706.4</ele><time>2026-04-19T09:52:33.999Z</time></trkpt><trkpt lat="38.78357047684487" lon="16.385772294254572"><ele>705.0</ele><time>2026-04-19T09:52:34.999Z</time></trkpt><trkpt lat="38.78348714277028" lon="16.385802155368225"><ele>704.5</ele><time>2026-04-19T09:52:35.999Z</time></trkpt><trkpt lat="38.783415996883654" lon="16.385830863201402"><ele>704.0</ele><time>2026-04-19T09:52:36.999Z</time></trkpt><trkpt lat="38.78335474766182" lon="16.385860017178047"><ele>703.5</ele><time>2026-04-19T09:52:37.999Z</time></trkpt><trkpt lat="38.783251982817994" lon="16.38590599441732"><ele>703.0</ele><time>2026-04-19T09:52:38.999Z</time></trkpt><trkpt lat="38.783174316503434" lon="16.385949427101973"><ele>702.5</ele><time>2026-04-19T09:52:39.999Z</time></trkpt><trkpt lat="38.78311528037842" lon="16.385982660522384"><ele>702.0</ele><time>2026-04-19T09:52:40.999Z</time></trkpt><trkpt lat="38.78303596965269" lon="16.38602780662595"><ele>702.0</ele><time>2026-04-19T09:52:42.999Z</time></trkpt><trkpt lat="38.78299042807325" lon="16.386086131825067"><ele>702.0</ele><time>2026-04-19T09:52:44.999Z</time></trkpt><trkpt lat="38.78295070872111" lon="16.386157869680467"><ele>702.0</ele><time>2026-04-19T09:52:52.999Z</time></trkpt><trkpt lat="38.78284941757629" lon="16.386171807844494"><ele>702.0</ele><time>2026-04-19T09:53:47.999Z</time></trkpt><trkpt lat="38.78285205739116" lon="16.38626032978378"><ele>702.0</ele><time>2026-04-19T09:54:16.999Z</time></trkpt><trkpt lat="38.78281199697" lon="16.386337012358698"><ele>702.0</ele><time>2026-04-19T09:54:26.999Z</time></trkpt><trkpt lat="38.78278562160937" lon="16.3864570824144"><ele>702.0000000000001</ele><time>2026-04-19T09:54:32.999Z</time></trkpt><trkpt lat="38.782781172259945" lon="16.38654058608291"><ele>702.0</ele><time>2026-04-19T09:54:33.998Z</time></trkpt><trkpt lat="38.78276478100899" lon="16.386628866222782"><ele>702.0</ele><time>2026-04-19T09:54:34.998Z</time></trkpt><trkpt lat="38.78274482523751" lon="16.386707143543887"><ele>702.0</ele><time>2026-04-19T09:54:35.998Z</time></trkpt><trkpt lat="38.78271095755294" lon="16.38679786442776"><ele>702.0</ele><time>2026-04-19T09:54:37.998Z</time></trkpt><trkpt lat="38.78264112034766" lon="16.386845390349542"><ele>702.0000000000001</ele><time>2026-04-19T09:54:40.998Z</time></trkpt><trkpt lat="38.78256022321941" lon="16.386852001387382"><ele>702.0</ele><time>2026-04-19T09:54:41.998Z</time></trkpt><trkpt lat="38.78245210689556" lon="16.38686788490342"><ele>702.0</ele><time>2026-04-19T09:54:42.998Z</time></trkpt><trkpt lat="38.78234519984372" lon="16.386870257935623"><ele>702.0</ele><time>2026-04-19T09:54:43.998Z</time></trkpt><trkpt lat="38.782256862998246" lon="16.386867243922147"><ele>702.0</ele><time>2026-04-19T09:54:44.998Z</time></trkpt><trkpt lat="38.78215556281775" lon="16.386851888789494"><ele>702.0</ele><time>2026-04-19T09:54:46.998Z</time></trkpt><trkpt lat="38.782087617386885" lon="16.386824774282402"><ele>702.0</ele><time>2026-04-19T09:54:50.998Z</time></trkpt><trkpt lat="38.78202265604043" lon="16.386804809135434"><ele>702.0</ele><time>2026-04-19T09:54:52.998Z</time></trkpt><trkpt lat="38.78194844465306" lon="16.386767440216165"><ele>702.0</ele><time>2026-04-19T09:54:55.998Z</time></trkpt><trkpt lat="38.781882338292284" lon="16.386787500783576"><ele>702.0</ele><time>2026-04-19T09:54:58.998Z</time></trkpt><trkpt lat="38.781822694255695" lon="16.38682302993843"><ele>702.0</ele><time>2026-04-19T09:55:04.998Z</time></trkpt><trkpt lat="38.78177396359356" lon="16.38691063918293"><ele>702.0</ele><time>2026-04-19T09:55:09.998Z</time></trkpt><trkpt lat="38.78173048509199" lon="16.386997268878865"><ele>702.0</ele><time>2026-04-19T09:55:12.998Z</time></trkpt><trkpt lat="38.78167445688266" lon="16.387110647412634"><ele>702.0</ele><time>2026-04-19T09:55:15.998Z</time></trkpt><trkpt lat="38.78163208010866" lon="16.38721822339954"><ele>701.6</ele><time>2026-04-19T09:55:17.998Z</time></trkpt><trkpt lat="38.7816007457603" lon="16.3873321147649"><ele>701.2</ele><time>2026-04-19T09:55:19.998Z</time></trkpt><trkpt lat="38.78159357651559" lon="16.38746075404896"><ele>700.8</ele><time>2026-04-19T09:55:21.998Z</time></trkpt><trkpt lat="38.78158411833479" lon="16.387580041679293"><ele>700.4</ele><time>2026-04-19T09:55:23.998Z</time></trkpt><trkpt lat="38.781580599814596" lon="16.38770660155563"><ele>700.0</ele><time>2026-04-19T09:55:25.998Z</time></trkpt><trkpt lat="38.78157184914101" lon="16.387837829920965"><ele>700.0</ele><time>2026-04-19T09:55:27.998Z</time></trkpt><trkpt lat="38.781565753137784" lon="16.38796689251601"><ele>700.0</ele><time>2026-04-19T09:55:29.998Z</time></trkpt><trkpt lat="38.781585851194926" lon="16.3880736048152"><ele>700.0</ele><time>2026-04-19T09:55:31.998Z</time></trkpt><trkpt lat="38.7815994568768" lon="16.38819277153817"><ele>700.0</ele><time>2026-04-19T09:55:33.998Z</time></trkpt><trkpt lat="38.781629248274164" lon="16.388302338751323"><ele>700.0</ele><time>2026-04-19T09:55:35.998Z</time></trkpt><trkpt lat="38.78164650026217" lon="16.38842080829431"><ele>699.6666666666667</ele><time>2026-04-19T09:55:37.998Z</time></trkpt><trkpt lat="38.78164683228944" lon="16.388523346302907"><ele>699.3333333333334</ele><time>2026-04-19T09:55:39.998Z</time></trkpt><trkpt lat="38.78164779002959" lon="16.388621570408894"><ele>699.0</ele><time>2026-04-19T09:55:41.998Z</time></trkpt><trkpt lat="38.78162567023441" lon="16.38871092893675"><ele>698.6666666666666</ele><time>2026-04-19T09:55:44.998Z</time></trkpt><trkpt lat="38.781618525569776" lon="16.388801689086936"><ele>698.3333333333333</ele><time>2026-04-19T09:55:48.998Z</time></trkpt><trkpt lat="38.78160341472456" lon="16.388895906793095"><ele>698.0</ele><time>2026-04-19T09:55:53.998Z</time></trkpt><trkpt lat="38.78156480896868" lon="16.388988231529293"><ele>698.0</ele><time>2026-04-19T09:55:55.998Z</time></trkpt><trkpt lat="38.78156274241874" lon="16.38910988534078"><ele>698.0</ele><time>2026-04-19T09:55:57.998Z</time></trkpt><trkpt lat="38.78156521751536" lon="16.38925342849917"><ele>698.0</ele><time>2026-04-19T09:55:59.998Z</time></trkpt><trkpt lat="38.78151946311529" lon="16.38933138217346"><ele>698.0</ele><time>2026-04-19T09:56:01.998Z</time></trkpt><trkpt lat="38.78143826370857" lon="16.38939933649505"><ele>698.0</ele><time>2026-04-19T09:56:03.998Z</time></trkpt><trkpt lat="38.78134544738584" lon="16.38951367347227"><ele>698.0</ele><time>2026-04-19T09:56:05.998Z</time></trkpt><trkpt lat="38.781267318145474" lon="16.389569116197883"><ele>698.0</ele><time>2026-04-19T09:56:07.998Z</time></trkpt><trkpt lat="38.781177776309875" lon="16.389575841441825"><ele>698.0</ele><time>2026-04-19T09:56:10.998Z</time></trkpt><trkpt lat="38.78110218158993" lon="16.38957742973298"><ele>698.0</ele><time>2026-04-19T09:56:14.998Z</time></trkpt><trkpt lat="38.78101665099288" lon="16.389541049312626"><ele>698.0</ele><time>2026-04-19T09:56:18.998Z</time></trkpt><trkpt lat="38.78094642487428" lon="16.38951675910883"><ele>698.0</ele><time>2026-04-19T09:56:20.998Z</time></trkpt><trkpt lat="38.780860457425916" lon="16.389468399458302"><ele>698.6666666666666</ele><time>2026-04-19T09:56:23.998Z</time></trkpt><trkpt lat="38.78080411909734" lon="16.38942894477507"><ele>699.3333333333333</ele><time>2026-04-19T09:56:25.998Z</time></trkpt><trkpt lat="38.7807531202496" lon="16.389345479765364"><ele>700.0</ele><time>2026-04-19T09:56:28.998Z</time></trkpt><trkpt lat="38.780708264549006" lon="16.389285402522805"><ele>700.6666666666666</ele><time>2026-04-19T09:56:30.998Z</time></trkpt><trkpt lat="38.78064506022518" lon="16.38918993243769"><ele>701.3333333333334</ele><time>2026-04-19T09:56:32.998Z</time></trkpt><trkpt lat="38.78056619638433" lon="16.3890735066309"><ele>702.0</ele><time>2026-04-19T09:56:34.998Z</time></trkpt><trkpt lat="38.780494125162626" lon="16.3890027988643"><ele>702.0000000000001</ele><time>2026-04-19T09:56:36.998Z</time></trkpt><trkpt lat="38.78044325960174" lon="16.388951428234545"><ele>702.0</ele><time>2026-04-19T09:56:38.998Z</time></trkpt><trkpt lat="38.780371438443" lon="16.388945441144617"><ele>702.0</ele><time>2026-04-19T09:56:42.998Z</time></trkpt><trkpt lat="38.78031686171913" lon="16.388898850585072"><ele>702.0</ele><time>2026-04-19T09:56:46.998Z</time></trkpt><trkpt lat="38.780256634795364" lon="16.388862898728263"><ele>702.0</ele><time>2026-04-19T09:56:49.998Z</time></trkpt><trkpt lat="38.78020265853186" lon="16.3887899893534"><ele>702.0000000000001</ele><time>2026-04-19T09:56:51.998Z</time></trkpt><trkpt lat="38.78011948646731" lon="16.388723234626404"><ele>702.0</ele><time>2026-04-19T09:56:53.998Z</time></trkpt><trkpt lat="38.78002182689866" lon="16.38870573511"><ele>701.6666666666666</ele><time>2026-04-19T09:56:55.998Z</time></trkpt><trkpt lat="38.77992685623032" lon="16.38866393401287"><ele>701.3333333333334</ele><time>2026-04-19T09:56:57.998Z</time></trkpt><trkpt lat="38.77983926833382" lon="16.38863603136909"><ele>701.0</ele><time>2026-04-19T09:56:59.998Z</time></trkpt><trkpt lat="38.779749480663945" lon="16.388627007118824"><ele>700.6666666666667</ele><time>2026-04-19T09:57:01.998Z</time></trkpt><trkpt lat="38.77968349432124" lon="16.388625678181565"><ele>700.3333333333334</ele><time>2026-04-19T09:57:02.998Z</time></trkpt><trkpt lat="38.77958372421438" lon="16.388650357131397"><ele>700.0</ele><time>2026-04-19T09:57:04.998Z</time></trkpt><trkpt lat="38.77951214731165" lon="16.388630029723586"><ele>700.0</ele><time>2026-04-19T09:57:06.998Z</time></trkpt><trkpt lat="38.77944430544173" lon="16.38861279065062"><ele>700.0</ele><time>2026-04-19T09:57:08.998Z</time></trkpt><trkpt lat="38.779386861499816" lon="16.38857947647039"><ele>700.0</ele><time>2026-04-19T09:57:11.998Z</time></trkpt><trkpt lat="38.7793248375598" lon="16.388530424233306"><ele>700.0</ele><time>2026-04-19T09:57:15.998Z</time></trkpt><trkpt lat="38.77926493779679" lon="16.388472867506984"><ele>700.0</ele><time>2026-04-19T09:57:24.998Z</time></trkpt><trkpt lat="38.779179017945" lon="16.38843455890779"><ele>700.0</ele><time>2026-04-19T09:57:28.998Z</time></trkpt><trkpt lat="38.779105013484795" lon="16.388399543816334"><ele>701.1428571428571</ele><time>2026-04-19T09:57:31.998Z</time></trkpt><trkpt lat="38.77903842431384" lon="16.388372082497774"><ele>702.2857142857142</ele><time>2026-04-19T09:57:42.998Z</time></trkpt><trkpt lat="38.77897810594047" lon="16.38834860844524"><ele>703.4285714285714</ele><time>2026-04-19T09:57:46.998Z</time></trkpt><trkpt lat="38.77893161478045" lon="16.38829150475516"><ele>704.5714285714286</ele><time>2026-04-19T09:57:56.998Z</time></trkpt><trkpt lat="38.778865960293736" lon="16.388273725103844"><ele>705.7142857142857</ele><time>2026-04-19T09:58:12.998Z</time></trkpt><trkpt lat="38.77883674480783" lon="16.38815847609895"><ele>706.8571428571429</ele><time>2026-04-19T09:58:43Z</time></trkpt><trkpt lat="38.77884294395172" lon="16.38807587778787"><ele>708.0</ele><time>2026-04-19T09:58:51Z</time></trkpt><trkpt lat="38.778781797641585" lon="16.388032348488647"><ele>707.0</ele><time>2026-04-19T09:59:48Z</time></trkpt><trkpt lat="38.77879118953822" lon="16.38790334056063"><ele>706.0</ele><time>2026-04-19T10:00:07.999Z</time></trkpt><trkpt lat="38.77873502733523" lon="16.387952023799986"><ele>705.0</ele><time>2026-04-19T10:00:14.999Z</time></trkpt><trkpt lat="38.77866927275336" lon="16.38794677348485"><ele>704.0</ele><time>2026-04-19T10:00:22.999Z</time></trkpt><trkpt lat="38.77863713133293" lon="16.387871783116164"><ele>703.0</ele><time>2026-04-19T10:00:42.999Z</time></trkpt><trkpt lat="38.778657192040825" lon="16.387792633139924"><ele>702.0</ele><time>2026-04-19T10:00:51.999Z</time></trkpt><trkpt lat="38.77863107248905" lon="16.387716948152804"><ele>701.0</ele><time>2026-04-19T10:01:03.999Z</time></trkpt><trkpt lat="38.77856622707629" lon="16.387708026815016"><ele>701.0</ele><time>2026-04-19T10:01:10.999Z</time></trkpt><trkpt lat="38.77854362557429" lon="16.387628085293624"><ele>701.0</ele><time>2026-04-19T10:01:31.999Z</time></trkpt><trkpt lat="38.778528295425986" lon="16.387544453454325"><ele>701.0</ele><time>2026-04-19T10:01:36.999Z</time></trkpt><trkpt lat="38.77846872910596" lon="16.387470845664833"><ele>701.0</ele><time>2026-04-19T10:03:54.998Z</time></trkpt><trkpt lat="38.778450051332925" lon="16.387365481720547"><ele>701.0</ele><time>2026-04-19T10:04:00.998Z</time></trkpt><trkpt lat="38.77842033429344" lon="16.387289017659636"><ele>701.0</ele><time>2026-04-19T10:04:03.998Z</time></trkpt><trkpt lat="38.77837761860959" lon="16.387194378375934"><ele>701.1428571428572</ele><time>2026-04-19T10:04:07.998Z</time></trkpt><trkpt lat="38.77831897573639" lon="16.38712111029453"><ele>701.2857142857142</ele><time>2026-04-19T10:04:10.998Z</time></trkpt><trkpt lat="38.77824008364948" lon="16.387118841974367"><ele>701.4285714285714</ele><time>2026-04-19T10:04:14.998Z</time></trkpt><trkpt lat="38.778175349752566" lon="16.387109530902585"><ele>701.5714285714287</ele><time>2026-04-19T10:04:21.998Z</time></trkpt><trkpt lat="38.77811641323494" lon="16.387066750237892"><ele>701.7142857142858</ele><time>2026-04-19T10:04:28.998Z</time></trkpt><trkpt lat="38.77806944154975" lon="16.387011156593573"><ele>701.8571428571429</ele><time>2026-04-19T10:04:33.998Z</time></trkpt><trkpt lat="38.77800639847191" lon="16.386941880159746"><ele>702.0</ele><time>2026-04-19T10:04:37.998Z</time></trkpt><trkpt lat="38.777937160904635" lon="16.386918199145036"><ele>702.0</ele><time>2026-04-19T10:04:42.998Z</time></trkpt><trkpt lat="38.77788643948579" lon="16.38685908335659"><ele>702.0</ele><time>2026-04-19T10:04:46.998Z</time></trkpt><trkpt lat="38.77782102426885" lon="16.386815628951233"><ele>702.0</ele><time>2026-04-19T10:04:51.998Z</time></trkpt><trkpt lat="38.77776584047428" lon="16.386748054105105"><ele>702.0</ele><time>2026-04-19T10:05:00.998Z</time></trkpt><trkpt lat="38.777767855546806" lon="16.386641410840966"><ele>702.0</ele><time>2026-04-19T10:05:04.998Z</time></trkpt><trkpt lat="38.777738264499945" lon="16.386538485690377"><ele>702.0</ele><time>2026-04-19T10:05:07.998Z</time></trkpt><trkpt lat="38.777689918965144" lon="16.386461333338193"><ele>702.8333333333334</ele><time>2026-04-19T10:05:11.998Z</time></trkpt><trkpt lat="38.777627275551744" lon="16.386417490195868"><ele>703.6666666666666</ele><time>2026-04-19T10:05:14.998Z</time></trkpt><trkpt lat="38.77758204978163" lon="16.38634027951285"><ele>704.5</ele><time>2026-04-19T10:05:18.998Z</time></trkpt><trkpt lat="38.77752722748274" lon="16.386273106133267"><ele>705.3333333333333</ele><time>2026-04-19T10:05:24Z</time></trkpt><trkpt lat="38.777471513877614" lon="16.38621766774719"><ele>706.1666666666666</ele><time>2026-04-19T10:05:27Z</time></trkpt><trkpt lat="38.7774350349928" lon="16.38613699976729"><ele>707.0</ele><time>2026-04-19T10:05:29Z</time></trkpt><trkpt lat="38.77738155233605" lon="16.386039775163447"><ele>707.0</ele><time>2026-04-19T10:05:31Z</time></trkpt><trkpt lat="38.77732933085489" lon="16.385968079493473"><ele>707.0</ele><time>2026-04-19T10:05:33Z</time></trkpt><trkpt lat="38.77726851942836" lon="16.385908751669458"><ele>707.0</ele><time>2026-04-19T10:05:36Z</time></trkpt><trkpt lat="38.777222228512294" lon="16.385841453943225"><ele>707.0</ele><time>2026-04-19T10:05:39Z</time></trkpt><trkpt lat="38.777201625336545" lon="16.38574339240551"><ele>707.0</ele><time>2026-04-19T10:05:44Z</time></trkpt><trkpt lat="38.77717074863161" lon="16.38562737685891"><ele>707.0</ele><time>2026-04-19T10:05:47Z</time></trkpt><trkpt lat="38.77714226295741" lon="16.385521818954548"><ele>707.6666666666666</ele><time>2026-04-19T10:05:49Z</time></trkpt><trkpt lat="38.777098783171255" lon="16.38544564668981"><ele>708.3333333333333</ele><time>2026-04-19T10:05:51Z</time></trkpt><trkpt lat="38.777083875356446" lon="16.38535277342613"><ele>709.0</ele><time>2026-04-19T10:05:55Z</time></trkpt><trkpt lat="38.777050490796626" lon="16.38526956218679"><ele>709.6666666666666</ele><time>2026-04-19T10:05:57Z</time></trkpt><trkpt lat="38.776999715058956" lon="16.385172015517128"><ele>710.3333333333334</ele><time>2026-04-19T10:05:59Z</time></trkpt><trkpt lat="38.776946657416815" lon="16.385091177778644"><ele>711.0</ele><time>2026-04-19T10:06:01Z</time></trkpt><trkpt lat="38.77688515789625" lon="16.385060300516102"><ele>711.0</ele><time>2026-04-19T10:06:03Z</time></trkpt><trkpt lat="38.77680818625356" lon="16.385047055687203"><ele>711.0</ele><time>2026-04-19T10:06:06Z</time></trkpt><trkpt lat="38.77674497751143" lon="16.384995876863172"><ele>711.0</ele><time>2026-04-19T10:06:09Z</time></trkpt><trkpt lat="38.77666159529078" lon="16.38494728623264"><ele>711.0</ele><time>2026-04-19T10:06:13Z</time></trkpt><trkpt lat="38.77659879431888" lon="16.38490205543925"><ele>711.0</ele><time>2026-04-19T10:06:15Z</time></trkpt><trkpt lat="38.77652845553468" lon="16.384860977567705"><ele>711.0</ele><time>2026-04-19T10:06:17Z</time></trkpt><trkpt lat="38.77643989410931" lon="16.384827202245866"><ele>711.0</ele><time>2026-04-19T10:06:20Z</time></trkpt><trkpt lat="38.776376309387686" lon="16.384792652252305"><ele>711.0</ele><time>2026-04-19T10:06:23Z</time></trkpt><trkpt lat="38.776299416252" lon="16.38471704069914"><ele>711.0</ele><time>2026-04-19T10:06:26Z</time></trkpt><trkpt lat="38.77622095652382" lon="16.384679555138113"><ele>711.0</ele><time>2026-04-19T10:06:29Z</time></trkpt><trkpt lat="38.77616112704862" lon="16.384631512180345"><ele>711.0</ele><time>2026-04-19T10:06:34Z</time></trkpt><trkpt lat="38.77614927914407" lon="16.384534206727416"><ele>711.0</ele><time>2026-04-19T10:06:41Z</time></trkpt><trkpt lat="38.77607695429015" lon="16.38450793703129"><ele>711.0</ele><time>2026-04-19T10:06:44Z</time></trkpt><trkpt lat="38.77599826154097" lon="16.384468049548556"><ele>711.0</ele><time>2026-04-19T10:06:47Z</time></trkpt><trkpt lat="38.775933302372145" lon="16.384471340348107"><ele>711.0</ele><time>2026-04-19T10:06:50Z</time></trkpt><trkpt lat="38.77586805552906" lon="16.384492006664345"><ele>711.0</ele><time>2026-04-19T10:06:53Z</time></trkpt><trkpt lat="38.77578903493501" lon="16.384464115856584"><ele>711.0</ele><time>2026-04-19T10:06:56Z</time></trkpt><trkpt lat="38.77571968740121" lon="16.384464930388685"><ele>711.0</ele><time>2026-04-19T10:06:58Z</time></trkpt><trkpt lat="38.77564131020589" lon="16.384502348141673"><ele>711.0</ele><time>2026-04-19T10:07:01Z</time></trkpt><trkpt lat="38.775571878494496" lon="16.384496902017954"><ele>711.0</ele><time>2026-04-19T10:07:06Z</time></trkpt><trkpt lat="38.77549556420695" lon="16.38448879756406"><ele>711.0</ele><time>2026-04-19T10:07:10Z</time></trkpt><trkpt lat="38.77542473614819" lon="16.38449478060811"><ele>711.0</ele><time>2026-04-19T10:07:13Z</time></trkpt><trkpt lat="38.77536143943535" lon="16.3845218476761"><ele>711.0</ele><time>2026-04-19T10:07:17Z</time></trkpt><trkpt lat="38.775313187316094" lon="16.384583779123282"><ele>711.0</ele><time>2026-04-19T10:07:21Z</time></trkpt><trkpt lat="38.775257607273744" lon="16.38465673020986"><ele>711.0</ele><time>2026-04-19T10:07:26Z</time></trkpt><trkpt lat="38.775195126549384" lon="16.384702464542254"><ele>711.2857142857143</ele><time>2026-04-19T10:07:28Z</time></trkpt><trkpt lat="38.775132034926116" lon="16.384697382726934"><ele>711.5714285714286</ele><time>2026-04-19T10:07:30Z</time></trkpt><trkpt lat="38.77506124003965" lon="16.384675296050492"><ele>711.8571428571429</ele><time>2026-04-19T10:07:32Z</time></trkpt><trkpt lat="38.77498251929161" lon="16.384690908063302"><ele>712.1428571428571</ele><time>2026-04-19T10:07:35Z</time></trkpt><trkpt lat="38.774904987619884" lon="16.384694002926622"><ele>712.4285714285714</ele><time>2026-04-19T10:07:38Z</time></trkpt><trkpt lat="38.77482230141237" lon="16.384684493628065"><ele>712.7142857142857</ele><time>2026-04-19T10:07:41Z</time></trkpt><trkpt lat="38.774754208117066" lon="16.38468070964336"><ele>713.0</ele><time>2026-04-19T10:07:43Z</time></trkpt><trkpt lat="38.77469219074612" lon="16.384698692268167"><ele>713.0</ele><time>2026-04-19T10:07:45Z</time></trkpt><trkpt lat="38.77462441592827" lon="16.384661277928828"><ele>713.0</ele><time>2026-04-19T10:07:47Z</time></trkpt><trkpt lat="38.774587395177385" lon="16.384595949877628"><ele>713.0</ele><time>2026-04-19T10:07:50Z</time></trkpt><trkpt lat="38.774540389524276" lon="16.38451461724228"><ele>713.0</ele><time>2026-04-19T10:07:54Z</time></trkpt><trkpt lat="38.774479270711936" lon="16.38448153461488"><ele>713.0</ele><time>2026-04-19T10:07:57Z</time></trkpt><trkpt lat="38.77441089942014" lon="16.384477675911924"><ele>713.0</ele><time>2026-04-19T10:08:01Z</time></trkpt><trkpt lat="38.774345085496954" lon="16.384496053322476"><ele>713.0</ele><time>2026-04-19T10:08:05Z</time></trkpt><trkpt lat="38.774284126766034" lon="16.38446385365278"><ele>714.1428571428571</ele><time>2026-04-19T10:08:08Z</time></trkpt><trkpt lat="38.77421875387062" lon="16.384490613820564"><ele>715.2857142857143</ele><time>2026-04-19T10:08:11.999Z</time></trkpt><trkpt lat="38.77415250114636" lon="16.384514813154873"><ele>716.4285714285714</ele><time>2026-04-19T10:08:15.999Z</time></trkpt><trkpt lat="38.77409358066172" lon="16.384486023368286"><ele>717.5714285714286</ele><time>2026-04-19T10:08:17.999Z</time></trkpt><trkpt lat="38.77401071292591" lon="16.384473461941628"><ele>718.7142857142858</ele><time>2026-04-19T10:08:20.999Z</time></trkpt><trkpt lat="38.77394799462505" lon="16.384445495383112"><ele>719.8571428571429</ele><time>2026-04-19T10:08:24.999Z</time></trkpt><trkpt lat="38.773879455723005" lon="16.384417826582943"><ele>721.0</ele><time>2026-04-19T10:08:29.999Z</time></trkpt><trkpt lat="38.77381406291842" lon="16.384420631728748"><ele>721.0</ele><time>2026-04-19T10:08:34.998Z</time></trkpt><trkpt lat="38.77375207055924" lon="16.384449619299524"><ele>721.0</ele><time>2026-04-19T10:08:42.998Z</time></trkpt><trkpt lat="38.77368625610919" lon="16.384494399610073"><ele>721.0</ele><time>2026-04-19T10:08:48.998Z</time></trkpt><trkpt lat="38.77365891290388" lon="16.384569345993913"><ele>721.0</ele><time>2026-04-19T10:08:54.998Z</time></trkpt><trkpt lat="38.77360158955864" lon="16.384604013733494"><ele>721.0</ele><time>2026-04-19T10:09:02.998Z</time></trkpt><trkpt lat="38.77353403630537" lon="16.384605413614214"><ele>721.0</ele><time>2026-04-19T10:09:04.998Z</time></trkpt><trkpt lat="38.773452294247754" lon="16.38460557416191"><ele>721.0</ele><time>2026-04-19T10:09:07.998Z</time></trkpt><trkpt lat="38.77338303370959" lon="16.384646508002454"><ele>721.4285714285714</ele><time>2026-04-19T10:09:09.998Z</time></trkpt><trkpt lat="38.7733180073862" lon="16.384650417687876"><ele>721.8571428571429</ele><time>2026-04-19T10:09:12.998Z</time></trkpt><trkpt lat="38.77325763967758" lon="16.38462280532715"><ele>722.2857142857142</ele><time>2026-04-19T10:09:19.998Z</time></trkpt><trkpt lat="38.77318910788779" lon="16.384644431492212"><ele>722.7142857142858</ele><time>2026-04-19T10:09:26.998Z</time></trkpt><trkpt lat="38.773121420205094" lon="16.384656786863907"><ele>723.1428571428571</ele><time>2026-04-19T10:09:29.998Z</time></trkpt><trkpt lat="38.77305987146343" lon="16.384702533452966"><ele>723.5714285714286</ele><time>2026-04-19T10:09:31.998Z</time></trkpt><trkpt lat="38.77295672422039" lon="16.38471652123531"><ele>724.0</ele><time>2026-04-19T10:09:33.998Z</time></trkpt><trkpt lat="38.77285258785617" lon="16.384716934882135"><ele>724.5</ele><time>2026-04-19T10:09:35.998Z</time></trkpt><trkpt lat="38.77279916161566" lon="16.384777605119567"><ele>725.0</ele><time>2026-04-19T10:09:37.998Z</time></trkpt><trkpt lat="38.772755087670205" lon="16.38484288840483"><ele>725.5</ele><time>2026-04-19T10:09:39.998Z</time></trkpt><trkpt lat="38.77269854266451" lon="16.38494592985016"><ele>726.0</ele><time>2026-04-19T10:09:41.998Z</time></trkpt><trkpt lat="38.772636243675755" lon="16.385043486692357"><ele>726.5</ele><time>2026-04-19T10:09:43.998Z</time></trkpt><trkpt lat="38.77258293575284" lon="16.38511613931622"><ele>727.0</ele><time>2026-04-19T10:09:45.998Z</time></trkpt><trkpt lat="38.772527624026935" lon="16.385214383752214"><ele>727.2</ele><time>2026-04-19T10:09:47.998Z</time></trkpt><trkpt lat="38.772445191394596" lon="16.385287699537482"><ele>727.4000000000001</ele><time>2026-04-19T10:09:49.998Z</time></trkpt><trkpt lat="38.77236021838078" lon="16.3853521036825"><ele>727.5999999999999</ele><time>2026-04-19T10:09:51.998Z</time></trkpt><trkpt lat="38.772279857744394" lon="16.38546115224021"><ele>727.8</ele><time>2026-04-19T10:09:53.998Z</time></trkpt><trkpt lat="38.77223186071954" lon="16.385515726964794"><ele>728.0</ele><time>2026-04-19T10:09:54.998Z</time></trkpt><trkpt lat="38.77214531918778" lon="16.385627819811234"><ele>729.8</ele><time>2026-04-19T10:09:56.998Z</time></trkpt><trkpt lat="38.77206871112096" lon="16.385736785808312"><ele>731.5999999999999</ele><time>2026-04-19T10:09:58.998Z</time></trkpt><trkpt lat="38.77199768322436" lon="16.385822454147853"><ele>733.4000000000001</ele><time>2026-04-19T10:10:00.998Z</time></trkpt><trkpt lat="38.77193545731237" lon="16.385894331111736"><ele>735.2</ele><time>2026-04-19T10:10:02.998Z</time></trkpt><trkpt lat="38.771863354932655" lon="16.385982992017233"><ele>737.0</ele><time>2026-04-19T10:10:04.998Z</time></trkpt><trkpt lat="38.77180582411769" lon="16.386033007604617"><ele>737.0</ele><time>2026-04-19T10:10:06.998Z</time></trkpt><trkpt lat="38.771846941943295" lon="16.386130653232406"><ele>737.0</ele><time>2026-04-19T10:10:08.998Z</time></trkpt><trkpt lat="38.77195907320622" lon="16.38618818612185"><ele>737.0</ele><time>2026-04-19T10:10:10.998Z</time></trkpt><trkpt lat="38.77201786969083" lon="16.386240246381046"><ele>737.0</ele><time>2026-04-19T10:10:11.998Z</time></trkpt><trkpt lat="38.77207225384456" lon="16.38629480912092"><ele>737.0</ele><time>2026-04-19T10:10:12.998Z</time></trkpt><trkpt lat="38.77215922897737" lon="16.38638350708209"><ele>740.8</ele><time>2026-04-19T10:10:14.998Z</time></trkpt><trkpt lat="38.77225850435102" lon="16.386405093660795"><ele>744.6</ele><time>2026-04-19T10:10:16.998Z</time></trkpt><trkpt lat="38.77235674895074" lon="16.386408381073128"><ele>748.4</ele><time>2026-04-19T10:10:18.998Z</time></trkpt><trkpt lat="38.77243487317642" lon="16.38648251157414"><ele>752.1999999999999</ele><time>2026-04-19T10:10:20.998Z</time></trkpt><trkpt lat="38.77250450851395" lon="16.38656811699315"><ele>756.0</ele><time>2026-04-19T10:10:22.998Z</time></trkpt><trkpt lat="38.77257382106476" lon="16.38663102410575"><ele>756.0</ele><time>2026-04-19T10:10:24.998Z</time></trkpt><trkpt lat="38.77263388454115" lon="16.386705138112013"><ele>756.0</ele><time>2026-04-19T10:10:26.998Z</time></trkpt><trkpt lat="38.772661437834735" lon="16.38682253724709"><ele>756.0</ele><time>2026-04-19T10:10:28.998Z</time></trkpt><trkpt lat="38.772667786973834" lon="16.386960198545644"><ele>756.0</ele><time>2026-04-19T10:10:30.998Z</time></trkpt><trkpt lat="38.772690158003094" lon="16.38709230703338"><ele>756.0</ele><time>2026-04-19T10:10:32.998Z</time></trkpt><trkpt lat="38.77271362514367" lon="16.387234456850596"><ele>758.8333333333334</ele><time>2026-04-19T10:10:34.998Z</time></trkpt><trkpt lat="38.77273649997513" lon="16.387393550975634"><ele>761.6666666666667</ele><time>2026-04-19T10:10:36.998Z</time></trkpt><trkpt lat="38.77275815491344" lon="16.387475834555485"><ele>764.5</ele><time>2026-04-19T10:10:37.998Z</time></trkpt><trkpt lat="38.77276262884173" lon="16.387567831918187"><ele>767.3333333333334</ele><time>2026-04-19T10:10:38.998Z</time></trkpt><trkpt lat="38.77277547166584" lon="16.38765611454383"><ele>770.1666666666667</ele><time>2026-04-19T10:10:39.998Z</time></trkpt><trkpt lat="38.77278865602706" lon="16.387741149021494"><ele>773.0</ele><time>2026-04-19T10:10:40.998Z</time></trkpt><trkpt lat="38.77280027978419" lon="16.38787773479267"><ele>775.0</ele><time>2026-04-19T10:10:42.998Z</time></trkpt><trkpt lat="38.77281743768127" lon="16.38802531521208"><ele>777.0</ele><time>2026-04-19T10:10:44.998Z</time></trkpt><trkpt lat="38.772842869994165" lon="16.388181993297163"><ele>779.0</ele><time>2026-04-19T10:10:46.998Z</time></trkpt><trkpt lat="38.77285777713777" lon="16.388332877272727"><ele>781.0</ele><time>2026-04-19T10:10:48.998Z</time></trkpt><trkpt lat="38.772886794580444" lon="16.388418078812556"><ele>783.0</ele><time>2026-04-19T10:10:49.998Z</time></trkpt><trkpt lat="38.77291006497335" lon="16.388503526388117"><ele>783.0</ele><time>2026-04-19T10:10:50.998Z</time></trkpt><trkpt lat="38.77291335991064" lon="16.38859048820211"><ele>783.0</ele><time>2026-04-19T10:10:51.998Z</time></trkpt><trkpt lat="38.7729121267432" lon="16.38867553612932"><ele>783.0</ele><time>2026-04-19T10:10:52.998Z</time></trkpt><trkpt lat="38.77293537425683" lon="16.38883618989956"><ele>783.0</ele><time>2026-04-19T10:10:54.998Z</time></trkpt><trkpt lat="38.77294515762634" lon="16.38891952375296"><ele>783.0</ele><time>2026-04-19T10:10:55.998Z</time></trkpt><trkpt lat="38.77295134460432" lon="16.389077873585855"><ele>784.8333333333334</ele><time>2026-04-19T10:10:57.998Z</time></trkpt><trkpt lat="38.77296007447747" lon="16.389207671187698"><ele>786.6666666666667</ele><time>2026-04-19T10:10:59.998Z</time></trkpt><trkpt lat="38.77294932341674" lon="16.389330878320802"><ele>788.5</ele><time>2026-04-19T10:11:01.998Z</time></trkpt><trkpt lat="38.7729016394006" lon="16.38945229482746"><ele>790.3333333333334</ele><time>2026-04-19T10:11:03.998Z</time></trkpt><trkpt lat="38.77286019949426" lon="16.389536106988125"><ele>792.1666666666667</ele><time>2026-04-19T10:11:08.998Z</time></trkpt><trkpt lat="38.77283949325208" lon="16.389615936409353"><ele>794.0</ele><time>2026-04-19T10:11:11.998Z</time></trkpt><trkpt lat="38.7728024957608" lon="16.38969242737788"><ele>795.8333333333334</ele><time>2026-04-19T10:11:13.998Z</time></trkpt><trkpt lat="38.772779957732794" lon="16.389778023824135"><ele>797.6666666666667</ele><time>2026-04-19T10:11:16.998Z</time></trkpt><trkpt lat="38.77271957899456" lon="16.389863089791795"><ele>799.5</ele><time>2026-04-19T10:11:18.998Z</time></trkpt><trkpt lat="38.77267052737374" lon="16.38992271993832"><ele>801.3333333333333</ele><time>2026-04-19T10:11:19.998Z</time></trkpt><trkpt lat="38.77261215391167" lon="16.389983991252034"><ele>803.1666666666666</ele><time>2026-04-19T10:11:20.998Z</time></trkpt><trkpt lat="38.772554679659095" lon="16.390042515781367"><ele>805.0</ele><time>2026-04-19T10:11:21.998Z</time></trkpt><trkpt lat="38.7724934311341" lon="16.390105440095194"><ele>805.0</ele><time>2026-04-19T10:11:22.998Z</time></trkpt><trkpt lat="38.772413994951926" lon="16.390155231723057"><ele>805.0</ele><time>2026-04-19T10:11:23.998Z</time></trkpt><trkpt lat="38.77233785893128" lon="16.390223347832766"><ele>805.0</ele><time>2026-04-19T10:11:24.998Z</time></trkpt><trkpt lat="38.772271609226216" lon="16.39030806513477"><ele>805.0</ele><time>2026-04-19T10:11:25.998Z</time></trkpt><trkpt lat="38.77219533677279" lon="16.39037602189087"><ele>805.0</ele><time>2026-04-19T10:11:26.998Z</time></trkpt><trkpt lat="38.772110364914" lon="16.39046518979801"><ele>806.25</ele><time>2026-04-19T10:11:27.998Z</time></trkpt><trkpt lat="38.77200936254488" lon="16.39052254990038"><ele>807.5</ele><time>2026-04-19T10:11:28.998Z</time></trkpt><trkpt lat="38.77190688709984" lon="16.390591295693962"><ele>808.75</ele><time>2026-04-19T10:11:29.998Z</time></trkpt><trkpt lat="38.77180638843075" lon="16.39067277432575"><ele>810.0</ele><time>2026-04-19T10:11:30.998Z</time></trkpt><trkpt lat="38.771711166465" lon="16.390750905801514"><ele>810.0</ele><time>2026-04-19T10:11:31.998Z</time></trkpt><trkpt lat="38.77161589565306" lon="16.39082170071959"><ele>810.0</ele><time>2026-04-19T10:11:32.998Z</time></trkpt><trkpt lat="38.77152949983852" lon="16.390881736234217"><ele>810.0</ele><time>2026-04-19T10:11:33.998Z</time></trkpt><trkpt lat="38.771452050256116" lon="16.39095488535275"><ele>810.0</ele><time>2026-04-19T10:11:34.998Z</time></trkpt><trkpt lat="38.77139994577307" lon="16.391053330910925"><ele>810.0</ele><time>2026-04-19T10:11:35.998Z</time></trkpt><trkpt lat="38.771347715331636" lon="16.39113820899011"><ele>810.0</ele><time>2026-04-19T10:11:36.998Z</time></trkpt><trkpt lat="38.77128808131379" lon="16.39120637596061"><ele>810.0</ele><time>2026-04-19T10:11:37.998Z</time></trkpt><trkpt lat="38.77123354102975" lon="16.391285953665104"><ele>810.0</ele><time>2026-04-19T10:11:38.998Z</time></trkpt><trkpt lat="38.771166758403446" lon="16.391359882408054"><ele>810.0</ele><time>2026-04-19T10:11:39.998Z</time></trkpt><trkpt lat="38.771118356447154" lon="16.39143250285949"><ele>810.0</ele><time>2026-04-19T10:11:40.998Z</time></trkpt><trkpt lat="38.771078324879376" lon="16.39150957183609"><ele>810.0</ele><time>2026-04-19T10:11:41.998Z</time></trkpt><trkpt lat="38.771070252019655" lon="16.3915983953406"><ele>811.2</ele><time>2026-04-19T10:11:42.998Z</time></trkpt><trkpt lat="38.77105957490996" lon="16.391686531652514"><ele>812.4</ele><time>2026-04-19T10:11:43.998Z</time></trkpt><trkpt lat="38.77098730970206" lon="16.391781485456974"><ele>813.5999999999999</ele><time>2026-04-19T10:11:45.998Z</time></trkpt><trkpt lat="38.7708556648813" lon="16.391743333169547"><ele>814.8</ele><time>2026-04-19T10:11:47.998Z</time></trkpt><trkpt lat="38.7707723260561" lon="16.391690251974836"><ele>816.0</ele><time>2026-04-19T10:11:48.998Z</time></trkpt><trkpt lat="38.7706996441675" lon="16.391643439028186"><ele>816.0</ele><time>2026-04-19T10:11:49.998Z</time></trkpt><trkpt lat="38.7706390365759" lon="16.39161692976372"><ele>816.0</ele><time>2026-04-19T10:11:50.998Z</time></trkpt><trkpt lat="38.77056422833175" lon="16.391598067744244"><ele>816.0</ele><time>2026-04-19T10:11:51.998Z</time></trkpt><trkpt lat="38.770466078519654" lon="16.39159675972409"><ele>816.0</ele><time>2026-04-19T10:11:52.998Z</time></trkpt><trkpt lat="38.7703461341035" lon="16.39165888876916"><ele>816.0</ele><time>2026-04-19T10:11:53.998Z</time></trkpt><trkpt lat="38.77024532788654" lon="16.39169003001808"><ele>816.6666666666666</ele><time>2026-04-19T10:11:54.998Z</time></trkpt><trkpt lat="38.77015230034943" lon="16.39172885053785"><ele>817.3333333333333</ele><time>2026-04-19T10:11:55.998Z</time></trkpt><trkpt lat="38.77007755443482" lon="16.391751337026154"><ele>818.0</ele><time>2026-04-19T10:11:56.998Z</time></trkpt><trkpt lat="38.77000388498423" lon="16.39177255980433"><ele>818.6666666666666</ele><time>2026-04-19T10:11:57.998Z</time></trkpt><trkpt lat="38.76994587088331" lon="16.39181064092"><ele>819.3333333333333</ele><time>2026-04-19T10:11:58.998Z</time></trkpt><trkpt lat="38.76986661669331" lon="16.39191095483292"><ele>820.0</ele><time>2026-04-19T10:12:00.998Z</time></trkpt><trkpt lat="38.76977438148166" lon="16.39196614214421"><ele>819.9999999999999</ele><time>2026-04-19T10:12:02.998Z</time></trkpt><trkpt lat="38.769679097696354" lon="16.39196879586384"><ele>820.0</ele><time>2026-04-19T10:12:04.998Z</time></trkpt><trkpt lat="38.76956849711071" lon="16.39194929643494"><ele>820.0</ele><time>2026-04-19T10:12:06.997Z</time></trkpt><trkpt lat="38.76948119206041" lon="16.39192050237644"><ele>820.0</ele><time>2026-04-19T10:12:08.997Z</time></trkpt><trkpt lat="38.76940695756695" lon="16.39189889041032"><ele>819.9999999999999</ele><time>2026-04-19T10:12:10.997Z</time></trkpt><trkpt lat="38.76935141968491" lon="16.391849434477308"><ele>820.0</ele><time>2026-04-19T10:12:13.997Z</time></trkpt><trkpt lat="38.7693521217349" lon="16.391753920981202"><ele>819.1666666666666</ele><time>2026-04-19T10:12:18.997Z</time></trkpt><trkpt lat="38.7693429295188" lon="16.39167311437027"><ele>818.3333333333333</ele><time>2026-04-19T10:12:21.997Z</time></trkpt><trkpt lat="38.769320893879176" lon="16.391591708433157"><ele>817.5</ele><time>2026-04-19T10:12:24.997Z</time></trkpt><trkpt lat="38.76929936892987" lon="16.391486857670472"><ele>816.6666666666667</ele><time>2026-04-19T10:12:28.997Z</time></trkpt><trkpt lat="38.76926474631324" lon="16.39141617085155"><ele>815.8333333333334</ele><time>2026-04-19T10:12:32Z</time></trkpt><trkpt lat="38.76920627268989" lon="16.391320801959775"><ele>815.0</ele><time>2026-04-19T10:12:35Z</time></trkpt><trkpt lat="38.76912166702043" lon="16.391248480469006"><ele>815.0000000000001</ele><time>2026-04-19T10:12:37Z</time></trkpt><trkpt lat="38.76905750019441" lon="16.39124166476104"><ele>815.0</ele><time>2026-04-19T10:12:39Z</time></trkpt><trkpt lat="38.76898388783343" lon="16.39128680897655"><ele>815.0</ele><time>2026-04-19T10:12:42Z</time></trkpt><trkpt lat="38.768913099375375" lon="16.39134738315317"><ele>815.0</ele><time>2026-04-19T10:12:45Z</time></trkpt><trkpt lat="38.76883437013966" lon="16.3913474018933"><ele>815.0000000000001</ele><time>2026-04-19T10:12:48Z</time></trkpt><trkpt lat="38.768774086313215" lon="16.391323352467523"><ele>815.0</ele><time>2026-04-19T10:12:50Z</time></trkpt><trkpt lat="38.7687112172249" lon="16.391251819940425"><ele>813.4285714285714</ele><time>2026-04-19T10:12:54Z</time></trkpt><trkpt lat="38.768672583651785" lon="16.391158008406773"><ele>811.8571428571429</ele><time>2026-04-19T10:12:57Z</time></trkpt><trkpt lat="38.76862586509887" lon="16.391092184042982"><ele>810.2857142857142</ele><time>2026-04-19T10:13:01Z</time></trkpt><trkpt lat="38.768554020720295" lon="16.39107700099284"><ele>808.7142857142858</ele><time>2026-04-19T10:13:04Z</time></trkpt><trkpt lat="38.76849063768314" lon="16.39107313290812"><ele>807.1428571428572</ele><time>2026-04-19T10:13:08Z</time></trkpt><trkpt lat="38.76842840463068" lon="16.39105366498998"><ele>805.5714285714286</ele><time>2026-04-19T10:13:14Z</time></trkpt><trkpt lat="38.768357558794534" lon="16.391058018666634"><ele>804.0</ele><time>2026-04-19T10:13:19Z</time></trkpt><trkpt lat="38.768300510655834" lon="16.390964064860267"><ele>803.8000000000001</ele><time>2026-04-19T10:14:23.999Z</time></trkpt><trkpt lat="38.76824343639997" lon="16.390908887135534"><ele>803.6</ele><time>2026-04-19T10:16:42.999Z</time></trkpt><trkpt lat="38.76813185460396" lon="16.39089061160735"><ele>803.4</ele><time>2026-04-19T10:16:44.999Z</time></trkpt><trkpt lat="38.76805009232706" lon="16.39084602587941"><ele>803.2</ele><time>2026-04-19T10:16:46.999Z</time></trkpt><trkpt lat="38.76802090960058" lon="16.390713812067265"><ele>803.0</ele><time>2026-04-19T10:16:48.999Z</time></trkpt><trkpt lat="38.76795472348359" lon="16.39059508441183"><ele>803.0</ele><time>2026-04-19T10:16:50.999Z</time></trkpt><trkpt lat="38.767827169618414" lon="16.390534141626304"><ele>803.0</ele><time>2026-04-19T10:16:52.999Z</time></trkpt><trkpt lat="38.76774755372178" lon="16.390518340149885"><ele>803.0</ele><time>2026-04-19T10:16:53.999Z</time></trkpt><trkpt lat="38.76765826663139" lon="16.390511431127283"><ele>803.0</ele><time>2026-04-19T10:16:54.999Z</time></trkpt><trkpt lat="38.76757033484981" lon="16.390485211144675"><ele>803.0</ele><time>2026-04-19T10:16:55.999Z</time></trkpt><trkpt lat="38.76748311276148" lon="16.390463879305933"><ele>801.6666666666667</ele><time>2026-04-19T10:16:56.999Z</time></trkpt><trkpt lat="38.767398611279376" lon="16.390457708856584"><ele>800.3333333333334</ele><time>2026-04-19T10:16:57.999Z</time></trkpt><trkpt lat="38.767333889121986" lon="16.39045278138705"><ele>799.0</ele><time>2026-04-19T10:16:58.999Z</time></trkpt><trkpt lat="38.76721029383326" lon="16.39044737342957"><ele>797.6666666666667</ele><time>2026-04-19T10:17:00.999Z</time></trkpt><trkpt lat="38.76713445411554" lon="16.390435790687675"><ele>796.3333333333334</ele><time>2026-04-19T10:17:02.999Z</time></trkpt><trkpt lat="38.767068487245425" lon="16.390411033060836"><ele>795.0</ele><time>2026-04-19T10:17:04.999Z</time></trkpt><trkpt lat="38.76700197492499" lon="16.390392256084322"><ele>795.0</ele><time>2026-04-19T10:17:06.999Z</time></trkpt><trkpt lat="38.76691348513949" lon="16.390384846742613"><ele>795.0</ele><time>2026-04-19T10:17:08.999Z</time></trkpt><trkpt lat="38.76684184345035" lon="16.390281618085464"><ele>795.0</ele><time>2026-04-19T10:17:10.999Z</time></trkpt><trkpt lat="38.766810905894374" lon="16.390206637199828"><ele>795.0</ele><time>2026-04-19T10:17:11.999Z</time></trkpt><trkpt lat="38.76673810463108" lon="16.390156439098647"><ele>795.0</ele><time>2026-04-19T10:17:13.999Z</time></trkpt><trkpt lat="38.76667333613913" lon="16.39008075222211"><ele>795.0</ele><time>2026-04-19T10:17:15.999Z</time></trkpt><trkpt lat="38.76667661252056" lon="16.389997813919283"><ele>796.1666666666666</ele><time>2026-04-19T10:17:16.999Z</time></trkpt><trkpt lat="38.76667958671118" lon="16.389905228604796"><ele>797.3333333333333</ele><time>2026-04-19T10:17:17.999Z</time></trkpt><trkpt lat="38.76669917094443" lon="16.38982100876918"><ele>798.5</ele><time>2026-04-19T10:17:18.999Z</time></trkpt><trkpt lat="38.76670491593475" lon="16.389737651329376"><ele>799.6666666666666</ele><time>2026-04-19T10:17:19.999Z</time></trkpt><trkpt lat="38.76670377066666" lon="16.389596893125724"><ele>800.8333333333333</ele><time>2026-04-19T10:17:21.999Z</time></trkpt><trkpt lat="38.766751203274566" lon="16.389501975168393"><ele>802.0</ele><time>2026-04-19T10:17:23.999Z</time></trkpt><trkpt lat="38.76680444540215" lon="16.38944763125967"><ele>798.8333333333333</ele><time>2026-04-19T10:17:24.999Z</time></trkpt><trkpt lat="38.76686405893803" lon="16.389393985691125"><ele>795.6666666666666</ele><time>2026-04-19T10:17:25.998Z</time></trkpt><trkpt lat="38.76694294093111" lon="16.389284984093372"><ele>792.5</ele><time>2026-04-19T10:17:27.998Z</time></trkpt><trkpt lat="38.76698593082957" lon="16.389193274227207"><ele>789.3333333333333</ele><time>2026-04-19T10:17:29.998Z</time></trkpt><trkpt lat="38.76701290537384" lon="16.389100823877087"><ele>786.1666666666666</ele><time>2026-04-19T10:17:32.998Z</time></trkpt><trkpt lat="38.767006285399546" lon="16.38897601467577"><ele>783.0</ele><time>2026-04-19T10:17:35.998Z</time></trkpt><trkpt lat="38.767009260293754" lon="16.3888564426913"><ele>782.6666666666666</ele><time>2026-04-19T10:17:37.998Z</time></trkpt><trkpt lat="38.76698635100484" lon="16.388779867771817"><ele>782.3333333333333</ele><time>2026-04-19T10:17:38.998Z</time></trkpt><trkpt lat="38.766956387732904" lon="16.388699975634488"><ele>782.0</ele><time>2026-04-19T10:17:39.998Z</time></trkpt><trkpt lat="38.76693430286312" lon="16.38861608653074"><ele>781.6666666666666</ele><time>2026-04-19T10:17:40.998Z</time></trkpt><trkpt lat="38.76691563075671" lon="16.388531140814763"><ele>781.3333333333333</ele><time>2026-04-19T10:17:41.998Z</time></trkpt><trkpt lat="38.76688915697197" lon="16.388407557127707"><ele>781.0</ele><time>2026-04-19T10:17:43.998Z</time></trkpt><trkpt lat="38.76686120692945" lon="16.388301997126433"><ele>782.1666666666666</ele><time>2026-04-19T10:17:46.998Z</time></trkpt><trkpt lat="38.766844207848315" lon="16.388210682091803"><ele>783.3333333333333</ele><time>2026-04-19T10:17:48.998Z</time></trkpt><trkpt lat="38.76685336911543" lon="16.388101626899786"><ele>784.5</ele><time>2026-04-19T10:17:50.998Z</time></trkpt><trkpt lat="38.76685290553168" lon="16.388017968379042"><ele>785.6666666666667</ele><time>2026-04-19T10:17:51.998Z</time></trkpt><trkpt lat="38.76684058528415" lon="16.387925676085484"><ele>786.8333333333334</ele><time>2026-04-19T10:17:52.998Z</time></trkpt><trkpt lat="38.76683005355243" lon="16.38784354486041"><ele>788.0</ele><time>2026-04-19T10:17:53.998Z</time></trkpt><trkpt lat="38.76683243253351" lon="16.387711260487727"><ele>788.0000000000001</ele><time>2026-04-19T10:17:55.998Z</time></trkpt><trkpt lat="38.76684796600043" lon="16.387577369091446"><ele>788.0</ele><time>2026-04-19T10:17:57.998Z</time></trkpt><trkpt lat="38.76685934488374" lon="16.387456172226052"><ele>788.0</ele><time>2026-04-19T10:17:59.998Z</time></trkpt><trkpt lat="38.76688395743028" lon="16.38733034011714"><ele>788.0</ele><time>2026-04-19T10:18:01.998Z</time></trkpt><trkpt lat="38.766894486582444" lon="16.387244421092873"><ele>788.0000000000001</ele><time>2026-04-19T10:18:02.998Z</time></trkpt><trkpt lat="38.76689099125225" lon="16.387151983203903"><ele>788.0</ele><time>2026-04-19T10:18:03.998Z</time></trkpt><trkpt lat="38.76689982975841" lon="16.38705893931391"><ele>787.4</ele><time>2026-04-19T10:18:04.998Z</time></trkpt><trkpt lat="38.76690512175043" lon="16.38697595544007"><ele>786.8</ele><time>2026-04-19T10:18:05.998Z</time></trkpt><trkpt lat="38.76692155405433" lon="16.386828631205674"><ele>786.2</ele><time>2026-04-19T10:18:07.998Z</time></trkpt><trkpt lat="38.76686957461847" lon="16.3866817636301"><ele>785.6</ele><time>2026-04-19T10:18:09.998Z</time></trkpt><trkpt lat="38.76679979203928" lon="16.386602360118168"><ele>785.0</ele><time>2026-04-19T10:18:10.998Z</time></trkpt><trkpt lat="38.76673107682946" lon="16.38651520537222"><ele>785.0000000000001</ele><time>2026-04-19T10:18:11.998Z</time></trkpt><trkpt lat="38.76665123728742" lon="16.38644147910952"><ele>785.0</ele><time>2026-04-19T10:18:12.998Z</time></trkpt><trkpt lat="38.76657468850855" lon="16.386385114461714"><ele>785.0</ele><time>2026-04-19T10:18:13.998Z</time></trkpt><trkpt lat="38.766501515408464" lon="16.386333211289575"><ele>785.0</ele><time>2026-04-19T10:18:14.998Z</time></trkpt><trkpt lat="38.76643274386791" lon="16.386289003775786"><ele>785.0000000000001</ele><time>2026-04-19T10:18:15.998Z</time></trkpt><trkpt lat="38.7663707095985" lon="16.386257129597535"><ele>785.0</ele><time>2026-04-19T10:18:16.998Z</time></trkpt><trkpt lat="38.766302461913156" lon="16.386252866607535"><ele>784.6666666666667</ele><time>2026-04-19T10:18:17.998Z</time></trkpt><trkpt lat="38.766189243620865" lon="16.386268578416605"><ele>784.3333333333334</ele><time>2026-04-19T10:18:19.998Z</time></trkpt><trkpt lat="38.76612021358989" lon="16.38626742660768"><ele>784.0</ele><time>2026-04-19T10:18:21.998Z</time></trkpt><trkpt lat="38.766042109038224" lon="16.386274906727593"><ele>783.6666666666667</ele><time>2026-04-19T10:18:24.998Z</time></trkpt><trkpt lat="38.765966929792924" lon="16.386274887537674"><ele>783.3333333333334</ele><time>2026-04-19T10:18:26.998Z</time></trkpt><trkpt lat="38.7658707126087" lon="16.386266543249832"><ele>783.0</ele><time>2026-04-19T10:18:28.998Z</time></trkpt><trkpt lat="38.76579309105125" lon="16.38624791560764"><ele>783.0</ele><time>2026-04-19T10:18:30.998Z</time></trkpt><trkpt lat="38.76572755108162" lon="16.38624932941757"><ele>783.0</ele><time>2026-04-19T10:18:32.998Z</time></trkpt><trkpt lat="38.7656602661849" lon="16.386254120196984"><ele>783.0</ele><time>2026-04-19T10:18:34.998Z</time></trkpt><trkpt lat="38.7655911009942" lon="16.38626670783277"><ele>783.0</ele><time>2026-04-19T10:18:36.998Z</time></trkpt><trkpt lat="38.76551058484185" lon="16.386285570928337"><ele>783.0</ele><time>2026-04-19T10:18:39.998Z</time></trkpt><trkpt lat="38.765445160052636" lon="16.386320282128345"><ele>783.0</ele><time>2026-04-19T10:18:42.998Z</time></trkpt><trkpt lat="38.76537602031724" lon="16.38631422577695"><ele>783.0</ele><time>2026-04-19T10:18:44.998Z</time></trkpt><trkpt lat="38.765247725966404" lon="16.386317285118377"><ele>783.6666666666666</ele><time>2026-04-19T10:18:46.998Z</time></trkpt><trkpt lat="38.765134122838205" lon="16.386334014475857"><ele>784.3333333333333</ele><time>2026-04-19T10:18:48.998Z</time></trkpt><trkpt lat="38.76505387242558" lon="16.38637062664371"><ele>785.0</ele><time>2026-04-19T10:18:50.998Z</time></trkpt><trkpt lat="38.76497550845442" lon="16.38640423025686"><ele>785.6666666666666</ele><time>2026-04-19T10:18:53.998Z</time></trkpt><trkpt lat="38.76488844789558" lon="16.386399706765268"><ele>786.3333333333333</ele><time>2026-04-19T10:18:56.998Z</time></trkpt><trkpt lat="38.76482680650159" lon="16.38634719524296"><ele>787.0</ele><time>2026-04-19T10:18:59.998Z</time></trkpt><trkpt lat="38.76480690019359" lon="16.38623529303342"><ele>787.0</ele><time>2026-04-19T10:19:02.998Z</time></trkpt><trkpt lat="38.764762958647026" lon="16.386150330401332"><ele>787.0</ele><time>2026-04-19T10:19:04.998Z</time></trkpt><trkpt lat="38.76474207615019" lon="16.386042736556238"><ele>787.0</ele><time>2026-04-19T10:19:06.998Z</time></trkpt><trkpt lat="38.7647412812179" lon="16.385891117408807"><ele>787.0</ele><time>2026-04-19T10:19:08.998Z</time></trkpt><trkpt lat="38.764740064692525" lon="16.3857665135792"><ele>787.0</ele><time>2026-04-19T10:19:10.998Z</time></trkpt><trkpt lat="38.764733356801074" lon="16.385674812932347"><ele>787.0</ele><time>2026-04-19T10:19:12.998Z</time></trkpt><trkpt lat="38.76471805190525" lon="16.385589630309145"><ele>787.0</ele><time>2026-04-19T10:19:14.998Z</time></trkpt><trkpt lat="38.76472969926482" lon="16.38549950047155"><ele>787.0</ele><time>2026-04-19T10:19:17.998Z</time></trkpt><trkpt lat="38.76472959205578" lon="16.38540365637307"><ele>787.0</ele><time>2026-04-19T10:19:19.998Z</time></trkpt><trkpt lat="38.76474196745087" lon="16.38531936055738"><ele>787.0</ele><time>2026-04-19T10:19:22.998Z</time></trkpt><trkpt lat="38.764758680495135" lon="16.385227270141343"><ele>787.0</ele><time>2026-04-19T10:19:27.998Z</time></trkpt><trkpt lat="38.76477505747105" lon="16.385138535751665"><ele>787.0</ele><time>2026-04-19T10:19:33.998Z</time></trkpt><trkpt lat="38.76479938696355" lon="16.385053117322933"><ele>786.8333333333333</ele><time>2026-04-19T10:19:38Z</time></trkpt><trkpt lat="38.76483827100313" lon="16.384943758805132"><ele>786.6666666666666</ele><time>2026-04-19T10:19:41Z</time></trkpt><trkpt lat="38.76489604379149" lon="16.384864938736975"><ele>786.5</ele><time>2026-04-19T10:19:44Z</time></trkpt><trkpt lat="38.76495926573755" lon="16.38480816772638"><ele>786.3333333333333</ele><time>2026-04-19T10:19:48Z</time></trkpt><trkpt lat="38.76503865164134" lon="16.38478010608703"><ele>786.1666666666666</ele><time>2026-04-19T10:19:53Z</time></trkpt><trkpt lat="38.76512759961855" lon="16.38478007874674"><ele>786.0</ele><time>2026-04-19T10:20:07Z</time></trkpt><trkpt lat="38.76518031070621" lon="16.384839401903026"><ele>785.0</ele><time>2026-04-19T10:20:15Z</time></trkpt><trkpt lat="38.76526627981516" lon="16.384934277494512"><ele>784.0</ele><time>2026-04-19T10:20:35Z</time></trkpt><trkpt lat="38.76528537164926" lon="16.38501824056325"><ele>783.0</ele><time>2026-04-19T10:20:43Z</time></trkpt><trkpt lat="38.76535891255896" lon="16.385034275397782"><ele>782.0</ele><time>2026-04-19T10:20:48Z</time></trkpt><trkpt lat="38.76544641113251" lon="16.385020815478097"><ele>781.0</ele><time>2026-04-19T10:20:50Z</time></trkpt><trkpt lat="38.76551133143118" lon="16.385028135018597"><ele>780.0</ele><time>2026-04-19T10:20:51Z</time></trkpt><trkpt lat="38.76559695406325" lon="16.385045915602277"><ele>780.0</ele><time>2026-04-19T10:20:52Z</time></trkpt><trkpt lat="38.76568059273068" lon="16.38507460888342"><ele>780.0</ele><time>2026-04-19T10:20:53Z</time></trkpt><trkpt lat="38.76575440999788" lon="16.38508971008079"><ele>780.0</ele><time>2026-04-19T10:20:54Z</time></trkpt><trkpt lat="38.765822036654136" lon="16.385102304661086"><ele>780.0</ele><time>2026-04-19T10:20:55Z</time></trkpt><trkpt lat="38.765929126740154" lon="16.38512985533387"><ele>780.0</ele><time>2026-04-19T10:20:57Z</time></trkpt><trkpt lat="38.76604489310213" lon="16.38516922780324"><ele>779.1666666666666</ele><time>2026-04-19T10:20:59Z</time></trkpt><trkpt lat="38.76610757665494" lon="16.385179876910467"><ele>778.3333333333333</ele><time>2026-04-19T10:21:00Z</time></trkpt><trkpt lat="38.766199933486185" lon="16.385176532993746"><ele>777.5</ele><time>2026-04-19T10:21:02Z</time></trkpt><trkpt lat="38.766284059137746" lon="16.385148402925772"><ele>776.6666666666666</ele><time>2026-04-19T10:21:04Z</time></trkpt><trkpt lat="38.766364219981156" lon="16.385091295818892"><ele>775.8333333333333</ele><time>2026-04-19T10:21:06Z</time></trkpt><trkpt lat="38.76646662979856" lon="16.38503594010607"><ele>775.0</ele><time>2026-04-19T10:21:08Z</time></trkpt><trkpt lat="38.76657533424674" lon="16.38496310783044"><ele>775.0</ele><time>2026-04-19T10:21:10Z</time></trkpt><trkpt lat="38.76663198910939" lon="16.384920998855804"><ele>775.0</ele><time>2026-04-19T10:21:11Z</time></trkpt><trkpt lat="38.7667134670594" lon="16.38480019344359"><ele>775.0</ele><time>2026-04-19T10:21:13Z</time></trkpt><trkpt lat="38.76675417601398" lon="16.384735721468225"><ele>775.0</ele><time>2026-04-19T10:21:14Z</time></trkpt><trkpt lat="38.76679649627352" lon="16.384666781192635"><ele>775.0</ele><time>2026-04-19T10:21:15Z</time></trkpt><trkpt lat="38.766861240466795" lon="16.38452572631836"><ele>777.0</ele><time>2026-04-19T10:21:17Z</time></trkpt><trkpt lat="38.76689514884771" lon="16.38445528845733"><ele>779.0</ele><time>2026-04-19T10:21:18Z</time></trkpt><trkpt lat="38.76697057894257" lon="16.384328532259516"><ele>781.0</ele><time>2026-04-19T10:21:20Z</time></trkpt><trkpt lat="38.76703127425469" lon="16.38423661110499"><ele>783.0</ele><time>2026-04-19T10:21:22Z</time></trkpt><trkpt lat="38.76708895806763" lon="16.384161694533297"><ele>785.0</ele><time>2026-04-19T10:21:25Z</time></trkpt><trkpt lat="38.76713675913316" lon="16.384069152777542"><ele>785.0</ele><time>2026-04-19T10:21:28Z</time></trkpt><trkpt lat="38.767180887771055" lon="16.383999521106094"><ele>785.0</ele><time>2026-04-19T10:21:32Z</time></trkpt><trkpt lat="38.767205632118845" lon="16.383920599321435"><ele>785.0</ele><time>2026-04-19T10:21:37Z</time></trkpt><trkpt lat="38.76723638401104" lon="16.38383095859355"><ele>785.0</ele><time>2026-04-19T10:21:43Z</time></trkpt><trkpt lat="38.76728125407094" lon="16.383754934474815"><ele>785.0</ele><time>2026-04-19T10:21:48Z</time></trkpt><trkpt lat="38.76729979060069" lon="16.383656594786803"><ele>785.0</ele><time>2026-04-19T10:21:53Z</time></trkpt><trkpt lat="38.76729095632599" lon="16.383558563623577"><ele>785.0</ele><time>2026-04-19T10:21:56Z</time></trkpt><trkpt lat="38.767311533734244" lon="16.38345600999564"><ele>784.7142857142858</ele><time>2026-04-19T10:22:00Z</time></trkpt><trkpt lat="38.76732375910346" lon="16.383374647561066"><ele>784.4285714285713</ele><time>2026-04-19T10:22:02Z</time></trkpt><trkpt lat="38.767353312689956" lon="16.38329827017781"><ele>784.1428571428571</ele><time>2026-04-19T10:22:04Z</time></trkpt><trkpt lat="38.76738567453608" lon="16.383221659444487"><ele>783.8571428571429</ele><time>2026-04-19T10:22:06Z</time></trkpt><trkpt lat="38.767410652870986" lon="16.383128564245048"><ele>783.5714285714287</ele><time>2026-04-19T10:22:08Z</time></trkpt><trkpt lat="38.76743670673949" lon="16.383030635704007"><ele>783.2857142857142</ele><time>2026-04-19T10:22:10Z</time></trkpt><trkpt lat="38.76746672002244" lon="16.38293794185415"><ele>783.0</ele><time>2026-04-19T10:22:13Z</time></trkpt><trkpt lat="38.7674754526159" lon="16.38284494571358"><ele>781.3333333333334</ele><time>2026-04-19T10:22:16Z</time></trkpt><trkpt lat="38.767482291381675" lon="16.382759913206147"><ele>779.6666666666667</ele><time>2026-04-19T10:22:18Z</time></trkpt><trkpt lat="38.76749207760999" lon="16.382675615271076"><ele>778.0</ele><time>2026-04-19T10:22:20Z</time></trkpt><trkpt lat="38.76747540900727" lon="16.382570589202132"><ele>776.3333333333334</ele><time>2026-04-19T10:22:23Z</time></trkpt><trkpt lat="38.76749255004393" lon="16.382472827122896"><ele>774.6666666666667</ele><time>2026-04-19T10:22:26Z</time></trkpt><trkpt lat="38.76746687751577" lon="16.382375351484693"><ele>773.0</ele><time>2026-04-19T10:22:30Z</time></trkpt><trkpt lat="38.76740201861956" lon="16.38227803045672"><ele>773.0000000000001</ele><time>2026-04-19T10:22:32Z</time></trkpt><trkpt lat="38.7673447738159" lon="16.38223492352768"><ele>773.0</ele><time>2026-04-19T10:22:34Z</time></trkpt><trkpt lat="38.76726634151378" lon="16.382200961654913"><ele>773.0</ele><time>2026-04-19T10:22:39Z</time></trkpt><trkpt lat="38.76720897795483" lon="16.38208518852473"><ele>773.0</ele><time>2026-04-19T10:22:41Z</time></trkpt><trkpt lat="38.76719237651285" lon="16.38200397399966"><ele>773.0000000000001</ele><time>2026-04-19T10:22:41.999Z</time></trkpt><trkpt lat="38.76715738824818" lon="16.381880996191637"><ele>773.0</ele><time>2026-04-19T10:22:43.999Z</time></trkpt><trkpt lat="38.76712999254002" lon="16.381772669746773"><ele>770.0</ele><time>2026-04-19T10:22:46.999Z</time></trkpt><trkpt lat="38.767099552270786" lon="16.381699184755302"><ele>767.0</ele><time>2026-04-19T10:22:48.999Z</time></trkpt><trkpt lat="38.76705206818425" lon="16.38161851193025"><ele>764.0</ele><time>2026-04-19T10:22:51.999Z</time></trkpt><trkpt lat="38.76701773987515" lon="16.381527623307814"><ele>761.0</ele><time>2026-04-19T10:22:54.999Z</time></trkpt><trkpt lat="38.76699507721179" lon="16.38144893919491"><ele>758.0</ele><time>2026-04-19T10:22:57.999Z</time></trkpt><trkpt lat="38.76695336460624" lon="16.381371432519494"><ele>755.0</ele><time>2026-04-19T10:23:00.999Z</time></trkpt><trkpt lat="38.76690242551228" lon="16.381314136543633"><ele>752.0</ele><time>2026-04-19T10:23:03.999Z</time></trkpt><trkpt lat="38.76683359047704" lon="16.381196285360048"><ele>750.8</ele><time>2026-04-19T10:23:05.999Z</time></trkpt><trkpt lat="38.76676887903071" lon="16.38113653335254"><ele>749.6</ele><time>2026-04-19T10:23:06.999Z</time></trkpt><trkpt lat="38.766710440652695" lon="16.381092724197234"><ele>748.4</ele><time>2026-04-19T10:23:07.999Z</time></trkpt><trkpt lat="38.76660565717423" lon="16.38103458764038"><ele>747.1999999999999</ele><time>2026-04-19T10:23:09.999Z</time></trkpt><trkpt lat="38.76650783389639" lon="16.3809786843904"><ele>746.0</ele><time>2026-04-19T10:23:11.999Z</time></trkpt><trkpt lat="38.76640091667113" lon="16.38091956472062"><ele>746.0</ele><time>2026-04-19T10:23:13.999Z</time></trkpt><trkpt lat="38.76632640444445" lon="16.380892223645592"><ele>746.0</ele><time>2026-04-19T10:23:15.999Z</time></trkpt><trkpt lat="38.7662772925114" lon="16.380834998998473"><ele>746.0</ele><time>2026-04-19T10:23:19.999Z</time></trkpt><trkpt lat="38.76622905307632" lon="16.380781706480718"><ele>746.0</ele><time>2026-04-19T10:23:24.999Z</time></trkpt><trkpt lat="38.766166244616606" lon="16.38079532957632"><ele>746.0</ele><time>2026-04-19T10:23:27.999Z</time></trkpt><trkpt lat="38.76610253848997" lon="16.38082273492132"><ele>746.0</ele><time>2026-04-19T10:23:30.999Z</time></trkpt><trkpt lat="38.76602255899188" lon="16.3808543137498"><ele>746.0</ele><time>2026-04-19T10:23:36.999Z</time></trkpt><trkpt lat="38.76595943265337" lon="16.38084228683925"><ele>746.5</ele><time>2026-04-19T10:23:38.999Z</time></trkpt><trkpt lat="38.765896575511896" lon="16.380828898602616"><ele>747.0</ele><time>2026-04-19T10:23:40.999Z</time></trkpt><trkpt lat="38.765833834033394" lon="16.38086238757109"><ele>747.5</ele><time>2026-04-19T10:23:42.999Z</time></trkpt><trkpt lat="38.765785528307674" lon="16.380953991993696"><ele>748.0</ele><time>2026-04-19T10:23:44.999Z</time></trkpt><trkpt lat="38.76574155860007" lon="16.381021173428643"><ele>748.5</ele><time>2026-04-19T10:23:48.999Z</time></trkpt><trkpt lat="38.76570205282678" lon="16.38111106403768"><ele>749.0</ele><time>2026-04-19T10:23:52.999Z</time></trkpt><trkpt lat="38.76565361803859" lon="16.381259757230872"><ele>751.5</ele><time>2026-04-19T10:23:54.999Z</time></trkpt><trkpt lat="38.76561618113834" lon="16.38138829917497"><ele>754.0</ele><time>2026-04-19T10:23:56.999Z</time></trkpt><trkpt lat="38.765520879277105" lon="16.38149068157048"><ele>756.5</ele><time>2026-04-19T10:23:58.999Z</time></trkpt><trkpt lat="38.76545068281574" lon="16.38151231871915"><ele>759.0</ele><time>2026-04-19T10:23:59.999Z</time></trkpt><trkpt lat="38.765381964014786" lon="16.38151520828702"><ele>761.5</ele><time>2026-04-19T10:24:00.999Z</time></trkpt><trkpt lat="38.7653099890688" lon="16.38153471489023"><ele>764.0</ele><time>2026-04-19T10:24:01.999Z</time></trkpt><trkpt lat="38.76524043548284" lon="16.381574139973345"><ele>763.0</ele><time>2026-04-19T10:24:02.999Z</time></trkpt><trkpt lat="38.76517183810955" lon="16.381621987312837"><ele>762.0</ele><time>2026-04-19T10:24:03.999Z</time></trkpt><trkpt lat="38.76511271150147" lon="16.381701048611657"><ele>761.0</ele><time>2026-04-19T10:24:04.999Z</time></trkpt><trkpt lat="38.76504928970145" lon="16.381772859651484"><ele>760.0</ele><time>2026-04-19T10:24:05.999Z</time></trkpt><trkpt lat="38.764989804249126" lon="16.38185672703153"><ele>759.0</ele><time>2026-04-19T10:24:06.999Z</time></trkpt><trkpt lat="38.76491481310017" lon="16.38192715579046"><ele>758.0</ele><time>2026-04-19T10:24:07.999Z</time></trkpt><trkpt lat="38.76481821031825" lon="16.38197001428897"><ele>758.0</ele><time>2026-04-19T10:24:08.999Z</time></trkpt><trkpt lat="38.76474820971722" lon="16.381972797698793"><ele>758.0</ele><time>2026-04-19T10:24:09.999Z</time></trkpt><trkpt lat="38.76463408874367" lon="16.38199827883017"><ele>758.0</ele><time>2026-04-19T10:24:11.999Z</time></trkpt><trkpt lat="38.76456741044806" lon="16.382014912163026"><ele>758.0</ele><time>2026-04-19T10:24:12.999Z</time></trkpt><trkpt lat="38.764468218402094" lon="16.38205063278906"><ele>758.0</ele><time>2026-04-19T10:24:14.999Z</time></trkpt><trkpt lat="38.76439787185624" lon="16.38209218715277"><ele>758.0</ele><time>2026-04-19T10:24:16.999Z</time></trkpt><trkpt lat="38.76433308392483" lon="16.382147272437923"><ele>758.8</ele><time>2026-04-19T10:24:18.999Z</time></trkpt><trkpt lat="38.76426997335166" lon="16.382182937946155"><ele>759.5999999999999</ele><time>2026-04-19T10:24:21.999Z</time></trkpt><trkpt lat="38.76418089162364" lon="16.382192268162548"><ele>760.4000000000001</ele><time>2026-04-19T10:24:24.999Z</time></trkpt><trkpt lat="38.76408161089035" lon="16.382148091332283"><ele>761.2</ele><time>2026-04-19T10:24:26.999Z</time></trkpt><trkpt lat="38.76397457842818" lon="16.38211512913556"><ele>762.0</ele><time>2026-04-19T10:24:28.999Z</time></trkpt><trkpt lat="38.763863929425035" lon="16.382083209315578"><ele>762.0</ele><time>2026-04-19T10:24:30.999Z</time></trkpt><trkpt lat="38.763780455320614" lon="16.38207625473776"><ele>762.0</ele><time>2026-04-19T10:24:32.999Z</time></trkpt><trkpt lat="38.76368629983433" lon="16.382125643580356"><ele>762.0</ele><time>2026-04-19T10:24:34.999Z</time></trkpt><trkpt lat="38.76363144935107" lon="16.38217662607952"><ele>762.0</ele><time>2026-04-19T10:24:35.999Z</time></trkpt><trkpt lat="38.76353029699284" lon="16.382259866804567"><ele>762.0</ele><time>2026-04-19T10:24:37.999Z</time></trkpt><trkpt lat="38.76341680849396" lon="16.382333221322057"><ele>762.0</ele><time>2026-04-19T10:24:39.999Z</time></trkpt><trkpt lat="38.763285886701986" lon="16.382408350091346"><ele>762.0</ele><time>2026-04-19T10:24:41.999Z</time></trkpt><trkpt lat="38.763214066449116" lon="16.382458798435586"><ele>762.0</ele><time>2026-04-19T10:24:42.999Z</time></trkpt><trkpt lat="38.7631438979387" lon="16.382516763374507"><ele>762.0</ele><time>2026-04-19T10:24:43.999Z</time></trkpt><trkpt lat="38.7630806348615" lon="16.382588821461553"><ele>762.0</ele><time>2026-04-19T10:24:44.999Z</time></trkpt><trkpt lat="38.76301359872111" lon="16.382663565547002"><ele>762.0</ele><time>2026-04-19T10:24:45.999Z</time></trkpt><trkpt lat="38.76294835013294" lon="16.382748426066755"><ele>762.0</ele><time>2026-04-19T10:24:46.999Z</time></trkpt><trkpt lat="38.762883880105484" lon="16.3828390988738"><ele>762.0</ele><time>2026-04-19T10:24:47.999Z</time></trkpt><trkpt lat="38.76283930669053" lon="16.382942510084053"><ele>762.0</ele><time>2026-04-19T10:24:48.999Z</time></trkpt><trkpt lat="38.76280745365842" lon="16.38304674823342"><ele>762.0</ele><time>2026-04-19T10:24:49.999Z</time></trkpt><trkpt lat="38.762775147548346" lon="16.383147531155878"><ele>763.6666666666666</ele><time>2026-04-19T10:24:50.999Z</time></trkpt><trkpt lat="38.76274386537882" lon="16.38324587508597"><ele>765.3333333333333</ele><time>2026-04-19T10:24:51.999Z</time></trkpt><trkpt lat="38.76272199454645" lon="16.38333632510189"><ele>767.0</ele><time>2026-04-19T10:24:52.999Z</time></trkpt><trkpt lat="38.76269826591602" lon="16.383439090490707"><ele>768.6666666666666</ele><time>2026-04-19T10:24:53.999Z</time></trkpt><trkpt lat="38.76268143365366" lon="16.383560422468683"><ele>770.3333333333333</ele><time>2026-04-19T10:24:54.999Z</time></trkpt><trkpt lat="38.76265596518024" lon="16.383680099672592"><ele>772.0</ele><time>2026-04-19T10:24:55.999Z</time></trkpt><trkpt lat="38.76262305333956" lon="16.3837825173974"><ele>772.4999999999999</ele><time>2026-04-19T10:24:56.999Z</time></trkpt><trkpt lat="38.762596766666" lon="16.383889073186147"><ele>773.0</ele><time>2026-04-19T10:24:57.999Z</time></trkpt><trkpt lat="38.76258265265187" lon="16.383991190174758"><ele>773.5</ele><time>2026-04-19T10:24:58.999Z</time></trkpt><trkpt lat="38.762568752622734" lon="16.384076216782688"><ele>774.0</ele><time>2026-04-19T10:24:59.999Z</time></trkpt><trkpt lat="38.76253037236541" lon="16.384146172036974"><ele>774.4999999999999</ele><time>2026-04-19T10:25:00.999Z</time></trkpt><trkpt lat="38.76249525589334" lon="16.384249339987388"><ele>775.0</ele><time>2026-04-19T10:25:02.999Z</time></trkpt><trkpt lat="38.762482304610316" lon="16.38432881355892"><ele>774.9999999999999</ele><time>2026-04-19T10:25:04.999Z</time></trkpt><trkpt lat="38.762437935800456" lon="16.38440285289183"><ele>775.0</ele><time>2026-04-19T10:25:07.999Z</time></trkpt><trkpt lat="38.7623280620454" lon="16.384399043311983"><ele>775.0</ele><time>2026-04-19T10:25:09.999Z</time></trkpt><trkpt lat="38.76225972971839" lon="16.384380352552505"><ele>775.0</ele><time>2026-04-19T10:25:10.999Z</time></trkpt><trkpt lat="38.76218398044801" lon="16.38436496608535"><ele>774.9999999999999</ele><time>2026-04-19T10:25:11.999Z</time></trkpt><trkpt lat="38.76210642313354" lon="16.384391227389187"><ele>775.0</ele><time>2026-04-19T10:25:12.999Z</time></trkpt><trkpt lat="38.76203531370616" lon="16.38443071756123"><ele>775.0</ele><time>2026-04-19T10:25:13.999Z</time></trkpt><trkpt lat="38.76196797756393" lon="16.38447459445137"><ele>775.0</ele><time>2026-04-19T10:25:14.999Z</time></trkpt><trkpt lat="38.76189544699163" lon="16.38452675597186"><ele>775.0</ele><time>2026-04-19T10:25:15.999Z</time></trkpt><trkpt lat="38.76179938145326" lon="16.384590334909696"><ele>775.0</ele><time>2026-04-19T10:25:16.999Z</time></trkpt><trkpt lat="38.76171377944754" lon="16.38465536460841"><ele>775.0</ele><time>2026-04-19T10:25:17.999Z</time></trkpt><trkpt lat="38.76163930128423" lon="16.384733462888303"><ele>776.2</ele><time>2026-04-19T10:25:19.998Z</time></trkpt><trkpt lat="38.7615402733334" lon="16.3848179258996"><ele>777.4</ele><time>2026-04-19T10:25:21.998Z</time></trkpt><trkpt lat="38.761415880093054" lon="16.38489721465811"><ele>778.5999999999999</ele><time>2026-04-19T10:25:23.998Z</time></trkpt><trkpt lat="38.76134319881258" lon="16.384945853493257"><ele>779.8</ele><time>2026-04-19T10:25:24.998Z</time></trkpt><trkpt lat="38.761285472048364" lon="16.384991161471206"><ele>781.0</ele><time>2026-04-19T10:25:25.998Z</time></trkpt><trkpt lat="38.761208745959294" lon="16.385057891698125"><ele>781.0</ele><time>2026-04-19T10:25:27.998Z</time></trkpt><trkpt lat="38.7611135817426" lon="16.385121433611946"><ele>781.0</ele><time>2026-04-19T10:25:29.998Z</time></trkpt><trkpt lat="38.761031898935" lon="16.38516692908701"><ele>781.0</ele><time>2026-04-19T10:25:31.998Z</time></trkpt><trkpt lat="38.76093370781044" lon="16.385230531004513"><ele>781.0</ele><time>2026-04-19T10:25:33.998Z</time></trkpt><trkpt lat="38.760837446350514" lon="16.385320986935803"><ele>781.0</ele><time>2026-04-19T10:25:35.998Z</time></trkpt><trkpt lat="38.760752375004685" lon="16.385399352295927"><ele>782.5999999999999</ele><time>2026-04-19T10:25:37.998Z</time></trkpt><trkpt lat="38.76065367525606" lon="16.385460574390024"><ele>784.2</ele><time>2026-04-19T10:25:39.998Z</time></trkpt><trkpt lat="38.76056450080204" lon="16.38541611196764"><ele>785.8</ele><time>2026-04-19T10:25:41.998Z</time></trkpt><trkpt lat="38.76047932073372" lon="16.385318913244323"><ele>787.4000000000001</ele><time>2026-04-19T10:25:43.998Z</time></trkpt><trkpt lat="38.76037937049392" lon="16.385232671249703"><ele>789.0</ele><time>2026-04-19T10:25:45.998Z</time></trkpt><trkpt lat="38.76031709813906" lon="16.38517921776741"><ele>789.6</ele><time>2026-04-19T10:25:46.998Z</time></trkpt><trkpt lat="38.76018900730563" lon="16.385116011762303"><ele>790.2</ele><time>2026-04-19T10:25:48.998Z</time></trkpt><trkpt lat="38.760114652520876" lon="16.38508918300639"><ele>790.8000000000001</ele><time>2026-04-19T10:25:49.998Z</time></trkpt><trkpt lat="38.76002169542743" lon="16.385069196391573"><ele>791.4000000000001</ele><time>2026-04-19T10:25:50.998Z</time></trkpt><trkpt lat="38.75993867671103" lon="16.385053810533662"><ele>792.0</ele><time>2026-04-19T10:25:51.998Z</time></trkpt><trkpt lat="38.759852596357305" lon="16.385055165072867"><ele>792.0</ele><time>2026-04-19T10:25:52.998Z</time></trkpt><trkpt lat="38.75977591986591" lon="16.385067390203158"><ele>792.0</ele><time>2026-04-19T10:25:53.998Z</time></trkpt><trkpt lat="38.75970810566937" lon="16.38509626360453"><ele>792.0</ele><time>2026-04-19T10:25:54.998Z</time></trkpt><trkpt lat="38.759604900474564" lon="16.385161552759026"><ele>792.0</ele><time>2026-04-19T10:25:56.998Z</time></trkpt><trkpt lat="38.759568406696836" lon="16.385277916176417"><ele>792.0</ele><time>2026-04-19T10:25:58.998Z</time></trkpt><trkpt lat="38.75955253805373" lon="16.38536600692126"><ele>792.0</ele><time>2026-04-19T10:25:59.998Z</time></trkpt><trkpt lat="38.75953510553466" lon="16.385452806816495"><ele>793.3333333333334</ele><time>2026-04-19T10:26:00.998Z</time></trkpt><trkpt lat="38.75952950333528" lon="16.385541453513365"><ele>794.6666666666667</ele><time>2026-04-19T10:26:01.998Z</time></trkpt><trkpt lat="38.75951498827647" lon="16.38566435524363"><ele>796.0</ele><time>2026-04-19T10:26:02.998Z</time></trkpt><trkpt lat="38.75950534964126" lon="16.385752273959167"><ele>797.3333333333334</ele><time>2026-04-19T10:26:03.998Z</time></trkpt><trkpt lat="38.759498783753806" lon="16.38584993397611"><ele>798.6666666666667</ele><time>2026-04-19T10:26:04.998Z</time></trkpt><trkpt lat="38.759473715390065" lon="16.38596803128611"><ele>800.0</ele><time>2026-04-19T10:26:05.998Z</time></trkpt><trkpt lat="38.75945458913009" lon="16.38607114692712"><ele>800.0000000000001</ele><time>2026-04-19T10:26:06.998Z</time></trkpt><trkpt lat="38.75943802430477" lon="16.3862008042912"><ele>800.0</ele><time>2026-04-19T10:26:08.998Z</time></trkpt><trkpt lat="38.75942694256403" lon="16.38630657870291"><ele>800.0</ele><time>2026-04-19T10:26:11.998Z</time></trkpt><trkpt lat="38.75939272142512" lon="16.38637762432358"><ele>800.0</ele><time>2026-04-19T10:26:16.998Z</time></trkpt><trkpt lat="38.759412156547846" lon="16.386455838016015"><ele>800.0000000000001</ele><time>2026-04-19T10:26:34.998Z</time></trkpt><trkpt lat="38.75935612062356" lon="16.386416457495844"><ele>800.0</ele><time>2026-04-19T10:26:59.999Z</time></trkpt><trkpt lat="38.75926976411855" lon="16.38639348601559"><ele>801.0000000000001</ele><time>2026-04-19T10:27:20.999Z</time></trkpt><trkpt lat="38.75920180994591" lon="16.38642764379781"><ele>802.0</ele><time>2026-04-19T10:29:04.999Z</time></trkpt><trkpt lat="38.7591706370495" lon="16.38653022059359"><ele>803.0</ele><time>2026-04-19T10:29:09.999Z</time></trkpt><trkpt lat="38.759160873758425" lon="16.38662453619046"><ele>804.0</ele><time>2026-04-19T10:29:12.999Z</time></trkpt><trkpt lat="38.75922867176499" lon="16.386667084429156"><ele>805.0</ele><time>2026-04-19T10:29:18.999Z</time></trkpt><trkpt lat="38.759297467955484" lon="16.3866811539515"><ele>806.0000000000001</ele><time>2026-04-19T10:29:24.999Z</time></trkpt><trkpt lat="38.759348560113466" lon="16.38673167407434"><ele>807.0</ele><time>2026-04-19T10:29:39.999Z</time></trkpt><trkpt lat="38.759405897559446" lon="16.38668408756456"><ele>808.0</ele><time>2026-04-19T10:29:54.999Z</time></trkpt><trkpt lat="38.75937990768719" lon="16.386607616199086"><ele>809.0</ele><time>2026-04-19T10:30:49.999Z</time></trkpt><trkpt lat="38.759451186923414" lon="16.386612834027655"><ele>810.0</ele><time>2026-04-19T10:32:19.999Z</time></trkpt><trkpt lat="38.759515577778785" lon="16.386622298971737"><ele>811.0</ele><time>2026-04-19T10:32:21.999Z</time></trkpt><trkpt lat="38.75959474811871" lon="16.38658236739166"><ele>812.0</ele><time>2026-04-19T10:32:23.999Z</time></trkpt><trkpt lat="38.75969077986611" lon="16.386588304927198"><ele>813.0</ele><time>2026-04-19T10:32:27.999Z</time></trkpt><trkpt lat="38.75976589871967" lon="16.386593084805725"><ele>813.0</ele><time>2026-04-19T10:32:30.999Z</time></trkpt><trkpt lat="38.75982848830387" lon="16.38663876641725"><ele>813.0</ele><time>2026-04-19T10:32:33.999Z</time></trkpt><trkpt lat="38.759898316573164" lon="16.38668740216682"><ele>813.0</ele><time>2026-04-19T10:32:36.999Z</time></trkpt><trkpt lat="38.75996195430195" lon="16.386735935290332"><ele>813.0</ele><time>2026-04-19T10:32:38.999Z</time></trkpt><trkpt lat="38.76003960554336" lon="16.386780608958546"><ele>813.0</ele><time>2026-04-19T10:32:41.999Z</time></trkpt><trkpt lat="38.76011064902293" lon="16.386842319812743"><ele>813.0</ele><time>2026-04-19T10:32:43.999Z</time></trkpt><trkpt lat="38.76016669611524" lon="16.386909323659882"><ele>812.5714285714286</ele><time>2026-04-19T10:32:44.999Z</time></trkpt><trkpt lat="38.76021011238686" lon="16.386993043137494"><ele>812.1428571428571</ele><time>2026-04-19T10:32:45.999Z</time></trkpt><trkpt lat="38.76024896394484" lon="16.387061214145838"><ele>811.7142857142857</ele><time>2026-04-19T10:32:46.999Z</time></trkpt><trkpt lat="38.760297736954975" lon="16.387131545452675"><ele>811.2857142857142</ele><time>2026-04-19T10:32:47.999Z</time></trkpt><trkpt lat="38.76034497987148" lon="16.387211198979543"><ele>810.8571428571429</ele><time>2026-04-19T10:32:48.999Z</time></trkpt><trkpt lat="38.760393998096916" lon="16.38728738399202"><ele>810.4285714285713</ele><time>2026-04-19T10:32:49.999Z</time></trkpt><trkpt lat="38.76043364053469" lon="16.38736173705354"><ele>810.0</ele><time>2026-04-19T10:32:50.999Z</time></trkpt><trkpt lat="38.76050610043232" lon="16.38749003222461"><ele>811.9999999999999</ele><time>2026-04-19T10:32:52.999Z</time></trkpt><trkpt lat="38.76053818494271" lon="16.387565452667488"><ele>814.0</ele><time>2026-04-19T10:32:53.999Z</time></trkpt><trkpt lat="38.76057239326934" lon="16.38765096109639"><ele>816.0</ele><time>2026-04-19T10:32:54.999Z</time></trkpt><trkpt lat="38.76061191322668" lon="16.387734374659004"><ele>818.0</ele><time>2026-04-19T10:32:55.999Z</time></trkpt><trkpt lat="38.7606482323484" lon="16.387814517308914"><ele>820.0</ele><time>2026-04-19T10:32:56.999Z</time></trkpt><trkpt lat="38.76068396214853" lon="16.38789635207112"><ele>821.9999999999999</ele><time>2026-04-19T10:32:57.999Z</time></trkpt><trkpt lat="38.76072381640941" lon="16.38798170015504"><ele>824.0</ele><time>2026-04-19T10:32:58.999Z</time></trkpt><trkpt lat="38.760762581506455" lon="16.38806862819353"><ele>826.6666666666667</ele><time>2026-04-19T10:32:59.999Z</time></trkpt><trkpt lat="38.76079627640659" lon="16.388156208677618"><ele>829.3333333333334</ele><time>2026-04-19T10:33:00.999Z</time></trkpt><trkpt lat="38.76083059456183" lon="16.38823527459401"><ele>832.0</ele><time>2026-04-19T10:33:01.999Z</time></trkpt><trkpt lat="38.76090735186393" lon="16.38832561037761"><ele>834.6666666666667</ele><time>2026-04-19T10:33:03.999Z</time></trkpt><trkpt lat="38.760967876635284" lon="16.388362151787796"><ele>837.3333333333334</ele><time>2026-04-19T10:33:04.999Z</time></trkpt><trkpt lat="38.76103787184907" lon="16.38838873166199"><ele>840.0</ele><time>2026-04-19T10:33:05.999Z</time></trkpt><trkpt lat="38.76110759686248" lon="16.38842587190228"><ele>840.6</ele><time>2026-04-19T10:33:06.999Z</time></trkpt><trkpt lat="38.76117579174668" lon="16.388464252176203"><ele>841.2</ele><time>2026-04-19T10:33:07.999Z</time></trkpt><trkpt lat="38.761235869432205" lon="16.38851122507023"><ele>841.8</ele><time>2026-04-19T10:33:08.999Z</time></trkpt><trkpt lat="38.761329559849386" lon="16.38859417406476"><ele>842.4</ele><time>2026-04-19T10:33:10.999Z</time></trkpt><trkpt lat="38.761444460683926" lon="16.388648752335094"><ele>843.0</ele><time>2026-04-19T10:33:12.999Z</time></trkpt><trkpt lat="38.761544605643195" lon="16.388699011522483"><ele>843.0</ele><time>2026-04-19T10:33:14.999Z</time></trkpt><trkpt lat="38.761651573002666" lon="16.38874966184662"><ele>843.0</ele><time>2026-04-19T10:33:16.999Z</time></trkpt><trkpt lat="38.76172019112057" lon="16.38880557001024"><ele>843.0</ele><time>2026-04-19T10:33:18.999Z</time></trkpt><trkpt lat="38.76173127475078" lon="16.38890448351913"><ele>843.0</ele><time>2026-04-19T10:33:20.999Z</time></trkpt><trkpt lat="38.76165495036835" lon="16.38901737176935"><ele>843.0</ele><time>2026-04-19T10:33:22.999Z</time></trkpt><trkpt lat="38.761561687739025" lon="16.389124805223343"><ele>844.6666666666666</ele><time>2026-04-19T10:33:24.999Z</time></trkpt><trkpt lat="38.76151574522763" lon="16.389191190610266"><ele>846.3333333333333</ele><time>2026-04-19T10:33:25.999Z</time></trkpt><trkpt lat="38.76147473906286" lon="16.389253938625647"><ele>848.0</ele><time>2026-04-19T10:33:26.999Z</time></trkpt><trkpt lat="38.761429513740886" lon="16.389326416973027"><ele>849.6666666666666</ele><time>2026-04-19T10:33:27.999Z</time></trkpt><trkpt lat="38.76138712953789" lon="16.389415297154017"><ele>851.3333333333333</ele><time>2026-04-19T10:33:28.999Z</time></trkpt><trkpt lat="38.76133461561875" lon="16.389498552760152"><ele>853.0</ele><time>2026-04-19T10:33:29.999Z</time></trkpt><trkpt lat="38.7612751425555" lon="16.38958834248134"><ele>853.0</ele><time>2026-04-19T10:33:30.999Z</time></trkpt><trkpt lat="38.76120712691116" lon="16.38967348419055"><ele>853.0</ele><time>2026-04-19T10:33:31.999Z</time></trkpt><trkpt lat="38.76112781795243" lon="16.38974690076994"><ele>853.0</ele><time>2026-04-19T10:33:32.999Z</time></trkpt><trkpt lat="38.76105367616951" lon="16.38983084977383"><ele>853.0</ele><time>2026-04-19T10:33:33.999Z</time></trkpt><trkpt lat="38.76098078634989" lon="16.389909379787376"><ele>853.0</ele><time>2026-04-19T10:33:34.999Z</time></trkpt><trkpt lat="38.76092009882872" lon="16.389990786495694"><ele>854.6666666666666</ele><time>2026-04-19T10:33:35.999Z</time></trkpt><trkpt lat="38.76086927343008" lon="16.390068795919017"><ele>856.3333333333333</ele><time>2026-04-19T10:33:36.999Z</time></trkpt><trkpt lat="38.7608245802655" lon="16.390134761485605"><ele>858.0</ele><time>2026-04-19T10:33:37.999Z</time></trkpt><trkpt lat="38.76074278369154" lon="16.39025975290045"><ele>859.6666666666667</ele><time>2026-04-19T10:33:39.999Z</time></trkpt><trkpt lat="38.76069531208605" lon="16.390322346618085"><ele>861.3333333333334</ele><time>2026-04-19T10:33:40.999Z</time></trkpt><trkpt lat="38.760647770168354" lon="16.390375541450133"><ele>863.0</ele><time>2026-04-19T10:33:41.999Z</time></trkpt><trkpt lat="38.76059631651296" lon="16.390447245900855"><ele>863.0000000000001</ele><time>2026-04-19T10:33:43.999Z</time></trkpt><trkpt lat="38.76054551443572" lon="16.390496326709936"><ele>863.0</ele><time>2026-04-19T10:33:49.999Z</time></trkpt><trkpt lat="38.76047970137706" lon="16.39056667011437"><ele>863.0</ele><time>2026-04-19T10:33:52.999Z</time></trkpt><trkpt lat="38.76043231148665" lon="16.39064934469857"><ele>863.0</ele><time>2026-04-19T10:33:55.999Z</time></trkpt><trkpt lat="38.760390710672084" lon="16.390762378629688"><ele>863.0000000000001</ele><time>2026-04-19T10:33:59Z</time></trkpt><trkpt lat="38.76034574676184" lon="16.390856179253433"><ele>863.0</ele><time>2026-04-19T10:34:01Z</time></trkpt><trkpt lat="38.760315089038755" lon="16.390950543391423"><ele>863.0000000000001</ele><time>2026-04-19T10:34:03Z</time></trkpt><trkpt lat="38.760263005615" lon="16.39103559146085"><ele>863.0</ele><time>2026-04-19T10:34:05Z</time></trkpt><trkpt lat="38.76022624310007" lon="16.39113671585209"><ele>863.0</ele><time>2026-04-19T10:34:07Z</time></trkpt><trkpt lat="38.760177665526186" lon="16.391244353872096"><ele>863.0</ele><time>2026-04-19T10:34:09Z</time></trkpt><trkpt lat="38.7601427267937" lon="16.39135557209839"><ele>863.0000000000001</ele><time>2026-04-19T10:34:11Z</time></trkpt><trkpt lat="38.76010299050831" lon="16.39145287325374"><ele>863.0</ele><time>2026-04-19T10:34:13Z</time></trkpt><trkpt lat="38.76005461643338" lon="16.391538756746943"><ele>864.3333333333334</ele><time>2026-04-19T10:34:15Z</time></trkpt><trkpt lat="38.76002261754811" lon="16.391623106583264"><ele>865.6666666666667</ele><time>2026-04-19T10:34:17Z</time></trkpt><trkpt lat="38.75999287907315" lon="16.39171226658966"><ele>867.0</ele><time>2026-04-19T10:34:19Z</time></trkpt><trkpt lat="38.759931924022816" lon="16.391839837444298"><ele>868.3333333333333</ele><time>2026-04-19T10:34:21Z</time></trkpt><trkpt lat="38.75989698427484" lon="16.39191348638519"><ele>869.6666666666666</ele><time>2026-04-19T10:34:22Z</time></trkpt><trkpt lat="38.759875355778135" lon="16.39198938438907"><ele>871.0</ele><time>2026-04-19T10:34:23Z</time></trkpt><trkpt lat="38.759832529831044" lon="16.392105517451633"><ele>871.4</ele><time>2026-04-19T10:34:25Z</time></trkpt><trkpt lat="38.75978836737792" lon="16.392195536754574"><ele>871.8</ele><time>2026-04-19T10:34:27Z</time></trkpt><trkpt lat="38.75973093576719" lon="16.39230620627613"><ele>872.1999999999999</ele><time>2026-04-19T10:34:29Z</time></trkpt><trkpt lat="38.759677785174524" lon="16.392433538223756"><ele>872.5999999999999</ele><time>2026-04-19T10:34:31Z</time></trkpt><trkpt lat="38.75963971068299" lon="16.392519560927195"><ele>873.0</ele><time>2026-04-19T10:34:33Z</time></trkpt><trkpt lat="38.7596178289181" lon="16.392629948543718"><ele>873.0</ele><time>2026-04-19T10:34:35Z</time></trkpt><trkpt lat="38.75958479906021" lon="16.39277342857852"><ele>873.0</ele><time>2026-04-19T10:34:37Z</time></trkpt><trkpt lat="38.759566051915755" lon="16.39291756577751"><ele>873.0</ele><time>2026-04-19T10:34:39Z</time></trkpt><trkpt lat="38.7595545867502" lon="16.392998624504603"><ele>873.0</ele><time>2026-04-19T10:34:40Z</time></trkpt><trkpt lat="38.759550832281946" lon="16.393080231513014"><ele>873.0</ele><time>2026-04-19T10:34:41Z</time></trkpt><trkpt lat="38.759542651745974" lon="16.393164411441507"><ele>873.0</ele><time>2026-04-19T10:34:42Z</time></trkpt><trkpt lat="38.75952523522312" lon="16.393248134887166"><ele>873.6666666666666</ele><time>2026-04-19T10:34:44Z</time></trkpt><trkpt lat="38.75950458267477" lon="16.393369537650486"><ele>874.3333333333333</ele><time>2026-04-19T10:34:46Z</time></trkpt><trkpt lat="38.75948094766822" lon="16.393445888319153"><ele>875.0</ele><time>2026-04-19T10:34:51Z</time></trkpt><trkpt lat="38.75945819218829" lon="16.393571302816884"><ele>875.6666666666666</ele><time>2026-04-19T10:36:01Z</time></trkpt><trkpt lat="38.7594411960916" lon="16.39365691242116"><ele>876.3333333333333</ele><time>2026-04-19T10:36:05Z</time></trkpt><trkpt lat="38.75942043750599" lon="16.39374942288338"><ele>877.0</ele><time>2026-04-19T10:36:10Z</time></trkpt><trkpt lat="38.75939613611709" lon="16.39388249469872"><ele>879.0</ele><time>2026-04-19T10:36:13Z</time></trkpt><trkpt lat="38.759363500642735" lon="16.39399126971308"><ele>881.0</ele><time>2026-04-19T10:36:15Z</time></trkpt><trkpt lat="38.759298291786365" lon="16.394103452568128"><ele>883.0</ele><time>2026-04-19T10:36:17Z</time></trkpt><trkpt lat="38.759236500947" lon="16.394205779491553"><ele>885.0</ele><time>2026-04-19T10:36:19Z</time></trkpt><trkpt lat="38.75918062038558" lon="16.39429532677461"><ele>887.0</ele><time>2026-04-19T10:36:22Z</time></trkpt><trkpt lat="38.75913420957687" lon="16.394354953583292"><ele>887.0000000000001</ele><time>2026-04-19T10:36:24Z</time></trkpt><trkpt lat="38.75907956770279" lon="16.394421735012095"><ele>887.0</ele><time>2026-04-19T10:36:26Z</time></trkpt><trkpt lat="38.759007014520144" lon="16.394513742714825"><ele>887.0</ele><time>2026-04-19T10:36:28Z</time></trkpt><trkpt lat="38.75896153607832" lon="16.394571394785313"><ele>887.0</ele><time>2026-04-19T10:36:29Z</time></trkpt><trkpt lat="38.758882101344675" lon="16.394688327991144"><ele>887.0000000000001</ele><time>2026-04-19T10:36:31Z</time></trkpt><trkpt lat="38.75882882490323" lon="16.39476220024405"><ele>887.0</ele><time>2026-04-19T10:36:32Z</time></trkpt><trkpt lat="38.75878098075963" lon="16.39483752027208"><ele>884.8333333333334</ele><time>2026-04-19T10:36:33Z</time></trkpt><trkpt lat="38.75873526718595" lon="16.394905528042205"><ele>882.6666666666667</ele><time>2026-04-19T10:36:34Z</time></trkpt><trkpt lat="38.7586779905464" lon="16.394989951280543"><ele>880.5</ele><time>2026-04-19T10:36:35Z</time></trkpt><trkpt lat="38.75863295916161" lon="16.39505265780838"><ele>878.3333333333333</ele><time>2026-04-19T10:36:36Z</time></trkpt><trkpt lat="38.75856460061074" lon="16.395149122985316"><ele>876.1666666666666</ele><time>2026-04-19T10:36:38Z</time></trkpt><trkpt lat="38.75849789154851" lon="16.39525546420344"><ele>874.0</ele><time>2026-04-19T10:36:40Z</time></trkpt><trkpt lat="38.75846291587228" lon="16.395334332531522"><ele>873.9999999999999</ele><time>2026-04-19T10:36:41Z</time></trkpt><trkpt lat="38.7584241861178" lon="16.395466797528357"><ele>874.0</ele><time>2026-04-19T10:36:43Z</time></trkpt><trkpt lat="38.75839758773954" lon="16.39558764291837"><ele>874.0</ele><time>2026-04-19T10:36:45Z</time></trkpt><trkpt lat="38.758385337520814" lon="16.395671470219053"><ele>874.0</ele><time>2026-04-19T10:36:48Z</time></trkpt><trkpt lat="38.75835954546352" lon="16.39575981867311"><ele>873.9999999999999</ele><time>2026-04-19T10:36:58Z</time></trkpt><trkpt lat="38.758320818181566" lon="16.39582852036349"><ele>874.0</ele><time>2026-04-19T10:37:01Z</time></trkpt><trkpt lat="38.75827413369499" lon="16.39591999280322"><ele>872.3333333333333</ele><time>2026-04-19T10:37:04Z</time></trkpt><trkpt lat="38.75823425151787" lon="16.39600191775645"><ele>870.6666666666666</ele><time>2026-04-19T10:37:06Z</time></trkpt><trkpt lat="38.75817491055502" lon="16.39610688517703"><ele>869.0</ele><time>2026-04-19T10:37:09Z</time></trkpt><trkpt lat="38.758148249179584" lon="16.39619060617731"><ele>867.3333333333333</ele><time>2026-04-19T10:37:11Z</time></trkpt><trkpt lat="38.758132986525446" lon="16.396301165384184"><ele>865.6666666666666</ele><time>2026-04-19T10:37:14Z</time></trkpt><trkpt lat="38.75810816067261" lon="16.396401700067962"><ele>864.0</ele><time>2026-04-19T10:37:16Z</time></trkpt><trkpt lat="38.7580892699806" lon="16.39650068455793"><ele>862.3333333333334</ele><time>2026-04-19T10:37:18Z</time></trkpt><trkpt lat="38.75806549746543" lon="16.396599144637012"><ele>860.6666666666667</ele><time>2026-04-19T10:37:20Z</time></trkpt><trkpt lat="38.75804740882531" lon="16.396681419045876"><ele>859.0</ele><time>2026-04-19T10:37:22Z</time></trkpt><trkpt lat="38.75802752443326" lon="16.396805838464378"><ele>857.3333333333334</ele><time>2026-04-19T10:37:25Z</time></trkpt><trkpt lat="38.75802320745252" lon="16.39689322833965"><ele>855.6666666666667</ele><time>2026-04-19T10:37:27Z</time></trkpt><trkpt lat="38.75802519058346" lon="16.396974837526983"><ele>854.0</ele><time>2026-04-19T10:37:29Z</time></trkpt><trkpt lat="38.75803588651307" lon="16.397080441137355"><ele>852.2</ele><time>2026-04-19T10:37:31Z</time></trkpt><trkpt lat="38.75802398684459" lon="16.397210855037233"><ele>850.4000000000001</ele><time>2026-04-19T10:37:33Z</time></trkpt><trkpt lat="38.75800892769859" lon="16.39734926600557"><ele>848.6</ele><time>2026-04-19T10:37:35Z</time></trkpt><trkpt lat="38.757976391586766" lon="16.397457077387312"><ele>846.8</ele><time>2026-04-19T10:37:37Z</time></trkpt><trkpt lat="38.757957867269454" lon="16.397566453883993"><ele>845.0</ele><time>2026-04-19T10:37:39Z</time></trkpt><trkpt lat="38.757939160262055" lon="16.397691493664453"><ele>845.0000000000001</ele><time>2026-04-19T10:37:41Z</time></trkpt><trkpt lat="38.757914729910965" lon="16.397797233955018"><ele>845.0</ele><time>2026-04-19T10:37:43Z</time></trkpt><trkpt lat="38.757897565362256" lon="16.397894691966084"><ele>845.0</ele><time>2026-04-19T10:37:45Z</time></trkpt><trkpt lat="38.757872447882754" lon="16.397993275500593"><ele>845.0</ele><time>2026-04-19T10:37:47Z</time></trkpt><trkpt lat="38.75780986529423" lon="16.398071439189366"><ele>845.0000000000001</ele><time>2026-04-19T10:37:49Z</time></trkpt><trkpt lat="38.75778776050098" lon="16.39814830388967"><ele>845.0</ele><time>2026-04-19T10:37:51Z</time></trkpt><trkpt lat="38.757769852586335" lon="16.39825832993151"><ele>844.0000000000001</ele><time>2026-04-19T10:37:54Z</time></trkpt><trkpt lat="38.757743626715836" lon="16.398352145068532"><ele>843.0</ele><time>2026-04-19T10:37:57Z</time></trkpt><trkpt lat="38.75771226654827" lon="16.398475079770137"><ele>842.0</ele><time>2026-04-19T10:37:59Z</time></trkpt><trkpt lat="38.75766932946886" lon="16.398607579960817"><ele>841.0</ele><time>2026-04-19T10:38:01Z</time></trkpt><trkpt lat="38.75763913511299" lon="16.398708277037034"><ele>840.0000000000001</ele><time>2026-04-19T10:38:04Z</time></trkpt><trkpt lat="38.75758681725027" lon="16.398753503067372"><ele>839.0</ele><time>2026-04-19T10:38:07Z</time></trkpt><trkpt lat="38.757524145501606" lon="16.398807672473087"><ele>838.3333333333334</ele><time>2026-04-19T10:38:10Z</time></trkpt><trkpt lat="38.75749272255462" lon="16.398887090041505"><ele>837.6666666666667</ele><time>2026-04-19T10:38:13Z</time></trkpt><trkpt lat="38.75745164886936" lon="16.398948526714772"><ele>837.0</ele><time>2026-04-19T10:38:16Z</time></trkpt><trkpt lat="38.75739228286984" lon="16.399010539495883"><ele>836.3333333333333</ele><time>2026-04-19T10:38:18Z</time></trkpt><trkpt lat="38.75734208340281" lon="16.39906558435684"><ele>835.6666666666666</ele><time>2026-04-19T10:38:20Z</time></trkpt><trkpt lat="38.75726781031904" lon="16.399143936094237"><ele>835.0</ele><time>2026-04-19T10:38:22Z</time></trkpt><trkpt lat="38.7572269449003" lon="16.399279312698372"><ele>835.0</ele><time>2026-04-19T10:38:24Z</time></trkpt><trkpt lat="38.75720940342584" lon="16.39937209963112"><ele>835.0</ele><time>2026-04-19T10:38:25Z</time></trkpt><trkpt lat="38.7571475411366" lon="16.399507865826696"><ele>835.0</ele><time>2026-04-19T10:38:27Z</time></trkpt><trkpt lat="38.75709260422352" lon="16.399591441531726"><ele>835.0</ele><time>2026-04-19T10:38:28Z</time></trkpt><trkpt lat="38.75705276231496" lon="16.399654346489896"><ele>835.0</ele><time>2026-04-19T10:38:29Z</time></trkpt><trkpt lat="38.756987852835906" lon="16.399804954611536"><ele>834.4999999999999</ele><time>2026-04-19T10:38:31Z</time></trkpt><trkpt lat="38.75695198280542" lon="16.39991122399829"><ele>834.0</ele><time>2026-04-19T10:38:32Z</time></trkpt><trkpt lat="38.756907063468276" lon="16.399994678502274"><ele>833.5</ele><time>2026-04-19T10:38:33Z</time></trkpt><trkpt lat="38.756865782524166" lon="16.400068454946997"><ele>833.0</ele><time>2026-04-19T10:38:34Z</time></trkpt><trkpt lat="38.75683057173433" lon="16.4001475624628"><ele>832.4999999999999</ele><time>2026-04-19T10:38:35Z</time></trkpt><trkpt lat="38.75676507859973" lon="16.40025290950834"><ele>832.0</ele><time>2026-04-19T10:38:37Z</time></trkpt><trkpt lat="38.75665798381461" lon="16.400362903126485"><ele>830.9999999999999</ele><time>2026-04-19T10:38:39Z</time></trkpt><trkpt lat="38.756596591967735" lon="16.40041921892905"><ele>830.0</ele><time>2026-04-19T10:38:40Z</time></trkpt><trkpt lat="38.756527912936555" lon="16.40051307618453"><ele>829.0</ele><time>2026-04-19T10:38:42Z</time></trkpt><trkpt lat="38.756499380588195" lon="16.40060608545946"><ele>828.0</ele><time>2026-04-19T10:38:45Z</time></trkpt><trkpt lat="38.75648129936441" lon="16.400730023747908"><ele>826.9999999999999</ele><time>2026-04-19T10:38:47Z</time></trkpt><trkpt lat="38.75646321459859" lon="16.40082435458918"><ele>826.0</ele><time>2026-04-19T10:38:49Z</time></trkpt><trkpt lat="38.756428431610985" lon="16.400918653118485"><ele>824.8</ele><time>2026-04-19T10:38:52Z</time></trkpt><trkpt lat="38.75638635326743" lon="16.400978765196655"><ele>823.5999999999999</ele><time>2026-04-19T10:38:54Z</time></trkpt><trkpt lat="38.75632316289197" lon="16.401093711900277"><ele>822.4</ele><time>2026-04-19T10:38:57Z</time></trkpt><trkpt lat="38.75625780987211" lon="16.40123208279577"><ele>821.2</ele><time>2026-04-19T10:38:59Z</time></trkpt><trkpt lat="38.7561997019566" lon="16.401331936326578"><ele>820.0</ele><time>2026-04-19T10:39:00Z</time></trkpt><trkpt lat="38.7561249094973" lon="16.401434467412294"><ele>819.6</ele><time>2026-04-19T10:39:01Z</time></trkpt><trkpt lat="38.75603691458764" lon="16.401530257842985"><ele>819.2</ele><time>2026-04-19T10:39:02Z</time></trkpt><trkpt lat="38.75595257131039" lon="16.40161763652951"><ele>818.8</ele><time>2026-04-19T10:39:03Z</time></trkpt><trkpt lat="38.75586970869771" lon="16.401701072452475"><ele>818.4</ele><time>2026-04-19T10:39:04Z</time></trkpt><trkpt lat="38.755789184112906" lon="16.401771910808765"><ele>818.0</ele><time>2026-04-19T10:39:05Z</time></trkpt><trkpt lat="38.7557089614464" lon="16.401839892817282"><ele>818.0</ele><time>2026-04-19T10:39:06Z</time></trkpt><trkpt lat="38.75566716874196" lon="16.401902159877913"><ele>818.0</ele><time>2026-04-19T10:39:11Z</time></trkpt><trkpt lat="38.755719391405115" lon="16.401961689272746"><ele>818.0</ele><time>2026-04-19T10:39:14Z</time></trkpt><trkpt lat="38.75574938856714" lon="16.402036546370983"><ele>818.0</ele><time>2026-04-19T10:39:18Z</time></trkpt><trkpt lat="38.75576490977112" lon="16.402125648446013"><ele>818.0</ele><time>2026-04-19T10:39:40Z</time></trkpt><trkpt lat="38.75577622891527" lon="16.402218511561152"><ele>818.0</ele><time>2026-04-19T10:39:42Z</time></trkpt><trkpt lat="38.7557330688873" lon="16.40232936351278"><ele>818.0</ele><time>2026-04-19T10:39:44Z</time></trkpt><trkpt lat="38.755654131501245" lon="16.402415103639783"><ele>815.4</ele><time>2026-04-19T10:39:46Z</time></trkpt><trkpt lat="38.75560152388471" lon="16.402460985160783"><ele>812.8</ele><time>2026-04-19T10:39:47Z</time></trkpt><trkpt lat="38.75553598042546" lon="16.402578019455195"><ele>810.2</ele><time>2026-04-19T10:39:49Z</time></trkpt><trkpt lat="38.75551615410948" lon="16.40272337718918"><ele>807.6</ele><time>2026-04-19T10:39:51Z</time></trkpt><trkpt lat="38.75548087302459" lon="16.402870804186872"><ele>805.0</ele><time>2026-04-19T10:39:53Z</time></trkpt><trkpt lat="38.75544411671968" lon="16.402978345885398"><ele>805.0</ele><time>2026-04-19T10:39:55Z</time></trkpt><trkpt lat="38.75541536210074" lon="16.403063266473612"><ele>805.0</ele><time>2026-04-19T10:39:57Z</time></trkpt><trkpt lat="38.75540757450194" lon="16.403183590335672"><ele>805.0</ele><time>2026-04-19T10:39:59Z</time></trkpt><trkpt lat="38.7553820856484" lon="16.40331480440775"><ele>805.0</ele><time>2026-04-19T10:40:01Z</time></trkpt><trkpt lat="38.755349437429494" lon="16.40344271070216"><ele>805.0</ele><time>2026-04-19T10:40:03Z</time></trkpt><trkpt lat="38.75532405068406" lon="16.40358157901894"><ele>804.9999999999999</ele><time>2026-04-19T10:40:05Z</time></trkpt><trkpt lat="38.75529353274874" lon="16.403726917703512"><ele>805.0</ele><time>2026-04-19T10:40:07Z</time></trkpt><trkpt lat="38.75528018751527" lon="16.403806591661258"><ele>805.0</ele><time>2026-04-19T10:40:08Z</time></trkpt><trkpt lat="38.755266421912495" lon="16.403893910791446"><ele>805.0</ele><time>2026-04-19T10:40:09Z</time></trkpt><trkpt lat="38.75524448536843" lon="16.403981688773005"><ele>804.9999999999999</ele><time>2026-04-19T10:40:10Z</time></trkpt><trkpt lat="38.75522370452234" lon="16.404069792795504"><ele>805.0</ele><time>2026-04-19T10:40:11Z</time></trkpt><trkpt lat="38.75520775782504" lon="16.404161223805907"><ele>806.4</ele><time>2026-04-19T10:40:12Z</time></trkpt><trkpt lat="38.75519923501989" lon="16.404259025472395"><ele>807.8</ele><time>2026-04-19T10:40:13Z</time></trkpt><trkpt lat="38.75519937903799" lon="16.40436997756605"><ele>809.2</ele><time>2026-04-19T10:40:14Z</time></trkpt><trkpt lat="38.75520260782157" lon="16.404492082402804"><ele>810.6</ele><time>2026-04-19T10:40:15Z</time></trkpt><trkpt lat="38.75521595383603" lon="16.404624198979757"><ele>812.0</ele><time>2026-04-19T10:40:16Z</time></trkpt><trkpt lat="38.755231181507746" lon="16.404754648716814"><ele>813.1666666666667</ele><time>2026-04-19T10:40:17Z</time></trkpt><trkpt lat="38.75523981693756" lon="16.4048824415006"><ele>814.3333333333334</ele><time>2026-04-19T10:40:18Z</time></trkpt><trkpt lat="38.75525535706812" lon="16.405001134522834"><ele>815.5</ele><time>2026-04-19T10:40:19Z</time></trkpt><trkpt lat="38.75527634750821" lon="16.405103083272753"><ele>816.6666666666667</ele><time>2026-04-19T10:40:20Z</time></trkpt><trkpt lat="38.75528496624328" lon="16.40518321644062"><ele>817.8333333333334</ele><time>2026-04-19T10:40:21Z</time></trkpt><trkpt lat="38.75527728583422" lon="16.40528467110984"><ele>819.0</ele><time>2026-04-19T10:40:23Z</time></trkpt><trkpt lat="38.75519963700397" lon="16.40529812863569"><ele>819.1666666666666</ele><time>2026-04-19T10:40:28Z</time></trkpt><trkpt lat="38.75512359665713" lon="16.405237688916028"><ele>819.3333333333333</ele><time>2026-04-19T10:40:31Z</time></trkpt><trkpt lat="38.75507030097614" lon="16.405184739698047"><ele>819.5</ele><time>2026-04-19T10:40:33Z</time></trkpt><trkpt lat="38.75500486603174" lon="16.405099915187577"><ele>819.6666666666666</ele><time>2026-04-19T10:40:36Z</time></trkpt><trkpt lat="38.75493701966048" lon="16.405049796235186"><ele>819.8333333333333</ele><time>2026-04-19T10:40:38Z</time></trkpt><trkpt lat="38.754857428856326" lon="16.405016098543534"><ele>820.0</ele><time>2026-04-19T10:40:40Z</time></trkpt><trkpt lat="38.754784200806974" lon="16.40499447696633"><ele>820.0</ele><time>2026-04-19T10:40:42Z</time></trkpt><trkpt lat="38.75470583814327" lon="16.404962603256"><ele>820.0</ele><time>2026-04-19T10:40:44Z</time></trkpt><trkpt lat="38.75461352664323" lon="16.404945595701584"><ele>820.0</ele><time>2026-04-19T10:40:46Z</time></trkpt><trkpt lat="38.75450171508977" lon="16.404926158415336"><ele>820.0</ele><time>2026-04-19T10:40:48Z</time></trkpt><trkpt lat="38.75440072279354" lon="16.40487748910738"><ele>820.0</ele><time>2026-04-19T10:40:50Z</time></trkpt><trkpt lat="38.75429778269495" lon="16.404832558033927"><ele>820.0</ele><time>2026-04-19T10:40:52Z</time></trkpt><trkpt lat="38.75418438488586" lon="16.404794471336203"><ele>820.0</ele><time>2026-04-19T10:40:54.001Z</time></trkpt><trkpt lat="38.754063288648574" lon="16.404752056566352"><ele>820.0</ele><time>2026-04-19T10:40:56.001Z</time></trkpt><trkpt lat="38.75399444768404" lon="16.40472018787204"><ele>820.0</ele><time>2026-04-19T10:40:57.001Z</time></trkpt><trkpt lat="38.75391936282004" lon="16.404670187258994"><ele>820.0</ele><time>2026-04-19T10:40:58.001Z</time></trkpt><trkpt lat="38.753832086604746" lon="16.404613123101477"><ele>820.0</ele><time>2026-04-19T10:40:59.001Z</time></trkpt><trkpt lat="38.75375003646844" lon="16.404543037683354"><ele>820.0</ele><time>2026-04-19T10:41:00.001Z</time></trkpt><trkpt lat="38.75367938138777" lon="16.40450682009142"><ele>820.0</ele><time>2026-04-19T10:41:01.001Z</time></trkpt><trkpt lat="38.75359936941158" lon="16.40451038792195"><ele>820.0</ele><time>2026-04-19T10:41:02.001Z</time></trkpt><trkpt lat="38.7535218465783" lon="16.404575176675074"><ele>820.0</ele><time>2026-04-19T10:41:03.001Z</time></trkpt><trkpt lat="38.753464673288484" lon="16.40468753555578"><ele>823.25</ele><time>2026-04-19T10:41:04.001Z</time></trkpt><trkpt lat="38.75341803727758" lon="16.404823803935386"><ele>826.5</ele><time>2026-04-19T10:41:05Z</time></trkpt><trkpt lat="38.75337340960272" lon="16.404966059100143"><ele>829.75</ele><time>2026-04-19T10:41:06Z</time></trkpt><trkpt lat="38.75331577690079" lon="16.405116054369223"><ele>833.0</ele><time>2026-04-19T10:41:07.001Z</time></trkpt><trkpt lat="38.75323196390602" lon="16.405265093335643"><ele>833.0</ele><time>2026-04-19T10:41:08.001Z</time></trkpt><trkpt lat="38.753131587149966" lon="16.40540031008737"><ele>833.0</ele><time>2026-04-19T10:41:09Z</time></trkpt><trkpt lat="38.75302756880186" lon="16.40551280534425"><ele>833.0</ele><time>2026-04-19T10:41:10Z</time></trkpt><trkpt lat="38.752927829877414" lon="16.405613832413216"><ele>833.0</ele><time>2026-04-19T10:41:11.001Z</time></trkpt><trkpt lat="38.752838696963124" lon="16.405716256263688"><ele>833.75</ele><time>2026-04-19T10:41:12Z</time></trkpt><trkpt lat="38.75276168548802" lon="16.40583159859029"><ele>834.5</ele><time>2026-04-19T10:41:13Z</time></trkpt><trkpt lat="38.752695576588984" lon="16.40595168603493"><ele>835.25</ele><time>2026-04-19T10:41:14Z</time></trkpt><trkpt lat="38.752640695181015" lon="16.40607990090228"><ele>836.0</ele><time>2026-04-19T10:41:15Z</time></trkpt><trkpt lat="38.7525843828771" lon="16.406192214863662"><ele>836.0000000000001</ele><time>2026-04-19T10:41:16Z</time></trkpt><trkpt lat="38.75252233750166" lon="16.406282630077964"><ele>836.0</ele><time>2026-04-19T10:41:17Z</time></trkpt><trkpt lat="38.752472387738855" lon="16.406357806924042"><ele>836.0</ele><time>2026-04-19T10:41:18Z</time></trkpt><trkpt lat="38.75241803174001" lon="16.40641019139848"><ele>836.0</ele><time>2026-04-19T10:41:19Z</time></trkpt><trkpt lat="38.752336367110345" lon="16.40644193226993"><ele>836.0000000000001</ele><time>2026-04-19T10:41:20Z</time></trkpt><trkpt lat="38.75226101946519" lon="16.406429972328443"><ele>836.0</ele><time>2026-04-19T10:41:21Z</time></trkpt><trkpt lat="38.75217719946689" lon="16.406388600880586"><ele>837.0</ele><time>2026-04-19T10:41:23Z</time></trkpt><trkpt lat="38.75215181857527" lon="16.406491416894248"><ele>838.0</ele><time>2026-04-19T10:41:25Z</time></trkpt><trkpt lat="38.752168558222266" lon="16.40661699436691"><ele>839.0</ele><time>2026-04-19T10:41:27Z</time></trkpt><trkpt lat="38.75217708466269" lon="16.406751989419995"><ele>840.0</ele><time>2026-04-19T10:41:29Z</time></trkpt><trkpt lat="38.752187461447086" lon="16.40684801473556"><ele>841.0</ele><time>2026-04-19T10:41:30Z</time></trkpt><trkpt lat="38.75213140545102" lon="16.40698552567874"><ele>840.9999999999999</ele><time>2026-04-19T10:41:31Z</time></trkpt><trkpt lat="38.75216049436843" lon="16.40707487211104"><ele>841.0</ele><time>2026-04-19T10:41:32Z</time></trkpt><trkpt lat="38.752187115768415" lon="16.407153074523766"><ele>841.0</ele><time>2026-04-19T10:41:33Z</time></trkpt><trkpt lat="38.752216362321505" lon="16.407238988809773"><ele>841.0</ele><time>2026-04-19T10:41:34Z</time></trkpt><trkpt lat="38.75226321157791" lon="16.407323849422294"><ele>840.9999999999999</ele><time>2026-04-19T10:41:35Z</time></trkpt><trkpt lat="38.752297694735915" lon="16.40741632830336"><ele>841.0</ele><time>2026-04-19T10:41:36Z</time></trkpt><trkpt lat="38.75231676547169" lon="16.40751014894231"><ele>841.7142857142858</ele><time>2026-04-19T10:41:37Z</time></trkpt><trkpt lat="38.75234954065906" lon="16.407595122984162"><ele>842.4285714285713</ele><time>2026-04-19T10:41:38Z</time></trkpt><trkpt lat="38.75238052974939" lon="16.407675466601752"><ele>843.1428571428571</ele><time>2026-04-19T10:41:39Z</time></trkpt><trkpt lat="38.75242100833702" lon="16.407749166796197"><ele>843.8571428571429</ele><time>2026-04-19T10:41:40Z</time></trkpt><trkpt lat="38.75244484782407" lon="16.407830123554405"><ele>844.5714285714287</ele><time>2026-04-19T10:41:41Z</time></trkpt><trkpt lat="38.75246191543879" lon="16.407921780615478"><ele>845.2857142857142</ele><time>2026-04-19T10:41:42Z</time></trkpt><trkpt lat="38.75247618325766" lon="16.408013487077604"><ele>846.0</ele><time>2026-04-19T10:41:43Z</time></trkpt><trkpt lat="38.75249410886484" lon="16.408121938690485"><ele>846.0</ele><time>2026-04-19T10:41:44Z</time></trkpt><trkpt lat="38.75251339045678" lon="16.408235669822446"><ele>846.0</ele><time>2026-04-19T10:41:45Z</time></trkpt><trkpt lat="38.752531869997156" lon="16.4083410682522"><ele>846.0</ele><time>2026-04-19T10:41:46Z</time></trkpt><trkpt lat="38.752557347302506" lon="16.408450449128324"><ele>846.0</ele><time>2026-04-19T10:41:47Z</time></trkpt><trkpt lat="38.75258579490879" lon="16.408574028514177"><ele>846.0</ele><time>2026-04-19T10:41:48Z</time></trkpt><trkpt lat="38.752619229532435" lon="16.408698988856685"><ele>846.0</ele><time>2026-04-19T10:41:49Z</time></trkpt><trkpt lat="38.75265699981353" lon="16.40881818616856"><ele>846.0</ele><time>2026-04-19T10:41:50Z</time></trkpt><trkpt lat="38.75268940975662" lon="16.408942595943568"><ele>846.0</ele><time>2026-04-19T10:41:51Z</time></trkpt><trkpt lat="38.752750095176474" lon="16.40906338948966"><ele>846.0</ele><time>2026-04-19T10:41:52Z</time></trkpt><trkpt lat="38.75281775839624" lon="16.40917479090554"><ele>846.0</ele><time>2026-04-19T10:41:53Z</time></trkpt><trkpt lat="38.752881271806984" lon="16.40927195048365"><ele>845.0</ele><time>2026-04-19T10:41:54Z</time></trkpt><trkpt lat="38.75294519238172" lon="16.40936353160106"><ele>844.0</ele><time>2026-04-19T10:41:55Z</time></trkpt><trkpt lat="38.75300453474833" lon="16.40944571380419"><ele>843.0</ele><time>2026-04-19T10:41:56Z</time></trkpt><trkpt lat="38.753056003807046" lon="16.409516387894037"><ele>842.0</ele><time>2026-04-19T10:41:57Z</time></trkpt><trkpt lat="38.75310111909378" lon="16.409580023256694"><ele>841.0</ele><time>2026-04-19T10:41:58Z</time></trkpt><trkpt lat="38.753140850149705" lon="16.40965725851184"><ele>840.0</ele><time>2026-04-19T10:41:59Z</time></trkpt><trkpt lat="38.753169826195474" lon="16.409736696347522"><ele>840.0</ele><time>2026-04-19T10:42:00Z</time></trkpt><trkpt lat="38.75319928354348" lon="16.409831644180805"><ele>840.0</ele><time>2026-04-19T10:42:01Z</time></trkpt><trkpt lat="38.753231694739014" lon="16.409956525770497"><ele>840.0</ele><time>2026-04-19T10:42:02Z</time></trkpt><trkpt lat="38.7532084880959" lon="16.410216753985296"><ele>840.0</ele><time>2026-04-19T10:42:03Z</time></trkpt><trkpt lat="38.753102597099144" lon="16.41035231092819"><ele>840.0</ele><time>2026-04-19T10:42:04Z</time></trkpt><trkpt lat="38.753032276980974" lon="16.410442948188248"><ele>840.0</ele><time>2026-04-19T10:42:05Z</time></trkpt><trkpt lat="38.75296647587297" lon="16.410530429333026"><ele>840.0</ele><time>2026-04-19T10:42:06Z</time></trkpt><trkpt lat="38.75291389662536" lon="16.41061444346147"><ele>840.0</ele><time>2026-04-19T10:42:07Z</time></trkpt><trkpt lat="38.75286715948249" lon="16.410695845109725"><ele>840.0</ele><time>2026-04-19T10:42:08Z</time></trkpt><trkpt lat="38.752819448576666" lon="16.41078093919645"><ele>840.0</ele><time>2026-04-19T10:42:09Z</time></trkpt><trkpt lat="38.752772420424506" lon="16.410869848447444"><ele>840.2</ele><time>2026-04-19T10:42:10Z</time></trkpt><trkpt lat="38.75270300958068" lon="16.410934492236564"><ele>840.4</ele><time>2026-04-19T10:42:12Z</time></trkpt><trkpt lat="38.75269574126048" lon="16.41104140688933"><ele>840.5999999999999</ele><time>2026-04-19T10:42:13Z</time></trkpt><trkpt lat="38.75271213881164" lon="16.411179763831623"><ele>840.8</ele><time>2026-04-19T10:42:14Z</time></trkpt><trkpt lat="38.75274719932297" lon="16.41131364537693"><ele>841.0</ele><time>2026-04-19T10:42:15Z</time></trkpt><trkpt lat="38.75279016856025" lon="16.4114470020619"><ele>838.5</ele><time>2026-04-19T10:42:16Z</time></trkpt><trkpt lat="38.75284028119684" lon="16.411590257954725"><ele>836.0</ele><time>2026-04-19T10:42:17Z</time></trkpt><trkpt lat="38.75288699282452" lon="16.411723791542386"><ele>833.5</ele><time>2026-04-19T10:42:18Z</time></trkpt><trkpt lat="38.752945737136365" lon="16.4118688655843"><ele>831.0</ele><time>2026-04-19T10:42:19Z</time></trkpt><trkpt lat="38.752993785338724" lon="16.412043055580163"><ele>831.75</ele><time>2026-04-19T10:42:20Z</time></trkpt><trkpt lat="38.753049917286425" lon="16.41216650027965"><ele>832.5</ele><time>2026-04-19T10:42:21Z</time></trkpt><trkpt lat="38.75311120199375" lon="16.412285615653097"><ele>833.25</ele><time>2026-04-19T10:42:22Z</time></trkpt><trkpt lat="38.753188778068285" lon="16.412443761383813"><ele>834.0</ele><time>2026-04-19T10:42:23Z</time></trkpt><trkpt lat="38.75322775669172" lon="16.412600553144884"><ele>834.0</ele><time>2026-04-19T10:42:24Z</time></trkpt><trkpt lat="38.75330178774549" lon="16.4127684851244"><ele>834.0</ele><time>2026-04-19T10:42:25Z</time></trkpt><trkpt lat="38.753337416186625" lon="16.412919908804223"><ele>834.0</ele><time>2026-04-19T10:42:26Z</time></trkpt><trkpt lat="38.75338924712064" lon="16.413079518264034"><ele>834.0</ele><time>2026-04-19T10:42:26.999Z</time></trkpt><trkpt lat="38.75341713297929" lon="16.41325092809859"><ele>834.75</ele><time>2026-04-19T10:42:27.999Z</time></trkpt><trkpt lat="38.7534483496915" lon="16.413435687018538"><ele>835.5</ele><time>2026-04-19T10:42:28.999Z</time></trkpt><trkpt lat="38.753471194579376" lon="16.41360517493268"><ele>836.25</ele><time>2026-04-19T10:42:29.999Z</time></trkpt><trkpt lat="38.75349107557573" lon="16.413752675703204"><ele>837.0</ele><time>2026-04-19T10:42:30.999Z</time></trkpt><trkpt lat="38.7535162225318" lon="16.41389018507624"><ele>838.25</ele><time>2026-04-19T10:42:31.999Z</time></trkpt><trkpt lat="38.753538423247306" lon="16.414044033961044"><ele>839.5</ele><time>2026-04-19T10:42:32.999Z</time></trkpt><trkpt lat="38.75355989768561" lon="16.414211150453706"><ele>840.75</ele><time>2026-04-19T10:42:33.999Z</time></trkpt><trkpt lat="38.753590789284786" lon="16.414386090421353"><ele>842.0</ele><time>2026-04-19T10:42:34.999Z</time></trkpt><trkpt lat="38.75362862484578" lon="16.41458962588462"><ele>839.0</ele><time>2026-04-19T10:42:35.999Z</time></trkpt><trkpt lat="38.7538043624298" lon="16.41476576080046"><ele>836.0</ele><time>2026-04-19T10:42:36.999Z</time></trkpt><trkpt lat="38.753843721991416" lon="16.414998882333652"><ele>833.0</ele><time>2026-04-19T10:42:37.999Z</time></trkpt><trkpt lat="38.7538858053113" lon="16.41524777647348"><ele>833.3333333333334</ele><time>2026-04-19T10:42:38.999Z</time></trkpt><trkpt lat="38.75391705570564" lon="16.415506301562292"><ele>833.6666666666667</ele><time>2026-04-19T10:42:39.999Z</time></trkpt><trkpt lat="38.753942167933054" lon="16.41579334839588"><ele>834.0</ele><time>2026-04-19T10:42:40.999Z</time></trkpt><trkpt lat="38.75395566618161" lon="16.416107707760776"><ele>834.3333333333333</ele><time>2026-04-19T10:42:41.999Z</time></trkpt><trkpt lat="38.753960191907616" lon="16.416380462637676"><ele>834.6666666666666</ele><time>2026-04-19T10:42:42.999Z</time></trkpt><trkpt lat="38.75396955234449" lon="16.416645432633175"><ele>835.0</ele><time>2026-04-19T10:42:43.999Z</time></trkpt><trkpt lat="38.753999311666796" lon="16.41690975588119"><ele>835.3333333333333</ele><time>2026-04-19T10:42:44.999Z</time></trkpt><trkpt lat="38.75404761353501" lon="16.41716006849825"><ele>835.6666666666667</ele><time>2026-04-19T10:42:45.999Z</time></trkpt><trkpt lat="38.75410718446334" lon="16.41737315746168"><ele>836.0</ele><time>2026-04-19T10:42:46.999Z</time></trkpt><trkpt lat="38.75415469130809" lon="16.417576319371484"><ele>836.0</ele><time>2026-04-19T10:42:47.999Z</time></trkpt><trkpt lat="38.754203713063156" lon="16.417786167802888"><ele>836.0</ele><time>2026-04-19T10:42:48.999Z</time></trkpt><trkpt lat="38.75424665316782" lon="16.417993551865415"><ele>836.0</ele><time>2026-04-19T10:42:49.999Z</time></trkpt><trkpt lat="38.75427575679281" lon="16.418192364240028"><ele>835.0</ele><time>2026-04-19T10:42:50.999Z</time></trkpt><trkpt lat="38.75428548259407" lon="16.418393353283967"><ele>834.0</ele><time>2026-04-19T10:42:51.999Z</time></trkpt><trkpt lat="38.75426384139091" lon="16.418593941894393"><ele>833.0</ele><time>2026-04-19T10:42:52.999Z</time></trkpt><trkpt lat="38.75424458336542" lon="16.418805683972657"><ele>832.6666666666667</ele><time>2026-04-19T10:42:53.999Z</time></trkpt><trkpt lat="38.75420909856225" lon="16.419001959184836"><ele>832.3333333333333</ele><time>2026-04-19T10:42:54.999Z</time></trkpt><trkpt lat="38.754172502463085" lon="16.419202422083508"><ele>832.0</ele><time>2026-04-19T10:42:55.999Z</time></trkpt><trkpt lat="38.75413471002222" lon="16.41941242231958"><ele>832.0</ele><time>2026-04-19T10:42:56.999Z</time></trkpt><trkpt lat="38.75409165540017" lon="16.419601861934986"><ele>832.0</ele><time>2026-04-19T10:42:57.999Z</time></trkpt><trkpt lat="38.75404581962372" lon="16.419796812990032"><ele>832.0</ele><time>2026-04-19T10:42:58.999Z</time></trkpt><trkpt lat="38.7539903462314" lon="16.42001389042157"><ele>833.0</ele><time>2026-04-19T10:42:59.999Z</time></trkpt><trkpt lat="38.753930927816434" lon="16.420242472309432"><ele>834.0</ele><time>2026-04-19T10:43:00.999Z</time></trkpt><trkpt lat="38.75391042931901" lon="16.420431983997336"><ele>835.0</ele><time>2026-04-19T10:43:01.999Z</time></trkpt><trkpt lat="38.7537722802892" lon="16.420580662793327"><ele>836.0</ele><time>2026-04-19T10:43:02.999Z</time></trkpt><trkpt lat="38.7536031503689" lon="16.420744830143672"><ele>837.0</ele><time>2026-04-19T10:43:03.999Z</time></trkpt><trkpt lat="38.75332161981224" lon="16.420796854284717"><ele>835.6666666666667</ele><time>2026-04-19T10:43:04.999Z</time></trkpt><trkpt lat="38.753177117668514" lon="16.420983949313126"><ele>834.3333333333334</ele><time>2026-04-19T10:43:05.999Z</time></trkpt><trkpt lat="38.75305164527542" lon="16.421155236082726"><ele>833.0</ele><time>2026-04-19T10:43:06.999Z</time></trkpt><trkpt lat="38.752935269742174" lon="16.421316047730027"><ele>833.0</ele><time>2026-04-19T10:43:07.999Z</time></trkpt><trkpt lat="38.75282944508401" lon="16.421458015825163"><ele>833.0</ele><time>2026-04-19T10:43:08.999Z</time></trkpt><trkpt lat="38.752715182722675" lon="16.42159791872575"><ele>833.0</ele><time>2026-04-19T10:43:09.999Z</time></trkpt><trkpt lat="38.752618040309" lon="16.421710651836705"><ele>833.0</ele><time>2026-04-19T10:43:10.999Z</time></trkpt><trkpt lat="38.7525387794463" lon="16.421801199680015"><ele>831.0</ele><time>2026-04-19T10:43:11.999Z</time></trkpt><trkpt lat="38.75245012883482" lon="16.421902474170672"><ele>829.0</ele><time>2026-04-19T10:43:12.999Z</time></trkpt><trkpt lat="38.752359823682426" lon="16.422011300862696"><ele>827.0</ele><time>2026-04-19T10:43:13.999Z</time></trkpt><trkpt lat="38.752271749252294" lon="16.422127580889114"><ele>825.0</ele><time>2026-04-19T10:43:14.999Z</time></trkpt><trkpt lat="38.75219336183314" lon="16.422237987232435"><ele>824.8</ele><time>2026-04-19T10:43:15.999Z</time></trkpt><trkpt lat="38.75213205551217" lon="16.422348610327653"><ele>824.6</ele><time>2026-04-19T10:43:16.999Z</time></trkpt><trkpt lat="38.75204837567703" lon="16.422444304686962"><ele>824.4000000000001</ele><time>2026-04-19T10:43:17.999Z</time></trkpt><trkpt lat="38.75198331351035" lon="16.422535741480004"><ele>824.2</ele><time>2026-04-19T10:43:18.999Z</time></trkpt><trkpt lat="38.751936030788016" lon="16.422614649030884"><ele>824.0</ele><time>2026-04-19T10:43:19.999Z</time></trkpt><trkpt lat="38.75186290116132" lon="16.42267133350776"><ele>823.2</ele><time>2026-04-19T10:43:20.999Z</time></trkpt><trkpt lat="38.751810070267084" lon="16.422728614749108"><ele>822.4000000000001</ele><time>2026-04-19T10:43:22.999Z</time></trkpt><trkpt lat="38.7517349885863" lon="16.42278724438883"><ele>821.6</ele><time>2026-04-19T10:43:25.999Z</time></trkpt><trkpt lat="38.751679187290776" lon="16.4228485553366"><ele>820.8</ele><time>2026-04-19T10:43:28.999Z</time></trkpt><trkpt lat="38.75163826930692" lon="16.422914887904742"><ele>820.0</ele><time>2026-04-19T10:43:30.999Z</time></trkpt><trkpt lat="38.75140532889923" lon="16.422760514164313"><ele>819.9999999999999</ele><time>2026-04-19T10:43:33.999Z</time></trkpt><trkpt lat="38.75132291558338" lon="16.422744669610378"><ele>820.0</ele><time>2026-04-19T10:43:36.999Z</time></trkpt><trkpt lat="38.751229855373595" lon="16.422760207319275"><ele>820.0</ele><time>2026-04-19T10:43:38.999Z</time></trkpt><trkpt lat="38.7511634656767" lon="16.422757733822262"><ele>820.0</ele><time>2026-04-19T10:43:40.999Z</time></trkpt><trkpt lat="38.75107484165576" lon="16.422751543072806"><ele>819.9999999999999</ele><time>2026-04-19T10:43:43.999Z</time></trkpt><trkpt lat="38.75101092192831" lon="16.422770978239402"><ele>820.0</ele><time>2026-04-19T10:43:45.999Z</time></trkpt><trkpt lat="38.75092344612797" lon="16.422801530095636"><ele>820.2</ele><time>2026-04-19T10:43:47.999Z</time></trkpt><trkpt lat="38.750808877536144" lon="16.42285241993643"><ele>820.4</ele><time>2026-04-19T10:43:49.999Z</time></trkpt><trkpt lat="38.75069448575676" lon="16.422903503903832"><ele>820.5999999999999</ele><time>2026-04-19T10:43:51.999Z</time></trkpt><trkpt lat="38.75063540492588" lon="16.422934238800956"><ele>820.8</ele><time>2026-04-19T10:43:52.999Z</time></trkpt><trkpt lat="38.75052812192577" lon="16.422981447841067"><ele>821.0</ele><time>2026-04-19T10:43:54.999Z</time></trkpt><trkpt lat="38.75042804757888" lon="16.423027784022732"><ele>820.0</ele><time>2026-04-19T10:43:56.999Z</time></trkpt><trkpt lat="38.75034744252898" lon="16.423111153715794"><ele>819.0</ele><time>2026-04-19T10:43:58.999Z</time></trkpt><trkpt lat="38.75025603237" lon="16.423172856165785"><ele>818.0</ele><time>2026-04-19T10:44:00.999Z</time></trkpt><trkpt lat="38.75016113562474" lon="16.423227410107515"><ele>817.0</ele><time>2026-04-19T10:44:02.999Z</time></trkpt><trkpt lat="38.75005391930105" lon="16.42328048812044"><ele>816.0</ele><time>2026-04-19T10:44:04.999Z</time></trkpt><trkpt lat="38.74998059326283" lon="16.423262349676186"><ele>815.8333333333334</ele><time>2026-04-19T10:44:06.999Z</time></trkpt><trkpt lat="38.749957677045224" lon="16.423170136761"><ele>815.6666666666667</ele><time>2026-04-19T10:44:08.999Z</time></trkpt><trkpt lat="38.74993226239984" lon="16.423073825001048"><ele>815.5</ele><time>2026-04-19T10:44:10.999Z</time></trkpt><trkpt lat="38.74985248445555" lon="16.42300743133177"><ele>815.3333333333334</ele><time>2026-04-19T10:44:12.999Z</time></trkpt><trkpt lat="38.749757084314545" lon="16.422956856983866"><ele>815.1666666666667</ele><time>2026-04-19T10:44:14.999Z</time></trkpt><trkpt lat="38.74966356890393" lon="16.422954384575057"><ele>815.0</ele><time>2026-04-19T10:44:16.999Z</time></trkpt><trkpt lat="38.74960300923709" lon="16.422931207364403"><ele>815.0000000000001</ele><time>2026-04-19T10:44:17.999Z</time></trkpt><trkpt lat="38.749522558124376" lon="16.42289231243414"><ele>815.0</ele><time>2026-04-19T10:44:19.999Z</time></trkpt><trkpt lat="38.74943240362986" lon="16.422845971096603"><ele>815.0</ele><time>2026-04-19T10:44:21.999Z</time></trkpt><trkpt lat="38.74933419846196" lon="16.42285283159879"><ele>815.0</ele><time>2026-04-19T10:44:23.999Z</time></trkpt><trkpt lat="38.74928273213606" lon="16.42292762303861"><ele>815.0000000000001</ele><time>2026-04-19T10:44:26.999Z</time></trkpt><trkpt lat="38.749292448601814" lon="16.423037960716158"><ele>815.0</ele><time>2026-04-19T10:44:28.999Z</time></trkpt><trkpt lat="38.74930843273565" lon="16.423152460281763"><ele>812.5000000000001</ele><time>2026-04-19T10:44:30.999Z</time></trkpt><trkpt lat="38.74933796354647" lon="16.423223958813843"><ele>810.0</ele><time>2026-04-19T10:44:32.999Z</time></trkpt><trkpt lat="38.749288428808335" lon="16.423297860141066"><ele>807.5</ele><time>2026-04-19T10:44:36.999Z</time></trkpt><trkpt lat="38.74923512274623" lon="16.423349522352865"><ele>805.0</ele><time>2026-04-19T10:44:38.999Z</time></trkpt><trkpt lat="38.749137125344" lon="16.423383723628884"><ele>802.5000000000001</ele><time>2026-04-19T10:44:40.999Z</time></trkpt><trkpt lat="38.74902733807253" lon="16.423337473751854"><ele>800.0</ele><time>2026-04-19T10:44:42.999Z</time></trkpt><trkpt lat="38.74891787876927" lon="16.42335307653387"><ele>800.0</ele><time>2026-04-19T10:44:44.999Z</time></trkpt><trkpt lat="38.748820383496735" lon="16.423379133795567"><ele>800.0</ele><time>2026-04-19T10:44:46.999Z</time></trkpt><trkpt lat="38.748713552802776" lon="16.42345167480244"><ele>800.0</ele><time>2026-04-19T10:44:48.999Z</time></trkpt><trkpt lat="38.74865320206792" lon="16.423533343973233"><ele>800.0</ele><time>2026-04-19T10:44:50.999Z</time></trkpt><trkpt lat="38.74858931511434" lon="16.4235846374312"><ele>800.0</ele><time>2026-04-19T10:44:52.999Z</time></trkpt><trkpt lat="38.748491294126985" lon="16.42361032825046"><ele>798.1666666666667</ele><time>2026-04-19T10:44:54.999Z</time></trkpt><trkpt lat="38.74840289361524" lon="16.423635982448005"><ele>796.3333333333334</ele><time>2026-04-19T10:44:56.999Z</time></trkpt><trkpt lat="38.748327200449395" lon="16.42366745298372"><ele>794.5</ele><time>2026-04-19T10:44:59.999Z</time></trkpt><trkpt lat="38.74827010871627" lon="16.423707704534703"><ele>792.6666666666667</ele><time>2026-04-19T10:45:01.999Z</time></trkpt><trkpt lat="38.7481747573247" lon="16.42375415733118"><ele>790.8333333333334</ele><time>2026-04-19T10:45:03.999Z</time></trkpt><trkpt lat="38.748095208080166" lon="16.4237608433827"><ele>789.0</ele><time>2026-04-19T10:45:04.999Z</time></trkpt><trkpt lat="38.748017410645836" lon="16.42378690420022"><ele>787.4000000000001</ele><time>2026-04-19T10:45:05.999Z</time></trkpt><trkpt lat="38.74789938766817" lon="16.42384591513791"><ele>785.8</ele><time>2026-04-19T10:45:07.999Z</time></trkpt><trkpt lat="38.747834696547415" lon="16.423873237167584"><ele>784.2</ele><time>2026-04-19T10:45:08.999Z</time></trkpt><trkpt lat="38.74772553585338" lon="16.42386135209553"><ele>782.5999999999999</ele><time>2026-04-19T10:45:10.999Z</time></trkpt><trkpt lat="38.74761085009568" lon="16.42388322631947"><ele>781.0</ele><time>2026-04-19T10:45:12.999Z</time></trkpt><trkpt lat="38.74754761628541" lon="16.42391797339893"><ele>780.1428571428571</ele><time>2026-04-19T10:45:13.999Z</time></trkpt><trkpt lat="38.74748158648234" lon="16.42396067897481"><ele>779.2857142857143</ele><time>2026-04-19T10:45:14.999Z</time></trkpt><trkpt lat="38.74741237558845" lon="16.424010919144475"><ele>778.4285714285713</ele><time>2026-04-19T10:45:15.999Z</time></trkpt><trkpt lat="38.74734093870921" lon="16.424059719611428"><ele>777.5714285714286</ele><time>2026-04-19T10:45:16.999Z</time></trkpt><trkpt lat="38.74727523606461" lon="16.424095988468395"><ele>776.7142857142857</ele><time>2026-04-19T10:45:17.999Z</time></trkpt><trkpt lat="38.747211591394766" lon="16.42413097047897"><ele>775.8571428571428</ele><time>2026-04-19T10:45:18.999Z</time></trkpt><trkpt lat="38.74715569030083" lon="16.424183275480374"><ele>775.0</ele><time>2026-04-19T10:45:19.999Z</time></trkpt><trkpt lat="38.7471007366171" lon="16.42425878083363"><ele>774.9999999999999</ele><time>2026-04-19T10:45:20.999Z</time></trkpt><trkpt lat="38.74704068355545" lon="16.4243494580211"><ele>775.0</ele><time>2026-04-19T10:45:21.999Z</time></trkpt><trkpt lat="38.74698161841729" lon="16.424443703567984"><ele>775.0</ele><time>2026-04-19T10:45:22.999Z</time></trkpt><trkpt lat="38.74692169599803" lon="16.424517161719308"><ele>775.0</ele><time>2026-04-19T10:45:23.999Z</time></trkpt><trkpt lat="38.74686263504668" lon="16.424587124832147"><ele>774.9999999999999</ele><time>2026-04-19T10:45:24.999Z</time></trkpt><trkpt lat="38.74681335643198" lon="16.424655453152106"><ele>775.0</ele><time>2026-04-19T10:45:25.999Z</time></trkpt><trkpt lat="38.74673731437989" lon="16.424704420077813"><ele>773.2</ele><time>2026-04-19T10:45:27.999Z</time></trkpt><trkpt lat="38.746672208430745" lon="16.42461819582035"><ele>771.4</ele><time>2026-04-19T10:45:29.999Z</time></trkpt><trkpt lat="38.74659918070256" lon="16.424496069136566"><ele>769.5999999999999</ele><time>2026-04-19T10:45:31.999Z</time></trkpt><trkpt lat="38.74656250661686" lon="16.42442428669649"><ele>767.8</ele><time>2026-04-19T10:45:32.999Z</time></trkpt><trkpt lat="38.74654174669456" lon="16.424340734648833"><ele>766.0</ele><time>2026-04-19T10:45:33.999Z</time></trkpt><trkpt lat="38.74652087638965" lon="16.424202480261872"><ele>766.0</ele><time>2026-04-19T10:45:35.999Z</time></trkpt><trkpt lat="38.74652755355619" lon="16.424098862590995"><ele>766.0</ele><time>2026-04-19T10:45:37.999Z</time></trkpt><trkpt lat="38.74652833464953" lon="16.424002678971704"><ele>766.0</ele><time>2026-04-19T10:45:39.999Z</time></trkpt><trkpt lat="38.74652132964394" lon="16.423885665489763"><ele>766.0</ele><time>2026-04-19T10:45:41.999Z</time></trkpt><trkpt lat="38.74650449831907" lon="16.423751218794354"><ele>766.0</ele><time>2026-04-19T10:45:43.999Z</time></trkpt><trkpt lat="38.74647941687184" lon="16.423614964118443"><ele>765.1999999999999</ele><time>2026-04-19T10:45:45.999Z</time></trkpt><trkpt lat="38.746426949186585" lon="16.423487076937707"><ele>764.4</ele><time>2026-04-19T10:45:47.999Z</time></trkpt><trkpt lat="38.7463474487442" lon="16.423363040234424"><ele>763.6</ele><time>2026-04-19T10:45:49.999Z</time></trkpt><trkpt lat="38.746269617226496" lon="16.423263313741415"><ele>762.8</ele><time>2026-04-19T10:45:51.999Z</time></trkpt><trkpt lat="38.74622462691892" lon="16.423181260795943"><ele>762.0</ele><time>2026-04-19T10:45:53.999Z</time></trkpt><trkpt lat="38.746189305493424" lon="16.42310727782821"><ele>762.0</ele><time>2026-04-19T10:45:56.999Z</time></trkpt><trkpt lat="38.746141420369135" lon="16.423027539571077"><ele>762.0</ele><time>2026-04-19T10:46:05.999Z</time></trkpt><trkpt lat="38.7461046398615" lon="16.422940943197265"><ele>762.0</ele><time>2026-04-19T10:46:08.999Z</time></trkpt><trkpt lat="38.746078001513716" lon="16.42286777646152"><ele>762.0</ele><time>2026-04-19T10:46:12.999Z</time></trkpt><trkpt lat="38.74605959333505" lon="16.422768037266327"><ele>762.0</ele><time>2026-04-19T10:46:18.999Z</time></trkpt><trkpt lat="38.746052152897555" lon="16.422668632763145"><ele>762.0</ele><time>2026-04-19T10:46:20.999Z</time></trkpt><trkpt lat="38.746056995113676" lon="16.422561387002514"><ele>761.0</ele><time>2026-04-19T10:46:22.999Z</time></trkpt><trkpt lat="38.74605789976568" lon="16.422470887027178"><ele>760.0</ele><time>2026-04-19T10:46:28.999Z</time></trkpt><trkpt lat="38.746071428861825" lon="16.42237566499931"><ele>759.0</ele><time>2026-04-19T10:46:39.999Z</time></trkpt><trkpt lat="38.746124094178704" lon="16.422260771820856"><ele>758.0</ele><time>2026-04-19T10:46:41.999Z</time></trkpt><trkpt lat="38.74618079310971" lon="16.42217918384878"><ele>757.0</ele><time>2026-04-19T10:46:42.999Z</time></trkpt><trkpt lat="38.74624391653348" lon="16.42209077745673"><ele>756.0</ele><time>2026-04-19T10:46:43.999Z</time></trkpt><trkpt lat="38.74629853938694" lon="16.422001895755297"><ele>756.0</ele><time>2026-04-19T10:46:44.999Z</time></trkpt><trkpt lat="38.74633396259479" lon="16.421905089368813"><ele>756.0</ele><time>2026-04-19T10:46:45.999Z</time></trkpt><trkpt lat="38.7463747748434" lon="16.42176712611119"><ele>756.0</ele><time>2026-04-19T10:46:47.999Z</time></trkpt><trkpt lat="38.74642272828931" lon="16.42162787331595"><ele>756.0</ele><time>2026-04-19T10:46:49.999Z</time></trkpt><trkpt lat="38.74648344913928" lon="16.42150058364495"><ele>756.0</ele><time>2026-04-19T10:46:51.999Z</time></trkpt><trkpt lat="38.74651052985741" lon="16.42138196942006"><ele>756.0</ele><time>2026-04-19T10:46:53.999Z</time></trkpt><trkpt lat="38.74653272647485" lon="16.42130588233992"><ele>756.0</ele><time>2026-04-19T10:46:55.999Z</time></trkpt><trkpt lat="38.74658727799605" lon="16.421254401824967"><ele>756.0</ele><time>2026-04-19T10:47:04.999Z</time></trkpt><trkpt lat="38.746627594778985" lon="16.421182791366952"><ele>756.0</ele><time>2026-04-19T10:47:16.999Z</time></trkpt><trkpt lat="38.74665623671353" lon="16.42108915412093"><ele>756.0</ele><time>2026-04-19T10:47:19.999Z</time></trkpt><trkpt lat="38.74669072306955" lon="16.42100203185321"><ele>756.0</ele><time>2026-04-19T10:47:21.999Z</time></trkpt><trkpt lat="38.746735900442616" lon="16.420892508107205"><ele>756.0</ele><time>2026-04-19T10:47:23.999Z</time></trkpt><trkpt lat="38.74677529329968" lon="16.420778010810487"><ele>756.0</ele><time>2026-04-19T10:47:25.999Z</time></trkpt><trkpt lat="38.746810345874" lon="16.42065120722545"><ele>756.0</ele><time>2026-04-19T10:47:27.999Z</time></trkpt><trkpt lat="38.74683965166362" lon="16.420528298055903"><ele>756.0</ele><time>2026-04-19T10:47:29.999Z</time></trkpt><trkpt lat="38.746888129284464" lon="16.420432717616887"><ele>756.0</ele><time>2026-04-19T10:47:32.999Z</time></trkpt><trkpt lat="38.746925134820245" lon="16.420341972466918"><ele>759.5</ele><time>2026-04-19T10:47:34.999Z</time></trkpt><trkpt lat="38.747001726804946" lon="16.420238545410882"><ele>763.0</ele><time>2026-04-19T10:47:36.999Z</time></trkpt><trkpt lat="38.747057823482116" lon="16.420117200000657"><ele>766.5</ele><time>2026-04-19T10:47:38.999Z</time></trkpt><trkpt lat="38.74713552219593" lon="16.42002929597152"><ele>770.0</ele><time>2026-04-19T10:47:40.999Z</time></trkpt><trkpt lat="38.74720639101564" lon="16.419852764449217"><ele>770.0000000000001</ele><time>2026-04-19T10:47:42.999Z</time></trkpt><trkpt lat="38.747267180208446" lon="16.419767251154475"><ele>770.0</ele><time>2026-04-19T10:47:44.999Z</time></trkpt><trkpt lat="38.74732219657106" lon="16.419696982364115"><ele>770.0</ele><time>2026-04-19T10:47:46.999Z</time></trkpt><trkpt lat="38.74736505187588" lon="16.41961154861916"><ele>770.0</ele><time>2026-04-19T10:47:49.999Z</time></trkpt><trkpt lat="38.74736925708775" lon="16.41951555797997"><ele>770.0000000000001</ele><time>2026-04-19T10:47:53.999Z</time></trkpt><trkpt lat="38.74737838609939" lon="16.419418746844293"><ele>770.0</ele><time>2026-04-19T10:47:56.999Z</time></trkpt><trkpt lat="38.7474350350778" lon="16.419360349016152"><ele>770.1666666666667</ele><time>2026-04-19T10:48:01Z</time></trkpt><trkpt lat="38.74744554188107" lon="16.419244714917646"><ele>770.3333333333334</ele><time>2026-04-19T10:48:04Z</time></trkpt><trkpt lat="38.74745600964756" lon="16.419155729652186"><ele>770.5</ele><time>2026-04-19T10:48:06Z</time></trkpt><trkpt lat="38.74746519280668" lon="16.419033384611552"><ele>770.6666666666667</ele><time>2026-04-19T10:48:09Z</time></trkpt><trkpt lat="38.74745685751424" lon="16.418936279453103"><ele>770.8333333333334</ele><time>2026-04-19T10:48:11Z</time></trkpt><trkpt lat="38.74742850960455" lon="16.418820759638265"><ele>771.0</ele><time>2026-04-19T10:48:13Z</time></trkpt><trkpt lat="38.74739762586326" lon="16.418700652583485"><ele>771.0</ele><time>2026-04-19T10:48:15Z</time></trkpt><trkpt lat="38.74737333158812" lon="16.418573971367802"><ele>771.0</ele><time>2026-04-19T10:48:17Z</time></trkpt><trkpt lat="38.7473543559369" lon="16.41845943615506"><ele>771.0</ele><time>2026-04-19T10:48:19Z</time></trkpt><trkpt lat="38.74728164726937" lon="16.418376491376545"><ele>771.0</ele><time>2026-04-19T10:48:21Z</time></trkpt><trkpt lat="38.74717586957225" lon="16.418344706551984"><ele>771.0</ele><time>2026-04-19T10:48:23Z</time></trkpt><trkpt lat="38.74706757699444" lon="16.418376594786547"><ele>771.0</ele><time>2026-04-19T10:48:25Z</time></trkpt><trkpt lat="38.746990564817935" lon="16.41841022994039"><ele>771.0</ele><time>2026-04-19T10:48:27Z</time></trkpt><trkpt lat="38.746915160846015" lon="16.418417106527535"><ele>771.0</ele><time>2026-04-19T10:48:29Z</time></trkpt><trkpt lat="38.746819530908205" lon="16.418406451519267"><ele>771.0</ele><time>2026-04-19T10:48:31Z</time></trkpt><trkpt lat="38.74675792452731" lon="16.41838059727579"><ele>771.0</ele><time>2026-04-19T10:48:33Z</time></trkpt><trkpt lat="38.74667345553468" lon="16.41838821711257"><ele>771.0</ele><time>2026-04-19T10:48:39Z</time></trkpt><trkpt lat="38.74658568297366" lon="16.41833117740721"><ele>770.6666666666666</ele><time>2026-04-19T10:48:41Z</time></trkpt><trkpt lat="38.746527745271926" lon="16.41824883266435"><ele>770.3333333333333</ele><time>2026-04-19T10:48:42Z</time></trkpt><trkpt lat="38.746464628255644" lon="16.418162340361363"><ele>770.0</ele><time>2026-04-19T10:48:43Z</time></trkpt><trkpt lat="38.74640881082266" lon="16.418077130463566"><ele>769.6666666666666</ele><time>2026-04-19T10:48:44Z</time></trkpt><trkpt lat="38.74634479430386" lon="16.418008799045314"><ele>769.3333333333333</ele><time>2026-04-19T10:48:45Z</time></trkpt><trkpt lat="38.74627529589805" lon="16.41794791360753"><ele>769.0</ele><time>2026-04-19T10:48:46Z</time></trkpt><trkpt lat="38.74621089358912" lon="16.417893953684118"><ele>769.8000000000001</ele><time>2026-04-19T10:48:47Z</time></trkpt><trkpt lat="38.74615801416168" lon="16.417836450706037"><ele>770.6</ele><time>2026-04-19T10:48:48Z</time></trkpt><trkpt lat="38.7460870040368" lon="16.417721930315878"><ele>771.4</ele><time>2026-04-19T10:48:50Z</time></trkpt><trkpt lat="38.74604366236426" lon="16.417607991580926"><ele>772.2</ele><time>2026-04-19T10:48:52Z</time></trkpt><trkpt lat="38.74600537627628" lon="16.417507403978178"><ele>773.0</ele><time>2026-04-19T10:48:54Z</time></trkpt><trkpt lat="38.74597677163587" lon="16.41737966167713"><ele>770.8333333333334</ele><time>2026-04-19T10:48:56Z</time></trkpt><trkpt lat="38.74594832533378" lon="16.417263218756474"><ele>768.6666666666667</ele><time>2026-04-19T10:48:58Z</time></trkpt><trkpt lat="38.74593776199385" lon="16.41715739713714"><ele>766.5</ele><time>2026-04-19T10:49:01Z</time></trkpt><trkpt lat="38.74594593107887" lon="16.417052338025602"><ele>764.3333333333334</ele><time>2026-04-19T10:49:04Z</time></trkpt><trkpt lat="38.74593767444066" lon="16.416960043007954"><ele>762.1666666666667</ele><time>2026-04-19T10:49:06Z</time></trkpt><trkpt lat="38.745898709715995" lon="16.41686962841372"><ele>760.0</ele><time>2026-04-19T10:49:08Z</time></trkpt><trkpt lat="38.745889141997466" lon="16.416768029738375"><ele>759.8</ele><time>2026-04-19T10:49:10Z</time></trkpt><trkpt lat="38.74588965756188" lon="16.416618312840654"><ele>759.6</ele><time>2026-04-19T10:49:12Z</time></trkpt><trkpt lat="38.74589596972582" lon="16.416484286183696"><ele>759.4000000000001</ele><time>2026-04-19T10:49:14Z</time></trkpt><trkpt lat="38.7459011109318" lon="16.416350283817337"><ele>759.2</ele><time>2026-04-19T10:49:16Z</time></trkpt><trkpt lat="38.7459068389833" lon="16.416262623316527"><ele>759.0</ele><time>2026-04-19T10:49:17Z</time></trkpt><trkpt lat="38.745918355862784" lon="16.41616514735379"><ele>758.5</ele><time>2026-04-19T10:49:18Z</time></trkpt><trkpt lat="38.74592463804977" lon="16.416065829991737"><ele>758.0</ele><time>2026-04-19T10:49:19Z</time></trkpt><trkpt lat="38.74592865153178" lon="16.415965135699558"><ele>757.5</ele><time>2026-04-19T10:49:20Z</time></trkpt><trkpt lat="38.745935579499374" lon="16.415863143356514"><ele>757.0</ele><time>2026-04-19T10:49:21Z</time></trkpt><trkpt lat="38.74592713868772" lon="16.415765433963447"><ele>756.5</ele><time>2026-04-19T10:49:22Z</time></trkpt><trkpt lat="38.74592166053617" lon="16.41566612373271"><ele>756.0</ele><time>2026-04-19T10:49:23Z</time></trkpt><trkpt lat="38.745915764470354" lon="16.415570670134542"><ele>755.2857142857143</ele><time>2026-04-19T10:49:24Z</time></trkpt><trkpt lat="38.74591764193025" lon="16.415477452704874"><ele>754.5714285714286</ele><time>2026-04-19T10:49:25Z</time></trkpt><trkpt lat="38.74591470907676" lon="16.415383911310368"><ele>753.8571428571429</ele><time>2026-04-19T10:49:26Z</time></trkpt><trkpt lat="38.745916365274866" lon="16.415289401701266"><ele>753.1428571428571</ele><time>2026-04-19T10:49:27Z</time></trkpt><trkpt lat="38.74591677522146" lon="16.41520181866831"><ele>752.4285714285714</ele><time>2026-04-19T10:49:28Z</time></trkpt><trkpt lat="38.74591904845456" lon="16.41512003208086"><ele>751.7142857142858</ele><time>2026-04-19T10:49:29Z</time></trkpt><trkpt lat="38.74592775404988" lon="16.415030952767527"><ele>751.0</ele><time>2026-04-19T10:49:30Z</time></trkpt><trkpt lat="38.7459359246036" lon="16.414936103040922"><ele>751.0</ele><time>2026-04-19T10:49:31Z</time></trkpt><trkpt lat="38.74595281436714" lon="16.41485094297643"><ele>751.0</ele><time>2026-04-19T10:49:32Z</time></trkpt><trkpt lat="38.745985583326956" lon="16.41477457080601"><ele>751.0</ele><time>2026-04-19T10:49:33Z</time></trkpt><trkpt lat="38.74601649137086" lon="16.41469999896271"><ele>751.0</ele><time>2026-04-19T10:49:34Z</time></trkpt><trkpt lat="38.74608149731512" lon="16.414570500949317"><ele>751.0</ele><time>2026-04-19T10:49:36Z</time></trkpt><trkpt lat="38.74615655057377" lon="16.414484869714286"><ele>751.0</ele><time>2026-04-19T10:49:38Z</time></trkpt><trkpt lat="38.746233649816126" lon="16.414416123913536"><ele>750.0</ele><time>2026-04-19T10:49:40Z</time></trkpt><trkpt lat="38.74626596648562" lon="16.41433733640813"><ele>749.0</ele><time>2026-04-19T10:49:42Z</time></trkpt><trkpt lat="38.74619114112087" lon="16.414255957616113"><ele>748.0</ele><time>2026-04-19T10:49:45Z</time></trkpt><trkpt lat="38.74610600405137" lon="16.414259630935124"><ele>747.0</ele><time>2026-04-19T10:49:46Z</time></trkpt><trkpt lat="38.74600001610128" lon="16.41428262361844"><ele>746.0</ele><time>2026-04-19T10:49:47Z</time></trkpt><trkpt lat="38.745892890292836" lon="16.414319157490617"><ele>746.0</ele><time>2026-04-19T10:49:48Z</time></trkpt><trkpt lat="38.74579460426654" lon="16.41433954883096"><ele>746.0</ele><time>2026-04-19T10:49:49Z</time></trkpt><trkpt lat="38.74569981649464" lon="16.414372364740952"><ele>746.0</ele><time>2026-04-19T10:49:50Z</time></trkpt><trkpt lat="38.74560937552776" lon="16.41440561057735"><ele>746.0</ele><time>2026-04-19T10:49:51Z</time></trkpt><trkpt lat="38.745524678325914" lon="16.41444373208233"><ele>746.0</ele><time>2026-04-19T10:49:52Z</time></trkpt><trkpt lat="38.74543985468301" lon="16.414446067120032"><ele>746.0</ele><time>2026-04-19T10:49:53Z</time></trkpt><trkpt lat="38.74536866169672" lon="16.414482665150782"><ele>746.0</ele><time>2026-04-19T10:49:54Z</time></trkpt><trkpt lat="38.745291428955355" lon="16.414522937304255"><ele>746.0</ele><time>2026-04-19T10:49:55Z</time></trkpt><trkpt lat="38.74521693403166" lon="16.414568372995337"><ele>746.0</ele><time>2026-04-19T10:49:56Z</time></trkpt><trkpt lat="38.7451389551887" lon="16.4145879010652"><ele>746.0</ele><time>2026-04-19T10:49:57Z</time></trkpt><trkpt lat="38.74506350499415" lon="16.41458115750963"><ele>746.0</ele><time>2026-04-19T10:49:58Z</time></trkpt><trkpt lat="38.744998844728464" lon="16.414555255147953"><ele>744.3333333333333</ele><time>2026-04-19T10:49:59Z</time></trkpt><trkpt lat="38.744939357875914" lon="16.414449509827328"><ele>742.6666666666666</ele><time>2026-04-19T10:50:01Z</time></trkpt><trkpt lat="38.74487274559853" lon="16.41435681532083"><ele>741.0</ele><time>2026-04-19T10:50:03Z</time></trkpt><trkpt lat="38.744823495665436" lon="16.414300490035778"><ele>739.3333333333334</ele><time>2026-04-19T10:50:04Z</time></trkpt><trkpt lat="38.744760857085375" lon="16.41425559269108"><ele>737.6666666666667</ele><time>2026-04-19T10:50:05Z</time></trkpt><trkpt lat="38.74469382921558" lon="16.414232170320048"><ele>736.0</ele><time>2026-04-19T10:50:06Z</time></trkpt><trkpt lat="38.74462451679427" lon="16.414227740651043"><ele>736.0</ele><time>2026-04-19T10:50:07Z</time></trkpt><trkpt lat="38.744582427955095" lon="16.41429975416549"><ele>736.0</ele><time>2026-04-19T10:50:09Z</time></trkpt><trkpt lat="38.744547703581034" lon="16.41439567669505"><ele>736.0</ele><time>2026-04-19T10:50:11Z</time></trkpt><trkpt lat="38.744473011529735" lon="16.41445080999121"><ele>736.0</ele><time>2026-04-19T10:50:13Z</time></trkpt><trkpt lat="38.74441182857261" lon="16.414512192960274"><ele>736.0</ele><time>2026-04-19T10:50:15Z</time></trkpt><trkpt lat="38.74436262867669" lon="16.41459166446627"><ele>736.0</ele><time>2026-04-19T10:50:17Z</time></trkpt><trkpt lat="38.74432533913421" lon="16.414675197090133"><ele>734.1666666666667</ele><time>2026-04-19T10:50:20Z</time></trkpt><trkpt lat="38.74428752058187" lon="16.414763773913688"><ele>732.3333333333334</ele><time>2026-04-19T10:50:22Z</time></trkpt><trkpt lat="38.74425466223676" lon="16.41488181293555"><ele>730.5</ele><time>2026-04-19T10:50:24Z</time></trkpt><trkpt lat="38.744217203679035" lon="16.414947908107994"><ele>728.6666666666666</ele><time>2026-04-19T10:50:25Z</time></trkpt><trkpt lat="38.74416908813348" lon="16.415022447430257"><ele>726.8333333333333</ele><time>2026-04-19T10:50:26Z</time></trkpt><trkpt lat="38.744118259310284" lon="16.41508658993672"><ele>725.0</ele><time>2026-04-19T10:50:27Z</time></trkpt><trkpt lat="38.744011137582845" lon="16.41517716161713"><ele>725.0</ele><time>2026-04-19T10:50:29Z</time></trkpt><trkpt lat="38.74394183644187" lon="16.41520671637989"><ele>725.0</ele><time>2026-04-19T10:50:30Z</time></trkpt><trkpt lat="38.743847135073736" lon="16.4152067539643"><ele>725.0</ele><time>2026-04-19T10:50:31Z</time></trkpt><trkpt lat="38.743763923275296" lon="16.41513942487599"><ele>725.0</ele><time>2026-04-19T10:50:33Z</time></trkpt><trkpt lat="38.74367099762997" lon="16.415018939730814"><ele>725.0</ele><time>2026-04-19T10:50:35Z</time></trkpt><trkpt lat="38.74359354117705" lon="16.41495789801672"><ele>725.8</ele><time>2026-04-19T10:50:36Z</time></trkpt><trkpt lat="38.74351615278891" lon="16.414911789664213"><ele>726.6</ele><time>2026-04-19T10:50:37Z</time></trkpt><trkpt lat="38.743422510508594" lon="16.414878120028906"><ele>727.4000000000001</ele><time>2026-04-19T10:50:38Z</time></trkpt><trkpt lat="38.74333085883961" lon="16.414871044789074"><ele>728.2</ele><time>2026-04-19T10:50:39Z</time></trkpt><trkpt lat="38.74324518179355" lon="16.414872171503063"><ele>729.0</ele><time>2026-04-19T10:50:40Z</time></trkpt><trkpt lat="38.74313336821692" lon="16.414883923018646"><ele>729.0</ele><time>2026-04-19T10:50:42Z</time></trkpt><trkpt lat="38.74305483460175" lon="16.41496231385435"><ele>729.0</ele><time>2026-04-19T10:50:44Z</time></trkpt><trkpt lat="38.74304940455172" lon="16.41512725638731"><ele>729.0</ele><time>2026-04-19T10:50:46Z</time></trkpt><trkpt lat="38.74306326849236" lon="16.415239837828953"><ele>729.0</ele><time>2026-04-19T10:50:47Z</time></trkpt><trkpt lat="38.74306943722544" lon="16.415385883093446"><ele>729.0</ele><time>2026-04-19T10:50:48Z</time></trkpt><trkpt lat="38.743054168798416" lon="16.41553653474885"><ele>726.25</ele><time>2026-04-19T10:50:49Z</time></trkpt><trkpt lat="38.743025394788376" lon="16.415682772013174"><ele>723.5</ele><time>2026-04-19T10:50:50Z</time></trkpt><trkpt lat="38.74299522648831" lon="16.41581661673453"><ele>720.75</ele><time>2026-04-19T10:50:51Z</time></trkpt><trkpt lat="38.742947442026775" lon="16.4159504152547"><ele>718.0</ele><time>2026-04-19T10:50:52Z</time></trkpt><trkpt lat="38.74289276034898" lon="16.416074799697036"><ele>718.0</ele><time>2026-04-19T10:50:53Z</time></trkpt><trkpt lat="38.742838867620975" lon="16.41620169678283"><ele>718.0</ele><time>2026-04-19T10:50:54Z</time></trkpt><trkpt lat="38.742774182930184" lon="16.416313258261997"><ele>718.0</ele><time>2026-04-19T10:50:55Z</time></trkpt><trkpt lat="38.742688892384486" lon="16.416404456218245"><ele>718.0</ele><time>2026-04-19T10:50:56Z</time></trkpt><trkpt lat="38.74261580517986" lon="16.416469350073108"><ele>718.0</ele><time>2026-04-19T10:50:57Z</time></trkpt><trkpt lat="38.7425495257509" lon="16.4165028709244"><ele>718.8333333333334</ele><time>2026-04-19T10:50:58Z</time></trkpt><trkpt lat="38.742462131013255" lon="16.416507011135984"><ele>719.6666666666667</ele><time>2026-04-19T10:50:59Z</time></trkpt><trkpt lat="38.74237620326228" lon="16.416463079313782"><ele>720.5</ele><time>2026-04-19T10:51:00Z</time></trkpt><trkpt lat="38.74229753268119" lon="16.416397790191514"><ele>721.3333333333334</ele><time>2026-04-19T10:51:01Z</time></trkpt><trkpt lat="38.74223058582125" lon="16.41634920604266"><ele>722.1666666666666</ele><time>2026-04-19T10:51:02Z</time></trkpt><trkpt lat="38.742165610828856" lon="16.416343123288303"><ele>723.0</ele><time>2026-04-19T10:51:03Z</time></trkpt><trkpt lat="38.742097100921534" lon="16.416358511260295"><ele>723.0</ele><time>2026-04-19T10:51:04Z</time></trkpt><trkpt lat="38.74205053389486" lon="16.41644338139715"><ele>723.0</ele><time>2026-04-19T10:51:05Z</time></trkpt><trkpt lat="38.74202145159201" lon="16.416559439347388"><ele>723.0</ele><time>2026-04-19T10:51:06Z</time></trkpt><trkpt lat="38.74200839708671" lon="16.4166894114227"><ele>723.0</ele><time>2026-04-19T10:51:07Z</time></trkpt><trkpt lat="38.74198394297718" lon="16.416805404963682"><ele>723.0</ele><time>2026-04-19T10:51:08Z</time></trkpt><trkpt lat="38.741955723133245" lon="16.41690149397778"><ele>723.0</ele><time>2026-04-19T10:51:09Z</time></trkpt><trkpt lat="38.74190461401527" lon="16.416992503560042"><ele>723.0</ele><time>2026-04-19T10:51:10Z</time></trkpt><trkpt lat="38.741845525496814" lon="16.417076076275983"><ele>723.0</ele><time>2026-04-19T10:51:11Z</time></trkpt><trkpt lat="38.74177637885131" lon="16.41714619706764"><ele>723.0</ele><time>2026-04-19T10:51:12Z</time></trkpt><trkpt lat="38.74170610232699" lon="16.41722336004792"><ele>723.0</ele><time>2026-04-19T10:51:13Z</time></trkpt><trkpt lat="38.74163154413015" lon="16.41729691890215"><ele>723.2</ele><time>2026-04-19T10:51:14Z</time></trkpt><trkpt lat="38.741551053286464" lon="16.417367938749294"><ele>723.4</ele><time>2026-04-19T10:51:15Z</time></trkpt><trkpt lat="38.7414820109377" lon="16.417459408506026"><ele>723.6</ele><time>2026-04-19T10:51:16Z</time></trkpt><trkpt lat="38.74141534355817" lon="16.41755632690267"><ele>723.8000000000001</ele><time>2026-04-19T10:51:17Z</time></trkpt><trkpt lat="38.741343085688285" lon="16.417657025206225"><ele>724.0</ele><time>2026-04-19T10:51:18Z</time></trkpt><trkpt lat="38.741272864762514" lon="16.41776225919373"><ele>724.0</ele><time>2026-04-19T10:51:19Z</time></trkpt><trkpt lat="38.74119955734162" lon="16.41785416627236"><ele>724.0</ele><time>2026-04-19T10:51:20Z</time></trkpt><trkpt lat="38.74113465373013" lon="16.417936181622608"><ele>724.0</ele><time>2026-04-19T10:51:21Z</time></trkpt><trkpt lat="38.7410791870487" lon="16.417996161216596"><ele>724.0</ele><time>2026-04-19T10:51:22Z</time></trkpt><trkpt lat="38.74099753194015" lon="16.418105229831635"><ele>724.0</ele><time>2026-04-19T10:51:24Z</time></trkpt><trkpt lat="38.74090721255893" lon="16.41819006134493"><ele>723.8333333333334</ele><time>2026-04-19T10:51:26Z</time></trkpt><trkpt lat="38.74081450798148" lon="16.418221006711132"><ele>723.6666666666667</ele><time>2026-04-19T10:51:28Z</time></trkpt><trkpt lat="38.74073983373433" lon="16.418118554607542"><ele>723.5</ele><time>2026-04-19T10:51:30Z</time></trkpt><trkpt lat="38.74068753769878" lon="16.41805854956314"><ele>723.3333333333334</ele><time>2026-04-19T10:51:32Z</time></trkpt><trkpt lat="38.74061974781847" lon="16.417994203800607"><ele>723.1666666666666</ele><time>2026-04-19T10:51:35Z</time></trkpt><trkpt lat="38.740573699048205" lon="16.41792331981066"><ele>723.0</ele><time>2026-04-19T10:51:38Z</time></trkpt><trkpt lat="38.740612266632496" lon="16.417820390919488"><ele>723.8333333333334</ele><time>2026-04-19T10:51:42.999Z</time></trkpt><trkpt lat="38.740686065257066" lon="16.41776871041985"><ele>724.6666666666666</ele><time>2026-04-19T10:51:44.999Z</time></trkpt><trkpt lat="38.74073892709341" lon="16.417692126713867"><ele>725.5</ele><time>2026-04-19T10:51:46.999Z</time></trkpt><trkpt lat="38.74078945633312" lon="16.417596749022216"><ele>726.3333333333333</ele><time>2026-04-19T10:51:48.999Z</time></trkpt><trkpt lat="38.74083240471924" lon="16.417508380011267"><ele>727.1666666666666</ele><time>2026-04-19T10:51:50.999Z</time></trkpt><trkpt lat="38.74083426531902" lon="16.41741948909082"><ele>728.0</ele><time>2026-04-19T10:51:52.999Z</time></trkpt><trkpt lat="38.740840183576296" lon="16.41731481573945"><ele>728.0</ele><time>2026-04-19T10:51:54.999Z</time></trkpt><trkpt lat="38.74085588467393" lon="16.417215209661897"><ele>728.0</ele><time>2026-04-19T10:51:56.999Z</time></trkpt><trkpt lat="38.74090047368216" lon="16.4171518380225"><ele>728.0</ele><time>2026-04-19T10:51:58.999Z</time></trkpt><trkpt lat="38.74096254051297" lon="16.417073344813225"><ele>728.0</ele><time>2026-04-19T10:52:00.999Z</time></trkpt><trkpt lat="38.74100040192289" lon="16.41698710073292"><ele>728.0</ele><time>2026-04-19T10:52:02.999Z</time></trkpt><trkpt lat="38.74106170059586" lon="16.41692339572331"><ele>728.0</ele><time>2026-04-19T10:52:04.999Z</time></trkpt><trkpt lat="38.74111417333327" lon="16.41680447160712"><ele>729.4</ele><time>2026-04-19T10:52:06.999Z</time></trkpt><trkpt lat="38.741177054882826" lon="16.416693388635302"><ele>730.8</ele><time>2026-04-19T10:52:08.999Z</time></trkpt><trkpt lat="38.74125103678702" lon="16.41657883446415"><ele>732.2</ele><time>2026-04-19T10:52:10.999Z</time></trkpt><trkpt lat="38.74133122875819" lon="16.416485131987116"><ele>733.6</ele><time>2026-04-19T10:52:12.999Z</time></trkpt><trkpt lat="38.741402379863466" lon="16.41638768342764"><ele>735.0</ele><time>2026-04-19T10:52:14.999Z</time></trkpt><trkpt lat="38.74147217922714" lon="16.416266335119634"><ele>737.6</ele><time>2026-04-19T10:52:16.999Z</time></trkpt><trkpt lat="38.74151985622707" lon="16.416207468010004"><ele>740.2</ele><time>2026-04-19T10:52:17.999Z</time></trkpt><trkpt lat="38.74158795457199" lon="16.41611495469411"><ele>742.8</ele><time>2026-04-19T10:52:19.999Z</time></trkpt><trkpt lat="38.74165976132668" lon="16.41601233179658"><ele>745.4</ele><time>2026-04-19T10:52:21.999Z</time></trkpt><trkpt lat="38.741750144493764" lon="16.415939509371793"><ele>748.0</ele><time>2026-04-19T10:52:23.999Z</time></trkpt><trkpt lat="38.74182755377537" lon="16.415885268851266"><ele>748.6666666666667</ele><time>2026-04-19T10:52:25.999Z</time></trkpt><trkpt lat="38.74189266237453" lon="16.41582484198871"><ele>749.3333333333334</ele><time>2026-04-19T10:52:28.999Z</time></trkpt><trkpt lat="38.74193415315958" lon="16.415761413341716"><ele>750.0</ele><time>2026-04-19T10:52:30.999Z</time></trkpt><trkpt lat="38.74198656856243" lon="16.415638056822246"><ele>750.6666666666666</ele><time>2026-04-19T10:52:32.999Z</time></trkpt><trkpt lat="38.74202289349891" lon="16.415571853714198"><ele>751.3333333333333</ele><time>2026-04-19T10:52:33.999Z</time></trkpt><trkpt lat="38.74206795131553" lon="16.415502844741926"><ele>752.0</ele><time>2026-04-19T10:52:34.999Z</time></trkpt><trkpt lat="38.742112157467794" lon="16.415431144305423"><ele>752.0</ele><time>2026-04-19T10:52:35.999Z</time></trkpt><trkpt lat="38.74215583101983" lon="16.41536149509513"><ele>752.0</ele><time>2026-04-19T10:52:36.999Z</time></trkpt><trkpt lat="38.742190797768146" lon="16.415291872917955"><ele>752.0</ele><time>2026-04-19T10:52:37.999Z</time></trkpt><trkpt lat="38.74222990952742" lon="16.41522235137347"><ele>752.0</ele><time>2026-04-19T10:52:38.999Z</time></trkpt><trkpt lat="38.742301518325455" lon="16.41509888057894"><ele>752.0</ele><time>2026-04-19T10:52:40.999Z</time></trkpt><trkpt lat="38.74233916824025" lon="16.41495107449218"><ele>752.0</ele><time>2026-04-19T10:52:42.999Z</time></trkpt><trkpt lat="38.74240643001832" lon="16.414832291829843"><ele>752.0</ele><time>2026-04-19T10:52:44.999Z</time></trkpt><trkpt lat="38.74246406818184" lon="16.414721523698145"><ele>752.0</ele><time>2026-04-19T10:52:46.999Z</time></trkpt><trkpt lat="38.742503230450176" lon="16.414610111616746"><ele>752.0</ele><time>2026-04-19T10:52:48.999Z</time></trkpt><trkpt lat="38.74254214851883" lon="16.41448852738419"><ele>752.0</ele><time>2026-04-19T10:52:50.999Z</time></trkpt><trkpt lat="38.74257701003659" lon="16.41434003359881"><ele>752.0</ele><time>2026-04-19T10:52:52.999Z</time></trkpt><trkpt lat="38.74259668306855" lon="16.41421816041431"><ele>753.0</ele><time>2026-04-19T10:52:54.999Z</time></trkpt><trkpt lat="38.74257538297418" lon="16.41409916220077"><ele>754.0</ele><time>2026-04-19T10:52:56.999Z</time></trkpt><trkpt lat="38.74253951416646" lon="16.41393256811121"><ele>755.0</ele><time>2026-04-19T10:52:58.999Z</time></trkpt><trkpt lat="38.7425317936276" lon="16.413822034233064"><ele>756.0</ele><time>2026-04-19T10:53:00.999Z</time></trkpt><trkpt lat="38.74252936648157" lon="16.4137295270773"><ele>757.0</ele><time>2026-04-19T10:53:02.999Z</time></trkpt><trkpt lat="38.74252041037874" lon="16.413630839285933"><ele>758.0</ele><time>2026-04-19T10:53:05.999Z</time></trkpt><trkpt lat="38.74252752740956" lon="16.41351326424029"><ele>759.0</ele><time>2026-04-19T10:53:08.999Z</time></trkpt><trkpt lat="38.74254529077635" lon="16.4134093885434"><ele>760.0</ele><time>2026-04-19T10:53:11.999Z</time></trkpt><trkpt lat="38.74255440821245" lon="16.413324113532592"><ele>761.0</ele><time>2026-04-19T10:53:13.999Z</time></trkpt><trkpt lat="38.74254621065753" lon="16.413223336426128"><ele>762.0</ele><time>2026-04-19T10:53:15.999Z</time></trkpt><trkpt lat="38.7425167922927" lon="16.413036409617504"><ele>764.25</ele><time>2026-04-19T10:53:17.999Z</time></trkpt><trkpt lat="38.74250740364062" lon="16.41294083104211"><ele>766.5</ele><time>2026-04-19T10:53:20.999Z</time></trkpt><trkpt lat="38.74240882988904" lon="16.412686363761203"><ele>768.75</ele><time>2026-04-19T10:53:22.999Z</time></trkpt><trkpt lat="38.7423887953259" lon="16.41259005289251"><ele>771.0</ele><time>2026-04-19T10:53:26.999Z</time></trkpt><trkpt lat="38.74231021990439" lon="16.41253461083191"><ele>771.0</ele><time>2026-04-19T10:53:28.999Z</time></trkpt><trkpt lat="38.74220898824685" lon="16.41249765055375"><ele>771.0</ele><time>2026-04-19T10:53:30.999Z</time></trkpt><trkpt lat="38.74214413437171" lon="16.412472046114907"><ele>771.0</ele><time>2026-04-19T10:53:33.999Z</time></trkpt><trkpt lat="38.74208135935959" lon="16.412435468128024"><ele>771.0</ele><time>2026-04-19T10:53:35.999Z</time></trkpt><trkpt lat="38.74201656663198" lon="16.412312596858737"><ele>771.0</ele><time>2026-04-19T10:53:37.999Z</time></trkpt><trkpt lat="38.74198157921204" lon="16.412239008852858"><ele>771.0</ele><time>2026-04-19T10:53:38.999Z</time></trkpt><trkpt lat="38.741940940199456" lon="16.412078809170065"><ele>770.8333333333334</ele><time>2026-04-19T10:53:40.999Z</time></trkpt><trkpt lat="38.74191588852487" lon="16.41199870933213"><ele>770.6666666666667</ele><time>2026-04-19T10:53:41.999Z</time></trkpt><trkpt lat="38.74188907295609" lon="16.411923518102224"><ele>770.5</ele><time>2026-04-19T10:53:42.999Z</time></trkpt><trkpt lat="38.74184053877969" lon="16.41177873128322"><ele>770.3333333333334</ele><time>2026-04-19T10:53:44.999Z</time></trkpt><trkpt lat="38.74182252496741" lon="16.411696086220445"><ele>770.1666666666667</ele><time>2026-04-19T10:53:45.999Z</time></trkpt><trkpt lat="38.741816488430175" lon="16.411602763566272"><ele>770.0</ele><time>2026-04-19T10:53:46.999Z</time></trkpt><trkpt lat="38.741804158452794" lon="16.41148962098084"><ele>772.0</ele><time>2026-04-19T10:53:47.999Z</time></trkpt><trkpt lat="38.74181345417568" lon="16.411321384914686"><ele>774.0</ele><time>2026-04-19T10:53:49.999Z</time></trkpt><trkpt lat="38.74183592701318" lon="16.41123813371559"><ele>776.0</ele><time>2026-04-19T10:53:50.999Z</time></trkpt><trkpt lat="38.74186270570332" lon="16.411138249235453"><ele>778.0</ele><time>2026-04-19T10:53:51.999Z</time></trkpt><trkpt lat="38.74188955145674" lon="16.411054032172604"><ele>780.0</ele><time>2026-04-19T10:53:52.999Z</time></trkpt><trkpt lat="38.74192084891493" lon="16.410908902491794"><ele>781.1666666666666</ele><time>2026-04-19T10:53:54.999Z</time></trkpt><trkpt lat="38.74191288341758" lon="16.41081595083384"><ele>782.3333333333333</ele><time>2026-04-19T10:53:55.999Z</time></trkpt><trkpt lat="38.741900531112734" lon="16.410710258408546"><ele>783.5</ele><time>2026-04-19T10:53:56.999Z</time></trkpt><trkpt lat="38.74188908080708" lon="16.410615592010632"><ele>784.6666666666666</ele><time>2026-04-19T10:53:57.999Z</time></trkpt><trkpt lat="38.74189966440345" lon="16.410513443178207"><ele>785.8333333333333</ele><time>2026-04-19T10:53:58.999Z</time></trkpt><trkpt lat="38.74188449609404" lon="16.410398761796674"><ele>787.0</ele><time>2026-04-19T10:54:00.999Z</time></trkpt><trkpt lat="38.741830685410704" lon="16.41035422507812"><ele>786.9999999999999</ele><time>2026-04-19T10:54:02.999Z</time></trkpt><trkpt lat="38.74177579945724" lon="16.410314331566006"><ele>787.0</ele><time>2026-04-19T10:54:04.999Z</time></trkpt><trkpt lat="38.74170501152264" lon="16.410308781751795"><ele>787.0</ele><time>2026-04-19T10:54:06.999Z</time></trkpt><trkpt lat="38.74161796556064" lon="16.410292632792736"><ele>787.0</ele><time>2026-04-19T10:54:09.999Z</time></trkpt><trkpt lat="38.74153681918248" lon="16.410276390591456"><ele>786.9999999999999</ele><time>2026-04-19T10:54:12.999Z</time></trkpt><trkpt lat="38.74145697275572" lon="16.410268028568016"><ele>787.0</ele><time>2026-04-19T10:54:15.999Z</time></trkpt><trkpt lat="38.74138553105784" lon="16.410291545052953"><ele>787.0</ele><time>2026-04-19T10:54:19.999Z</time></trkpt><trkpt lat="38.74140267534581" lon="16.410409164737676"><ele>787.0</ele><time>2026-04-19T11:02:43.999Z</time></trkpt><trkpt lat="38.74126517513553" lon="16.41041531402239"><ele>787.0</ele><time>2026-04-19T11:09:34Z</time></trkpt><trkpt lat="38.74122623256384" lon="16.410530487464865"><ele>787.0</ele><time>2026-04-19T11:43:08Z</time></trkpt><trkpt lat="38.74138282250664" lon="16.410524236045987"><ele>786.9999999999999</ele><time>2026-04-19T11:46:02Z</time></trkpt><trkpt lat="38.74144005616778" lon="16.41039544305907"><ele>787.0</ele><time>2026-04-19T11:48:23Z</time></trkpt><trkpt lat="38.741375951702175" lon="16.41042631097043"><ele>787.0</ele><time>2026-04-19T11:49:00Z</time></trkpt><trkpt lat="38.74129555729867" lon="16.41038529686173"><ele>787.0</ele><time>2026-04-19T11:49:44Z</time></trkpt><trkpt lat="38.741300483476955" lon="16.41047198819473"><ele>786.9999999999999</ele><time>2026-04-19T11:49:49Z</time></trkpt><trkpt lat="38.741282166358765" lon="16.410558478398105"><ele>787.0</ele><time>2026-04-19T11:49:55Z</time></trkpt><trkpt lat="38.74122181518248" lon="16.410599716049926"><ele>787.0</ele><time>2026-04-19T11:50:00Z</time></trkpt><trkpt lat="38.74120679121498" lon="16.410494041125936"><ele>787.0</ele><time>2026-04-19T11:50:04Z</time></trkpt><trkpt lat="38.74119038563112" lon="16.410409319289933"><ele>787.0</ele><time>2026-04-19T11:50:07Z</time></trkpt><trkpt lat="38.741174159794845" lon="16.410319255990263"><ele>787.0</ele><time>2026-04-19T11:50:11Z</time></trkpt><trkpt lat="38.741186664418485" lon="16.410230406077783"><ele>787.0</ele><time>2026-04-19T11:50:15Z</time></trkpt><trkpt lat="38.74116881813094" lon="16.41013498439965"><ele>787.0</ele><time>2026-04-19T11:50:19Z</time></trkpt><trkpt lat="38.74114966228891" lon="16.410054323233123"><ele>787.0</ele><time>2026-04-19T11:50:21Z</time></trkpt><trkpt lat="38.74112250967089" lon="16.409954602274475"><ele>787.0</ele><time>2026-04-19T11:50:23Z</time></trkpt><trkpt lat="38.741102344214475" lon="16.4098268755478"><ele>787.0</ele><time>2026-04-19T11:50:25Z</time></trkpt><trkpt lat="38.74106000634382" lon="16.409678867209017"><ele>787.0</ele><time>2026-04-19T11:50:27Z</time></trkpt><trkpt lat="38.74108066613329" lon="16.40954681114193"><ele>787.0</ele><time>2026-04-19T11:50:29Z</time></trkpt><trkpt lat="38.741098098555334" lon="16.40943859816956"><ele>787.0</ele><time>2026-04-19T11:50:30Z</time></trkpt><trkpt lat="38.74114051059135" lon="16.409321895386253"><ele>788.7142857142857</ele><time>2026-04-19T11:50:32Z</time></trkpt><trkpt lat="38.741182184245055" lon="16.40923818384994"><ele>790.4285714285713</ele><time>2026-04-19T11:50:34Z</time></trkpt><trkpt lat="38.74122477160306" lon="16.409166128723548"><ele>792.1428571428571</ele><time>2026-04-19T11:50:38Z</time></trkpt><trkpt lat="38.74126895441733" lon="16.409106246828202"><ele>793.8571428571429</ele><time>2026-04-19T11:50:48Z</time></trkpt><trkpt lat="38.74124652927782" lon="16.409023600963597"><ele>795.5714285714286</ele><time>2026-04-19T11:50:57Z</time></trkpt><trkpt lat="38.741241128749465" lon="16.40893732734066"><ele>797.2857142857143</ele><time>2026-04-19T11:51:09Z</time></trkpt><trkpt lat="38.741240736495364" lon="16.408854393602322"><ele>799.0</ele><time>2026-04-19T11:51:16.999Z</time></trkpt><trkpt lat="38.741217607087485" lon="16.408773417725033"><ele>800.1666666666666</ele><time>2026-04-19T11:51:21.999Z</time></trkpt><trkpt lat="38.74117522622474" lon="16.40869847998071"><ele>801.3333333333333</ele><time>2026-04-19T11:51:30.999Z</time></trkpt><trkpt lat="38.74114141793965" lon="16.40860240225461"><ele>802.5</ele><time>2026-04-19T11:51:35.999Z</time></trkpt><trkpt lat="38.741124693799804" lon="16.40848081477448"><ele>803.6666666666667</ele><time>2026-04-19T11:51:39.999Z</time></trkpt><trkpt lat="38.741114597578026" lon="16.408379540379187"><ele>804.8333333333334</ele><time>2026-04-19T11:51:41.999Z</time></trkpt><trkpt lat="38.741096999983306" lon="16.408284382631898"><ele>806.0</ele><time>2026-04-19T11:51:45.999Z</time></trkpt><trkpt lat="38.74108372867305" lon="16.408180923339643"><ele>806.0</ele><time>2026-04-19T11:51:49.999Z</time></trkpt><trkpt lat="38.74107903757117" lon="16.40809451919075"><ele>806.0</ele><time>2026-04-19T11:51:51.999Z</time></trkpt><trkpt lat="38.741054677685824" lon="16.40800756782394"><ele>806.0</ele><time>2026-04-19T11:51:55Z</time></trkpt><trkpt lat="38.74102018279127" lon="16.407932952344026"><ele>806.0</ele><time>2026-04-19T11:51:57Z</time></trkpt><trkpt lat="38.740990565082626" lon="16.40782322340012"><ele>806.0</ele><time>2026-04-19T11:52:00Z</time></trkpt><trkpt lat="38.74097229025292" lon="16.407737106513395"><ele>806.0</ele><time>2026-04-19T11:52:03Z</time></trkpt><trkpt lat="38.74094584011073" lon="16.407642429883886"><ele>806.0</ele><time>2026-04-19T11:52:06Z</time></trkpt><trkpt lat="38.7409267410502" lon="16.40755019882397"><ele>805.8333333333334</ele><time>2026-04-19T11:52:09Z</time></trkpt><trkpt lat="38.74091764022647" lon="16.407463218734346"><ele>805.6666666666667</ele><time>2026-04-19T11:52:12Z</time></trkpt><trkpt lat="38.7408951117861" lon="16.407362333162734"><ele>805.5</ele><time>2026-04-19T11:52:16Z</time></trkpt><trkpt lat="38.740871041725185" lon="16.407282931601966"><ele>805.3333333333333</ele><time>2026-04-19T11:52:19Z</time></trkpt><trkpt lat="38.74083872280159" lon="16.407190952933803"><ele>805.1666666666666</ele><time>2026-04-19T11:52:23Z</time></trkpt><trkpt lat="38.74083637042227" lon="16.407092608869718"><ele>805.0</ele><time>2026-04-19T11:52:26Z</time></trkpt><trkpt lat="38.740839778714964" lon="16.40698723507472"><ele>804.9999999999999</ele><time>2026-04-19T11:52:29Z</time></trkpt><trkpt lat="38.74080275976841" lon="16.406899035155188"><ele>805.0</ele><time>2026-04-19T11:52:32Z</time></trkpt><trkpt lat="38.740782474059" lon="16.406804580636784"><ele>805.0</ele><time>2026-04-19T11:52:35Z</time></trkpt><trkpt lat="38.74075423476471" lon="16.40672479993221"><ele>805.0</ele><time>2026-04-19T11:52:39Z</time></trkpt><trkpt lat="38.74074661292611" lon="16.406641715434873"><ele>804.9999999999999</ele><time>2026-04-19T11:52:42Z</time></trkpt><trkpt lat="38.74072020069121" lon="16.406547347551847"><ele>805.0</ele><time>2026-04-19T11:52:44Z</time></trkpt><trkpt lat="38.74067564017404" lon="16.406396153103717"><ele>805.6666666666666</ele><time>2026-04-19T11:52:46Z</time></trkpt><trkpt lat="38.740647361844644" lon="16.40630778375449"><ele>806.3333333333333</ele><time>2026-04-19T11:52:47Z</time></trkpt><trkpt lat="38.74061516938495" lon="16.40621629587986"><ele>807.0</ele><time>2026-04-19T11:52:48Z</time></trkpt><trkpt lat="38.74058468611123" lon="16.40612504135006"><ele>807.6666666666667</ele><time>2026-04-19T11:52:49Z</time></trkpt><trkpt lat="38.7405680835261" lon="16.406023225517483"><ele>808.3333333333334</ele><time>2026-04-19T11:52:50Z</time></trkpt><trkpt lat="38.740545546161194" lon="16.405938114273564"><ele>809.0</ele><time>2026-04-19T11:52:51Z</time></trkpt><trkpt lat="38.74050881772125" lon="16.405799531208924"><ele>809.0</ele><time>2026-04-19T11:52:53Z</time></trkpt><trkpt lat="38.74048105041273" lon="16.405688970457646"><ele>809.0</ele><time>2026-04-19T11:52:55Z</time></trkpt><trkpt lat="38.740464848727704" lon="16.40560898766118"><ele>809.0</ele><time>2026-04-19T11:52:57Z</time></trkpt><trkpt lat="38.74046801196971" lon="16.405480939334446"><ele>809.0</ele><time>2026-04-19T11:52:59Z</time></trkpt><trkpt lat="38.740467871254936" lon="16.405380260496678"><ele>809.0</ele><time>2026-04-19T11:53:00Z</time></trkpt><trkpt lat="38.7405068187713" lon="16.405234516893337"><ele>809.2</ele><time>2026-04-19T11:53:02Z</time></trkpt><trkpt lat="38.740520755601544" lon="16.40511891806892"><ele>809.4000000000001</ele><time>2026-04-19T11:53:04Z</time></trkpt><trkpt lat="38.74055876808489" lon="16.404980728041217"><ele>809.6</ele><time>2026-04-19T11:53:06Z</time></trkpt><trkpt lat="38.74058294313906" lon="16.404897149887333"><ele>809.8</ele><time>2026-04-19T11:53:07Z</time></trkpt><trkpt lat="38.74059225890417" lon="16.404787704483415"><ele>810.0</ele><time>2026-04-19T11:53:08Z</time></trkpt><trkpt lat="38.74062514921958" lon="16.404670018652862"><ele>809.6666666666666</ele><time>2026-04-19T11:53:09Z</time></trkpt><trkpt lat="38.74066144917032" lon="16.4045566028975"><ele>809.3333333333333</ele><time>2026-04-19T11:53:10Z</time></trkpt><trkpt lat="38.74069413068818" lon="16.40445437132794"><ele>809.0</ele><time>2026-04-19T11:53:11Z</time></trkpt><trkpt lat="38.74071827390075" lon="16.40436016520113"><ele>808.6666666666666</ele><time>2026-04-19T11:53:12Z</time></trkpt><trkpt lat="38.74073999279333" lon="16.40427197838069"><ele>808.3333333333333</ele><time>2026-04-19T11:53:13Z</time></trkpt><trkpt lat="38.740776949920054" lon="16.40414040253794"><ele>808.0</ele><time>2026-04-19T11:53:15Z</time></trkpt><trkpt lat="38.74082946759728" lon="16.404041215675985"><ele>807.9999999999999</ele><time>2026-04-19T11:53:17Z</time></trkpt><trkpt lat="38.740899225722906" lon="16.403913974188157"><ele>808.0</ele><time>2026-04-19T11:53:19Z</time></trkpt><trkpt lat="38.74092575906002" lon="16.403834110145727"><ele>808.0</ele><time>2026-04-19T11:53:20Z</time></trkpt><trkpt lat="38.74096083217786" lon="16.403755009721696"><ele>808.0</ele><time>2026-04-19T11:53:21Z</time></trkpt><trkpt lat="38.74099839694846" lon="16.403647975637718"><ele>807.9999999999999</ele><time>2026-04-19T11:53:22Z</time></trkpt><trkpt lat="38.74104290115055" lon="16.403538512709293"><ele>808.0</ele><time>2026-04-19T11:53:23Z</time></trkpt><trkpt lat="38.74107945275419" lon="16.40341700192546"><ele>809.2</ele><time>2026-04-19T11:53:24Z</time></trkpt><trkpt lat="38.74111584872853" lon="16.403304601924592"><ele>810.4</ele><time>2026-04-19T11:53:25Z</time></trkpt><trkpt lat="38.741149211434774" lon="16.40319250620194"><ele>811.6</ele><time>2026-04-19T11:53:26Z</time></trkpt><trkpt lat="38.74118532978271" lon="16.403089108464727"><ele>812.8000000000001</ele><time>2026-04-19T11:53:27Z</time></trkpt><trkpt lat="38.74121751602152" lon="16.402987018796548"><ele>814.0</ele><time>2026-04-19T11:53:28Z</time></trkpt><trkpt lat="38.74124459425597" lon="16.402880516973045"><ele>814.4999999999999</ele><time>2026-04-19T11:53:29Z</time></trkpt><trkpt lat="38.74127835809636" lon="16.402774477265776"><ele>815.0</ele><time>2026-04-19T11:53:30Z</time></trkpt><trkpt lat="38.741308607046776" lon="16.40266015747805"><ele>815.5</ele><time>2026-04-19T11:53:31Z</time></trkpt><trkpt lat="38.741338726668246" lon="16.40254782826324"><ele>816.0</ele><time>2026-04-19T11:53:32Z</time></trkpt><trkpt lat="38.741359379562354" lon="16.40243987208107"><ele>816.4999999999999</ele><time>2026-04-19T11:53:33Z</time></trkpt><trkpt lat="38.74138117455891" lon="16.402350166012695"><ele>817.0</ele><time>2026-04-19T11:53:34Z</time></trkpt><trkpt lat="38.74141770786007" lon="16.402230284572738"><ele>817.0</ele><time>2026-04-19T11:53:36Z</time></trkpt><trkpt lat="38.74147085201131" lon="16.402128122143488"><ele>817.0</ele><time>2026-04-19T11:53:38Z</time></trkpt><trkpt lat="38.741576951585955" lon="16.402017761429608"><ele>817.0</ele><time>2026-04-19T11:53:40Z</time></trkpt><trkpt lat="38.741637069505586" lon="16.401947805975304"><ele>817.0</ele><time>2026-04-19T11:53:41Z</time></trkpt><trkpt lat="38.74169990145927" lon="16.40187596242314"><ele>817.0</ele><time>2026-04-19T11:53:42Z</time></trkpt><trkpt lat="38.741752284663136" lon="16.401809088077"><ele>816.9999999999999</ele><time>2026-04-19T11:53:43Z</time></trkpt><trkpt lat="38.74179527094728" lon="16.40174500464498"><ele>817.0</ele><time>2026-04-19T11:53:44Z</time></trkpt><trkpt lat="38.741839185179366" lon="16.401673140052484"><ele>817.0</ele><time>2026-04-19T11:53:45Z</time></trkpt><trkpt lat="38.741883662951935" lon="16.40160274857994"><ele>817.0</ele><time>2026-04-19T11:53:46Z</time></trkpt><trkpt lat="38.74192848843123" lon="16.401533081678007"><ele>816.9999999999999</ele><time>2026-04-19T11:53:47Z</time></trkpt><trkpt lat="38.74196263915588" lon="16.401390663484552"><ele>817.0</ele><time>2026-04-19T11:53:49Z</time></trkpt><trkpt lat="38.74198112169421" lon="16.40131110130055"><ele>820.1666666666666</ele><time>2026-04-19T11:53:50Z</time></trkpt><trkpt lat="38.741964586951056" lon="16.401228594673462"><ele>823.3333333333333</ele><time>2026-04-19T11:53:51Z</time></trkpt><trkpt lat="38.741949461784216" lon="16.401142353928627"><ele>826.5</ele><time>2026-04-19T11:53:52Z</time></trkpt><trkpt lat="38.74195829842797" lon="16.401044944513405"><ele>829.6666666666667</ele><time>2026-04-19T11:53:53Z</time></trkpt><trkpt lat="38.74199754449307" lon="16.400947699120323"><ele>832.8333333333334</ele><time>2026-04-19T11:53:54Z</time></trkpt><trkpt lat="38.74203681975043" lon="16.4008484603588"><ele>836.0</ele><time>2026-04-19T11:53:55Z</time></trkpt><trkpt lat="38.74206798369825" lon="16.40074150454139"><ele>836.0</ele><time>2026-04-19T11:53:56Z</time></trkpt><trkpt lat="38.7421033106613" lon="16.400626818270442"><ele>836.0</ele><time>2026-04-19T11:53:57Z</time></trkpt><trkpt lat="38.74214439069892" lon="16.400529079290823"><ele>836.0</ele><time>2026-04-19T11:53:58Z</time></trkpt><trkpt lat="38.74217756467139" lon="16.40045702620062"><ele>836.0</ele><time>2026-04-19T11:53:59Z</time></trkpt><trkpt lat="38.74223003832539" lon="16.400334351263208"><ele>836.0</ele><time>2026-04-19T11:54:01Z</time></trkpt><trkpt lat="38.74230433481924" lon="16.400235699895003"><ele>835.1999999999999</ele><time>2026-04-19T11:54:03Z</time></trkpt><trkpt lat="38.74241710331263" lon="16.40018392873909"><ele>834.4</ele><time>2026-04-19T11:54:05Z</time></trkpt><trkpt lat="38.742492148451696" lon="16.400143007396355"><ele>833.6</ele><time>2026-04-19T11:54:06Z</time></trkpt><trkpt lat="38.7425732807728" lon="16.40010455906563"><ele>832.8</ele><time>2026-04-19T11:54:07Z</time></trkpt><trkpt lat="38.742658063999166" lon="16.4000638363161"><ele>832.0</ele><time>2026-04-19T11:54:08Z</time></trkpt><trkpt lat="38.742734281355915" lon="16.40004440990256"><ele>831.8</ele><time>2026-04-19T11:54:09Z</time></trkpt><trkpt lat="38.742842107959234" lon="16.40002928542271"><ele>831.6</ele><time>2026-04-19T11:54:11Z</time></trkpt><trkpt lat="38.74291650828359" lon="16.400027727882065"><ele>831.4</ele><time>2026-04-19T11:54:13Z</time></trkpt><trkpt lat="38.7430014786794" lon="16.399986475161022"><ele>831.1999999999999</ele><time>2026-04-19T11:54:15Z</time></trkpt><trkpt lat="38.74311292915324" lon="16.399967232962286"><ele>831.0</ele><time>2026-04-19T11:54:17Z</time></trkpt><trkpt lat="38.74322644507946" lon="16.399957895318202"><ele>831.0</ele><time>2026-04-19T11:54:19Z</time></trkpt><trkpt lat="38.743347166795154" lon="16.399933426119595"><ele>831.0</ele><time>2026-04-19T11:54:21Z</time></trkpt><trkpt lat="38.743421407861646" lon="16.399946098451018"><ele>831.0</ele><time>2026-04-19T11:54:22Z</time></trkpt><trkpt lat="38.74350255570883" lon="16.399962298235344"><ele>831.0</ele><time>2026-04-19T11:54:23Z</time></trkpt><trkpt lat="38.74357996893729" lon="16.39994743346508"><ele>831.0</ele><time>2026-04-19T11:54:24Z</time></trkpt><trkpt lat="38.743652717246775" lon="16.399951656060125"><ele>831.0</ele><time>2026-04-19T11:54:25Z</time></trkpt><trkpt lat="38.74373176833158" lon="16.399971761396177"><ele>828.8</ele><time>2026-04-19T11:54:26Z</time></trkpt><trkpt lat="38.743814330154656" lon="16.400016426034167"><ele>826.5999999999999</ele><time>2026-04-19T11:54:27Z</time></trkpt><trkpt lat="38.74389863544948" lon="16.400053577842243"><ele>824.4</ele><time>2026-04-19T11:54:28Z</time></trkpt><trkpt lat="38.743991429642726" lon="16.40007166316698"><ele>822.2</ele><time>2026-04-19T11:54:29Z</time></trkpt><trkpt lat="38.74408308094761" lon="16.400102694279123"><ele>820.0</ele><time>2026-04-19T11:54:30Z</time></trkpt><trkpt lat="38.74416549276775" lon="16.400125084021887"><ele>820.0</ele><time>2026-04-19T11:54:31Z</time></trkpt><trkpt lat="38.74423936878962" lon="16.400142018501004"><ele>820.0</ele><time>2026-04-19T11:54:32Z</time></trkpt><trkpt lat="38.74431414477908" lon="16.400154833253467"><ele>820.0</ele><time>2026-04-19T11:54:33Z</time></trkpt><trkpt lat="38.74438482774768" lon="16.400173103586567"><ele>820.0</ele><time>2026-04-19T11:54:34Z</time></trkpt><trkpt lat="38.7444478268239" lon="16.40020039848424"><ele>820.0</ele><time>2026-04-19T11:54:35Z</time></trkpt><trkpt lat="38.74451392688829" lon="16.40021793490758"><ele>820.0</ele><time>2026-04-19T11:54:36Z</time></trkpt><trkpt lat="38.744588083113086" lon="16.400236019107123"><ele>820.0</ele><time>2026-04-19T11:54:37Z</time></trkpt><trkpt lat="38.74466675727504" lon="16.40024679354825"><ele>819.1666666666666</ele><time>2026-04-19T11:54:38Z</time></trkpt><trkpt lat="38.74475021715214" lon="16.400269595939168"><ele>818.3333333333333</ele><time>2026-04-19T11:54:39Z</time></trkpt><trkpt lat="38.744830667232705" lon="16.40029702703948"><ele>817.5</ele><time>2026-04-19T11:54:40Z</time></trkpt><trkpt lat="38.744909976827934" lon="16.400325057561016"><ele>816.6666666666667</ele><time>2026-04-19T11:54:41Z</time></trkpt><trkpt lat="38.74498861421867" lon="16.400345198457583"><ele>815.8333333333334</ele><time>2026-04-19T11:54:42Z</time></trkpt><trkpt lat="38.745068870617764" lon="16.400365009577165"><ele>815.0</ele><time>2026-04-19T11:54:43Z</time></trkpt><trkpt lat="38.74515075737119" lon="16.400388449118537"><ele>816.2</ele><time>2026-04-19T11:54:44Z</time></trkpt><trkpt lat="38.74524161766672" lon="16.400408943371087"><ele>817.4</ele><time>2026-04-19T11:54:45Z</time></trkpt><trkpt lat="38.74533524757535" lon="16.40044217606311"><ele>818.5999999999999</ele><time>2026-04-19T11:54:46Z</time></trkpt><trkpt lat="38.74543432560522" lon="16.400478695183338"><ele>819.8</ele><time>2026-04-19T11:54:47Z</time></trkpt><trkpt lat="38.745530876081936" lon="16.400527455486813"><ele>821.0</ele><time>2026-04-19T11:54:48Z</time></trkpt><trkpt lat="38.74562185843809" lon="16.40056562051277"><ele>822.4</ele><time>2026-04-19T11:54:49Z</time></trkpt><trkpt lat="38.74570426185577" lon="16.400606280334706"><ele>823.8</ele><time>2026-04-19T11:54:50Z</time></trkpt><trkpt lat="38.745788247492634" lon="16.40064437909283"><ele>825.1999999999999</ele><time>2026-04-19T11:54:51Z</time></trkpt><trkpt lat="38.74587354852154" lon="16.40067323308064"><ele>826.5999999999999</ele><time>2026-04-19T11:54:52Z</time></trkpt><trkpt lat="38.74596102627381" lon="16.400711089629233"><ele>828.0</ele><time>2026-04-19T11:54:53Z</time></trkpt><trkpt lat="38.74604532926876" lon="16.40076338176796"><ele>830.0</ele><time>2026-04-19T11:54:54Z</time></trkpt><trkpt lat="38.74612931077572" lon="16.400806882539378"><ele>832.0</ele><time>2026-04-19T11:54:55Z</time></trkpt><trkpt lat="38.74621458450941" lon="16.400826648779105"><ele>834.0</ele><time>2026-04-19T11:54:56Z</time></trkpt><trkpt lat="38.74629827273709" lon="16.40084499660374"><ele>836.0</ele><time>2026-04-19T11:54:57Z</time></trkpt><trkpt lat="38.746380310705234" lon="16.40086626714444"><ele>838.0</ele><time>2026-04-19T11:54:58Z</time></trkpt><trkpt lat="38.74645913129617" lon="16.400900638382005"><ele>840.0</ele><time>2026-04-19T11:54:59Z</time></trkpt><trkpt lat="38.7465418480995" lon="16.40093508201096"><ele>840.0</ele><time>2026-04-19T11:55:00Z</time></trkpt><trkpt lat="38.746626619509186" lon="16.400968455703946"><ele>840.0</ele><time>2026-04-19T11:55:01Z</time></trkpt><trkpt lat="38.74671080822796" lon="16.401005591130353"><ele>840.0</ele><time>2026-04-19T11:55:02Z</time></trkpt><trkpt lat="38.7467857304593" lon="16.40106334399372"><ele>840.0</ele><time>2026-04-19T11:55:03Z</time></trkpt><trkpt lat="38.74686526222362" lon="16.401101947968595"><ele>840.0</ele><time>2026-04-19T11:55:04Z</time></trkpt><trkpt lat="38.74693566702672" lon="16.401159103823396"><ele>840.0</ele><time>2026-04-19T11:55:05Z</time></trkpt><trkpt lat="38.74700548450454" lon="16.401213193292875"><ele>841.8333333333334</ele><time>2026-04-19T11:55:06Z</time></trkpt><trkpt lat="38.74707174963469" lon="16.401270809348286"><ele>843.6666666666667</ele><time>2026-04-19T11:55:07Z</time></trkpt><trkpt lat="38.74713567350408" lon="16.401323943732177"><ele>845.5</ele><time>2026-04-19T11:55:08Z</time></trkpt><trkpt lat="38.747200406469595" lon="16.401366281935548"><ele>847.3333333333334</ele><time>2026-04-19T11:55:09Z</time></trkpt><trkpt lat="38.74725975871457" lon="16.401418270999905"><ele>849.1666666666667</ele><time>2026-04-19T11:55:10Z</time></trkpt><trkpt lat="38.74732185968274" lon="16.401457232741166"><ele>851.0</ele><time>2026-04-19T11:55:11Z</time></trkpt><trkpt lat="38.74742505925308" lon="16.401520210425833"><ele>851.3333333333334</ele><time>2026-04-19T11:55:13Z</time></trkpt><trkpt lat="38.74750063226733" lon="16.401570956937693"><ele>851.6666666666667</ele><time>2026-04-19T11:55:15Z</time></trkpt><trkpt lat="38.74755000804528" lon="16.401659101955122"><ele>852.0</ele><time>2026-04-19T11:55:17Z</time></trkpt><trkpt lat="38.747562816617105" lon="16.401740152366624"><ele>852.3333333333333</ele><time>2026-04-19T11:55:18Z</time></trkpt><trkpt lat="38.74756915528509" lon="16.401850101910426"><ele>852.6666666666666</ele><time>2026-04-19T11:55:19Z</time></trkpt><trkpt lat="38.747571341499764" lon="16.4019739589072"><ele>853.0</ele><time>2026-04-19T11:55:20Z</time></trkpt><trkpt lat="38.74757570959579" lon="16.402091547509052"><ele>853.9999999999999</ele><time>2026-04-19T11:55:21Z</time></trkpt><trkpt lat="38.74757719573207" lon="16.4021948697051"><ele>855.0</ele><time>2026-04-19T11:55:22Z</time></trkpt><trkpt lat="38.74757419427054" lon="16.402280775938845"><ele>856.0</ele><time>2026-04-19T11:55:23Z</time></trkpt><trkpt lat="38.74756867509259" lon="16.402402053728895"><ele>857.0</ele><time>2026-04-19T11:55:25Z</time></trkpt><trkpt lat="38.74759600448739" lon="16.402480948573345"><ele>857.9999999999999</ele><time>2026-04-19T11:55:28Z</time></trkpt><trkpt lat="38.74770079242153" lon="16.40240573781512"><ele>859.0</ele><time>2026-04-19T11:55:30Z</time></trkpt><trkpt lat="38.74778222526902" lon="16.402324370309454"><ele>860.5</ele><time>2026-04-19T11:55:31Z</time></trkpt><trkpt lat="38.74784740250055" lon="16.402189203126653"><ele>862.0</ele><time>2026-04-19T11:55:32Z</time></trkpt><trkpt lat="38.74792998389035" lon="16.402034253976073"><ele>863.5</ele><time>2026-04-19T11:55:33Z</time></trkpt><trkpt lat="38.748030883628545" lon="16.4018795142508"><ele>865.0</ele><time>2026-04-19T11:55:34Z</time></trkpt><trkpt lat="38.74811664200924" lon="16.401696396196353"><ele>865.3333333333333</ele><time>2026-04-19T11:55:35Z</time></trkpt><trkpt lat="38.748227616913596" lon="16.40151950718463"><ele>865.6666666666667</ele><time>2026-04-19T11:55:36Z</time></trkpt><trkpt lat="38.7483466268707" lon="16.4013481121677"><ele>866.0</ele><time>2026-04-19T11:55:37Z</time></trkpt><trkpt lat="38.7484643686838" lon="16.401176844167924"><ele>868.0</ele><time>2026-04-19T11:55:38Z</time></trkpt><trkpt lat="38.74857747214165" lon="16.40097619332899"><ele>870.0</ele><time>2026-04-19T11:55:39Z</time></trkpt><trkpt lat="38.74868072096891" lon="16.400785533964658"><ele>872.0</ele><time>2026-04-19T11:55:40Z</time></trkpt><trkpt lat="38.748791030143735" lon="16.40061015838053"><ele>871.75</ele><time>2026-04-19T11:55:41Z</time></trkpt><trkpt lat="38.748890150565565" lon="16.400431605957106"><ele>871.5</ele><time>2026-04-19T11:55:42Z</time></trkpt><trkpt lat="38.748974500377585" lon="16.400283206989137"><ele>871.25</ele><time>2026-04-19T11:55:43Z</time></trkpt><trkpt lat="38.74902652332699" lon="16.40012865391866"><ele>871.0</ele><time>2026-04-19T11:55:44Z</time></trkpt><trkpt lat="38.749094378053464" lon="16.400008031381276"><ele>871.0</ele><time>2026-04-19T11:55:45Z</time></trkpt><trkpt lat="38.749123716399765" lon="16.399868114280576"><ele>870.9999999999999</ele><time>2026-04-19T11:55:46Z</time></trkpt><trkpt lat="38.74916686747549" lon="16.399757434910132"><ele>870.9999999999999</ele><time>2026-04-19T11:55:47Z</time></trkpt><trkpt lat="38.74923045380994" lon="16.39964282939609"><ele>871.0</ele><time>2026-04-19T11:55:48Z</time></trkpt><trkpt lat="38.74931411709105" lon="16.399518149260253"><ele>871.0</ele><time>2026-04-19T11:55:49Z</time></trkpt><trkpt lat="38.74939481447038" lon="16.399379029371868"><ele>871.75</ele><time>2026-04-19T11:55:50Z</time></trkpt><trkpt lat="38.7494757906024" lon="16.399227424343376"><ele>872.5</ele><time>2026-04-19T11:55:51Z</time></trkpt><trkpt lat="38.74953517558668" lon="16.39909531283394"><ele>873.25</ele><time>2026-04-19T11:55:52Z</time></trkpt><trkpt lat="38.749587816580345" lon="16.39894197663853"><ele>874.0</ele><time>2026-04-19T11:55:53Z</time></trkpt><trkpt lat="38.74962598091128" lon="16.39878062806957"><ele>875.25</ele><time>2026-04-19T11:55:54Z</time></trkpt><trkpt lat="38.74967236470277" lon="16.39861832678436"><ele>876.5</ele><time>2026-04-19T11:55:55Z</time></trkpt><trkpt lat="38.749728081603955" lon="16.398469700222883"><ele>877.75</ele><time>2026-04-19T11:55:56Z</time></trkpt><trkpt lat="38.74975929432494" lon="16.398316786989543"><ele>879.0</ele><time>2026-04-19T11:55:57Z</time></trkpt><trkpt lat="38.749817321735314" lon="16.398211228768563"><ele>879.0</ele><time>2026-04-19T11:55:58Z</time></trkpt><trkpt lat="38.74986235990102" lon="16.398099257236154"><ele>879.0</ele><time>2026-04-19T11:55:59Z</time></trkpt><trkpt lat="38.74991198036877" lon="16.39800890691728"><ele>879.0</ele><time>2026-04-19T11:56:00Z</time></trkpt><trkpt lat="38.749949535736064" lon="16.397923603567218"><ele>879.0</ele><time>2026-04-19T11:56:01Z</time></trkpt><trkpt lat="38.74999497515488" lon="16.397820392397385"><ele>879.0</ele><time>2026-04-19T11:56:02Z</time></trkpt><trkpt lat="38.750036248984436" lon="16.39772152127006"><ele>879.0</ele><time>2026-04-19T11:56:03Z</time></trkpt><trkpt lat="38.7500776734496" lon="16.39761801707232"><ele>880.8000000000001</ele><time>2026-04-19T11:56:04Z</time></trkpt><trkpt lat="38.750123011905735" lon="16.397537292902765"><ele>882.6000000000001</ele><time>2026-04-19T11:56:05Z</time></trkpt><trkpt lat="38.75016999734096" lon="16.397467476940847"><ele>884.4</ele><time>2026-04-19T11:56:06Z</time></trkpt><trkpt lat="38.75025104371379" lon="16.39741290379421"><ele>886.2</ele><time>2026-04-19T11:56:08Z</time></trkpt><trkpt lat="38.75035974601921" lon="16.397382417001474"><ele>888.0</ele><time>2026-04-19T11:56:10Z</time></trkpt><trkpt lat="38.750428239753795" lon="16.397283890843827"><ele>889.5</ele><time>2026-04-19T11:56:12Z</time></trkpt><trkpt lat="38.75045886092506" lon="16.39715647781721"><ele>891.0</ele><time>2026-04-19T11:56:14Z</time></trkpt><trkpt lat="38.75048948058937" lon="16.396950379392894"><ele>892.5</ele><time>2026-04-19T11:56:16Z</time></trkpt><trkpt lat="38.75052252044942" lon="16.39682683974695"><ele>894.0</ele><time>2026-04-19T11:56:17Z</time></trkpt><trkpt lat="38.75055792900605" lon="16.396700514269632"><ele>894.0</ele><time>2026-04-19T11:56:18Z</time></trkpt><trkpt lat="38.75059435023814" lon="16.396576544184036"><ele>894.0000000000001</ele><time>2026-04-19T11:56:19Z</time></trkpt><trkpt lat="38.75062610518409" lon="16.396471650863663"><ele>894.0000000000001</ele><time>2026-04-19T11:56:20Z</time></trkpt><trkpt lat="38.750662834374296" lon="16.396353579179873"><ele>894.0</ele><time>2026-04-19T11:56:21Z</time></trkpt><trkpt lat="38.75070923933705" lon="16.396216189868618"><ele>894.0</ele><time>2026-04-19T11:56:22Z</time></trkpt><trkpt lat="38.750768573567115" lon="16.396090604728368"><ele>896.2</ele><time>2026-04-19T11:56:23Z</time></trkpt><trkpt lat="38.75081928774446" lon="16.39599688716322"><ele>898.4000000000001</ele><time>2026-04-19T11:56:24Z</time></trkpt><trkpt lat="38.750856369158015" lon="16.395912688158692"><ele>900.6</ele><time>2026-04-19T11:56:25Z</time></trkpt><trkpt lat="38.75088223841003" lon="16.39583615051637"><ele>902.8</ele><time>2026-04-19T11:56:26Z</time></trkpt><trkpt lat="38.7509109408312" lon="16.395744062252888"><ele>905.0</ele><time>2026-04-19T11:56:27Z</time></trkpt><trkpt lat="38.75095034542708" lon="16.395553982382157"><ele>905.6</ele><time>2026-04-19T11:56:29Z</time></trkpt><trkpt lat="38.75097151157321" lon="16.395430956450816"><ele>906.2</ele><time>2026-04-19T11:56:30Z</time></trkpt><trkpt lat="38.75098920943076" lon="16.395313101957413"><ele>906.8</ele><time>2026-04-19T11:56:31Z</time></trkpt><trkpt lat="38.75100379549009" lon="16.39519630266685"><ele>907.4</ele><time>2026-04-19T11:56:32Z</time></trkpt><trkpt lat="38.751019415787866" lon="16.395071221619457"><ele>908.0</ele><time>2026-04-19T11:56:33Z</time></trkpt><trkpt lat="38.751036451971224" lon="16.394934802744853"><ele>906.0000000000001</ele><time>2026-04-19T11:56:34Z</time></trkpt><trkpt lat="38.751053569389015" lon="16.394804373318262"><ele>904.0</ele><time>2026-04-19T11:56:35Z</time></trkpt><trkpt lat="38.75106737192885" lon="16.394699657547754"><ele>902.0</ele><time>2026-04-19T11:56:36Z</time></trkpt><trkpt lat="38.75108016371412" lon="16.394602610059486"><ele>900.0</ele><time>2026-04-19T11:56:37Z</time></trkpt><trkpt lat="38.751095293123" lon="16.394489393694528"><ele>898.0000000000001</ele><time>2026-04-19T11:56:38Z</time></trkpt><trkpt lat="38.75110596639995" lon="16.394390519949244"><ele>896.0</ele><time>2026-04-19T11:56:39Z</time></trkpt><trkpt lat="38.751117889145" lon="16.394269779450894"><ele>895.5</ele><time>2026-04-19T11:56:40Z</time></trkpt><trkpt lat="38.75113715167947" lon="16.394104188988766"><ele>895.0</ele><time>2026-04-19T11:56:41Z</time></trkpt><trkpt lat="38.75117152623836" lon="16.393941619977426"><ele>894.5</ele><time>2026-04-19T11:56:42Z</time></trkpt><trkpt lat="38.751210100841455" lon="16.393807033728756"><ele>894.0</ele><time>2026-04-19T11:56:43Z</time></trkpt><trkpt lat="38.7512572065247" lon="16.393667977132164"><ele>893.8000000000001</ele><time>2026-04-19T11:56:44Z</time></trkpt><trkpt lat="38.75129813878119" lon="16.393553094723693"><ele>893.6000000000001</ele><time>2026-04-19T11:56:45Z</time></trkpt><trkpt lat="38.75134058473153" lon="16.393436807348344"><ele>893.4</ele><time>2026-04-19T11:56:46Z</time></trkpt><trkpt lat="38.75136706369169" lon="16.39328918963309"><ele>893.2</ele><time>2026-04-19T11:56:47Z</time></trkpt><trkpt lat="38.75139665970805" lon="16.393200915668963"><ele>893.0</ele><time>2026-04-19T11:56:48Z</time></trkpt><trkpt lat="38.75145494316267" lon="16.393101457814648"><ele>893.0</ele><time>2026-04-19T11:56:49Z</time></trkpt><trkpt lat="38.751513616464834" lon="16.39297407971975"><ele>893.0</ele><time>2026-04-19T11:56:50Z</time></trkpt><trkpt lat="38.75157934269665" lon="16.3928649007388"><ele>893.0</ele><time>2026-04-19T11:56:51Z</time></trkpt><trkpt lat="38.75165182065699" lon="16.392753608228446"><ele>893.0</ele><time>2026-04-19T11:56:52Z</time></trkpt><trkpt lat="38.751699259616835" lon="16.3926522156568"><ele>893.0</ele><time>2026-04-19T11:56:53Z</time></trkpt><trkpt lat="38.75174489670661" lon="16.392547318737403"><ele>893.0</ele><time>2026-04-19T11:56:54Z</time></trkpt><trkpt lat="38.75178962338921" lon="16.39243479886978"><ele>893.0</ele><time>2026-04-19T11:56:55Z</time></trkpt><trkpt lat="38.75183994864636" lon="16.39232041930379"><ele>893.0</ele><time>2026-04-19T11:56:56Z</time></trkpt><trkpt lat="38.751878995871465" lon="16.392234608136786"><ele>893.0</ele><time>2026-04-19T11:56:57Z</time></trkpt><trkpt lat="38.7519148840399" lon="16.392152049260975"><ele>893.0</ele><time>2026-04-19T11:56:58Z</time></trkpt><trkpt lat="38.75198389460437" lon="16.39201844752796"><ele>890.8</ele><time>2026-04-19T11:57:00Z</time></trkpt><trkpt lat="38.75203938886834" lon="16.391904575192882"><ele>888.5999999999999</ele><time>2026-04-19T11:57:02Z</time></trkpt><trkpt lat="38.752091808144364" lon="16.391764388436737"><ele>886.4000000000001</ele><time>2026-04-19T11:57:04Z</time></trkpt><trkpt lat="38.752118165711266" lon="16.39167638403265"><ele>884.2</ele><time>2026-04-19T11:57:05Z</time></trkpt><trkpt lat="38.75215293858717" lon="16.391602940454398"><ele>882.0</ele><time>2026-04-19T11:57:06Z</time></trkpt><trkpt lat="38.75218566551055" lon="16.391485947137692"><ele>882.0</ele><time>2026-04-19T11:57:08Z</time></trkpt><trkpt lat="38.75221121244404" lon="16.391367206454678"><ele>882.0</ele><time>2026-04-19T11:57:10Z</time></trkpt><trkpt lat="38.75223074154785" lon="16.39127643630623"><ele>882.0</ele><time>2026-04-19T11:57:12Z</time></trkpt><trkpt lat="38.75236448744647" lon="16.391245603877888"><ele>882.0</ele><time>2026-04-19T11:57:18Z</time></trkpt><trkpt lat="38.752333813512216" lon="16.391165274201498"><ele>882.0</ele><time>2026-04-19T11:57:19Z</time></trkpt><trkpt lat="38.752296364342584" lon="16.391077438331628"><ele>882.0</ele><time>2026-04-19T11:57:20Z</time></trkpt><trkpt lat="38.75231682737082" lon="16.39096361899897"><ele>882.0</ele><time>2026-04-19T11:57:21Z</time></trkpt><trkpt lat="38.752297384803185" lon="16.390882824794197"><ele>882.0</ele><time>2026-04-19T11:57:22Z</time></trkpt><trkpt lat="38.75226478685811" lon="16.390747364550688"><ele>882.0</ele><time>2026-04-19T11:57:24Z</time></trkpt><trkpt lat="38.75223025794826" lon="16.39060388852972"><ele>882.0</ele><time>2026-04-19T11:57:26Z</time></trkpt><trkpt lat="38.75218152749567" lon="16.390497705885156"><ele>882.0</ele><time>2026-04-19T11:57:28Z</time></trkpt><trkpt lat="38.752138918102034" lon="16.39039330368197"><ele>882.0</ele><time>2026-04-19T11:57:34Z</time></trkpt><trkpt lat="38.75210518217602" lon="16.390314510590795"><ele>882.0</ele><time>2026-04-19T11:57:36Z</time></trkpt><trkpt lat="38.752056494444446" lon="16.390208373295046"><ele>882.0</ele><time>2026-04-19T11:57:38Z</time></trkpt><trkpt lat="38.752021014273936" lon="16.39013556126196"><ele>882.0</ele><time>2026-04-19T11:57:39Z</time></trkpt><trkpt lat="38.75198306117551" lon="16.39005938770379"><ele>882.0</ele><time>2026-04-19T11:57:40Z</time></trkpt><trkpt lat="38.751926410780925" lon="16.389984438774302"><ele>882.0</ele><time>2026-04-19T11:57:41Z</time></trkpt><trkpt lat="38.75188374894629" lon="16.389896519673613"><ele>882.0</ele><time>2026-04-19T11:57:42Z</time></trkpt><trkpt lat="38.751836610524606" lon="16.389790518686027"><ele>882.0</ele><time>2026-04-19T11:57:43Z</time></trkpt><trkpt lat="38.751795617078066" lon="16.389676205977214"><ele>882.0</ele><time>2026-04-19T11:57:44Z</time></trkpt><trkpt lat="38.75174410090251" lon="16.389570451738443"><ele>882.0</ele><time>2026-04-19T11:57:45Z</time></trkpt><trkpt lat="38.751675649803694" lon="16.389475600837258"><ele>880.0</ele><time>2026-04-19T11:57:46Z</time></trkpt><trkpt lat="38.75162004067286" lon="16.389350369887058"><ele>878.0</ele><time>2026-04-19T11:57:47Z</time></trkpt><trkpt lat="38.75154874583178" lon="16.389224916618605"><ele>876.0</ele><time>2026-04-19T11:57:48Z</time></trkpt><trkpt lat="38.75147507417547" lon="16.389109672123833"><ele>874.0</ele><time>2026-04-19T11:57:49Z</time></trkpt><trkpt lat="38.75140539740455" lon="16.3890284866205"><ele>872.0</ele><time>2026-04-19T11:57:50Z</time></trkpt><trkpt lat="38.751358289978405" lon="16.38894878163882"><ele>872.0000000000001</ele><time>2026-04-19T11:57:51Z</time></trkpt><trkpt lat="38.75131221234217" lon="16.38887242957208"><ele>872.0</ele><time>2026-04-19T11:57:52Z</time></trkpt><trkpt lat="38.751259208379786" lon="16.388795484041978"><ele>872.0</ele><time>2026-04-19T11:57:53Z</time></trkpt><trkpt lat="38.75119742433765" lon="16.38872129371171"><ele>872.0</ele><time>2026-04-19T11:57:54Z</time></trkpt><trkpt lat="38.75113718374665" lon="16.38865688395658"><ele>872.0000000000001</ele><time>2026-04-19T11:57:55Z</time></trkpt><trkpt lat="38.75107519192472" lon="16.388589928633742"><ele>872.0</ele><time>2026-04-19T11:57:56Z</time></trkpt><trkpt lat="38.75100541235788" lon="16.388527146438104"><ele>872.2857142857143</ele><time>2026-04-19T11:57:57Z</time></trkpt><trkpt lat="38.750934258916764" lon="16.38847156599654"><ele>872.5714285714287</ele><time>2026-04-19T11:57:58Z</time></trkpt><trkpt lat="38.75086816230416" lon="16.388414709236777"><ele>872.8571428571429</ele><time>2026-04-19T11:57:59Z</time></trkpt><trkpt lat="38.750813241431786" lon="16.388354216796333"><ele>873.1428571428571</ele><time>2026-04-19T11:58:00Z</time></trkpt><trkpt lat="38.75076674151859" lon="16.388284257656675"><ele>873.4285714285714</ele><time>2026-04-19T11:58:01Z</time></trkpt><trkpt lat="38.750722069604834" lon="16.38821552546566"><ele>873.7142857142857</ele><time>2026-04-19T11:58:02Z</time></trkpt><trkpt lat="38.75073351883996" lon="16.388130132429403"><ele>874.0</ele><time>2026-04-19T11:58:03Z</time></trkpt><trkpt lat="38.75073793451537" lon="16.388001914625956"><ele>870.5</ele><time>2026-04-19T11:58:05Z</time></trkpt><trkpt lat="38.750729755915344" lon="16.387891433178225"><ele>867.0</ele><time>2026-04-19T11:58:07Z</time></trkpt><trkpt lat="38.75032942426143" lon="16.387776420587432"><ele>867.0</ele><time>2026-04-19T11:58:09Z</time></trkpt><trkpt lat="38.750266838622935" lon="16.387705320008052"><ele>867.0</ele><time>2026-04-19T11:58:10Z</time></trkpt><trkpt lat="38.750213685951124" lon="16.38763800052227"><ele>867.0</ele><time>2026-04-19T11:58:11Z</time></trkpt><trkpt lat="38.75016009499193" lon="16.38756877176412"><ele>867.0</ele><time>2026-04-19T11:58:12Z</time></trkpt><trkpt lat="38.750106018094314" lon="16.387489525304506"><ele>867.0</ele><time>2026-04-19T11:58:13Z</time></trkpt><trkpt lat="38.75004130438483" lon="16.387422540144254"><ele>867.0</ele><time>2026-04-19T11:58:14Z</time></trkpt><trkpt lat="38.74998492375877" lon="16.387355432732875"><ele>868.4000000000001</ele><time>2026-04-19T11:58:15Z</time></trkpt><trkpt lat="38.74992964692062" lon="16.387299273271022"><ele>869.8000000000001</ele><time>2026-04-19T11:58:16Z</time></trkpt><trkpt lat="38.74984484148896" lon="16.38719622061029"><ele>871.2</ele><time>2026-04-19T11:58:18Z</time></trkpt><trkpt lat="38.749757839833215" lon="16.387091812614024"><ele>872.6</ele><time>2026-04-19T11:58:20Z</time></trkpt><trkpt lat="38.74966435955772" lon="16.38699352552779"><ele>874.0</ele><time>2026-04-19T11:58:22Z</time></trkpt><trkpt lat="38.749605021858244" lon="16.386944055477205"><ele>873.9999999999999</ele><time>2026-04-19T11:58:23Z</time></trkpt><trkpt lat="38.749542604983496" lon="16.386889723067576"><ele>874.0</ele><time>2026-04-19T11:58:24Z</time></trkpt><trkpt lat="38.74947876659319" lon="16.386816413339826"><ele>874.0</ele><time>2026-04-19T11:58:25Z</time></trkpt><trkpt lat="38.74940707843593" lon="16.386739322186965"><ele>874.0</ele><time>2026-04-19T11:58:26Z</time></trkpt><trkpt lat="38.74933555639719" lon="16.38666685608583"><ele>873.9999999999999</ele><time>2026-04-19T11:58:27Z</time></trkpt><trkpt lat="38.749286190299856" lon="16.386584839780866"><ele>874.0</ele><time>2026-04-19T11:58:28Z</time></trkpt><trkpt lat="38.749235294726326" lon="16.38651733947699"><ele>875.4000000000001</ele><time>2026-04-19T11:58:29Z</time></trkpt><trkpt lat="38.749186203606556" lon="16.386456200638783"><ele>876.8000000000001</ele><time>2026-04-19T11:58:30Z</time></trkpt><trkpt lat="38.7491124294086" lon="16.386342397337145"><ele>878.1999999999999</ele><time>2026-04-19T11:58:32Z</time></trkpt><trkpt lat="38.74906262748712" lon="16.386226235570042"><ele>879.5999999999999</ele><time>2026-04-19T11:58:34Z</time></trkpt><trkpt lat="38.74898782437951" lon="16.386102349854585"><ele>881.0</ele><time>2026-04-19T11:58:36Z</time></trkpt><trkpt lat="38.748945295147585" lon="16.386034760064305"><ele>881.0000000000001</ele><time>2026-04-19T11:58:37Z</time></trkpt><trkpt lat="38.74890787445611" lon="16.385964901041582"><ele>881.0</ele><time>2026-04-19T11:58:38Z</time></trkpt><trkpt lat="38.74885730484306" lon="16.38590003472151"><ele>881.0</ele><time>2026-04-19T11:58:39Z</time></trkpt><trkpt lat="38.74880838754763" lon="16.38582715867275"><ele>881.0</ele><time>2026-04-19T11:58:40Z</time></trkpt><trkpt lat="38.748758719549585" lon="16.385755332261912"><ele>881.0000000000001</ele><time>2026-04-19T11:58:41Z</time></trkpt><trkpt lat="38.748710206092845" lon="16.385681405082014"><ele>881.0</ele><time>2026-04-19T11:58:42Z</time></trkpt><trkpt lat="38.74863588607685" lon="16.38558784419237"><ele>881.0</ele><time>2026-04-19T11:58:44Z</time></trkpt><trkpt lat="38.748552205034166" lon="16.385519750023818"><ele>880.9999999999999</ele><time>2026-04-19T11:58:46Z</time></trkpt><trkpt lat="38.74846953038952" lon="16.385420835883348"><ele>880.9999999999999</ele><time>2026-04-19T11:58:48Z</time></trkpt><trkpt lat="38.7484122330942" lon="16.38533551765321"><ele>881.0</ele><time>2026-04-19T11:58:50Z</time></trkpt><trkpt lat="38.74834248425637" lon="16.38524765845868"><ele>881.0</ele><time>2026-04-19T11:58:52Z</time></trkpt><trkpt lat="38.748277482249506" lon="16.385129404778024"><ele>881.8333333333334</ele><time>2026-04-19T11:58:54Z</time></trkpt><trkpt lat="38.74824600489582" lon="16.385055133443583"><ele>882.6666666666667</ele><time>2026-04-19T11:58:55Z</time></trkpt><trkpt lat="38.74819833972956" lon="16.384990795919055"><ele>883.5</ele><time>2026-04-19T11:58:56Z</time></trkpt><trkpt lat="38.74814119217327" lon="16.384923976417273"><ele>884.3333333333333</ele><time>2026-04-19T11:58:57Z</time></trkpt><trkpt lat="38.748093710204685" lon="16.384837478390548"><ele>885.1666666666666</ele><time>2026-04-19T11:58:58Z</time></trkpt><trkpt lat="38.7480399962668" lon="16.38475635473333"><ele>886.0</ele><time>2026-04-19T11:58:59.001Z</time></trkpt><trkpt lat="38.7479800157154" lon="16.38466764717819"><ele>885.9999999999999</ele><time>2026-04-19T11:59:00.001Z</time></trkpt><trkpt lat="38.74791981269341" lon="16.384583215719054"><ele>886.0</ele><time>2026-04-19T11:59:01.001Z</time></trkpt><trkpt lat="38.74786192752361" lon="16.384508645171778"><ele>886.0</ele><time>2026-04-19T11:59:02.001Z</time></trkpt><trkpt lat="38.74780396536258" lon="16.384433521229635"><ele>886.0</ele><time>2026-04-19T11:59:03.001Z</time></trkpt><trkpt lat="38.7477470777725" lon="16.38435969339647"><ele>885.9999999999999</ele><time>2026-04-19T11:59:04.001Z</time></trkpt><trkpt lat="38.74768230585719" lon="16.384290976303962"><ele>886.0</ele><time>2026-04-19T11:59:05.001Z</time></trkpt><trkpt lat="38.747625091367624" lon="16.384209042356797"><ele>886.1999999999999</ele><time>2026-04-19T11:59:06.001Z</time></trkpt><trkpt lat="38.74756537435417" lon="16.384122372098616"><ele>886.3999999999999</ele><time>2026-04-19T11:59:07.001Z</time></trkpt><trkpt lat="38.747500054376225" lon="16.384032430974973"><ele>886.6</ele><time>2026-04-19T11:59:08.001Z</time></trkpt><trkpt lat="38.74742940114704" lon="16.383957336257676"><ele>886.8</ele><time>2026-04-19T11:59:09.001Z</time></trkpt><trkpt lat="38.74735638033187" lon="16.383898355428485"><ele>887.0</ele><time>2026-04-19T11:59:10.001Z</time></trkpt><trkpt lat="38.747294021618266" lon="16.38382180019278"><ele>887.0</ele><time>2026-04-19T11:59:11.001Z</time></trkpt><trkpt lat="38.74722103086205" lon="16.38375701158664"><ele>887.0</ele><time>2026-04-19T11:59:12.001Z</time></trkpt><trkpt lat="38.74715239947144" lon="16.383681561927567"><ele>887.0</ele><time>2026-04-19T11:59:13.001Z</time></trkpt><trkpt lat="38.74707557811887" lon="16.383612357529977"><ele>887.0</ele><time>2026-04-19T11:59:14.001Z</time></trkpt><trkpt lat="38.746989944367094" lon="16.383542900622803"><ele>887.0</ele><time>2026-04-19T11:59:15.001Z</time></trkpt><trkpt lat="38.7468847119901" lon="16.38349530834574"><ele>888.8</ele><time>2026-04-19T11:59:16.001Z</time></trkpt><trkpt lat="38.74678469408313" lon="16.3834400255038"><ele>890.6</ele><time>2026-04-19T11:59:17.001Z</time></trkpt><trkpt lat="38.746693553213404" lon="16.383373082500952"><ele>892.3999999999999</ele><time>2026-04-19T11:59:18.001Z</time></trkpt><trkpt lat="38.74659297095652" lon="16.383322654124647"><ele>894.1999999999999</ele><time>2026-04-19T11:59:19.001Z</time></trkpt><trkpt lat="38.74648906374428" lon="16.383275932457927"><ele>896.0</ele><time>2026-04-19T11:59:20.001Z</time></trkpt><trkpt lat="38.7463837629726" lon="16.38323602400186"><ele>896.0</ele><time>2026-04-19T11:59:21.001Z</time></trkpt><trkpt lat="38.74628453107685" lon="16.383181370915743"><ele>895.9999999999999</ele><time>2026-04-19T11:59:22Z</time></trkpt><trkpt lat="38.74618323479435" lon="16.38313136815646"><ele>895.9999999999999</ele><time>2026-04-19T11:59:23Z</time></trkpt><trkpt lat="38.74608683055464" lon="16.38307122407725"><ele>896.0</ele><time>2026-04-19T11:59:24Z</time></trkpt><trkpt lat="38.74600061699466" lon="16.38302490457705"><ele>896.0</ele><time>2026-04-19T11:59:25Z</time></trkpt><trkpt lat="38.745919914474186" lon="16.382994279800812"><ele>895.5000000000001</ele><time>2026-04-19T11:59:26Z</time></trkpt><trkpt lat="38.745840379025616" lon="16.382965726411896"><ele>895.0</ele><time>2026-04-19T11:59:27Z</time></trkpt><trkpt lat="38.74575698734682" lon="16.38293007631467"><ele>894.5</ele><time>2026-04-19T11:59:28Z</time></trkpt><trkpt lat="38.74568870185352" lon="16.382876175664126"><ele>894.0</ele><time>2026-04-19T11:59:29Z</time></trkpt><trkpt lat="38.74562639023672" lon="16.382823475939617"><ele>893.5000000000001</ele><time>2026-04-19T11:59:30Z</time></trkpt><trkpt lat="38.74557352966219" lon="16.382766423970338"><ele>893.0</ele><time>2026-04-19T11:59:31Z</time></trkpt><trkpt lat="38.745515538447954" lon="16.382721186322073"><ele>893.0</ele><time>2026-04-19T11:59:32Z</time></trkpt><trkpt lat="38.745452147871944" lon="16.382690604994362"><ele>893.0</ele><time>2026-04-19T11:59:33Z</time></trkpt><trkpt lat="38.74539043678469" lon="16.382645914691963"><ele>893.0</ele><time>2026-04-19T11:59:34Z</time></trkpt><trkpt lat="38.745329175965765" lon="16.382610737428422"><ele>893.0</ele><time>2026-04-19T11:59:35Z</time></trkpt><trkpt lat="38.74526209133665" lon="16.382585837426483"><ele>893.0</ele><time>2026-04-19T11:59:36Z</time></trkpt><trkpt lat="38.7451893922482" lon="16.38255828740676"><ele>893.0</ele><time>2026-04-19T11:59:37Z</time></trkpt><trkpt lat="38.74512102892799" lon="16.38252904798579"><ele>893.0</ele><time>2026-04-19T11:59:38Z</time></trkpt><trkpt lat="38.7450507628817" lon="16.382487641037997"><ele>895.0000000000001</ele><time>2026-04-19T11:59:39Z</time></trkpt><trkpt lat="38.744971999315155" lon="16.38244367279842"><ele>897.0</ele><time>2026-04-19T11:59:40Z</time></trkpt><trkpt lat="38.744888863511484" lon="16.382387281929226"><ele>899.0</ele><time>2026-04-19T11:59:41Z</time></trkpt><trkpt lat="38.7448031939365" lon="16.38234234173815"><ele>901.0</ele><time>2026-04-19T11:59:42Z</time></trkpt><trkpt lat="38.74472601457572" lon="16.38230355640181"><ele>903.0000000000001</ele><time>2026-04-19T11:59:43Z</time></trkpt><trkpt lat="38.74465213767578" lon="16.382262209960196"><ele>905.0</ele><time>2026-04-19T11:59:44Z</time></trkpt><trkpt lat="38.744570007080654" lon="16.38222532443926"><ele>905.0000000000001</ele><time>2026-04-19T11:59:45Z</time></trkpt><trkpt lat="38.744487815917914" lon="16.382183598288965"><ele>905.0</ele><time>2026-04-19T11:59:46Z</time></trkpt><trkpt lat="38.74440665989049" lon="16.382141027308002"><ele>905.0</ele><time>2026-04-19T11:59:47Z</time></trkpt><trkpt lat="38.74432670329675" lon="16.382104938878804"><ele>905.0</ele><time>2026-04-19T11:59:48Z</time></trkpt><trkpt lat="38.74424668392689" lon="16.382062440512264"><ele>905.0000000000001</ele><time>2026-04-19T11:59:49Z</time></trkpt><trkpt lat="38.74417107068674" lon="16.382024135299915"><ele>905.0</ele><time>2026-04-19T11:59:50Z</time></trkpt><trkpt lat="38.74410212517109" lon="16.38198370231648"><ele>906.4285714285713</ele><time>2026-04-19T11:59:51Z</time></trkpt><trkpt lat="38.74403887849156" lon="16.381947545504882"><ele>907.8571428571428</ele><time>2026-04-19T11:59:52Z</time></trkpt><trkpt lat="38.74398033480935" lon="16.381890896624608"><ele>909.2857142857142</ele><time>2026-04-19T11:59:53Z</time></trkpt><trkpt lat="38.743927088354134" lon="16.381826695901005"><ele>910.7142857142858</ele><time>2026-04-19T11:59:54Z</time></trkpt><trkpt lat="38.7438790339845" lon="16.38176204466987"><ele>912.1428571428572</ele><time>2026-04-19T11:59:55Z</time></trkpt><trkpt lat="38.74383141689942" lon="16.381693132660633"><ele>913.5714285714287</ele><time>2026-04-19T11:59:56Z</time></trkpt><trkpt lat="38.743774322541114" lon="16.381624779880674"><ele>915.0</ele><time>2026-04-19T11:59:57Z</time></trkpt><trkpt lat="38.74371215047736" lon="16.381549397074668"><ele>915.0</ele><time>2026-04-19T11:59:58Z</time></trkpt><trkpt lat="38.74364981677816" lon="16.381479548550278"><ele>915.0</ele><time>2026-04-19T11:59:59Z</time></trkpt><trkpt lat="38.74358982536246" lon="16.381404678190666"><ele>915.0</ele><time>2026-04-19T12:00:00Z</time></trkpt><trkpt lat="38.74353863908178" lon="16.381331229657125"><ele>915.0</ele><time>2026-04-19T12:00:01Z</time></trkpt><trkpt lat="38.743491326097505" lon="16.38124787980239"><ele>915.0</ele><time>2026-04-19T12:00:02Z</time></trkpt><trkpt lat="38.74344169889473" lon="16.381164810548977"><ele>915.0</ele><time>2026-04-19T12:00:03Z</time></trkpt><trkpt lat="38.7434046544793" lon="16.381041433144006"><ele>916.8</ele><time>2026-04-19T12:00:04Z</time></trkpt><trkpt lat="38.74336379198532" lon="16.38093194313819"><ele>918.6</ele><time>2026-04-19T12:00:05Z</time></trkpt><trkpt lat="38.743345836642824" lon="16.380826118498934"><ele>920.4000000000001</ele><time>2026-04-19T12:00:06Z</time></trkpt><trkpt lat="38.74333099233724" lon="16.38072379235997"><ele>922.2</ele><time>2026-04-19T12:00:07Z</time></trkpt><trkpt lat="38.743304236202185" lon="16.380541906194843"><ele>924.0</ele><time>2026-04-19T12:00:08Z</time></trkpt><trkpt lat="38.74328024823125" lon="16.380405023336692"><ele>924.5</ele><time>2026-04-19T12:00:09Z</time></trkpt><trkpt lat="38.74326419358317" lon="16.380283505003447"><ele>925.0</ele><time>2026-04-19T12:00:10Z</time></trkpt><trkpt lat="38.74324302442817" lon="16.380192429892233"><ele>925.5</ele><time>2026-04-19T12:00:11Z</time></trkpt><trkpt lat="38.74321912680975" lon="16.380082856361742"><ele>926.0</ele><time>2026-04-19T12:00:12Z</time></trkpt><trkpt lat="38.743192110452725" lon="16.37998466360495"><ele>926.5</ele><time>2026-04-19T12:00:13Z</time></trkpt><trkpt lat="38.743179218978455" lon="16.379881192828822"><ele>927.0</ele><time>2026-04-19T12:00:14Z</time></trkpt><trkpt lat="38.74317041001326" lon="16.37978546279504"><ele>927.0</ele><time>2026-04-19T12:00:15Z</time></trkpt><trkpt lat="38.74315818905983" lon="16.379693173372708"><ele>927.0</ele><time>2026-04-19T12:00:16Z</time></trkpt><trkpt lat="38.74314766313117" lon="16.37959152092217"><ele>927.0</ele><time>2026-04-19T12:00:17Z</time></trkpt><trkpt lat="38.74313047607825" lon="16.379484155625338"><ele>927.0</ele><time>2026-04-19T12:00:18Z</time></trkpt><trkpt lat="38.74311591140444" lon="16.37937100647336"><ele>927.0</ele><time>2026-04-19T12:00:19Z</time></trkpt><trkpt lat="38.74309287699546" lon="16.37923785956915"><ele>927.0</ele><time>2026-04-19T12:00:20Z</time></trkpt><trkpt lat="38.74306243561096" lon="16.379082584238013"><ele>927.25</ele><time>2026-04-19T12:00:21Z</time></trkpt><trkpt lat="38.74302975238989" lon="16.378914897111358"><ele>927.5</ele><time>2026-04-19T12:00:22Z</time></trkpt><trkpt lat="38.743000503745364" lon="16.378749670695324"><ele>927.75</ele><time>2026-04-19T12:00:23Z</time></trkpt><trkpt lat="38.74297522325535" lon="16.378531516664893"><ele>928.0</ele><time>2026-04-19T12:00:24Z</time></trkpt><trkpt lat="38.742946887235" lon="16.378303829693913"><ele>928.5</ele><time>2026-04-19T12:00:25Z</time></trkpt><trkpt lat="38.74293604416305" lon="16.378106154458184"><ele>929.0</ele><time>2026-04-19T12:00:26Z</time></trkpt><trkpt lat="38.74294303542647" lon="16.377961675718065"><ele>929.5</ele><time>2026-04-19T12:00:27Z</time></trkpt><trkpt lat="38.74295596175507" lon="16.377821577405967"><ele>930.0</ele><time>2026-04-19T12:00:28Z</time></trkpt><trkpt lat="38.742946065769345" lon="16.377689566503875"><ele>931.0</ele><time>2026-04-19T12:00:29Z</time></trkpt><trkpt lat="38.74291927787129" lon="16.377566247888854"><ele>932.0</ele><time>2026-04-19T12:00:30Z</time></trkpt><trkpt lat="38.7428557629452" lon="16.37742050132521"><ele>933.0</ele><time>2026-04-19T12:00:31Z</time></trkpt><trkpt lat="38.74282408879609" lon="16.377297794607504"><ele>934.0</ele><time>2026-04-19T12:00:32Z</time></trkpt><trkpt lat="38.742813599395596" lon="16.377198420933265"><ele>935.0</ele><time>2026-04-19T12:00:33Z</time></trkpt><trkpt lat="38.74280843853396" lon="16.37705176417403"><ele>936.0000000000001</ele><time>2026-04-19T12:00:35Z</time></trkpt><trkpt lat="38.74283023565855" lon="16.376965750232646"><ele>937.0</ele><time>2026-04-19T12:00:37Z</time></trkpt><trkpt lat="38.74286569075147" lon="16.37687869652282"><ele>938.0</ele><time>2026-04-19T12:00:40Z</time></trkpt><trkpt lat="38.742899848818446" lon="16.37679581279225"><ele>939.0</ele><time>2026-04-19T12:00:42Z</time></trkpt><trkpt lat="38.74293753676406" lon="16.37671429304888"><ele>940.0000000000001</ele><time>2026-04-19T12:00:44Z</time></trkpt><trkpt lat="38.742978102851346" lon="16.376593347826812"><ele>941.0</ele><time>2026-04-19T12:00:46Z</time></trkpt><trkpt lat="38.743022518669584" lon="16.37653005800439"><ele>941.0000000000001</ele><time>2026-04-19T12:00:47Z</time></trkpt><trkpt lat="38.743108369150285" lon="16.376427709591987"><ele>941.0</ele><time>2026-04-19T12:00:49Z</time></trkpt><trkpt lat="38.74314473490423" lon="16.376319084446305"><ele>941.0</ele><time>2026-04-19T12:00:51Z</time></trkpt><trkpt lat="38.74317878267606" lon="16.376233862653592"><ele>941.0</ele><time>2026-04-19T12:00:52Z</time></trkpt><trkpt lat="38.74321456789403" lon="16.376144222158544"><ele>941.0000000000001</ele><time>2026-04-19T12:00:53Z</time></trkpt><trkpt lat="38.74325614619694" lon="16.37604670959136"><ele>941.0</ele><time>2026-04-19T12:00:54Z</time></trkpt><trkpt lat="38.74330949503517" lon="16.3759509490469"><ele>941.5999999999999</ele><time>2026-04-19T12:00:55Z</time></trkpt><trkpt lat="38.743377258204056" lon="16.37584911329966"><ele>942.1999999999999</ele><time>2026-04-19T12:00:56Z</time></trkpt><trkpt lat="38.74343366617363" lon="16.375746456404602"><ele>942.8000000000001</ele><time>2026-04-19T12:00:57Z</time></trkpt><trkpt lat="38.743481774244614" lon="16.37562982655216"><ele>943.4000000000001</ele><time>2026-04-19T12:00:58Z</time></trkpt><trkpt lat="38.74351512014833" lon="16.375517018342123"><ele>944.0</ele><time>2026-04-19T12:00:59Z</time></trkpt><trkpt lat="38.74354029806055" lon="16.375375636243447"><ele>945.0</ele><time>2026-04-19T12:01:00Z</time></trkpt><trkpt lat="38.743565059658366" lon="16.375252039604955"><ele>946.0000000000001</ele><time>2026-04-19T12:01:01Z</time></trkpt><trkpt lat="38.743580092293904" lon="16.375124427235573"><ele>947.0000000000001</ele><time>2026-04-19T12:01:02Z</time></trkpt><trkpt lat="38.743584442565925" lon="16.375005520414994"><ele>948.0</ele><time>2026-04-19T12:01:03Z</time></trkpt><trkpt lat="38.74358556511368" lon="16.37489811816892"><ele>949.0</ele><time>2026-04-19T12:01:04Z</time></trkpt><trkpt lat="38.743569312387656" lon="16.37477578356736"><ele>948.9999999999999</ele><time>2026-04-19T12:01:05Z</time></trkpt><trkpt lat="38.743562666924824" lon="16.37465612322908"><ele>949.0</ele><time>2026-04-19T12:01:06Z</time></trkpt><trkpt lat="38.74354952452148" lon="16.37453236585094"><ele>949.0</ele><time>2026-04-19T12:01:07Z</time></trkpt><trkpt lat="38.74353718246708" lon="16.374430921593508"><ele>949.0</ele><time>2026-04-19T12:01:08Z</time></trkpt><trkpt lat="38.74351803561599" lon="16.374338777698124"><ele>948.9999999999999</ele><time>2026-04-19T12:01:09Z</time></trkpt><trkpt lat="38.74351663011338" lon="16.374246238492407"><ele>949.0</ele><time>2026-04-19T12:01:10Z</time></trkpt><trkpt lat="38.74350422363311" lon="16.37414717860109"><ele>949.8000000000001</ele><time>2026-04-19T12:01:11Z</time></trkpt><trkpt lat="38.74348984570011" lon="16.3740537883982"><ele>950.6000000000001</ele><time>2026-04-19T12:01:12Z</time></trkpt><trkpt lat="38.74346538599218" lon="16.37397034558443"><ele>951.4</ele><time>2026-04-19T12:01:13Z</time></trkpt><trkpt lat="38.74342967620208" lon="16.373833144061987"><ele>952.2</ele><time>2026-04-19T12:01:15Z</time></trkpt><trkpt lat="38.74339557966577" lon="16.37371198703924"><ele>953.0</ele><time>2026-04-19T12:01:17Z</time></trkpt><trkpt lat="38.74334225263319" lon="16.373597687944088"><ele>954.0000000000001</ele><time>2026-04-19T12:01:19Z</time></trkpt><trkpt lat="38.74332323008907" lon="16.37347651039337"><ele>955.0</ele><time>2026-04-19T12:01:21Z</time></trkpt><trkpt lat="38.743325288069265" lon="16.37334181405107"><ele>956.0</ele><time>2026-04-19T12:01:23Z</time></trkpt><trkpt lat="38.743312173930306" lon="16.373229354959115"><ele>957.0</ele><time>2026-04-19T12:01:25Z</time></trkpt><trkpt lat="38.743274692257245" lon="16.37315931605872"><ele>958.0000000000001</ele><time>2026-04-19T12:01:27Z</time></trkpt><trkpt lat="38.74324413594605" lon="16.37308149643404"><ele>959.0</ele><time>2026-04-19T12:01:29Z</time></trkpt><trkpt lat="38.74321664355289" lon="16.37300323867278"><ele>959.5000000000001</ele><time>2026-04-19T12:01:31Z</time></trkpt><trkpt lat="38.74319682626339" lon="16.37290080338932"><ele>960.0</ele><time>2026-04-19T12:01:33Z</time></trkpt><trkpt lat="38.74318525301834" lon="16.37282115034902"><ele>960.5</ele><time>2026-04-19T12:01:34Z</time></trkpt><trkpt lat="38.74319362146135" lon="16.372731733084198"><ele>961.0</ele><time>2026-04-19T12:01:35Z</time></trkpt><trkpt lat="38.74320255263435" lon="16.372651466652094"><ele>961.5000000000001</ele><time>2026-04-19T12:01:36Z</time></trkpt><trkpt lat="38.74320682480238" lon="16.372491017593788"><ele>962.0</ele><time>2026-04-19T12:01:38Z</time></trkpt><trkpt lat="38.743220216553" lon="16.372401263136013"><ele>962.0000000000001</ele><time>2026-04-19T12:01:39Z</time></trkpt><trkpt lat="38.74322528450116" lon="16.37231030358139"><ele>962.0</ele><time>2026-04-19T12:01:40Z</time></trkpt><trkpt lat="38.743212861626695" lon="16.372221060029638"><ele>962.0</ele><time>2026-04-19T12:01:41Z</time></trkpt><trkpt lat="38.74317509921417" lon="16.37213248953303"><ele>962.0</ele><time>2026-04-19T12:01:42Z</time></trkpt><trkpt lat="38.74312915022982" lon="16.372045385151402"><ele>962.0000000000001</ele><time>2026-04-19T12:01:43Z</time></trkpt><trkpt lat="38.74308238419691" lon="16.37196761300982"><ele>962.0</ele><time>2026-04-19T12:01:44Z</time></trkpt><trkpt lat="38.743037660037565" lon="16.371891691910147"><ele>962.6666666666667</ele><time>2026-04-19T12:01:45Z</time></trkpt><trkpt lat="38.7429846493771" lon="16.371811043389545"><ele>963.3333333333334</ele><time>2026-04-19T12:01:46Z</time></trkpt><trkpt lat="38.74291825897664" lon="16.37173606276877"><ele>964.0</ele><time>2026-04-19T12:01:47Z</time></trkpt><trkpt lat="38.74285372221665" lon="16.371670565821987"><ele>964.6666666666667</ele><time>2026-04-19T12:01:48Z</time></trkpt><trkpt lat="38.74279283255269" lon="16.37160588402871"><ele>965.3333333333334</ele><time>2026-04-19T12:01:49Z</time></trkpt><trkpt lat="38.74273718295185" lon="16.3715373163559"><ele>966.0</ele><time>2026-04-19T12:01:50Z</time></trkpt><trkpt lat="38.74268156426523" lon="16.371468226724794"><ele>964.8333333333334</ele><time>2026-04-19T12:01:51Z</time></trkpt><trkpt lat="38.74263320598709" lon="16.371395605596412"><ele>963.6666666666667</ele><time>2026-04-19T12:01:52Z</time></trkpt><trkpt lat="38.74258638114854" lon="16.371321871748364"><ele>962.5</ele><time>2026-04-19T12:01:53Z</time></trkpt><trkpt lat="38.74252165254274" lon="16.37127664221617"><ele>961.3333333333334</ele><time>2026-04-19T12:01:54Z</time></trkpt><trkpt lat="38.74246860762398" lon="16.37122804181027"><ele>960.1666666666667</ele><time>2026-04-19T12:01:55Z</time></trkpt><trkpt lat="38.74236615020419" lon="16.37115404038293"><ele>959.0</ele><time>2026-04-19T12:01:57Z</time></trkpt><trkpt lat="38.742295181279744" lon="16.371067569749275"><ele>959.0000000000001</ele><time>2026-04-19T12:01:59Z</time></trkpt><trkpt lat="38.7422613270006" lon="16.37097887422089"><ele>959.0</ele><time>2026-04-19T12:02:01Z</time></trkpt><trkpt lat="38.742234087342915" lon="16.370897625399238"><ele>959.0</ele><time>2026-04-19T12:02:03Z</time></trkpt><trkpt lat="38.74220315918974" lon="16.37081472679908"><ele>959.0</ele><time>2026-04-19T12:02:05Z</time></trkpt><trkpt lat="38.74215834930846" lon="16.370744155502496"><ele>959.0000000000001</ele><time>2026-04-19T12:02:07Z</time></trkpt><trkpt lat="38.74206549430204" lon="16.37068022666255"><ele>959.0</ele><time>2026-04-19T12:02:09Z</time></trkpt><trkpt lat="38.74200311895816" lon="16.370643445501035"><ele>959.0</ele><time>2026-04-19T12:02:10Z</time></trkpt><trkpt lat="38.74193117485532" lon="16.37060719831577"><ele>959.0000000000001</ele><time>2026-04-19T12:02:11Z</time></trkpt><trkpt lat="38.74183442886352" lon="16.370502617198643"><ele>959.0000000000001</ele><time>2026-04-19T12:02:13Z</time></trkpt><trkpt lat="38.741795404726275" lon="16.370428193351653"><ele>959.0</ele><time>2026-04-19T12:02:14Z</time></trkpt><trkpt lat="38.7417609050341" lon="16.3703273747567"><ele>959.0</ele><time>2026-04-19T12:02:15Z</time></trkpt><trkpt lat="38.74170947557312" lon="16.370215836201783"><ele>958.0</ele><time>2026-04-19T12:02:16Z</time></trkpt><trkpt lat="38.74165696346997" lon="16.370101879730754"><ele>957.0000000000001</ele><time>2026-04-19T12:02:17Z</time></trkpt><trkpt lat="38.74160041338574" lon="16.370000107255812"><ele>956.0000000000001</ele><time>2026-04-19T12:02:18Z</time></trkpt><trkpt lat="38.7415473297361" lon="16.36989729923868"><ele>955.0</ele><time>2026-04-19T12:02:19Z</time></trkpt><trkpt lat="38.741490795283525" lon="16.36978759195001"><ele>954.0</ele><time>2026-04-19T12:02:20Z</time></trkpt><trkpt lat="38.7414388484839" lon="16.369679913048163"><ele>953.0</ele><time>2026-04-19T12:02:21Z</time></trkpt><trkpt lat="38.74136924918605" lon="16.369593540943892"><ele>952.0000000000001</ele><time>2026-04-19T12:02:22Z</time></trkpt><trkpt lat="38.741284973468595" lon="16.369521785973028"><ele>951.0000000000001</ele><time>2026-04-19T12:02:23Z</time></trkpt><trkpt lat="38.74119706536014" lon="16.369438574365276"><ele>950.0</ele><time>2026-04-19T12:02:24Z</time></trkpt><trkpt lat="38.74111558642179" lon="16.36935159713752"><ele>949.0</ele><time>2026-04-19T12:02:25Z</time></trkpt><trkpt lat="38.74103547223796" lon="16.369254559777904"><ele>952.0</ele><time>2026-04-19T12:02:26Z</time></trkpt><trkpt lat="38.740968645287595" lon="16.36914966828009"><ele>955.0000000000001</ele><time>2026-04-19T12:02:27Z</time></trkpt><trkpt lat="38.74090907351074" lon="16.36905944541428"><ele>958.0000000000001</ele><time>2026-04-19T12:02:28Z</time></trkpt><trkpt lat="38.74086561612069" lon="16.368989215230155"><ele>961.0</ele><time>2026-04-19T12:02:29Z</time></trkpt><trkpt lat="38.74079454718331" lon="16.36885434181826"><ele>964.0</ele><time>2026-04-19T12:02:31Z</time></trkpt><trkpt lat="38.7407500235383" lon="16.36875521398483"><ele>964.0</ele><time>2026-04-19T12:02:33Z</time></trkpt><trkpt lat="38.740709998089976" lon="16.368656450898246"><ele>964.0000000000001</ele><time>2026-04-19T12:02:34Z</time></trkpt><trkpt lat="38.740674563617134" lon="16.368586079197456"><ele>964.0000000000001</ele><time>2026-04-19T12:02:35Z</time></trkpt><trkpt lat="38.74059969641268" lon="16.368464123393746"><ele>964.0</ele><time>2026-04-19T12:02:37Z</time></trkpt><trkpt lat="38.74054011189117" lon="16.368357699563873"><ele>964.0</ele><time>2026-04-19T12:02:39Z</time></trkpt><trkpt lat="38.7404889051032" lon="16.3682105655187"><ele>963.9999999999999</ele><time>2026-04-19T12:02:41Z</time></trkpt><trkpt lat="38.740454856870166" lon="16.368135351562827"><ele>964.0</ele><time>2026-04-19T12:02:42Z</time></trkpt><trkpt lat="38.740406977645144" lon="16.36805045196791"><ele>964.0</ele><time>2026-04-19T12:02:43Z</time></trkpt><trkpt lat="38.74036269619042" lon="16.367974904356707"><ele>964.0</ele><time>2026-04-19T12:02:44Z</time></trkpt><trkpt lat="38.740321117845326" lon="16.367881170380894"><ele>963.9999999999999</ele><time>2026-04-19T12:02:45Z</time></trkpt><trkpt lat="38.74027627718877" lon="16.367766359605096"><ele>964.0</ele><time>2026-04-19T12:02:46Z</time></trkpt><trkpt lat="38.74022262514789" lon="16.367591873600233"><ele>964.0</ele><time>2026-04-19T12:02:47Z</time></trkpt><trkpt lat="38.740159395137276" lon="16.367440187500062"><ele>964.0</ele><time>2026-04-19T12:02:48Z</time></trkpt><trkpt lat="38.74008561310929" lon="16.3673063837445"><ele>964.0</ele><time>2026-04-19T12:02:49Z</time></trkpt><trkpt lat="38.73999783283936" lon="16.36720522323441"><ele>964.0</ele><time>2026-04-19T12:02:50Z</time></trkpt><trkpt lat="38.739913635866415" lon="16.367127591159317"><ele>964.0</ele><time>2026-04-19T12:02:51Z</time></trkpt><trkpt lat="38.73982745196258" lon="16.3670775130361"><ele>964.0000000000001</ele><time>2026-04-19T12:02:52Z</time></trkpt><trkpt lat="38.739756347126914" lon="16.367043700494744"><ele>964.0000000000001</ele><time>2026-04-19T12:02:53Z</time></trkpt><trkpt lat="38.73964930553227" lon="16.367012991329332"><ele>964.0</ele><time>2026-04-19T12:02:55Z</time></trkpt><trkpt lat="38.73955860843727" lon="16.366968416894867"><ele>964.0</ele><time>2026-04-19T12:02:57Z</time></trkpt><trkpt lat="38.739480536256615" lon="16.366902300881247"><ele>963.9999999999999</ele><time>2026-04-19T12:02:59Z</time></trkpt><trkpt lat="38.739406379684624" lon="16.366854813417504"><ele>964.0</ele><time>2026-04-19T12:03:02Z</time></trkpt><trkpt lat="38.7393403339408" lon="16.366838779257055"><ele>964.0</ele><time>2026-04-19T12:03:04Z</time></trkpt><trkpt lat="38.739266902515304" lon="16.366791665151858"><ele>964.0</ele><time>2026-04-19T12:03:06Z</time></trkpt><trkpt lat="38.739153015274205" lon="16.366734864207785"><ele>963.9999999999999</ele><time>2026-04-19T12:03:08Z</time></trkpt><trkpt lat="38.73907173362297" lon="16.366702491428697"><ele>964.0</ele><time>2026-04-19T12:03:09Z</time></trkpt><trkpt lat="38.738985297730395" lon="16.366665870901656"><ele>963.6666666666666</ele><time>2026-04-19T12:03:10Z</time></trkpt><trkpt lat="38.73890678429991" lon="16.36662183268084"><ele>963.3333333333333</ele><time>2026-04-19T12:03:11Z</time></trkpt><trkpt lat="38.73884012679237" lon="16.36659060960899"><ele>963.0</ele><time>2026-04-19T12:03:12Z</time></trkpt><trkpt lat="38.73878129301518" lon="16.36655886974974"><ele>962.6666666666667</ele><time>2026-04-19T12:03:13Z</time></trkpt><trkpt lat="38.738662756628344" lon="16.366501926775623"><ele>962.3333333333334</ele><time>2026-04-19T12:03:15Z</time></trkpt><trkpt lat="38.738600072882605" lon="16.36648151208385"><ele>962.0</ele><time>2026-04-19T12:03:16Z</time></trkpt><trkpt lat="38.738534092771864" lon="16.366464018934025"><ele>962.0</ele><time>2026-04-19T12:03:17Z</time></trkpt><trkpt lat="38.73841644151331" lon="16.366421435842103"><ele>962.0</ele><time>2026-04-19T12:03:19Z</time></trkpt><trkpt lat="38.73831624121856" lon="16.366365204920488"><ele>962.0</ele><time>2026-04-19T12:03:21Z</time></trkpt><trkpt lat="38.738222709239594" lon="16.36629079315699"><ele>962.0</ele><time>2026-04-19T12:03:23Z</time></trkpt><trkpt lat="38.73810872127552" lon="16.366217959728758"><ele>963.0</ele><time>2026-04-19T12:03:25Z</time></trkpt><trkpt lat="38.7380357338981" lon="16.366142379298566"><ele>964.0</ele><time>2026-04-19T12:03:27Z</time></trkpt><trkpt lat="38.737974152295585" lon="16.36609265289045"><ele>965.0</ele><time>2026-04-19T12:03:29Z</time></trkpt><trkpt lat="38.73791214754523" lon="16.366037674097655"><ele>966.0</ele><time>2026-04-19T12:03:31Z</time></trkpt><trkpt lat="38.73785084961485" lon="16.365930759341037"><ele>967.0</ele><time>2026-04-19T12:03:33Z</time></trkpt><trkpt lat="38.73774911687898" lon="16.365821942077254"><ele>967.3333333333333</ele><time>2026-04-19T12:03:35Z</time></trkpt><trkpt lat="38.737694964935244" lon="16.365747938909085"><ele>967.6666666666666</ele><time>2026-04-19T12:03:36Z</time></trkpt><trkpt lat="38.73764036242753" lon="16.3656745390535"><ele>968.0</ele><time>2026-04-19T12:03:37Z</time></trkpt><trkpt lat="38.73758775021484" lon="16.36560395692979"><ele>968.3333333333333</ele><time>2026-04-19T12:03:38Z</time></trkpt><trkpt lat="38.73753379463348" lon="16.36555256137112"><ele>968.6666666666666</ele><time>2026-04-19T12:03:39Z</time></trkpt><trkpt lat="38.737459467510554" lon="16.3654795884232"><ele>969.0</ele><time>2026-04-19T12:03:41Z</time></trkpt><trkpt lat="38.73740960591587" lon="16.365418716715713"><ele>969.7142857142856</ele><time>2026-04-19T12:03:43Z</time></trkpt><trkpt lat="38.73736093540435" lon="16.36535954793374"><ele>970.4285714285713</ele><time>2026-04-19T12:03:45Z</time></trkpt><trkpt lat="38.737305242752676" lon="16.36531830856688"><ele>971.1428571428571</ele><time>2026-04-19T12:03:47Z</time></trkpt><trkpt lat="38.73727600552809" lon="16.365234884054335"><ele>971.8571428571428</ele><time>2026-04-19T12:03:50Z</time></trkpt><trkpt lat="38.73727232516817" lon="16.365142548569683"><ele>972.5714285714284</ele><time>2026-04-19T12:03:52Z</time></trkpt><trkpt lat="38.73727207500228" lon="16.3650502077603"><ele>973.2857142857143</ele><time>2026-04-19T12:03:54Z</time></trkpt><trkpt lat="38.73726262284026" lon="16.36494712133467"><ele>974.0</ele><time>2026-04-19T12:03:56Z</time></trkpt><trkpt lat="38.73726005203135" lon="16.36485193357595"><ele>974.0</ele><time>2026-04-19T12:03:58Z</time></trkpt><trkpt lat="38.737250366710626" lon="16.364752870999826"><ele>974.0000000000001</ele><time>2026-04-19T12:04:00Z</time></trkpt><trkpt lat="38.73722176884446" lon="16.364655184191456"><ele>974.0000000000001</ele><time>2026-04-19T12:04:02Z</time></trkpt><trkpt lat="38.73718766561274" lon="16.36454944129627"><ele>974.0</ele><time>2026-04-19T12:04:04Z</time></trkpt><trkpt lat="38.737146542053466" lon="16.364422331010502"><ele>974.0</ele><time>2026-04-19T12:04:06Z</time></trkpt><trkpt lat="38.737093604955504" lon="16.364282301651855"><ele>973.6666666666667</ele><time>2026-04-19T12:04:08Z</time></trkpt><trkpt lat="38.737060128628364" lon="16.364210548942722"><ele>973.3333333333334</ele><time>2026-04-19T12:04:09Z</time></trkpt><trkpt lat="38.73698456371564" lon="16.364082095214496"><ele>973.0</ele><time>2026-04-19T12:04:11Z</time></trkpt><trkpt lat="38.736930194002575" lon="16.364025007148765"><ele>972.6666666666667</ele><time>2026-04-19T12:04:12Z</time></trkpt><trkpt lat="38.73686817623576" lon="16.363968985690004"><ele>972.3333333333334</ele><time>2026-04-19T12:04:13Z</time></trkpt><trkpt lat="38.73680737859485" lon="16.363925190939707"><ele>972.0</ele><time>2026-04-19T12:04:14Z</time></trkpt><trkpt lat="38.73671947548785" lon="16.363868543630897"><ele>973.1666666666666</ele><time>2026-04-19T12:04:16Z</time></trkpt><trkpt lat="38.736639013403355" lon="16.36383290361017"><ele>974.3333333333333</ele><time>2026-04-19T12:04:18Z</time></trkpt><trkpt lat="38.73655597407378" lon="16.363771324178437"><ele>975.5</ele><time>2026-04-19T12:04:20Z</time></trkpt><trkpt lat="38.73648071351375" lon="16.363741039479773"><ele>976.6666666666666</ele><time>2026-04-19T12:04:22Z</time></trkpt><trkpt lat="38.73641634694236" lon="16.3637431636039"><ele>977.8333333333333</ele><time>2026-04-19T12:04:26Z</time></trkpt><trkpt lat="38.73634832656985" lon="16.3637299355578"><ele>979.0</ele><time>2026-04-19T12:04:31Z</time></trkpt><trkpt lat="38.73628143135799" lon="16.3637502673364"><ele>978.9999999999999</ele><time>2026-04-19T12:04:35.999Z</time></trkpt><trkpt lat="38.73621525718179" lon="16.36370120524933"><ele>979.0</ele><time>2026-04-19T12:04:40.999Z</time></trkpt><trkpt lat="38.73613993801601" lon="16.3636550337101"><ele>979.0</ele><time>2026-04-19T12:04:44.999Z</time></trkpt><trkpt lat="38.73608407888252" lon="16.363616500405076"><ele>979.0</ele><time>2026-04-19T12:04:46.999Z</time></trkpt><trkpt lat="38.736047535136784" lon="16.363504981700345"><ele>978.9999999999999</ele><time>2026-04-19T12:04:48.999Z</time></trkpt><trkpt lat="38.73606777355276" lon="16.3634098806156"><ele>979.0</ele><time>2026-04-19T12:04:49.999Z</time></trkpt><trkpt lat="38.736088234256485" lon="16.363311881376614"><ele>979.0</ele><time>2026-04-19T12:04:50.999Z</time></trkpt><trkpt lat="38.736112499811796" lon="16.36321542231686"><ele>979.0</ele><time>2026-04-19T12:04:51.999Z</time></trkpt><trkpt lat="38.73613153942431" lon="16.36312566840454"><ele>979.0</ele><time>2026-04-19T12:04:52.999Z</time></trkpt><trkpt lat="38.73614191795302" lon="16.36303391779517"><ele>979.0</ele><time>2026-04-19T12:04:53.999Z</time></trkpt><trkpt lat="38.736151511036084" lon="16.362935912600012"><ele>979.0</ele><time>2026-04-19T12:04:54.999Z</time></trkpt><trkpt lat="38.73615627271039" lon="16.36285045889038"><ele>979.0</ele><time>2026-04-19T12:04:55.999Z</time></trkpt><trkpt lat="38.736180521569416" lon="16.36277203246546"><ele>979.0</ele><time>2026-04-19T12:04:56.999Z</time></trkpt><trkpt lat="38.736204487537215" lon="16.3626768793142"><ele>978.9999999999999</ele><time>2026-04-19T12:04:57.999Z</time></trkpt><trkpt lat="38.73621529742664" lon="16.362587969091937"><ele>979.0</ele><time>2026-04-19T12:04:58.999Z</time></trkpt><trkpt lat="38.736223522098285" lon="16.362506737379192"><ele>979.0</ele><time>2026-04-19T12:04:59.999Z</time></trkpt><trkpt lat="38.73622740861963" lon="16.36237509262881"><ele>979.0</ele><time>2026-04-19T12:05:00.999Z</time></trkpt><trkpt lat="38.736218222643515" lon="16.36226939691403"><ele>978.9999999999999</ele><time>2026-04-19T12:05:01.999Z</time></trkpt><trkpt lat="38.736183096120975" lon="16.362155776296824"><ele>979.0</ele><time>2026-04-19T12:05:02.999Z</time></trkpt><trkpt lat="38.73612037900568" lon="16.362059877485372"><ele>980.3333333333333</ele><time>2026-04-19T12:05:03.999Z</time></trkpt><trkpt lat="38.73605683351556" lon="16.361968280421426"><ele>981.6666666666666</ele><time>2026-04-19T12:05:04.999Z</time></trkpt><trkpt lat="38.736007095794825" lon="16.36189068179406"><ele>983.0</ele><time>2026-04-19T12:05:05.999Z</time></trkpt><trkpt lat="38.73595669842206" lon="16.36179646661926"><ele>984.3333333333333</ele><time>2026-04-19T12:05:06.999Z</time></trkpt><trkpt lat="38.73590280188972" lon="16.361713768011686"><ele>985.6666666666666</ele><time>2026-04-19T12:05:07.999Z</time></trkpt><trkpt lat="38.73585303792744" lon="16.361634946325808"><ele>987.0</ele><time>2026-04-19T12:05:08.999Z</time></trkpt><trkpt lat="38.73580019607349" lon="16.36155513981886"><ele>990.4000000000001</ele><time>2026-04-19T12:05:09.999Z</time></trkpt><trkpt lat="38.735745539905665" lon="16.361463913545705"><ele>993.8000000000001</ele><time>2026-04-19T12:05:10.999Z</time></trkpt><trkpt lat="38.7356952688962" lon="16.361411223077916"><ele>997.2</ele><time>2026-04-19T12:05:11.999Z</time></trkpt><trkpt lat="38.73562447870376" lon="16.361388721976233"><ele>1000.6</ele><time>2026-04-19T12:05:12.999Z</time></trkpt><trkpt lat="38.73551427540026" lon="16.36135937976555"><ele>1004.0</ele><time>2026-04-19T12:05:14.999Z</time></trkpt><trkpt lat="38.735406162347196" lon="16.361291082236143"><ele>1004.0000000000001</ele><time>2026-04-19T12:05:16.999Z</time></trkpt><trkpt lat="38.7353220939629" lon="16.361212076877177"><ele>1004.0</ele><time>2026-04-19T12:05:18.999Z</time></trkpt><trkpt lat="38.73523390910224" lon="16.361102859579884"><ele>1004.0</ele><time>2026-04-19T12:05:20.999Z</time></trkpt><trkpt lat="38.73518407891555" lon="16.36103077736117"><ele>1004.0</ele><time>2026-04-19T12:05:21.999Z</time></trkpt><trkpt lat="38.735146694895" lon="16.36094633260931"><ele>1004.0000000000001</ele><time>2026-04-19T12:05:22.999Z</time></trkpt><trkpt lat="38.735131946761115" lon="16.360857689905323"><ele>1004.0</ele><time>2026-04-19T12:05:23.999Z</time></trkpt><trkpt lat="38.73513660840361" lon="16.36077349079602"><ele>1005.0000000000001</ele><time>2026-04-19T12:05:24.999Z</time></trkpt><trkpt lat="38.73518324605903" lon="16.360674317415697"><ele>1006.0</ele><time>2026-04-19T12:05:25.999Z</time></trkpt><trkpt lat="38.73520295096259" lon="16.360587240602445"><ele>1007.0</ele><time>2026-04-19T12:05:26.999Z</time></trkpt><trkpt lat="38.73520301508918" lon="16.360494947646675"><ele>1008.0</ele><time>2026-04-19T12:05:27.999Z</time></trkpt><trkpt lat="38.73521276574537" lon="16.360388266419307"><ele>1009.0000000000001</ele><time>2026-04-19T12:05:28.999Z</time></trkpt><trkpt lat="38.735217078491836" lon="16.36027245309727"><ele>1010.0</ele><time>2026-04-19T12:05:29.999Z</time></trkpt><trkpt lat="38.73521884290506" lon="16.360161775064583"><ele>1011.1666666666667</ele><time>2026-04-19T12:05:30.999Z</time></trkpt><trkpt lat="38.7352094583634" lon="16.360041967860386"><ele>1012.3333333333334</ele><time>2026-04-19T12:05:31.999Z</time></trkpt><trkpt lat="38.735195082663715" lon="16.359946207885763"><ele>1013.5</ele><time>2026-04-19T12:05:32.999Z</time></trkpt><trkpt lat="38.73518763661627" lon="16.35984518963423"><ele>1014.6666666666667</ele><time>2026-04-19T12:05:33.999Z</time></trkpt><trkpt lat="38.73518776649167" lon="16.359756995241142"><ele>1015.8333333333334</ele><time>2026-04-19T12:05:34.999Z</time></trkpt><trkpt lat="38.735185306299286" lon="16.359657877688473"><ele>1017.0</ele><time>2026-04-19T12:05:35.999Z</time></trkpt><trkpt lat="38.73517291041659" lon="16.35953904314363"><ele>1017.8</ele><time>2026-04-19T12:05:36.999Z</time></trkpt><trkpt lat="38.735152243503066" lon="16.359424975121367"><ele>1018.6</ele><time>2026-04-19T12:05:37.999Z</time></trkpt><trkpt lat="38.735109809557706" lon="16.35929388848101"><ele>1019.3999999999999</ele><time>2026-04-19T12:05:38.999Z</time></trkpt><trkpt lat="38.735102489683136" lon="16.35918019369985"><ele>1020.1999999999999</ele><time>2026-04-19T12:05:39.999Z</time></trkpt><trkpt lat="38.735102415240476" lon="16.359061553165184"><ele>1021.0</ele><time>2026-04-19T12:05:40.999Z</time></trkpt><trkpt lat="38.73511669305269" lon="16.358947134005824"><ele>1021.5999999999999</ele><time>2026-04-19T12:05:41.999Z</time></trkpt><trkpt lat="38.73514981248096" lon="16.358847074780407"><ele>1022.1999999999999</ele><time>2026-04-19T12:05:42.999Z</time></trkpt><trkpt lat="38.735175844326115" lon="16.35872738244973"><ele>1022.8000000000001</ele><time>2026-04-19T12:05:43.999Z</time></trkpt><trkpt lat="38.73516382793818" lon="16.358611901010473"><ele>1023.4000000000001</ele><time>2026-04-19T12:05:44.999Z</time></trkpt><trkpt lat="38.73513513690193" lon="16.35849031243216"><ele>1024.0</ele><time>2026-04-19T12:05:45.999Z</time></trkpt><trkpt lat="38.73509719382007" lon="16.3583739383228"><ele>1024.0</ele><time>2026-04-19T12:05:46.999Z</time></trkpt><trkpt lat="38.735035939779124" lon="16.35826775419522"><ele>1024.0</ele><time>2026-04-19T12:05:47.999Z</time></trkpt><trkpt lat="38.73498291056056" lon="16.358187405755103"><ele>1024.0</ele><time>2026-04-19T12:05:48.999Z</time></trkpt><trkpt lat="38.73491634307467" lon="16.35810394929376"><ele>1024.0</ele><time>2026-04-19T12:05:49.999Z</time></trkpt><trkpt lat="38.73484912186938" lon="16.358014471660375"><ele>1024.0</ele><time>2026-04-19T12:05:50.999Z</time></trkpt><trkpt lat="38.734781608388374" lon="16.357929948702058"><ele>1024.5</ele><time>2026-04-19T12:05:51.999Z</time></trkpt><trkpt lat="38.734732836465085" lon="16.35785405910457"><ele>1025.0</ele><time>2026-04-19T12:05:52.999Z</time></trkpt><trkpt lat="38.73468354357553" lon="16.357764239328226"><ele>1025.5</ele><time>2026-04-19T12:05:53.999Z</time></trkpt><trkpt lat="38.73464082688055" lon="16.357678235989486"><ele>1026.0</ele><time>2026-04-19T12:05:54.999Z</time></trkpt><trkpt lat="38.734613738128566" lon="16.357592199294146"><ele>1026.5</ele><time>2026-04-19T12:05:55.999Z</time></trkpt><trkpt lat="38.73457634552406" lon="16.357512330326063"><ele>1027.0</ele><time>2026-04-19T12:05:56.999Z</time></trkpt><trkpt lat="38.73452694506533" lon="16.357433660985905"><ele>1027.0</ele><time>2026-04-19T12:05:57.999Z</time></trkpt><trkpt lat="38.734476176277525" lon="16.357362945306328"><ele>1027.0</ele><time>2026-04-19T12:05:58.999Z</time></trkpt><trkpt lat="38.73442504261102" lon="16.357272111742123"><ele>1027.0</ele><time>2026-04-19T12:05:59.999Z</time></trkpt><trkpt lat="38.73436129992115" lon="16.357171219859516"><ele>1027.0</ele><time>2026-04-19T12:06:00.999Z</time></trkpt><trkpt lat="38.73430234272084" lon="16.357074403337556"><ele>1027.0</ele><time>2026-04-19T12:06:01.999Z</time></trkpt><trkpt lat="38.734248330969955" lon="16.356955948425068"><ele>1024.5</ele><time>2026-04-19T12:06:02.999Z</time></trkpt><trkpt lat="38.734212081445" lon="16.35683219834773"><ele>1022.0</ele><time>2026-04-19T12:06:03.999Z</time></trkpt><trkpt lat="38.734184832516824" lon="16.356726703646714"><ele>1019.5</ele><time>2026-04-19T12:06:05.001Z</time></trkpt><trkpt lat="38.73417297295484" lon="16.356640929900212"><ele>1017.0</ele><time>2026-04-19T12:06:06.001Z</time></trkpt><trkpt lat="38.73417088969031" lon="16.35651409968747"><ele>1014.4999999999999</ele><time>2026-04-19T12:06:08.001Z</time></trkpt><trkpt lat="38.7341979091356" lon="16.356409788328293"><ele>1012.0</ele><time>2026-04-19T12:06:10.001Z</time></trkpt><trkpt lat="38.734250433035314" lon="16.356316205174448"><ele>1010.4000000000001</ele><time>2026-04-19T12:06:12.001Z</time></trkpt><trkpt lat="38.73433560943098" lon="16.356210112801325"><ele>1008.8000000000001</ele><time>2026-04-19T12:06:14.001Z</time></trkpt><trkpt lat="38.7343739425278" lon="16.356135337765018"><ele>1007.2</ele><time>2026-04-19T12:06:15.001Z</time></trkpt><trkpt lat="38.73443040104839" lon="16.356045266240187"><ele>1005.6</ele><time>2026-04-19T12:06:17.001Z</time></trkpt><trkpt lat="38.73448716064644" lon="16.35591233033739"><ele>1004.0</ele><time>2026-04-19T12:06:19.001Z</time></trkpt><trkpt lat="38.73451915590713" lon="16.35572828916424"><ele>1005.8333333333334</ele><time>2026-04-19T12:06:21.001Z</time></trkpt><trkpt lat="38.734518047531175" lon="16.35561962077534"><ele>1007.6666666666667</ele><time>2026-04-19T12:06:22.001Z</time></trkpt><trkpt lat="38.734527095738216" lon="16.355513475165306"><ele>1009.5</ele><time>2026-04-19T12:06:23.001Z</time></trkpt><trkpt lat="38.73454120947968" lon="16.355426101890693"><ele>1011.3333333333333</ele><time>2026-04-19T12:06:24.001Z</time></trkpt><trkpt lat="38.734561701777565" lon="16.355332535774284"><ele>1013.1666666666666</ele><time>2026-04-19T12:06:25.001Z</time></trkpt><trkpt lat="38.73458533652765" lon="16.355256459389537"><ele>1015.0</ele><time>2026-04-19T12:06:26.001Z</time></trkpt><trkpt lat="38.734611438022895" lon="16.355159727465452"><ele>1014.9999999999999</ele><time>2026-04-19T12:06:27.001Z</time></trkpt><trkpt lat="38.7346353558351" lon="16.35507476068108"><ele>1015.0</ele><time>2026-04-19T12:06:28.001Z</time></trkpt><trkpt lat="38.73471464385905" lon="16.354979666070136"><ele>1015.0</ele><time>2026-04-19T12:06:30Z</time></trkpt><trkpt lat="38.73478346944984" lon="16.354940795389755"><ele>1015.0</ele><time>2026-04-19T12:06:31Z</time></trkpt><trkpt lat="38.734856796393125" lon="16.354911198205123"><ele>1014.9999999999999</ele><time>2026-04-19T12:06:32Z</time></trkpt><trkpt lat="38.73492436420427" lon="16.35489770503168"><ele>1015.0</ele><time>2026-04-19T12:06:33Z</time></trkpt><trkpt lat="38.73499817028583" lon="16.35489123603594"><ele>1014.9999999999999</ele><time>2026-04-19T12:06:34Z</time></trkpt><trkpt lat="38.73507963819743" lon="16.35490446635663"><ele>1015.0</ele><time>2026-04-19T12:06:35Z</time></trkpt><trkpt lat="38.735172122997994" lon="16.354931963508946"><ele>1015.0</ele><time>2026-04-19T12:06:36Z</time></trkpt><trkpt lat="38.73525132000831" lon="16.35497020726943"><ele>1015.0</ele><time>2026-04-19T12:06:37Z</time></trkpt><trkpt lat="38.7353276788798" lon="16.355013060500795"><ele>1014.9999999999999</ele><time>2026-04-19T12:06:38Z</time></trkpt><trkpt lat="38.73539059884238" lon="16.355056366971294"><ele>1015.0</ele><time>2026-04-19T12:06:39Z</time></trkpt><trkpt lat="38.73544629369418" lon="16.35512404556868"><ele>1012.9999999999999</ele><time>2026-04-19T12:06:40Z</time></trkpt><trkpt lat="38.7355029116895" lon="16.35518105424914"><ele>1011.0</ele><time>2026-04-19T12:06:41Z</time></trkpt><trkpt lat="38.73556533824056" lon="16.35524269137268"><ele>1009.0</ele><time>2026-04-19T12:06:42Z</time></trkpt><trkpt lat="38.735643360416" lon="16.35528806394316"><ele>1007.0</ele><time>2026-04-19T12:06:43Z</time></trkpt><trkpt lat="38.73571975020028" lon="16.355314136727262"><ele>1004.9999999999999</ele><time>2026-04-19T12:06:44Z</time></trkpt><trkpt lat="38.73581444325865" lon="16.3553494608154"><ele>1003.0</ele><time>2026-04-19T12:06:46Z</time></trkpt><trkpt lat="38.7358754911671" lon="16.355386166138086"><ele>1003.0</ele><time>2026-04-19T12:06:48Z</time></trkpt><trkpt lat="38.73594890478917" lon="16.355418374952848"><ele>1003.0</ele><time>2026-04-19T12:06:50Z</time></trkpt><trkpt lat="38.736038228742125" lon="16.35547070708469"><ele>1003.0</ele><time>2026-04-19T12:06:52Z</time></trkpt><trkpt lat="38.73611001901068" lon="16.355580224764044"><ele>1003.0</ele><time>2026-04-19T12:06:54Z</time></trkpt><trkpt lat="38.73613920707513" lon="16.355670793293214"><ele>1003.0</ele><time>2026-04-19T12:06:55Z</time></trkpt><trkpt lat="38.73617699223132" lon="16.355802554680547"><ele>1000.3333333333333</ele><time>2026-04-19T12:06:57Z</time></trkpt><trkpt lat="38.736214677755754" lon="16.355908506490778"><ele>997.6666666666666</ele><time>2026-04-19T12:06:59Z</time></trkpt><trkpt lat="38.736253406221465" lon="16.356012984170157"><ele>995.0</ele><time>2026-04-19T12:07:01Z</time></trkpt><trkpt lat="38.73632310904669" lon="16.355990954234542"><ele>992.3333333333333</ele><time>2026-04-19T12:07:05Z</time></trkpt><trkpt lat="38.73635518048281" lon="16.355889994932127"><ele>989.6666666666666</ele><time>2026-04-19T12:07:08Z</time></trkpt><trkpt lat="38.73639505555153" lon="16.355816733187147"><ele>987.0</ele><time>2026-04-19T12:07:13Z</time></trkpt><trkpt lat="38.73643299315168" lon="16.355751961229547"><ele>987.0</ele><time>2026-04-19T12:07:24Z</time></trkpt><trkpt lat="38.73643626197625" lon="16.35566533673043"><ele>987.0</ele><time>2026-04-19T12:07:30Z</time></trkpt><trkpt lat="38.7364499787126" lon="16.35558014626189"><ele>987.0</ele><time>2026-04-19T12:07:34Z</time></trkpt><trkpt lat="38.73647622422137" lon="16.355474205337604"><ele>987.0</ele><time>2026-04-19T12:07:37Z</time></trkpt><trkpt lat="38.736545722757" lon="16.355455190716683"><ele>987.0</ele><time>2026-04-19T12:07:41Z</time></trkpt><trkpt lat="38.73656542656556" lon="16.35555494374429"><ele>987.0</ele><time>2026-04-19T12:07:44Z</time></trkpt><trkpt lat="38.73662860496126" lon="16.35550036295558"><ele>986.0</ele><time>2026-04-19T12:07:50Z</time></trkpt><trkpt lat="38.7366886794847" lon="16.35543782558626"><ele>985.0</ele><time>2026-04-19T12:07:52Z</time></trkpt><trkpt lat="38.73672304846773" lon="16.355341489357755"><ele>984.0</ele><time>2026-04-19T12:07:54Z</time></trkpt><trkpt lat="38.73676669605678" lon="16.355218321647083"><ele>983.0</ele><time>2026-04-19T12:07:56Z</time></trkpt><trkpt lat="38.736797989717935" lon="16.355081264665415"><ele>982.0</ele><time>2026-04-19T12:07:58Z</time></trkpt><trkpt lat="38.736835996017426" lon="16.35497605706177"><ele>978.4999999999999</ele><time>2026-04-19T12:08:00Z</time></trkpt><trkpt lat="38.736892841417166" lon="16.35490934621142"><ele>975.0</ele><time>2026-04-19T12:08:02Z</time></trkpt><trkpt lat="38.736975507125976" lon="16.35493360666252"><ele>971.5</ele><time>2026-04-19T12:08:04Z</time></trkpt><trkpt lat="38.73704505676022" lon="16.354983811979743"><ele>968.0</ele><time>2026-04-19T12:08:06Z</time></trkpt><trkpt lat="38.73710288152164" lon="16.35502807634991"><ele>964.4999999999999</ele><time>2026-04-19T12:08:11Z</time></trkpt><trkpt lat="38.73717330297307" lon="16.355090625770483"><ele>961.0</ele><time>2026-04-19T12:08:13Z</time></trkpt><trkpt lat="38.73719961421101" lon="16.355169311817047"><ele>961.0</ele><time>2026-04-19T12:08:14Z</time></trkpt><trkpt lat="38.73723617249128" lon="16.355273313263115"><ele>960.9999999999999</ele><time>2026-04-19T12:08:15Z</time></trkpt><trkpt lat="38.7372756174166" lon="16.355386405054286"><ele>960.9999999999999</ele><time>2026-04-19T12:08:16Z</time></trkpt><trkpt lat="38.73729303045858" lon="16.35548107908771"><ele>961.0</ele><time>2026-04-19T12:08:17Z</time></trkpt><trkpt lat="38.73732425503413" lon="16.355618144041816"><ele>961.0</ele><time>2026-04-19T12:08:18.999Z</time></trkpt><trkpt lat="38.73735248935117" lon="16.355724080269614"><ele>960.0</ele><time>2026-04-19T12:08:20.999Z</time></trkpt><trkpt lat="38.73742631346747" lon="16.355776805763018"><ele>959.0</ele><time>2026-04-19T12:08:22.999Z</time></trkpt><trkpt lat="38.73757453099308" lon="16.355745906271995"><ele>958.0</ele><time>2026-04-19T12:08:25.999Z</time></trkpt><trkpt lat="38.73767317663011" lon="16.35575188349719"><ele>957.0</ele><time>2026-04-19T12:08:27.999Z</time></trkpt><trkpt lat="38.73788597658761" lon="16.35583411955622"><ele>954.2</ele><time>2026-04-19T12:08:31.999Z</time></trkpt><trkpt lat="38.73794649264271" lon="16.355870549385582"><ele>951.4000000000001</ele><time>2026-04-19T12:08:32.999Z</time></trkpt><trkpt lat="38.738050825291985" lon="16.35592822867551"><ele>948.5999999999999</ele><time>2026-04-19T12:08:34.999Z</time></trkpt><trkpt lat="38.73814203344901" lon="16.355987569218343"><ele>945.8</ele><time>2026-04-19T12:08:36.999Z</time></trkpt><trkpt lat="38.738219838437075" lon="16.35608432509735"><ele>943.0</ele><time>2026-04-19T12:08:38.999Z</time></trkpt><trkpt lat="38.73825301317211" lon="16.356156260909348"><ele>943.0</ele><time>2026-04-19T12:08:39.999Z</time></trkpt><trkpt lat="38.73829860554282" lon="16.35630235454387"><ele>943.0</ele><time>2026-04-19T12:08:41.999Z</time></trkpt><trkpt lat="38.73832644980164" lon="16.356406337111743"><ele>943.0</ele><time>2026-04-19T12:08:43.999Z</time></trkpt><trkpt lat="38.738409574134124" lon="16.356371295652735"><ele>943.0</ele><time>2026-04-19T12:08:46.999Z</time></trkpt><trkpt lat="38.73845244076454" lon="16.356276008216877"><ele>943.0</ele><time>2026-04-19T12:08:48.999Z</time></trkpt><trkpt lat="38.738471709887236" lon="16.356165403724006"><ele>942.9999999999999</ele><time>2026-04-19T12:08:50.999Z</time></trkpt><trkpt lat="38.73844983566406" lon="16.356084042277384"><ele>943.0</ele><time>2026-04-19T12:08:52.999Z</time></trkpt><trkpt lat="38.73845023160286" lon="16.35598772631228"><ele>943.0</ele><time>2026-04-19T12:08:54.999Z</time></trkpt><trkpt lat="38.738451198465825" lon="16.355905204063777"><ele>943.0</ele><time>2026-04-19T12:08:56.999Z</time></trkpt><trkpt lat="38.73845323928782" lon="16.355782691435415"><ele>942.9999999999999</ele><time>2026-04-19T12:08:58.999Z</time></trkpt><trkpt lat="38.7384576520404" lon="16.355697123745557"><ele>943.0</ele><time>2026-04-19T12:08:59.999Z</time></trkpt><trkpt lat="38.73844962524855" lon="16.35554595109588"><ele>942.3333333333333</ele><time>2026-04-19T12:09:01.999Z</time></trkpt><trkpt lat="38.73840793878996" lon="16.355461335588867"><ele>941.6666666666666</ele><time>2026-04-19T12:09:03.999Z</time></trkpt><trkpt lat="38.73835189193944" lon="16.355374644592708"><ele>941.0</ele><time>2026-04-19T12:09:05.999Z</time></trkpt><trkpt lat="38.73832014260609" lon="16.35528884853299"><ele>940.3333333333333</ele><time>2026-04-19T12:09:07.999Z</time></trkpt><trkpt lat="38.738316098195575" lon="16.355205816274516"><ele>939.6666666666666</ele><time>2026-04-19T12:09:08.999Z</time></trkpt><trkpt lat="38.73830523344249" lon="16.355095679474132"><ele>939.0</ele><time>2026-04-19T12:09:09.999Z</time></trkpt><trkpt lat="38.73829021582013" lon="16.354992433119804"><ele>939.0</ele><time>2026-04-19T12:09:10.999Z</time></trkpt><trkpt lat="38.73826730832022" lon="16.35491000053498"><ele>939.0</ele><time>2026-04-19T12:09:11.999Z</time></trkpt><trkpt lat="38.73823166883707" lon="16.354798575663313"><ele>939.0</ele><time>2026-04-19T12:09:13.999Z</time></trkpt><trkpt lat="38.73819812713811" lon="16.354717142739275"><ele>939.0</ele><time>2026-04-19T12:09:15.999Z</time></trkpt><trkpt lat="38.73821363601656" lon="16.35463410299051"><ele>939.0</ele><time>2026-04-19T12:09:19.999Z</time></trkpt><trkpt lat="38.73824202860184" lon="16.354542433461585"><ele>939.0</ele><time>2026-04-19T12:09:24.999Z</time></trkpt><trkpt lat="38.738366869814385" lon="16.354514186868617"><ele>937.0</ele><time>2026-04-19T12:09:29.999Z</time></trkpt><trkpt lat="38.738461286224165" lon="16.35445468393048"><ele>935.0</ele><time>2026-04-19T12:09:33.999Z</time></trkpt><trkpt lat="38.73852874872903" lon="16.35445678663306"><ele>933.0</ele><time>2026-04-19T12:09:42.999Z</time></trkpt><trkpt lat="38.738606624030545" lon="16.354477194768684"><ele>931.0</ele><time>2026-04-19T12:09:48.999Z</time></trkpt><trkpt lat="38.73858053253179" lon="16.35440205853704"><ele>929.0</ele><time>2026-04-19T12:10:10.999Z</time></trkpt><trkpt lat="38.73851141438641" lon="16.354368133094397"><ele>927.0</ele><time>2026-04-19T12:10:16.999Z</time></trkpt><trkpt lat="38.738443624836414" lon="16.35431277566758"><ele>926.9999999999999</ele><time>2026-04-19T12:10:20.999Z</time></trkpt><trkpt lat="38.73837409630543" lon="16.354261190898566"><ele>927.0</ele><time>2026-04-19T12:10:24.999Z</time></trkpt><trkpt lat="38.73830904005703" lon="16.354215059626554"><ele>926.9999999999999</ele><time>2026-04-19T12:10:27.999Z</time></trkpt><trkpt lat="38.738313623685244" lon="16.35412087811599"><ele>926.9999999999999</ele><time>2026-04-19T12:10:31.999Z</time></trkpt><trkpt lat="38.73837097108108" lon="16.354058028057313"><ele>927.0</ele><time>2026-04-19T12:10:34.999Z</time></trkpt><trkpt lat="38.738427417468046" lon="16.35400379561025"><ele>926.9999999999999</ele><time>2026-04-19T12:10:36.999Z</time></trkpt><trkpt lat="38.73848101624225" lon="16.353937443538122"><ele>926.9999999999999</ele><time>2026-04-19T12:10:38.999Z</time></trkpt><trkpt lat="38.73855474383348" lon="16.35384139195729"><ele>919.4000000000001</ele><time>2026-04-19T12:10:40.999Z</time></trkpt><trkpt lat="38.73863867167948" lon="16.353736660056764"><ele>911.8000000000001</ele><time>2026-04-19T12:10:42.999Z</time></trkpt><trkpt lat="38.73870039914997" lon="16.35363787643514"><ele>904.2</ele><time>2026-04-19T12:10:44.999Z</time></trkpt><trkpt lat="38.738747433593275" lon="16.353526520055148"><ele>896.6</ele><time>2026-04-19T12:10:46.999Z</time></trkpt><trkpt lat="38.73877711977927" lon="16.35342291931364"><ele>889.0</ele><time>2026-04-19T12:10:48.999Z</time></trkpt><trkpt lat="38.738793316437956" lon="16.35330913273914"><ele>888.9999999999999</ele><time>2026-04-19T12:10:50.999Z</time></trkpt><trkpt lat="38.73881197683931" lon="16.35319367840993"><ele>889.0</ele><time>2026-04-19T12:10:53.999Z</time></trkpt><trkpt lat="38.73887192328017" lon="16.353109815486608"><ele>889.0</ele><time>2026-04-19T12:10:56.999Z</time></trkpt><trkpt lat="38.738929955296136" lon="16.353076590227293"><ele>889.0</ele><time>2026-04-19T12:10:59.999Z</time></trkpt><trkpt lat="38.738996009959195" lon="16.353082258106788"><ele>888.9999999999999</ele><time>2026-04-19T12:11:01.999Z</time></trkpt><trkpt lat="38.739062704858945" lon="16.353128716394092"><ele>889.0</ele><time>2026-04-19T12:11:03.999Z</time></trkpt><trkpt lat="38.739140579998534" lon="16.353191426169044"><ele>888.9999999999999</ele><time>2026-04-19T12:11:05.999Z</time></trkpt><trkpt lat="38.739222934560544" lon="16.35323034244292"><ele>889.0</ele><time>2026-04-19T12:11:07.999Z</time></trkpt><trkpt lat="38.739287657181286" lon="16.353288882952338"><ele>889.0</ele><time>2026-04-19T12:11:09.999Z</time></trkpt><trkpt lat="38.73934855079166" lon="16.353375697301928"><ele>889.0</ele><time>2026-04-19T12:11:12.999Z</time></trkpt><trkpt lat="38.739418256689156" lon="16.353442445518294"><ele>888.9999999999999</ele><time>2026-04-19T12:11:15.999Z</time></trkpt><trkpt lat="38.73948368298923" lon="16.3533506733696"><ele>889.0</ele><time>2026-04-19T12:11:17.999Z</time></trkpt><trkpt lat="38.73952076041138" lon="16.35323184199372"><ele>889.4000000000001</ele><time>2026-04-19T12:11:19.999Z</time></trkpt><trkpt lat="38.73954625717254" lon="16.35308821797061"><ele>889.8000000000001</ele><time>2026-04-19T12:11:21.999Z</time></trkpt><trkpt lat="38.73956972033946" lon="16.352943210664446"><ele>890.1999999999999</ele><time>2026-04-19T12:11:23.999Z</time></trkpt><trkpt lat="38.739609244140716" lon="16.352809578348698"><ele>890.5999999999999</ele><time>2026-04-19T12:11:25.999Z</time></trkpt><trkpt lat="38.73966406959287" lon="16.352695084571383"><ele>891.0</ele><time>2026-04-19T12:11:27.999Z</time></trkpt><trkpt lat="38.7397372858297" lon="16.35258825509764"><ele>891.0</ele><time>2026-04-19T12:11:29.999Z</time></trkpt><trkpt lat="38.73979038229951" lon="16.35247621740118"><ele>890.9999999999999</ele><time>2026-04-19T12:11:31.999Z</time></trkpt><trkpt lat="38.73984146716334" lon="16.352359269262966"><ele>890.9999999999999</ele><time>2026-04-19T12:11:33.999Z</time></trkpt><trkpt lat="38.73989188893601" lon="16.352218429625495"><ele>891.0</ele><time>2026-04-19T12:11:35.999Z</time></trkpt><trkpt lat="38.73994118109643" lon="16.35214605738983"><ele>891.0</ele><time>2026-04-19T12:11:36.999Z</time></trkpt><trkpt lat="38.739992735903066" lon="16.352049771277755"><ele>888.6666666666666</ele><time>2026-04-19T12:11:37.999Z</time></trkpt><trkpt lat="38.74006776245144" lon="16.35200999371686"><ele>886.3333333333333</ele><time>2026-04-19T12:11:38.999Z</time></trkpt><trkpt lat="38.740126135838985" lon="16.351957300790332"><ele>884.0</ele><time>2026-04-19T12:11:39.999Z</time></trkpt><trkpt lat="38.74018913364203" lon="16.351893500310055"><ele>881.6666666666666</ele><time>2026-04-19T12:11:40.999Z</time></trkpt><trkpt lat="38.740252554706935" lon="16.35182887727497"><ele>879.3333333333333</ele><time>2026-04-19T12:11:41.999Z</time></trkpt><trkpt lat="38.74031010816837" lon="16.35175634497909"><ele>877.0</ele><time>2026-04-19T12:11:42.999Z</time></trkpt><trkpt lat="38.74036699739027" lon="16.351673020504396"><ele>876.9999999999999</ele><time>2026-04-19T12:11:43.999Z</time></trkpt><trkpt lat="38.740413425586674" lon="16.351594730400638"><ele>877.0</ele><time>2026-04-19T12:11:44.999Z</time></trkpt><trkpt lat="38.74044272253995" lon="16.351511835970562"><ele>877.0</ele><time>2026-04-19T12:11:45.999Z</time></trkpt><trkpt lat="38.740476252182624" lon="16.351402030484447"><ele>877.0</ele><time>2026-04-19T12:11:46.999Z</time></trkpt><trkpt lat="38.74051771931526" lon="16.351282926203798"><ele>876.9999999999999</ele><time>2026-04-19T12:11:47.999Z</time></trkpt><trkpt lat="38.74055515614569" lon="16.351167446173164"><ele>877.0</ele><time>2026-04-19T12:11:48.999Z</time></trkpt><trkpt lat="38.74059824061543" lon="16.351030337148423"><ele>879.1666666666666</ele><time>2026-04-19T12:11:49.999Z</time></trkpt><trkpt lat="38.74063994384328" lon="16.350917753990693"><ele>881.3333333333333</ele><time>2026-04-19T12:11:50.999Z</time></trkpt><trkpt lat="38.74066657218306" lon="16.350824719396915"><ele>883.5</ele><time>2026-04-19T12:11:51.999Z</time></trkpt><trkpt lat="38.74069884835671" lon="16.350715751161395"><ele>885.6666666666667</ele><time>2026-04-19T12:11:52.999Z</time></trkpt><trkpt lat="38.74072663731562" lon="16.350604442290898"><ele>887.8333333333334</ele><time>2026-04-19T12:11:53.999Z</time></trkpt><trkpt lat="38.74075658703666" lon="16.35051038207577"><ele>890.0</ele><time>2026-04-19T12:11:54.999Z</time></trkpt><trkpt lat="38.740785840193176" lon="16.350418049777478"><ele>890.0</ele><time>2026-04-19T12:11:55.999Z</time></trkpt><trkpt lat="38.740826709506926" lon="16.350314472056848"><ele>890.0</ele><time>2026-04-19T12:11:56.999Z</time></trkpt><trkpt lat="38.74088957295823" lon="16.35022973805174"><ele>890.0</ele><time>2026-04-19T12:11:57.999Z</time></trkpt><trkpt lat="38.740961116899335" lon="16.350170931680285"><ele>890.0</ele><time>2026-04-19T12:11:58.999Z</time></trkpt><trkpt lat="38.74104472128803" lon="16.35014540374712"><ele>890.0</ele><time>2026-04-19T12:11:59.999Z</time></trkpt><trkpt lat="38.74114218893487" lon="16.350136796983733"><ele>885.0</ele><time>2026-04-19T12:12:00.999Z</time></trkpt><trkpt lat="38.74122747251748" lon="16.350142117295185"><ele>880.0</ele><time>2026-04-19T12:12:01.999Z</time></trkpt><trkpt lat="38.74131751460732" lon="16.350148090591613"><ele>875.0</ele><time>2026-04-19T12:12:02.999Z</time></trkpt><trkpt lat="38.741406478121455" lon="16.350131662341454"><ele>870.0</ele><time>2026-04-19T12:12:03.999Z</time></trkpt><trkpt lat="38.74150703219063" lon="16.350090773158097"><ele>865.0</ele><time>2026-04-19T12:12:04.999Z</time></trkpt><trkpt lat="38.74159066665936" lon="16.350035616584496"><ele>865.0</ele><time>2026-04-19T12:12:05.999Z</time></trkpt><trkpt lat="38.74167070619592" lon="16.349960920276843"><ele>865.0</ele><time>2026-04-19T12:12:06.999Z</time></trkpt><trkpt lat="38.741740815936296" lon="16.34988208111531"><ele>865.0</ele><time>2026-04-19T12:12:07.999Z</time></trkpt><trkpt lat="38.74182013851532" lon="16.349782601184348"><ele>865.0</ele><time>2026-04-19T12:12:08.999Z</time></trkpt><trkpt lat="38.741880290674146" lon="16.349717262187077"><ele>865.0</ele><time>2026-04-19T12:12:09.999Z</time></trkpt><trkpt lat="38.742041974508986" lon="16.34969126939557"><ele>861.6</ele><time>2026-04-19T12:12:12.999Z</time></trkpt><trkpt lat="38.742157080825805" lon="16.349685956487892"><ele>858.2</ele><time>2026-04-19T12:12:14.999Z</time></trkpt><trkpt lat="38.74230403414466" lon="16.349712905331828"><ele>854.8</ele><time>2026-04-19T12:12:18.999Z</time></trkpt><trkpt lat="38.74236931735243" lon="16.34972314043942"><ele>851.4</ele><time>2026-04-19T12:12:20.999Z</time></trkpt><trkpt lat="38.74245508062921" lon="16.349703535884817"><ele>848.0</ele><time>2026-04-19T12:12:22.999Z</time></trkpt><trkpt lat="38.74256660899684" lon="16.34969510275841"><ele>848.0000000000001</ele><time>2026-04-19T12:12:24.999Z</time></trkpt><trkpt lat="38.742670086784216" lon="16.349685003402232"><ele>848.0</ele><time>2026-04-19T12:12:26.999Z</time></trkpt><trkpt lat="38.742746891591466" lon="16.349631767622604"><ele>848.0</ele><time>2026-04-19T12:12:28.999Z</time></trkpt><trkpt lat="38.74281788385373" lon="16.349579424720186"><ele>848.0</ele><time>2026-04-19T12:12:30.999Z</time></trkpt><trkpt lat="38.74287239256669" lon="16.34950676360194"><ele>848.0000000000001</ele><time>2026-04-19T12:12:33.999Z</time></trkpt><trkpt lat="38.74291356640002" lon="16.34942694897704"><ele>848.0</ele><time>2026-04-19T12:12:36.999Z</time></trkpt><trkpt lat="38.74294562599399" lon="16.34935390728611"><ele>845.8</ele><time>2026-04-19T12:12:38.999Z</time></trkpt><trkpt lat="38.74300734728964" lon="16.34926063481136"><ele>843.5999999999999</ele><time>2026-04-19T12:12:41.999Z</time></trkpt><trkpt lat="38.74308946881789" lon="16.349191998288994"><ele>841.4000000000001</ele><time>2026-04-19T12:12:43.999Z</time></trkpt><trkpt lat="38.74320473646883" lon="16.349112715222894"><ele>839.2</ele><time>2026-04-19T12:12:45.998Z</time></trkpt><trkpt lat="38.74327059166817" lon="16.34906822866009"><ele>837.0</ele><time>2026-04-19T12:12:46.998Z</time></trkpt><trkpt lat="38.74333904376777" lon="16.34902543481376"><ele>837.0</ele><time>2026-04-19T12:12:47.998Z</time></trkpt><trkpt lat="38.74340529608812" lon="16.348970847051145"><ele>837.0</ele><time>2026-04-19T12:12:48.998Z</time></trkpt><trkpt lat="38.743476405583614" lon="16.348917794401167"><ele>837.0</ele><time>2026-04-19T12:12:49.998Z</time></trkpt><trkpt lat="38.743547429409425" lon="16.348855092379626"><ele>837.0</ele><time>2026-04-19T12:12:50.998Z</time></trkpt><trkpt lat="38.74360784104592" lon="16.348767592841785"><ele>837.0</ele><time>2026-04-19T12:12:51.998Z</time></trkpt><trkpt lat="38.743655284999235" lon="16.348663247463044"><ele>837.0</ele><time>2026-04-19T12:12:52.998Z</time></trkpt><trkpt lat="38.74370528144459" lon="16.34856228004713"><ele>836.0</ele><time>2026-04-19T12:12:53.998Z</time></trkpt><trkpt lat="38.74376779531647" lon="16.34846564509777"><ele>835.0</ele><time>2026-04-19T12:12:54.998Z</time></trkpt><trkpt lat="38.743845784737864" lon="16.348365209984728"><ele>834.0</ele><time>2026-04-19T12:12:55.998Z</time></trkpt><trkpt lat="38.74393345701161" lon="16.348260558947747"><ele>833.0</ele><time>2026-04-19T12:12:56.999Z</time></trkpt><trkpt lat="38.74401866720008" lon="16.348153609980017"><ele>832.0</ele><time>2026-04-19T12:12:57.998Z</time></trkpt><trkpt lat="38.744099623998316" lon="16.348063091849017"><ele>831.8333333333333</ele><time>2026-04-19T12:12:58.998Z</time></trkpt><trkpt lat="38.74416500269909" lon="16.347968824793686"><ele>831.6666666666666</ele><time>2026-04-19T12:12:59.998Z</time></trkpt><trkpt lat="38.74422875419274" lon="16.347896704985303"><ele>831.5</ele><time>2026-04-19T12:13:00.998Z</time></trkpt><trkpt lat="38.74428629316405" lon="16.347819563002552"><ele>831.3333333333333</ele><time>2026-04-19T12:13:01.998Z</time></trkpt><trkpt lat="38.74434339844461" lon="16.347753409788037"><ele>831.1666666666666</ele><time>2026-04-19T12:13:02.998Z</time></trkpt><trkpt lat="38.744393422730404" lon="16.347687623118983"><ele>831.0</ele><time>2026-04-19T12:13:03.998Z</time></trkpt><trkpt lat="38.744443788697765" lon="16.34761560752141"><ele>831.0</ele><time>2026-04-19T12:13:04.998Z</time></trkpt><trkpt lat="38.74449157275666" lon="16.347542343795304"><ele>831.0</ele><time>2026-04-19T12:13:05.998Z</time></trkpt><trkpt lat="38.744543090954274" lon="16.347474089518535"><ele>831.0</ele><time>2026-04-19T12:13:06.998Z</time></trkpt><trkpt lat="38.74458762336385" lon="16.347412161188856"><ele>831.0</ele><time>2026-04-19T12:13:07.998Z</time></trkpt><trkpt lat="38.744658351053026" lon="16.34730172704663"><ele>831.0</ele><time>2026-04-19T12:13:09.998Z</time></trkpt><trkpt lat="38.744739754368624" lon="16.34724450653534"><ele>831.0</ele><time>2026-04-19T12:13:12Z</time></trkpt><trkpt lat="38.744831651605544" lon="16.347187538217906"><ele>827.5</ele><time>2026-04-19T12:13:14Z</time></trkpt><trkpt lat="38.74495353504282" lon="16.34705915887669"><ele>824.0</ele><time>2026-04-19T12:13:16Z</time></trkpt><trkpt lat="38.745008776067046" lon="16.346955280974736"><ele>820.5</ele><time>2026-04-19T12:13:17Z</time></trkpt><trkpt lat="38.74506038572244" lon="16.34683556939907"><ele>817.0</ele><time>2026-04-19T12:13:18Z</time></trkpt><trkpt lat="38.74511254627473" lon="16.34674112536862"><ele>816.9999999999999</ele><time>2026-04-19T12:13:19Z</time></trkpt><trkpt lat="38.74514005077072" lon="16.346640247869583"><ele>817.0</ele><time>2026-04-19T12:13:20Z</time></trkpt><trkpt lat="38.745166342713695" lon="16.34654841246597"><ele>817.0</ele><time>2026-04-19T12:13:21Z</time></trkpt><trkpt lat="38.745191353996766" lon="16.346472533957733"><ele>817.0</ele><time>2026-04-19T12:13:22Z</time></trkpt><trkpt lat="38.745236036165714" lon="16.34634401962364"><ele>816.9999999999999</ele><time>2026-04-19T12:13:24Z</time></trkpt><trkpt lat="38.74527380486555" lon="16.34623218605949"><ele>817.0</ele><time>2026-04-19T12:13:26Z</time></trkpt><trkpt lat="38.74531596510961" lon="16.34610585099787"><ele>816.9999999999999</ele><time>2026-04-19T12:13:28Z</time></trkpt><trkpt lat="38.74534154214324" lon="16.346028665723562"><ele>817.0</ele><time>2026-04-19T12:13:29Z</time></trkpt><trkpt lat="38.745369274368564" lon="16.345947579519944"><ele>817.0</ele><time>2026-04-19T12:13:30Z</time></trkpt><trkpt lat="38.74539474171808" lon="16.345855716513164"><ele>817.0</ele><time>2026-04-19T12:13:31Z</time></trkpt><trkpt lat="38.745420291353994" lon="16.34576105776691"><ele>817.0</ele><time>2026-04-19T12:13:32Z</time></trkpt><trkpt lat="38.74544910261795" lon="16.345669374885723"><ele>816.9999999999999</ele><time>2026-04-19T12:13:33Z</time></trkpt><trkpt lat="38.74548191568592" lon="16.345581463807328"><ele>817.0</ele><time>2026-04-19T12:13:34Z</time></trkpt><trkpt lat="38.74552010477603" lon="16.34549396806196"><ele>814.9999999999999</ele><time>2026-04-19T12:13:35Z</time></trkpt><trkpt lat="38.745561670983754" lon="16.345403126590817"><ele>813.0</ele><time>2026-04-19T12:13:36Z</time></trkpt><trkpt lat="38.74561176018134" lon="16.345314940014827"><ele>811.0</ele><time>2026-04-19T12:13:37Z</time></trkpt><trkpt lat="38.745660749215446" lon="16.34522592020755"><ele>809.0</ele><time>2026-04-19T12:13:38Z</time></trkpt><trkpt lat="38.74571257970181" lon="16.34513988572557"><ele>806.9999999999999</ele><time>2026-04-19T12:13:39Z</time></trkpt><trkpt lat="38.745757802386514" lon="16.345049854366593"><ele>805.0</ele><time>2026-04-19T12:13:40Z</time></trkpt><trkpt lat="38.745804240915405" lon="16.344957371830077"><ele>804.9999999999999</ele><time>2026-04-19T12:13:41Z</time></trkpt><trkpt lat="38.745843144129815" lon="16.344848429566987"><ele>805.0</ele><time>2026-04-19T12:13:42Z</time></trkpt><trkpt lat="38.74592362427629" lon="16.344746745499542"><ele>805.0</ele><time>2026-04-19T12:13:43Z</time></trkpt><trkpt lat="38.74595546654581" lon="16.344656835610614"><ele>805.0</ele><time>2026-04-19T12:13:44Z</time></trkpt><trkpt lat="38.745977378985756" lon="16.344559300848974"><ele>804.9999999999999</ele><time>2026-04-19T12:13:45Z</time></trkpt><trkpt lat="38.74598724363517" lon="16.344454166433792"><ele>805.0</ele><time>2026-04-19T12:13:46Z</time></trkpt><trkpt lat="38.745983902219606" lon="16.34435995952115"><ele>805.8333333333333</ele><time>2026-04-19T12:13:47Z</time></trkpt><trkpt lat="38.745992050355504" lon="16.344256840764256"><ele>806.6666666666666</ele><time>2026-04-19T12:13:48Z</time></trkpt><trkpt lat="38.746012023722145" lon="16.344148903115673"><ele>807.5</ele><time>2026-04-19T12:13:49Z</time></trkpt><trkpt lat="38.746034751917456" lon="16.344053722662217"><ele>808.3333333333333</ele><time>2026-04-19T12:13:50Z</time></trkpt><trkpt lat="38.74605993178869" lon="16.343958385949602"><ele>809.1666666666666</ele><time>2026-04-19T12:13:51Z</time></trkpt><trkpt lat="38.74608674731712" lon="16.34385203317196"><ele>810.0</ele><time>2026-04-19T12:13:52Z</time></trkpt><trkpt lat="38.746121790988596" lon="16.34372357387586"><ele>807.8</ele><time>2026-04-19T12:13:53Z</time></trkpt><trkpt lat="38.74614814795966" lon="16.34358550517973"><ele>805.6</ele><time>2026-04-19T12:13:54Z</time></trkpt><trkpt lat="38.74617938306665" lon="16.343465818407303"><ele>803.4000000000001</ele><time>2026-04-19T12:13:55Z</time></trkpt><trkpt lat="38.746206226771584" lon="16.34334424454236"><ele>801.2</ele><time>2026-04-19T12:13:56Z</time></trkpt><trkpt lat="38.746229598418246" lon="16.34323563297395"><ele>799.0</ele><time>2026-04-19T12:13:57Z</time></trkpt><trkpt lat="38.74624578713787" lon="16.3431088600948"><ele>796.2</ele><time>2026-04-19T12:13:58Z</time></trkpt><trkpt lat="38.74625892853231" lon="16.342985923405767"><ele>793.4000000000001</ele><time>2026-04-19T12:13:59Z</time></trkpt><trkpt lat="38.74626775190731" lon="16.342864707824347"><ele>790.6</ele><time>2026-04-19T12:14:00Z</time></trkpt><trkpt lat="38.74628925953844" lon="16.34273468865874"><ele>787.8</ele><time>2026-04-19T12:14:01Z</time></trkpt><trkpt lat="38.74631982642553" lon="16.342622882896283"><ele>785.0</ele><time>2026-04-19T12:14:02Z</time></trkpt><trkpt lat="38.746367323827556" lon="16.34253809023093"><ele>785.0</ele><time>2026-04-19T12:14:03Z</time></trkpt><trkpt lat="38.7464544047068" lon="16.342471762806866"><ele>785.0</ele><time>2026-04-19T12:14:05Z</time></trkpt><trkpt lat="38.7465621781037" lon="16.342536049060893"><ele>785.0</ele><time>2026-04-19T12:14:07Z</time></trkpt><trkpt lat="38.74666580705723" lon="16.342620230930265"><ele>785.0</ele><time>2026-04-19T12:14:09Z</time></trkpt><trkpt lat="38.74673272579185" lon="16.3426234541904"><ele>785.0</ele><time>2026-04-19T12:14:10Z</time></trkpt><trkpt lat="38.74679856230502" lon="16.34261892775929"><ele>785.0</ele><time>2026-04-19T12:14:11Z</time></trkpt><trkpt lat="38.746884982677464" lon="16.342537947969294"><ele>785.0</ele><time>2026-04-19T12:14:13Z</time></trkpt><trkpt lat="38.74692641242235" lon="16.342378611819676"><ele>785.0</ele><time>2026-04-19T12:14:15Z</time></trkpt><trkpt lat="38.746910161688135" lon="16.342297778442422"><ele>785.0</ele><time>2026-04-19T12:14:16Z</time></trkpt><trkpt lat="38.74686881718738" lon="16.3422154673037"><ele>785.0</ele><time>2026-04-19T12:14:17Z</time></trkpt><trkpt lat="38.746827522962235" lon="16.342120088878495"><ele>782.3333333333334</ele><time>2026-04-19T12:14:18Z</time></trkpt><trkpt lat="38.74677818922971" lon="16.342035054164583"><ele>779.6666666666667</ele><time>2026-04-19T12:14:19Z</time></trkpt><trkpt lat="38.74672609949829" lon="16.341960821421345"><ele>777.0</ele><time>2026-04-19T12:14:20Z</time></trkpt><trkpt lat="38.74667436394244" lon="16.341911640624446"><ele>774.3333333333333</ele><time>2026-04-19T12:14:21Z</time></trkpt><trkpt lat="38.74657240391275" lon="16.341868906786125"><ele>771.6666666666666</ele><time>2026-04-19T12:14:23Z</time></trkpt><trkpt lat="38.74645944395273" lon="16.341895252383317"><ele>769.0</ele><time>2026-04-19T12:14:25Z</time></trkpt><trkpt lat="38.7463959823401" lon="16.341942725274453"><ele>768.9999999999999</ele><time>2026-04-19T12:14:26Z</time></trkpt><trkpt lat="38.746346787783345" lon="16.34201573400462"><ele>769.0</ele><time>2026-04-19T12:14:27Z</time></trkpt><trkpt lat="38.74629652462726" lon="16.342074352458553"><ele>769.0</ele><time>2026-04-19T12:14:28Z</time></trkpt><trkpt lat="38.74621895755297" lon="16.342205985265988"><ele>769.0</ele><time>2026-04-19T12:14:30Z</time></trkpt><trkpt lat="38.74617134635696" lon="16.342279397652533"><ele>768.9999999999999</ele><time>2026-04-19T12:14:31Z</time></trkpt><trkpt lat="38.74613036768904" lon="16.342360654334232"><ele>769.0</ele><time>2026-04-19T12:14:32Z</time></trkpt><trkpt lat="38.74607721784573" lon="16.34243175861826"><ele>768.1666666666666</ele><time>2026-04-19T12:14:33Z</time></trkpt><trkpt lat="38.746013199699895" lon="16.342497826323875"><ele>767.3333333333333</ele><time>2026-04-19T12:14:34Z</time></trkpt><trkpt lat="38.74596209779563" lon="16.342556761070156"><ele>766.5</ele><time>2026-04-19T12:14:35Z</time></trkpt><trkpt lat="38.74591794464006" lon="16.34261567332317"><ele>765.6666666666666</ele><time>2026-04-19T12:14:36Z</time></trkpt><trkpt lat="38.74587290897773" lon="16.342678347688526"><ele>764.8333333333333</ele><time>2026-04-19T12:14:37Z</time></trkpt><trkpt lat="38.74579148397183" lon="16.34280156206106"><ele>764.0</ele><time>2026-04-19T12:14:39Z</time></trkpt><trkpt lat="38.74574542842649" lon="16.342864307338314"><ele>764.0</ele><time>2026-04-19T12:14:40Z</time></trkpt><trkpt lat="38.745694806653844" lon="16.34292586512677"><ele>764.0</ele><time>2026-04-19T12:14:41Z</time></trkpt><trkpt lat="38.745657807343584" lon="16.34299366120654"><ele>764.0</ele><time>2026-04-19T12:14:42Z</time></trkpt><trkpt lat="38.745599484112375" lon="16.34311585519563"><ele>764.0</ele><time>2026-04-19T12:14:44Z</time></trkpt><trkpt lat="38.745561054200365" lon="16.34321713424051"><ele>764.0</ele><time>2026-04-19T12:14:46Z</time></trkpt><trkpt lat="38.74552796720451" lon="16.343307973991894"><ele>764.0</ele><time>2026-04-19T12:14:49Z</time></trkpt><trkpt lat="38.74549655118646" lon="16.343388643258574"><ele>762.7142857142858</ele><time>2026-04-19T12:14:52Z</time></trkpt><trkpt lat="38.74547689653916" lon="16.343467208438135"><ele>761.4285714285713</ele><time>2026-04-19T12:14:54Z</time></trkpt><trkpt lat="38.74547052468037" lon="16.343554928467473"><ele>760.1428571428571</ele><time>2026-04-19T12:14:56Z</time></trkpt><trkpt lat="38.74544179433908" lon="16.3436467786604"><ele>758.8571428571429</ele><time>2026-04-19T12:14:59Z</time></trkpt><trkpt lat="38.74539873228167" lon="16.343726626470605"><ele>757.5714285714287</ele><time>2026-04-19T12:15:01Z</time></trkpt><trkpt lat="38.745350743453564" lon="16.34379694140855"><ele>756.2857142857142</ele><time>2026-04-19T12:15:03Z</time></trkpt><trkpt lat="38.74528586137592" lon="16.343831055419784"><ele>755.0</ele><time>2026-04-19T12:15:05Z</time></trkpt><trkpt lat="38.74518138358069" lon="16.343864031615023"><ele>756.8</ele><time>2026-04-19T12:15:07Z</time></trkpt><trkpt lat="38.74510104101287" lon="16.343976914570273"><ele>758.6</ele><time>2026-04-19T12:15:09Z</time></trkpt><trkpt lat="38.74501702534418" lon="16.344078177152635"><ele>760.4000000000001</ele><time>2026-04-19T12:15:11Z</time></trkpt><trkpt lat="38.74492851403445" lon="16.34419257982784"><ele>762.2</ele><time>2026-04-19T12:15:13Z</time></trkpt><trkpt lat="38.74487627698119" lon="16.344246011644405"><ele>764.0</ele><time>2026-04-19T12:15:14Z</time></trkpt><trkpt lat="38.74481876713537" lon="16.344297220359525"><ele>764.0</ele><time>2026-04-19T12:15:15Z</time></trkpt><trkpt lat="38.744757273123554" lon="16.34433829722878"><ele>764.0</ele><time>2026-04-19T12:15:16Z</time></trkpt><trkpt lat="38.7446963326102" lon="16.34437682944358"><ele>764.0</ele><time>2026-04-19T12:15:16.999Z</time></trkpt><trkpt lat="38.74464986223015" lon="16.344452553417653"><ele>764.0</ele><time>2026-04-19T12:15:17.999Z</time></trkpt><trkpt lat="38.74461693852183" lon="16.34452641384398"><ele>764.0</ele><time>2026-04-19T12:15:18.999Z</time></trkpt><trkpt lat="38.744539367670136" lon="16.344807361924417"><ele>764.8000000000001</ele><time>2026-04-19T12:15:19.999Z</time></trkpt><trkpt lat="38.74450857366574" lon="16.344897526327948"><ele>765.6</ele><time>2026-04-19T12:15:20.999Z</time></trkpt><trkpt lat="38.74443112109283" lon="16.345010070788224"><ele>766.4</ele><time>2026-04-19T12:15:22.999Z</time></trkpt><trkpt lat="38.7443390141268" lon="16.345066027524993"><ele>767.2</ele><time>2026-04-19T12:15:24.999Z</time></trkpt><trkpt lat="38.74422815147247" lon="16.34503063689245"><ele>768.0</ele><time>2026-04-19T12:15:27.999Z</time></trkpt><trkpt lat="38.74419570396241" lon="16.344945102262184"><ele>768.0</ele><time>2026-04-19T12:15:28.999Z</time></trkpt><trkpt lat="38.74415231506402" lon="16.34486885542268"><ele>768.0</ele><time>2026-04-19T12:15:29.999Z</time></trkpt><trkpt lat="38.744081561058465" lon="16.344787968105294"><ele>768.0</ele><time>2026-04-19T12:15:31.999Z</time></trkpt><trkpt lat="38.744083491837415" lon="16.34470440728361"><ele>768.0</ele><time>2026-04-19T12:15:34.999Z</time></trkpt><trkpt lat="38.744106356947924" lon="16.344581687136756"><ele>768.0</ele><time>2026-04-19T12:15:36.999Z</time></trkpt><trkpt lat="38.74412579750505" lon="16.344417623461307"><ele>767.4</ele><time>2026-04-19T12:15:38.999Z</time></trkpt><trkpt lat="38.74413623283971" lon="16.34432558876719"><ele>766.8</ele><time>2026-04-19T12:15:39.999Z</time></trkpt><trkpt lat="38.74410478091197" lon="16.34417113878868"><ele>766.2</ele><time>2026-04-19T12:15:41.999Z</time></trkpt><trkpt lat="38.74405641040593" lon="16.34405016015672"><ele>765.6</ele><time>2026-04-19T12:15:43.999Z</time></trkpt><trkpt lat="38.74401919253421" lon="16.343961602200775"><ele>765.0</ele><time>2026-04-19T12:15:44.999Z</time></trkpt><trkpt lat="38.743992063595016" lon="16.343853123413968"><ele>765.0</ele><time>2026-04-19T12:15:45.999Z</time></trkpt><trkpt lat="38.74397104376573" lon="16.34374868794162"><ele>765.0</ele><time>2026-04-19T12:15:46.999Z</time></trkpt><trkpt lat="38.74396069444989" lon="16.343620963599115"><ele>765.0</ele><time>2026-04-19T12:15:47.999Z</time></trkpt><trkpt lat="38.74392312549556" lon="16.343464923420996"><ele>765.0</ele><time>2026-04-19T12:15:48.999Z</time></trkpt><trkpt lat="38.743912179324134" lon="16.343320997097784"><ele>765.0</ele><time>2026-04-19T12:15:49.999Z</time></trkpt><trkpt lat="38.74390256710864" lon="16.343141316738386"><ele>766.6666666666667</ele><time>2026-04-19T12:15:50.999Z</time></trkpt><trkpt lat="38.743858582885295" lon="16.3429195557517"><ele>768.3333333333334</ele><time>2026-04-19T12:15:51.999Z</time></trkpt><trkpt lat="38.74382558338179" lon="16.342684507563103"><ele>770.0</ele><time>2026-04-19T12:15:52.999Z</time></trkpt><trkpt lat="38.74378195073398" lon="16.34247324825121"><ele>770.0</ele><time>2026-04-19T12:15:53.999Z</time></trkpt><trkpt lat="38.74372727576954" lon="16.3423001221134"><ele>770.0</ele><time>2026-04-19T12:15:54.999Z</time></trkpt><trkpt lat="38.743667724613125" lon="16.342105775758153"><ele>770.0</ele><time>2026-04-19T12:15:55.999Z</time></trkpt><trkpt lat="38.74360827851798" lon="16.341908209443595"><ele>774.25</ele><time>2026-04-19T12:15:56.999Z</time></trkpt><trkpt lat="38.74354562442298" lon="16.341717217439047"><ele>778.5</ele><time>2026-04-19T12:15:57.999Z</time></trkpt><trkpt lat="38.74348687554185" lon="16.341545363196897"><ele>782.75</ele><time>2026-04-19T12:15:58.999Z</time></trkpt><trkpt lat="38.74343764639151" lon="16.341399094209923"><ele>787.0</ele><time>2026-04-19T12:15:59.999Z</time></trkpt><trkpt lat="38.74339795965666" lon="16.341263866485452"><ele>787.0</ele><time>2026-04-19T12:16:00.999Z</time></trkpt><trkpt lat="38.74336703322343" lon="16.341142792787082"><ele>787.0</ele><time>2026-04-19T12:16:01.999Z</time></trkpt><trkpt lat="38.74334556846951" lon="16.341017372569556"><ele>787.0</ele><time>2026-04-19T12:16:02.999Z</time></trkpt><trkpt lat="38.74333572592962" lon="16.340901738194283"><ele>787.0</ele><time>2026-04-19T12:16:03.999Z</time></trkpt><trkpt lat="38.74334286187562" lon="16.340787508042297"><ele>787.0</ele><time>2026-04-19T12:16:04.999Z</time></trkpt><trkpt lat="38.74336766760183" lon="16.340663746180073"><ele>786.9999999999999</ele><time>2026-04-19T12:16:05.999Z</time></trkpt><trkpt lat="38.74340816962298" lon="16.340550649451018"><ele>787.0</ele><time>2026-04-19T12:16:06.999Z</time></trkpt><trkpt lat="38.74341943390735" lon="16.340468812527156"><ele>787.0</ele><time>2026-04-19T12:16:07.999Z</time></trkpt><trkpt lat="38.74340433046059" lon="16.340363678602177"><ele>787.0</ele><time>2026-04-19T12:16:09.999Z</time></trkpt><trkpt lat="38.7432854448957" lon="16.340336291605233"><ele>786.9999999999999</ele><time>2026-04-19T12:16:11.999Z</time></trkpt><trkpt lat="38.74322302642599" lon="16.340298723588315"><ele>787.0</ele><time>2026-04-19T12:16:12.999Z</time></trkpt><trkpt lat="38.74317148217593" lon="16.340230517054103"><ele>785.8</ele><time>2026-04-19T12:16:13.999Z</time></trkpt><trkpt lat="38.74313358253602" lon="16.340151561379045"><ele>784.6</ele><time>2026-04-19T12:16:14.999Z</time></trkpt><trkpt lat="38.74310207578529" lon="16.34003112417428"><ele>783.4</ele><time>2026-04-19T12:16:15.999Z</time></trkpt><trkpt lat="38.74310197711592" lon="16.33983723398602"><ele>782.1999999999999</ele><time>2026-04-19T12:16:16.999Z</time></trkpt><trkpt lat="38.74303907369999" lon="16.339737554937845"><ele>781.0</ele><time>2026-04-19T12:16:17.999Z</time></trkpt><trkpt lat="38.74298923982284" lon="16.339658586907163"><ele>781.5999999999999</ele><time>2026-04-19T12:16:18.999Z</time></trkpt><trkpt lat="38.742940771199706" lon="16.339580674086342"><ele>782.2</ele><time>2026-04-19T12:16:19.999Z</time></trkpt><trkpt lat="38.74288520663711" lon="16.339491202037788"><ele>782.8</ele><time>2026-04-19T12:16:20.999Z</time></trkpt><trkpt lat="38.74282925993159" lon="16.339401114648332"><ele>783.4000000000001</ele><time>2026-04-19T12:16:21.999Z</time></trkpt><trkpt lat="38.74276733556327" lon="16.339301401814666"><ele>784.0</ele><time>2026-04-19T12:16:22.999Z</time></trkpt><trkpt lat="38.742694324720354" lon="16.339179508195503"><ele>784.0</ele><time>2026-04-19T12:16:23.999Z</time></trkpt><trkpt lat="38.74261170850965" lon="16.33904130213491"><ele>784.0</ele><time>2026-04-19T12:16:24.999Z</time></trkpt><trkpt lat="38.74252581436595" lon="16.338897612525372"><ele>784.0</ele><time>2026-04-19T12:16:25.999Z</time></trkpt><trkpt lat="38.74243484342406" lon="16.33874543010687"><ele>784.0</ele><time>2026-04-19T12:16:26.999Z</time></trkpt><trkpt lat="38.74236458059586" lon="16.338627889635234"><ele>781.2</ele><time>2026-04-19T12:16:27.999Z</time></trkpt><trkpt lat="38.742297309225314" lon="16.338515353479146"><ele>778.4000000000001</ele><time>2026-04-19T12:16:28.999Z</time></trkpt><trkpt lat="38.74222995943139" lon="16.33841944357385"><ele>775.6</ele><time>2026-04-19T12:16:29.999Z</time></trkpt><trkpt lat="38.7421845979537" lon="16.338330081479"><ele>772.8</ele><time>2026-04-19T12:16:30.999Z</time></trkpt><trkpt lat="38.74212843500612" lon="16.338239558986487"><ele>770.0</ele><time>2026-04-19T12:16:31.999Z</time></trkpt><trkpt lat="38.74205526498117" lon="16.33815098030447"><ele>770.0000000000001</ele><time>2026-04-19T12:16:32.999Z</time></trkpt><trkpt lat="38.74199220164309" lon="16.338085550860402"><ele>770.0</ele><time>2026-04-19T12:16:33.999Z</time></trkpt><trkpt lat="38.741929664770346" lon="16.338025077999752"><ele>770.0</ele><time>2026-04-19T12:16:34.999Z</time></trkpt><trkpt lat="38.74189508997157" lon="16.33794462181239"><ele>770.0</ele><time>2026-04-19T12:16:35.999Z</time></trkpt><trkpt lat="38.74180830312097" lon="16.337882273105375"><ele>770.0000000000001</ele><time>2026-04-19T12:16:36.999Z</time></trkpt><trkpt lat="38.74172555311075" lon="16.33782336083387"><ele>770.0</ele><time>2026-04-19T12:16:37.999Z</time></trkpt><trkpt lat="38.7416580524242" lon="16.3376722270199"><ele>769.4</ele><time>2026-04-19T12:16:38.999Z</time></trkpt><trkpt lat="38.741604579128335" lon="16.33755079354646"><ele>768.8</ele><time>2026-04-19T12:16:39.999Z</time></trkpt><trkpt lat="38.74156026848496" lon="16.33744833977464"><ele>768.2</ele><time>2026-04-19T12:16:40.999Z</time></trkpt><trkpt lat="38.741460027480514" lon="16.33736156035508"><ele>767.6</ele><time>2026-04-19T12:16:41.999Z</time></trkpt><trkpt lat="38.741383346607755" lon="16.337306459847603"><ele>767.0</ele><time>2026-04-19T12:16:42.999Z</time></trkpt><trkpt lat="38.741282617059156" lon="16.337216869697112"><ele>775.0</ele><time>2026-04-19T12:16:43.999Z</time></trkpt><trkpt lat="38.74072962230907" lon="16.337556124062434"><ele>775.0</ele><time>2026-04-19T12:16:44.999Z</time></trkpt><trkpt lat="38.740639769622845" lon="16.33749574417788"><ele>775.0</ele><time>2026-04-19T12:16:45.999Z</time></trkpt><trkpt lat="38.74054842680779" lon="16.337450479104422"><ele>775.0</ele><time>2026-04-19T12:16:46.999Z</time></trkpt><trkpt lat="38.740432974447934" lon="16.33741765112329"><ele>775.0</ele><time>2026-04-19T12:16:47.999Z</time></trkpt><trkpt lat="38.74032821096791" lon="16.33737967897173"><ele>775.0</ele><time>2026-04-19T12:16:48.999Z</time></trkpt><trkpt lat="38.740217147836034" lon="16.33732923391296"><ele>774.4</ele><time>2026-04-19T12:16:49.999Z</time></trkpt><trkpt lat="38.74012224621669" lon="16.337272539803273"><ele>773.8</ele><time>2026-04-19T12:16:50.999Z</time></trkpt><trkpt lat="38.74004528617998" lon="16.337189812151575"><ele>773.2</ele><time>2026-04-19T12:16:51.999Z</time></trkpt><trkpt lat="38.73996828363598" lon="16.337110256616928"><ele>772.6</ele><time>2026-04-19T12:16:52.999Z</time></trkpt><trkpt lat="38.73989259054202" lon="16.337043839241392"><ele>772.0</ele><time>2026-04-19T12:16:53.999Z</time></trkpt><trkpt lat="38.73982729283567" lon="16.33696853244933"><ele>771.9999999999999</ele><time>2026-04-19T12:16:54.999Z</time></trkpt><trkpt lat="38.73977481573096" lon="16.336876838346388"><ele>772.0</ele><time>2026-04-19T12:16:55.999Z</time></trkpt><trkpt lat="38.73973890032956" lon="16.33677450986342"><ele>772.0</ele><time>2026-04-19T12:16:56.999Z</time></trkpt><trkpt lat="38.73971632612376" lon="16.336687470116207"><ele>772.0</ele><time>2026-04-19T12:16:57.999Z</time></trkpt><trkpt lat="38.739693901612206" lon="16.336587889221935"><ele>771.9999999999999</ele><time>2026-04-19T12:16:58.999Z</time></trkpt><trkpt lat="38.739667129103374" lon="16.336485645429256"><ele>772.0</ele><time>2026-04-19T12:16:59.999Z</time></trkpt><trkpt lat="38.73962815265103" lon="16.336403373287855"><ele>771.4999999999999</ele><time>2026-04-19T12:17:00.999Z</time></trkpt><trkpt lat="38.739529310426995" lon="16.336324410944957"><ele>771.0</ele><time>2026-04-19T12:17:02.999Z</time></trkpt><trkpt lat="38.73947980285697" lon="16.33625754300234"><ele>770.5</ele><time>2026-04-19T12:17:03.999Z</time></trkpt><trkpt lat="38.73943029952806" lon="16.336187938242638"><ele>770.0</ele><time>2026-04-19T12:17:04.999Z</time></trkpt><trkpt lat="38.73939212869804" lon="16.33611340599856"><ele>769.4999999999999</ele><time>2026-04-19T12:17:05.999Z</time></trkpt><trkpt lat="38.73937369616788" lon="16.33603459153247"><ele>769.0</ele><time>2026-04-19T12:17:06.999Z</time></trkpt><trkpt lat="38.739359017410266" lon="16.335942286209665"><ele>768.9999999999999</ele><time>2026-04-19T12:17:07.999Z</time></trkpt><trkpt lat="38.739335545988666" lon="16.335853004628806"><ele>769.0</ele><time>2026-04-19T12:17:08.999Z</time></trkpt><trkpt lat="38.73930002777464" lon="16.335765572572594"><ele>769.0</ele><time>2026-04-19T12:17:09.999Z</time></trkpt><trkpt lat="38.739248865881976" lon="16.335680273071432"><ele>769.0</ele><time>2026-04-19T12:17:10.999Z</time></trkpt><trkpt lat="38.73919198801654" lon="16.335593753156466"><ele>768.9999999999999</ele><time>2026-04-19T12:17:11.999Z</time></trkpt><trkpt lat="38.739131380911985" lon="16.335509255911408"><ele>769.0</ele><time>2026-04-19T12:17:12.999Z</time></trkpt><trkpt lat="38.73905343480415" lon="16.33544923210491"><ele>764.0</ele><time>2026-04-19T12:17:13.999Z</time></trkpt><trkpt lat="38.738954940316255" lon="16.335380712732654"><ele>759.0</ele><time>2026-04-19T12:17:14.999Z</time></trkpt><trkpt lat="38.738863092672325" lon="16.335315414791943"><ele>754.0</ele><time>2026-04-19T12:17:15.999Z</time></trkpt><trkpt lat="38.73876840855466" lon="16.335237937039746"><ele>749.0</ele><time>2026-04-19T12:17:16.999Z</time></trkpt><trkpt lat="38.73866950475677" lon="16.33514696289845"><ele>749.0</ele><time>2026-04-19T12:17:17.999Z</time></trkpt><trkpt lat="38.73858390381688" lon="16.335079758877313"><ele>749.0</ele><time>2026-04-19T12:17:18.999Z</time></trkpt><trkpt lat="38.738479099735976" lon="16.33502459544059"><ele>749.0</ele><time>2026-04-19T12:17:19.999Z</time></trkpt><trkpt lat="38.73839726810165" lon="16.33497294805563"><ele>749.0</ele><time>2026-04-19T12:17:20.999Z</time></trkpt><trkpt lat="38.73832195515555" lon="16.334889245980193"><ele>749.0</ele><time>2026-04-19T12:17:21.999Z</time></trkpt><trkpt lat="38.738272483816125" lon="16.33479404784591"><ele>746.2</ele><time>2026-04-19T12:17:22.999Z</time></trkpt><trkpt lat="38.738243512278174" lon="16.334682312315955"><ele>743.4000000000001</ele><time>2026-04-19T12:17:23.999Z</time></trkpt><trkpt lat="38.73821871094204" lon="16.33456554023041"><ele>740.6</ele><time>2026-04-19T12:17:24.999Z</time></trkpt><trkpt lat="38.73817827858223" lon="16.334441805660283"><ele>737.8</ele><time>2026-04-19T12:17:25.999Z</time></trkpt><trkpt lat="38.738121905065206" lon="16.334348637067052"><ele>735.0</ele><time>2026-04-19T12:17:26.999Z</time></trkpt><trkpt lat="38.73805398383094" lon="16.334252452758363"><ele>735.0</ele><time>2026-04-19T12:17:27.999Z</time></trkpt><trkpt lat="38.73796412603418" lon="16.334153114612707"><ele>735.0</ele><time>2026-04-19T12:17:28.999Z</time></trkpt><trkpt lat="38.737881275720255" lon="16.334037920689745"><ele>735.0</ele><time>2026-04-19T12:17:29.999Z</time></trkpt><trkpt lat="38.737806333115415" lon="16.33393924982613"><ele>735.0</ele><time>2026-04-19T12:17:30.999Z</time></trkpt><trkpt lat="38.73772423201552" lon="16.33385872805558"><ele>734.0</ele><time>2026-04-19T12:17:31.999Z</time></trkpt><trkpt lat="38.73764150332451" lon="16.33382524873762"><ele>733.0</ele><time>2026-04-19T12:17:32.999Z</time></trkpt><trkpt lat="38.73754996882677" lon="16.333816455256976"><ele>732.0</ele><time>2026-04-19T12:17:33.999Z</time></trkpt><trkpt lat="38.73746475864444" lon="16.33380135012764"><ele>731.0</ele><time>2026-04-19T12:17:34.999Z</time></trkpt><trkpt lat="38.73738533800601" lon="16.333743991884756"><ele>730.0</ele><time>2026-04-19T12:17:35.999Z</time></trkpt><trkpt lat="38.73729693559234" lon="16.333666530107905"><ele>730.0</ele><time>2026-04-19T12:17:36.999Z</time></trkpt><trkpt lat="38.73718608388447" lon="16.333603928869323"><ele>730.0</ele><time>2026-04-19T12:17:37.999Z</time></trkpt><trkpt lat="38.73707545958663" lon="16.333535946192608"><ele>730.0</ele><time>2026-04-19T12:17:38.999Z</time></trkpt><trkpt lat="38.736961116123894" lon="16.333484902014728"><ele>730.0</ele><time>2026-04-19T12:17:39.999Z</time></trkpt><trkpt lat="38.73687123546859" lon="16.333445955687033"><ele>729.6666666666667</ele><time>2026-04-19T12:17:40.999Z</time></trkpt><trkpt lat="38.73679406541328" lon="16.333412047386805"><ele>729.3333333333334</ele><time>2026-04-19T12:17:41.999Z</time></trkpt><trkpt lat="38.73672492848043" lon="16.333383328815398"><ele>729.0</ele><time>2026-04-19T12:17:42.999Z</time></trkpt><trkpt lat="38.73664956375167" lon="16.333388460386068"><ele>728.6666666666666</ele><time>2026-04-19T12:17:43.999Z</time></trkpt><trkpt lat="38.73658294614079" lon="16.333413714275093"><ele>728.3333333333333</ele><time>2026-04-19T12:17:44.999Z</time></trkpt><trkpt lat="38.73651765395615" lon="16.333432784931382"><ele>728.0</ele><time>2026-04-19T12:17:45.999Z</time></trkpt><trkpt lat="38.73641360455713" lon="16.333495652617884"><ele>728.0</ele><time>2026-04-19T12:17:47.999Z</time></trkpt><trkpt lat="38.73634263262832" lon="16.333483685143648"><ele>728.0</ele><time>2026-04-19T12:17:49.999Z</time></trkpt><trkpt lat="38.73630542855064" lon="16.33341386236566"><ele>728.0</ele><time>2026-04-19T12:17:51.999Z</time></trkpt><trkpt lat="38.73625935901391" lon="16.333292648331835"><ele>728.0</ele><time>2026-04-19T12:17:53.999Z</time></trkpt><trkpt lat="38.736196665798715" lon="16.333245391749877"><ele>728.0</ele><time>2026-04-19T12:17:54.999Z</time></trkpt><trkpt lat="38.736135701929236" lon="16.33319223520617"><ele>728.0</ele><time>2026-04-19T12:17:55.999Z</time></trkpt><trkpt lat="38.73608311598955" lon="16.333068849528832"><ele>724.2</ele><time>2026-04-19T12:17:57.999Z</time></trkpt><trkpt lat="38.73609506727374" lon="16.3329582651506"><ele>720.4</ele><time>2026-04-19T12:17:58.999Z</time></trkpt><trkpt lat="38.73612489300616" lon="16.332836523220195"><ele>716.6</ele><time>2026-04-19T12:17:59.999Z</time></trkpt><trkpt lat="38.736176290414996" lon="16.33271116619145"><ele>712.8000000000001</ele><time>2026-04-19T12:18:00.999Z</time></trkpt><trkpt lat="38.736225112782314" lon="16.332583912856233"><ele>709.0</ele><time>2026-04-19T12:18:01.999Z</time></trkpt><trkpt lat="38.73627474173721" lon="16.332459791500092"><ele>709.0</ele><time>2026-04-19T12:18:02.999Z</time></trkpt><trkpt lat="38.73631127483216" lon="16.332358593533044"><ele>709.0</ele><time>2026-04-19T12:18:03.999Z</time></trkpt><trkpt lat="38.73633373670436" lon="16.332270716114618"><ele>709.0</ele><time>2026-04-19T12:18:04.999Z</time></trkpt><trkpt lat="38.73635651667227" lon="16.33217432394659"><ele>709.0</ele><time>2026-04-19T12:18:05.999Z</time></trkpt><trkpt lat="38.736368774620665" lon="16.332092048775202"><ele>709.0</ele><time>2026-04-19T12:18:06.999Z</time></trkpt><trkpt lat="38.736417815533834" lon="16.33195013629847"><ele>709.0</ele><time>2026-04-19T12:18:08.999Z</time></trkpt><trkpt lat="38.736499480052004" lon="16.331861793767835"><ele>706.4000000000001</ele><time>2026-04-19T12:18:10.999Z</time></trkpt><trkpt lat="38.73657166129391" lon="16.331801446134044"><ele>703.8</ele><time>2026-04-19T12:18:12.999Z</time></trkpt><trkpt lat="38.73663865082142" lon="16.33165667792055"><ele>701.2</ele><time>2026-04-19T12:18:14.999Z</time></trkpt><trkpt lat="38.73668977851867" lon="16.331557715330153"><ele>698.5999999999999</ele><time>2026-04-19T12:18:15.999Z</time></trkpt><trkpt lat="38.73672545046584" lon="16.33147502556701"><ele>696.0</ele><time>2026-04-19T12:18:16.999Z</time></trkpt><trkpt lat="38.73675966547883" lon="16.331359406896706"><ele>693.75</ele><time>2026-04-19T12:18:17.999Z</time></trkpt><trkpt lat="38.73678180128772" lon="16.331212388851135"><ele>691.5</ele><time>2026-04-19T12:18:18.999Z</time></trkpt><trkpt lat="38.73676167670329" lon="16.33106452012806"><ele>689.25</ele><time>2026-04-19T12:18:19.999Z</time></trkpt><trkpt lat="38.73668469322972" lon="16.33096229168343"><ele>687.0</ele><time>2026-04-19T12:18:20.999Z</time></trkpt><trkpt lat="38.73661555041576" lon="16.330831213335173"><ele>687.0</ele><time>2026-04-19T12:18:21.999Z</time></trkpt><trkpt lat="38.73651112248818" lon="16.330739330494254"><ele>687.0</ele><time>2026-04-19T12:18:22.999Z</time></trkpt><trkpt lat="38.73640600008463" lon="16.33065541438996"><ele>687.0</ele><time>2026-04-19T12:18:23.999Z</time></trkpt><trkpt lat="38.736298045031994" lon="16.330571783919424"><ele>687.0</ele><time>2026-04-19T12:18:24.999Z</time></trkpt><trkpt lat="38.73621393186941" lon="16.33049385125348"><ele>686.6</ele><time>2026-04-19T12:18:25.999Z</time></trkpt><trkpt lat="38.736139145976644" lon="16.33041158176115"><ele>686.2</ele><time>2026-04-19T12:18:26.999Z</time></trkpt><trkpt lat="38.73606755224297" lon="16.330294673335523"><ele>685.8</ele><time>2026-04-19T12:18:27.999Z</time></trkpt><trkpt lat="38.73602245405073" lon="16.330170976228917"><ele>685.4</ele><time>2026-04-19T12:18:28.999Z</time></trkpt><trkpt lat="38.73597046869588" lon="16.330067808089208"><ele>685.0</ele><time>2026-04-19T12:18:29.999Z</time></trkpt><trkpt lat="38.7359045758552" lon="16.329982623083485"><ele>685.0</ele><time>2026-04-19T12:18:30.999Z</time></trkpt><trkpt lat="38.73582714545124" lon="16.32989997557637"><ele>685.0</ele><time>2026-04-19T12:18:31.999Z</time></trkpt><trkpt lat="38.73574655760448" lon="16.329822549916233"><ele>685.0</ele><time>2026-04-19T12:18:32.999Z</time></trkpt><trkpt lat="38.73566590495725" lon="16.329748318975277"><ele>685.0</ele><time>2026-04-19T12:18:33.999Z</time></trkpt><trkpt lat="38.73557601190134" lon="16.329672039861094"><ele>685.0</ele><time>2026-04-19T12:18:34.999Z</time></trkpt><trkpt lat="38.73547794927553" lon="16.329590695356423"><ele>685.75</ele><time>2026-04-19T12:18:35.999Z</time></trkpt><trkpt lat="38.73538058257632" lon="16.329503641325203"><ele>686.5</ele><time>2026-04-19T12:18:36.999Z</time></trkpt><trkpt lat="38.7352889312749" lon="16.3294036786068"><ele>687.25</ele><time>2026-04-19T12:18:37.999Z</time></trkpt><trkpt lat="38.735197464672524" lon="16.329311081443397"><ele>688.0</ele><time>2026-04-19T12:18:38.999Z</time></trkpt><trkpt lat="38.7351018106316" lon="16.32923458211977"><ele>688.0</ele><time>2026-04-19T12:18:39.999Z</time></trkpt><trkpt lat="38.734999804689615" lon="16.32916932388337"><ele>688.0</ele><time>2026-04-19T12:18:40.999Z</time></trkpt><trkpt lat="38.73489665950744" lon="16.329095066529298"><ele>688.0</ele><time>2026-04-19T12:18:41.999Z</time></trkpt><trkpt lat="38.734801526613325" lon="16.328996020530052"><ele>688.0</ele><time>2026-04-19T12:18:42.999Z</time></trkpt><trkpt lat="38.73471480498814" lon="16.328892093399503"><ele>687.5999999999999</ele><time>2026-04-19T12:18:43.999Z</time></trkpt><trkpt lat="38.73463156210285" lon="16.32879901766623"><ele>687.1999999999999</ele><time>2026-04-19T12:18:44.999Z</time></trkpt><trkpt lat="38.73455931705911" lon="16.32870146693496"><ele>686.8</ele><time>2026-04-19T12:18:45.999Z</time></trkpt><trkpt lat="38.734486948854055" lon="16.32860875133333"><ele>686.4</ele><time>2026-04-19T12:18:46.999Z</time></trkpt><trkpt lat="38.73441485920878" lon="16.328525820315523"><ele>686.0</ele><time>2026-04-19T12:18:47.999Z</time></trkpt><trkpt lat="38.734352495790105" lon="16.328437585067768"><ele>686.0</ele><time>2026-04-19T12:18:48.999Z</time></trkpt><trkpt lat="38.73428806090598" lon="16.328357167998124"><ele>686.0</ele><time>2026-04-19T12:18:49.999Z</time></trkpt><trkpt lat="38.734202826869094" lon="16.328292042791897"><ele>686.0</ele><time>2026-04-19T12:18:50.999Z</time></trkpt><trkpt lat="38.73410247816427" lon="16.328218253582058"><ele>686.0</ele><time>2026-04-19T12:18:51.999Z</time></trkpt><trkpt lat="38.733989682083724" lon="16.328166808250078"><ele>686.0</ele><time>2026-04-19T12:18:52.999Z</time></trkpt><trkpt lat="38.73387659990996" lon="16.328128890866356"><ele>686.0</ele><time>2026-04-19T12:18:53.999Z</time></trkpt><trkpt lat="38.73376440512803" lon="16.328103796848918"><ele>686.0</ele><time>2026-04-19T12:18:54.999Z</time></trkpt><trkpt lat="38.73365115910103" lon="16.32808182949118"><ele>686.0</ele><time>2026-04-19T12:18:55.999Z</time></trkpt><trkpt lat="38.733538622577456" lon="16.32805387860475"><ele>686.0</ele><time>2026-04-19T12:18:56.999Z</time></trkpt><trkpt lat="38.733430060409226" lon="16.328018665102476"><ele>684.8</ele><time>2026-04-19T12:18:57.999Z</time></trkpt><trkpt lat="38.73332934123332" lon="16.327978521916226"><ele>683.5999999999999</ele><time>2026-04-19T12:18:58.999Z</time></trkpt><trkpt lat="38.73322478238175" lon="16.327935527342923"><ele>682.4</ele><time>2026-04-19T12:18:59.999Z</time></trkpt><trkpt lat="38.73311886213496" lon="16.32790473208923"><ele>681.2</ele><time>2026-04-19T12:19:00.999Z</time></trkpt><trkpt lat="38.733024241245005" lon="16.327894623894572"><ele>680.0</ele><time>2026-04-19T12:19:01.999Z</time></trkpt><trkpt lat="38.732932525083505" lon="16.327882385054423"><ele>680.0</ele><time>2026-04-19T12:19:02.999Z</time></trkpt><trkpt lat="38.73284042103368" lon="16.327869587132028"><ele>680.0</ele><time>2026-04-19T12:19:03.999Z</time></trkpt><trkpt lat="38.732743105818415" lon="16.32785606511558"><ele>680.0</ele><time>2026-04-19T12:19:04.999Z</time></trkpt><trkpt lat="38.73265059496961" lon="16.327844578556217"><ele>680.0</ele><time>2026-04-19T12:19:05.999Z</time></trkpt><trkpt lat="38.7325680320146" lon="16.32783502908265"><ele>680.0</ele><time>2026-04-19T12:19:06.999Z</time></trkpt><trkpt lat="38.732489279247446" lon="16.32782844983876"><ele>680.0</ele><time>2026-04-19T12:19:07.999Z</time></trkpt><trkpt lat="38.73240936675282" lon="16.327821716579006"><ele>680.0</ele><time>2026-04-19T12:19:08.999Z</time></trkpt><trkpt lat="38.732329057721145" lon="16.327815326101376"><ele>680.0</ele><time>2026-04-19T12:19:09.999Z</time></trkpt><trkpt lat="38.732256091121975" lon="16.327810740914064"><ele>680.0</ele><time>2026-04-19T12:19:10.999Z</time></trkpt><trkpt lat="38.732190287097204" lon="16.32780915053262"><ele>680.0</ele><time>2026-04-19T12:19:11.999Z</time></trkpt><trkpt lat="38.7320959387867" lon="16.327809616904975"><ele>680.0</ele><time>2026-04-19T12:19:13.999Z</time></trkpt><trkpt lat="38.73199693192278" lon="16.32777396397192"><ele>680.0</ele><time>2026-04-19T12:19:15.999Z</time></trkpt><trkpt lat="38.73194597119237" lon="16.3277152228415"><ele>680.0</ele><time>2026-04-19T12:19:16.999Z</time></trkpt><trkpt lat="38.73189171112042" lon="16.32761669027845"><ele>680.0</ele><time>2026-04-19T12:19:17.999Z</time></trkpt><trkpt lat="38.73187778606461" lon="16.327450127788044"><ele>680.0</ele><time>2026-04-19T12:19:18.999Z</time></trkpt><trkpt lat="38.731851101494755" lon="16.327301229325194"><ele>680.0</ele><time>2026-04-19T12:19:19.999Z</time></trkpt><trkpt lat="38.73182991090153" lon="16.327142568201314"><ele>682.25</ele><time>2026-04-19T12:19:20.999Z</time></trkpt><trkpt lat="38.73178269900465" lon="16.326981229197635"><ele>684.5</ele><time>2026-04-19T12:19:21.999Z</time></trkpt><trkpt lat="38.73176697957621" lon="16.326830741680798"><ele>686.75</ele><time>2026-04-19T12:19:22.999Z</time></trkpt><trkpt lat="38.73175284661134" lon="16.32669419165172"><ele>689.0</ele><time>2026-04-19T12:19:23.999Z</time></trkpt><trkpt lat="38.73174104426084" lon="16.32656310254479"><ele>689.0</ele><time>2026-04-19T12:19:24.999Z</time></trkpt><trkpt lat="38.73173632638571" lon="16.32642365668345"><ele>689.0</ele><time>2026-04-19T12:19:25.999Z</time></trkpt><trkpt lat="38.73173439492523" lon="16.326269282014085"><ele>689.0</ele><time>2026-04-19T12:19:26.999Z</time></trkpt><trkpt lat="38.731689628851505" lon="16.32613188495014"><ele>689.0</ele><time>2026-04-19T12:19:27.999Z</time></trkpt><trkpt lat="38.73163605480339" lon="16.326011243614694"><ele>687.0</ele><time>2026-04-19T12:19:28.999Z</time></trkpt><trkpt lat="38.73160141474514" lon="16.325881936624278"><ele>685.0</ele><time>2026-04-19T12:19:29.999Z</time></trkpt><trkpt lat="38.73154656760684" lon="16.32576207855068"><ele>683.0</ele><time>2026-04-19T12:19:30.999Z</time></trkpt><trkpt lat="38.73147284053134" lon="16.325650621507947"><ele>681.0</ele><time>2026-04-19T12:19:31.999Z</time></trkpt><trkpt lat="38.73140290684557" lon="16.325554566820898"><ele>679.0</ele><time>2026-04-19T12:19:32.999Z</time></trkpt><trkpt lat="38.73133876660257" lon="16.32546646949098"><ele>679.0</ele><time>2026-04-19T12:19:33.999Z</time></trkpt><trkpt lat="38.73127767503103" lon="16.325382559544938"><ele>679.0</ele><time>2026-04-19T12:19:34.999Z</time></trkpt><trkpt lat="38.73117520809888" lon="16.32533244631075"><ele>679.0</ele><time>2026-04-19T12:19:35.999Z</time></trkpt><trkpt lat="38.731102569489124" lon="16.325224295221386"><ele>679.0</ele><time>2026-04-19T12:19:36.999Z</time></trkpt><trkpt lat="38.731027042620326" lon="16.325117094297987"><ele>679.0</ele><time>2026-04-19T12:19:37.999Z</time></trkpt><trkpt lat="38.73097504261747" lon="16.324981988028032"><ele>679.0</ele><time>2026-04-19T12:19:38.999Z</time></trkpt><trkpt lat="38.730899591615895" lon="16.324897065474175"><ele>679.0</ele><time>2026-04-19T12:19:39.999Z</time></trkpt><trkpt lat="38.73082637444126" lon="16.324823524187188"><ele>679.0</ele><time>2026-04-19T12:19:40.999Z</time></trkpt><trkpt lat="38.730757169028685" lon="16.324768182965794"><ele>679.0</ele><time>2026-04-19T12:19:41.999Z</time></trkpt><trkpt lat="38.730685653044844" lon="16.32471928836553"><ele>679.0</ele><time>2026-04-19T12:19:42.999Z</time></trkpt><trkpt lat="38.730604806928696" lon="16.324679173771873"><ele>679.0</ele><time>2026-04-19T12:19:43.999Z</time></trkpt><trkpt lat="38.73053105487678" lon="16.32464405791275"><ele>677.6</ele><time>2026-04-19T12:19:44.999Z</time></trkpt><trkpt lat="38.73045875221621" lon="16.32461166134549"><ele>676.2</ele><time>2026-04-19T12:19:45.999Z</time></trkpt><trkpt lat="38.73037768223214" lon="16.32457873889398"><ele>674.8000000000001</ele><time>2026-04-19T12:19:46.999Z</time></trkpt><trkpt lat="38.73028052148181" lon="16.324564225426617"><ele>673.4000000000001</ele><time>2026-04-19T12:19:47.999Z</time></trkpt><trkpt lat="38.73018558393853" lon="16.324517128134396"><ele>672.0</ele><time>2026-04-19T12:19:48.999Z</time></trkpt><trkpt lat="38.73008983625619" lon="16.32449508818095"><ele>672.0</ele><time>2026-04-19T12:19:49.999Z</time></trkpt><trkpt lat="38.73000204344721" lon="16.32444786006473"><ele>672.0</ele><time>2026-04-19T12:19:50.999Z</time></trkpt><trkpt lat="38.72990652165631" lon="16.324425093073366"><ele>672.0</ele><time>2026-04-19T12:19:51.999Z</time></trkpt><trkpt lat="38.729811526364585" lon="16.324398764319877"><ele>672.0</ele><time>2026-04-19T12:19:52.999Z</time></trkpt><trkpt lat="38.72972548621491" lon="16.32435791532517"><ele>672.0</ele><time>2026-04-19T12:19:53.999Z</time></trkpt><trkpt lat="38.72963863366232" lon="16.324308528872418"><ele>672.0</ele><time>2026-04-19T12:19:54.999Z</time></trkpt><trkpt lat="38.72953652130652" lon="16.324257944789053"><ele>672.0</ele><time>2026-04-19T12:19:55.999Z</time></trkpt><trkpt lat="38.72946070139519" lon="16.324159651116478"><ele>672.0</ele><time>2026-04-19T12:19:56.999Z</time></trkpt><trkpt lat="38.72939161103328" lon="16.324053297699468"><ele>672.0</ele><time>2026-04-19T12:19:57.999Z</time></trkpt><trkpt lat="38.729294463939425" lon="16.32396752578549"><ele>672.0</ele><time>2026-04-19T12:19:58.999Z</time></trkpt><trkpt lat="38.729187476730026" lon="16.323903659709398"><ele>670.5</ele><time>2026-04-19T12:19:59.999Z</time></trkpt><trkpt lat="38.729077947646715" lon="16.323855018181035"><ele>669.0</ele><time>2026-04-19T12:20:00.999Z</time></trkpt><trkpt lat="38.72896372911357" lon="16.323820442021926"><ele>667.5</ele><time>2026-04-19T12:20:01.999Z</time></trkpt><trkpt lat="38.72884453546087" lon="16.32379955767873"><ele>666.0</ele><time>2026-04-19T12:20:02.999Z</time></trkpt><trkpt lat="38.728731337606476" lon="16.32379871908403"><ele>666.0</ele><time>2026-04-19T12:20:03.999Z</time></trkpt><trkpt lat="38.72862879899152" lon="16.323801279712082"><ele>666.0</ele><time>2026-04-19T12:20:04.999Z</time></trkpt><trkpt lat="38.72853225828817" lon="16.32382192780961"><ele>666.0</ele><time>2026-04-19T12:20:05.999Z</time></trkpt><trkpt lat="38.7284316037735" lon="16.323814455733977"><ele>666.0</ele><time>2026-04-19T12:20:06.999Z</time></trkpt><trkpt lat="38.728328065911086" lon="16.323814928280964"><ele>666.0</ele><time>2026-04-19T12:20:07.999Z</time></trkpt><trkpt lat="38.72823062719653" lon="16.323825092194756"><ele>667.0</ele><time>2026-04-19T12:20:08.999Z</time></trkpt><trkpt lat="38.728151796986054" lon="16.3238260598593"><ele>668.0</ele><time>2026-04-19T12:20:09.999Z</time></trkpt><trkpt lat="38.72807952546231" lon="16.323829937997754"><ele>669.0</ele><time>2026-04-19T12:20:10.999Z</time></trkpt><trkpt lat="38.7279733152374" lon="16.32381098421171"><ele>670.0</ele><time>2026-04-19T12:20:12.999Z</time></trkpt><trkpt lat="38.72793817157978" lon="16.32369063731611"><ele>671.0</ele><time>2026-04-19T12:20:13.999Z</time></trkpt><trkpt lat="38.72790829020737" lon="16.323581828128987"><ele>672.0</ele><time>2026-04-19T12:20:14.999Z</time></trkpt><trkpt lat="38.727869403925666" lon="16.32346389508018"><ele>672.0</ele><time>2026-04-19T12:20:15.999Z</time></trkpt><trkpt lat="38.7278400746008" lon="16.3233405483348"><ele>672.0</ele><time>2026-04-19T12:20:17Z</time></trkpt><trkpt lat="38.72781246479056" lon="16.323226327628287"><ele>672.0</ele><time>2026-04-19T12:20:18Z</time></trkpt><trkpt lat="38.72777967916063" lon="16.32311706320974"><ele>672.0</ele><time>2026-04-19T12:20:19Z</time></trkpt><trkpt lat="38.72774785672161" lon="16.323008275650142"><ele>672.0</ele><time>2026-04-19T12:20:20Z</time></trkpt><trkpt lat="38.7277265114579" lon="16.322901827927893"><ele>670.8</ele><time>2026-04-19T12:20:21Z</time></trkpt><trkpt lat="38.72770377009979" lon="16.322804005209406"><ele>669.6</ele><time>2026-04-19T12:20:22Z</time></trkpt><trkpt lat="38.72768859391051" lon="16.322717160844658"><ele>668.4</ele><time>2026-04-19T12:20:23Z</time></trkpt><trkpt lat="38.727671143104416" lon="16.322575632390215"><ele>667.1999999999999</ele><time>2026-04-19T12:20:25Z</time></trkpt><trkpt lat="38.72768236785312" lon="16.322432798398765"><ele>666.0</ele><time>2026-04-19T12:20:27Z</time></trkpt><trkpt lat="38.72773220437568" lon="16.32232694378284"><ele>665.8</ele><time>2026-04-19T12:20:29Z</time></trkpt><trkpt lat="38.727785973509285" lon="16.322268332945015"><ele>665.5999999999999</ele><time>2026-04-19T12:20:30Z</time></trkpt><trkpt lat="38.72778221533711" lon="16.32207084139272"><ele>665.4</ele><time>2026-04-19T12:20:31Z</time></trkpt><trkpt lat="38.72785929144016" lon="16.322005774242662"><ele>665.2</ele><time>2026-04-19T12:20:32Z</time></trkpt><trkpt lat="38.72793095899076" lon="16.3219484390295"><ele>665.0</ele><time>2026-04-19T12:20:33Z</time></trkpt><trkpt lat="38.728003583803286" lon="16.32190725345312"><ele>663.5</ele><time>2026-04-19T12:20:34Z</time></trkpt><trkpt lat="38.72805811626974" lon="16.32183956104419"><ele>662.0</ele><time>2026-04-19T12:20:35Z</time></trkpt><trkpt lat="38.72811751421587" lon="16.321780533239178"><ele>660.5</ele><time>2026-04-19T12:20:36Z</time></trkpt><trkpt lat="38.728176819604364" lon="16.321715863883686"><ele>659.0</ele><time>2026-04-19T12:20:37Z</time></trkpt><trkpt lat="38.72838765829606" lon="16.321432928569966"><ele>655.5</ele><time>2026-04-19T12:20:39Z</time></trkpt><trkpt lat="38.728200732611676" lon="16.321239933099978"><ele>652.0</ele><time>2026-04-19T12:20:40Z</time></trkpt><trkpt lat="38.72810905189719" lon="16.32119321682167"><ele>648.5</ele><time>2026-04-19T12:20:41Z</time></trkpt><trkpt lat="38.728039069178735" lon="16.321156431943248"><ele>645.0</ele><time>2026-04-19T12:20:42Z</time></trkpt><trkpt lat="38.727963652252896" lon="16.32110471479149"><ele>645.0</ele><time>2026-04-19T12:20:43Z</time></trkpt><trkpt lat="38.727892499619315" lon="16.321045951471145"><ele>645.0</ele><time>2026-04-19T12:20:44Z</time></trkpt><trkpt lat="38.72782965065917" lon="16.320984205840393"><ele>645.0</ele><time>2026-04-19T12:20:45Z</time></trkpt><trkpt lat="38.72774262155899" lon="16.32088649524568"><ele>645.0</ele><time>2026-04-19T12:20:46Z</time></trkpt><trkpt lat="38.72760734948812" lon="16.3207952511185"><ele>645.0</ele><time>2026-04-19T12:20:47Z</time></trkpt><trkpt lat="38.72753803342541" lon="16.320760986121535"><ele>645.0</ele><time>2026-04-19T12:20:48Z</time></trkpt><trkpt lat="38.727470057452436" lon="16.32072290748911"><ele>645.0</ele><time>2026-04-19T12:20:53Z</time></trkpt><trkpt lat="38.72744539611102" lon="16.320624816200908"><ele>645.0</ele><time>2026-04-19T12:20:57Z</time></trkpt><trkpt lat="38.7274472999367" lon="16.320491758797868"><ele>645.0</ele><time>2026-04-19T12:21:00Z</time></trkpt><trkpt lat="38.7275243256024" lon="16.320344552545844"><ele>645.0</ele><time>2026-04-19T12:21:02Z</time></trkpt><trkpt lat="38.72759918141009" lon="16.320254840684985"><ele>645.2</ele><time>2026-04-19T12:21:03Z</time></trkpt><trkpt lat="38.72765387769793" lon="16.320145708673945"><ele>645.4</ele><time>2026-04-19T12:21:04Z</time></trkpt><trkpt lat="38.72767910066162" lon="16.320013261564633"><ele>645.5999999999999</ele><time>2026-04-19T12:21:05Z</time></trkpt><trkpt lat="38.72770404388945" lon="16.31988304666503"><ele>645.8</ele><time>2026-04-19T12:21:06Z</time></trkpt><trkpt lat="38.72771724939485" lon="16.31973428649677"><ele>646.0</ele><time>2026-04-19T12:21:07Z</time></trkpt><trkpt lat="38.72769343283887" lon="16.319577549012592"><ele>646.5999999999999</ele><time>2026-04-19T12:21:08Z</time></trkpt><trkpt lat="38.72765064190292" lon="16.31943449620722"><ele>647.2</ele><time>2026-04-19T12:21:09Z</time></trkpt><trkpt lat="38.72763607144669" lon="16.31930160402524"><ele>647.8</ele><time>2026-04-19T12:21:10Z</time></trkpt><trkpt lat="38.727613514901904" lon="16.31919413191825"><ele>648.4000000000001</ele><time>2026-04-19T12:21:11Z</time></trkpt><trkpt lat="38.72760646396206" lon="16.319097357852836"><ele>649.0</ele><time>2026-04-19T12:21:12Z</time></trkpt><trkpt lat="38.72758110035082" lon="16.31894127439771"><ele>648.6</ele><time>2026-04-19T12:21:14Z</time></trkpt><trkpt lat="38.72755693239526" lon="16.318804865164825"><ele>648.2</ele><time>2026-04-19T12:21:16Z</time></trkpt><trkpt lat="38.727509902825474" lon="16.318666264608925"><ele>647.8000000000001</ele><time>2026-04-19T12:21:18Z</time></trkpt><trkpt lat="38.72747252083017" lon="16.318589207802514"><ele>647.4000000000001</ele><time>2026-04-19T12:21:19Z</time></trkpt><trkpt lat="38.727424471213666" lon="16.31850783054369"><ele>647.0</ele><time>2026-04-19T12:21:20Z</time></trkpt><trkpt lat="38.72736906578976" lon="16.318427890300562"><ele>647.0</ele><time>2026-04-19T12:21:21Z</time></trkpt><trkpt lat="38.727310366482946" lon="16.318350553378856"><ele>647.0</ele><time>2026-04-19T12:21:22Z</time></trkpt><trkpt lat="38.72725487256916" lon="16.318283404199555"><ele>647.0</ele><time>2026-04-19T12:21:23Z</time></trkpt><trkpt lat="38.727195672538215" lon="16.318212541358417"><ele>647.0</ele><time>2026-04-19T12:21:24Z</time></trkpt><trkpt lat="38.727139464079414" lon="16.318144749719355"><ele>647.0</ele><time>2026-04-19T12:21:25Z</time></trkpt><trkpt lat="38.72709167391895" lon="16.31808570616132"><ele>647.0</ele><time>2026-04-19T12:21:26Z</time></trkpt><trkpt lat="38.727028109822776" lon="16.318008963307587"><ele>648.5</ele><time>2026-04-19T12:21:28Z</time></trkpt><trkpt lat="38.7269740122367" lon="16.317955666301017"><ele>650.0</ele><time>2026-04-19T12:21:30Z</time></trkpt><trkpt lat="38.727029459469435" lon="16.31781599299522"><ele>651.5</ele><time>2026-04-19T12:21:32Z</time></trkpt><trkpt lat="38.727060929229935" lon="16.31772169335426"><ele>653.0</ele><time>2026-04-19T12:21:33Z</time></trkpt><trkpt lat="38.727092097418016" lon="16.31762476600275"><ele>654.5</ele><time>2026-04-19T12:21:34Z</time></trkpt><trkpt lat="38.72712656717365" lon="16.317520249260642"><ele>656.0</ele><time>2026-04-19T12:21:35Z</time></trkpt><trkpt lat="38.7271676471491" lon="16.317427830745597"><ele>655.9999999999999</ele><time>2026-04-19T12:21:36Z</time></trkpt><trkpt lat="38.72720129557362" lon="16.317329673298083"><ele>656.0</ele><time>2026-04-19T12:21:37Z</time></trkpt><trkpt lat="38.727246111412626" lon="16.317248992727517"><ele>656.0</ele><time>2026-04-19T12:21:38Z</time></trkpt><trkpt lat="38.72728843036184" lon="16.317168194914554"><ele>656.0</ele><time>2026-04-19T12:21:39Z</time></trkpt><trkpt lat="38.7273312863238" lon="16.317098325808562"><ele>656.0</ele><time>2026-04-19T12:21:40Z</time></trkpt><trkpt lat="38.72736324640627" lon="16.317019324065775"><ele>655.9999999999999</ele><time>2026-04-19T12:21:41Z</time></trkpt><trkpt lat="38.727392018044334" lon="16.31693369269075"><ele>656.0</ele><time>2026-04-19T12:21:42Z</time></trkpt><trkpt lat="38.72742824661474" lon="16.31685276530164"><ele>655.3333333333333</ele><time>2026-04-19T12:21:43Z</time></trkpt><trkpt lat="38.7274702480079" lon="16.316771921022156"><ele>654.6666666666666</ele><time>2026-04-19T12:21:44Z</time></trkpt><trkpt lat="38.72751052477539" lon="16.31669354979046"><ele>654.0</ele><time>2026-04-19T12:21:45Z</time></trkpt><trkpt lat="38.72755008758718" lon="16.316620363548665"><ele>653.3333333333334</ele><time>2026-04-19T12:21:46Z</time></trkpt><trkpt lat="38.72759665196629" lon="16.316497871012277"><ele>652.6666666666667</ele><time>2026-04-19T12:21:48Z</time></trkpt><trkpt lat="38.72764589572377" lon="16.316401267079982"><ele>652.0</ele><time>2026-04-19T12:21:50Z</time></trkpt><trkpt lat="38.72768569363777" lon="16.31632366056064"><ele>649.5</ele><time>2026-04-19T12:21:52Z</time></trkpt><trkpt lat="38.72773133167818" lon="16.31625615384432"><ele>647.0</ele><time>2026-04-19T12:21:54Z</time></trkpt><trkpt lat="38.72778946737323" lon="16.316188126883823"><ele>644.5</ele><time>2026-04-19T12:21:57Z</time></trkpt><trkpt lat="38.72783500375099" lon="16.316106488541667"><ele>642.0</ele><time>2026-04-19T12:22:01Z</time></trkpt><trkpt lat="38.727896521378405" lon="16.316043292303398"><ele>639.5</ele><time>2026-04-19T12:22:04Z</time></trkpt><trkpt lat="38.72794046181711" lon="16.315979712085788"><ele>637.0</ele><time>2026-04-19T12:22:06Z</time></trkpt><trkpt lat="38.727984008993126" lon="16.315893606470034"><ele>637.0</ele><time>2026-04-19T12:22:08Z</time></trkpt><trkpt lat="38.728040571097374" lon="16.315828372643256"><ele>637.0</ele><time>2026-04-19T12:22:10Z</time></trkpt><trkpt lat="38.72809084017662" lon="16.31577818476063"><ele>637.0</ele><time>2026-04-19T12:22:12Z</time></trkpt><trkpt lat="38.72809445241122" lon="16.3156869454193"><ele>637.0</ele><time>2026-04-19T12:22:26Z</time></trkpt><trkpt lat="38.72805589068429" lon="16.315587970977912"><ele>637.0</ele><time>2026-04-19T12:22:30Z</time></trkpt><trkpt lat="38.728006338875474" lon="16.315459966924575"><ele>637.0</ele><time>2026-04-19T12:22:32Z</time></trkpt><trkpt lat="38.727975845379795" lon="16.315356945656937"><ele>635.6</ele><time>2026-04-19T12:22:34Z</time></trkpt><trkpt lat="38.72792968251909" lon="16.315263909581194"><ele>634.2</ele><time>2026-04-19T12:22:37Z</time></trkpt><trkpt lat="38.72787553142745" lon="16.315165992883763"><ele>632.8</ele><time>2026-04-19T12:22:40Z</time></trkpt><trkpt lat="38.7278489847116" lon="16.315050465079803"><ele>631.4</ele><time>2026-04-19T12:22:42Z</time></trkpt><trkpt lat="38.727831224732334" lon="16.314941015646333"><ele>630.0</ele><time>2026-04-19T12:22:44Z</time></trkpt><trkpt lat="38.7278349249164" lon="16.314814849063332"><ele>627.8333333333334</ele><time>2026-04-19T12:22:46Z</time></trkpt><trkpt lat="38.72783963400036" lon="16.314728845461595"><ele>625.6666666666666</ele><time>2026-04-19T12:22:48Z</time></trkpt><trkpt lat="38.727841722427044" lon="16.314625061830956"><ele>623.5</ele><time>2026-04-19T12:22:51Z</time></trkpt><trkpt lat="38.72786280142562" lon="16.3145164177379"><ele>621.3333333333333</ele><time>2026-04-19T12:22:53Z</time></trkpt><trkpt lat="38.7278609917967" lon="16.314382134299056"><ele>619.1666666666666</ele><time>2026-04-19T12:22:55Z</time></trkpt><trkpt lat="38.72784173221807" lon="16.314299221447172"><ele>617.0</ele><time>2026-04-19T12:22:57Z</time></trkpt><trkpt lat="38.72782315962744" lon="16.314203157539144"><ele>617.0</ele><time>2026-04-19T12:23:00Z</time></trkpt><trkpt lat="38.727811081936935" lon="16.314114340984514"><ele>617.0</ele><time>2026-04-19T12:23:09Z</time></trkpt><trkpt lat="38.72777126585322" lon="16.314028076076355"><ele>617.0</ele><time>2026-04-19T12:23:13Z</time></trkpt><trkpt lat="38.72774182185747" lon="16.31393330203922"><ele>617.0</ele><time>2026-04-19T12:23:23Z</time></trkpt><trkpt lat="38.727714940101826" lon="16.313850054360444"><ele>617.0</ele><time>2026-04-19T12:23:27Z</time></trkpt><trkpt lat="38.72772705484417" lon="16.313765968069198"><ele>617.0</ele><time>2026-04-19T12:23:33Z</time></trkpt><trkpt lat="38.727751168453636" lon="16.313663990931886"><ele>617.0</ele><time>2026-04-19T12:23:37Z</time></trkpt><trkpt lat="38.727760869695835" lon="16.313582948493192"><ele>616.0</ele><time>2026-04-19T12:23:41Z</time></trkpt><trkpt lat="38.727755370638505" lon="16.31350137567355"><ele>615.0</ele><time>2026-04-19T12:23:45Z</time></trkpt><trkpt lat="38.727786060966125" lon="16.313413455754958"><ele>614.0</ele><time>2026-04-19T12:23:52Z</time></trkpt><trkpt lat="38.727814862215126" lon="16.31333040434199"><ele>613.0</ele><time>2026-04-19T12:24:02Z</time></trkpt><trkpt lat="38.72785333553342" lon="16.31324960970941"><ele>612.0</ele><time>2026-04-19T12:24:09Z</time></trkpt><trkpt lat="38.72790527982512" lon="16.31319438479498"><ele>611.0</ele><time>2026-04-19T12:24:13Z</time></trkpt><trkpt lat="38.72796172438912" lon="16.31313222940224"><ele>610.0</ele><time>2026-04-19T12:24:18Z</time></trkpt><trkpt lat="38.72803097231678" lon="16.313078623532487"><ele>609.8333333333334</ele><time>2026-04-19T12:24:21Z</time></trkpt><trkpt lat="38.72809981385842" lon="16.313012632423817"><ele>609.6666666666667</ele><time>2026-04-19T12:24:24Z</time></trkpt><trkpt lat="38.728153659260855" lon="16.312956391193346"><ele>609.5</ele><time>2026-04-19T12:24:26Z</time></trkpt><trkpt lat="38.72821487635569" lon="16.312888190497983"><ele>609.3333333333334</ele><time>2026-04-19T12:24:28Z</time></trkpt><trkpt lat="38.72829200453529" lon="16.312816110280377"><ele>609.1666666666666</ele><time>2026-04-19T12:24:30Z</time></trkpt><trkpt lat="38.72837977203942" lon="16.31273395363745"><ele>609.0</ele><time>2026-04-19T12:24:32Z</time></trkpt><trkpt lat="38.72846053336684" lon="16.312650693270633"><ele>609.0</ele><time>2026-04-19T12:24:34Z</time></trkpt><trkpt lat="38.7285161011325" lon="16.312574606059936"><ele>609.0</ele><time>2026-04-19T12:24:35.999Z</time></trkpt><trkpt lat="38.728587550068255" lon="16.312514512085514"><ele>609.0</ele><time>2026-04-19T12:24:38.999Z</time></trkpt><trkpt lat="38.72864853896354" lon="16.312448082468244"><ele>609.0</ele><time>2026-04-19T12:24:42.999Z</time></trkpt><trkpt lat="38.728710185974926" lon="16.312387261274182"><ele>609.0</ele><time>2026-04-19T12:24:45.999Z</time></trkpt><trkpt lat="38.72877151691152" lon="16.312318500686693"><ele>609.0</ele><time>2026-04-19T12:24:48.999Z</time></trkpt><trkpt lat="38.72881999656625" lon="16.312251249389572"><ele>607.5714285714286</ele><time>2026-04-19T12:24:52.999Z</time></trkpt><trkpt lat="38.72884846018164" lon="16.31214822531846"><ele>606.1428571428571</ele><time>2026-04-19T12:26:59.998Z</time></trkpt><trkpt lat="38.728882544604964" lon="16.31206613862211"><ele>604.7142857142858</ele><time>2026-04-19T12:31:03.999Z</time></trkpt><trkpt lat="38.728880596184545" lon="16.311981819834795"><ele>603.2857142857142</ele><time>2026-04-19T12:31:19.999Z</time></trkpt><trkpt lat="38.72893180731506" lon="16.31192892352082"><ele>601.8571428571429</ele><time>2026-04-19T12:31:30.999Z</time></trkpt><trkpt lat="38.728985638042325" lon="16.311875956578152"><ele>600.4285714285714</ele><time>2026-04-19T12:31:46.999Z</time></trkpt><trkpt lat="38.72903105350549" lon="16.311814455722136"><ele>599.0</ele><time>2026-04-19T12:31:56.999Z</time></trkpt><trkpt lat="38.72909771559735" lon="16.311774004413913"><ele>599.0</ele><time>2026-04-19T12:32:02.999Z</time></trkpt><trkpt lat="38.72916044410294" lon="16.31172976430315"><ele>599.0</ele><time>2026-04-19T12:32:09.999Z</time></trkpt><trkpt lat="38.729223049796346" lon="16.311705291632723"><ele>599.0</ele><time>2026-04-19T12:32:34.999Z</time></trkpt><trkpt lat="38.72928154489145" lon="16.31163823831811"><ele>599.0</ele><time>2026-04-19T12:32:37.999Z</time></trkpt><trkpt lat="38.72931661259326" lon="16.311566422709838"><ele>599.0</ele><time>2026-04-19T12:32:39.999Z</time></trkpt><trkpt lat="38.72934524232625" lon="16.311482198034998"><ele>599.0</ele><time>2026-04-19T12:32:42.999Z</time></trkpt><trkpt lat="38.72938713059628" lon="16.311396892117802"><ele>599.0</ele><time>2026-04-19T12:32:45.999Z</time></trkpt><trkpt lat="38.729439387015795" lon="16.311305873065226"><ele>596.4285714285714</ele><time>2026-04-19T12:32:48.999Z</time></trkpt><trkpt lat="38.72948588656942" lon="16.31125026749448"><ele>593.8571428571429</ele><time>2026-04-19T12:32:50.999Z</time></trkpt><trkpt lat="38.72950930005621" lon="16.311165122330962"><ele>591.2857142857142</ele><time>2026-04-19T12:32:53.999Z</time></trkpt><trkpt lat="38.72948486237252" lon="16.31105840400039"><ele>588.7142857142858</ele><time>2026-04-19T12:32:56.999Z</time></trkpt><trkpt lat="38.72947009917158" lon="16.31097380318146"><ele>586.1428571428571</ele><time>2026-04-19T12:32:59.999Z</time></trkpt><trkpt lat="38.72945422773835" lon="16.310889590799327"><ele>583.5714285714286</ele><time>2026-04-19T12:33:02.999Z</time></trkpt><trkpt lat="38.72946654700531" lon="16.310791239909065"><ele>581.0</ele><time>2026-04-19T12:33:05.998Z</time></trkpt><trkpt lat="38.7294936158468" lon="16.310708753139735"><ele>581.0</ele><time>2026-04-19T12:33:07.998Z</time></trkpt><trkpt lat="38.72952159951435" lon="16.310623282387798"><ele>581.0</ele><time>2026-04-19T12:33:09.998Z</time></trkpt><trkpt lat="38.7295376096035" lon="16.31054138149879"><ele>581.0</ele><time>2026-04-19T12:33:11.998Z</time></trkpt><trkpt lat="38.729560903508926" lon="16.310445418357745"><ele>581.0</ele><time>2026-04-19T12:33:14.998Z</time></trkpt><trkpt lat="38.72959401517589" lon="16.310373235211635"><ele>581.0</ele><time>2026-04-19T12:33:17.998Z</time></trkpt><trkpt lat="38.72963997130962" lon="16.310316414185962"><ele>581.0</ele><time>2026-04-19T12:33:29.998Z</time></trkpt><trkpt lat="38.72966461287153" lon="16.31023895275398"><ele>581.0</ele><time>2026-04-19T12:33:54.998Z</time></trkpt><trkpt lat="38.72971310392351" lon="16.310182956408593"><ele>581.0</ele><time>2026-04-19T12:33:58.998Z</time></trkpt><trkpt lat="38.72977571667749" lon="16.310101909214595"><ele>581.0</ele><time>2026-04-19T12:34:01.998Z</time></trkpt><trkpt lat="38.72983261830883" lon="16.310040244054136"><ele>581.0</ele><time>2026-04-19T12:34:04.998Z</time></trkpt><trkpt lat="38.729889770704204" lon="16.309964406819464"><ele>581.0</ele><time>2026-04-19T12:34:08.998Z</time></trkpt><trkpt lat="38.72993968791462" lon="16.30988655955536"><ele>581.0</ele><time>2026-04-19T12:34:12.998Z</time></trkpt><trkpt lat="38.72995369473494" lon="16.30980475729526"><ele>581.0</ele><time>2026-04-19T12:34:16.998Z</time></trkpt><trkpt lat="38.72997420562954" lon="16.30970965267527"><ele>581.0</ele><time>2026-04-19T12:34:20.998Z</time></trkpt><trkpt lat="38.730009001446376" lon="16.309620633095832"><ele>581.0</ele><time>2026-04-19T12:34:24.998Z</time></trkpt><trkpt lat="38.730034172358565" lon="16.309523083319057"><ele>581.0</ele><time>2026-04-19T12:34:28Z</time></trkpt><trkpt lat="38.730053972379956" lon="16.30942127237489"><ele>581.0</ele><time>2026-04-19T12:34:32Z</time></trkpt><trkpt lat="38.730081839152895" lon="16.309333036751678"><ele>581.0</ele><time>2026-04-19T12:34:36Z</time></trkpt><trkpt lat="38.73008629659308" lon="16.309241077891798"><ele>581.0</ele><time>2026-04-19T12:34:41Z</time></trkpt><trkpt lat="38.73010019094632" lon="16.309151745931658"><ele>581.0</ele><time>2026-04-19T12:34:47Z</time></trkpt><trkpt lat="38.730109931942444" lon="16.309052329985395"><ele>581.0</ele><time>2026-04-19T12:34:52Z</time></trkpt><trkpt lat="38.730120802775815" lon="16.308947860331838"><ele>581.0</ele><time>2026-04-19T12:34:55Z</time></trkpt><trkpt lat="38.73017620963976" lon="16.308850046923297"><ele>581.0</ele><time>2026-04-19T12:34:57Z</time></trkpt><trkpt lat="38.73027767041493" lon="16.308831394732834"><ele>581.0</ele><time>2026-04-19T12:35:00Z</time></trkpt><trkpt lat="38.73036519267536" lon="16.30888762786643"><ele>579.0</ele><time>2026-04-19T12:35:02Z</time></trkpt><trkpt lat="38.73043277423617" lon="16.308930174451238"><ele>577.0</ele><time>2026-04-19T12:35:04Z</time></trkpt><trkpt lat="38.73051584523741" lon="16.30898775156655"><ele>575.0</ele><time>2026-04-19T12:35:07Z</time></trkpt><trkpt lat="38.73058047944565" lon="16.30903249926302"><ele>573.0</ele><time>2026-04-19T12:35:09Z</time></trkpt><trkpt lat="38.73064185704926" lon="16.309079910701453"><ele>571.0</ele><time>2026-04-19T12:35:11Z</time></trkpt><trkpt lat="38.73071684693709" lon="16.30910056012693"><ele>569.0</ele><time>2026-04-19T12:35:14Z</time></trkpt><trkpt lat="38.73077853191841" lon="16.3091314463197"><ele>569.0</ele><time>2026-04-19T12:35:17Z</time></trkpt><trkpt lat="38.730851657906896" lon="16.30915264701732"><ele>569.0</ele><time>2026-04-19T12:35:19Z</time></trkpt><trkpt lat="38.73092159782109" lon="16.309173190258605"><ele>569.0</ele><time>2026-04-19T12:35:22Z</time></trkpt><trkpt lat="38.73101760098115" lon="16.309160756492844"><ele>569.0</ele><time>2026-04-19T12:35:25Z</time></trkpt><trkpt lat="38.731095518996305" lon="16.30916733669854"><ele>569.0</ele><time>2026-04-19T12:35:27Z</time></trkpt><trkpt lat="38.731163809655044" lon="16.30920253096884"><ele>569.0</ele><time>2026-04-19T12:35:29Z</time></trkpt><trkpt lat="38.731224030182204" lon="16.309138777528442"><ele>565.0000000000001</ele><time>2026-04-19T12:35:31Z</time></trkpt><trkpt lat="38.73124795557308" lon="16.309059578423973"><ele>561.0</ele><time>2026-04-19T12:35:34Z</time></trkpt><trkpt lat="38.731223453384324" lon="16.308982843848963"><ele>557.0</ele><time>2026-04-19T12:35:40Z</time></trkpt><trkpt lat="38.731199238369896" lon="16.308886290236057"><ele>553.0</ele><time>2026-04-19T12:35:45Z</time></trkpt><trkpt lat="38.73118584292197" lon="16.308801330568595"><ele>549.0</ele><time>2026-04-19T12:35:47Z</time></trkpt><trkpt lat="38.731167896445655" lon="16.30871370699488"><ele>545.0000000000001</ele><time>2026-04-19T12:35:49Z</time></trkpt><trkpt lat="38.73114648993672" lon="16.308604458819833"><ele>541.0</ele><time>2026-04-19T12:35:51Z</time></trkpt><trkpt lat="38.73112124881194" lon="16.308528279830053"><ele>541.1666666666667</ele><time>2026-04-19T12:35:53Z</time></trkpt><trkpt lat="38.73104623583032" lon="16.308473174897497"><ele>541.3333333333334</ele><time>2026-04-19T12:35:56Z</time></trkpt><trkpt lat="38.730967481417444" lon="16.308403294491786"><ele>541.5</ele><time>2026-04-19T12:36:00Z</time></trkpt><trkpt lat="38.730910553524105" lon="16.308346382658815"><ele>541.6666666666666</ele><time>2026-04-19T12:36:02Z</time></trkpt><trkpt lat="38.73085104811601" lon="16.308279568479325"><ele>541.8333333333333</ele><time>2026-04-19T12:36:05Z</time></trkpt><trkpt lat="38.73078323405598" lon="16.308201252607702"><ele>542.0</ele><time>2026-04-19T12:36:08Z</time></trkpt><trkpt lat="38.730744081453885" lon="16.308132190498114"><ele>538.3333333333333</ele><time>2026-04-19T12:36:11Z</time></trkpt><trkpt lat="38.73071656643353" lon="16.308024683443016"><ele>534.6666666666666</ele><time>2026-04-19T12:36:15Z</time></trkpt><trkpt lat="38.73068469298002" lon="16.307930239105826"><ele>531.0</ele><time>2026-04-19T12:36:18Z</time></trkpt><trkpt lat="38.73066946062577" lon="16.307822779357043"><ele>527.3333333333334</ele><time>2026-04-19T12:36:20Z</time></trkpt><trkpt lat="38.73066228860528" lon="16.3076796123469"><ele>523.6666666666667</ele><time>2026-04-19T12:36:22Z</time></trkpt><trkpt lat="38.730647026513935" lon="16.307583049651036"><ele>520.0</ele><time>2026-04-19T12:36:24Z</time></trkpt><trkpt lat="38.730631039297705" lon="16.307503206151996"><ele>520.0</ele><time>2026-04-19T12:36:28Z</time></trkpt><trkpt lat="38.73062407758416" lon="16.307420790415986"><ele>520.0</ele><time>2026-04-19T12:36:30Z</time></trkpt><trkpt lat="38.7306262739798" lon="16.30730078435532"><ele>520.0</ele><time>2026-04-19T12:36:32Z</time></trkpt><trkpt lat="38.7306103871455" lon="16.30721073439165"><ele>520.0</ele><time>2026-04-19T12:36:35Z</time></trkpt><trkpt lat="38.73059209092817" lon="16.307130895733007"><ele>520.0</ele><time>2026-04-19T12:36:38Z</time></trkpt><trkpt lat="38.73056276690943" lon="16.307028367683245"><ele>520.0</ele><time>2026-04-19T12:36:41Z</time></trkpt><trkpt lat="38.73055603862725" lon="16.306929200538942"><ele>516.6666666666667</ele><time>2026-04-19T12:36:43Z</time></trkpt><trkpt lat="38.7305410892155" lon="16.306823410827665"><ele>513.3333333333334</ele><time>2026-04-19T12:36:46Z</time></trkpt><trkpt lat="38.73048991019245" lon="16.306742402484044"><ele>510.0</ele><time>2026-04-19T12:36:49Z</time></trkpt><trkpt lat="38.730412324488526" lon="16.306720930403845"><ele>506.66666666666663</ele><time>2026-04-19T12:36:51Z</time></trkpt><trkpt lat="38.73034206490248" lon="16.306707447284484"><ele>503.3333333333333</ele><time>2026-04-19T12:36:53Z</time></trkpt><trkpt lat="38.73026446589617" lon="16.306683951453724"><ele>500.0</ele><time>2026-04-19T12:36:55Z</time></trkpt><trkpt lat="38.73017564239484" lon="16.306668866481807"><ele>499.99999999999994</ele><time>2026-04-19T12:36:57Z</time></trkpt><trkpt lat="38.730092871966995" lon="16.306692237040224"><ele>500.0</ele><time>2026-04-19T12:36:59Z</time></trkpt><trkpt lat="38.72999525282865" lon="16.30673029576261"><ele>500.0</ele><time>2026-04-19T12:37:01Z</time></trkpt><trkpt lat="38.72993072711928" lon="16.30675941952803"><ele>500.0</ele><time>2026-04-19T12:37:03Z</time></trkpt><trkpt lat="38.72986757489436" lon="16.30677198148226"><ele>499.99999999999994</ele><time>2026-04-19T12:37:05Z</time></trkpt><trkpt lat="38.72978808035447" lon="16.306771066931443"><ele>500.0</ele><time>2026-04-19T12:37:08Z</time></trkpt><trkpt lat="38.729727340837286" lon="16.306748222783035"><ele>499.99999999999994</ele><time>2026-04-19T12:37:11Z</time></trkpt><trkpt lat="38.72969771375511" lon="16.306639577318286"><ele>500.0</ele><time>2026-04-19T12:37:15Z</time></trkpt><trkpt lat="38.72967962837464" lon="16.306524788721116"><ele>500.0</ele><time>2026-04-19T12:37:18Z</time></trkpt><trkpt lat="38.72968229095975" lon="16.30642684486977"><ele>500.0</ele><time>2026-04-19T12:37:21Z</time></trkpt><trkpt lat="38.729705438303995" lon="16.306351748301797"><ele>499.99999999999994</ele><time>2026-04-19T12:37:23Z</time></trkpt><trkpt lat="38.72974424614413" lon="16.306280244318156"><ele>500.0</ele><time>2026-04-19T12:37:25Z</time></trkpt><trkpt lat="38.72977216879696" lon="16.306201355564028"><ele>495.66666666666663</ele><time>2026-04-19T12:37:27Z</time></trkpt><trkpt lat="38.729807004325735" lon="16.30612557946838"><ele>491.3333333333333</ele><time>2026-04-19T12:37:29Z</time></trkpt><trkpt lat="38.729821012093865" lon="16.306027100696934"><ele>487.0</ele><time>2026-04-19T12:37:32Z</time></trkpt><trkpt lat="38.72983399832974" lon="16.30591761002632"><ele>482.66666666666663</ele><time>2026-04-19T12:37:35Z</time></trkpt><trkpt lat="38.72984322936931" lon="16.305828958265746"><ele>478.3333333333333</ele><time>2026-04-19T12:37:36.999Z</time></trkpt><trkpt lat="38.72988412766412" lon="16.30571185679945"><ele>474.0</ele><time>2026-04-19T12:37:38.999Z</time></trkpt><trkpt lat="38.72992560544892" lon="16.305580041151913"><ele>469.3333333333333</ele><time>2026-04-19T12:37:40.999Z</time></trkpt><trkpt lat="38.72999207179406" lon="16.30550244614627"><ele>464.66666666666663</ele><time>2026-04-19T12:37:42.999Z</time></trkpt><trkpt lat="38.73007732061944" lon="16.30545475698378"><ele>460.0</ele><time>2026-04-19T12:37:44.999Z</time></trkpt><trkpt lat="38.73015694391414" lon="16.305389360003726"><ele>455.3333333333333</ele><time>2026-04-19T12:37:46.999Z</time></trkpt><trkpt lat="38.730222080747936" lon="16.30538631396457"><ele>450.66666666666663</ele><time>2026-04-19T12:37:48.999Z</time></trkpt><trkpt lat="38.73030564764193" lon="16.30540133487258"><ele>446.0</ele><time>2026-04-19T12:37:51.999Z</time></trkpt><trkpt lat="38.73037182312866" lon="16.305403095093123"><ele>445.99999999999994</ele><time>2026-04-19T12:37:53.999Z</time></trkpt><trkpt lat="38.730454929886314" lon="16.305390006602813"><ele>446.0</ele><time>2026-04-19T12:37:55.999Z</time></trkpt><trkpt lat="38.73054954725806" lon="16.30537276096308"><ele>446.0</ele><time>2026-04-19T12:37:57.999Z</time></trkpt><trkpt lat="38.73062496754284" lon="16.30536879027464"><ele>446.0</ele><time>2026-04-19T12:37:59.999Z</time></trkpt><trkpt lat="38.73068933584195" lon="16.305346051101203"><ele>445.99999999999994</ele><time>2026-04-19T12:38:01.999Z</time></trkpt><trkpt lat="38.73077402378262" lon="16.305339449616103"><ele>446.0</ele><time>2026-04-19T12:38:04.999Z</time></trkpt><trkpt lat="38.730848235849486" lon="16.305355832809607"><ele>445.99999999999994</ele><time>2026-04-19T12:38:07.999Z</time></trkpt><trkpt lat="38.73093447482863" lon="16.305384568044374"><ele>446.0</ele><time>2026-04-19T12:38:10.999Z</time></trkpt><trkpt lat="38.73101975357368" lon="16.305469371315432"><ele>446.0</ele><time>2026-04-19T12:38:12.999Z</time></trkpt><trkpt lat="38.73108464355898" lon="16.305542829850697"><ele>446.0</ele><time>2026-04-19T12:38:13.999Z</time></trkpt><trkpt lat="38.73114925012372" lon="16.305614905773975"><ele>445.99999999999994</ele><time>2026-04-19T12:38:14.999Z</time></trkpt><trkpt lat="38.73121185598139" lon="16.30567872041451"><ele>446.0</ele><time>2026-04-19T12:38:15.999Z</time></trkpt><trkpt lat="38.73126957648568" lon="16.305745243582006"><ele>444.99999999999994</ele><time>2026-04-19T12:38:16.999Z</time></trkpt><trkpt lat="38.73132062818511" lon="16.3058169982468"><ele>444.0</ele><time>2026-04-19T12:38:17.999Z</time></trkpt><trkpt lat="38.73136117453761" lon="16.305890994918435"><ele>443.0</ele><time>2026-04-19T12:38:18.999Z</time></trkpt><trkpt lat="38.73138919018452" lon="16.305968869219278"><ele>442.0</ele><time>2026-04-19T12:38:19.999Z</time></trkpt><trkpt lat="38.731427342418094" lon="16.306105946389106"><ele>440.99999999999994</ele><time>2026-04-19T12:38:21.999Z</time></trkpt><trkpt lat="38.73147177168714" lon="16.306211607809963"><ele>440.0</ele><time>2026-04-19T12:38:23.999Z</time></trkpt><trkpt lat="38.73156503643655" lon="16.30621204363157"><ele>439.99999999999994</ele><time>2026-04-19T12:38:25.999Z</time></trkpt><trkpt lat="38.73165780409364" lon="16.30615397970163"><ele>440.0</ele><time>2026-04-19T12:38:27.999Z</time></trkpt><trkpt lat="38.73171588205007" lon="16.306093072994507"><ele>440.0</ele><time>2026-04-19T12:38:28.999Z</time></trkpt><trkpt lat="38.731777962395576" lon="16.306040525118878"><ele>440.0</ele><time>2026-04-19T12:38:29.999Z</time></trkpt><trkpt lat="38.731827528997904" lon="16.305985907975856"><ele>439.99999999999994</ele><time>2026-04-19T12:38:30.999Z</time></trkpt><trkpt lat="38.73191410564971" lon="16.305873652638496"><ele>440.0</ele><time>2026-04-19T12:38:32.999Z</time></trkpt><trkpt lat="38.73197041337134" lon="16.305734794483392"><ele>438.66666666666663</ele><time>2026-04-19T12:38:34.999Z</time></trkpt><trkpt lat="38.73199177733684" lon="16.30565501144411"><ele>437.3333333333333</ele><time>2026-04-19T12:38:35.999Z</time></trkpt><trkpt lat="38.732041754947645" lon="16.30552667534993"><ele>436.0</ele><time>2026-04-19T12:38:37.999Z</time></trkpt><trkpt lat="38.73208801754437" lon="16.30546620965213"><ele>434.66666666666663</ele><time>2026-04-19T12:38:38.999Z</time></trkpt><trkpt lat="38.73218451643349" lon="16.3053968835765"><ele>433.3333333333333</ele><time>2026-04-19T12:38:40.999Z</time></trkpt><trkpt lat="38.73225102963416" lon="16.305377326942548"><ele>432.0</ele><time>2026-04-19T12:38:41.999Z</time></trkpt><trkpt lat="38.73232923243541" lon="16.305367894505682"><ele>426.0</ele><time>2026-04-19T12:38:42.999Z</time></trkpt><trkpt lat="38.73241924841651" lon="16.305389694254497"><ele>420.00000000000006</ele><time>2026-04-19T12:38:43.999Z</time></trkpt><trkpt lat="38.73249570077033" lon="16.305413253934823"><ele>414.0</ele><time>2026-04-19T12:38:44.999Z</time></trkpt><trkpt lat="38.73256744150612" lon="16.305426528122577"><ele>408.0</ele><time>2026-04-19T12:38:45.999Z</time></trkpt><trkpt lat="38.73269111323911" lon="16.305426715986087"><ele>402.0</ele><time>2026-04-19T12:38:47.999Z</time></trkpt><trkpt lat="38.732791414829364" lon="16.305381023501152"><ele>401.0</ele><time>2026-04-19T12:38:49.999Z</time></trkpt><trkpt lat="38.732853487130036" lon="16.305329670050682"><ele>400.0</ele><time>2026-04-19T12:38:50.999Z</time></trkpt><trkpt lat="38.7329162402009" lon="16.305284714341404"><ele>399.0</ele><time>2026-04-19T12:38:51.999Z</time></trkpt><trkpt lat="38.73297407112343" lon="16.305242341157864"><ele>398.0</ele><time>2026-04-19T12:38:52.999Z</time></trkpt><trkpt lat="38.733083990240964" lon="16.305179584027105"><ele>397.0</ele><time>2026-04-19T12:38:54.999Z</time></trkpt><trkpt lat="38.7331900812966" lon="16.30512964461858"><ele>396.0</ele><time>2026-04-19T12:38:56.999Z</time></trkpt><trkpt lat="38.7332439584908" lon="16.305071580406047"><ele>396.0</ele><time>2026-04-19T12:38:58.999Z</time></trkpt><trkpt lat="38.73320164394091" lon="16.30498478106073"><ele>396.0</ele><time>2026-04-19T12:39:00.999Z</time></trkpt><trkpt lat="38.73310349171586" lon="16.30498273483524"><ele>396.0</ele><time>2026-04-19T12:39:02.999Z</time></trkpt><trkpt lat="38.73303628825346" lon="16.30497024770365"><ele>396.0</ele><time>2026-04-19T12:39:03.999Z</time></trkpt><trkpt lat="38.732966270091495" lon="16.304956281658665"><ele>396.0</ele><time>2026-04-19T12:39:04.999Z</time></trkpt><trkpt lat="38.732895960618" lon="16.304946225344693"><ele>396.0</ele><time>2026-04-19T12:39:05.999Z</time></trkpt><trkpt lat="38.73282595353223" lon="16.304950164432785"><ele>397.20000000000005</ele><time>2026-04-19T12:39:06.999Z</time></trkpt><trkpt lat="38.73271075470072" lon="16.30491678313885"><ele>398.40000000000003</ele><time>2026-04-19T12:39:08.999Z</time></trkpt><trkpt lat="38.73263351245779" lon="16.304803480349754"><ele>399.6</ele><time>2026-04-19T12:39:10.999Z</time></trkpt><trkpt lat="38.73257781052349" lon="16.304715637154878"><ele>400.8</ele><time>2026-04-19T12:39:12.999Z</time></trkpt><trkpt lat="38.73252008698876" lon="16.304658056965405"><ele>402.0</ele><time>2026-04-19T12:39:14.999Z</time></trkpt><trkpt lat="38.73243881834355" lon="16.304618789644024"><ele>398.0</ele><time>2026-04-19T12:39:16.999Z</time></trkpt><trkpt lat="38.732378108931464" lon="16.304589365403103"><ele>394.0</ele><time>2026-04-19T12:39:18.999Z</time></trkpt><trkpt lat="38.73230431646332" lon="16.304560139448544"><ele>390.0</ele><time>2026-04-19T12:39:21.999Z</time></trkpt><trkpt lat="38.73224843436034" lon="16.304481715445554"><ele>386.0</ele><time>2026-04-19T12:39:23.999Z</time></trkpt><trkpt lat="38.73221902697067" lon="16.304342730138536"><ele>382.0</ele><time>2026-04-19T12:39:25.999Z</time></trkpt><trkpt lat="38.73223183274205" lon="16.30425456706849"><ele>378.0</ele><time>2026-04-19T12:39:26.999Z</time></trkpt><trkpt lat="38.73226699739314" lon="16.30411133779715"><ele>378.0</ele><time>2026-04-19T12:39:28.999Z</time></trkpt><trkpt lat="38.73228536800312" lon="16.303971399929353"><ele>378.0</ele><time>2026-04-19T12:39:30.999Z</time></trkpt><trkpt lat="38.73230108905174" lon="16.303865911855652"><ele>378.0</ele><time>2026-04-19T12:39:32.999Z</time></trkpt><trkpt lat="38.732329641251695" lon="16.303792727189272"><ele>378.0</ele><time>2026-04-19T12:39:36.999Z</time></trkpt><trkpt lat="38.73237556796043" lon="16.30388160180074"><ele>378.0</ele><time>2026-04-19T12:39:39.999Z</time></trkpt><trkpt lat="38.73243863719546" lon="16.304013190872812"><ele>378.0</ele><time>2026-04-19T12:39:41.999Z</time></trkpt><trkpt lat="38.73252292255106" lon="16.304096215633944"><ele>378.0</ele><time>2026-04-19T12:39:43.999Z</time></trkpt><trkpt lat="38.73262226656969" lon="16.30417749178617"><ele>378.0</ele><time>2026-04-19T12:39:45.999Z</time></trkpt><trkpt lat="38.73269183330313" lon="16.304188253645414"><ele>378.0</ele><time>2026-04-19T12:39:46.999Z</time></trkpt><trkpt lat="38.73275819309113" lon="16.304183021446274"><ele>378.0</ele><time>2026-04-19T12:39:47.999Z</time></trkpt><trkpt lat="38.73283334434969" lon="16.30416277944317"><ele>378.0</ele><time>2026-04-19T12:39:48.999Z</time></trkpt><trkpt lat="38.73290552590567" lon="16.304145094276514"><ele>376.8333333333333</ele><time>2026-04-19T12:39:49.999Z</time></trkpt><trkpt lat="38.73297887401915" lon="16.304097821400802"><ele>375.6666666666667</ele><time>2026-04-19T12:39:50.999Z</time></trkpt><trkpt lat="38.73304551726329" lon="16.304036125142577"><ele>374.5</ele><time>2026-04-19T12:39:51.999Z</time></trkpt><trkpt lat="38.73310274246864" lon="16.30398303483123"><ele>373.33333333333337</ele><time>2026-04-19T12:39:52.999Z</time></trkpt><trkpt lat="38.73317237543298" lon="16.3039156697536"><ele>372.1666666666667</ele><time>2026-04-19T12:39:53.999Z</time></trkpt><trkpt lat="38.733256150481374" lon="16.303839338963503"><ele>371.0</ele><time>2026-04-19T12:39:54.999Z</time></trkpt><trkpt lat="38.73334425137486" lon="16.303768146243662"><ele>367.5</ele><time>2026-04-19T12:39:55.999Z</time></trkpt><trkpt lat="38.73343228035074" lon="16.303738569759147"><ele>364.0</ele><time>2026-04-19T12:39:56.999Z</time></trkpt><trkpt lat="38.73351766142608" lon="16.30375768937485"><ele>360.5</ele><time>2026-04-19T12:39:57.999Z</time></trkpt><trkpt lat="38.73358533171627" lon="16.303820198761706"><ele>357.0</ele><time>2026-04-19T12:39:58.999Z</time></trkpt><trkpt lat="38.73363913578351" lon="16.303899761004928"><ele>353.5</ele><time>2026-04-19T12:39:59.999Z</time></trkpt><trkpt lat="38.733677729381874" lon="16.303993486899067"><ele>350.0</ele><time>2026-04-19T12:40:00.999Z</time></trkpt><trkpt lat="38.73371281372681" lon="16.304069314260403"><ele>349.6666666666667</ele><time>2026-04-19T12:40:01.999Z</time></trkpt><trkpt lat="38.733762168325796" lon="16.304153096075588"><ele>349.33333333333337</ele><time>2026-04-19T12:40:02.999Z</time></trkpt><trkpt lat="38.733806221080464" lon="16.304236384209794"><ele>349.0</ele><time>2026-04-19T12:40:03.999Z</time></trkpt><trkpt lat="38.733833517971135" lon="16.304329714768496"><ele>348.6666666666667</ele><time>2026-04-19T12:40:04.999Z</time></trkpt><trkpt lat="38.733882584896534" lon="16.3044123488128"><ele>348.3333333333333</ele><time>2026-04-19T12:40:05.999Z</time></trkpt><trkpt lat="38.73389481940416" lon="16.304521648646613"><ele>348.0</ele><time>2026-04-19T12:40:06.999Z</time></trkpt><trkpt lat="38.73390938545854" lon="16.304614248420663"><ele>350.5</ele><time>2026-04-19T12:40:07.999Z</time></trkpt><trkpt lat="38.73393961269186" lon="16.304769179641767"><ele>353.0</ele><time>2026-04-19T12:40:09.999Z</time></trkpt><trkpt lat="38.73399914695633" lon="16.30490000905496"><ele>355.5</ele><time>2026-04-19T12:40:11.999Z</time></trkpt><trkpt lat="38.73411278925618" lon="16.3049428308027"><ele>358.0</ele><time>2026-04-19T12:40:13.999Z</time></trkpt><trkpt lat="38.73423154198933" lon="16.304974780693605"><ele>358.0</ele><time>2026-04-19T12:40:15.999Z</time></trkpt><trkpt lat="38.73430474028863" lon="16.30495625929638"><ele>358.0</ele><time>2026-04-19T12:40:16.999Z</time></trkpt><trkpt lat="38.73441113911373" lon="16.304995822158933"><ele>358.0</ele><time>2026-04-19T12:40:18.999Z</time></trkpt><trkpt lat="38.73449680131117" lon="16.30502515044903"><ele>358.0</ele><time>2026-04-19T12:40:20.999Z</time></trkpt><trkpt lat="38.73455269301174" lon="16.305072227767322"><ele>358.0</ele><time>2026-04-19T12:40:22.999Z</time></trkpt><trkpt lat="38.73461377722768" lon="16.305024229701168"><ele>358.0</ele><time>2026-04-19T12:40:24.999Z</time></trkpt><trkpt lat="38.73461421455151" lon="16.304937859296025"><ele>354.2</ele><time>2026-04-19T12:40:26.999Z</time></trkpt><trkpt lat="38.73460469289607" lon="16.304782921646396"><ele>350.4</ele><time>2026-04-19T12:40:28.999Z</time></trkpt><trkpt lat="38.73456786860989" lon="16.304649840700897"><ele>346.59999999999997</ele><time>2026-04-19T12:40:29.999Z</time></trkpt><trkpt lat="38.73459370249161" lon="16.30452585048608"><ele>342.79999999999995</ele><time>2026-04-19T12:40:30.999Z</time></trkpt><trkpt lat="38.734632217247956" lon="16.304434154335215"><ele>339.0</ele><time>2026-04-19T12:40:31.999Z</time></trkpt><trkpt lat="38.73468448551443" lon="16.3043592365955"><ele>339.0</ele><time>2026-04-19T12:40:32.999Z</time></trkpt><trkpt lat="38.7347095272106" lon="16.304256510745997"><ele>339.0</ele><time>2026-04-19T12:40:33.999Z</time></trkpt><trkpt lat="38.734724254031164" lon="16.304159630452045"><ele>339.0</ele><time>2026-04-19T12:40:34.999Z</time></trkpt><trkpt lat="38.73474555276432" lon="16.30405832944326"><ele>339.0</ele><time>2026-04-19T12:40:35.999Z</time></trkpt><trkpt lat="38.73478129526322" lon="16.303984647062666"><ele>339.0</ele><time>2026-04-19T12:40:36.999Z</time></trkpt><trkpt lat="38.7348379930977" lon="16.303899197083265"><ele>339.0</ele><time>2026-04-19T12:40:38.999Z</time></trkpt><trkpt lat="38.73490998906804" lon="16.303827951368046"><ele>340.4</ele><time>2026-04-19T12:40:41.999Z</time></trkpt><trkpt lat="38.734968363293426" lon="16.303717708806378"><ele>341.79999999999995</ele><time>2026-04-19T12:40:43.999Z</time></trkpt><trkpt lat="38.735057988546004" lon="16.303599045946285"><ele>343.20000000000005</ele><time>2026-04-19T12:40:45.999Z</time></trkpt><trkpt lat="38.735103895920915" lon="16.303537399003016"><ele>344.6</ele><time>2026-04-19T12:40:46.999Z</time></trkpt><trkpt lat="38.735175903123086" lon="16.303419137900505"><ele>346.0</ele><time>2026-04-19T12:40:48.999Z</time></trkpt><trkpt lat="38.73520544174385" lon="16.303339626482067"><ele>343.8</ele><time>2026-04-19T12:40:49.999Z</time></trkpt><trkpt lat="38.73524196940083" lon="16.303244589801995"><ele>341.6</ele><time>2026-04-19T12:40:50.999Z</time></trkpt><trkpt lat="38.73523934219023" lon="16.30312271587009"><ele>339.4</ele><time>2026-04-19T12:40:51.999Z</time></trkpt><trkpt lat="38.73526751737611" lon="16.303009475502297"><ele>337.2</ele><time>2026-04-19T12:40:52.999Z</time></trkpt><trkpt lat="38.735282617959456" lon="16.302874325826895"><ele>335.0</ele><time>2026-04-19T12:40:53.999Z</time></trkpt><trkpt lat="38.7353011471502" lon="16.302743472101294"><ele>335.0</ele><time>2026-04-19T12:40:54.999Z</time></trkpt><trkpt lat="38.735329208023344" lon="16.302629300609535"><ele>335.0</ele><time>2026-04-19T12:40:55.999Z</time></trkpt><trkpt lat="38.73537092939431" lon="16.302526328982374"><ele>335.0</ele><time>2026-04-19T12:40:56.999Z</time></trkpt><trkpt lat="38.735397755005295" lon="16.302411541513578"><ele>335.0</ele><time>2026-04-19T12:40:57.999Z</time></trkpt><trkpt lat="38.73542655367888" lon="16.302288311261854"><ele>335.0</ele><time>2026-04-19T12:40:58.999Z</time></trkpt><trkpt lat="38.735453873729654" lon="16.30217268097102"><ele>336.1666666666667</ele><time>2026-04-19T12:40:59.999Z</time></trkpt><trkpt lat="38.735463000588794" lon="16.30206700218603"><ele>337.33333333333337</ele><time>2026-04-19T12:41:00.999Z</time></trkpt><trkpt lat="38.73549122363023" lon="16.30198501196903"><ele>338.5</ele><time>2026-04-19T12:41:01.999Z</time></trkpt><trkpt lat="38.735518996935845" lon="16.30190444138981"><ele>339.6666666666667</ele><time>2026-04-19T12:41:02.999Z</time></trkpt><trkpt lat="38.735527445774416" lon="16.301746573567986"><ele>340.8333333333333</ele><time>2026-04-19T12:41:04.999Z</time></trkpt><trkpt lat="38.73552960879003" lon="16.301662308232494"><ele>342.0</ele><time>2026-04-19T12:41:05.999Z</time></trkpt><trkpt lat="38.735541658212" lon="16.301557999744556"><ele>342.0</ele><time>2026-04-19T12:41:06.999Z</time></trkpt><trkpt lat="38.735527261299374" lon="16.301436473374633"><ele>342.0</ele><time>2026-04-19T12:41:07.999Z</time></trkpt><trkpt lat="38.73550537698008" lon="16.301312347485"><ele>342.0</ele><time>2026-04-19T12:41:08.999Z</time></trkpt><trkpt lat="38.735477099373256" lon="16.30119971549649"><ele>342.0</ele><time>2026-04-19T12:41:09.999Z</time></trkpt><trkpt lat="38.735448140826605" lon="16.301093266793924"><ele>342.0</ele><time>2026-04-19T12:41:10.999Z</time></trkpt><trkpt lat="38.735414329644875" lon="16.300983951554276"><ele>342.2857142857143</ele><time>2026-04-19T12:41:11.999Z</time></trkpt><trkpt lat="38.73537886853871" lon="16.30088491223858"><ele>342.57142857142856</ele><time>2026-04-19T12:41:12.999Z</time></trkpt><trkpt lat="38.73534011121447" lon="16.30079468951858"><ele>342.8571428571429</ele><time>2026-04-19T12:41:13.999Z</time></trkpt><trkpt lat="38.73530414680442" lon="16.300711048391488"><ele>343.1428571428571</ele><time>2026-04-19T12:41:14.999Z</time></trkpt><trkpt lat="38.73527030724645" lon="16.300629972072425"><ele>343.42857142857144</ele><time>2026-04-19T12:41:15.999Z</time></trkpt><trkpt lat="38.73523874091246" lon="16.300553823820703"><ele>343.7142857142857</ele><time>2026-04-19T12:41:16.999Z</time></trkpt><trkpt lat="38.73520873630705" lon="16.300481442958578"><ele>344.0</ele><time>2026-04-19T12:41:17.999Z</time></trkpt><trkpt lat="38.73517899394196" lon="16.300410069354953"><ele>341.83333333333337</ele><time>2026-04-19T12:41:18.999Z</time></trkpt><trkpt lat="38.735144001570816" lon="16.300332156529993"><ele>339.6666666666667</ele><time>2026-04-19T12:41:19.999Z</time></trkpt><trkpt lat="38.73507427486002" lon="16.30025895740075"><ele>337.5</ele><time>2026-04-19T12:41:20.999Z</time></trkpt><trkpt lat="38.73504655543726" lon="16.300147159150793"><ele>335.3333333333333</ele><time>2026-04-19T12:41:21.999Z</time></trkpt><trkpt lat="38.73501785740925" lon="16.300040648769833"><ele>333.16666666666663</ele><time>2026-04-19T12:41:22.999Z</time></trkpt><trkpt lat="38.73500048227122" lon="16.299934214777814"><ele>331.0</ele><time>2026-04-19T12:41:23.999Z</time></trkpt><trkpt lat="38.734985748762746" lon="16.299816002631196"><ele>331.0</ele><time>2026-04-19T12:41:24.999Z</time></trkpt><trkpt lat="38.73496429241655" lon="16.299696363194684"><ele>331.0</ele><time>2026-04-19T12:41:25.999Z</time></trkpt><trkpt lat="38.73497351321873" lon="16.299585445843256"><ele>331.0</ele><time>2026-04-19T12:41:26.999Z</time></trkpt><trkpt lat="38.73498874283065" lon="16.299482691968564"><ele>331.0</ele><time>2026-04-19T12:41:27.999Z</time></trkpt><trkpt lat="38.73500592281242" lon="16.299394595006515"><ele>331.0</ele><time>2026-04-19T12:41:28.999Z</time></trkpt><trkpt lat="38.735003433510734" lon="16.29930090487528"><ele>331.0</ele><time>2026-04-19T12:41:29.999Z</time></trkpt><trkpt lat="38.73501339427013" lon="16.29921151692391"><ele>331.0</ele><time>2026-04-19T12:41:30.999Z</time></trkpt><trkpt lat="38.73502080349732" lon="16.299122569669596"><ele>331.0</ele><time>2026-04-19T12:41:31.999Z</time></trkpt><trkpt lat="38.73503785343616" lon="16.299035420575837"><ele>331.0</ele><time>2026-04-19T12:41:32.999Z</time></trkpt><trkpt lat="38.73505616855682" lon="16.298942294250246"><ele>331.0</ele><time>2026-04-19T12:41:34.002Z</time></trkpt><trkpt lat="38.735088078488474" lon="16.298834459292127"><ele>331.0</ele><time>2026-04-19T12:41:35.002Z</time></trkpt><trkpt lat="38.735094161033444" lon="16.29871665872618"><ele>331.0</ele><time>2026-04-19T12:41:36.002Z</time></trkpt><trkpt lat="38.73510280661144" lon="16.2986024926287"><ele>330.4</ele><time>2026-04-19T12:41:37.002Z</time></trkpt><trkpt lat="38.73510213341139" lon="16.298484527410157"><ele>329.8</ele><time>2026-04-19T12:41:38.002Z</time></trkpt><trkpt lat="38.73511294105291" lon="16.298367437655795"><ele>329.2</ele><time>2026-04-19T12:41:39.002Z</time></trkpt><trkpt lat="38.73514231274322" lon="16.298244536406305"><ele>328.59999999999997</ele><time>2026-04-19T12:41:40.002Z</time></trkpt><trkpt lat="38.735174502598824" lon="16.298121546239923"><ele>328.0</ele><time>2026-04-19T12:41:41.002Z</time></trkpt><trkpt lat="38.73520264286123" lon="16.29798733011549"><ele>325.5</ele><time>2026-04-19T12:41:42.002Z</time></trkpt><trkpt lat="38.735201066442905" lon="16.29784732760235"><ele>323.0</ele><time>2026-04-19T12:41:43.002Z</time></trkpt><trkpt lat="38.73522510785288" lon="16.29771088919801"><ele>320.5</ele><time>2026-04-19T12:41:44.002Z</time></trkpt><trkpt lat="38.73524236462631" lon="16.297570133369277"><ele>318.0</ele><time>2026-04-19T12:41:45.002Z</time></trkpt><trkpt lat="38.73528357163144" lon="16.297424255040607"><ele>315.0</ele><time>2026-04-19T12:41:46.002Z</time></trkpt><trkpt lat="38.73528315274755" lon="16.2972748029742"><ele>312.0</ele><time>2026-04-19T12:41:47.002Z</time></trkpt><trkpt lat="38.73531489292282" lon="16.2971349477115"><ele>309.0</ele><time>2026-04-19T12:41:48.002Z</time></trkpt><trkpt lat="38.735331444810576" lon="16.296988959300826"><ele>306.0</ele><time>2026-04-19T12:41:49.001Z</time></trkpt><trkpt lat="38.73535953799388" lon="16.296843408882197"><ele>305.8</ele><time>2026-04-19T12:41:50.001Z</time></trkpt><trkpt lat="38.73538350811264" lon="16.296694096267114"><ele>305.6</ele><time>2026-04-19T12:41:51.001Z</time></trkpt><trkpt lat="38.735411370227084" lon="16.296553730843026"><ele>305.4</ele><time>2026-04-19T12:41:52.001Z</time></trkpt><trkpt lat="38.73544108498487" lon="16.29642201294914"><ele>305.2</ele><time>2026-04-19T12:41:53.001Z</time></trkpt><trkpt lat="38.735458037660266" lon="16.29629493727511"><ele>305.0</ele><time>2026-04-19T12:41:54.001Z</time></trkpt><trkpt lat="38.735470328335765" lon="16.296169418884602"><ele>304.6</ele><time>2026-04-19T12:41:55.001Z</time></trkpt><trkpt lat="38.73546399526959" lon="16.296048077868658"><ele>304.2</ele><time>2026-04-19T12:41:56.001Z</time></trkpt><trkpt lat="38.73544414391251" lon="16.29592949833076"><ele>303.8</ele><time>2026-04-19T12:41:57.001Z</time></trkpt><trkpt lat="38.73540454401268" lon="16.29581032424276"><ele>303.4</ele><time>2026-04-19T12:41:58.001Z</time></trkpt><trkpt lat="38.73535260935037" lon="16.295699135653216"><ele>303.0</ele><time>2026-04-19T12:41:59.001Z</time></trkpt><trkpt lat="38.73530560489207" lon="16.295596440198473"><ele>302.7142857142857</ele><time>2026-04-19T12:42:00.001Z</time></trkpt><trkpt lat="38.7352627127682" lon="16.295499419156105"><ele>302.42857142857144</ele><time>2026-04-19T12:42:01.001Z</time></trkpt><trkpt lat="38.73525261076491" lon="16.295402218726515"><ele>302.1428571428571</ele><time>2026-04-19T12:42:02.001Z</time></trkpt><trkpt lat="38.735247942293704" lon="16.295317726328353"><ele>301.8571428571429</ele><time>2026-04-19T12:42:03.001Z</time></trkpt><trkpt lat="38.73523634206471" lon="16.295237421377834"><ele>301.57142857142856</ele><time>2026-04-19T12:42:04.001Z</time></trkpt><trkpt lat="38.73522363174028" lon="16.29515226458586"><ele>301.2857142857143</ele><time>2026-04-19T12:42:05.001Z</time></trkpt><trkpt lat="38.735208717809485" lon="16.295055799070376"><ele>301.0</ele><time>2026-04-19T12:42:06.001Z</time></trkpt><trkpt lat="38.73518202995145" lon="16.294954850059714"><ele>301.0</ele><time>2026-04-19T12:42:07.001Z</time></trkpt><trkpt lat="38.73516377134739" lon="16.294843946223217"><ele>301.0</ele><time>2026-04-19T12:42:08.001Z</time></trkpt><trkpt lat="38.735174563695914" lon="16.29472529798516"><ele>301.0</ele><time>2026-04-19T12:42:09.001Z</time></trkpt><trkpt lat="38.73518148825143" lon="16.294619482932543"><ele>301.0</ele><time>2026-04-19T12:42:10.001Z</time></trkpt><trkpt lat="38.735176413300195" lon="16.294518616662046"><ele>301.0</ele><time>2026-04-19T12:42:11.001Z</time></trkpt><trkpt lat="38.735171455320064" lon="16.294428684998397"><ele>301.0</ele><time>2026-04-19T12:42:12.001Z</time></trkpt><trkpt lat="38.73516579154447" lon="16.29433830122942"><ele>299.42857142857144</ele><time>2026-04-19T12:42:13.001Z</time></trkpt><trkpt lat="38.735157747678365" lon="16.294250024791594"><ele>297.8571428571429</ele><time>2026-04-19T12:42:14.001Z</time></trkpt><trkpt lat="38.735129898851156" lon="16.294172209003214"><ele>296.2857142857143</ele><time>2026-04-19T12:42:15.001Z</time></trkpt><trkpt lat="38.73511382184614" lon="16.294092540167004"><ele>294.7142857142857</ele><time>2026-04-19T12:42:16.001Z</time></trkpt><trkpt lat="38.73509226718555" lon="16.294014825047785"><ele>293.14285714285717</ele><time>2026-04-19T12:42:17.001Z</time></trkpt><trkpt lat="38.73506628910351" lon="16.293934554185682"><ele>291.57142857142856</ele><time>2026-04-19T12:42:18.001Z</time></trkpt><trkpt lat="38.73504099390501" lon="16.293845719874483"><ele>290.0</ele><time>2026-04-19T12:42:19.001Z</time></trkpt><trkpt lat="38.73502664749647" lon="16.293737702561746"><ele>289.6</ele><time>2026-04-19T12:42:20.001Z</time></trkpt><trkpt lat="38.73505719820933" lon="16.293632917033275"><ele>289.2</ele><time>2026-04-19T12:42:21.001Z</time></trkpt><trkpt lat="38.73509503236263" lon="16.293527923358404"><ele>288.8</ele><time>2026-04-19T12:42:22.001Z</time></trkpt><trkpt lat="38.73513733662341" lon="16.29344016736918"><ele>288.4</ele><time>2026-04-19T12:42:23.001Z</time></trkpt><trkpt lat="38.7351688275026" lon="16.293362938859794"><ele>288.0</ele><time>2026-04-19T12:42:24.001Z</time></trkpt><trkpt lat="38.735251983566485" lon="16.293234995428627"><ele>288.7142857142857</ele><time>2026-04-19T12:42:26Z</time></trkpt><trkpt lat="38.73527775038872" lon="16.293136289475036"><ele>289.42857142857144</ele><time>2026-04-19T12:42:27Z</time></trkpt><trkpt lat="38.73528354082427" lon="16.293036843432773"><ele>290.1428571428571</ele><time>2026-04-19T12:42:28Z</time></trkpt><trkpt lat="38.73530204423365" lon="16.292947144714212"><ele>290.8571428571429</ele><time>2026-04-19T12:42:29Z</time></trkpt><trkpt lat="38.73532477447356" lon="16.292858241972883"><ele>291.57142857142856</ele><time>2026-04-19T12:42:30Z</time></trkpt><trkpt lat="38.73533549526505" lon="16.292765738994035"><ele>292.2857142857143</ele><time>2026-04-19T12:42:31Z</time></trkpt><trkpt lat="38.73535630484811" lon="16.29268104783566"><ele>293.0</ele><time>2026-04-19T12:42:32Z</time></trkpt><trkpt lat="38.73538077799559" lon="16.292590263819122"><ele>294.0</ele><time>2026-04-19T12:42:33Z</time></trkpt><trkpt lat="38.73540108640007" lon="16.292501517534422"><ele>295.0</ele><time>2026-04-19T12:42:34Z</time></trkpt><trkpt lat="38.73543201103636" lon="16.292390076071534"><ele>296.0</ele><time>2026-04-19T12:42:36Z</time></trkpt><trkpt lat="38.73548997179583" lon="16.292281981218775"><ele>297.0</ele><time>2026-04-19T12:42:38.999Z</time></trkpt><trkpt lat="38.735529893987284" lon="16.292196416609244"><ele>298.0</ele><time>2026-04-19T12:42:40.999Z</time></trkpt><trkpt lat="38.73555962313368" lon="16.29212098596066"><ele>299.0</ele><time>2026-04-19T12:42:42.999Z</time></trkpt><trkpt lat="38.73559798245625" lon="16.292041676279382"><ele>299.0</ele><time>2026-04-19T12:42:46.999Z</time></trkpt><trkpt lat="38.73566097663498" lon="16.292033704663798"><ele>299.0</ele><time>2026-04-19T12:42:50.999Z</time></trkpt><trkpt lat="38.73553418475702" lon="16.29170972001135"><ele>299.0</ele><time>2026-04-19T12:42:52.999Z</time></trkpt><trkpt lat="38.735569004473724" lon="16.291638374448908"><ele>299.0</ele><time>2026-04-19T12:42:54.999Z</time></trkpt><trkpt lat="38.735556614796955" lon="16.29153764589059"><ele>297.1666666666667</ele><time>2026-04-19T12:42:56.999Z</time></trkpt><trkpt lat="38.73552963028489" lon="16.291423124212276"><ele>295.33333333333337</ele><time>2026-04-19T12:42:58.999Z</time></trkpt><trkpt lat="38.735525096681776" lon="16.291325452369303"><ele>293.5</ele><time>2026-04-19T12:43:00.999Z</time></trkpt><trkpt lat="38.73554593511288" lon="16.291230828382595"><ele>291.6666666666667</ele><time>2026-04-19T12:43:02.999Z</time></trkpt><trkpt lat="38.73556471670444" lon="16.29113489405654"><ele>289.8333333333333</ele><time>2026-04-19T12:43:04.999Z</time></trkpt><trkpt lat="38.73561934665766" lon="16.291053121879642"><ele>288.0</ele><time>2026-04-19T12:43:06.999Z</time></trkpt><trkpt lat="38.73562763732234" lon="16.290943561428726"><ele>288.0</ele><time>2026-04-19T12:43:08.999Z</time></trkpt><trkpt lat="38.735664301238046" lon="16.290828799110464"><ele>288.0</ele><time>2026-04-19T12:43:10.999Z</time></trkpt><trkpt lat="38.735739206006805" lon="16.290715991832986"><ele>288.0</ele><time>2026-04-19T12:43:12.999Z</time></trkpt><trkpt lat="38.735804428644734" lon="16.29058863273541"><ele>288.0</ele><time>2026-04-19T12:43:14.999Z</time></trkpt><trkpt lat="38.73583732886559" lon="16.290504069395833"><ele>288.0</ele><time>2026-04-19T12:43:15.999Z</time></trkpt><trkpt lat="38.735876369592155" lon="16.2904319980924"><ele>285.6666666666667</ele><time>2026-04-19T12:43:16.999Z</time></trkpt><trkpt lat="38.73592136105699" lon="16.29036891146428"><ele>283.3333333333333</ele><time>2026-04-19T12:43:17.999Z</time></trkpt><trkpt lat="38.73598473663002" lon="16.290260973018096"><ele>281.0</ele><time>2026-04-19T12:43:19.999Z</time></trkpt><trkpt lat="38.73601152777335" lon="16.290171795721204"><ele>278.66666666666663</ele><time>2026-04-19T12:43:20.999Z</time></trkpt><trkpt lat="38.73600831475476" lon="16.290074531880837"><ele>276.3333333333333</ele><time>2026-04-19T12:43:21.999Z</time></trkpt><trkpt lat="38.736018291418134" lon="16.289962160446244"><ele>274.0</ele><time>2026-04-19T12:43:22.999Z</time></trkpt><trkpt lat="38.736027854258246" lon="16.289855352472266"><ele>270.59999999999997</ele><time>2026-04-19T12:43:23.999Z</time></trkpt><trkpt lat="38.736039149892854" lon="16.289749687393762"><ele>267.2</ele><time>2026-04-19T12:43:24.999Z</time></trkpt><trkpt lat="38.73606238417437" lon="16.289629781410536"><ele>263.79999999999995</ele><time>2026-04-19T12:43:25.999Z</time></trkpt><trkpt lat="38.7360886605019" lon="16.289499235308043"><ele>260.4</ele><time>2026-04-19T12:43:26.999Z</time></trkpt><trkpt lat="38.73611576925159" lon="16.289361045542456"><ele>257.0</ele><time>2026-04-19T12:43:27.999Z</time></trkpt><trkpt lat="38.73614691792494" lon="16.2892226188091"><ele>254.8</ele><time>2026-04-19T12:43:28.999Z</time></trkpt><trkpt lat="38.73617199640455" lon="16.289087976327806"><ele>252.6</ele><time>2026-04-19T12:43:29.999Z</time></trkpt><trkpt lat="38.7361909101652" lon="16.288949677606624"><ele>250.40000000000003</ele><time>2026-04-19T12:43:30.999Z</time></trkpt><trkpt lat="38.736213576868536" lon="16.288841946038684"><ele>248.20000000000002</ele><time>2026-04-19T12:43:31.999Z</time></trkpt><trkpt lat="38.73623989316484" lon="16.288733568805572"><ele>246.0</ele><time>2026-04-19T12:43:32.999Z</time></trkpt><trkpt lat="38.73629167883965" lon="16.288629334458008"><ele>246.0</ele><time>2026-04-19T12:43:33.999Z</time></trkpt><trkpt lat="38.73635529617438" lon="16.2885198405348"><ele>246.00000000000003</ele><time>2026-04-19T12:43:34.999Z</time></trkpt><trkpt lat="38.736398426168165" lon="16.288397791285576"><ele>246.00000000000003</ele><time>2026-04-19T12:43:35.999Z</time></trkpt><trkpt lat="38.736440747677456" lon="16.288294569941016"><ele>246.0</ele><time>2026-04-19T12:43:36.999Z</time></trkpt><trkpt lat="38.73647201617225" lon="16.28819339224646"><ele>246.0</ele><time>2026-04-19T12:43:37.999Z</time></trkpt><trkpt lat="38.736509642461044" lon="16.288085192511055"><ele>246.60000000000002</ele><time>2026-04-19T12:43:38.999Z</time></trkpt><trkpt lat="38.736521258286714" lon="16.287960829532466"><ele>247.20000000000002</ele><time>2026-04-19T12:43:39.999Z</time></trkpt><trkpt lat="38.736518308829304" lon="16.28785737188111"><ele>247.79999999999998</ele><time>2026-04-19T12:43:40.999Z</time></trkpt><trkpt lat="38.7365026908322" lon="16.287723968299296"><ele>248.39999999999998</ele><time>2026-04-19T12:43:41.999Z</time></trkpt><trkpt lat="38.7364672167845" lon="16.287614169098838"><ele>249.0</ele><time>2026-04-19T12:43:42.999Z</time></trkpt><trkpt lat="38.73643145445262" lon="16.287517653140437"><ele>249.0</ele><time>2026-04-19T12:43:43.999Z</time></trkpt><trkpt lat="38.736406774738924" lon="16.287413014318595"><ele>248.99999999999997</ele><time>2026-04-19T12:43:44.999Z</time></trkpt><trkpt lat="38.73638124598488" lon="16.28729695195457"><ele>248.99999999999997</ele><time>2026-04-19T12:43:45.999Z</time></trkpt><trkpt lat="38.73637104516295" lon="16.287188691163678"><ele>249.0</ele><time>2026-04-19T12:43:46.999Z</time></trkpt><trkpt lat="38.7363642654286" lon="16.287055649025717"><ele>249.0</ele><time>2026-04-19T12:43:47.999Z</time></trkpt><trkpt lat="38.736352755173456" lon="16.2869248213736"><ele>247.79999999999998</ele><time>2026-04-19T12:43:48.999Z</time></trkpt><trkpt lat="38.73633245842648" lon="16.286789835593034"><ele>246.59999999999997</ele><time>2026-04-19T12:43:49.999Z</time></trkpt><trkpt lat="38.736312587732385" lon="16.286641561762004"><ele>245.4</ele><time>2026-04-19T12:43:50.999Z</time></trkpt><trkpt lat="38.73629044910444" lon="16.286522690295996"><ele>244.2</ele><time>2026-04-19T12:43:51.999Z</time></trkpt><trkpt lat="38.73626930141637" lon="16.286406960990764"><ele>243.0</ele><time>2026-04-19T12:43:52.999Z</time></trkpt><trkpt lat="38.73624768674557" lon="16.286287776804674"><ele>241.8</ele><time>2026-04-19T12:43:53.999Z</time></trkpt><trkpt lat="38.736243416749915" lon="16.286150785160586"><ele>240.60000000000002</ele><time>2026-04-19T12:43:54.999Z</time></trkpt><trkpt lat="38.73625891949317" lon="16.286039090898573"><ele>239.39999999999998</ele><time>2026-04-19T12:43:55.999Z</time></trkpt><trkpt lat="38.73628424482165" lon="16.285958558346913"><ele>238.2</ele><time>2026-04-19T12:43:56.999Z</time></trkpt><trkpt lat="38.73631364750778" lon="16.285837169555677"><ele>237.0</ele><time>2026-04-19T12:43:58.999Z</time></trkpt><trkpt lat="38.73631912222744" lon="16.285695884053737"><ele>237.0</ele><time>2026-04-19T12:44:00.999Z</time></trkpt><trkpt lat="38.73631646529687" lon="16.28561455859597"><ele>237.0</ele><time>2026-04-19T12:44:01.999Z</time></trkpt><trkpt lat="38.7363208156376" lon="16.285531962933586"><ele>237.0</ele><time>2026-04-19T12:44:02.999Z</time></trkpt><trkpt lat="38.73631523694538" lon="16.28539122375972"><ele>237.0</ele><time>2026-04-19T12:44:04.999Z</time></trkpt><trkpt lat="38.73631239410199" lon="16.28530981737054"><ele>237.0</ele><time>2026-04-19T12:44:05.999Z</time></trkpt><trkpt lat="38.73630967840144" lon="16.285116013863092"><ele>236.83333333333334</ele><time>2026-04-19T12:44:07.999Z</time></trkpt><trkpt lat="38.73628815731237" lon="16.28499770676403"><ele>236.66666666666669</ele><time>2026-04-19T12:44:08.999Z</time></trkpt><trkpt lat="38.736271877494524" lon="16.28489488851874"><ele>236.5</ele><time>2026-04-19T12:44:09.999Z</time></trkpt><trkpt lat="38.73627253455755" lon="16.28480133681807"><ele>236.33333333333334</ele><time>2026-04-19T12:44:10.999Z</time></trkpt><trkpt lat="38.7362720633522" lon="16.284712098535476"><ele>236.16666666666669</ele><time>2026-04-19T12:44:11.999Z</time></trkpt><trkpt lat="38.73630207017561" lon="16.28462143008912"><ele>236.0</ele><time>2026-04-19T12:44:12.999Z</time></trkpt><trkpt lat="38.736328380269384" lon="16.284536039257556"><ele>236.0</ele><time>2026-04-19T12:44:13.999Z</time></trkpt><trkpt lat="38.736379965043476" lon="16.284397637620966"><ele>236.00000000000003</ele><time>2026-04-19T12:44:15.999Z</time></trkpt><trkpt lat="38.73644842796862" lon="16.284259500832796"><ele>236.00000000000003</ele><time>2026-04-19T12:44:17.999Z</time></trkpt><trkpt lat="38.73648408344008" lon="16.28418710174019"><ele>236.0</ele><time>2026-04-19T12:44:18.999Z</time></trkpt><trkpt lat="38.7365497523261" lon="16.28405443537628"><ele>236.0</ele><time>2026-04-19T12:44:20.999Z</time></trkpt><trkpt lat="38.736605988145136" lon="16.283925426267615"><ele>235.8</ele><time>2026-04-19T12:44:22.999Z</time></trkpt><trkpt lat="38.73665157248131" lon="16.28379316648182"><ele>235.60000000000002</ele><time>2026-04-19T12:44:24.999Z</time></trkpt><trkpt lat="38.73670275831269" lon="16.283680760218296"><ele>235.4</ele><time>2026-04-19T12:44:26.999Z</time></trkpt><trkpt lat="38.73676139165125" lon="16.283610447734194"><ele>235.2</ele><time>2026-04-19T12:44:28.999Z</time></trkpt><trkpt lat="38.736836355172386" lon="16.28355202149628"><ele>235.0</ele><time>2026-04-19T12:44:30.999Z</time></trkpt><trkpt lat="38.73690618699449" lon="16.283488884933174"><ele>230.83333333333331</ele><time>2026-04-19T12:44:32.999Z</time></trkpt><trkpt lat="38.73694466507091" lon="16.283413073667944"><ele>226.66666666666666</ele><time>2026-04-19T12:44:34.999Z</time></trkpt><trkpt lat="38.736958135285555" lon="16.283304595336894"><ele>222.5</ele><time>2026-04-19T12:44:36.999Z</time></trkpt><trkpt lat="38.73697191545898" lon="16.283192559641094"><ele>218.33333333333331</ele><time>2026-04-19T12:44:38.999Z</time></trkpt><trkpt lat="38.737018612196216" lon="16.283052880834745"><ele>214.16666666666666</ele><time>2026-04-19T12:44:40.999Z</time></trkpt><trkpt lat="38.73703444624263" lon="16.282961562866955"><ele>210.0</ele><time>2026-04-19T12:44:41.999Z</time></trkpt><trkpt lat="38.7370510829338" lon="16.282878914401834"><ele>209.83333333333334</ele><time>2026-04-19T12:44:42.999Z</time></trkpt><trkpt lat="38.737090244753404" lon="16.282805227455352"><ele>209.66666666666669</ele><time>2026-04-19T12:44:43.999Z</time></trkpt><trkpt lat="38.73713563413504" lon="16.282709793356098"><ele>209.5</ele><time>2026-04-19T12:44:44.999Z</time></trkpt><trkpt lat="38.737176216350385" lon="16.282611864228315"><ele>209.33333333333334</ele><time>2026-04-19T12:44:45.999Z</time></trkpt><trkpt lat="38.73722521914895" lon="16.282524414257278"><ele>209.16666666666669</ele><time>2026-04-19T12:44:46.999Z</time></trkpt><trkpt lat="38.737287281808506" lon="16.28244226239969"><ele>209.0</ele><time>2026-04-19T12:44:47.999Z</time></trkpt><trkpt lat="38.73734295417779" lon="16.282354665318998"><ele>209.0</ele><time>2026-04-19T12:44:48.999Z</time></trkpt><trkpt lat="38.73740703985269" lon="16.28228815760854"><ele>209.0</ele><time>2026-04-19T12:44:49.999Z</time></trkpt><trkpt lat="38.737472577362865" lon="16.282242376770238"><ele>209.0</ele><time>2026-04-19T12:44:50.999Z</time></trkpt><trkpt lat="38.737562772517094" lon="16.282173057388793"><ele>209.0</ele><time>2026-04-19T12:44:52.999Z</time></trkpt><trkpt lat="38.73761697273245" lon="16.282025804227626"><ele>209.0</ele><time>2026-04-19T12:44:54.999Z</time></trkpt><trkpt lat="38.73764780794306" lon="16.28193442159209"><ele>208.83333333333334</ele><time>2026-04-19T12:44:55.999Z</time></trkpt><trkpt lat="38.73769280609107" lon="16.281859753360045"><ele>208.66666666666669</ele><time>2026-04-19T12:44:56.999Z</time></trkpt><trkpt lat="38.73775770158819" lon="16.281807564888194"><ele>208.5</ele><time>2026-04-19T12:44:57.999Z</time></trkpt><trkpt lat="38.73785558557053" lon="16.281769568291054"><ele>208.33333333333331</ele><time>2026-04-19T12:44:58.999Z</time></trkpt><trkpt lat="38.73795080287618" lon="16.281731278477103"><ele>208.16666666666666</ele><time>2026-04-19T12:44:59.999Z</time></trkpt><trkpt lat="38.73802198514918" lon="16.28170345860683"><ele>208.0</ele><time>2026-04-19T12:45:00.999Z</time></trkpt><trkpt lat="38.73809477667711" lon="16.2816071464788"><ele>208.0</ele><time>2026-04-19T12:45:02.999Z</time></trkpt><trkpt lat="38.738148182719115" lon="16.28144678739447"><ele>208.0</ele><time>2026-04-19T12:45:04.999Z</time></trkpt><trkpt lat="38.73820067542893" lon="16.281345511645696"><ele>208.0</ele><time>2026-04-19T12:45:05.999Z</time></trkpt><trkpt lat="38.738262965565134" lon="16.281254013266345"><ele>208.0</ele><time>2026-04-19T12:45:06.999Z</time></trkpt><trkpt lat="38.738323533607414" lon="16.281172705808704"><ele>208.0</ele><time>2026-04-19T12:45:07.999Z</time></trkpt><trkpt lat="38.73838880420444" lon="16.28111055790489"><ele>207.83333333333331</ele><time>2026-04-19T12:45:08.999Z</time></trkpt><trkpt lat="38.738449123294224" lon="16.28104465057971"><ele>207.66666666666666</ele><time>2026-04-19T12:45:09.999Z</time></trkpt><trkpt lat="38.73851549833145" lon="16.280974015514524"><ele>207.5</ele><time>2026-04-19T12:45:10.999Z</time></trkpt><trkpt lat="38.738579863249754" lon="16.28090627691076"><ele>207.33333333333331</ele><time>2026-04-19T12:45:11.999Z</time></trkpt><trkpt lat="38.738635709167944" lon="16.280832048516427"><ele>207.16666666666666</ele><time>2026-04-19T12:45:12.999Z</time></trkpt><trkpt lat="38.73867179038507" lon="16.280760520529395"><ele>207.0</ele><time>2026-04-19T12:45:13.999Z</time></trkpt><trkpt lat="38.73869211868913" lon="16.280680848838042"><ele>208.8</ele><time>2026-04-19T12:45:14.999Z</time></trkpt><trkpt lat="38.7386899571677" lon="16.280527625356267"><ele>210.6</ele><time>2026-04-19T12:45:16.998Z</time></trkpt><trkpt lat="38.738686233930565" lon="16.28041515308987"><ele>212.40000000000003</ele><time>2026-04-19T12:45:17.998Z</time></trkpt><trkpt lat="38.73869015176381" lon="16.280318191072624"><ele>214.20000000000002</ele><time>2026-04-19T12:45:18.998Z</time></trkpt><trkpt lat="38.73870814805086" lon="16.28017882100385"><ele>216.0</ele><time>2026-04-19T12:45:19.998Z</time></trkpt><trkpt lat="38.73872200648796" lon="16.280054780647074"><ele>216.0</ele><time>2026-04-19T12:45:20.998Z</time></trkpt><trkpt lat="38.738737177756356" lon="16.27992358523416"><ele>216.00000000000003</ele><time>2026-04-19T12:45:21.998Z</time></trkpt><trkpt lat="38.73875199776833" lon="16.279810362441467"><ele>216.00000000000003</ele><time>2026-04-19T12:45:22.998Z</time></trkpt><trkpt lat="38.738773119928" lon="16.27970897491813"><ele>216.0</ele><time>2026-04-19T12:45:23.998Z</time></trkpt><trkpt lat="38.73882470679685" lon="16.279560347946788"><ele>216.0</ele><time>2026-04-19T12:45:25.998Z</time></trkpt><trkpt lat="38.738868235072324" lon="16.279377846571265"><ele>216.33333333333334</ele><time>2026-04-19T12:45:27.998Z</time></trkpt><trkpt lat="38.73889039921524" lon="16.2792786401325"><ele>216.66666666666669</ele><time>2026-04-19T12:45:28.998Z</time></trkpt><trkpt lat="38.73892601772626" lon="16.279193389968928"><ele>217.0</ele><time>2026-04-19T12:45:29.998Z</time></trkpt><trkpt lat="38.738983530628616" lon="16.279128778557805"><ele>217.33333333333334</ele><time>2026-04-19T12:45:30.998Z</time></trkpt><trkpt lat="38.73903770544027" lon="16.279073881333332"><ele>217.66666666666669</ele><time>2026-04-19T12:45:31.998Z</time></trkpt><trkpt lat="38.7390868145217" lon="16.279017129386098"><ele>218.0</ele><time>2026-04-19T12:45:32.998Z</time></trkpt><trkpt lat="38.739142631991484" lon="16.278866502968082"><ele>216.60000000000002</ele><time>2026-04-19T12:45:34.998Z</time></trkpt><trkpt lat="38.739187487370636" lon="16.278752436258202"><ele>215.20000000000002</ele><time>2026-04-19T12:45:36.998Z</time></trkpt><trkpt lat="38.73925946593393" lon="16.27864539437201"><ele>213.8</ele><time>2026-04-19T12:45:38.998Z</time></trkpt><trkpt lat="38.739300570787485" lon="16.278565617757994"><ele>212.4</ele><time>2026-04-19T12:45:39.998Z</time></trkpt><trkpt lat="38.739364362918074" lon="16.278425067639645"><ele>211.0</ele><time>2026-04-19T12:45:41.998Z</time></trkpt><trkpt lat="38.73938242204644" lon="16.278346195715745"><ele>208.49999999999997</ele><time>2026-04-19T12:45:42.998Z</time></trkpt><trkpt lat="38.73939719498006" lon="16.278266133777297"><ele>206.0</ele><time>2026-04-19T12:45:43.998Z</time></trkpt><trkpt lat="38.739396517021774" lon="16.27817080496213"><ele>203.5</ele><time>2026-04-19T12:45:44.998Z</time></trkpt><trkpt lat="38.73938898611041" lon="16.278065534625163"><ele>201.0</ele><time>2026-04-19T12:45:45.998Z</time></trkpt><trkpt lat="38.73937756957034" lon="16.277977438380184"><ele>198.49999999999997</ele><time>2026-04-19T12:45:46.998Z</time></trkpt><trkpt lat="38.73936752207167" lon="16.27787858300237"><ele>196.0</ele><time>2026-04-19T12:45:47.998Z</time></trkpt><trkpt lat="38.73935656687679" lon="16.277773251625078"><ele>196.0</ele><time>2026-04-19T12:45:48.998Z</time></trkpt><trkpt lat="38.73933991559255" lon="16.277620117795472"><ele>196.0</ele><time>2026-04-19T12:45:50.998Z</time></trkpt><trkpt lat="38.73931863391267" lon="16.277472462697844"><ele>196.0</ele><time>2026-04-19T12:45:52.998Z</time></trkpt><trkpt lat="38.73928079693147" lon="16.277338449600666"><ele>196.0</ele><time>2026-04-19T12:45:54.998Z</time></trkpt><trkpt lat="38.7392433518279" lon="16.277200103949678"><ele>194.60000000000002</ele><time>2026-04-19T12:45:56.998Z</time></trkpt><trkpt lat="38.73920551572323" lon="16.27705699929076"><ele>193.2</ele><time>2026-04-19T12:45:58.998Z</time></trkpt><trkpt lat="38.73917665221921" lon="16.27690959228711"><ele>191.8</ele><time>2026-04-19T12:46:00.998Z</time></trkpt><trkpt lat="38.73914741953198" lon="16.276784619732954"><ele>190.39999999999998</ele><time>2026-04-19T12:46:02.998Z</time></trkpt><trkpt lat="38.73911894304853" lon="16.276671727567095"><ele>189.0</ele><time>2026-04-19T12:46:04.998Z</time></trkpt><trkpt lat="38.73906758680067" lon="16.276582851682047"><ele>189.0</ele><time>2026-04-19T12:46:06.998Z</time></trkpt><trkpt lat="38.73904613394474" lon="16.276467344132296"><ele>189.0</ele><time>2026-04-19T12:46:09.998Z</time></trkpt><trkpt lat="38.739023936141606" lon="16.27637520865245"><ele>189.0</ele><time>2026-04-19T12:46:12.998Z</time></trkpt><trkpt lat="38.739034668902114" lon="16.276283116253868"><ele>189.0</ele><time>2026-04-19T12:46:16.998Z</time></trkpt><trkpt lat="38.73904519826313" lon="16.276198182458582"><ele>189.0</ele><time>2026-04-19T12:46:19.998Z</time></trkpt><trkpt lat="38.73904989141505" lon="16.276075136733333"><ele>189.0</ele><time>2026-04-19T12:46:22.998Z</time></trkpt><trkpt lat="38.739077093302505" lon="16.27599691994414"><ele>186.6</ele><time>2026-04-19T12:46:24.998Z</time></trkpt><trkpt lat="38.73909731904777" lon="16.2759027839831"><ele>184.2</ele><time>2026-04-19T12:46:26.998Z</time></trkpt><trkpt lat="38.73909450546443" lon="16.27576924135834"><ele>181.79999999999998</ele><time>2026-04-19T12:46:28.998Z</time></trkpt><trkpt lat="38.73909185188961" lon="16.275649898916132"><ele>179.39999999999998</ele><time>2026-04-19T12:46:30.998Z</time></trkpt><trkpt lat="38.739097543528175" lon="16.27553009948406"><ele>177.0</ele><time>2026-04-19T12:46:32.998Z</time></trkpt><trkpt lat="38.73910426404891" lon="16.275400242483535"><ele>175.0</ele><time>2026-04-19T12:46:34.998Z</time></trkpt><trkpt lat="38.739091612891286" lon="16.275278491567857"><ele>173.0</ele><time>2026-04-19T12:46:36.998Z</time></trkpt><trkpt lat="38.7390591412248" lon="16.27519006627957"><ele>171.0</ele><time>2026-04-19T12:46:38.998Z</time></trkpt><trkpt lat="38.73903646415604" lon="16.27509026202186"><ele>169.0</ele><time>2026-04-19T12:46:40.998Z</time></trkpt><trkpt lat="38.739018550470526" lon="16.274998635930206"><ele>167.0</ele><time>2026-04-19T12:46:42.998Z</time></trkpt><trkpt lat="38.739014701792094" lon="16.27488462670168"><ele>165.0</ele><time>2026-04-19T12:46:45.998Z</time></trkpt><trkpt lat="38.738987669147825" lon="16.27480331548213"><ele>161.0</ele><time>2026-04-19T12:46:48.998Z</time></trkpt><trkpt lat="38.73896205174321" lon="16.274688854787744"><ele>157.0</ele><time>2026-04-19T12:46:53.998Z</time></trkpt><trkpt lat="38.73895318135162" lon="16.274604462959815"><ele>153.0</ele><time>2026-04-19T12:46:55.998Z</time></trkpt><trkpt lat="38.7389514144773" lon="16.27451206776882"><ele>149.0</ele><time>2026-04-19T12:46:57.998Z</time></trkpt><trkpt lat="38.73895076384046" lon="16.27440923418279"><ele>145.0</ele><time>2026-04-19T12:46:59.998Z</time></trkpt><trkpt lat="38.73892882236272" lon="16.274301116230962"><ele>141.0</ele><time>2026-04-19T12:47:01.998Z</time></trkpt><trkpt lat="38.738884981695655" lon="16.274216477495376"><ele>141.0</ele><time>2026-04-19T12:47:03.998Z</time></trkpt><trkpt lat="38.738843401769756" lon="16.27411847764333"><ele>141.0</ele><time>2026-04-19T12:47:05.998Z</time></trkpt><trkpt lat="38.7388270257306" lon="16.273998369456276"><ele>141.0</ele><time>2026-04-19T12:47:07.998Z</time></trkpt><trkpt lat="38.73882066274156" lon="16.27387254563311"><ele>141.0</ele><time>2026-04-19T12:47:09.998Z</time></trkpt><trkpt lat="38.73880955208252" lon="16.273730842841815"><ele>141.0</ele><time>2026-04-19T12:47:11.998Z</time></trkpt><trkpt lat="38.738830644291426" lon="16.27362680423024"><ele>136.4</ele><time>2026-04-19T12:47:13.998Z</time></trkpt><trkpt lat="38.73884508425414" lon="16.27348017311277"><ele>131.8</ele><time>2026-04-19T12:47:15.998Z</time></trkpt><trkpt lat="38.73885545102543" lon="16.27333473534707"><ele>127.20000000000002</ele><time>2026-04-19T12:47:17.998Z</time></trkpt><trkpt lat="38.738847155247385" lon="16.273182955052256"><ele>122.60000000000001</ele><time>2026-04-19T12:47:19.998Z</time></trkpt><trkpt lat="38.73882452154058" lon="16.27309971169603"><ele>118.0</ele><time>2026-04-19T12:47:20.998Z</time></trkpt><trkpt lat="38.738786076692044" lon="16.273006532512664"><ele>116.4</ele><time>2026-04-19T12:47:21.998Z</time></trkpt><trkpt lat="38.73875652497333" lon="16.272916259717572"><ele>114.80000000000001</ele><time>2026-04-19T12:47:22.998Z</time></trkpt><trkpt lat="38.73872533570943" lon="16.272767896534116"><ele>113.2</ele><time>2026-04-19T12:47:24.998Z</time></trkpt><trkpt lat="38.73869977500595" lon="16.272677628664077"><ele>111.6</ele><time>2026-04-19T12:47:25.998Z</time></trkpt><trkpt lat="38.73864338442807" lon="16.27254998816334"><ele>110.0</ele><time>2026-04-19T12:47:27.998Z</time></trkpt><trkpt lat="38.738614072446616" lon="16.27244495023902"><ele>109.99999999999999</ele><time>2026-04-19T12:47:29.998Z</time></trkpt><trkpt lat="38.73858748930485" lon="16.272350775745828"><ele>110.0</ele><time>2026-04-19T12:47:33.998Z</time></trkpt><trkpt lat="38.738575527531154" lon="16.27223655537287"><ele>110.0</ele><time>2026-04-19T12:47:36.998Z</time></trkpt><trkpt lat="38.738615995704095" lon="16.27216184850018"><ele>110.0</ele><time>2026-04-19T12:47:41.998Z</time></trkpt><trkpt lat="38.73869254265271" lon="16.272166862651904"><ele>109.99999999999999</ele><time>2026-04-19T12:47:44.998Z</time></trkpt><trkpt lat="38.7387509120188" lon="16.27221448028094"><ele>110.0</ele><time>2026-04-19T12:47:47.998Z</time></trkpt><trkpt lat="38.73872840373944" lon="16.272130289266265"><ele>108.85714285714285</ele><time>2026-04-19T12:47:55.998Z</time></trkpt><trkpt lat="38.73870461762412" lon="16.272042268017323"><ele>107.71428571428571</ele><time>2026-04-19T12:47:58.998Z</time></trkpt><trkpt lat="38.73868368118123" lon="16.27195693996694"><ele>106.57142857142857</ele><time>2026-04-19T12:48:01.997Z</time></trkpt><trkpt lat="38.738682257653636" lon="16.271870195898558"><ele>105.42857142857142</ele><time>2026-04-19T12:48:03.997Z</time></trkpt><trkpt lat="38.73868272789513" lon="16.27178080849008"><ele>104.28571428571429</ele><time>2026-04-19T12:48:05.997Z</time></trkpt><trkpt lat="38.7386681838227" lon="16.271678371255156"><ele>103.14285714285714</ele><time>2026-04-19T12:48:07.997Z</time></trkpt><trkpt lat="38.738652166085224" lon="16.271571958324845"><ele>102.0</ele><time>2026-04-19T12:48:09.997Z</time></trkpt><trkpt lat="38.738646340868996" lon="16.27147994272552"><ele>100.16666666666667</ele><time>2026-04-19T12:48:11.997Z</time></trkpt><trkpt lat="38.73863835129801" lon="16.271377528018004"><ele>98.33333333333333</ele><time>2026-04-19T12:48:14.997Z</time></trkpt><trkpt lat="38.73864493801408" lon="16.27125171123077"><ele>96.5</ele><time>2026-04-19T12:48:17.997Z</time></trkpt><trkpt lat="38.73865030645932" lon="16.271149429327565"><ele>94.66666666666666</ele><time>2026-04-19T12:48:19.997Z</time></trkpt><trkpt lat="38.738659058400906" lon="16.2710366460447"><ele>92.83333333333333</ele><time>2026-04-19T12:48:21.997Z</time></trkpt><trkpt lat="38.73868258855231" lon="16.270960541733288"><ele>91.0</ele><time>2026-04-19T12:48:23.997Z</time></trkpt><trkpt lat="38.738719457707184" lon="16.270860986179226"><ele>91.0</ele><time>2026-04-19T12:48:25.997Z</time></trkpt><trkpt lat="38.73876112598867" lon="16.270778486840893"><ele>91.0</ele><time>2026-04-19T12:48:27.997Z</time></trkpt><trkpt lat="38.73880059745477" lon="16.2707117576499"><ele>91.0</ele><time>2026-04-19T12:48:29.997Z</time></trkpt><trkpt lat="38.73884025424698" lon="16.270612953705406"><ele>91.0</ele><time>2026-04-19T12:48:32.997Z</time></trkpt><trkpt lat="38.738872036079286" lon="16.27053469617319"><ele>91.0</ele><time>2026-04-19T12:48:34.997Z</time></trkpt><trkpt lat="38.73891772706114" lon="16.27044678095431"><ele>91.0</ele><time>2026-04-19T12:48:37.997Z</time></trkpt><trkpt lat="38.73894920882584" lon="16.270375071827303"><ele>91.0</ele><time>2026-04-19T12:48:42Z</time></trkpt><trkpt lat="38.73898604064839" lon="16.270298264846414"><ele>89.28571428571429</ele><time>2026-04-19T12:48:46Z</time></trkpt><trkpt lat="38.739027812233196" lon="16.27021612338428"><ele>87.57142857142857</ele><time>2026-04-19T12:48:50Z</time></trkpt><trkpt lat="38.73905839765428" lon="16.27013919305503"><ele>85.85714285714286</ele><time>2026-04-19T12:48:57Z</time></trkpt><trkpt lat="38.73905882481724" lon="16.270049616621318"><ele>84.14285714285714</ele><time>2026-04-19T12:49:03Z</time></trkpt><trkpt lat="38.73906656285178" lon="16.26996697815107"><ele>82.42857142857143</ele><time>2026-04-19T12:49:09Z</time></trkpt><trkpt lat="38.739096677564675" lon="16.2698776206282"><ele>80.71428571428572</ele><time>2026-04-19T12:49:14Z</time></trkpt><trkpt lat="38.73915280491448" lon="16.269817948528246"><ele>79.0</ele><time>2026-04-19T12:49:16Z</time></trkpt><trkpt lat="38.739203335639694" lon="16.269745847878344"><ele>79.0</ele><time>2026-04-19T12:49:19Z</time></trkpt><trkpt lat="38.73924879388787" lon="16.26965993261643"><ele>79.0</ele><time>2026-04-19T12:49:22Z</time></trkpt><trkpt lat="38.73927689885161" lon="16.269577477763736"><ele>79.0</ele><time>2026-04-19T12:49:27Z</time></trkpt><trkpt lat="38.739338543110854" lon="16.26945378133552"><ele>79.0</ele><time>2026-04-19T12:49:29Z</time></trkpt><trkpt lat="38.73936684200873" lon="16.269336091203616"><ele>79.0</ele><time>2026-04-19T12:49:31Z</time></trkpt><trkpt lat="38.73936055920868" lon="16.26918909008838"><ele>79.0</ele><time>2026-04-19T12:49:33Z</time></trkpt><trkpt lat="38.73932888099511" lon="16.26911066903906"><ele>79.0</ele><time>2026-04-19T12:49:34Z</time></trkpt><trkpt lat="38.73929457597944" lon="16.269009083659988"><ele>79.0</ele><time>2026-04-19T12:49:35Z</time></trkpt><trkpt lat="38.73924059406854" lon="16.268913065545387"><ele>79.0</ele><time>2026-04-19T12:49:36Z</time></trkpt><trkpt lat="38.73918408151344" lon="16.26882890860464"><ele>79.0</ele><time>2026-04-19T12:49:37Z</time></trkpt><trkpt lat="38.739118493938086" lon="16.268763868816094"><ele>79.0</ele><time>2026-04-19T12:49:38Z</time></trkpt><trkpt lat="38.73905069712296" lon="16.268713545444022"><ele>78.16666666666666</ele><time>2026-04-19T12:49:39Z</time></trkpt><trkpt lat="38.738979765954845" lon="16.26867347200689"><ele>77.33333333333333</ele><time>2026-04-19T12:49:40Z</time></trkpt><trkpt lat="38.73890574081553" lon="16.268649065500643"><ele>76.5</ele><time>2026-04-19T12:49:41Z</time></trkpt><trkpt lat="38.73884063167077" lon="16.268610952998696"><ele>75.66666666666667</ele><time>2026-04-19T12:49:42Z</time></trkpt><trkpt lat="38.738786391843846" lon="16.268535384376236"><ele>74.83333333333334</ele><time>2026-04-19T12:49:43Z</time></trkpt><trkpt lat="38.73873580805444" lon="16.268451581646744"><ele>74.0</ele><time>2026-04-19T12:49:44Z</time></trkpt><trkpt lat="38.738696845847635" lon="16.268370801519094"><ele>74.0</ele><time>2026-04-19T12:49:45Z</time></trkpt><trkpt lat="38.73865536066053" lon="16.268280207810772"><ele>74.0</ele><time>2026-04-19T12:49:46Z</time></trkpt><trkpt lat="38.73858946748019" lon="16.268174703807592"><ele>74.0</ele><time>2026-04-19T12:49:47Z</time></trkpt><trkpt lat="38.738499667849275" lon="16.2680685296725"><ele>74.0</ele><time>2026-04-19T12:49:48Z</time></trkpt><trkpt lat="38.73842051226251" lon="16.267942199761308"><ele>74.0</ele><time>2026-04-19T12:49:49Z</time></trkpt><trkpt lat="38.73834837869356" lon="16.26782671883101"><ele>72.2</ele><time>2026-04-19T12:49:50Z</time></trkpt><trkpt lat="38.73827817977824" lon="16.26772102732724"><ele>70.4</ele><time>2026-04-19T12:49:51Z</time></trkpt><trkpt lat="38.73821486152467" lon="16.267630272050127"><ele>68.6</ele><time>2026-04-19T12:49:52Z</time></trkpt><trkpt lat="38.738161500069054" lon="16.267562095743678"><ele>66.8</ele><time>2026-04-19T12:49:53Z</time></trkpt><trkpt lat="38.738118483885884" lon="16.267502417095145"><ele>65.0</ele><time>2026-04-19T12:49:54Z</time></trkpt><trkpt lat="38.738051146363276" lon="16.2673945240784"><ele>65.0</ele><time>2026-04-19T12:49:56Z</time></trkpt><trkpt lat="38.738017671655705" lon="16.267298744568492"><ele>65.0</ele><time>2026-04-19T12:49:58Z</time></trkpt><trkpt lat="38.73809732917991" lon="16.267155674228754"><ele>65.0</ele><time>2026-04-19T12:50:00Z</time></trkpt><trkpt lat="38.73818020608253" lon="16.26707842855044"><ele>65.0</ele><time>2026-04-19T12:50:01Z</time></trkpt><trkpt lat="38.7382661895376" lon="16.266991012496504"><ele>65.0</ele><time>2026-04-19T12:50:02Z</time></trkpt><trkpt lat="38.73834366987671" lon="16.266903479425558"><ele>65.0</ele><time>2026-04-19T12:50:03Z</time></trkpt><trkpt lat="38.73841304216938" lon="16.266835761150418"><ele>65.0</ele><time>2026-04-19T12:50:04Z</time></trkpt><trkpt lat="38.73847055444666" lon="16.266771481867757"><ele>65.0</ele><time>2026-04-19T12:50:05Z</time></trkpt><trkpt lat="38.73851788308853" lon="16.266715893637848"><ele>65.0</ele><time>2026-04-19T12:50:06Z</time></trkpt><trkpt lat="38.73859487797335" lon="16.266654737126302"><ele>65.0</ele><time>2026-04-19T12:50:08Z</time></trkpt><trkpt lat="38.738651125969135" lon="16.266588918440256"><ele>65.0</ele><time>2026-04-19T12:50:11Z</time></trkpt><trkpt lat="38.738694543099" lon="16.266526339799587"><ele>65.00000000000001</ele><time>2026-04-19T12:50:15.999Z</time></trkpt><trkpt lat="38.73875950525027" lon="16.266501761701605"><ele>65.0</ele><time>2026-04-19T12:50:29.999Z</time></trkpt><trkpt lat="38.738805190895725" lon="16.26644153769775"><ele>65.0</ele><time>2026-04-19T12:50:47.999Z</time></trkpt><trkpt lat="38.738841799336434" lon="16.266362699601878"><ele>65.0</ele><time>2026-04-19T12:50:54.999Z</time></trkpt><trkpt lat="38.73887485361205" lon="16.266285550030926"><ele>65.0</ele><time>2026-04-19T12:51:02.999Z</time></trkpt><trkpt lat="38.73890030723736" lon="16.26620718198455"><ele>65.00000000000001</ele><time>2026-04-19T12:51:08.999Z</time></trkpt><trkpt lat="38.73887808728987" lon="16.266109969846323"><ele>65.0</ele><time>2026-04-19T12:51:14.999Z</time></trkpt><trkpt lat="38.73885932785257" lon="16.266023246146833"><ele>65.0</ele><time>2026-04-19T12:51:19.999Z</time></trkpt><trkpt lat="38.73880080312224" lon="16.265939076932142"><ele>65.0</ele><time>2026-04-19T12:51:23.999Z</time></trkpt><trkpt lat="38.738723072875366" lon="16.26586253087866"><ele>65.0</ele><time>2026-04-19T12:51:25.999Z</time></trkpt><trkpt lat="38.738659286737644" lon="16.26575341566092"><ele>65.0</ele><time>2026-04-19T12:51:27.999Z</time></trkpt><trkpt lat="38.73859668923652" lon="16.26561607772865"><ele>65.0</ele><time>2026-04-19T12:51:29.999Z</time></trkpt><trkpt lat="38.738566838875144" lon="16.265533680882694"><ele>64.28571428571429</ele><time>2026-04-19T12:51:30.999Z</time></trkpt><trkpt lat="38.73853640786308" lon="16.265455630898582"><ele>63.57142857142857</ele><time>2026-04-19T12:51:31.999Z</time></trkpt><trkpt lat="38.73850390039018" lon="16.265373163593296"><ele>62.85714285714286</ele><time>2026-04-19T12:51:32.999Z</time></trkpt><trkpt lat="38.73848844544669" lon="16.265294835801082"><ele>62.142857142857146</ele><time>2026-04-19T12:51:33.999Z</time></trkpt><trkpt lat="38.738454194964504" lon="16.265212733252387"><ele>61.42857142857143</ele><time>2026-04-19T12:51:34.999Z</time></trkpt><trkpt lat="38.73842530291218" lon="16.265140231941107"><ele>60.714285714285715</ele><time>2026-04-19T12:51:35.999Z</time></trkpt><trkpt lat="38.73839168324923" lon="16.265067768209597"><ele>60.0</ele><time>2026-04-19T12:51:36.999Z</time></trkpt><trkpt lat="38.738362099504215" lon="16.26499230837096"><ele>60.0</ele><time>2026-04-19T12:51:37.999Z</time></trkpt><trkpt lat="38.73833352894948" lon="16.26491984726619"><ele>60.0</ele><time>2026-04-19T12:51:38.999Z</time></trkpt><trkpt lat="38.73828915531306" lon="16.26481661827893"><ele>60.0</ele><time>2026-04-19T12:51:40.999Z</time></trkpt><trkpt lat="38.73825161106987" lon="16.264738801038497"><ele>60.0</ele><time>2026-04-19T12:51:42.999Z</time></trkpt><trkpt lat="38.73821111386227" lon="16.264676538939344"><ele>60.0</ele><time>2026-04-19T12:51:43.999Z</time></trkpt><trkpt lat="38.73817521477769" lon="16.264596983682925"><ele>60.0</ele><time>2026-04-19T12:51:53.999Z</time></trkpt><trkpt lat="38.73812235413788" lon="16.26453466065415"><ele>60.0</ele><time>2026-04-19T12:51:57.999Z</time></trkpt><trkpt lat="38.738061502272465" lon="16.2644391057482"><ele>59.5</ele><time>2026-04-19T12:52:00.999Z</time></trkpt><trkpt lat="38.73798772000617" lon="16.264304388793462"><ele>59.0</ele><time>2026-04-19T12:52:03.999Z</time></trkpt><trkpt lat="38.73795727071886" lon="16.264218421788797"><ele>58.5</ele><time>2026-04-19T12:52:05.999Z</time></trkpt><trkpt lat="38.73791455861296" lon="16.2641479991083"><ele>58.0</ele><time>2026-04-19T12:52:08.999Z</time></trkpt><trkpt lat="38.73787182099415" lon="16.264051867309323"><ele>57.5</ele><time>2026-04-19T12:52:11.999Z</time></trkpt><trkpt lat="38.73780787263899" lon="16.26400789578602"><ele>57.0</ele><time>2026-04-19T12:52:14.999Z</time></trkpt><trkpt lat="38.73776421666937" lon="16.263947777391927"><ele>57.0</ele><time>2026-04-19T12:52:17.999Z</time></trkpt><trkpt lat="38.73770627743479" lon="16.26387540935897"><ele>56.99999999999999</ele><time>2026-04-19T12:52:22.999Z</time></trkpt><trkpt lat="38.737660389497755" lon="16.263807199289406"><ele>57.0</ele><time>2026-04-19T12:52:26.999Z</time></trkpt><trkpt lat="38.73761289814732" lon="16.263750335397052"><ele>57.0</ele><time>2026-04-19T12:52:32.999Z</time></trkpt><trkpt lat="38.73755781373847" lon="16.263688226303906"><ele>56.99999999999999</ele><time>2026-04-19T12:52:38.999Z</time></trkpt><trkpt lat="38.73748494083797" lon="16.263718239367286"><ele>57.0</ele><time>2026-04-19T12:52:43.999Z</time></trkpt><trkpt lat="38.73741789524971" lon="16.26372551229209"><ele>57.0</ele><time>2026-04-19T12:53:12.998Z</time></trkpt><trkpt lat="38.73743289217419" lon="16.2636358959876"><ele>57.0</ele><time>2026-04-19T12:53:21.998Z</time></trkpt><trkpt lat="38.73745627116378" lon="16.26354172512629"><ele>57.0</ele><time>2026-04-19T12:53:27.998Z</time></trkpt><trkpt lat="38.73747520145826" lon="16.26344427705237"><ele>57.0</ele><time>2026-04-19T12:53:30.998Z</time></trkpt><trkpt lat="38.73748302469892" lon="16.263344216585466"><ele>57.0</ele><time>2026-04-19T12:53:32.998Z</time></trkpt><trkpt lat="38.73750000323925" lon="16.26325413763087"><ele>57.0</ele><time>2026-04-19T12:53:34.998Z</time></trkpt><trkpt lat="38.7375072216284" lon="16.263155981596626"><ele>57.0</ele><time>2026-04-19T12:53:37.998Z</time></trkpt><trkpt lat="38.737541567211196" lon="16.263040820907648"><ele>57.666666666666664</ele><time>2026-04-19T12:53:40.998Z</time></trkpt><trkpt lat="38.737560023447216" lon="16.26295841064833"><ele>58.33333333333333</ele><time>2026-04-19T12:53:42.998Z</time></trkpt><trkpt lat="38.737582573864984" lon="16.262860580576806"><ele>59.0</ele><time>2026-04-19T12:53:44.998Z</time></trkpt><trkpt lat="38.73761071404108" lon="16.262755859501542"><ele>59.666666666666664</ele><time>2026-04-19T12:53:46.998Z</time></trkpt><trkpt lat="38.73763044655255" lon="16.26265342260806"><ele>60.33333333333333</ele><time>2026-04-19T12:53:48.998Z</time></trkpt><trkpt lat="38.73765475915649" lon="16.26255701930078"><ele>61.0</ele><time>2026-04-19T12:53:50.998Z</time></trkpt><trkpt lat="38.7377019710607" lon="16.2624407952338"><ele>60.33333333333333</ele><time>2026-04-19T12:53:52.998Z</time></trkpt><trkpt lat="38.737728077294086" lon="16.26232523353616"><ele>59.666666666666664</ele><time>2026-04-19T12:53:54.998Z</time></trkpt><trkpt lat="38.73773613311191" lon="16.262228909484282"><ele>59.0</ele><time>2026-04-19T12:53:56.998Z</time></trkpt><trkpt lat="38.7377565785108" lon="16.262111796897493"><ele>58.33333333333333</ele><time>2026-04-19T12:53:58.998Z</time></trkpt><trkpt lat="38.73778477098736" lon="16.26203828713984"><ele>57.666666666666664</ele><time>2026-04-19T12:54:00.998Z</time></trkpt><trkpt lat="38.737816251659765" lon="16.261967521064935"><ele>57.0</ele><time>2026-04-19T12:54:02.998Z</time></trkpt><trkpt lat="38.73788708415886" lon="16.261918095061887"><ele>57.0</ele><time>2026-04-19T12:54:04.998Z</time></trkpt><trkpt lat="38.73790613275562" lon="16.261826812184633"><ele>57.0</ele><time>2026-04-19T12:54:06.998Z</time></trkpt><trkpt lat="38.73790424229931" lon="16.261727152502424"><ele>57.0</ele><time>2026-04-19T12:54:08.998Z</time></trkpt><trkpt lat="38.73790244779498" lon="16.26163525539974"><ele>57.0</ele><time>2026-04-19T12:54:10.998Z</time></trkpt><trkpt lat="38.73793931849248" lon="16.261513733986806"><ele>57.0</ele><time>2026-04-19T12:54:13.998Z</time></trkpt><trkpt lat="38.73796321855752" lon="16.261432602691045"><ele>57.0</ele><time>2026-04-19T12:54:15.998Z</time></trkpt><trkpt lat="38.73799274073718" lon="16.26133932588375"><ele>56.833333333333336</ele><time>2026-04-19T12:54:18.998Z</time></trkpt><trkpt lat="38.73805799972239" lon="16.261302112621756"><ele>56.66666666666667</ele><time>2026-04-19T12:54:22.998Z</time></trkpt><trkpt lat="38.7381306636603" lon="16.261315275343033"><ele>56.5</ele><time>2026-04-19T12:54:25.998Z</time></trkpt><trkpt lat="38.73821808693444" lon="16.261283151883323"><ele>56.333333333333336</ele><time>2026-04-19T12:54:28.998Z</time></trkpt><trkpt lat="38.738285018204074" lon="16.26125424082658"><ele>56.16666666666667</ele><time>2026-04-19T12:54:30.998Z</time></trkpt><trkpt lat="38.73836535805653" lon="16.261243406767"><ele>56.0</ele><time>2026-04-19T12:54:32.998Z</time></trkpt><trkpt lat="38.738455790011315" lon="16.261217851272573"><ele>56.00000000000001</ele><time>2026-04-19T12:54:34.998Z</time></trkpt><trkpt lat="38.73854972997309" lon="16.261206151806007"><ele>56.0</ele><time>2026-04-19T12:54:36.998Z</time></trkpt><trkpt lat="38.73862569209478" lon="16.261185629352223"><ele>56.0</ele><time>2026-04-19T12:54:38.998Z</time></trkpt><trkpt lat="38.73868882349542" lon="16.261164497015333"><ele>56.0</ele><time>2026-04-19T12:54:40.998Z</time></trkpt><trkpt lat="38.73876166152988" lon="16.26113024816503"><ele>56.00000000000001</ele><time>2026-04-19T12:54:42.998Z</time></trkpt><trkpt lat="38.73883712098442" lon="16.26111127228369"><ele>56.0</ele><time>2026-04-19T12:54:44.998Z</time></trkpt><trkpt lat="38.738851136007284" lon="16.261002673743445"><ele>55.66666666666667</ele><time>2026-04-19T12:54:53.998Z</time></trkpt><trkpt lat="38.73879364301791" lon="16.260918145783734"><ele>55.333333333333336</ele><time>2026-04-19T12:54:55.998Z</time></trkpt><trkpt lat="38.738692289587114" lon="16.260826498884004"><ele>55.0</ele><time>2026-04-19T12:54:57.998Z</time></trkpt><trkpt lat="38.73864482882343" lon="16.26076335599551"><ele>54.66666666666667</ele><time>2026-04-19T12:54:58.998Z</time></trkpt><trkpt lat="38.738612414602095" lon="16.260680645970627"><ele>54.333333333333336</ele><time>2026-04-19T12:54:59.998Z</time></trkpt><trkpt lat="38.73858645153081" lon="16.26057935398105"><ele>54.0</ele><time>2026-04-19T12:55:00.998Z</time></trkpt><trkpt lat="38.73854547138409" lon="16.26048631074337"><ele>54.0</ele><time>2026-04-19T12:55:01.998Z</time></trkpt><trkpt lat="38.73851128573829" lon="16.260406765280926"><ele>54.0</ele><time>2026-04-19T12:55:02.998Z</time></trkpt><trkpt lat="38.738485938831104" lon="16.260324696092148"><ele>54.0</ele><time>2026-04-19T12:55:03.998Z</time></trkpt><trkpt lat="38.7384668548749" lon="16.260231374633086"><ele>54.0</ele><time>2026-04-19T12:55:04.998Z</time></trkpt><trkpt lat="38.73845172516094" lon="16.260135158032206"><ele>54.0</ele><time>2026-04-19T12:55:05.998Z</time></trkpt><trkpt lat="38.7384384203224" lon="16.260039394499078"><ele>54.0</ele><time>2026-04-19T12:55:06.998Z</time></trkpt><trkpt lat="38.73842145223075" lon="16.259908519012306"><ele>53.333333333333336</ele><time>2026-04-19T12:55:08.998Z</time></trkpt><trkpt lat="38.73840899909523" lon="16.25977886253795"><ele>52.66666666666667</ele><time>2026-04-19T12:55:10.998Z</time></trkpt><trkpt lat="38.73839170673043" lon="16.25969899604895"><ele>52.0</ele><time>2026-04-19T12:55:11.998Z</time></trkpt><trkpt lat="38.73838268196225" lon="16.25957257857588"><ele>51.333333333333336</ele><time>2026-04-19T12:55:12.998Z</time></trkpt><trkpt lat="38.73838323123537" lon="16.25946927130586"><ele>50.66666666666667</ele><time>2026-04-19T12:55:13.998Z</time></trkpt><trkpt lat="38.738384730346006" lon="16.25935231673565"><ele>50.0</ele><time>2026-04-19T12:55:14.998Z</time></trkpt><trkpt lat="38.73838922706199" lon="16.2592392388375"><ele>50.00000000000001</ele><time>2026-04-19T12:55:15.998Z</time></trkpt><trkpt lat="38.738406523725345" lon="16.25913089438757"><ele>50.0</ele><time>2026-04-19T12:55:16.998Z</time></trkpt><trkpt lat="38.73842454135849" lon="16.259029604834105"><ele>50.0</ele><time>2026-04-19T12:55:17.997Z</time></trkpt><trkpt lat="38.73843188704974" lon="16.258929389495623"><ele>50.0</ele><time>2026-04-19T12:55:18.997Z</time></trkpt><trkpt lat="38.738417333111" lon="16.25881700133434"><ele>50.00000000000001</ele><time>2026-04-19T12:55:20.997Z</time></trkpt><trkpt lat="38.73838671500125" lon="16.258745109434688"><ele>50.0</ele><time>2026-04-19T12:55:40.997Z</time></trkpt><trkpt lat="38.738360066659794" lon="16.258668811751868"><ele>49.833333333333336</ele><time>2026-04-19T12:55:56.001Z</time></trkpt><trkpt lat="38.73835487068921" lon="16.25857024203858"><ele>49.66666666666667</ele><time>2026-04-19T12:55:58.001Z</time></trkpt><trkpt lat="38.73836582814632" lon="16.258395008480427"><ele>49.5</ele><time>2026-04-19T12:56:00.001Z</time></trkpt><trkpt lat="38.7383635955038" lon="16.258299382214112"><ele>49.33333333333333</ele><time>2026-04-19T12:56:01.001Z</time></trkpt><trkpt lat="38.73836859156283" lon="16.258202817222802"><ele>49.166666666666664</ele><time>2026-04-19T12:56:02.001Z</time></trkpt><trkpt lat="38.73834901967052" lon="16.258119384829577"><ele>49.0</ele><time>2026-04-19T12:56:03.001Z</time></trkpt><trkpt lat="38.73833453406874" lon="16.258029683590124"><ele>48.99999999999999</ele><time>2026-04-19T12:56:04.001Z</time></trkpt><trkpt lat="38.73831850687052" lon="16.257933562230658"><ele>49.0</ele><time>2026-04-19T12:56:05.001Z</time></trkpt><trkpt lat="38.73830487950894" lon="16.257826915944506"><ele>49.0</ele><time>2026-04-19T12:56:06Z</time></trkpt><trkpt lat="38.73827180528419" lon="16.257741247121903"><ele>49.0</ele><time>2026-04-19T12:56:07Z</time></trkpt><trkpt lat="38.73824860841315" lon="16.257653677012712"><ele>48.99999999999999</ele><time>2026-04-19T12:56:08Z</time></trkpt><trkpt lat="38.73825211387177" lon="16.257550871259223"><ele>49.0</ele><time>2026-04-19T12:56:09Z</time></trkpt><trkpt lat="38.73825159952171" lon="16.257446819991866"><ele>48.99999999999999</ele><time>2026-04-19T12:56:10Z</time></trkpt><trkpt lat="38.738247979869854" lon="16.257361496345176"><ele>49.0</ele><time>2026-04-19T12:56:11Z</time></trkpt><trkpt lat="38.73818539943074" lon="16.257226645297024"><ele>49.0</ele><time>2026-04-19T12:56:13Z</time></trkpt><trkpt lat="38.738129962482795" lon="16.257172314108054"><ele>49.0</ele><time>2026-04-19T12:56:14Z</time></trkpt><trkpt lat="38.73808487758594" lon="16.257100044023808"><ele>48.99999999999999</ele><time>2026-04-19T12:56:15Z</time></trkpt><trkpt lat="38.73804617325061" lon="16.25701551927194"><ele>49.0</ele><time>2026-04-19T12:56:16Z</time></trkpt><trkpt lat="38.73800294996221" lon="16.256913325205726"><ele>50.800000000000004</ele><time>2026-04-19T12:56:17Z</time></trkpt><trkpt lat="38.73796426390253" lon="16.256795228727334"><ele>52.6</ele><time>2026-04-19T12:56:18Z</time></trkpt><trkpt lat="38.737927037205935" lon="16.25668573090625"><ele>54.4</ele><time>2026-04-19T12:56:19Z</time></trkpt><trkpt lat="38.73790417374798" lon="16.25659614548464"><ele>56.2</ele><time>2026-04-19T12:56:20Z</time></trkpt><trkpt lat="38.73789328192063" lon="16.25646351604313"><ele>58.0</ele><time>2026-04-19T12:56:22Z</time></trkpt><trkpt lat="38.73789783282912" lon="16.256343643639163"><ele>59.49999999999999</ele><time>2026-04-19T12:56:24Z</time></trkpt><trkpt lat="38.73789117814329" lon="16.2562569661062"><ele>61.0</ele><time>2026-04-19T12:56:26Z</time></trkpt><trkpt lat="38.73789379198887" lon="16.256142789672637"><ele>62.5</ele><time>2026-04-19T12:56:29Z</time></trkpt><trkpt lat="38.73790808396454" lon="16.255987647660522"><ele>64.0</ele><time>2026-04-19T12:56:31Z</time></trkpt><trkpt lat="38.73790019726276" lon="16.25589544035781"><ele>65.5</ele><time>2026-04-19T12:56:32Z</time></trkpt><trkpt lat="38.73789292269421" lon="16.255808132608"><ele>67.0</ele><time>2026-04-19T12:56:33Z</time></trkpt><trkpt lat="38.73789893343678" lon="16.255718666671754"><ele>67.0</ele><time>2026-04-19T12:56:34Z</time></trkpt><trkpt lat="38.73789408908833" lon="16.255626556804426"><ele>67.0</ele><time>2026-04-19T12:56:35Z</time></trkpt><trkpt lat="38.73787849077398" lon="16.25552610517947"><ele>67.0</ele><time>2026-04-19T12:56:36Z</time></trkpt><trkpt lat="38.7378401533611" lon="16.25543254587747"><ele>67.0</ele><time>2026-04-19T12:56:37Z</time></trkpt><trkpt lat="38.73780272704938" lon="16.255353593809193"><ele>67.0</ele><time>2026-04-19T12:56:38Z</time></trkpt><trkpt lat="38.73775885198565" lon="16.255286993185006"><ele>67.0</ele><time>2026-04-19T12:56:39Z</time></trkpt><trkpt lat="38.73768563632366" lon="16.25518520578161"><ele>66.2</ele><time>2026-04-19T12:56:41Z</time></trkpt><trkpt lat="38.737596911367135" lon="16.255101432602967"><ele>65.4</ele><time>2026-04-19T12:56:43Z</time></trkpt><trkpt lat="38.73749546206264" lon="16.25504029611676"><ele>64.6</ele><time>2026-04-19T12:56:45Z</time></trkpt><trkpt lat="38.73741008510285" lon="16.254938091797083"><ele>63.8</ele><time>2026-04-19T12:56:47Z</time></trkpt><trkpt lat="38.73740000447523" lon="16.254845071810028"><ele>63.0</ele><time>2026-04-19T12:56:48Z</time></trkpt><trkpt lat="38.73741099844551" lon="16.25472305542054"><ele>63.0</ele><time>2026-04-19T12:56:49Z</time></trkpt><trkpt lat="38.737464423281764" lon="16.25459419586606"><ele>63.0</ele><time>2026-04-19T12:56:50Z</time></trkpt><trkpt lat="38.73751423988889" lon="16.254457303204408"><ele>63.0</ele><time>2026-04-19T12:56:51Z</time></trkpt><trkpt lat="38.73756616599309" lon="16.254353253390555"><ele>63.0</ele><time>2026-04-19T12:56:52Z</time></trkpt><trkpt lat="38.73759699353512" lon="16.254270052340736"><ele>63.0</ele><time>2026-04-19T12:56:53Z</time></trkpt><trkpt lat="38.737637796066345" lon="16.254143827848345"><ele>63.0</ele><time>2026-04-19T12:56:55Z</time></trkpt><trkpt lat="38.73763585320077" lon="16.254048715778776"><ele>63.0</ele><time>2026-04-19T12:56:58Z</time></trkpt><trkpt lat="38.737667496003226" lon="16.253971947398963"><ele>63.0</ele><time>2026-04-19T12:57:14Z</time></trkpt><trkpt lat="38.737636176130714" lon="16.253884126124294"><ele>63.0</ele><time>2026-04-19T12:57:23Z</time></trkpt><trkpt lat="38.73760439487193" lon="16.253807385852546"><ele>63.0</ele><time>2026-04-19T12:57:30Z</time></trkpt><trkpt lat="38.73759445006671" lon="16.253722645875328"><ele>63.0</ele><time>2026-04-19T12:57:44Z</time></trkpt><trkpt lat="38.7376119380729" lon="16.25358086560519"><ele>63.0</ele><time>2026-04-19T12:57:49Z</time></trkpt><trkpt lat="38.73762216462561" lon="16.253500818698132"><ele>63.0</ele><time>2026-04-19T12:57:50Z</time></trkpt><trkpt lat="38.737625879012384" lon="16.253408611584536"><ele>63.0</ele><time>2026-04-19T12:57:51Z</time></trkpt><trkpt lat="38.7376342167145" lon="16.253302922256793"><ele>63.0</ele><time>2026-04-19T12:57:52Z</time></trkpt><trkpt lat="38.737654350320746" lon="16.25318258318709"><ele>63.0</ele><time>2026-04-19T12:57:53Z</time></trkpt><trkpt lat="38.737656512902646" lon="16.253039707436358"><ele>63.0</ele><time>2026-04-19T12:57:54Z</time></trkpt><trkpt lat="38.73765265247534" lon="16.252883692245508"><ele>62.8</ele><time>2026-04-19T12:57:55Z</time></trkpt><trkpt lat="38.73764882423249" lon="16.25272436332748"><ele>62.599999999999994</ele><time>2026-04-19T12:57:56Z</time></trkpt><trkpt lat="38.737644806727594" lon="16.252576929898925"><ele>62.400000000000006</ele><time>2026-04-19T12:57:57Z</time></trkpt><trkpt lat="38.737636288340795" lon="16.252440305033286"><ele>62.2</ele><time>2026-04-19T12:57:58Z</time></trkpt><trkpt lat="38.73762847713129" lon="16.252309081248985"><ele>62.0</ele><time>2026-04-19T12:57:59Z</time></trkpt><trkpt lat="38.737622358160664" lon="16.252180571567976"><ele>62.0</ele><time>2026-04-19T12:57:59.999Z</time></trkpt><trkpt lat="38.737616565506755" lon="16.25205261606424"><ele>62.0</ele><time>2026-04-19T12:58:00.999Z</time></trkpt><trkpt lat="38.73761224081946" lon="16.251922522090528"><ele>62.0</ele><time>2026-04-19T12:58:01.999Z</time></trkpt><trkpt lat="38.73761084944976" lon="16.251786069047743"><ele>62.0</ele><time>2026-04-19T12:58:02.999Z</time></trkpt><trkpt lat="38.737612975972446" lon="16.251634914110106"><ele>62.0</ele><time>2026-04-19T12:58:03.999Z</time></trkpt><trkpt lat="38.73761312938674" lon="16.25146917881296"><ele>61.0</ele><time>2026-04-19T12:58:04.999Z</time></trkpt><trkpt lat="38.73761665839566" lon="16.251288396861966"><ele>60.0</ele><time>2026-04-19T12:58:05.999Z</time></trkpt><trkpt lat="38.73762140385634" lon="16.251095580684865"><ele>59.0</ele><time>2026-04-19T12:58:06.999Z</time></trkpt><trkpt lat="38.737627150407384" lon="16.25089861269996"><ele>58.0</ele><time>2026-04-19T12:58:07.999Z</time></trkpt><trkpt lat="38.73763294642516" lon="16.250704211552797"><ele>56.5</ele><time>2026-04-19T12:58:08.999Z</time></trkpt><trkpt lat="38.73763869810507" lon="16.250519879589145"><ele>55.0</ele><time>2026-04-19T12:58:09.999Z</time></trkpt><trkpt lat="38.737640950715374" lon="16.250347880011503"><ele>53.5</ele><time>2026-04-19T12:58:10.999Z</time></trkpt><trkpt lat="38.73764161221074" lon="16.250186009808026"><ele>52.0</ele><time>2026-04-19T12:58:11.999Z</time></trkpt><trkpt lat="38.73764116185596" lon="16.25003634357444"><ele>52.0</ele><time>2026-04-19T12:58:12.999Z</time></trkpt><trkpt lat="38.73764421840337" lon="16.249899489243514"><ele>52.0</ele><time>2026-04-19T12:58:13.999Z</time></trkpt><trkpt lat="38.737659383406054" lon="16.249776769032035"><ele>52.0</ele><time>2026-04-19T12:58:14.999Z</time></trkpt><trkpt lat="38.737685008449425" lon="16.249658776797244"><ele>52.0</ele><time>2026-04-19T12:58:15.999Z</time></trkpt><trkpt lat="38.73773300794667" lon="16.249545536760067"><ele>52.0</ele><time>2026-04-19T12:58:16.999Z</time></trkpt><trkpt lat="38.73780255959346" lon="16.249426803527825"><ele>52.0</ele><time>2026-04-19T12:58:17.999Z</time></trkpt><trkpt lat="38.737883294965755" lon="16.24929861373298"><ele>52.0</ele><time>2026-04-19T12:58:18.999Z</time></trkpt><trkpt lat="38.73796693723532" lon="16.24917014931081"><ele>52.0</ele><time>2026-04-19T12:58:19.999Z</time></trkpt><trkpt lat="38.73804214819755" lon="16.249028592938238"><ele>52.0</ele><time>2026-04-19T12:58:20.999Z</time></trkpt><trkpt lat="38.73812702336263" lon="16.248881883476777"><ele>52.0</ele><time>2026-04-19T12:58:21.999Z</time></trkpt><trkpt lat="38.73821511893633" lon="16.24872416906844"><ele>52.0</ele><time>2026-04-19T12:58:22.999Z</time></trkpt><trkpt lat="38.7383009392447" lon="16.248564113597837"><ele>52.0</ele><time>2026-04-19T12:58:23.999Z</time></trkpt><trkpt lat="38.73837982162701" lon="16.2484044932586"><ele>52.0</ele><time>2026-04-19T12:58:24.999Z</time></trkpt><trkpt lat="38.73846680129234" lon="16.248261841988278"><ele>52.0</ele><time>2026-04-19T12:58:25.999Z</time></trkpt><trkpt lat="38.7385583332106" lon="16.24811863840816"><ele>52.0</ele><time>2026-04-19T12:58:26.999Z</time></trkpt><trkpt lat="38.73864902731702" lon="16.24795861093022"><ele>52.0</ele><time>2026-04-19T12:58:27.999Z</time></trkpt><trkpt lat="38.73874247298878" lon="16.247799243046984"><ele>52.5</ele><time>2026-04-19T12:58:28.999Z</time></trkpt><trkpt lat="38.73882996955221" lon="16.24765063329386"><ele>53.0</ele><time>2026-04-19T12:58:29.999Z</time></trkpt><trkpt lat="38.73890036753045" lon="16.24750494349784"><ele>53.5</ele><time>2026-04-19T12:58:30.999Z</time></trkpt><trkpt lat="38.738967172155824" lon="16.2473732706525"><ele>54.0</ele><time>2026-04-19T12:58:31.999Z</time></trkpt><trkpt lat="38.7390297442204" lon="16.247246874927274"><ele>54.0</ele><time>2026-04-19T12:58:32.999Z</time></trkpt><trkpt lat="38.73908937518438" lon="16.247117934445892"><ele>54.0</ele><time>2026-04-19T12:58:33.999Z</time></trkpt><trkpt lat="38.73914816409712" lon="16.246968286935243"><ele>54.0</ele><time>2026-04-19T12:58:34.999Z</time></trkpt><trkpt lat="38.739185680644255" lon="16.246784705693138"><ele>54.0</ele><time>2026-04-19T12:58:35.999Z</time></trkpt><trkpt lat="38.73922079352866" lon="16.246584349620843"><ele>55.25</ele><time>2026-04-19T12:58:36.999Z</time></trkpt><trkpt lat="38.73925888009371" lon="16.24638620416616"><ele>56.5</ele><time>2026-04-19T12:58:37.999Z</time></trkpt><trkpt lat="38.73928926122292" lon="16.246205246059134"><ele>57.75</ele><time>2026-04-19T12:58:38.999Z</time></trkpt><trkpt lat="38.73931144610824" lon="16.246041487054327"><ele>59.0</ele><time>2026-04-19T12:58:39.999Z</time></trkpt><trkpt lat="38.739321110848024" lon="16.24587609213501"><ele>59.0</ele><time>2026-04-19T12:58:40.999Z</time></trkpt><trkpt lat="38.739352514403144" lon="16.245727416104295"><ele>59.00000000000001</ele><time>2026-04-19T12:58:41.999Z</time></trkpt><trkpt lat="38.73938666311113" lon="16.24558790305497"><ele>59.00000000000001</ele><time>2026-04-19T12:58:42.999Z</time></trkpt><trkpt lat="38.73941178400498" lon="16.245449090284154"><ele>59.0</ele><time>2026-04-19T12:58:43.999Z</time></trkpt><trkpt lat="38.7394554186037" lon="16.24533661530227"><ele>59.0</ele><time>2026-04-19T12:58:44.999Z</time></trkpt><trkpt lat="38.739525024392776" lon="16.245242801522725"><ele>63.2</ele><time>2026-04-19T12:58:45.999Z</time></trkpt><trkpt lat="38.73958387281818" lon="16.245134943174257"><ele>67.4</ele><time>2026-04-19T12:58:46.999Z</time></trkpt><trkpt lat="38.739603698862595" lon="16.245035118548525"><ele>71.6</ele><time>2026-04-19T12:58:47.999Z</time></trkpt><trkpt lat="38.73958170351848" lon="16.244933735418396"><ele>75.8</ele><time>2026-04-19T12:58:48.999Z</time></trkpt><trkpt lat="38.73954346240487" lon="16.244824470137015"><ele>80.0</ele><time>2026-04-19T12:58:49.999Z</time></trkpt><trkpt lat="38.73944644984329" lon="16.24473169779805"><ele>78.33333333333334</ele><time>2026-04-19T12:58:50.999Z</time></trkpt><trkpt lat="38.73931621392803" lon="16.244641720934617"><ele>76.66666666666667</ele><time>2026-04-19T12:58:51.999Z</time></trkpt><trkpt lat="38.73915620144689" lon="16.24460712874659"><ele>75.0</ele><time>2026-04-19T12:58:52.999Z</time></trkpt><trkpt lat="38.73900950323757" lon="16.244582293447007"><ele>75.0</ele><time>2026-04-19T12:58:53.999Z</time></trkpt><trkpt lat="38.73888998482037" lon="16.24450676012076"><ele>75.0</ele><time>2026-04-19T12:58:54.999Z</time></trkpt><trkpt lat="38.73878391305689" lon="16.244502639137856"><ele>75.0</ele><time>2026-04-19T12:58:55.999Z</time></trkpt><trkpt lat="38.73868300119947" lon="16.24448839424084"><ele>75.0</ele><time>2026-04-19T12:58:56.999Z</time></trkpt><trkpt lat="38.73859957764549" lon="16.244454716116294"><ele>75.0</ele><time>2026-04-19T12:58:57.999Z</time></trkpt><trkpt lat="38.73854572108069" lon="16.244402274394908"><ele>75.0</ele><time>2026-04-19T12:58:58.999Z</time></trkpt><trkpt lat="38.73848719943365" lon="16.24432195428203"><ele>75.0</ele><time>2026-04-19T12:58:59.999Z</time></trkpt><trkpt lat="38.73845107751265" lon="16.24425249912152"><ele>75.0</ele><time>2026-04-19T12:59:00.999Z</time></trkpt><trkpt lat="38.73843035997713" lon="16.244155286442826"><ele>75.0</ele><time>2026-04-19T12:59:01.999Z</time></trkpt><trkpt lat="38.73843266219736" lon="16.244073689060112"><ele>75.0</ele><time>2026-04-19T12:59:02.999Z</time></trkpt><trkpt lat="38.73850051962572" lon="16.2439229935033"><ele>75.0</ele><time>2026-04-19T12:59:04.999Z</time></trkpt><trkpt lat="38.73856409001443" lon="16.243866565077845"><ele>75.0</ele><time>2026-04-19T12:59:05.999Z</time></trkpt><trkpt lat="38.738899506199246" lon="16.243800249984027"><ele>75.0</ele><time>2026-04-19T12:59:08.999Z</time></trkpt><trkpt lat="38.739037564386784" lon="16.243742210165124"><ele>75.0</ele><time>2026-04-19T12:59:09.999Z</time></trkpt><trkpt lat="38.7391523028538" lon="16.243717809140556"><ele>75.0</ele><time>2026-04-19T12:59:10.999Z</time></trkpt><trkpt lat="38.739254714856" lon="16.24369905285709"><ele>75.0</ele><time>2026-04-19T12:59:11.999Z</time></trkpt><trkpt lat="38.739394274340235" lon="16.243676826852283"><ele>75.0</ele><time>2026-04-19T12:59:12.999Z</time></trkpt><trkpt lat="38.73949214284682" lon="16.243640771750634"><ele>76.0</ele><time>2026-04-19T12:59:13.999Z</time></trkpt><trkpt lat="38.739582166381894" lon="16.24360760666502"><ele>77.0</ele><time>2026-04-19T12:59:14.999Z</time></trkpt><trkpt lat="38.73965960996933" lon="16.24358245986662"><ele>78.0</ele><time>2026-04-19T12:59:15.999Z</time></trkpt><trkpt lat="38.73974815156048" lon="16.243554080250203"><ele>79.0</ele><time>2026-04-19T12:59:16.999Z</time></trkpt><trkpt lat="38.74049466943031" lon="16.24260059298001"><ele>79.0</ele><time>2026-04-19T12:59:24.998Z</time></trkpt><trkpt lat="38.7406513433432" lon="16.242509894063023"><ele>79.0</ele><time>2026-04-19T12:59:25.998Z</time></trkpt><trkpt lat="38.740798743311" lon="16.24236389146871"><ele>79.0</ele><time>2026-04-19T12:59:26.998Z</time></trkpt><trkpt lat="38.74089278707058" lon="16.242169306123596"><ele>77.0</ele><time>2026-04-19T12:59:27.998Z</time></trkpt><trkpt lat="38.74100717076037" lon="16.24202692816985"><ele>75.0</ele><time>2026-04-19T12:59:28.998Z</time></trkpt><trkpt lat="38.74111893450034" lon="16.24190929771195"><ele>73.0</ele><time>2026-04-19T12:59:29.998Z</time></trkpt><trkpt lat="38.74123903049616" lon="16.241803475020273"><ele>73.0</ele><time>2026-04-19T12:59:30.998Z</time></trkpt><trkpt lat="38.74133408208173" lon="16.241665208384077"><ele>73.0</ele><time>2026-04-19T12:59:31.998Z</time></trkpt><trkpt lat="38.7414534144601" lon="16.24155669708202"><ele>73.0</ele><time>2026-04-19T12:59:32.998Z</time></trkpt><trkpt lat="38.74157114602359" lon="16.241448622692456"><ele>73.0</ele><time>2026-04-19T12:59:33.998Z</time></trkpt><trkpt lat="38.7416931809446" lon="16.241359702717983"><ele>69.33333333333333</ele><time>2026-04-19T12:59:34.998Z</time></trkpt><trkpt lat="38.7418100038044" lon="16.24123442323269"><ele>65.66666666666667</ele><time>2026-04-19T12:59:35.998Z</time></trkpt><trkpt lat="38.74193827584851" lon="16.241116176134938"><ele>62.0</ele><time>2026-04-19T12:59:36.998Z</time></trkpt><trkpt lat="38.74206992768114" lon="16.24099756675607"><ele>62.0</ele><time>2026-04-19T12:59:37.998Z</time></trkpt><trkpt lat="38.74218177233826" lon="16.240893480240157"><ele>62.0</ele><time>2026-04-19T12:59:38.998Z</time></trkpt><trkpt lat="38.74228858007338" lon="16.240790836395025"><ele>62.0</ele><time>2026-04-19T12:59:39.998Z</time></trkpt><trkpt lat="38.742385402062425" lon="16.240710426830244"><ele>62.0</ele><time>2026-04-19T12:59:40.998Z</time></trkpt><trkpt lat="38.74248619324138" lon="16.240656815610535"><ele>62.0</ele><time>2026-04-19T12:59:41.998Z</time></trkpt><trkpt lat="38.74259447494385" lon="16.240634905928815"><ele>62.0</ele><time>2026-04-19T12:59:42.998Z</time></trkpt><trkpt lat="38.742673152834705" lon="16.240689363203888"><ele>62.0</ele><time>2026-04-19T12:59:43.998Z</time></trkpt><trkpt lat="38.742722451747625" lon="16.240745692803486"><ele>62.0</ele><time>2026-04-19T12:59:44.998Z</time></trkpt><trkpt lat="38.74278562394542" lon="16.24086674033472"><ele>62.0</ele><time>2026-04-19T12:59:45.998Z</time></trkpt><trkpt lat="38.742829955812915" lon="16.24101435703615"><ele>61.5</ele><time>2026-04-19T12:59:46.998Z</time></trkpt><trkpt lat="38.74288911267174" lon="16.241176549081505"><ele>61.0</ele><time>2026-04-19T12:59:47.998Z</time></trkpt><trkpt lat="38.74293871901086" lon="16.241330878121772"><ele>60.5</ele><time>2026-04-19T12:59:48.998Z</time></trkpt><trkpt lat="38.742995786672736" lon="16.241465334364758"><ele>60.0</ele><time>2026-04-19T12:59:49.998Z</time></trkpt><trkpt lat="38.74306120021962" lon="16.241559235571117"><ele>60.0</ele><time>2026-04-19T12:59:50.998Z</time></trkpt><trkpt lat="38.74314755250611" lon="16.241589829807697"><ele>60.0</ele><time>2026-04-19T12:59:51.998Z</time></trkpt><trkpt lat="38.74323405740601" lon="16.24162110281753"><ele>60.0</ele><time>2026-04-19T12:59:52.998Z</time></trkpt><trkpt lat="38.74331736465268" lon="16.241641050379577"><ele>60.0</ele><time>2026-04-19T12:59:53.998Z</time></trkpt><trkpt lat="38.7434279077173" lon="16.241622370260124"><ele>60.0</ele><time>2026-04-19T12:59:54.998Z</time></trkpt><trkpt lat="38.74354963508705" lon="16.24157360601296"><ele>67.0</ele><time>2026-04-19T12:59:55.998Z</time></trkpt><trkpt lat="38.7436383860721" lon="16.241486691779134"><ele>74.0</ele><time>2026-04-19T12:59:56.998Z</time></trkpt><trkpt lat="38.74370612438345" lon="16.24136685724685"><ele>81.0</ele><time>2026-04-19T12:59:57.998Z</time></trkpt><trkpt lat="38.74376521913912" lon="16.24120121693081"><ele>88.0</ele><time>2026-04-19T12:59:58.998Z</time></trkpt><trkpt lat="38.7437932138674" lon="16.241009569866318"><ele>88.0</ele><time>2026-04-19T12:59:59.998Z</time></trkpt><trkpt lat="38.743823610548866" lon="16.24081920734869"><ele>88.0</ele><time>2026-04-19T13:00:00.998Z</time></trkpt><trkpt lat="38.74387296755886" lon="16.24062901421549"><ele>88.0</ele><time>2026-04-19T13:00:01.998Z</time></trkpt><trkpt lat="38.743965201106754" lon="16.240459064376857"><ele>83.75</ele><time>2026-04-19T13:00:02.998Z</time></trkpt><trkpt lat="38.744072739428795" lon="16.240282597553897"><ele>79.5</ele><time>2026-04-19T13:00:03.998Z</time></trkpt><trkpt lat="38.74416485836409" lon="16.240137943324203"><ele>75.25</ele><time>2026-04-19T13:00:04.998Z</time></trkpt><trkpt lat="38.74424802954065" lon="16.240022121744623"><ele>71.0</ele><time>2026-04-19T13:00:05.998Z</time></trkpt><trkpt lat="38.74436249893007" lon="16.239953185058123"><ele>77.66666666666667</ele><time>2026-04-19T13:00:06.998Z</time></trkpt><trkpt lat="38.744503699788815" lon="16.23991980549511"><ele>84.33333333333333</ele><time>2026-04-19T13:00:07.998Z</time></trkpt><trkpt lat="38.74464671684836" lon="16.239859788304347"><ele>91.0</ele><time>2026-04-19T13:00:08.998Z</time></trkpt><trkpt lat="38.74480746190534" lon="16.239825953233296"><ele>87.66666666666666</ele><time>2026-04-19T13:00:09.998Z</time></trkpt><trkpt lat="38.74497369101954" lon="16.23977411198226"><ele>84.33333333333333</ele><time>2026-04-19T13:00:10.998Z</time></trkpt><trkpt lat="38.74514617041357" lon="16.23974361027638"><ele>81.0</ele><time>2026-04-19T13:00:11.998Z</time></trkpt><trkpt lat="38.745319021626266" lon="16.239677052930055"><ele>81.0</ele><time>2026-04-19T13:00:12.998Z</time></trkpt><trkpt lat="38.74548996934067" lon="16.239633359575784"><ele>81.0</ele><time>2026-04-19T13:00:13.998Z</time></trkpt><trkpt lat="38.74563858447936" lon="16.239588788036755"><ele>81.0</ele><time>2026-04-19T13:00:14.998Z</time></trkpt><trkpt lat="38.745764480391955" lon="16.239552071000922"><ele>81.0</ele><time>2026-04-19T13:00:15.998Z</time></trkpt><trkpt lat="38.74588447076155" lon="16.23951671345589"><ele>81.0</ele><time>2026-04-19T13:00:16.998Z</time></trkpt><trkpt lat="38.74599272383574" lon="16.23948814338116"><ele>81.0</ele><time>2026-04-19T13:00:17.997Z</time></trkpt><trkpt lat="38.74610352676013" lon="16.239475534013103"><ele>81.0</ele><time>2026-04-19T13:00:18.997Z</time></trkpt><trkpt lat="38.746184781252666" lon="16.23960299142175"><ele>83.5</ele><time>2026-04-19T13:00:19.997Z</time></trkpt><trkpt lat="38.74626509089231" lon="16.239701273975108"><ele>86.0</ele><time>2026-04-19T13:00:20.997Z</time></trkpt><trkpt lat="38.74634023812369" lon="16.239845269846963"><ele>88.5</ele><time>2026-04-19T13:00:21.997Z</time></trkpt><trkpt lat="38.74641558792338" lon="16.240039325959206"><ele>91.0</ele><time>2026-04-19T13:00:22.997Z</time></trkpt><trkpt lat="38.74648026867927" lon="16.240231357591657"><ele>91.0</ele><time>2026-04-19T13:00:23.997Z</time></trkpt><trkpt lat="38.74653058381642" lon="16.240408282566122"><ele>91.0</ele><time>2026-04-19T13:00:24.997Z</time></trkpt><trkpt lat="38.746603595955534" lon="16.24056739685592"><ele>91.0</ele><time>2026-04-19T13:00:25.997Z</time></trkpt><trkpt lat="38.74665121825285" lon="16.240735760933603"><ele>91.0</ele><time>2026-04-19T13:00:26.997Z</time></trkpt><trkpt lat="38.746721828043086" lon="16.24088341423261"><ele>91.0</ele><time>2026-04-19T13:00:27.997Z</time></trkpt><trkpt lat="38.74680844996595" lon="16.24099536498592"><ele>91.0</ele><time>2026-04-19T13:00:28.997Z</time></trkpt><trkpt lat="38.74689690116193" lon="16.241099364345764"><ele>91.0</ele><time>2026-04-19T13:00:29.997Z</time></trkpt><trkpt lat="38.747024539887995" lon="16.241163760458072"><ele>91.0</ele><time>2026-04-19T13:00:30.997Z</time></trkpt><trkpt lat="38.747171542260986" lon="16.241218816211813"><ele>86.33333333333333</ele><time>2026-04-19T13:00:31.997Z</time></trkpt><trkpt lat="38.74731165693804" lon="16.24121173842203"><ele>81.66666666666667</ele><time>2026-04-19T13:00:32.997Z</time></trkpt><trkpt lat="38.747450949326634" lon="16.24116566055081"><ele>77.0</ele><time>2026-04-19T13:00:33.997Z</time></trkpt><trkpt lat="38.74761668610221" lon="16.241050889977764"><ele>81.33333333333334</ele><time>2026-04-19T13:00:34.997Z</time></trkpt><trkpt lat="38.74774942787946" lon="16.240906427676848"><ele>85.66666666666667</ele><time>2026-04-19T13:00:35.997Z</time></trkpt><trkpt lat="38.747859123712175" lon="16.240755944916916"><ele>90.0</ele><time>2026-04-19T13:00:36.997Z</time></trkpt><trkpt lat="38.747962098751245" lon="16.24062711588561"><ele>80.33333333333333</ele><time>2026-04-19T13:00:37.997Z</time></trkpt><trkpt lat="38.74808418757594" lon="16.24049144878646"><ele>70.66666666666666</ele><time>2026-04-19T13:00:38.997Z</time></trkpt><trkpt lat="38.74819803095431" lon="16.24038978861292"><ele>61.0</ele><time>2026-04-19T13:00:39.997Z</time></trkpt><trkpt lat="38.74835142338493" lon="16.24033886823169"><ele>61.0</ele><time>2026-04-19T13:00:40.997Z</time></trkpt><trkpt lat="38.74853039391428" lon="16.240296536478677"><ele>61.0</ele><time>2026-04-19T13:00:41.997Z</time></trkpt><trkpt lat="38.74871687884592" lon="16.240257500012323"><ele>61.0</ele><time>2026-04-19T13:00:42.997Z</time></trkpt><trkpt lat="38.74888839140746" lon="16.240215462754506"><ele>61.33333333333333</ele><time>2026-04-19T13:00:43.997Z</time></trkpt><trkpt lat="38.74905890732765" lon="16.24018160440516"><ele>61.66666666666667</ele><time>2026-04-19T13:00:44.997Z</time></trkpt><trkpt lat="38.74922333129586" lon="16.24012694072929"><ele>62.0</ele><time>2026-04-19T13:00:45.997Z</time></trkpt><trkpt lat="38.749391437763556" lon="16.24009515951193"><ele>58.0</ele><time>2026-04-19T13:00:46.997Z</time></trkpt><trkpt lat="38.74955826896991" lon="16.240053607490406"><ele>54.0</ele><time>2026-04-19T13:00:47.997Z</time></trkpt><trkpt lat="38.74970806723809" lon="16.239995071125247"><ele>50.0</ele><time>2026-04-19T13:00:48.997Z</time></trkpt><trkpt lat="38.74986678338167" lon="16.239990708282885"><ele>50.0</ele><time>2026-04-19T13:00:49.997Z</time></trkpt><trkpt lat="38.749998082792786" lon="16.239942629405657"><ele>50.0</ele><time>2026-04-19T13:00:50.997Z</time></trkpt><trkpt lat="38.750121235835664" lon="16.239907103706102"><ele>50.0</ele><time>2026-04-19T13:00:51.997Z</time></trkpt><trkpt lat="38.75024603639687" lon="16.239897398321816"><ele>50.0</ele><time>2026-04-19T13:00:52.997Z</time></trkpt><trkpt lat="38.750357665267344" lon="16.239869154619974"><ele>50.50000000000001</ele><time>2026-04-19T13:00:53.997Z</time></trkpt><trkpt lat="38.75045530390249" lon="16.239838479366504"><ele>51.0</ele><time>2026-04-19T13:00:54.997Z</time></trkpt><trkpt lat="38.75053765127428" lon="16.239807888002836"><ele>51.5</ele><time>2026-04-19T13:00:55.997Z</time></trkpt><trkpt lat="38.75059798888891" lon="16.239778338507563"><ele>52.0</ele><time>2026-04-19T13:00:56.997Z</time></trkpt><trkpt lat="38.75055911219248" lon="16.239842173066414"><ele>52.50000000000001</ele><time>2026-04-19T13:01:00.997Z</time></trkpt><trkpt lat="38.75043359483983" lon="16.23990049613403"><ele>53.0</ele><time>2026-04-19T13:01:02.997Z</time></trkpt><trkpt lat="38.7503458549074" lon="16.239934079553663"><ele>52.4</ele><time>2026-04-19T13:01:03.997Z</time></trkpt><trkpt lat="38.750270619673074" lon="16.239963418130515"><ele>51.8</ele><time>2026-04-19T13:01:04.997Z</time></trkpt><trkpt lat="38.75016776564624" lon="16.240008975390708"><ele>51.2</ele><time>2026-04-19T13:01:06.997Z</time></trkpt><trkpt lat="38.75006882638146" lon="16.240084757297122"><ele>50.6</ele><time>2026-04-19T13:01:08.997Z</time></trkpt><trkpt lat="38.75000321210692" lon="16.240182971621692"><ele>50.0</ele><time>2026-04-19T13:01:10.997Z</time></trkpt><trkpt lat="38.74996411942934" lon="16.240268154869216"><ele>50.00000000000001</ele><time>2026-04-19T13:01:11.997Z</time></trkpt><trkpt lat="38.74994589890554" lon="16.240355470235542"><ele>50.0</ele><time>2026-04-19T13:01:12.997Z</time></trkpt><trkpt lat="38.74991852975867" lon="16.240442023786684"><ele>50.0</ele><time>2026-04-19T13:01:13.997Z</time></trkpt><trkpt lat="38.749911862622575" lon="16.240532686071138"><ele>50.0</ele><time>2026-04-19T13:01:14.997Z</time></trkpt><trkpt lat="38.74989212163917" lon="16.240643247685647"><ele>50.00000000000001</ele><time>2026-04-19T13:01:15.997Z</time></trkpt><trkpt lat="38.74988316774898" lon="16.240788753447195"><ele>50.0</ele><time>2026-04-19T13:01:16.997Z</time></trkpt><trkpt lat="38.749870872302914" lon="16.24091037535929"><ele>50.66666666666667</ele><time>2026-04-19T13:01:17.997Z</time></trkpt><trkpt lat="38.74987564837201" lon="16.241027235511087"><ele>51.333333333333336</ele><time>2026-04-19T13:01:18.997Z</time></trkpt><trkpt lat="38.749869916571704" lon="16.241130124593862"><ele>52.0</ele><time>2026-04-19T13:01:19.997Z</time></trkpt><trkpt lat="38.74987646482196" lon="16.241217855651524"><ele>52.66666666666667</ele><time>2026-04-19T13:01:20.997Z</time></trkpt><trkpt lat="38.749887658084866" lon="16.241306179104534"><ele>53.333333333333336</ele><time>2026-04-19T13:01:21.997Z</time></trkpt><trkpt lat="38.74990154055163" lon="16.241443846875807"><ele>54.0</ele><time>2026-04-19T13:01:23.997Z</time></trkpt><trkpt lat="38.749911205073936" lon="16.241540167128548"><ele>55.66666666666667</ele><time>2026-04-19T13:01:24.997Z</time></trkpt><trkpt lat="38.74991875369786" lon="16.24166945583289"><ele>57.333333333333336</ele><time>2026-04-19T13:01:25.997Z</time></trkpt><trkpt lat="38.74993992927429" lon="16.24174931647347"><ele>59.0</ele><time>2026-04-19T13:01:29.997Z</time></trkpt><trkpt lat="38.750236005741776" lon="16.241738401083673"><ele>61.833333333333336</ele><time>2026-04-19T13:01:30.997Z</time></trkpt><trkpt lat="38.75030669228577" lon="16.241769655553828"><ele>64.66666666666667</ele><time>2026-04-19T13:01:31.997Z</time></trkpt><trkpt lat="38.750408468363915" lon="16.2418262484711"><ele>67.5</ele><time>2026-04-19T13:01:33.997Z</time></trkpt><trkpt lat="38.75046124924189" lon="16.241909694218847"><ele>70.33333333333333</ele><time>2026-04-19T13:01:36.997Z</time></trkpt><trkpt lat="38.750522476939295" lon="16.241997185003882"><ele>73.16666666666666</ele><time>2026-04-19T13:01:38.997Z</time></trkpt><trkpt lat="38.75060039691162" lon="16.242047484099363"><ele>76.0</ele><time>2026-04-19T13:01:40.997Z</time></trkpt><trkpt lat="38.75068525385819" lon="16.242092214894097"><ele>76.0</ele><time>2026-04-19T13:01:42.997Z</time></trkpt><trkpt lat="38.750780460418774" lon="16.242117785403575"><ele>76.0</ele><time>2026-04-19T13:01:44.997Z</time></trkpt><trkpt lat="38.75085872393195" lon="16.24222626574371"><ele>76.0</ele><time>2026-04-19T13:01:46.997Z</time></trkpt><trkpt lat="38.75091268388083" lon="16.242283386316956"><ele>76.0</ele><time>2026-04-19T13:01:47.997Z</time></trkpt><trkpt lat="38.75094307832068" lon="16.242367676650268"><ele>76.0</ele><time>2026-04-19T13:01:48.997Z</time></trkpt><trkpt lat="38.75101695870847" lon="16.242492718846254"><ele>80.0</ele><time>2026-04-19T13:01:50.997Z</time></trkpt><trkpt lat="38.75107753892059" lon="16.24261797564518"><ele>84.0</ele><time>2026-04-19T13:01:52.997Z</time></trkpt><trkpt lat="38.751123639072304" lon="16.24272713225514"><ele>88.0</ele><time>2026-04-19T13:01:53.997Z</time></trkpt><trkpt lat="38.751192352271254" lon="16.24282791402927"><ele>92.0</ele><time>2026-04-19T13:01:54.997Z</time></trkpt><trkpt lat="38.751271197066366" lon="16.242887305479044"><ele>96.0</ele><time>2026-04-19T13:01:55.997Z</time></trkpt><trkpt lat="38.751324872771065" lon="16.242941254086244"><ele>96.0</ele><time>2026-04-19T13:01:56.997Z</time></trkpt><trkpt lat="38.75138024249076" lon="16.243009988834373"><ele>96.0</ele><time>2026-04-19T13:01:57.997Z</time></trkpt><trkpt lat="38.751444074968234" lon="16.243106538310517"><ele>96.0</ele><time>2026-04-19T13:01:58.997Z</time></trkpt><trkpt lat="38.75150016224788" lon="16.24320578572138"><ele>96.0</ele><time>2026-04-19T13:01:59.997Z</time></trkpt><trkpt lat="38.75154330977918" lon="16.24328278195927"><ele>96.0</ele><time>2026-04-19T13:02:00.997Z</time></trkpt><trkpt lat="38.75163322373965" lon="16.243345842390237"><ele>96.0</ele><time>2026-04-19T13:02:02.997Z</time></trkpt><trkpt lat="38.75174129516721" lon="16.243368163148258"><ele>97.0</ele><time>2026-04-19T13:02:04.997Z</time></trkpt><trkpt lat="38.751853743779215" lon="16.243427236418675"><ele>98.0</ele><time>2026-04-19T13:02:06.997Z</time></trkpt><trkpt lat="38.75197473136076" lon="16.243524969283982"><ele>99.0</ele><time>2026-04-19T13:02:08.997Z</time></trkpt><trkpt lat="38.752052518920934" lon="16.24362669754696"><ele>100.0</ele><time>2026-04-19T13:02:10.997Z</time></trkpt><trkpt lat="38.7520937476923" lon="16.2438011688768"><ele>101.16666666666667</ele><time>2026-04-19T13:02:12.997Z</time></trkpt><trkpt lat="38.75215324945382" lon="16.24390282434559"><ele>102.33333333333334</ele><time>2026-04-19T13:02:14.997Z</time></trkpt><trkpt lat="38.75213401728614" lon="16.244012037446893"><ele>103.5</ele><time>2026-04-19T13:02:16.997Z</time></trkpt><trkpt lat="38.752100667322" lon="16.244090614297292"><ele>104.66666666666666</ele><time>2026-04-19T13:02:18.997Z</time></trkpt><trkpt lat="38.75207287245467" lon="16.24420631113283"><ele>105.83333333333333</ele><time>2026-04-19T13:02:20.997Z</time></trkpt><trkpt lat="38.752024477108655" lon="16.244294963218533"><ele>107.0</ele><time>2026-04-19T13:02:22.997Z</time></trkpt><trkpt lat="38.75196101248222" lon="16.244361743608767"><ele>106.99999999999999</ele><time>2026-04-19T13:02:25.997Z</time></trkpt><trkpt lat="38.751964674488335" lon="16.244465484667874"><ele>107.0</ele><time>2026-04-19T13:02:28.997Z</time></trkpt><trkpt lat="38.752004535915795" lon="16.24458101695905"><ele>107.0</ele><time>2026-04-19T13:02:30.997Z</time></trkpt><trkpt lat="38.752021580472544" lon="16.244674406472377"><ele>107.0</ele><time>2026-04-19T13:02:32.997Z</time></trkpt><trkpt lat="38.75199337768744" lon="16.244764686517936"><ele>106.99999999999999</ele><time>2026-04-19T13:02:34.997Z</time></trkpt><trkpt lat="38.75196590037222" lon="16.244842421864774"><ele>107.0</ele><time>2026-04-19T13:02:36.996Z</time></trkpt><trkpt lat="38.751931400327734" lon="16.244978586314524"><ele>103.16666666666666</ele><time>2026-04-19T13:02:38.996Z</time></trkpt><trkpt lat="38.751919914792666" lon="16.245132408766064"><ele>99.33333333333333</ele><time>2026-04-19T13:02:40.996Z</time></trkpt><trkpt lat="38.75196414833083" lon="16.245207780179165"><ele>95.5</ele><time>2026-04-19T13:02:42.996Z</time></trkpt><trkpt lat="38.75201895787702" lon="16.24530162523028"><ele>91.66666666666666</ele><time>2026-04-19T13:02:44.996Z</time></trkpt><trkpt lat="38.75208144856123" lon="16.24537704829901"><ele>87.83333333333333</ele><time>2026-04-19T13:02:47.996Z</time></trkpt><trkpt lat="38.752120017774985" lon="16.24544700886279"><ele>84.0</ele><time>2026-04-19T13:02:49.996Z</time></trkpt><trkpt lat="38.75216722389492" lon="16.24552261448131"><ele>84.0</ele><time>2026-04-19T13:02:52Z</time></trkpt><trkpt lat="38.75222575284718" lon="16.245568466664658"><ele>84.0</ele><time>2026-04-19T13:02:54Z</time></trkpt><trkpt lat="38.75223976443505" lon="16.245672299154656"><ele>84.0</ele><time>2026-04-19T13:02:56Z</time></trkpt><trkpt lat="38.75225463842584" lon="16.245777710943383"><ele>84.0</ele><time>2026-04-19T13:02:58Z</time></trkpt><trkpt lat="38.75225063263993" lon="16.245890875456045"><ele>84.0</ele><time>2026-04-19T13:03:00Z</time></trkpt><trkpt lat="38.75223920968359" lon="16.246009846221963"><ele>84.0</ele><time>2026-04-19T13:03:02Z</time></trkpt><trkpt lat="38.75217982381037" lon="16.246102798756127"><ele>80.0</ele><time>2026-04-19T13:03:04Z</time></trkpt><trkpt lat="38.75212531548339" lon="16.246172267015538"><ele>76.0</ele><time>2026-04-19T13:03:06Z</time></trkpt><trkpt lat="38.75208198157486" lon="16.24625254205674"><ele>72.0</ele><time>2026-04-19T13:03:08Z</time></trkpt><trkpt lat="38.75212721115165" lon="16.246364956116224"><ele>68.0</ele><time>2026-04-19T13:03:09Z</time></trkpt><trkpt lat="38.752237005522225" lon="16.24601943299433"><ele>68.0</ele><time>2026-04-19T13:03:11Z</time></trkpt><trkpt lat="38.752351872416355" lon="16.2460258171286"><ele>68.0</ele><time>2026-04-19T13:03:14Z</time></trkpt><trkpt lat="38.75242938057518" lon="16.24604705386894"><ele>68.0</ele><time>2026-04-19T13:03:16Z</time></trkpt><trkpt lat="38.75252969580719" lon="16.246105255252633"><ele>68.0</ele><time>2026-04-19T13:03:18Z</time></trkpt><trkpt lat="38.75280713712934" lon="16.246559272326934"><ele>65.0</ele><time>2026-04-19T13:03:20Z</time></trkpt><trkpt lat="38.752632067268564" lon="16.2467929921253"><ele>62.0</ele><time>2026-04-19T13:03:21Z</time></trkpt><trkpt lat="38.752669081886815" lon="16.246878342390495"><ele>59.0</ele><time>2026-04-19T13:03:23Z</time></trkpt><trkpt lat="38.752710475718274" lon="16.246971320611777"><ele>56.0</ele><time>2026-04-19T13:03:26Z</time></trkpt><trkpt lat="38.75274363524045" lon="16.247069732146233"><ele>55.00000000000001</ele><time>2026-04-19T13:03:30Z</time></trkpt><trkpt lat="38.75276779112233" lon="16.24714593293724"><ele>54.0</ele><time>2026-04-19T13:03:32Z</time></trkpt><trkpt lat="38.75278997390185" lon="16.24725177574546"><ele>53.0</ele><time>2026-04-19T13:03:34Z</time></trkpt><trkpt lat="38.75283125044734" lon="16.24732630172444"><ele>52.0</ele><time>2026-04-19T13:03:36Z</time></trkpt><trkpt lat="38.75287481898639" lon="16.247442290432176"><ele>51.00000000000001</ele><time>2026-04-19T13:03:38Z</time></trkpt><trkpt lat="38.75293890278425" lon="16.247536426101938"><ele>50.0</ele><time>2026-04-19T13:03:40Z</time></trkpt><trkpt lat="38.75300025156393" lon="16.247609663390033"><ele>49.66666666666667</ele><time>2026-04-19T13:03:42Z</time></trkpt><trkpt lat="38.75305889206119" lon="16.24766387576047"><ele>49.333333333333336</ele><time>2026-04-19T13:03:44Z</time></trkpt><trkpt lat="38.75316654388819" lon="16.247730155901174"><ele>49.0</ele><time>2026-04-19T13:03:46Z</time></trkpt><trkpt lat="38.75323400667112" lon="16.247732933177964"><ele>48.66666666666667</ele><time>2026-04-19T13:03:47Z</time></trkpt><trkpt lat="38.753343323503636" lon="16.24778791278223"><ele>48.333333333333336</ele><time>2026-04-19T13:03:49Z</time></trkpt><trkpt lat="38.75340731734507" lon="16.247818289464252"><ele>48.0</ele><time>2026-04-19T13:03:50Z</time></trkpt><trkpt lat="38.75348162853716" lon="16.247856045506786"><ele>48.333333333333336</ele><time>2026-04-19T13:03:51Z</time></trkpt><trkpt lat="38.75355387557365" lon="16.247896574672286"><ele>48.66666666666667</ele><time>2026-04-19T13:03:51.999Z</time></trkpt><trkpt lat="38.753632909057764" lon="16.247923350460848"><ele>49.0</ele><time>2026-04-19T13:03:52.999Z</time></trkpt><trkpt lat="38.75369707903555" lon="16.247967924552494"><ele>49.333333333333336</ele><time>2026-04-19T13:03:53.999Z</time></trkpt><trkpt lat="38.753748416398366" lon="16.248017658852387"><ele>49.66666666666667</ele><time>2026-04-19T13:03:54.999Z</time></trkpt><trkpt lat="38.75381219583015" lon="16.248140866569685"><ele>50.0</ele><time>2026-04-19T13:03:56.999Z</time></trkpt><trkpt lat="38.7538166266232" lon="16.24829021893876"><ele>50.0</ele><time>2026-04-19T13:03:58.999Z</time></trkpt><trkpt lat="38.753841709596564" lon="16.248408976513076"><ele>50.0</ele><time>2026-04-19T13:04:00.999Z</time></trkpt><trkpt lat="38.75395240687254" lon="16.24847749034285"><ele>50.0</ele><time>2026-04-19T13:04:02.999Z</time></trkpt><trkpt lat="38.7540162443949" lon="16.248414101467723"><ele>50.0</ele><time>2026-04-19T13:04:03.999Z</time></trkpt><trkpt lat="38.75409528790298" lon="16.248335613688997"><ele>50.0</ele><time>2026-04-19T13:04:04.999Z</time></trkpt><trkpt lat="38.75417546574972" lon="16.248256001124393"><ele>50.0</ele><time>2026-04-19T13:04:05.999Z</time></trkpt><trkpt lat="38.75425439343054" lon="16.24817762991186"><ele>50.0</ele><time>2026-04-19T13:04:06.999Z</time></trkpt><trkpt lat="38.754331484723586" lon="16.248101082140344"><ele>50.0</ele><time>2026-04-19T13:04:07.999Z</time></trkpt><trkpt lat="38.7543648923575" lon="16.24795908719315"><ele>50.0</ele><time>2026-04-19T13:04:08.999Z</time></trkpt><trkpt lat="38.75443181414632" lon="16.247889411363026"><ele>50.0</ele><time>2026-04-19T13:04:09.999Z</time></trkpt><trkpt lat="38.75449259339269" lon="16.24782904073976"><ele>49.333333333333336</ele><time>2026-04-19T13:04:10.999Z</time></trkpt><trkpt lat="38.75458679538881" lon="16.247838625860833"><ele>48.66666666666667</ele><time>2026-04-19T13:04:11.999Z</time></trkpt><trkpt lat="38.75464322132003" lon="16.247782385243923"><ele>48.0</ele><time>2026-04-19T13:04:12.999Z</time></trkpt><trkpt lat="38.754699171168234" lon="16.247726336971056"><ele>47.333333333333336</ele><time>2026-04-19T13:04:13.999Z</time></trkpt><trkpt lat="38.754752420819734" lon="16.24767206041954"><ele>46.66666666666667</ele><time>2026-04-19T13:04:14.999Z</time></trkpt><trkpt lat="38.75481317528278" lon="16.247610134378437"><ele>46.0</ele><time>2026-04-19T13:04:15.999Z</time></trkpt><trkpt lat="38.75487999333377" lon="16.247543014756847"><ele>46.0</ele><time>2026-04-19T13:04:16.999Z</time></trkpt><trkpt lat="38.75494303774952" lon="16.24747963193168"><ele>46.0</ele><time>2026-04-19T13:04:17.999Z</time></trkpt><trkpt lat="38.75499931016871" lon="16.2474230574222"><ele>46.0</ele><time>2026-04-19T13:04:18.999Z</time></trkpt><trkpt lat="38.75509158920848" lon="16.2473302831479"><ele>46.0</ele><time>2026-04-19T13:04:20.999Z</time></trkpt><trkpt lat="38.75515940401478" lon="16.2472621043662"><ele>46.0</ele><time>2026-04-19T13:04:22.999Z</time></trkpt><trkpt lat="38.75522563557714" lon="16.247195517340458"><ele>46.0</ele><time>2026-04-19T13:04:25.999Z</time></trkpt><trkpt lat="38.75527572170684" lon="16.247145162386747"><ele>45.8</ele><time>2026-04-19T13:04:27.999Z</time></trkpt><trkpt lat="38.75534983403887" lon="16.247070652273745"><ele>45.599999999999994</ele><time>2026-04-19T13:04:29.999Z</time></trkpt><trkpt lat="38.75542062593791" lon="16.24699954414309"><ele>45.4</ele><time>2026-04-19T13:04:30.999Z</time></trkpt><trkpt lat="38.755510986650336" lon="16.246907040635907"><ele>45.2</ele><time>2026-04-19T13:04:31.999Z</time></trkpt><trkpt lat="38.75562287895852" lon="16.24679249489308"><ele>45.0</ele><time>2026-04-19T13:04:32.999Z</time></trkpt><trkpt lat="38.75573997253942" lon="16.24667556417398"><ele>45.0</ele><time>2026-04-19T13:04:33.999Z</time></trkpt><trkpt lat="38.75586475563764" lon="16.24655329615285"><ele>45.0</ele><time>2026-04-19T13:04:34.999Z</time></trkpt><trkpt lat="38.75599464748804" lon="16.246421385507716"><ele>45.0</ele><time>2026-04-19T13:04:35.999Z</time></trkpt><trkpt lat="38.756119637910324" lon="16.24629399178966"><ele>45.0</ele><time>2026-04-19T13:04:36.999Z</time></trkpt><trkpt lat="38.7562411780688" lon="16.246170114644332"><ele>45.0</ele><time>2026-04-19T13:04:37.999Z</time></trkpt><trkpt lat="38.756361622864965" lon="16.246048145297458"><ele>45.0</ele><time>2026-04-19T13:04:38.999Z</time></trkpt><trkpt lat="38.75649242773203" lon="16.24591733972965"><ele>45.0</ele><time>2026-04-19T13:04:39.999Z</time></trkpt><trkpt lat="38.75661499153935" lon="16.245794775313968"><ele>45.0</ele><time>2026-04-19T13:04:40.999Z</time></trkpt><trkpt lat="38.756738762260774" lon="16.245671003963533"><ele>45.0</ele><time>2026-04-19T13:04:41.999Z</time></trkpt><trkpt lat="38.756855546943406" lon="16.24555421870358"><ele>44.25</ele><time>2026-04-19T13:04:42.999Z</time></trkpt><trkpt lat="38.75695996255412" lon="16.245451694833708"><ele>43.5</ele><time>2026-04-19T13:04:43.999Z</time></trkpt><trkpt lat="38.757059763469876" lon="16.245362258866884"><ele>42.75</ele><time>2026-04-19T13:04:44.999Z</time></trkpt><trkpt lat="38.75719405844344" lon="16.245244536973633"><ele>42.0</ele><time>2026-04-19T13:04:45.999Z</time></trkpt><trkpt lat="38.75733990226203" lon="16.24516758133446"><ele>42.0</ele><time>2026-04-19T13:04:46.999Z</time></trkpt><trkpt lat="38.757504158347324" lon="16.245139529640834"><ele>42.0</ele><time>2026-04-19T13:04:47.999Z</time></trkpt><trkpt lat="38.75765905257982" lon="16.24514178918986"><ele>42.0</ele><time>2026-04-19T13:04:48.999Z</time></trkpt><trkpt lat="38.757807665786245" lon="16.245135323602554"><ele>44.33333333333333</ele><time>2026-04-19T13:04:49.999Z</time></trkpt><trkpt lat="38.757967681744915" lon="16.245102751288922"><ele>46.666666666666664</ele><time>2026-04-19T13:04:50.999Z</time></trkpt><trkpt lat="38.758137115590394" lon="16.245062671372143"><ele>49.0</ele><time>2026-04-19T13:04:51.999Z</time></trkpt><trkpt lat="38.758288029409066" lon="16.245014942599504"><ele>49.0</ele><time>2026-04-19T13:04:52.999Z</time></trkpt><trkpt lat="38.758440585183685" lon="16.24492068084147"><ele>49.0</ele><time>2026-04-19T13:04:53.999Z</time></trkpt><trkpt lat="38.75860295346304" lon="16.244806820669748"><ele>49.0</ele><time>2026-04-19T13:04:54.999Z</time></trkpt><trkpt lat="38.758756764398846" lon="16.244668992767746"><ele>47.0</ele><time>2026-04-19T13:04:55.999Z</time></trkpt><trkpt lat="38.758897325609425" lon="16.24455948277006"><ele>45.0</ele><time>2026-04-19T13:04:56.999Z</time></trkpt><trkpt lat="38.75902915152581" lon="16.24447217272216"><ele>43.0</ele><time>2026-04-19T13:04:57.999Z</time></trkpt><trkpt lat="38.75916198954671" lon="16.244426885744453"><ele>43.0</ele><time>2026-04-19T13:04:58.999Z</time></trkpt><trkpt lat="38.75928794887112" lon="16.244357601963547"><ele>43.0</ele><time>2026-04-19T13:04:59.999Z</time></trkpt><trkpt lat="38.759360327462964" lon="16.2442758706191"><ele>43.0</ele><time>2026-04-19T13:05:00.999Z</time></trkpt><trkpt lat="38.759440650988815" lon="16.244223776269706"><ele>43.0</ele><time>2026-04-19T13:05:01.999Z</time></trkpt><trkpt lat="38.75952493977022" lon="16.244166802564187"><ele>43.0</ele><time>2026-04-19T13:05:02.999Z</time></trkpt><trkpt lat="38.75959071160192" lon="16.244137520991163"><ele>43.16666666666667</ele><time>2026-04-19T13:05:03.999Z</time></trkpt><trkpt lat="38.75964858173272" lon="16.244099272317765"><ele>43.333333333333336</ele><time>2026-04-19T13:05:04.999Z</time></trkpt><trkpt lat="38.75975964933581" lon="16.244022395851136"><ele>43.5</ele><time>2026-04-19T13:05:06.999Z</time></trkpt><trkpt lat="38.759827166491675" lon="16.244002308448966"><ele>43.666666666666664</ele><time>2026-04-19T13:05:07.999Z</time></trkpt><trkpt lat="38.75989377043879" lon="16.24396373436342"><ele>43.83333333333333</ele><time>2026-04-19T13:05:08.999Z</time></trkpt><trkpt lat="38.75996171208653" lon="16.243902333091132"><ele>44.0</ele><time>2026-04-19T13:05:09.999Z</time></trkpt><trkpt lat="38.760041162697235" lon="16.243861884644403"><ele>44.0</ele><time>2026-04-19T13:05:10.999Z</time></trkpt><trkpt lat="38.76013266898117" lon="16.24383232415137"><ele>44.0</ele><time>2026-04-19T13:05:11.999Z</time></trkpt><trkpt lat="38.760226375307134" lon="16.24377959734107"><ele>44.0</ele><time>2026-04-19T13:05:12.999Z</time></trkpt><trkpt lat="38.76033484898888" lon="16.243746390062004"><ele>44.0</ele><time>2026-04-19T13:05:13.999Z</time></trkpt><trkpt lat="38.760445152080486" lon="16.243740776329762"><ele>44.0</ele><time>2026-04-19T13:05:14.999Z</time></trkpt><trkpt lat="38.760549888636945" lon="16.243743832363116"><ele>41.75</ele><time>2026-04-19T13:05:15.999Z</time></trkpt><trkpt lat="38.76066327935661" lon="16.243732597981865"><ele>39.5</ele><time>2026-04-19T13:05:16.999Z</time></trkpt><trkpt lat="38.7607763592682" lon="16.243722931796555"><ele>37.25</ele><time>2026-04-19T13:05:17.999Z</time></trkpt><trkpt lat="38.760900888910676" lon="16.243722494067082"><ele>35.0</ele><time>2026-04-19T13:05:18.999Z</time></trkpt><trkpt lat="38.76102332698459" lon="16.243726174603527"><ele>36.75</ele><time>2026-04-19T13:05:19.999Z</time></trkpt><trkpt lat="38.761144302229646" lon="16.243744199382405"><ele>38.5</ele><time>2026-04-19T13:05:20.999Z</time></trkpt><trkpt lat="38.761255715845955" lon="16.243765650489124"><ele>40.25</ele><time>2026-04-19T13:05:21.999Z</time></trkpt><trkpt lat="38.76138226904743" lon="16.24381542517716"><ele>42.0</ele><time>2026-04-19T13:05:22.999Z</time></trkpt><trkpt lat="38.76151550108522" lon="16.243839489420672"><ele>42.0</ele><time>2026-04-19T13:05:23.999Z</time></trkpt><trkpt lat="38.761663739885314" lon="16.243843483787018"><ele>42.0</ele><time>2026-04-19T13:05:24.999Z</time></trkpt><trkpt lat="38.761826914582606" lon="16.243829969368775"><ele>42.0</ele><time>2026-04-19T13:05:25.999Z</time></trkpt><trkpt lat="38.76197633741052" lon="16.243775761974188"><ele>44.5</ele><time>2026-04-19T13:05:26.999Z</time></trkpt><trkpt lat="38.762116765225144" lon="16.24372497447078"><ele>47.0</ele><time>2026-04-19T13:05:27.999Z</time></trkpt><trkpt lat="38.76224624043913" lon="16.243666219992267"><ele>49.5</ele><time>2026-04-19T13:05:28.999Z</time></trkpt><trkpt lat="38.762364005809786" lon="16.24362132202245"><ele>52.0</ele><time>2026-04-19T13:05:29.999Z</time></trkpt><trkpt lat="38.76247316521995" lon="16.243573378536308"><ele>52.0</ele><time>2026-04-19T13:05:30.999Z</time></trkpt><trkpt lat="38.76255365668262" lon="16.243509980304715"><ele>52.0</ele><time>2026-04-19T13:05:31.999Z</time></trkpt><trkpt lat="38.762625442976095" lon="16.243411163208375"><ele>52.0</ele><time>2026-04-19T13:05:32.999Z</time></trkpt><trkpt lat="38.762663207313494" lon="16.24323460591125"><ele>52.0</ele><time>2026-04-19T13:05:33.999Z</time></trkpt><trkpt lat="38.76269564800028" lon="16.24305533837331"><ele>59.5</ele><time>2026-04-19T13:05:34.999Z</time></trkpt><trkpt lat="38.762721686431725" lon="16.242892418386706"><ele>67.0</ele><time>2026-04-19T13:05:35.999Z</time></trkpt><trkpt lat="38.76274787790944" lon="16.242739924660754"><ele>74.5</ele><time>2026-04-19T13:05:36.999Z</time></trkpt><trkpt lat="38.762785594192536" lon="16.242586259827828"><ele>82.0</ele><time>2026-04-19T13:05:37.999Z</time></trkpt><trkpt lat="38.76283170083177" lon="16.242418429893252"><ele>77.33333333333333</ele><time>2026-04-19T13:05:38.999Z</time></trkpt><trkpt lat="38.76288617826875" lon="16.242234652408218"><ele>72.66666666666667</ele><time>2026-04-19T13:05:39.999Z</time></trkpt><trkpt lat="38.76293340685287" lon="16.242030152064256"><ele>68.0</ele><time>2026-04-19T13:05:40.999Z</time></trkpt><trkpt lat="38.762981760584054" lon="16.241849505862326"><ele>68.0</ele><time>2026-04-19T13:05:41.999Z</time></trkpt><trkpt lat="38.76300378313733" lon="16.241666655881648"><ele>68.0</ele><time>2026-04-19T13:05:42.999Z</time></trkpt><trkpt lat="38.76298863219339" lon="16.241494036051204"><ele>68.0</ele><time>2026-04-19T13:05:43.999Z</time></trkpt><trkpt lat="38.7629606229448" lon="16.241326400872392"><ele>68.0</ele><time>2026-04-19T13:05:44.999Z</time></trkpt><trkpt lat="38.76289784981811" lon="16.241138282613207"><ele>66.66666666666667</ele><time>2026-04-19T13:05:45.999Z</time></trkpt><trkpt lat="38.76280558065465" lon="16.240889957442956"><ele>65.33333333333333</ele><time>2026-04-19T13:05:46.999Z</time></trkpt><trkpt lat="38.76271588561909" lon="16.24063879053276"><ele>64.0</ele><time>2026-04-19T13:05:47.999Z</time></trkpt><trkpt lat="38.76261913690549" lon="16.24041174046298"><ele>55.33333333333333</ele><time>2026-04-19T13:05:48.999Z</time></trkpt><trkpt lat="38.76253518496141" lon="16.2402038324621"><ele>46.666666666666664</ele><time>2026-04-19T13:05:49.999Z</time></trkpt><trkpt lat="38.76245041301517" lon="16.240006407209794"><ele>38.0</ele><time>2026-04-19T13:05:50.999Z</time></trkpt><trkpt lat="38.76239510422435" lon="16.239817476858903"><ele>44.666666666666664</ele><time>2026-04-19T13:05:51.999Z</time></trkpt><trkpt lat="38.76232426274454" lon="16.23964692133703"><ele>51.33333333333333</ele><time>2026-04-19T13:05:52.999Z</time></trkpt><trkpt lat="38.76225134723596" lon="16.239463125302166"><ele>58.0</ele><time>2026-04-19T13:05:53.999Z</time></trkpt><trkpt lat="38.76219800192494" lon="16.239259166651223"><ele>58.0</ele><time>2026-04-19T13:05:54.999Z</time></trkpt><trkpt lat="38.76213277580676" lon="16.23909821171881"><ele>58.0</ele><time>2026-04-19T13:05:55.999Z</time></trkpt><trkpt lat="38.762056806742805" lon="16.238956778856988"><ele>58.0</ele><time>2026-04-19T13:05:56.999Z</time></trkpt><trkpt lat="38.76195379505552" lon="16.238831546310575"><ele>58.0</ele><time>2026-04-19T13:05:57.999Z</time></trkpt><trkpt lat="38.761815590547954" lon="16.238713554512046"><ele>56.0</ele><time>2026-04-19T13:05:58.999Z</time></trkpt><trkpt lat="38.761673785216196" lon="16.23862194327355"><ele>54.0</ele><time>2026-04-19T13:05:59.999Z</time></trkpt><trkpt lat="38.76155593963943" lon="16.238538091993767"><ele>52.0</ele><time>2026-04-19T13:06:00.999Z</time></trkpt><trkpt lat="38.76145635144781" lon="16.238458214924904"><ele>50.0</ele><time>2026-04-19T13:06:01.999Z</time></trkpt><trkpt lat="38.761370804132056" lon="16.23834345160983"><ele>50.0</ele><time>2026-04-19T13:06:02.999Z</time></trkpt><trkpt lat="38.761307967586056" lon="16.23820256286459"><ele>50.0</ele><time>2026-04-19T13:06:03.999Z</time></trkpt><trkpt lat="38.7612487158501" lon="16.238019104237893"><ele>50.0</ele><time>2026-04-19T13:06:04.999Z</time></trkpt><trkpt lat="38.76119154818811" lon="16.23780947144597"><ele>48.0</ele><time>2026-04-19T13:06:05.998Z</time></trkpt><trkpt lat="38.761138206733975" lon="16.2376138601181"><ele>46.0</ele><time>2026-04-19T13:06:06.998Z</time></trkpt><trkpt lat="38.761075057942165" lon="16.23743586005346"><ele>44.0</ele><time>2026-04-19T13:06:07.998Z</time></trkpt><trkpt lat="38.76102913153005" lon="16.23725407387962"><ele>44.0</ele><time>2026-04-19T13:06:08.998Z</time></trkpt><trkpt lat="38.760972188032405" lon="16.237079317210263"><ele>44.0</ele><time>2026-04-19T13:06:09.998Z</time></trkpt><trkpt lat="38.76089659605908" lon="16.236888878228427"><ele>44.0</ele><time>2026-04-19T13:06:10.998Z</time></trkpt><trkpt lat="38.760803574004996" lon="16.236721121102796"><ele>44.0</ele><time>2026-04-19T13:06:11.998Z</time></trkpt><trkpt lat="38.76070620588281" lon="16.23655931943848"><ele>44.0</ele><time>2026-04-19T13:06:12.998Z</time></trkpt><trkpt lat="38.760621441186906" lon="16.23639469482845"><ele>44.0</ele><time>2026-04-19T13:06:13.998Z</time></trkpt><trkpt lat="38.76055449501303" lon="16.236267319284256"><ele>44.0</ele><time>2026-04-19T13:06:14.998Z</time></trkpt><trkpt lat="38.760484891873084" lon="16.236112416444232"><ele>44.666666666666664</ele><time>2026-04-19T13:06:15.998Z</time></trkpt><trkpt lat="38.760431478777605" lon="16.235925748926004"><ele>45.333333333333336</ele><time>2026-04-19T13:06:16.998Z</time></trkpt><trkpt lat="38.760378786149644" lon="16.235735469400183"><ele>46.0</ele><time>2026-04-19T13:06:17.998Z</time></trkpt><trkpt lat="38.76036024249856" lon="16.235542760392118"><ele>46.0</ele><time>2026-04-19T13:06:18.998Z</time></trkpt><trkpt lat="38.76031294725502" lon="16.235362628809668"><ele>46.0</ele><time>2026-04-19T13:06:19.998Z</time></trkpt><trkpt lat="38.76027178473897" lon="16.23517271486836"><ele>46.0</ele><time>2026-04-19T13:06:20.998Z</time></trkpt><trkpt lat="38.76023565560371" lon="16.23499362061821"><ele>46.0</ele><time>2026-04-19T13:06:21.998Z</time></trkpt><trkpt lat="38.760197766223854" lon="16.23483179116774"><ele>42.0</ele><time>2026-04-19T13:06:22.998Z</time></trkpt><trkpt lat="38.7601448322847" lon="16.234671388384587"><ele>38.0</ele><time>2026-04-19T13:06:23.998Z</time></trkpt><trkpt lat="38.76008408064512" lon="16.23453611302859"><ele>34.0</ele><time>2026-04-19T13:06:24.998Z</time></trkpt><trkpt lat="38.76001344823486" lon="16.234411157159066"><ele>30.0</ele><time>2026-04-19T13:06:25.998Z</time></trkpt><trkpt lat="38.75996166668681" lon="16.2343242360315"><ele>30.0</ele><time>2026-04-19T13:06:26.998Z</time></trkpt><trkpt lat="38.75991035761147" lon="16.234238360432794"><ele>30.0</ele><time>2026-04-19T13:06:27.998Z</time></trkpt><trkpt lat="38.75986127122452" lon="16.234159981670484"><ele>30.0</ele><time>2026-04-19T13:06:28.998Z</time></trkpt><trkpt lat="38.75981819894841" lon="16.23409120654823"><ele>30.0</ele><time>2026-04-19T13:06:29.998Z</time></trkpt><trkpt lat="38.75974330823536" lon="16.23396595193882"><ele>30.0</ele><time>2026-04-19T13:06:31.998Z</time></trkpt><trkpt lat="38.75967224830863" lon="16.233846135240753"><ele>30.2</ele><time>2026-04-19T13:06:33.998Z</time></trkpt><trkpt lat="38.75961086897598" lon="16.233730896354768"><ele>30.4</ele><time>2026-04-19T13:06:35.998Z</time></trkpt><trkpt lat="38.75957162655212" lon="16.233630572745334"><ele>30.6</ele><time>2026-04-19T13:06:37.998Z</time></trkpt><trkpt lat="38.75968389298697" lon="16.233598743094827"><ele>30.8</ele><time>2026-04-19T13:06:38.998Z</time></trkpt><trkpt lat="38.7597657410936" lon="16.233535862785633"><ele>31.0</ele><time>2026-04-19T13:06:39.998Z</time></trkpt><trkpt lat="38.759824888882875" lon="16.233453648570848"><ele>31.0</ele><time>2026-04-19T13:06:40.998Z</time></trkpt><trkpt lat="38.75988515930308" lon="16.233344944299123"><ele>31.0</ele><time>2026-04-19T13:06:41.998Z</time></trkpt><trkpt lat="38.759945697933944" lon="16.233222095672954"><ele>31.0</ele><time>2026-04-19T13:06:42.998Z</time></trkpt><trkpt lat="38.759993122202864" lon="16.233093214372587"><ele>31.0</ele><time>2026-04-19T13:06:43.998Z</time></trkpt><trkpt lat="38.760020179667094" lon="16.23296561280642"><ele>31.0</ele><time>2026-04-19T13:06:44.998Z</time></trkpt><trkpt lat="38.760042344209715" lon="16.232810680335398"><ele>32.5</ele><time>2026-04-19T13:06:45.998Z</time></trkpt><trkpt lat="38.76007827263968" lon="16.23263855417172"><ele>34.0</ele><time>2026-04-19T13:06:46.998Z</time></trkpt><trkpt lat="38.76014007178454" lon="16.2324587737524"><ele>35.5</ele><time>2026-04-19T13:06:47.998Z</time></trkpt><trkpt lat="38.760193767359496" lon="16.232323019701564"><ele>37.0</ele><time>2026-04-19T13:06:48.998Z</time></trkpt><trkpt lat="38.760248142626374" lon="16.232202763572086"><ele>40.0</ele><time>2026-04-19T13:06:49.998Z</time></trkpt><trkpt lat="38.76030998942276" lon="16.232125597778786"><ele>43.0</ele><time>2026-04-19T13:06:50.998Z</time></trkpt><trkpt lat="38.76035910787393" lon="16.23204375116268"><ele>46.0</ele><time>2026-04-19T13:06:51.998Z</time></trkpt><trkpt lat="38.760422429756495" lon="16.232042530033457"><ele>49.0</ele><time>2026-04-19T13:06:52.998Z</time></trkpt><trkpt lat="38.76050251350282" lon="16.232022607647345"><ele>51.99999999999999</ele><time>2026-04-19T13:06:53.998Z</time></trkpt><trkpt lat="38.76059165145494" lon="16.232005755438824"><ele>55.0</ele><time>2026-04-19T13:06:54.998Z</time></trkpt><trkpt lat="38.76070037127712" lon="16.231956984463572"><ele>54.99999999999999</ele><time>2026-04-19T13:06:55.998Z</time></trkpt><trkpt lat="38.76075253040592" lon="16.231857278021558"><ele>55.0</ele><time>2026-04-19T13:06:56.998Z</time></trkpt><trkpt lat="38.76078242880498" lon="16.231754527495053"><ele>55.0</ele><time>2026-04-19T13:06:57.998Z</time></trkpt><trkpt lat="38.76081452449039" lon="16.23168175820272"><ele>55.0</ele><time>2026-04-19T13:06:58.998Z</time></trkpt><trkpt lat="38.760845391243905" lon="16.231610054834633"><ele>54.99999999999999</ele><time>2026-04-19T13:06:59.998Z</time></trkpt><trkpt lat="38.76093807550962" lon="16.2316208285563"><ele>55.0</ele><time>2026-04-19T13:07:01.998Z</time></trkpt><trkpt lat="38.76107247909715" lon="16.231560491164128"><ele>56.83333333333333</ele><time>2026-04-19T13:07:03.998Z</time></trkpt><trkpt lat="38.76114160735707" lon="16.23150932657203"><ele>58.666666666666664</ele><time>2026-04-19T13:07:04.998Z</time></trkpt><trkpt lat="38.76120942194652" lon="16.231427869185104"><ele>60.5</ele><time>2026-04-19T13:07:05.998Z</time></trkpt><trkpt lat="38.76127563372653" lon="16.23137830599592"><ele>62.33333333333333</ele><time>2026-04-19T13:07:06.998Z</time></trkpt><trkpt lat="38.76134860324979" lon="16.231324190723136"><ele>64.16666666666667</ele><time>2026-04-19T13:07:07.998Z</time></trkpt><trkpt lat="38.761426914383456" lon="16.231272706469536"><ele>66.0</ele><time>2026-04-19T13:07:08.998Z</time></trkpt><trkpt lat="38.761530307896216" lon="16.231245118494396"><ele>66.0</ele><time>2026-04-19T13:07:09.998Z</time></trkpt><trkpt lat="38.761648768755585" lon="16.231182103389603"><ele>66.0</ele><time>2026-04-19T13:07:10.998Z</time></trkpt><trkpt lat="38.76176709133857" lon="16.23110572654694"><ele>66.0</ele><time>2026-04-19T13:07:11.998Z</time></trkpt><trkpt lat="38.7618698251715" lon="16.230999471933902"><ele>66.0</ele><time>2026-04-19T13:07:12.998Z</time></trkpt><trkpt lat="38.76195953495166" lon="16.230928778880944"><ele>68.8</ele><time>2026-04-19T13:07:13.998Z</time></trkpt><trkpt lat="38.76203713195241" lon="16.23088617863532"><ele>71.6</ele><time>2026-04-19T13:07:14.998Z</time></trkpt><trkpt lat="38.76211142456176" lon="16.230852222435495"><ele>74.4</ele><time>2026-04-19T13:07:15.998Z</time></trkpt><trkpt lat="38.76217527472331" lon="16.230831906412313"><ele>77.2</ele><time>2026-04-19T13:07:16.998Z</time></trkpt><trkpt lat="38.762290491123686" lon="16.23080267086511"><ele>80.0</ele><time>2026-04-19T13:07:17.998Z</time></trkpt><trkpt lat="38.76240664028171" lon="16.230720593895246"><ele>80.0</ele><time>2026-04-19T13:07:18.998Z</time></trkpt><trkpt lat="38.76251183060131" lon="16.230646385484864"><ele>80.0</ele><time>2026-04-19T13:07:19.998Z</time></trkpt><trkpt lat="38.76259053089043" lon="16.2306001801215"><ele>80.0</ele><time>2026-04-19T13:07:20.998Z</time></trkpt><trkpt lat="38.762666356758864" lon="16.2305616939725"><ele>80.0</ele><time>2026-04-19T13:07:21.998Z</time></trkpt><trkpt lat="38.762734655585426" lon="16.230532495103695"><ele>80.0</ele><time>2026-04-19T13:07:22.998Z</time></trkpt><trkpt lat="38.76280523948585" lon="16.230502319328792"><ele>80.0</ele><time>2026-04-19T13:07:23.998Z</time></trkpt><trkpt lat="38.762887562448824" lon="16.23046712491301"><ele>82.2</ele><time>2026-04-19T13:07:24.998Z</time></trkpt><trkpt lat="38.762979697304544" lon="16.230427735753015"><ele>84.4</ele><time>2026-04-19T13:07:25.998Z</time></trkpt><trkpt lat="38.76305787188332" lon="16.230326999260605"><ele>86.6</ele><time>2026-04-19T13:07:26.998Z</time></trkpt><trkpt lat="38.76313219706463" lon="16.230268633200012"><ele>88.8</ele><time>2026-04-19T13:07:27.998Z</time></trkpt><trkpt lat="38.76320454400231" lon="16.23021988015247"><ele>91.0</ele><time>2026-04-19T13:07:28.998Z</time></trkpt><trkpt lat="38.76329705739184" lon="16.230210106756196"><ele>91.0</ele><time>2026-04-19T13:07:29.998Z</time></trkpt><trkpt lat="38.76338693116378" lon="16.23015612702279"><ele>91.0</ele><time>2026-04-19T13:07:30.998Z</time></trkpt><trkpt lat="38.763481000891794" lon="16.230101013967285"><ele>91.0</ele><time>2026-04-19T13:07:31.998Z</time></trkpt><trkpt lat="38.76357565573027" lon="16.230050329400772"><ele>91.0</ele><time>2026-04-19T13:07:32.998Z</time></trkpt><trkpt lat="38.76364578189608" lon="16.23000303772735"><ele>91.0</ele><time>2026-04-19T13:07:33.998Z</time></trkpt><trkpt lat="38.763728313197326" lon="16.229995969709023"><ele>93.8</ele><time>2026-04-19T13:07:34.998Z</time></trkpt><trkpt lat="38.763819693350335" lon="16.23000136615541"><ele>96.6</ele><time>2026-04-19T13:07:35.998Z</time></trkpt><trkpt lat="38.76391393241021" lon="16.230023985338175"><ele>99.4</ele><time>2026-04-19T13:07:36.998Z</time></trkpt><trkpt lat="38.76402770146429" lon="16.230068578780575"><ele>102.2</ele><time>2026-04-19T13:07:37.998Z</time></trkpt><trkpt lat="38.764135193706366" lon="16.230120904403865"><ele>105.0</ele><time>2026-04-19T13:07:38.998Z</time></trkpt><trkpt lat="38.764248023465804" lon="16.230170592299785"><ele>105.0</ele><time>2026-04-19T13:07:39.998Z</time></trkpt><trkpt lat="38.76435618987449" lon="16.230196085056303"><ele>105.0</ele><time>2026-04-19T13:07:40.998Z</time></trkpt><trkpt lat="38.76445870157" lon="16.23022199434301"><ele>105.0</ele><time>2026-04-19T13:07:41.998Z</time></trkpt><trkpt lat="38.7645581284206" lon="16.230236881067317"><ele>105.0</ele><time>2026-04-19T13:07:42.998Z</time></trkpt><trkpt lat="38.76467080543286" lon="16.230218466837734"><ele>105.0</ele><time>2026-04-19T13:07:43.998Z</time></trkpt><trkpt lat="38.764769975387516" lon="16.23018527819763"><ele>106.0</ele><time>2026-04-19T13:07:44.998Z</time></trkpt><trkpt lat="38.76486532788905" lon="16.23016744402609"><ele>107.0</ele><time>2026-04-19T13:07:45.998Z</time></trkpt><trkpt lat="38.76497808642777" lon="16.230196741333042"><ele>108.0</ele><time>2026-04-19T13:07:46.998Z</time></trkpt><trkpt lat="38.765068297242195" lon="16.230232012840606"><ele>109.0</ele><time>2026-04-19T13:07:47.998Z</time></trkpt><trkpt lat="38.76517500733649" lon="16.23028816565778"><ele>110.0</ele><time>2026-04-19T13:07:48.998Z</time></trkpt><trkpt lat="38.76526483577651" lon="16.230341220725997"><ele>110.83333333333333</ele><time>2026-04-19T13:07:49.998Z</time></trkpt><trkpt lat="38.7653486417668" lon="16.230391013669408"><ele>111.66666666666666</ele><time>2026-04-19T13:07:50.998Z</time></trkpt><trkpt lat="38.76542772703547" lon="16.230416631911307"><ele>112.5</ele><time>2026-04-19T13:07:51.998Z</time></trkpt><trkpt lat="38.7654875713914" lon="16.230442487650745"><ele>113.33333333333334</ele><time>2026-04-19T13:07:52.998Z</time></trkpt><trkpt lat="38.76557240986738" lon="16.23044052085675"><ele>114.16666666666667</ele><time>2026-04-19T13:07:54.998Z</time></trkpt><trkpt lat="38.76566296617687" lon="16.230424061572506"><ele>115.0</ele><time>2026-04-19T13:07:56.998Z</time></trkpt><trkpt lat="38.76572866523624" lon="16.230447502070486"><ele>115.00000000000001</ele><time>2026-04-19T13:07:57.998Z</time></trkpt><trkpt lat="38.7658044980641" lon="16.230453581269458"><ele>115.0</ele><time>2026-04-19T13:07:58.998Z</time></trkpt><trkpt lat="38.765877427988336" lon="16.23035062381403"><ele>115.0</ele><time>2026-04-19T13:07:59.998Z</time></trkpt><trkpt lat="38.76594334489814" lon="16.23032013897861"><ele>115.0</ele><time>2026-04-19T13:08:00.998Z</time></trkpt><trkpt lat="38.766003754256175" lon="16.230275689427124"><ele>115.00000000000001</ele><time>2026-04-19T13:08:01.998Z</time></trkpt><trkpt lat="38.7660867405212" lon="16.23016542220354"><ele>115.0</ele><time>2026-04-19T13:08:03.998Z</time></trkpt><trkpt lat="38.76612251153723" lon="16.23006606190594"><ele>116.0</ele><time>2026-04-19T13:08:04.998Z</time></trkpt><trkpt lat="38.766169725367824" lon="16.22997527234621"><ele>117.0</ele><time>2026-04-19T13:08:05.998Z</time></trkpt><trkpt lat="38.7662183025932" lon="16.229902227699334"><ele>118.0</ele><time>2026-04-19T13:08:06.998Z</time></trkpt><trkpt lat="38.76629649549815" lon="16.229800043908167"><ele>119.0</ele><time>2026-04-19T13:08:08.998Z</time></trkpt><trkpt lat="38.766390671260226" lon="16.22971925047472"><ele>120.0</ele><time>2026-04-19T13:08:10.998Z</time></trkpt><trkpt lat="38.76644279042115" lon="16.229638619764923"><ele>120.0</ele><time>2026-04-19T13:08:11.998Z</time></trkpt><trkpt lat="38.76649860803144" lon="16.22957857037431"><ele>120.0</ele><time>2026-04-19T13:08:12.998Z</time></trkpt><trkpt lat="38.76654258851489" lon="16.22951856626446"><ele>120.0</ele><time>2026-04-19T13:08:13.998Z</time></trkpt><trkpt lat="38.76658327171195" lon="16.229456370501033"><ele>120.0</ele><time>2026-04-19T13:08:14.998Z</time></trkpt><trkpt lat="38.766631097907904" lon="16.22939753210254"><ele>120.0</ele><time>2026-04-19T13:08:15.998Z</time></trkpt><trkpt lat="38.766739767679255" lon="16.22928644856055"><ele>120.0</ele><time>2026-04-19T13:08:17.998Z</time></trkpt><trkpt lat="38.76678975456012" lon="16.22922349862186"><ele>121.33333333333333</ele><time>2026-04-19T13:08:18.997Z</time></trkpt><trkpt lat="38.76688466822479" lon="16.22909445852419"><ele>122.66666666666666</ele><time>2026-04-19T13:08:20.997Z</time></trkpt><trkpt lat="38.76693768347261" lon="16.229023708936378"><ele>124.0</ele><time>2026-04-19T13:08:21.997Z</time></trkpt><trkpt lat="38.766988420991666" lon="16.228964674066233"><ele>125.33333333333333</ele><time>2026-04-19T13:08:22.997Z</time></trkpt><trkpt lat="38.76703590205292" lon="16.228900653598725"><ele>126.66666666666666</ele><time>2026-04-19T13:08:23.997Z</time></trkpt><trkpt lat="38.767081654501865" lon="16.22883201925158"><ele>128.0</ele><time>2026-04-19T13:08:24.997Z</time></trkpt><trkpt lat="38.76713461837209" lon="16.22876593972877"><ele>128.0</ele><time>2026-04-19T13:08:25.997Z</time></trkpt><trkpt lat="38.76718130306421" lon="16.228695891158157"><ele>128.0</ele><time>2026-04-19T13:08:26.997Z</time></trkpt><trkpt lat="38.767221318293345" lon="16.228633443517396"><ele>128.0</ele><time>2026-04-19T13:08:27.997Z</time></trkpt><trkpt lat="38.76729491845788" lon="16.22853639474322"><ele>128.0</ele><time>2026-04-19T13:08:29.997Z</time></trkpt><trkpt lat="38.76736173144322" lon="16.22843544688833"><ele>128.0</ele><time>2026-04-19T13:08:31.997Z</time></trkpt><trkpt lat="38.76745930922062" lon="16.228330734866205"><ele>127.99999999999999</ele><time>2026-04-19T13:08:33.997Z</time></trkpt><trkpt lat="38.767524806516725" lon="16.22827172101235"><ele>128.0</ele><time>2026-04-19T13:08:34.997Z</time></trkpt><trkpt lat="38.76759063158753" lon="16.228206968561462"><ele>128.0</ele><time>2026-04-19T13:08:35.997Z</time></trkpt><trkpt lat="38.76765430309934" lon="16.228148393516864"><ele>128.0</ele><time>2026-04-19T13:08:36.997Z</time></trkpt><trkpt lat="38.76772944319939" lon="16.228103906058013"><ele>127.99999999999999</ele><time>2026-04-19T13:08:37.997Z</time></trkpt><trkpt lat="38.76782042099672" lon="16.228076702912528"><ele>128.0</ele><time>2026-04-19T13:08:38.997Z</time></trkpt><trkpt lat="38.767913835622146" lon="16.228049892072658"><ele>125.83333333333333</ele><time>2026-04-19T13:08:39.997Z</time></trkpt><trkpt lat="38.76799832394332" lon="16.22803430704817"><ele>123.66666666666666</ele><time>2026-04-19T13:08:40.997Z</time></trkpt><trkpt lat="38.768071020302116" lon="16.228024659754382"><ele>121.5</ele><time>2026-04-19T13:08:41.997Z</time></trkpt><trkpt lat="38.76814048098462" lon="16.228036029227823"><ele>119.33333333333334</ele><time>2026-04-19T13:08:42.997Z</time></trkpt><trkpt lat="38.76821784721341" lon="16.228061212402267"><ele>117.16666666666667</ele><time>2026-04-19T13:08:43.997Z</time></trkpt><trkpt lat="38.768298526935425" lon="16.2281001944831"><ele>115.0</ele><time>2026-04-19T13:08:44.997Z</time></trkpt><trkpt lat="38.76837716647266" lon="16.228140580266647"><ele>115.16666666666667</ele><time>2026-04-19T13:08:45.997Z</time></trkpt><trkpt lat="38.76845492122457" lon="16.228196560021637"><ele>115.33333333333334</ele><time>2026-04-19T13:08:46.997Z</time></trkpt><trkpt lat="38.76853775087137" lon="16.228247061541303"><ele>115.5</ele><time>2026-04-19T13:08:47.997Z</time></trkpt><trkpt lat="38.76861848223632" lon="16.228282998498365"><ele>115.66666666666666</ele><time>2026-04-19T13:08:48.997Z</time></trkpt><trkpt lat="38.768694883762876" lon="16.22831098511884"><ele>115.83333333333333</ele><time>2026-04-19T13:08:49.997Z</time></trkpt><trkpt lat="38.76876452333251" lon="16.228333170488565"><ele>116.0</ele><time>2026-04-19T13:08:50.997Z</time></trkpt><trkpt lat="38.7688797743867" lon="16.22836608370809"><ele>116.0</ele><time>2026-04-19T13:08:52.997Z</time></trkpt><trkpt lat="38.7689936437394" lon="16.22829204658367"><ele>116.0</ele><time>2026-04-19T13:08:54.997Z</time></trkpt><trkpt lat="38.76905872736791" lon="16.228213829034978"><ele>116.0</ele><time>2026-04-19T13:08:55.997Z</time></trkpt><trkpt lat="38.7691262118422" lon="16.228145290943132"><ele>116.0</ele><time>2026-04-19T13:08:56.997Z</time></trkpt><trkpt lat="38.76918182531095" lon="16.228064233289803"><ele>116.0</ele><time>2026-04-19T13:08:57.997Z</time></trkpt><trkpt lat="38.76923087362776" lon="16.227957111040826"><ele>114.6</ele><time>2026-04-19T13:08:58.997Z</time></trkpt><trkpt lat="38.76925218019805" lon="16.227831170737485"><ele>113.19999999999999</ele><time>2026-04-19T13:08:59.997Z</time></trkpt><trkpt lat="38.7692776317201" lon="16.227705801591355"><ele>111.80000000000001</ele><time>2026-04-19T13:09:00.997Z</time></trkpt><trkpt lat="38.7693015321556" lon="16.22757811223891"><ele>110.4</ele><time>2026-04-19T13:09:01.997Z</time></trkpt><trkpt lat="38.76931426735364" lon="16.227453882214725"><ele>109.0</ele><time>2026-04-19T13:09:02.997Z</time></trkpt><trkpt lat="38.76930847502422" lon="16.227337319747466"><ele>107.66666666666667</ele><time>2026-04-19T13:09:03.997Z</time></trkpt><trkpt lat="38.769298379392666" lon="16.22723821491549"><ele>106.33333333333334</ele><time>2026-04-19T13:09:04.997Z</time></trkpt><trkpt lat="38.76929075336601" lon="16.2271490138945"><ele>105.0</ele><time>2026-04-19T13:09:05.997Z</time></trkpt><trkpt lat="38.76934421079675" lon="16.22701909516376"><ele>103.66666666666666</ele><time>2026-04-19T13:09:07.997Z</time></trkpt><trkpt lat="38.76941114419473" lon="16.22700126949155"><ele>102.33333333333333</ele><time>2026-04-19T13:09:08.997Z</time></trkpt><trkpt lat="38.76948616580839" lon="16.22704067242977"><ele>101.0</ele><time>2026-04-19T13:09:09.997Z</time></trkpt><trkpt lat="38.76955457503462" lon="16.227068548624032"><ele>100.83333333333333</ele><time>2026-04-19T13:09:10.997Z</time></trkpt><trkpt lat="38.76961541763596" lon="16.227102573726437"><ele>100.66666666666666</ele><time>2026-04-19T13:09:11.997Z</time></trkpt><trkpt lat="38.76966819943452" lon="16.22715238809218"><ele>100.5</ele><time>2026-04-19T13:09:12.997Z</time></trkpt><trkpt lat="38.769769153186125" lon="16.227225399493584"><ele>100.33333333333334</ele><time>2026-04-19T13:09:14.997Z</time></trkpt><trkpt lat="38.769889993601595" lon="16.227197689618293"><ele>100.16666666666667</ele><time>2026-04-19T13:09:16.997Z</time></trkpt><trkpt lat="38.76996462437436" lon="16.227172237040453"><ele>100.0</ele><time>2026-04-19T13:09:17.997Z</time></trkpt><trkpt lat="38.77003977533841" lon="16.227133547945556"><ele>100.0</ele><time>2026-04-19T13:09:18.997Z</time></trkpt><trkpt lat="38.77010806122821" lon="16.227092462507116"><ele>100.0</ele><time>2026-04-19T13:09:19.997Z</time></trkpt><trkpt lat="38.77017430372012" lon="16.227058984384723"><ele>100.0</ele><time>2026-04-19T13:09:20.997Z</time></trkpt><trkpt lat="38.770246180145506" lon="16.227050142785764"><ele>100.0</ele><time>2026-04-19T13:09:21.997Z</time></trkpt><trkpt lat="38.77031419383488" lon="16.227063632671644"><ele>100.0</ele><time>2026-04-19T13:09:22.997Z</time></trkpt><trkpt lat="38.77043184921431" lon="16.226871521427352"><ele>100.33333333333334</ele><time>2026-04-19T13:09:24.997Z</time></trkpt><trkpt lat="38.770545014492725" lon="16.227174967525404"><ele>100.66666666666666</ele><time>2026-04-19T13:09:30.997Z</time></trkpt><trkpt lat="38.77060433639071" lon="16.22703854521597"><ele>101.0</ele><time>2026-04-19T13:09:32.997Z</time></trkpt><trkpt lat="38.77066585464646" lon="16.22689792023308"><ele>101.0</ele><time>2026-04-19T13:09:33.997Z</time></trkpt><trkpt lat="38.770751043724964" lon="16.226716704326172"><ele>101.0</ele><time>2026-04-19T13:09:34.997Z</time></trkpt><trkpt lat="38.77084633992706" lon="16.226513991501985"><ele>101.0</ele><time>2026-04-19T13:09:35.997Z</time></trkpt><trkpt lat="38.770950010996934" lon="16.226293463770435"><ele>101.33333333333333</ele><time>2026-04-19T13:09:36.997Z</time></trkpt><trkpt lat="38.77105631899095" lon="16.226055713651355"><ele>101.66666666666666</ele><time>2026-04-19T13:09:37.997Z</time></trkpt><trkpt lat="38.77107635587223" lon="16.225760720511044"><ele>102.0</ele><time>2026-04-19T13:09:38.997Z</time></trkpt><trkpt lat="38.77117811788208" lon="16.22553616354813"><ele>99.0</ele><time>2026-04-19T13:09:39.997Z</time></trkpt><trkpt lat="38.77130246594109" lon="16.2253325401969"><ele>96.0</ele><time>2026-04-19T13:09:40.997Z</time></trkpt><trkpt lat="38.771454633205686" lon="16.22515566764826"><ele>93.0</ele><time>2026-04-19T13:09:41.997Z</time></trkpt><trkpt lat="38.77157209702286" lon="16.224979993250148"><ele>87.33333333333333</ele><time>2026-04-19T13:09:42.997Z</time></trkpt><trkpt lat="38.77168818304871" lon="16.224800911561395"><ele>81.66666666666666</ele><time>2026-04-19T13:09:43.997Z</time></trkpt><trkpt lat="38.771781145703606" lon="16.224617378207512"><ele>76.0</ele><time>2026-04-19T13:09:44.997Z</time></trkpt><trkpt lat="38.77185340682931" lon="16.22444807557445"><ele>74.5</ele><time>2026-04-19T13:09:45.997Z</time></trkpt><trkpt lat="38.7718882059536" lon="16.224278096822186"><ele>73.0</ele><time>2026-04-19T13:09:46.997Z</time></trkpt><trkpt lat="38.77191427371161" lon="16.224100685997424"><ele>71.5</ele><time>2026-04-19T13:09:47.997Z</time></trkpt><trkpt lat="38.77193815926767" lon="16.223932050708548"><ele>70.0</ele><time>2026-04-19T13:09:48.997Z</time></trkpt><trkpt lat="38.7719760639672" lon="16.2237536546953"><ele>70.0</ele><time>2026-04-19T13:09:49.997Z</time></trkpt><trkpt lat="38.772035976382774" lon="16.22359124382071"><ele>70.0</ele><time>2026-04-19T13:09:50.997Z</time></trkpt><trkpt lat="38.772100742015034" lon="16.223447624375325"><ele>70.0</ele><time>2026-04-19T13:09:51.997Z</time></trkpt><trkpt lat="38.772187792449095" lon="16.223355349929584"><ele>70.0</ele><time>2026-04-19T13:09:52.997Z</time></trkpt><trkpt lat="38.772295944553605" lon="16.223314988248166"><ele>70.0</ele><time>2026-04-19T13:09:53.997Z</time></trkpt><trkpt lat="38.77242169174319" lon="16.22327341428179"><ele>70.0</ele><time>2026-04-19T13:09:54.997Z</time></trkpt><trkpt lat="38.77255795789063" lon="16.22324113830081"><ele>70.0</ele><time>2026-04-19T13:09:55.997Z</time></trkpt><trkpt lat="38.772701150281556" lon="16.223215355281464"><ele>70.0</ele><time>2026-04-19T13:09:57.001Z</time></trkpt><trkpt lat="38.77284008710855" lon="16.223208351471982"><ele>70.0</ele><time>2026-04-19T13:09:58.001Z</time></trkpt><trkpt lat="38.772952990675996" lon="16.22327940592703"><ele>70.0</ele><time>2026-04-19T13:09:59.001Z</time></trkpt><trkpt lat="38.7730611544963" lon="16.223355763111662"><ele>70.0</ele><time>2026-04-19T13:10:00.001Z</time></trkpt><trkpt lat="38.773169225797105" lon="16.22342519199616"><ele>70.0</ele><time>2026-04-19T13:10:01.001Z</time></trkpt><trkpt lat="38.77328090244372" lon="16.22344350382287"><ele>70.0</ele><time>2026-04-19T13:10:02.001Z</time></trkpt><trkpt lat="38.77337490783121" lon="16.223401979359572"><ele>70.0</ele><time>2026-04-19T13:10:03.001Z</time></trkpt><trkpt lat="38.7734711186393" lon="16.223328524587497"><ele>70.0</ele><time>2026-04-19T13:10:04.001Z</time></trkpt><trkpt lat="38.77354607244434" lon="16.223185278940612"><ele>70.0</ele><time>2026-04-19T13:10:05Z</time></trkpt><trkpt lat="38.773592809982716" lon="16.223042379648348"><ele>64.25</ele><time>2026-04-19T13:10:06Z</time></trkpt><trkpt lat="38.773660363334734" lon="16.222904568989193"><ele>58.5</ele><time>2026-04-19T13:10:07Z</time></trkpt><trkpt lat="38.773736550931005" lon="16.222808028726806"><ele>52.75</ele><time>2026-04-19T13:10:08Z</time></trkpt><trkpt lat="38.77383288032898" lon="16.222760990176212"><ele>47.0</ele><time>2026-04-19T13:10:09Z</time></trkpt><trkpt lat="38.77396370190457" lon="16.222769432984517"><ele>47.0</ele><time>2026-04-19T13:10:10Z</time></trkpt><trkpt lat="38.774105102089514" lon="16.222798997475042"><ele>47.0</ele><time>2026-04-19T13:10:11Z</time></trkpt><trkpt lat="38.77422740679745" lon="16.2228395433074"><ele>47.0</ele><time>2026-04-19T13:10:12Z</time></trkpt><trkpt lat="38.77433842744244" lon="16.22286992562313"><ele>47.0</ele><time>2026-04-19T13:10:13Z</time></trkpt><trkpt lat="38.77445959203189" lon="16.222881932388148"><ele>46.25</ele><time>2026-04-19T13:10:14Z</time></trkpt><trkpt lat="38.77456985942818" lon="16.222892703945"><ele>45.5</ele><time>2026-04-19T13:10:15Z</time></trkpt><trkpt lat="38.77469679805202" lon="16.222839173656325"><ele>44.75</ele><time>2026-04-19T13:10:16Z</time></trkpt><trkpt lat="38.7748100843578" lon="16.222833509673634"><ele>44.0</ele><time>2026-04-19T13:10:17Z</time></trkpt><trkpt lat="38.774899373562995" lon="16.222800583179307"><ele>44.0</ele><time>2026-04-19T13:10:18Z</time></trkpt><trkpt lat="38.774964450623415" lon="16.222747353668755"><ele>44.0</ele><time>2026-04-19T13:10:19Z</time></trkpt><trkpt lat="38.775016794235356" lon="16.22267387005683"><ele>44.0</ele><time>2026-04-19T13:10:20Z</time></trkpt><trkpt lat="38.775066000446344" lon="16.222556584540246"><ele>44.0</ele><time>2026-04-19T13:10:21Z</time></trkpt><trkpt lat="38.7750917081314" lon="16.222408559665304"><ele>44.0</ele><time>2026-04-19T13:10:22Z</time></trkpt><trkpt lat="38.775103467155475" lon="16.222244621506682"><ele>44.25</ele><time>2026-04-19T13:10:23Z</time></trkpt><trkpt lat="38.775136320409615" lon="16.222091461008844"><ele>44.5</ele><time>2026-04-19T13:10:24Z</time></trkpt><trkpt lat="38.77516315350305" lon="16.22193558106305"><ele>44.75</ele><time>2026-04-19T13:10:25Z</time></trkpt><trkpt lat="38.775178992782735" lon="16.221784061015846"><ele>45.0</ele><time>2026-04-19T13:10:26Z</time></trkpt><trkpt lat="38.77519600773332" lon="16.221635925627506"><ele>45.0</ele><time>2026-04-19T13:10:27Z</time></trkpt><trkpt lat="38.77522376538912" lon="16.221494010547758"><ele>45.0</ele><time>2026-04-19T13:10:28Z</time></trkpt><trkpt lat="38.77524005990322" lon="16.2213592008789"><ele>45.0</ele><time>2026-04-19T13:10:29Z</time></trkpt><trkpt lat="38.77527573272969" lon="16.221258783490686"><ele>45.0</ele><time>2026-04-19T13:10:30Z</time></trkpt><trkpt lat="38.77529939822351" lon="16.221161891769174"><ele>45.0</ele><time>2026-04-19T13:10:31Z</time></trkpt><trkpt lat="38.7753276982589" lon="16.221079589859432"><ele>44.8</ele><time>2026-04-19T13:10:32Z</time></trkpt><trkpt lat="38.77535578239" lon="16.22096558383009"><ele>44.6</ele><time>2026-04-19T13:10:34Z</time></trkpt><trkpt lat="38.77528239111352" lon="16.22084631446522"><ele>44.400000000000006</ele><time>2026-04-19T13:10:37Z</time></trkpt><trkpt lat="38.775167196281245" lon="16.220814532135215"><ele>44.2</ele><time>2026-04-19T13:10:38Z</time></trkpt><trkpt lat="38.775062740015755" lon="16.22076632333245"><ele>44.0</ele><time>2026-04-19T13:10:39Z</time></trkpt><trkpt lat="38.77497701314795" lon="16.220727849271455"><ele>43.400000000000006</ele><time>2026-04-19T13:10:40Z</time></trkpt><trkpt lat="38.77485362077439" lon="16.220671989706574"><ele>42.8</ele><time>2026-04-19T13:10:42Z</time></trkpt><trkpt lat="38.77485012252826" lon="16.220565001149346"><ele>42.2</ele><time>2026-04-19T13:10:43Z</time></trkpt><trkpt lat="38.77479901846631" lon="16.220470082537123"><ele>41.599999999999994</ele><time>2026-04-19T13:10:44Z</time></trkpt><trkpt lat="38.774762931310796" lon="16.22033653822136"><ele>41.0</ele><time>2026-04-19T13:10:45Z</time></trkpt><trkpt lat="38.774723394108165" lon="16.22020055206545"><ele>40.5</ele><time>2026-04-19T13:10:46Z</time></trkpt><trkpt lat="38.774632117628876" lon="16.220096699601932"><ele>40.0</ele><time>2026-04-19T13:10:47Z</time></trkpt><trkpt lat="38.77454892853252" lon="16.219944561639966"><ele>39.5</ele><time>2026-04-19T13:10:48Z</time></trkpt><trkpt lat="38.77446762609293" lon="16.219764263743407"><ele>39.0</ele><time>2026-04-19T13:10:49Z</time></trkpt><trkpt lat="38.77437158210104" lon="16.21959883941869"><ele>38.0</ele><time>2026-04-19T13:10:50Z</time></trkpt><trkpt lat="38.77429433650069" lon="16.219433450901466"><ele>37.0</ele><time>2026-04-19T13:10:51Z</time></trkpt><trkpt lat="38.77422604124196" lon="16.219267970767692"><ele>36.0</ele><time>2026-04-19T13:10:52Z</time></trkpt><trkpt lat="38.77419391724934" lon="16.219104308937"><ele>35.0</ele><time>2026-04-19T13:10:53Z</time></trkpt><trkpt lat="38.77418268883642" lon="16.218959943769146"><ele>34.4</ele><time>2026-04-19T13:10:54Z</time></trkpt><trkpt lat="38.77413170589621" lon="16.218829333999846"><ele>33.8</ele><time>2026-04-19T13:10:55Z</time></trkpt><trkpt lat="38.774119838392366" lon="16.218730690047906"><ele>33.2</ele><time>2026-04-19T13:10:56Z</time></trkpt><trkpt lat="38.77409932309339" lon="16.21862977457351"><ele>32.6</ele><time>2026-04-19T13:10:58Z</time></trkpt><trkpt lat="38.7741113442935" lon="16.218546042207333"><ele>32.0</ele><time>2026-04-19T13:11:01Z</time></trkpt><trkpt lat="38.77407641437764" lon="16.218348872424272"><ele>32.0</ele><time>2026-04-19T13:11:36Z</time></trkpt><trkpt lat="38.774062781055854" lon="16.218224475574164"><ele>32.0</ele><time>2026-04-19T13:11:39Z</time></trkpt><trkpt lat="38.77405102313188" lon="16.218117190785307"><ele>32.0</ele><time>2026-04-19T13:11:41Z</time></trkpt><trkpt lat="38.774035490286266" lon="16.21797546155861"><ele>32.0</ele><time>2026-04-19T13:11:43Z</time></trkpt><trkpt lat="38.77402607418712" lon="16.217885668461165"><ele>32.0</ele><time>2026-04-19T13:11:43.999Z</time></trkpt><trkpt lat="38.774010048282825" lon="16.217731908943726"><ele>31.200000000000003</ele><time>2026-04-19T13:11:45.999Z</time></trkpt><trkpt lat="38.773986639054144" lon="16.217635254686652"><ele>30.400000000000002</ele><time>2026-04-19T13:11:46.999Z</time></trkpt><trkpt lat="38.773953566193605" lon="16.217444016186178"><ele>29.599999999999998</ele><time>2026-04-19T13:11:48.999Z</time></trkpt><trkpt lat="38.77396396950743" lon="16.217323978000334"><ele>28.799999999999997</ele><time>2026-04-19T13:11:49.999Z</time></trkpt><trkpt lat="38.773946653752716" lon="16.21724465463785"><ele>28.0</ele><time>2026-04-19T13:11:50.999Z</time></trkpt><trkpt lat="38.773906884562784" lon="16.2171014573182"><ele>27.333333333333336</ele><time>2026-04-19T13:11:52.999Z</time></trkpt><trkpt lat="38.77388256711604" lon="16.21702424585518"><ele>26.666666666666668</ele><time>2026-04-19T13:11:53.999Z</time></trkpt><trkpt lat="38.77383264532559" lon="16.216930917430194"><ele>26.0</ele><time>2026-04-19T13:11:54.999Z</time></trkpt><trkpt lat="38.77378604573697" lon="16.21685531958093"><ele>25.333333333333336</ele><time>2026-04-19T13:11:55.999Z</time></trkpt><trkpt lat="38.77373800753063" lon="16.21677961987992"><ele>24.666666666666668</ele><time>2026-04-19T13:11:56.999Z</time></trkpt><trkpt lat="38.773666961234284" lon="16.21664178412077"><ele>24.0</ele><time>2026-04-19T13:11:58.999Z</time></trkpt><trkpt lat="38.773630957397316" lon="16.21656082218835"><ele>21.599999999999998</ele><time>2026-04-19T13:11:59.999Z</time></trkpt><trkpt lat="38.77360282370166" lon="16.21648545627259"><ele>19.2</ele><time>2026-04-19T13:12:00.999Z</time></trkpt><trkpt lat="38.77356310497026" lon="16.21633184419189"><ele>16.799999999999997</ele><time>2026-04-19T13:12:02.999Z</time></trkpt><trkpt lat="38.773545039937865" lon="16.216238523870434"><ele>14.399999999999999</ele><time>2026-04-19T13:12:03.999Z</time></trkpt><trkpt lat="38.773591707228924" lon="16.216108518738"><ele>12.0</ele><time>2026-04-19T13:12:05.999Z</time></trkpt><trkpt lat="38.77371681961344" lon="16.216069039739175"><ele>12.0</ele><time>2026-04-19T13:12:07.999Z</time></trkpt><trkpt lat="38.773841110985266" lon="16.21605154921186"><ele>12.0</ele><time>2026-04-19T13:12:08.999Z</time></trkpt><trkpt lat="38.77398656180248" lon="16.21605658350962"><ele>12.0</ele><time>2026-04-19T13:12:09.999Z</time></trkpt><trkpt lat="38.77415776425063" lon="16.21608154877037"><ele>12.0</ele><time>2026-04-19T13:12:10.999Z</time></trkpt><trkpt lat="38.774325553478455" lon="16.21612011874764"><ele>11.0</ele><time>2026-04-19T13:12:11.999Z</time></trkpt><trkpt lat="38.77449099682223" lon="16.216167541423932"><ele>10.0</ele><time>2026-04-19T13:12:12.999Z</time></trkpt><trkpt lat="38.7746456060516" lon="16.216216064284584"><ele>9.0</ele><time>2026-04-19T13:12:13.999Z</time></trkpt><trkpt lat="38.7747898550263" lon="16.216284661271477"><ele>9.0</ele><time>2026-04-19T13:12:14.999Z</time></trkpt><trkpt lat="38.77494443642468" lon="16.21631616172326"><ele>9.0</ele><time>2026-04-19T13:12:15.999Z</time></trkpt><trkpt lat="38.775099788649044" lon="16.21638759655466"><ele>9.0</ele><time>2026-04-19T13:12:16.999Z</time></trkpt><trkpt lat="38.77526298282017" lon="16.216480188973925"><ele>11.0</ele><time>2026-04-19T13:12:17.999Z</time></trkpt><trkpt lat="38.775421934000484" lon="16.216572505148477"><ele>13.0</ele><time>2026-04-19T13:12:18.999Z</time></trkpt><trkpt lat="38.77557008866893" lon="16.21665314624963"><ele>15.0</ele><time>2026-04-19T13:12:19.999Z</time></trkpt><trkpt lat="38.77569991788266" lon="16.21672326387734"><ele>15.0</ele><time>2026-04-19T13:12:20.999Z</time></trkpt><trkpt lat="38.77581844155781" lon="16.216784458593025"><ele>15.0</ele><time>2026-04-19T13:12:21.999Z</time></trkpt><trkpt lat="38.77593570524256" lon="16.216842720373624"><ele>15.0</ele><time>2026-04-19T13:12:22.999Z</time></trkpt><trkpt lat="38.77604136872906" lon="16.216894561211618"><ele>15.0</ele><time>2026-04-19T13:12:23.999Z</time></trkpt><trkpt lat="38.77614554706021" lon="16.216945066854443"><ele>14.2</ele><time>2026-04-19T13:12:24.999Z</time></trkpt><trkpt lat="38.776243107489734" lon="16.216992519092972"><ele>13.4</ele><time>2026-04-19T13:12:25.999Z</time></trkpt><trkpt lat="38.7763446790489" lon="16.217043416950332"><ele>12.600000000000001</ele><time>2026-04-19T13:12:26.999Z</time></trkpt><trkpt lat="38.77645030836747" lon="16.217096348060448"><ele>11.8</ele><time>2026-04-19T13:12:27.999Z</time></trkpt><trkpt lat="38.776541025314714" lon="16.217141806752817"><ele>11.0</ele><time>2026-04-19T13:12:28.999Z</time></trkpt><trkpt lat="38.77664521614684" lon="16.217172774276648"><ele>11.0</ele><time>2026-04-19T13:12:29.999Z</time></trkpt><trkpt lat="38.77674314444732" lon="16.21722765223234"><ele>11.0</ele><time>2026-04-19T13:12:30.999Z</time></trkpt><trkpt lat="38.77683588031747" lon="16.217276557093992"><ele>11.0</ele><time>2026-04-19T13:12:31.999Z</time></trkpt><trkpt lat="38.7769381229954" lon="16.217318967670494"><ele>11.0</ele><time>2026-04-19T13:12:32.999Z</time></trkpt><trkpt lat="38.77702000127018" lon="16.217364999215963"><ele>11.0</ele><time>2026-04-19T13:12:33.999Z</time></trkpt><trkpt lat="38.777093503123105" lon="16.2173932945915"><ele>11.600000000000001</ele><time>2026-04-19T13:12:34.999Z</time></trkpt><trkpt lat="38.777161264545086" lon="16.217424869246027"><ele>12.2</ele><time>2026-04-19T13:12:35.999Z</time></trkpt><trkpt lat="38.7772162011546" lon="16.217490627168516"><ele>12.799999999999999</ele><time>2026-04-19T13:12:36.999Z</time></trkpt><trkpt lat="38.777311248555904" lon="16.217558703763153"><ele>13.399999999999999</ele><time>2026-04-19T13:12:38.999Z</time></trkpt><trkpt lat="38.777432542621476" lon="16.21756785984817"><ele>14.0</ele><time>2026-04-19T13:12:40.999Z</time></trkpt><trkpt lat="38.77750430756102" lon="16.217532940305915"><ele>14.0</ele><time>2026-04-19T13:12:41.999Z</time></trkpt><trkpt lat="38.77746192547469" lon="16.217340359879252"><ele>14.0</ele><time>2026-04-19T13:12:42.999Z</time></trkpt><trkpt lat="38.77750685929206" lon="16.21721626992483"><ele>14.0</ele><time>2026-04-19T13:12:43.999Z</time></trkpt><trkpt lat="38.77755134423385" lon="16.217093418576955"><ele>14.0</ele><time>2026-04-19T13:12:44.999Z</time></trkpt><trkpt lat="38.77757983967123" lon="16.216955822348602"><ele>12.5</ele><time>2026-04-19T13:12:45.999Z</time></trkpt><trkpt lat="38.777629187261574" lon="16.21680746825234"><ele>11.0</ele><time>2026-04-19T13:12:46.999Z</time></trkpt><trkpt lat="38.777683386601176" lon="16.2166443313653"><ele>9.5</ele><time>2026-04-19T13:12:47.999Z</time></trkpt><trkpt lat="38.777726726069076" lon="16.216509808172766"><ele>8.0</ele><time>2026-04-19T13:12:48.999Z</time></trkpt><trkpt lat="38.7777614497233" lon="16.2163989287872"><ele>7.833333333333333</ele><time>2026-04-19T13:12:49.999Z</time></trkpt><trkpt lat="38.77779347534668" lon="16.216279320175502"><ele>7.666666666666666</ele><time>2026-04-19T13:12:50.999Z</time></trkpt><trkpt lat="38.777818170728175" lon="16.216179060289786"><ele>7.5</ele><time>2026-04-19T13:12:51.999Z</time></trkpt><trkpt lat="38.77783596835512" lon="16.21604466724376"><ele>7.333333333333334</ele><time>2026-04-19T13:12:53.999Z</time></trkpt><trkpt lat="38.777869458686155" lon="16.215958532062036"><ele>7.166666666666667</ele><time>2026-04-19T13:12:55.999Z</time></trkpt><trkpt lat="38.777883983001075" lon="16.21587783428114"><ele>7.0</ele><time>2026-04-19T13:12:58.999Z</time></trkpt><trkpt lat="38.77793889230552" lon="16.215829418902604"><ele>7.000000000000001</ele><time>2026-04-19T13:13:00.999Z</time></trkpt><trkpt lat="38.778009234418555" lon="16.21587192808212"><ele>7.0</ele><time>2026-04-19T13:13:01.999Z</time></trkpt><trkpt lat="38.778090234728424" lon="16.215909930475505"><ele>7.0</ele><time>2026-04-19T13:13:02.999Z</time></trkpt><trkpt lat="38.77817298326157" lon="16.215951935230603"><ele>7.0</ele><time>2026-04-19T13:13:03.999Z</time></trkpt><trkpt lat="38.77825313117122" lon="16.216002601572992"><ele>7.000000000000001</ele><time>2026-04-19T13:13:04.999Z</time></trkpt><trkpt lat="38.7783370407601" lon="16.21604219782538"><ele>7.0</ele><time>2026-04-19T13:13:05.999Z</time></trkpt><trkpt lat="38.77843275979598" lon="16.21608028476705"><ele>7.0</ele><time>2026-04-19T13:13:06.999Z</time></trkpt><trkpt lat="38.77851465975181" lon="16.216144127915403"><ele>6.999999999999999</ele><time>2026-04-19T13:13:07.999Z</time></trkpt><trkpt lat="38.77858722502403" lon="16.21621291490018"><ele>6.999999999999999</ele><time>2026-04-19T13:13:08.999Z</time></trkpt><trkpt lat="38.77868495081193" lon="16.216209602028908"><ele>7.0</ele><time>2026-04-19T13:13:09.999Z</time></trkpt><trkpt lat="38.77875969084308" lon="16.216246381051615"><ele>7.0</ele><time>2026-04-19T13:13:10.999Z</time></trkpt><trkpt lat="38.778841642229324" lon="16.2162938758901"><ele>7.000000000000001</ele><time>2026-04-19T13:13:11.999Z</time></trkpt><trkpt lat="38.77892067866" lon="16.216344188474253"><ele>7.0</ele><time>2026-04-19T13:13:12.999Z</time></trkpt><trkpt lat="38.7790037709808" lon="16.21638422146002"><ele>7.0</ele><time>2026-04-19T13:13:13.999Z</time></trkpt><trkpt lat="38.779086037037835" lon="16.21641813914089"><ele>7.0</ele><time>2026-04-19T13:13:14.999Z</time></trkpt><trkpt lat="38.77916675092868" lon="16.216481752920025"><ele>7.000000000000001</ele><time>2026-04-19T13:13:15.999Z</time></trkpt><trkpt lat="38.779247392429724" lon="16.21652659019863"><ele>7.0</ele><time>2026-04-19T13:13:16.999Z</time></trkpt><trkpt lat="38.779316521299315" lon="16.216570507460453"><ele>6.8</ele><time>2026-04-19T13:13:17.999Z</time></trkpt><trkpt lat="38.779418147149954" lon="16.216543071626774"><ele>6.6</ele><time>2026-04-19T13:13:19.999Z</time></trkpt><trkpt lat="38.779450966715366" lon="16.216412636182184"><ele>6.3999999999999995</ele><time>2026-04-19T13:13:21.999Z</time></trkpt><trkpt lat="38.77946254927542" lon="16.21631272129587"><ele>6.199999999999999</ele><time>2026-04-19T13:13:22.999Z</time></trkpt><trkpt lat="38.779471973992095" lon="16.216197795630055"><ele>6.0</ele><time>2026-04-19T13:13:24.999Z</time></trkpt><trkpt lat="38.779453893418804" lon="16.21608537102581"><ele>6.0</ele><time>2026-04-19T13:13:27.999Z</time></trkpt><trkpt lat="38.779472742676546" lon="16.215993952979602"><ele>6.0</ele><time>2026-04-19T13:13:29.999Z</time></trkpt><trkpt lat="38.7795366732391" lon="16.215886358016874"><ele>6.0</ele><time>2026-04-19T13:13:31.999Z</time></trkpt><trkpt lat="38.77959325568306" lon="16.21579253141258"><ele>6.0</ele><time>2026-04-19T13:13:32.999Z</time></trkpt><trkpt lat="38.779600744293965" lon="16.215607111173135"><ele>6.0</ele><time>2026-04-19T13:13:33.999Z</time></trkpt><trkpt lat="38.77967971280259" lon="16.215542373881526"><ele>6.0</ele><time>2026-04-19T13:13:34.999Z</time></trkpt><trkpt lat="38.779740961161465" lon="16.215503050977425"><ele>6.0</ele><time>2026-04-19T13:13:35.999Z</time></trkpt><trkpt lat="38.779789126598416" lon="16.21545000629563"><ele>6.0</ele><time>2026-04-19T13:13:36.999Z</time></trkpt><trkpt lat="38.77983205901258" lon="16.21538044229749"><ele>6.0</ele><time>2026-04-19T13:13:37.999Z</time></trkpt><trkpt lat="38.77990484733476" lon="16.215262503559654"><ele>6.0</ele><time>2026-04-19T13:13:39.999Z</time></trkpt><trkpt lat="38.78009391395337" lon="16.215262404319994"><ele>5.8</ele><time>2026-04-19T13:13:41.999Z</time></trkpt><trkpt lat="38.78022441813024" lon="16.215415121299788"><ele>5.6</ele><time>2026-04-19T13:13:42.999Z</time></trkpt><trkpt lat="38.78029532988281" lon="16.215482203200853"><ele>5.4</ele><time>2026-04-19T13:13:43.999Z</time></trkpt><trkpt lat="38.78036065049061" lon="16.215531398554813"><ele>5.2</ele><time>2026-04-19T13:13:44.999Z</time></trkpt><trkpt lat="38.78041542174811" lon="16.215573569611774"><ele>5.0</ele><time>2026-04-19T13:13:45.999Z</time></trkpt><trkpt lat="38.78051192400732" lon="16.21561042894084"><ele>5.0</ele><time>2026-04-19T13:13:47.999Z</time></trkpt><trkpt lat="38.78061465820692" lon="16.21563668743573"><ele>5.0</ele><time>2026-04-19T13:13:49.998Z</time></trkpt><trkpt lat="38.78069945595155" lon="16.215647915249814"><ele>5.0</ele><time>2026-04-19T13:13:51.998Z</time></trkpt><trkpt lat="38.78081035179444" lon="16.2156063278408"><ele>5.0</ele><time>2026-04-19T13:13:53.998Z</time></trkpt><trkpt lat="38.7808826388171" lon="16.215576521435153"><ele>5.0</ele><time>2026-04-19T13:13:54.998Z</time></trkpt><trkpt lat="38.780947225924926" lon="16.21555493326857"><ele>5.0</ele><time>2026-04-19T13:13:55.998Z</time></trkpt><trkpt lat="38.78101881513994" lon="16.215543181518193"><ele>5.0</ele><time>2026-04-19T13:13:56.998Z</time></trkpt><trkpt lat="38.78108231109618" lon="16.215510326762118"><ele>5.0</ele><time>2026-04-19T13:13:57.998Z</time></trkpt><trkpt lat="38.78115057169522" lon="16.215501549086213"><ele>5.0</ele><time>2026-04-19T13:13:58.998Z</time></trkpt><trkpt lat="38.78122312729114" lon="16.21554331566726"><ele>5.0</ele><time>2026-04-19T13:13:59.998Z</time></trkpt><trkpt lat="38.781322428948734" lon="16.215576586317567"><ele>5.0</ele><time>2026-04-19T13:14:00.998Z</time></trkpt><trkpt lat="38.7814375544467" lon="16.21561233170954"><ele>5.0</ele><time>2026-04-19T13:14:01.998Z</time></trkpt><trkpt lat="38.78157644852753" lon="16.215638893513706"><ele>5.0</ele><time>2026-04-19T13:14:02.998Z</time></trkpt><trkpt lat="38.7817270572344" lon="16.21566393134995"><ele>5.0</ele><time>2026-04-19T13:14:03.998Z</time></trkpt><trkpt lat="38.78187977378121" lon="16.21570691987752"><ele>5.0</ele><time>2026-04-19T13:14:04.998Z</time></trkpt><trkpt lat="38.782014714634016" lon="16.21574511963751"><ele>5.0</ele><time>2026-04-19T13:14:05.998Z</time></trkpt><trkpt lat="38.78212988379055" lon="16.215783239459213"><ele>5.4</ele><time>2026-04-19T13:14:06.998Z</time></trkpt><trkpt lat="38.78223585392132" lon="16.21582480277293"><ele>5.8</ele><time>2026-04-19T13:14:07.998Z</time></trkpt><trkpt lat="38.782331624430064" lon="16.215860662454947"><ele>6.199999999999999</ele><time>2026-04-19T13:14:08.998Z</time></trkpt><trkpt lat="38.78243063943178" lon="16.215908634191216"><ele>6.6</ele><time>2026-04-19T13:14:09.998Z</time></trkpt><trkpt lat="38.782558836933" lon="16.21590524965805"><ele>7.0</ele><time>2026-04-19T13:14:10.998Z</time></trkpt><trkpt lat="38.782666087884074" lon="16.215915593896465"><ele>6.8</ele><time>2026-04-19T13:14:11.998Z</time></trkpt><trkpt lat="38.78276710902585" lon="16.215922044909377"><ele>6.6</ele><time>2026-04-19T13:14:12.998Z</time></trkpt><trkpt lat="38.78286378771786" lon="16.215943323604158"><ele>6.3999999999999995</ele><time>2026-04-19T13:14:13.998Z</time></trkpt><trkpt lat="38.78295236738636" lon="16.215950568630138"><ele>6.199999999999999</ele><time>2026-04-19T13:14:14.998Z</time></trkpt><trkpt lat="38.78305157563975" lon="16.215955936095337"><ele>6.0</ele><time>2026-04-19T13:14:15.998Z</time></trkpt><trkpt lat="38.783151884730536" lon="16.215962625262495"><ele>6.0</ele><time>2026-04-19T13:14:16.998Z</time></trkpt><trkpt lat="38.78323823066554" lon="16.215977917182467"><ele>6.0</ele><time>2026-04-19T13:14:17.998Z</time></trkpt><trkpt lat="38.7833165910227" lon="16.21599210627642"><ele>6.0</ele><time>2026-04-19T13:14:18.998Z</time></trkpt><trkpt lat="38.7834008855108" lon="16.216023586105877"><ele>6.0</ele><time>2026-04-19T13:14:19.998Z</time></trkpt><trkpt lat="38.78348103188365" lon="16.216062050665663"><ele>6.0</ele><time>2026-04-19T13:14:20.998Z</time></trkpt><trkpt lat="38.783567212869606" lon="16.21610567073899"><ele>6.0</ele><time>2026-04-19T13:14:21.998Z</time></trkpt><trkpt lat="38.7836612516658" lon="16.216156709274376"><ele>5.8</ele><time>2026-04-19T13:14:22.998Z</time></trkpt><trkpt lat="38.783756379365194" lon="16.216217749315764"><ele>5.6</ele><time>2026-04-19T13:14:23.998Z</time></trkpt><trkpt lat="38.78384879772951" lon="16.216281344067166"><ele>5.4</ele><time>2026-04-19T13:14:24.998Z</time></trkpt><trkpt lat="38.78393306953327" lon="16.216345062926113"><ele>5.2</ele><time>2026-04-19T13:14:25.998Z</time></trkpt><trkpt lat="38.78402378113135" lon="16.216418064798052"><ele>5.0</ele><time>2026-04-19T13:14:26.998Z</time></trkpt><trkpt lat="38.784122365903535" lon="16.216496569979505"><ele>5.25</ele><time>2026-04-19T13:14:27.998Z</time></trkpt><trkpt lat="38.784222937088046" lon="16.216573898294833"><ele>5.5</ele><time>2026-04-19T13:14:28.998Z</time></trkpt><trkpt lat="38.784316624833366" lon="16.216662092950436"><ele>5.75</ele><time>2026-04-19T13:14:29.998Z</time></trkpt><trkpt lat="38.78440460757665" lon="16.21675262834204"><ele>6.0</ele><time>2026-04-19T13:14:30.998Z</time></trkpt><trkpt lat="38.784497775828456" lon="16.216835539074214"><ele>6.0</ele><time>2026-04-19T13:14:31.998Z</time></trkpt><trkpt lat="38.78459533188413" lon="16.216904304624585"><ele>6.0</ele><time>2026-04-19T13:14:32.998Z</time></trkpt><trkpt lat="38.78470283950879" lon="16.21697162935681"><ele>6.0</ele><time>2026-04-19T13:14:33.998Z</time></trkpt><trkpt lat="38.78481494573328" lon="16.217041251064405"><ele>6.0</ele><time>2026-04-19T13:14:34.998Z</time></trkpt><trkpt lat="38.7849369596561" lon="16.217101038420786"><ele>6.0</ele><time>2026-04-19T13:14:35.998Z</time></trkpt><trkpt lat="38.78505807096524" lon="16.217182461116234"><ele>6.0</ele><time>2026-04-19T13:14:36.998Z</time></trkpt><trkpt lat="38.785181939763255" lon="16.217259382005636"><ele>6.0</ele><time>2026-04-19T13:14:37.998Z</time></trkpt><trkpt lat="38.785306852657015" lon="16.217338447523048"><ele>6.0</ele><time>2026-04-19T13:14:38.998Z</time></trkpt><trkpt lat="38.78543321410265" lon="16.21741572709657"><ele>6.0</ele><time>2026-04-19T13:14:39.998Z</time></trkpt><trkpt lat="38.78556037828881" lon="16.217492272094717"><ele>6.0</ele><time>2026-04-19T13:14:40.998Z</time></trkpt><trkpt lat="38.78568495599049" lon="16.217569482405235"><ele>6.0</ele><time>2026-04-19T13:14:41.998Z</time></trkpt><trkpt lat="38.78580898724852" lon="16.217642184935215"><ele>6.0</ele><time>2026-04-19T13:14:42.998Z</time></trkpt><trkpt lat="38.785931630013735" lon="16.21771413121388"><ele>6.25</ele><time>2026-04-19T13:14:43.998Z</time></trkpt><trkpt lat="38.78605489149217" lon="16.217783791896206"><ele>6.5</ele><time>2026-04-19T13:14:44.998Z</time></trkpt><trkpt lat="38.78617412366713" lon="16.217851986191178"><ele>6.75</ele><time>2026-04-19T13:14:45.998Z</time></trkpt><trkpt lat="38.78629034449175" lon="16.217921628360436"><ele>7.0</ele><time>2026-04-19T13:14:46.998Z</time></trkpt><trkpt lat="38.78640426256484" lon="16.21798685550703"><ele>7.0</ele><time>2026-04-19T13:14:47.998Z</time></trkpt><trkpt lat="38.786513107007394" lon="16.21804959445123"><ele>7.0</ele><time>2026-04-19T13:14:48.998Z</time></trkpt><trkpt lat="38.78661086941781" lon="16.21813067207639"><ele>7.0</ele><time>2026-04-19T13:14:49.998Z</time></trkpt><trkpt lat="38.786713777663564" lon="16.218194384984702"><ele>7.0</ele><time>2026-04-19T13:14:50.998Z</time></trkpt><trkpt lat="38.78681852586009" lon="16.218259237004364"><ele>6.75</ele><time>2026-04-19T13:14:51.998Z</time></trkpt><trkpt lat="38.786925908840836" lon="16.21832572033039"><ele>6.5</ele><time>2026-04-19T13:14:52.998Z</time></trkpt><trkpt lat="38.787033247523794" lon="16.21839217618356"><ele>6.25</ele><time>2026-04-19T13:14:53.998Z</time></trkpt><trkpt lat="38.78713542278143" lon="16.218455435294572"><ele>6.0</ele><time>2026-04-19T13:14:54.998Z</time></trkpt><trkpt lat="38.78723516222683" lon="16.21851701359958"><ele>6.0</ele><time>2026-04-19T13:14:55.998Z</time></trkpt><trkpt lat="38.78733445579263" lon="16.218576126684397"><ele>6.0</ele><time>2026-04-19T13:14:56.998Z</time></trkpt><trkpt lat="38.78743352951809" lon="16.21863439731215"><ele>6.0</ele><time>2026-04-19T13:14:57.998Z</time></trkpt><trkpt lat="38.78753526585356" lon="16.218693372666415"><ele>6.0</ele><time>2026-04-19T13:14:58.998Z</time></trkpt><trkpt lat="38.78763159000404" lon="16.21874921065149"><ele>6.0</ele><time>2026-04-19T13:14:59.998Z</time></trkpt><trkpt lat="38.78772937996107" lon="16.218805863479115"><ele>6.0</ele><time>2026-04-19T13:15:00.998Z</time></trkpt><trkpt lat="38.787834703234616" lon="16.2188448362393"><ele>6.0</ele><time>2026-04-19T13:15:01.998Z</time></trkpt><trkpt lat="38.78793129729374" lon="16.218906867037855"><ele>6.0</ele><time>2026-04-19T13:15:02.998Z</time></trkpt><trkpt lat="38.78802459744179" lon="16.218964664136244"><ele>6.0</ele><time>2026-04-19T13:15:03.998Z</time></trkpt><trkpt lat="38.78811383147865" lon="16.219026155573555"><ele>6.0</ele><time>2026-04-19T13:15:04.998Z</time></trkpt><trkpt lat="38.78820678082799" lon="16.21908545016297"><ele>5.75</ele><time>2026-04-19T13:15:05.998Z</time></trkpt><trkpt lat="38.78830308589972" lon="16.219147151501804"><ele>5.5</ele><time>2026-04-19T13:15:06.998Z</time></trkpt><trkpt lat="38.78840137861636" lon="16.219209975736895"><ele>5.25</ele><time>2026-04-19T13:15:07.998Z</time></trkpt><trkpt lat="38.788505285622776" lon="16.219274279460404"><ele>5.0</ele><time>2026-04-19T13:15:08.998Z</time></trkpt><trkpt lat="38.78862124291321" lon="16.219349799641897"><ele>5.0</ele><time>2026-04-19T13:15:09.998Z</time></trkpt><trkpt lat="38.78875028830475" lon="16.21943276039596"><ele>5.0</ele><time>2026-04-19T13:15:10.998Z</time></trkpt><trkpt lat="38.788883437992595" lon="16.219518240162916"><ele>5.0</ele><time>2026-04-19T13:15:11.998Z</time></trkpt><trkpt lat="38.78901105269499" lon="16.219598712010097"><ele>5.0</ele><time>2026-04-19T13:15:12.998Z</time></trkpt><trkpt lat="38.789124362601804" lon="16.219678940684666"><ele>5.0</ele><time>2026-04-19T13:15:13.998Z</time></trkpt><trkpt lat="38.789231619501976" lon="16.219750235071654"><ele>5.0</ele><time>2026-04-19T13:15:14.998Z</time></trkpt><trkpt lat="38.78933538994448" lon="16.219819005582295"><ele>5.0</ele><time>2026-04-19T13:15:15.998Z</time></trkpt><trkpt lat="38.789439291009515" lon="16.219893625440267"><ele>5.0</ele><time>2026-04-19T13:15:16.998Z</time></trkpt><trkpt lat="38.78954553864242" lon="16.219961782764628"><ele>5.2</ele><time>2026-04-19T13:15:17.998Z</time></trkpt><trkpt lat="38.78964744981886" lon="16.220033156269384"><ele>5.4</ele><time>2026-04-19T13:15:18.998Z</time></trkpt><trkpt lat="38.78974126995575" lon="16.22010001568227"><ele>5.6</ele><time>2026-04-19T13:15:19.998Z</time></trkpt><trkpt lat="38.78982757768759" lon="16.22015773142233"><ele>5.8</ele><time>2026-04-19T13:15:20.998Z</time></trkpt><trkpt lat="38.78990498222364" lon="16.220205219946642"><ele>6.0</ele><time>2026-04-19T13:15:21.998Z</time></trkpt><trkpt lat="38.7899822755801" lon="16.220239731194077"><ele>6.0</ele><time>2026-04-19T13:15:22.998Z</time></trkpt><trkpt lat="38.79004721204805" lon="16.22030328082392"><ele>6.0</ele><time>2026-04-19T13:15:23.998Z</time></trkpt><trkpt lat="38.79011960395252" lon="16.22035366708647"><ele>6.0</ele><time>2026-04-19T13:15:24.998Z</time></trkpt><trkpt lat="38.79019236076615" lon="16.220404285396555"><ele>6.0</ele><time>2026-04-19T13:15:25.998Z</time></trkpt><trkpt lat="38.79026781627184" lon="16.220455536088398"><ele>6.0</ele><time>2026-04-19T13:15:26.998Z</time></trkpt><trkpt lat="38.790347692301204" lon="16.220509789229293"><ele>6.0</ele><time>2026-04-19T13:15:27.998Z</time></trkpt><trkpt lat="38.79043119564501" lon="16.22056621899155"><ele>6.0</ele><time>2026-04-19T13:15:28.998Z</time></trkpt><trkpt lat="38.79052096457729" lon="16.220626227959023"><ele>6.0</ele><time>2026-04-19T13:15:29.998Z</time></trkpt><trkpt lat="38.79061907461555" lon="16.220691812821176"><ele>6.0</ele><time>2026-04-19T13:15:30.998Z</time></trkpt><trkpt lat="38.79072291308336" lon="16.220761227029406"><ele>6.0</ele><time>2026-04-19T13:15:31.998Z</time></trkpt><trkpt lat="38.79082519182481" lon="16.220829598556286"><ele>6.0</ele><time>2026-04-19T13:15:32.998Z</time></trkpt><trkpt lat="38.79093308734021" lon="16.220885816370124"><ele>6.5</ele><time>2026-04-19T13:15:33.998Z</time></trkpt><trkpt lat="38.791044340969506" lon="16.220963583305494"><ele>7.0</ele><time>2026-04-19T13:15:34.998Z</time></trkpt><trkpt lat="38.791163371083755" lon="16.22104557925778"><ele>7.5</ele><time>2026-04-19T13:15:35.998Z</time></trkpt><trkpt lat="38.79129003204586" lon="16.221130701720437"><ele>8.0</ele><time>2026-04-19T13:15:36.998Z</time></trkpt><trkpt lat="38.79142388324276" lon="16.221211693868113"><ele>8.0</ele><time>2026-04-19T13:15:37.998Z</time></trkpt><trkpt lat="38.79156001739546" lon="16.22129207110902"><ele>8.0</ele><time>2026-04-19T13:15:38.998Z</time></trkpt><trkpt lat="38.791695268455804" lon="16.22137452210875"><ele>8.0</ele><time>2026-04-19T13:15:39.998Z</time></trkpt><trkpt lat="38.791819351796995" lon="16.22147628142587"><ele>8.0</ele><time>2026-04-19T13:15:40.998Z</time></trkpt><trkpt lat="38.79195011261062" lon="16.221540475790725"><ele>8.25</ele><time>2026-04-19T13:15:41.998Z</time></trkpt><trkpt lat="38.79206583637468" lon="16.221615500490078"><ele>8.5</ele><time>2026-04-19T13:15:42.998Z</time></trkpt><trkpt lat="38.79217558290192" lon="16.22168572886229"><ele>8.75</ele><time>2026-04-19T13:15:43.998Z</time></trkpt><trkpt lat="38.79229016540321" lon="16.221751527471145"><ele>9.0</ele><time>2026-04-19T13:15:44.998Z</time></trkpt><trkpt lat="38.792407952207014" lon="16.221820734947674"><ele>9.0</ele><time>2026-04-19T13:15:45.998Z</time></trkpt><trkpt lat="38.792522724998854" lon="16.221889963121917"><ele>9.0</ele><time>2026-04-19T13:15:46.998Z</time></trkpt><trkpt lat="38.792626960210335" lon="16.22195300439881"><ele>9.0</ele><time>2026-04-19T13:15:47.998Z</time></trkpt><trkpt lat="38.79272497750451" lon="16.22200928907664"><ele>9.0</ele><time>2026-04-19T13:15:48.998Z</time></trkpt><trkpt lat="38.79282128037305" lon="16.222066093131176"><ele>8.75</ele><time>2026-04-19T13:15:49.998Z</time></trkpt><trkpt lat="38.7929128446869" lon="16.222143930058724"><ele>8.5</ele><time>2026-04-19T13:15:50.998Z</time></trkpt><trkpt lat="38.793016468076765" lon="16.22222607806056"><ele>8.25</ele><time>2026-04-19T13:15:51.998Z</time></trkpt><trkpt lat="38.79312718626656" lon="16.222309993527304"><ele>8.0</ele><time>2026-04-19T13:15:52.998Z</time></trkpt><trkpt lat="38.79324507327795" lon="16.222369903907506"><ele>8.0</ele><time>2026-04-19T13:15:53.998Z</time></trkpt><trkpt lat="38.79334893869363" lon="16.22244885019961"><ele>8.0</ele><time>2026-04-19T13:15:54.997Z</time></trkpt><trkpt lat="38.79345858515413" lon="16.222513519615372"><ele>8.0</ele><time>2026-04-19T13:15:55.997Z</time></trkpt><trkpt lat="38.793576490519044" lon="16.222590092512114"><ele>8.0</ele><time>2026-04-19T13:15:56.997Z</time></trkpt><trkpt lat="38.79370201368671" lon="16.222667220438574"><ele>8.0</ele><time>2026-04-19T13:15:57.997Z</time></trkpt><trkpt lat="38.79382799283318" lon="16.222746028081776"><ele>8.0</ele><time>2026-04-19T13:15:58.997Z</time></trkpt><trkpt lat="38.793947434945544" lon="16.222824058529767"><ele>8.0</ele><time>2026-04-19T13:15:59.997Z</time></trkpt><trkpt lat="38.79405604345899" lon="16.222897460080553"><ele>8.0</ele><time>2026-04-19T13:16:00.997Z</time></trkpt><trkpt lat="38.7941572388926" lon="16.22296200226863"><ele>8.0</ele><time>2026-04-19T13:16:01.997Z</time></trkpt><trkpt lat="38.79424958544601" lon="16.223021524946038"><ele>8.0</ele><time>2026-04-19T13:16:02.997Z</time></trkpt><trkpt lat="38.79433376706784" lon="16.22307478745115"><ele>8.0</ele><time>2026-04-19T13:16:03.997Z</time></trkpt><trkpt lat="38.7944106513931" lon="16.223128464945646"><ele>8.0</ele><time>2026-04-19T13:16:04.997Z</time></trkpt><trkpt lat="38.794491508726644" lon="16.22317499965142"><ele>8.0</ele><time>2026-04-19T13:16:05.997Z</time></trkpt><trkpt lat="38.79457467999767" lon="16.223226351686993"><ele>8.200000000000001</ele><time>2026-04-19T13:16:06.997Z</time></trkpt><trkpt lat="38.79466167448436" lon="16.223280486301377"><ele>8.4</ele><time>2026-04-19T13:16:07.997Z</time></trkpt><trkpt lat="38.794753080403034" lon="16.223340119828897"><ele>8.600000000000001</ele><time>2026-04-19T13:16:08.997Z</time></trkpt><trkpt lat="38.79484512534952" lon="16.223401663058663"><ele>8.8</ele><time>2026-04-19T13:16:09.997Z</time></trkpt><trkpt lat="38.79493791302299" lon="16.223461326189913"><ele>9.0</ele><time>2026-04-19T13:16:10.996Z</time></trkpt><trkpt lat="38.79503141723392" lon="16.22351334163937"><ele>9.0</ele><time>2026-04-19T13:16:11.996Z</time></trkpt><trkpt lat="38.79512231461531" lon="16.223571396008683"><ele>9.0</ele><time>2026-04-19T13:16:12.996Z</time></trkpt><trkpt lat="38.7952137878436" lon="16.223632012020357"><ele>9.0</ele><time>2026-04-19T13:16:13.996Z</time></trkpt><trkpt lat="38.79530577305166" lon="16.22369137355278"><ele>9.0</ele><time>2026-04-19T13:16:14.996Z</time></trkpt><trkpt lat="38.79538174697845" lon="16.223765755247033"><ele>9.0</ele><time>2026-04-19T13:16:15.996Z</time></trkpt><trkpt lat="38.79546565455726" lon="16.223799075193252"><ele>8.833333333333334</ele><time>2026-04-19T13:16:16.996Z</time></trkpt><trkpt lat="38.79553364875327" lon="16.223869403914424"><ele>8.666666666666666</ele><time>2026-04-19T13:16:17.996Z</time></trkpt><trkpt lat="38.7956095579897" lon="16.223921199846842"><ele>8.5</ele><time>2026-04-19T13:16:18.996Z</time></trkpt><trkpt lat="38.79569329076302" lon="16.223954696240273"><ele>8.333333333333332</ele><time>2026-04-19T13:16:19.996Z</time></trkpt><trkpt lat="38.79575740300671" lon="16.224022080433"><ele>8.166666666666666</ele><time>2026-04-19T13:16:20.996Z</time></trkpt><trkpt lat="38.79582275875095" lon="16.224066674234113"><ele>8.0</ele><time>2026-04-19T13:16:21.996Z</time></trkpt><trkpt lat="38.795904631188584" lon="16.224068334918325"><ele>8.5</ele><time>2026-04-19T13:16:22.996Z</time></trkpt><trkpt lat="38.79597491384244" lon="16.224098043402236"><ele>9.0</ele><time>2026-04-19T13:16:23.996Z</time></trkpt><trkpt lat="38.79603354718667" lon="16.224151150229144"><ele>9.5</ele><time>2026-04-19T13:16:24.996Z</time></trkpt><trkpt lat="38.79607559199612" lon="16.22421363542733"><ele>10.0</ele><time>2026-04-19T13:16:25.996Z</time></trkpt><trkpt lat="38.796119870066796" lon="16.224289384825017"><ele>10.5</ele><time>2026-04-19T13:16:26.996Z</time></trkpt><trkpt lat="38.796161734631205" lon="16.224360663652465"><ele>11.0</ele><time>2026-04-19T13:16:27.996Z</time></trkpt><trkpt lat="38.796273634480855" lon="16.22442194027388"><ele>11.0</ele><time>2026-04-19T13:16:29.996Z</time></trkpt><trkpt lat="38.79638955869136" lon="16.224493477119427"><ele>11.0</ele><time>2026-04-19T13:16:31.996Z</time></trkpt><trkpt lat="38.796449832434206" lon="16.224537359507732"><ele>11.0</ele><time>2026-04-19T13:16:32.996Z</time></trkpt><trkpt lat="38.79651149015797" lon="16.224594117947266"><ele>11.0</ele><time>2026-04-19T13:16:33.996Z</time></trkpt><trkpt lat="38.79656137412171" lon="16.22470183394499"><ele>11.0</ele><time>2026-04-19T13:16:34.996Z</time></trkpt><trkpt lat="38.79664230047858" lon="16.224758812294745"><ele>11.0</ele><time>2026-04-19T13:16:35.996Z</time></trkpt><trkpt lat="38.796731393720385" lon="16.2247434550261"><ele>11.0</ele><time>2026-04-19T13:16:36.996Z</time></trkpt><trkpt lat="38.79682914617008" lon="16.224771322965182"><ele>11.0</ele><time>2026-04-19T13:16:37.996Z</time></trkpt><trkpt lat="38.79691835412106" lon="16.224907470359252"><ele>11.0</ele><time>2026-04-19T13:16:38.996Z</time></trkpt><trkpt lat="38.79698971384024" lon="16.225021906796265"><ele>11.0</ele><time>2026-04-19T13:16:39.996Z</time></trkpt><trkpt lat="38.79706853620589" lon="16.22510363562228"><ele>10.666666666666666</ele><time>2026-04-19T13:16:40.996Z</time></trkpt><trkpt lat="38.797136682912154" lon="16.225179701935577"><ele>10.333333333333332</ele><time>2026-04-19T13:16:41.996Z</time></trkpt><trkpt lat="38.79720536780561" lon="16.225223934227195"><ele>10.0</ele><time>2026-04-19T13:16:42.996Z</time></trkpt><trkpt lat="38.797270959687104" lon="16.225262812082146"><ele>9.666666666666666</ele><time>2026-04-19T13:16:43.996Z</time></trkpt><trkpt lat="38.79733433058104" lon="16.225306880310068"><ele>9.333333333333334</ele><time>2026-04-19T13:16:44.996Z</time></trkpt><trkpt lat="38.79740012911481" lon="16.225343978495044"><ele>9.0</ele><time>2026-04-19T13:16:45.996Z</time></trkpt><trkpt lat="38.797470147177826" lon="16.22537800878766"><ele>9.000000000000002</ele><time>2026-04-19T13:16:46.996Z</time></trkpt><trkpt lat="38.79754055718903" lon="16.22541756914369"><ele>9.0</ele><time>2026-04-19T13:16:47.996Z</time></trkpt><trkpt lat="38.79760887098553" lon="16.22546133618834"><ele>9.0</ele><time>2026-04-19T13:16:48.996Z</time></trkpt><trkpt lat="38.79767714712798" lon="16.225503077501177"><ele>9.0</ele><time>2026-04-19T13:16:49.996Z</time></trkpt><trkpt lat="38.79774213628814" lon="16.225542630238568"><ele>9.0</ele><time>2026-04-19T13:16:50.996Z</time></trkpt><trkpt lat="38.79781088122919" lon="16.225570798154017"><ele>9.000000000000002</ele><time>2026-04-19T13:16:51.996Z</time></trkpt><trkpt lat="38.79788447542119" lon="16.22559578480937"><ele>9.0</ele><time>2026-04-19T13:16:52.996Z</time></trkpt><trkpt lat="38.79796351643852" lon="16.225617373532295"><ele>9.166666666666666</ele><time>2026-04-19T13:16:53.996Z</time></trkpt><trkpt lat="38.79804391681108" lon="16.225646679178602"><ele>9.333333333333334</ele><time>2026-04-19T13:16:54.996Z</time></trkpt><trkpt lat="38.79812344482755" lon="16.225676436758462"><ele>9.5</ele><time>2026-04-19T13:16:55.996Z</time></trkpt><trkpt lat="38.79820432971873" lon="16.22571215354753"><ele>9.666666666666668</ele><time>2026-04-19T13:16:56.996Z</time></trkpt><trkpt lat="38.798284925105904" lon="16.225739272981"><ele>9.833333333333334</ele><time>2026-04-19T13:16:57.996Z</time></trkpt><trkpt lat="38.79836152946865" lon="16.225773802975098"><ele>10.0</ele><time>2026-04-19T13:16:58.996Z</time></trkpt><trkpt lat="38.798437970435565" lon="16.225802224135606"><ele>9.5</ele><time>2026-04-19T13:16:59.996Z</time></trkpt><trkpt lat="38.79850920740312" lon="16.225840143724206"><ele>9.0</ele><time>2026-04-19T13:17:00.996Z</time></trkpt><trkpt lat="38.79857924022468" lon="16.22586886574993"><ele>8.5</ele><time>2026-04-19T13:17:01.996Z</time></trkpt><trkpt lat="38.79864800753047" lon="16.225906690879118"><ele>8.0</ele><time>2026-04-19T13:17:02.999Z</time></trkpt><trkpt lat="38.79872476147759" lon="16.225947372619625"><ele>7.500000000000001</ele><time>2026-04-19T13:17:03.999Z</time></trkpt><trkpt lat="38.798805201452275" lon="16.22598618825795"><ele>7.0</ele><time>2026-04-19T13:17:04.999Z</time></trkpt><trkpt lat="38.79888270169603" lon="16.226033553012133"><ele>7.0</ele><time>2026-04-19T13:17:05.999Z</time></trkpt><trkpt lat="38.798958852124" lon="16.22609034508668"><ele>6.999999999999999</ele><time>2026-04-19T13:17:06.999Z</time></trkpt><trkpt lat="38.79903481870207" lon="16.226150782361863"><ele>6.999999999999999</ele><time>2026-04-19T13:17:07.999Z</time></trkpt><trkpt lat="38.79911187928821" lon="16.226218290330838"><ele>7.0</ele><time>2026-04-19T13:17:08.999Z</time></trkpt><trkpt lat="38.799191834932614" lon="16.226284651721194"><ele>7.0</ele><time>2026-04-19T13:17:09.999Z</time></trkpt><trkpt lat="38.79926727312979" lon="16.22636292861198"><ele>7.0</ele><time>2026-04-19T13:17:10.999Z</time></trkpt><trkpt lat="38.79934350996454" lon="16.226436993326555"><ele>6.999999999999999</ele><time>2026-04-19T13:17:11.999Z</time></trkpt><trkpt lat="38.799426895256445" lon="16.22648938075321"><ele>6.999999999999999</ele><time>2026-04-19T13:17:12.999Z</time></trkpt><trkpt lat="38.79950776359848" lon="16.226543481119414"><ele>7.0</ele><time>2026-04-19T13:17:13.999Z</time></trkpt><trkpt lat="38.79958523195958" lon="16.22660315417015"><ele>7.0</ele><time>2026-04-19T13:17:14.999Z</time></trkpt><trkpt lat="38.799661500107064" lon="16.226667924972347"><ele>7.0</ele><time>2026-04-19T13:17:15.999Z</time></trkpt><trkpt lat="38.79974145549687" lon="16.226724281588055"><ele>6.999999999999999</ele><time>2026-04-19T13:17:16.999Z</time></trkpt><trkpt lat="38.799820162142076" lon="16.226782900960607"><ele>6.999999999999999</ele><time>2026-04-19T13:17:17.999Z</time></trkpt><trkpt lat="38.799901796844765" lon="16.2268462884643"><ele>7.0</ele><time>2026-04-19T13:17:18.999Z</time></trkpt><trkpt lat="38.79998544927357" lon="16.22692271672304"><ele>7.0</ele><time>2026-04-19T13:17:19.999Z</time></trkpt><trkpt lat="38.800074110986756" lon="16.226999655743363"><ele>7.000000000000001</ele><time>2026-04-19T13:17:20.999Z</time></trkpt><trkpt lat="38.80016087200201" lon="16.227066263353805"><ele>7.0</ele><time>2026-04-19T13:17:21.999Z</time></trkpt><trkpt lat="38.80023472042714" lon="16.22712499136917"><ele>7.0</ele><time>2026-04-19T13:17:22.999Z</time></trkpt><trkpt lat="38.80030065297907" lon="16.227181329189904"><ele>7.0</ele><time>2026-04-19T13:17:23.999Z</time></trkpt><trkpt lat="38.80036961276215" lon="16.227238448234534"><ele>7.000000000000001</ele><time>2026-04-19T13:17:24.999Z</time></trkpt><trkpt lat="38.80044368713033" lon="16.227296146407276"><ele>7.0</ele><time>2026-04-19T13:17:25.999Z</time></trkpt><trkpt lat="38.80052255591937" lon="16.227348647756248"><ele>6.666666666666667</ele><time>2026-04-19T13:17:26.999Z</time></trkpt><trkpt lat="38.800604880126166" lon="16.227394634873768"><ele>6.333333333333334</ele><time>2026-04-19T13:17:27.999Z</time></trkpt><trkpt lat="38.800687458410444" lon="16.227426062899124"><ele>6.0</ele><time>2026-04-19T13:17:28.999Z</time></trkpt><trkpt lat="38.80076566989165" lon="16.22746283345502"><ele>5.666666666666667</ele><time>2026-04-19T13:17:29.999Z</time></trkpt><trkpt lat="38.80084666999424" lon="16.227487268662387"><ele>5.333333333333334</ele><time>2026-04-19T13:17:30.999Z</time></trkpt><trkpt lat="38.80092433731452" lon="16.227512253241734"><ele>5.0</ele><time>2026-04-19T13:17:31.999Z</time></trkpt><trkpt lat="38.80099856417317" lon="16.22753722272465"><ele>5.166666666666667</ele><time>2026-04-19T13:17:32.999Z</time></trkpt><trkpt lat="38.80106413293872" lon="16.22757169814535"><ele>5.333333333333334</ele><time>2026-04-19T13:17:33.999Z</time></trkpt><trkpt lat="38.80112082908437" lon="16.227615557291976"><ele>5.5</ele><time>2026-04-19T13:17:34.999Z</time></trkpt><trkpt lat="38.80117622720392" lon="16.227658996643246"><ele>5.666666666666667</ele><time>2026-04-19T13:17:35.999Z</time></trkpt><trkpt lat="38.80127297616768" lon="16.227708105825855"><ele>5.833333333333333</ele><time>2026-04-19T13:17:37.999Z</time></trkpt><trkpt lat="38.80136282484151" lon="16.227769650163456"><ele>6.0</ele><time>2026-04-19T13:17:39.999Z</time></trkpt><trkpt lat="38.80141405040707" lon="16.227819983683997"><ele>6.0</ele><time>2026-04-19T13:17:40.999Z</time></trkpt><trkpt lat="38.80148220151754" lon="16.227886364590677"><ele>6.0</ele><time>2026-04-19T13:17:41.999Z</time></trkpt><trkpt lat="38.801572379021636" lon="16.22795032361271"><ele>6.0</ele><time>2026-04-19T13:17:42.999Z</time></trkpt><trkpt lat="38.80167498677582" lon="16.228024363168625"><ele>6.0</ele><time>2026-04-19T13:17:43.999Z</time></trkpt><trkpt lat="38.80178018282203" lon="16.228106280116506"><ele>6.0</ele><time>2026-04-19T13:17:44.999Z</time></trkpt><trkpt lat="38.801887860624824" lon="16.228190487023706"><ele>6.5</ele><time>2026-04-19T13:17:45.999Z</time></trkpt><trkpt lat="38.80199682357106" lon="16.2282699555711"><ele>7.0</ele><time>2026-04-19T13:17:46.999Z</time></trkpt><trkpt lat="38.802112070825586" lon="16.228339773589877"><ele>7.5</ele><time>2026-04-19T13:17:47.999Z</time></trkpt><trkpt lat="38.80222636934633" lon="16.228414094324833"><ele>8.0</ele><time>2026-04-19T13:17:48.999Z</time></trkpt><trkpt lat="38.80233616627622" lon="16.228489392504848"><ele>8.0</ele><time>2026-04-19T13:17:49.999Z</time></trkpt><trkpt lat="38.80243741988989" lon="16.228556970070777"><ele>8.0</ele><time>2026-04-19T13:17:50.999Z</time></trkpt><trkpt lat="38.80252877560347" lon="16.228613263126967"><ele>8.0</ele><time>2026-04-19T13:17:51.999Z</time></trkpt><trkpt lat="38.80260732194979" lon="16.228664929176453"><ele>8.0</ele><time>2026-04-19T13:17:52.999Z</time></trkpt><trkpt lat="38.802684417836886" lon="16.228715547645496"><ele>8.0</ele><time>2026-04-19T13:17:53.999Z</time></trkpt><trkpt lat="38.80276670591355" lon="16.228767627466322"><ele>7.75</ele><time>2026-04-19T13:17:54.999Z</time></trkpt><trkpt lat="38.80286218321672" lon="16.228826812401667"><ele>7.5</ele><time>2026-04-19T13:17:55.999Z</time></trkpt><trkpt lat="38.802962070333706" lon="16.22890178003184"><ele>7.25</ele><time>2026-04-19T13:17:56.999Z</time></trkpt><trkpt lat="38.80306521981942" lon="16.228976752452823"><ele>7.0</ele><time>2026-04-19T13:17:57.999Z</time></trkpt><trkpt lat="38.80316922414547" lon="16.229051905469348"><ele>7.5</ele><time>2026-04-19T13:17:58.999Z</time></trkpt><trkpt lat="38.8032728902095" lon="16.229119213817878"><ele>8.0</ele><time>2026-04-19T13:17:59.999Z</time></trkpt><trkpt lat="38.80337515384939" lon="16.22917652082253"><ele>8.5</ele><time>2026-04-19T13:18:00.999Z</time></trkpt><trkpt lat="38.803477750061916" lon="16.229226905693924"><ele>9.0</ele><time>2026-04-19T13:18:01.999Z</time></trkpt><trkpt lat="38.803588662160045" lon="16.229272398265607"><ele>8.2</ele><time>2026-04-19T13:18:02.999Z</time></trkpt><trkpt lat="38.8037063405518" lon="16.229312849183145"><ele>7.4</ele><time>2026-04-19T13:18:03.999Z</time></trkpt><trkpt lat="38.803821357534936" lon="16.2293477145552"><ele>6.6</ele><time>2026-04-19T13:18:04.999Z</time></trkpt><trkpt lat="38.80392430894423" lon="16.229382282890448"><ele>5.8</ele><time>2026-04-19T13:18:05.999Z</time></trkpt><trkpt lat="38.8040088037095" lon="16.22941130083654"><ele>5.0</ele><time>2026-04-19T13:18:06.999Z</time></trkpt><trkpt lat="38.80408025380786" lon="16.229434399127733"><ele>5.0</ele><time>2026-04-19T13:18:07.999Z</time></trkpt><trkpt lat="38.80414157101929" lon="16.229475604643348"><ele>5.0</ele><time>2026-04-19T13:18:08.999Z</time></trkpt><trkpt lat="38.80419145005689" lon="16.229539451280175"><ele>5.0</ele><time>2026-04-19T13:18:09.999Z</time></trkpt><trkpt lat="38.80424035104666" lon="16.229612008010076"><ele>5.0</ele><time>2026-04-19T13:18:10.999Z</time></trkpt><trkpt lat="38.8042707000906" lon="16.229698360546635"><ele>5.0</ele><time>2026-04-19T13:18:11.999Z</time></trkpt><trkpt lat="38.80428031723896" lon="16.22979537762093"><ele>5.0</ele><time>2026-04-19T13:18:12.999Z</time></trkpt><trkpt lat="38.80425758601133" lon="16.22989387335425"><ele>5.0</ele><time>2026-04-19T13:18:13.999Z</time></trkpt><trkpt lat="38.80422438986075" lon="16.229999627239486"><ele>6.0</ele><time>2026-04-19T13:18:14.999Z</time></trkpt><trkpt lat="38.80419353993163" lon="16.230101603967107"><ele>7.0</ele><time>2026-04-19T13:18:15.999Z</time></trkpt><trkpt lat="38.80416839924282" lon="16.230192996937728"><ele>8.0</ele><time>2026-04-19T13:18:16.999Z</time></trkpt><trkpt lat="38.80415938125242" lon="16.23027670724151"><ele>9.0</ele><time>2026-04-19T13:18:17.999Z</time></trkpt><trkpt lat="38.80420234552355" lon="16.230423959349277"><ele>10.0</ele><time>2026-04-19T13:18:19.999Z</time></trkpt><trkpt lat="38.80426775509822" lon="16.230481065905593"><ele>11.0</ele><time>2026-04-19T13:18:20.999Z</time></trkpt><trkpt lat="38.80436530081026" lon="16.23051962790774"><ele>11.0</ele><time>2026-04-19T13:18:21.999Z</time></trkpt><trkpt lat="38.80448154796577" lon="16.23056802363279"><ele>11.0</ele><time>2026-04-19T13:18:22.999Z</time></trkpt><trkpt lat="38.804613274809626" lon="16.230642051605564"><ele>11.0</ele><time>2026-04-19T13:18:23.999Z</time></trkpt><trkpt lat="38.804771265920785" lon="16.23072130798895"><ele>11.0</ele><time>2026-04-19T13:18:24.999Z</time></trkpt><trkpt lat="38.804941333806596" lon="16.23080084340051"><ele>12.666666666666666</ele><time>2026-04-19T13:18:25.999Z</time></trkpt><trkpt lat="38.80511710962118" lon="16.230893503065513"><ele>14.333333333333332</ele><time>2026-04-19T13:18:26.999Z</time></trkpt><trkpt lat="38.805302502564714" lon="16.23096759245345"><ele>16.0</ele><time>2026-04-19T13:18:27.999Z</time></trkpt><trkpt lat="38.80548343426149" lon="16.2310381489022"><ele>16.0</ele><time>2026-04-19T13:18:28.999Z</time></trkpt><trkpt lat="38.80565142440833" lon="16.231126717330632"><ele>16.0</ele><time>2026-04-19T13:18:29.999Z</time></trkpt><trkpt lat="38.80582227231708" lon="16.23119098710149"><ele>16.0</ele><time>2026-04-19T13:18:30.999Z</time></trkpt><trkpt lat="38.80598771789171" lon="16.231258568852567"><ele>14.333333333333332</ele><time>2026-04-19T13:18:31.999Z</time></trkpt><trkpt lat="38.80614585248252" lon="16.231312287776845"><ele>12.666666666666666</ele><time>2026-04-19T13:18:32.999Z</time></trkpt><trkpt lat="38.806298849560875" lon="16.231368109334532"><ele>11.0</ele><time>2026-04-19T13:18:33.999Z</time></trkpt><trkpt lat="38.806453961285335" lon="16.23143683271275"><ele>12.0</ele><time>2026-04-19T13:18:34.999Z</time></trkpt><trkpt lat="38.80660270751326" lon="16.231496374338242"><ele>13.0</ele><time>2026-04-19T13:18:35.999Z</time></trkpt><trkpt lat="38.80675602987055" lon="16.23156167519246"><ele>14.0</ele><time>2026-04-19T13:18:36.999Z</time></trkpt><trkpt lat="38.806890475284355" lon="16.23163154690387"><ele>14.0</ele><time>2026-04-19T13:18:37.999Z</time></trkpt><trkpt lat="38.80702855657698" lon="16.231686723367233"><ele>14.0</ele><time>2026-04-19T13:18:38.999Z</time></trkpt><trkpt lat="38.80716005526609" lon="16.231753157811756"><ele>14.0</ele><time>2026-04-19T13:18:39.999Z</time></trkpt><trkpt lat="38.807283893581186" lon="16.23180902537247"><ele>14.0</ele><time>2026-04-19T13:18:40.999Z</time></trkpt><trkpt lat="38.80740620172846" lon="16.231873104532177"><ele>14.0</ele><time>2026-04-19T13:18:41.999Z</time></trkpt><trkpt lat="38.807534964792595" lon="16.23192898062181"><ele>14.0</ele><time>2026-04-19T13:18:42.999Z</time></trkpt><trkpt lat="38.80768599591616" lon="16.23200486346937"><ele>14.0</ele><time>2026-04-19T13:18:43.999Z</time></trkpt><trkpt lat="38.80786460382817" lon="16.232055773270606"><ele>13.0</ele><time>2026-04-19T13:18:44.999Z</time></trkpt><trkpt lat="38.8080517413888" lon="16.232119302761678"><ele>12.0</ele><time>2026-04-19T13:18:45.999Z</time></trkpt><trkpt lat="38.80825003677842" lon="16.232202862876186"><ele>11.0</ele><time>2026-04-19T13:18:46.999Z</time></trkpt><trkpt lat="38.80844870705984" lon="16.232290910562977"><ele>11.666666666666666</ele><time>2026-04-19T13:18:47.999Z</time></trkpt><trkpt lat="38.80864607547845" lon="16.232385477563856"><ele>12.333333333333332</ele><time>2026-04-19T13:18:48.999Z</time></trkpt><trkpt lat="38.808840870161376" lon="16.232497078415285"><ele>13.0</ele><time>2026-04-19T13:18:49.999Z</time></trkpt><trkpt lat="38.80902735685289" lon="16.23260197484207"><ele>13.0</ele><time>2026-04-19T13:18:50.999Z</time></trkpt><trkpt lat="38.8092017517633" lon="16.232728001403736"><ele>13.0</ele><time>2026-04-19T13:18:51.999Z</time></trkpt><trkpt lat="38.80936467862352" lon="16.23283414902984"><ele>13.0</ele><time>2026-04-19T13:18:52.999Z</time></trkpt><trkpt lat="38.80951877080989" lon="16.232915620765795"><ele>13.0</ele><time>2026-04-19T13:18:53.999Z</time></trkpt><trkpt lat="38.8096574470673" lon="16.232981527051425"><ele>13.0</ele><time>2026-04-19T13:18:54.999Z</time></trkpt><trkpt lat="38.80978529790662" lon="16.23303022808704"><ele>13.0</ele><time>2026-04-19T13:18:55.999Z</time></trkpt><trkpt lat="38.80990833302751" lon="16.23307610068797"><ele>13.0</ele><time>2026-04-19T13:18:56.999Z</time></trkpt><trkpt lat="38.810014300171154" lon="16.23312865371025"><ele>13.75</ele><time>2026-04-19T13:18:57.999Z</time></trkpt><trkpt lat="38.81011010393458" lon="16.233193167036536"><ele>14.5</ele><time>2026-04-19T13:18:58.999Z</time></trkpt><trkpt lat="38.810224367854914" lon="16.233242883372775"><ele>15.25</ele><time>2026-04-19T13:18:59.999Z</time></trkpt><trkpt lat="38.810350713439654" lon="16.233283286501532"><ele>16.0</ele><time>2026-04-19T13:19:00.999Z</time></trkpt><trkpt lat="38.8104816538007" lon="16.233342692147307"><ele>16.0</ele><time>2026-04-19T13:19:01.999Z</time></trkpt><trkpt lat="38.81060997136628" lon="16.233388515841888"><ele>16.0</ele><time>2026-04-19T13:19:02.999Z</time></trkpt><trkpt lat="38.81071516054519" lon="16.233389824351747"><ele>16.0</ele><time>2026-04-19T13:19:03.999Z</time></trkpt><trkpt lat="38.81081476400287" lon="16.23343124504502"><ele>16.0</ele><time>2026-04-19T13:19:04.999Z</time></trkpt><trkpt lat="38.810899410868295" lon="16.23344813037139"><ele>16.0</ele><time>2026-04-19T13:19:05.999Z</time></trkpt><trkpt lat="38.810982373997376" lon="16.23348896529685"><ele>15.333333333333332</ele><time>2026-04-19T13:19:06.999Z</time></trkpt><trkpt lat="38.8110591477884" lon="16.233507279404787"><ele>14.666666666666666</ele><time>2026-04-19T13:19:07.999Z</time></trkpt><trkpt lat="38.81113616243351" lon="16.233499920579"><ele>14.0</ele><time>2026-04-19T13:19:09.999Z</time></trkpt><trkpt lat="38.811211119529574" lon="16.23346180877032"><ele>13.333333333333332</ele><time>2026-04-19T13:19:11.999Z</time></trkpt><trkpt lat="38.81127137357645" lon="16.23341175044266"><ele>12.666666666666666</ele><time>2026-04-19T13:19:13.999Z</time></trkpt><trkpt lat="38.811268334025954" lon="16.2332820723571"><ele>12.0</ele><time>2026-04-19T13:19:14.999Z</time></trkpt><trkpt lat="38.8112655674524" lon="16.233129770599326"><ele>12.0</ele><time>2026-04-19T13:19:15.999Z</time></trkpt><trkpt lat="38.81128610818895" lon="16.233004791189014"><ele>12.0</ele><time>2026-04-19T13:19:16.999Z</time></trkpt><trkpt lat="38.81135102515116" lon="16.232930750147972"><ele>12.0</ele><time>2026-04-19T13:19:17.999Z</time></trkpt><trkpt lat="38.81145454856289" lon="16.232948562656134"><ele>12.0</ele><time>2026-04-19T13:19:18.999Z</time></trkpt><trkpt lat="38.811579002178455" lon="16.23299345107772"><ele>12.0</ele><time>2026-04-19T13:19:19.999Z</time></trkpt><trkpt lat="38.81162075857374" lon="16.23337135343552"><ele>12.0</ele><time>2026-04-19T13:19:20.999Z</time></trkpt><trkpt lat="38.81175146676498" lon="16.233432892970672"><ele>12.0</ele><time>2026-04-19T13:19:21.999Z</time></trkpt><trkpt lat="38.81189727838679" lon="16.233501543348268"><ele>12.0</ele><time>2026-04-19T13:19:22.999Z</time></trkpt><trkpt lat="38.812058792065116" lon="16.233575655513008"><ele>10.666666666666666</ele><time>2026-04-19T13:19:23.999Z</time></trkpt><trkpt lat="38.81220835224033" lon="16.233643051986174"><ele>9.333333333333332</ele><time>2026-04-19T13:19:24.999Z</time></trkpt><trkpt lat="38.81241702023996" lon="16.233421985566423"><ele>8.0</ele><time>2026-04-19T13:19:25.998Z</time></trkpt><trkpt lat="38.81255680700687" lon="16.23346740975867"><ele>7.4</ele><time>2026-04-19T13:19:26.998Z</time></trkpt><trkpt lat="38.81266986309082" lon="16.233533223596137"><ele>6.800000000000001</ele><time>2026-04-19T13:19:27.998Z</time></trkpt><trkpt lat="38.8127791270167" lon="16.23356303177729"><ele>6.2</ele><time>2026-04-19T13:19:28.998Z</time></trkpt><trkpt lat="38.812888828488674" lon="16.233595018060516"><ele>5.6</ele><time>2026-04-19T13:19:29.998Z</time></trkpt><trkpt lat="38.8129835377129" lon="16.23357843012358"><ele>5.0</ele><time>2026-04-19T13:19:30.998Z</time></trkpt><trkpt lat="38.81305988643105" lon="16.233574437456216"><ele>5.0</ele><time>2026-04-19T13:19:31.998Z</time></trkpt><trkpt lat="38.81313735769518" lon="16.233592234143224"><ele>5.0</ele><time>2026-04-19T13:19:32.998Z</time></trkpt><trkpt lat="38.81322833267518" lon="16.233656499147823"><ele>5.0</ele><time>2026-04-19T13:19:33.998Z</time></trkpt><trkpt lat="38.813342643884624" lon="16.233783400178964"><ele>5.0</ele><time>2026-04-19T13:19:34.998Z</time></trkpt><trkpt lat="38.81346395571784" lon="16.23389374512717"><ele>7.666666666666666</ele><time>2026-04-19T13:19:35.998Z</time></trkpt><trkpt lat="38.81359459680523" lon="16.233987656094065"><ele>10.333333333333332</ele><time>2026-04-19T13:19:36.998Z</time></trkpt><trkpt lat="38.81374381782593" lon="16.234068952388476"><ele>13.0</ele><time>2026-04-19T13:19:37.998Z</time></trkpt><trkpt lat="38.81390294320786" lon="16.234143692479776"><ele>13.0</ele><time>2026-04-19T13:19:38.998Z</time></trkpt><trkpt lat="38.81407026024046" lon="16.234235676015185"><ele>13.0</ele><time>2026-04-19T13:19:39.998Z</time></trkpt><trkpt lat="38.81424199735362" lon="16.234309574062014"><ele>13.0</ele><time>2026-04-19T13:19:40.998Z</time></trkpt><trkpt lat="38.814402793049304" lon="16.23439053316487"><ele>12.666666666666666</ele><time>2026-04-19T13:19:41.998Z</time></trkpt><trkpt lat="38.81454888076792" lon="16.234487451474436"><ele>12.333333333333332</ele><time>2026-04-19T13:19:42.998Z</time></trkpt><trkpt lat="38.81469837649833" lon="16.234567394060495"><ele>12.0</ele><time>2026-04-19T13:19:43.998Z</time></trkpt><trkpt lat="38.8148367762068" lon="16.234639996846674"><ele>12.0</ele><time>2026-04-19T13:19:44.998Z</time></trkpt><trkpt lat="38.814995174198245" lon="16.2347014784536"><ele>12.0</ele><time>2026-04-19T13:19:45.998Z</time></trkpt><trkpt lat="38.815131058849474" lon="16.23476513558545"><ele>12.0</ele><time>2026-04-19T13:19:46.998Z</time></trkpt><trkpt lat="38.81526904230948" lon="16.23484553282211"><ele>12.333333333333332</ele><time>2026-04-19T13:19:47.998Z</time></trkpt><trkpt lat="38.81541324886933" lon="16.234907490550036"><ele>12.666666666666666</ele><time>2026-04-19T13:19:48.998Z</time></trkpt><trkpt lat="38.8155447949077" lon="16.23500523779081"><ele>13.0</ele><time>2026-04-19T13:19:49.998Z</time></trkpt><trkpt lat="38.81568177521559" lon="16.235089130382704"><ele>13.0</ele><time>2026-04-19T13:19:50.998Z</time></trkpt><trkpt lat="38.81582594788418" lon="16.2351913840011"><ele>13.0</ele><time>2026-04-19T13:19:51.998Z</time></trkpt><trkpt lat="38.81599519245197" lon="16.23531503496208"><ele>13.0</ele><time>2026-04-19T13:19:52.998Z</time></trkpt><trkpt lat="38.81616768243403" lon="16.235435412858916"><ele>13.333333333333332</ele><time>2026-04-19T13:19:53.998Z</time></trkpt><trkpt lat="38.816323563995276" lon="16.235550729139863"><ele>13.666666666666668</ele><time>2026-04-19T13:19:54.998Z</time></trkpt><trkpt lat="38.816498331183894" lon="16.235664061910946"><ele>14.0</ele><time>2026-04-19T13:19:55.998Z</time></trkpt><trkpt lat="38.816671329128056" lon="16.23580255939803"><ele>14.0</ele><time>2026-04-19T13:19:56.998Z</time></trkpt><trkpt lat="38.816850702923844" lon="16.23591825164152"><ele>14.0</ele><time>2026-04-19T13:19:57.998Z</time></trkpt><trkpt lat="38.81703033001648" lon="16.236005502344224"><ele>14.0</ele><time>2026-04-19T13:19:58.998Z</time></trkpt><trkpt lat="38.817188756564384" lon="16.236111705167176"><ele>14.0</ele><time>2026-04-19T13:19:59.998Z</time></trkpt><trkpt lat="38.817350322417184" lon="16.236211720238796"><ele>14.0</ele><time>2026-04-19T13:20:00.998Z</time></trkpt><trkpt lat="38.81751519888368" lon="16.236297158224303"><ele>14.0</ele><time>2026-04-19T13:20:01.998Z</time></trkpt><trkpt lat="38.81766908377537" lon="16.236393612985488"><ele>15.333333333333334</ele><time>2026-04-19T13:20:02.998Z</time></trkpt><trkpt lat="38.817808093960195" lon="16.23649956414999"><ele>16.666666666666668</ele><time>2026-04-19T13:20:03.998Z</time></trkpt><trkpt lat="38.81793896071411" lon="16.236614295281495"><ele>18.0</ele><time>2026-04-19T13:20:04.998Z</time></trkpt><trkpt lat="38.81805365760257" lon="16.236755427080606"><ele>18.0</ele><time>2026-04-19T13:20:05.998Z</time></trkpt><trkpt lat="38.818173409265185" lon="16.236867149083633"><ele>18.0</ele><time>2026-04-19T13:20:06.998Z</time></trkpt><trkpt lat="38.81831537575862" lon="16.236945562680937"><ele>18.0</ele><time>2026-04-19T13:20:07.998Z</time></trkpt><trkpt lat="38.818447528850406" lon="16.237049943188776"><ele>16.0</ele><time>2026-04-19T13:20:08.998Z</time></trkpt><trkpt lat="38.818577315828456" lon="16.23717495117696"><ele>14.0</ele><time>2026-04-19T13:20:09.998Z</time></trkpt><trkpt lat="38.81869714485622" lon="16.237313676336715"><ele>12.0</ele><time>2026-04-19T13:20:10.998Z</time></trkpt><trkpt lat="38.81882132883408" lon="16.237468171628095"><ele>12.0</ele><time>2026-04-19T13:20:11.998Z</time></trkpt><trkpt lat="38.81894382426898" lon="16.237630980128202"><ele>12.0</ele><time>2026-04-19T13:20:12.998Z</time></trkpt><trkpt lat="38.81905800330172" lon="16.237789724004358"><ele>12.0</ele><time>2026-04-19T13:20:13.998Z</time></trkpt><trkpt lat="38.81917343173387" lon="16.237940561332294"><ele>12.0</ele><time>2026-04-19T13:20:14.998Z</time></trkpt><trkpt lat="38.819292871213904" lon="16.23807031861337"><ele>12.0</ele><time>2026-04-19T13:20:15.998Z</time></trkpt><trkpt lat="38.819399829865525" lon="16.238258498773444"><ele>12.0</ele><time>2026-04-19T13:20:16.998Z</time></trkpt><trkpt lat="38.81953654847662" lon="16.238411551148186"><ele>12.333333333333332</ele><time>2026-04-19T13:20:17.998Z</time></trkpt><trkpt lat="38.81965914250707" lon="16.23859448761387"><ele>12.666666666666666</ele><time>2026-04-19T13:20:18.998Z</time></trkpt><trkpt lat="38.819806244748634" lon="16.238770051310656"><ele>13.0</ele><time>2026-04-19T13:20:19.998Z</time></trkpt><trkpt lat="38.81996332412193" lon="16.238959674375323"><ele>13.666666666666666</ele><time>2026-04-19T13:20:20.998Z</time></trkpt><trkpt lat="38.82010788832102" lon="16.239149144868584"><ele>14.333333333333332</ele><time>2026-04-19T13:20:21.998Z</time></trkpt><trkpt lat="38.82025668119664" lon="16.239347922120423"><ele>15.0</ele><time>2026-04-19T13:20:22.998Z</time></trkpt><trkpt lat="38.820410530769664" lon="16.239509550163152"><ele>16.333333333333332</ele><time>2026-04-19T13:20:23.998Z</time></trkpt><trkpt lat="38.8205278540607" lon="16.23968295310357"><ele>17.666666666666664</ele><time>2026-04-19T13:20:24.998Z</time></trkpt><trkpt lat="38.82064320833929" lon="16.239837984157706"><ele>19.0</ele><time>2026-04-19T13:20:25.998Z</time></trkpt><trkpt lat="38.82074053385714" lon="16.239972822710232"><ele>19.0</ele><time>2026-04-19T13:20:26.998Z</time></trkpt><trkpt lat="38.82083394235376" lon="16.24013493704814"><ele>19.0</ele><time>2026-04-19T13:20:27.998Z</time></trkpt><trkpt lat="38.82090986485427" lon="16.240310306186835"><ele>19.0</ele><time>2026-04-19T13:20:28.998Z</time></trkpt><trkpt lat="38.82099202895139" lon="16.240471031441178"><ele>19.333333333333332</ele><time>2026-04-19T13:20:29.998Z</time></trkpt><trkpt lat="38.82107162554575" lon="16.240654702299405"><ele>19.666666666666668</ele><time>2026-04-19T13:20:30.998Z</time></trkpt><trkpt lat="38.821165990183914" lon="16.24084022953843"><ele>20.0</ele><time>2026-04-19T13:20:31.998Z</time></trkpt><trkpt lat="38.8212690254016" lon="16.241021627994364"><ele>20.0</ele><time>2026-04-19T13:20:32.998Z</time></trkpt><trkpt lat="38.82136211402051" lon="16.241202835079925"><ele>20.0</ele><time>2026-04-19T13:20:33.998Z</time></trkpt><trkpt lat="38.82146452480212" lon="16.241389972122818"><ele>20.0</ele><time>2026-04-19T13:20:34.998Z</time></trkpt><trkpt lat="38.82158375488561" lon="16.241590912450025"><ele>20.0</ele><time>2026-04-19T13:20:35.998Z</time></trkpt><trkpt lat="38.821682767717625" lon="16.241779744952556"><ele>20.0</ele><time>2026-04-19T13:20:36.998Z</time></trkpt><trkpt lat="38.821800236031436" lon="16.2419575386116"><ele>20.0</ele><time>2026-04-19T13:20:37.998Z</time></trkpt><trkpt lat="38.821899762623445" lon="16.24213865443191"><ele>20.666666666666668</ele><time>2026-04-19T13:20:38.998Z</time></trkpt><trkpt lat="38.82199385098237" lon="16.24231316269958"><ele>21.333333333333332</ele><time>2026-04-19T13:20:39.998Z</time></trkpt><trkpt lat="38.82207402731434" lon="16.242472642351238"><ele>22.0</ele><time>2026-04-19T13:20:40.998Z</time></trkpt><trkpt lat="38.822126647860394" lon="16.242645753054614"><ele>22.0</ele><time>2026-04-19T13:20:41.998Z</time></trkpt><trkpt lat="38.82222341039816" lon="16.24278706822923"><ele>22.0</ele><time>2026-04-19T13:20:42.998Z</time></trkpt><trkpt lat="38.822309004350245" lon="16.24293554995585"><ele>22.0</ele><time>2026-04-19T13:20:43.998Z</time></trkpt><trkpt lat="38.82239067045727" lon="16.24307404017674"><ele>22.0</ele><time>2026-04-19T13:20:44.998Z</time></trkpt><trkpt lat="38.82245669623956" lon="16.24319704001886"><ele>21.5</ele><time>2026-04-19T13:20:45.998Z</time></trkpt><trkpt lat="38.8225316035626" lon="16.24330720162731"><ele>21.0</ele><time>2026-04-19T13:20:46.998Z</time></trkpt><trkpt lat="38.822588632785475" lon="16.243454525708664"><ele>20.5</ele><time>2026-04-19T13:20:47.998Z</time></trkpt><trkpt lat="38.82264104647962" lon="16.243627530418753"><ele>20.0</ele><time>2026-04-19T13:20:48.998Z</time></trkpt><trkpt lat="38.8226700401984" lon="16.243794694542505"><ele>20.0</ele><time>2026-04-19T13:20:49.998Z</time></trkpt><trkpt lat="38.822680297781815" lon="16.24396806040081"><ele>20.0</ele><time>2026-04-19T13:20:50.998Z</time></trkpt><trkpt lat="38.82269207373023" lon="16.244133656195494"><ele>20.0</ele><time>2026-04-19T13:20:51.998Z</time></trkpt><trkpt lat="38.82272640426173" lon="16.24430060032829"><ele>20.0</ele><time>2026-04-19T13:20:52.998Z</time></trkpt><trkpt lat="38.82277093290855" lon="16.244454366814676"><ele>20.0</ele><time>2026-04-19T13:20:53.998Z</time></trkpt><trkpt lat="38.82280070021627" lon="16.2446026505446"><ele>20.0</ele><time>2026-04-19T13:20:54.998Z</time></trkpt><trkpt lat="38.82286042566006" lon="16.2447575687855"><ele>20.0</ele><time>2026-04-19T13:20:55.998Z</time></trkpt><trkpt lat="38.822895563346385" lon="16.244931467009433"><ele>20.0</ele><time>2026-04-19T13:20:56.998Z</time></trkpt><trkpt lat="38.822935434303766" lon="16.245125395180164"><ele>20.333333333333336</ele><time>2026-04-19T13:20:57.998Z</time></trkpt><trkpt lat="38.82302417876195" lon="16.245290475261893"><ele>20.666666666666668</ele><time>2026-04-19T13:20:58.998Z</time></trkpt><trkpt lat="38.823111784084674" lon="16.245488605412728"><ele>21.0</ele><time>2026-04-19T13:20:59.998Z</time></trkpt><trkpt lat="38.823191596979555" lon="16.245681135141414"><ele>21.0</ele><time>2026-04-19T13:21:00.998Z</time></trkpt><trkpt lat="38.82327773355551" lon="16.24587925558733"><ele>21.0</ele><time>2026-04-19T13:21:01.998Z</time></trkpt><trkpt lat="38.82336751186786" lon="16.246082916178846"><ele>21.0</ele><time>2026-04-19T13:21:02.998Z</time></trkpt><trkpt lat="38.82345444071159" lon="16.246281242601594"><ele>20.0</ele><time>2026-04-19T13:21:03.998Z</time></trkpt><trkpt lat="38.823526917078986" lon="16.24645175874066"><ele>19.0</ele><time>2026-04-19T13:21:04.998Z</time></trkpt><trkpt lat="38.82363137940832" lon="16.24665438599439"><ele>18.0</ele><time>2026-04-19T13:21:05.998Z</time></trkpt><trkpt lat="38.82372623646659" lon="16.24683557821725"><ele>17.666666666666668</ele><time>2026-04-19T13:21:06.998Z</time></trkpt><trkpt lat="38.82381398635943" lon="16.24701109140022"><ele>17.333333333333336</ele><time>2026-04-19T13:21:07.998Z</time></trkpt><trkpt lat="38.82393094457992" lon="16.24716675732001"><ele>17.0</ele><time>2026-04-19T13:21:08.998Z</time></trkpt><trkpt lat="38.82401530573462" lon="16.247329007575605"><ele>17.0</ele><time>2026-04-19T13:21:09.998Z</time></trkpt><trkpt lat="38.824085703351976" lon="16.247505913381037"><ele>17.0</ele><time>2026-04-19T13:21:10.998Z</time></trkpt><trkpt lat="38.82415411950671" lon="16.24767157075003"><ele>17.0</ele><time>2026-04-19T13:21:11.998Z</time></trkpt><trkpt lat="38.82421679235203" lon="16.247828604600695"><ele>17.0</ele><time>2026-04-19T13:21:12.998Z</time></trkpt><trkpt lat="38.824274153760186" lon="16.24801872322192"><ele>17.333333333333336</ele><time>2026-04-19T13:21:13.998Z</time></trkpt><trkpt lat="38.82436808118557" lon="16.24820443001764"><ele>17.666666666666668</ele><time>2026-04-19T13:21:14.998Z</time></trkpt><trkpt lat="38.82446296857592" lon="16.248386098266703"><ele>18.0</ele><time>2026-04-19T13:21:15.998Z</time></trkpt><trkpt lat="38.8245681499361" lon="16.24856678261585"><ele>18.0</ele><time>2026-04-19T13:21:16.998Z</time></trkpt><trkpt lat="38.824679560071104" lon="16.248712467459512"><ele>18.0</ele><time>2026-04-19T13:21:17.998Z</time></trkpt><trkpt lat="38.82476554384851" lon="16.24887097218782"><ele>18.0</ele><time>2026-04-19T13:21:18.998Z</time></trkpt><trkpt lat="38.824843900287455" lon="16.249007674928848"><ele>18.0</ele><time>2026-04-19T13:21:19.998Z</time></trkpt><trkpt lat="38.82493617339258" lon="16.249163657448587"><ele>18.0</ele><time>2026-04-19T13:21:20.998Z</time></trkpt><trkpt lat="38.82504094711964" lon="16.249295098272523"><ele>18.0</ele><time>2026-04-19T13:21:21.998Z</time></trkpt><trkpt lat="38.82514755920481" lon="16.249413099388924"><ele>18.0</ele><time>2026-04-19T13:21:22.998Z</time></trkpt><trkpt lat="38.82528563259889" lon="16.24952600519614"><ele>17.75</ele><time>2026-04-19T13:21:23.998Z</time></trkpt><trkpt lat="38.82539932395273" lon="16.249639432092977"><ele>17.5</ele><time>2026-04-19T13:21:24.998Z</time></trkpt><trkpt lat="38.82550776050513" lon="16.249736751004438"><ele>17.25</ele><time>2026-04-19T13:21:25.998Z</time></trkpt><trkpt lat="38.82559832411215" lon="16.24983549074733"><ele>17.0</ele><time>2026-04-19T13:21:26.998Z</time></trkpt><trkpt lat="38.82568156990206" lon="16.249935145912836"><ele>17.0</ele><time>2026-04-19T13:21:27.998Z</time></trkpt><trkpt lat="38.82574665180529" lon="16.250033511492813"><ele>17.0</ele><time>2026-04-19T13:21:28.998Z</time></trkpt><trkpt lat="38.82580753072191" lon="16.250119256749347"><ele>17.0</ele><time>2026-04-19T13:21:29.998Z</time></trkpt><trkpt lat="38.825875941059685" lon="16.250193036232652"><ele>17.0</ele><time>2026-04-19T13:21:30.998Z</time></trkpt><trkpt lat="38.82594644733287" lon="16.25025613480463"><ele>17.0</ele><time>2026-04-19T13:21:31.998Z</time></trkpt><trkpt lat="38.826007025267664" lon="16.250307090031733"><ele>17.0</ele><time>2026-04-19T13:21:32.998Z</time></trkpt><trkpt lat="38.82611114713531" lon="16.250371004072232"><ele>17.166666666666668</ele><time>2026-04-19T13:21:34.998Z</time></trkpt><trkpt lat="38.8261915067622" lon="16.250456108607537"><ele>17.333333333333336</ele><time>2026-04-19T13:21:36.998Z</time></trkpt><trkpt lat="38.826155949015735" lon="16.250594990506716"><ele>17.5</ele><time>2026-04-19T13:21:38.997Z</time></trkpt><trkpt lat="38.82615055961214" lon="16.250683309959953"><ele>17.666666666666668</ele><time>2026-04-19T13:21:39.997Z</time></trkpt><trkpt lat="38.82617777702884" lon="16.250765369481076"><ele>17.833333333333332</ele><time>2026-04-19T13:21:40.997Z</time></trkpt><trkpt lat="38.82622376493845" lon="16.250833805031775"><ele>18.0</ele><time>2026-04-19T13:21:41.997Z</time></trkpt><trkpt lat="38.826283527521596" lon="16.250886236774452"><ele>18.0</ele><time>2026-04-19T13:21:42.997Z</time></trkpt><trkpt lat="38.82634380780032" lon="16.25092372360966"><ele>18.0</ele><time>2026-04-19T13:21:43.997Z</time></trkpt><trkpt lat="38.82640101757106" lon="16.25098418365511"><ele>18.0</ele><time>2026-04-19T13:21:44.997Z</time></trkpt><trkpt lat="38.82646451340263" lon="16.25106305894562"><ele>18.0</ele><time>2026-04-19T13:21:45.997Z</time></trkpt><trkpt lat="38.82652957623562" lon="16.251113602089262"><ele>18.0</ele><time>2026-04-19T13:21:46.997Z</time></trkpt><trkpt lat="38.8265955525089" lon="16.25114756918535"><ele>18.0</ele><time>2026-04-19T13:21:47.997Z</time></trkpt><trkpt lat="38.82668134255683" lon="16.25120989527929"><ele>18.0</ele><time>2026-04-19T13:21:49.997Z</time></trkpt><trkpt lat="38.82675354142479" lon="16.251254834883884"><ele>18.0</ele><time>2026-04-19T13:21:51.997Z</time></trkpt><trkpt lat="38.82669008300374" lon="16.251284254647896"><ele>18.0</ele><time>2026-04-19T13:21:54.997Z</time></trkpt><trkpt lat="38.82659638234596" lon="16.25134352662295"><ele>18.0</ele><time>2026-04-19T13:21:56.997Z</time></trkpt><trkpt lat="38.82656491565795" lon="16.25145080030519"><ele>18.0</ele><time>2026-04-19T13:21:58.997Z</time></trkpt><trkpt lat="38.826598317404" lon="16.25152370749496"><ele>18.0</ele><time>2026-04-19T13:22:00.997Z</time></trkpt><trkpt lat="38.82665437182657" lon="16.251616939857538"><ele>18.2</ele><time>2026-04-19T13:22:02.997Z</time></trkpt><trkpt lat="38.826723953562436" lon="16.251679952475094"><ele>18.4</ele><time>2026-04-19T13:22:04.997Z</time></trkpt><trkpt lat="38.82681661078267" lon="16.251765851239742"><ele>18.599999999999998</ele><time>2026-04-19T13:22:06.997Z</time></trkpt><trkpt lat="38.82690138863595" lon="16.251821690859302"><ele>18.8</ele><time>2026-04-19T13:22:08.997Z</time></trkpt><trkpt lat="38.82698023447483" lon="16.251900658244715"><ele>19.0</ele><time>2026-04-19T13:22:10.997Z</time></trkpt><trkpt lat="38.82707579942514" lon="16.251985280800426"><ele>19.0</ele><time>2026-04-19T13:22:12.997Z</time></trkpt><trkpt lat="38.82711136925343" lon="16.25206473689185"><ele>19.0</ele><time>2026-04-19T13:22:13.997Z</time></trkpt><trkpt lat="38.82714304634422" lon="16.252156536945908"><ele>19.0</ele><time>2026-04-19T13:22:14.997Z</time></trkpt><trkpt lat="38.82722253587248" lon="16.25225951779353"><ele>19.0</ele><time>2026-04-19T13:22:16.997Z</time></trkpt><trkpt lat="38.8272824271039" lon="16.252331936657765"><ele>19.0</ele><time>2026-04-19T13:22:18.997Z</time></trkpt><trkpt lat="38.82735471115328" lon="16.252419676140327"><ele>19.0</ele><time>2026-04-19T13:22:20.997Z</time></trkpt><trkpt lat="38.82746350846237" lon="16.25249362249889"><ele>19.333333333333332</ele><time>2026-04-19T13:22:22.997Z</time></trkpt><trkpt lat="38.82751896119221" lon="16.25253742381706"><ele>19.666666666666664</ele><time>2026-04-19T13:22:23.997Z</time></trkpt><trkpt lat="38.82761976084707" lon="16.252622456107645"><ele>20.0</ele><time>2026-04-19T13:22:25.997Z</time></trkpt><trkpt lat="38.82768687358757" lon="16.252648353153496"><ele>20.333333333333332</ele><time>2026-04-19T13:22:26.997Z</time></trkpt><trkpt lat="38.827778663069196" lon="16.25275062903636"><ele>20.666666666666668</ele><time>2026-04-19T13:22:28.997Z</time></trkpt><trkpt lat="38.82784092775291" lon="16.25278598600703"><ele>21.0</ele><time>2026-04-19T13:22:29.997Z</time></trkpt><trkpt lat="38.82788834954847" lon="16.25284099386914"><ele>21.0</ele><time>2026-04-19T13:22:30.997Z</time></trkpt><trkpt lat="38.82800831293185" lon="16.252906561551182"><ele>21.0</ele><time>2026-04-19T13:22:32.997Z</time></trkpt><trkpt lat="38.8280705008465" lon="16.252929890796167"><ele>21.0</ele><time>2026-04-19T13:22:33.997Z</time></trkpt><trkpt lat="38.82813059652878" lon="16.25295583847441"><ele>21.0</ele><time>2026-04-19T13:22:34.997Z</time></trkpt><trkpt lat="38.82819204280198" lon="16.253018946914974"><ele>21.0</ele><time>2026-04-19T13:22:35.997Z</time></trkpt><trkpt lat="38.82825072367429" lon="16.25306784310477"><ele>21.0</ele><time>2026-04-19T13:22:36.997Z</time></trkpt><trkpt lat="38.82831897385106" lon="16.253142409329048"><ele>21.200000000000003</ele><time>2026-04-19T13:22:37.997Z</time></trkpt><trkpt lat="38.82839016963628" lon="16.253210627474136"><ele>21.400000000000002</ele><time>2026-04-19T13:22:38.997Z</time></trkpt><trkpt lat="38.82845458398888" lon="16.253308210361077"><ele>21.6</ele><time>2026-04-19T13:22:39.997Z</time></trkpt><trkpt lat="38.82853381378616" lon="16.253367008838218"><ele>21.8</ele><time>2026-04-19T13:22:40.997Z</time></trkpt><trkpt lat="38.828619896831434" lon="16.25342485754195"><ele>22.0</ele><time>2026-04-19T13:22:41.997Z</time></trkpt><trkpt lat="38.82869753632073" lon="16.25348328114521"><ele>22.0</ele><time>2026-04-19T13:22:42.997Z</time></trkpt><trkpt lat="38.82878848779874" lon="16.253544860678826"><ele>22.0</ele><time>2026-04-19T13:22:43.997Z</time></trkpt><trkpt lat="38.82888202560054" lon="16.253616006842506"><ele>22.0</ele><time>2026-04-19T13:22:44.997Z</time></trkpt><trkpt lat="38.82898234967873" lon="16.253647891595868"><ele>22.0</ele><time>2026-04-19T13:22:45.997Z</time></trkpt><trkpt lat="38.82907401815373" lon="16.2537122868834"><ele>22.0</ele><time>2026-04-19T13:22:46.997Z</time></trkpt><trkpt lat="38.82915911884733" lon="16.253766104491017"><ele>22.0</ele><time>2026-04-19T13:22:47.997Z</time></trkpt><trkpt lat="38.82923885612839" lon="16.25381416508355"><ele>22.0</ele><time>2026-04-19T13:22:48.997Z</time></trkpt><trkpt lat="38.82930710987745" lon="16.25385262042769"><ele>22.0</ele><time>2026-04-19T13:22:49.997Z</time></trkpt><trkpt lat="38.82936612834059" lon="16.253890746588397"><ele>22.0</ele><time>2026-04-19T13:22:50.997Z</time></trkpt><trkpt lat="38.829434067188394" lon="16.253919894851496"><ele>22.0</ele><time>2026-04-19T13:22:51.997Z</time></trkpt><trkpt lat="38.82949752850681" lon="16.253951998129317"><ele>22.0</ele><time>2026-04-19T13:22:52.997Z</time></trkpt><trkpt lat="38.82960521623001" lon="16.254043287353284"><ele>22.6</ele><time>2026-04-19T13:22:54.997Z</time></trkpt><trkpt lat="38.82972027135598" lon="16.254130459246266"><ele>23.200000000000003</ele><time>2026-04-19T13:22:56.997Z</time></trkpt><trkpt lat="38.829818176858765" lon="16.25417955747507"><ele>23.8</ele><time>2026-04-19T13:22:57.997Z</time></trkpt><trkpt lat="38.82990426959382" lon="16.254233578663523"><ele>24.4</ele><time>2026-04-19T13:22:58.997Z</time></trkpt><trkpt lat="38.829980803710384" lon="16.254284429164073"><ele>25.0</ele><time>2026-04-19T13:22:59.997Z</time></trkpt><trkpt lat="38.830048903231" lon="16.2543567764685"><ele>25.0</ele><time>2026-04-19T13:23:00.997Z</time></trkpt><trkpt lat="38.83012833171558" lon="16.254423958580904"><ele>25.0</ele><time>2026-04-19T13:23:01.997Z</time></trkpt><trkpt lat="38.830246627804364" lon="16.254485768453296"><ele>25.0</ele><time>2026-04-19T13:23:03.997Z</time></trkpt><trkpt lat="38.83031565718315" lon="16.254543813402456"><ele>25.0</ele><time>2026-04-19T13:23:04.997Z</time></trkpt><trkpt lat="38.830392545536746" lon="16.254611605607966"><ele>25.0</ele><time>2026-04-19T13:23:05.997Z</time></trkpt><trkpt lat="38.83049010480347" lon="16.25468939695915"><ele>25.0</ele><time>2026-04-19T13:23:06.997Z</time></trkpt><trkpt lat="38.830591803661335" lon="16.25474430003114"><ele>25.0</ele><time>2026-04-19T13:23:07.997Z</time></trkpt><trkpt lat="38.83068597642779" lon="16.25481796142794"><ele>25.0</ele><time>2026-04-19T13:23:08.997Z</time></trkpt><trkpt lat="38.830783219631385" lon="16.254870409601295"><ele>25.0</ele><time>2026-04-19T13:23:09.997Z</time></trkpt><trkpt lat="38.83087155685267" lon="16.254940999481434"><ele>25.0</ele><time>2026-04-19T13:23:10.997Z</time></trkpt><trkpt lat="38.83096786314016" lon="16.25499423047741"><ele>25.0</ele><time>2026-04-19T13:23:11.997Z</time></trkpt><trkpt lat="38.83105155947048" lon="16.25504604181765"><ele>25.0</ele><time>2026-04-19T13:23:12.997Z</time></trkpt><trkpt lat="38.83112717286669" lon="16.25510383563075"><ele>25.0</ele><time>2026-04-19T13:23:13.997Z</time></trkpt><trkpt lat="38.83119613881483" lon="16.255183091738452"><ele>25.0</ele><time>2026-04-19T13:23:14.997Z</time></trkpt><trkpt lat="38.831269763785784" lon="16.255262143890025"><ele>25.0</ele><time>2026-04-19T13:23:15.997Z</time></trkpt><trkpt lat="38.83134500571928" lon="16.255335508497843"><ele>25.0</ele><time>2026-04-19T13:23:16.997Z</time></trkpt><trkpt lat="38.83143567928351" lon="16.25538962891262"><ele>25.0</ele><time>2026-04-19T13:23:17.997Z</time></trkpt><trkpt lat="38.831514827002685" lon="16.255457225546245"><ele>25.0</ele><time>2026-04-19T13:23:18.997Z</time></trkpt><trkpt lat="38.83160256828916" lon="16.255510116960217"><ele>25.0</ele><time>2026-04-19T13:23:19.997Z</time></trkpt><trkpt lat="38.831691194111386" lon="16.255548691998708"><ele>25.0</ele><time>2026-04-19T13:23:20.997Z</time></trkpt><trkpt lat="38.831776272241434" lon="16.25557826980335"><ele>25.2</ele><time>2026-04-19T13:23:21.997Z</time></trkpt><trkpt lat="38.831848086591755" lon="16.255610401082347"><ele>25.4</ele><time>2026-04-19T13:23:22.997Z</time></trkpt><trkpt lat="38.831921353909244" lon="16.255646440690608"><ele>25.6</ele><time>2026-04-19T13:23:23.997Z</time></trkpt><trkpt lat="38.83200312503043" lon="16.255692587813183"><ele>25.8</ele><time>2026-04-19T13:23:24.997Z</time></trkpt><trkpt lat="38.83209359008928" lon="16.25575434510978"><ele>26.0</ele><time>2026-04-19T13:23:25.997Z</time></trkpt><trkpt lat="38.832191364228805" lon="16.25581930153506"><ele>26.0</ele><time>2026-04-19T13:23:26.997Z</time></trkpt><trkpt lat="38.83229080340393" lon="16.255884543648445"><ele>26.0</ele><time>2026-04-19T13:23:27.997Z</time></trkpt><trkpt lat="38.832386630678684" lon="16.255949754813994"><ele>26.0</ele><time>2026-04-19T13:23:28.997Z</time></trkpt><trkpt lat="38.83248150279155" lon="16.25602368613174"><ele>26.0</ele><time>2026-04-19T13:23:29.997Z</time></trkpt><trkpt lat="38.83256727287379" lon="16.256101736623926"><ele>26.0</ele><time>2026-04-19T13:23:30.997Z</time></trkpt><trkpt lat="38.832640872116826" lon="16.25616814641735"><ele>25.6</ele><time>2026-04-19T13:23:31.997Z</time></trkpt><trkpt lat="38.83271406773259" lon="16.25620832716761"><ele>25.200000000000003</ele><time>2026-04-19T13:23:32.997Z</time></trkpt><trkpt lat="38.83278711834664" lon="16.256240869540786"><ele>24.799999999999997</ele><time>2026-04-19T13:23:33.997Z</time></trkpt><trkpt lat="38.8328719717466" lon="16.256264630348916"><ele>24.4</ele><time>2026-04-19T13:23:34.997Z</time></trkpt><trkpt lat="38.832973749482434" lon="16.2562957333135"><ele>24.0</ele><time>2026-04-19T13:23:35.997Z</time></trkpt><trkpt lat="38.83308154157894" lon="16.256351090922806"><ele>24.0</ele><time>2026-04-19T13:23:36.997Z</time></trkpt><trkpt lat="38.833177109207284" lon="16.256418180098535"><ele>24.0</ele><time>2026-04-19T13:23:37.997Z</time></trkpt><trkpt lat="38.833259886320555" lon="16.25648094245986"><ele>24.0</ele><time>2026-04-19T13:23:38.997Z</time></trkpt><trkpt lat="38.833329729888426" lon="16.256543111324333"><ele>24.0</ele><time>2026-04-19T13:23:39.997Z</time></trkpt><trkpt lat="38.83339524880785" lon="16.2565931544042"><ele>24.0</ele><time>2026-04-19T13:23:40.997Z</time></trkpt><trkpt lat="38.83345546962492" lon="16.256639903085826"><ele>24.0</ele><time>2026-04-19T13:23:41.997Z</time></trkpt><trkpt lat="38.83354368613427" lon="16.256710309582807"><ele>24.666666666666668</ele><time>2026-04-19T13:23:43.997Z</time></trkpt><trkpt lat="38.83360752074856" lon="16.256732306324555"><ele>25.333333333333336</ele><time>2026-04-19T13:23:46.997Z</time></trkpt><trkpt lat="38.83365961284199" lon="16.25668238734693"><ele>26.0</ele><time>2026-04-19T13:23:48.997Z</time></trkpt><trkpt lat="38.83371018424966" lon="16.256595189000624"><ele>26.666666666666668</ele><time>2026-04-19T13:23:51.996Z</time></trkpt><trkpt lat="38.83377568945977" lon="16.256622808158237"><ele>27.333333333333336</ele><time>2026-04-19T13:23:54.996Z</time></trkpt><trkpt lat="38.83384149712294" lon="16.256681232176017"><ele>28.0</ele><time>2026-04-19T13:23:55.996Z</time></trkpt><trkpt lat="38.83394508029958" lon="16.256764337871488"><ele>28.0</ele><time>2026-04-19T13:23:56.996Z</time></trkpt><trkpt lat="38.83408116072081" lon="16.256858200051926"><ele>28.0</ele><time>2026-04-19T13:23:57.996Z</time></trkpt><trkpt lat="38.834219184303564" lon="16.256955500518973"><ele>28.0</ele><time>2026-04-19T13:23:58.996Z</time></trkpt><trkpt lat="38.83434913548963" lon="16.257040946152543"><ele>28.25</ele><time>2026-04-19T13:23:59.996Z</time></trkpt><trkpt lat="38.83447223372086" lon="16.25711849743094"><ele>28.5</ele><time>2026-04-19T13:24:00.996Z</time></trkpt><trkpt lat="38.83458632499901" lon="16.257192244794293"><ele>28.75</ele><time>2026-04-19T13:24:01.996Z</time></trkpt><trkpt lat="38.83469842837067" lon="16.25726465135378"><ele>29.0</ele><time>2026-04-19T13:24:02.996Z</time></trkpt><trkpt lat="38.83480589906475" lon="16.257338413742133"><ele>29.0</ele><time>2026-04-19T13:24:03.996Z</time></trkpt><trkpt lat="38.83491518681862" lon="16.257412898554314"><ele>29.0</ele><time>2026-04-19T13:24:04.996Z</time></trkpt><trkpt lat="38.83503330419089" lon="16.257491439530362"><ele>29.0</ele><time>2026-04-19T13:24:05.996Z</time></trkpt><trkpt lat="38.83516150814847" lon="16.257579433879457"><ele>29.0</ele><time>2026-04-19T13:24:06.996Z</time></trkpt><trkpt lat="38.83530238435402" lon="16.257671696454356"><ele>28.75</ele><time>2026-04-19T13:24:07.996Z</time></trkpt><trkpt lat="38.835440179943" lon="16.257762812031867"><ele>28.5</ele><time>2026-04-19T13:24:09Z</time></trkpt><trkpt lat="38.83556904602039" lon="16.25784579325778"><ele>28.25</ele><time>2026-04-19T13:24:10Z</time></trkpt><trkpt lat="38.83569656170991" lon="16.257925540494035"><ele>28.0</ele><time>2026-04-19T13:24:11Z</time></trkpt><trkpt lat="38.83582990559385" lon="16.258007094879403"><ele>28.0</ele><time>2026-04-19T13:24:12Z</time></trkpt><trkpt lat="38.8359694772642" lon="16.25809072533103"><ele>28.0</ele><time>2026-04-19T13:24:13Z</time></trkpt><trkpt lat="38.83609917093219" lon="16.25816987809648"><ele>28.0</ele><time>2026-04-19T13:24:14Z</time></trkpt><trkpt lat="38.836217519377506" lon="16.258241364871832"><ele>28.0</ele><time>2026-04-19T13:24:15Z</time></trkpt><trkpt lat="38.83632892347692" lon="16.25832033946233"><ele>28.0</ele><time>2026-04-19T13:24:16Z</time></trkpt><trkpt lat="38.83643520717219" lon="16.258393364282906"><ele>27.999999999999996</ele><time>2026-04-19T13:24:17Z</time></trkpt><trkpt lat="38.83653113046999" lon="16.258459808926624"><ele>27.999999999999996</ele><time>2026-04-19T13:24:18Z</time></trkpt><trkpt lat="38.836620095681305" lon="16.258522906960597"><ele>28.0</ele><time>2026-04-19T13:24:19Z</time></trkpt><trkpt lat="38.836709083884394" lon="16.258578688982347"><ele>28.0</ele><time>2026-04-19T13:24:20Z</time></trkpt><trkpt lat="38.83679366286056" lon="16.25862152130637"><ele>27.833333333333336</ele><time>2026-04-19T13:24:21Z</time></trkpt><trkpt lat="38.83686289048061" lon="16.258655904584103"><ele>27.666666666666668</ele><time>2026-04-19T13:24:22Z</time></trkpt><trkpt lat="38.836960812562964" lon="16.258696731050456"><ele>27.5</ele><time>2026-04-19T13:24:24Z</time></trkpt><trkpt lat="38.83701987233242" lon="16.258751006386458"><ele>27.333333333333336</ele><time>2026-04-19T13:24:27Z</time></trkpt><trkpt lat="38.837014848295944" lon="16.258854514024403"><ele>27.166666666666668</ele><time>2026-04-19T13:24:29Z</time></trkpt><trkpt lat="38.83699442097692" lon="16.25893567760052"><ele>27.0</ele><time>2026-04-19T13:24:30Z</time></trkpt><trkpt lat="38.83696489857725" lon="16.259027152365974"><ele>27.0</ele><time>2026-04-19T13:24:31Z</time></trkpt><trkpt lat="38.83691868874" lon="16.259132703772863"><ele>27.0</ele><time>2026-04-19T13:24:32Z</time></trkpt><trkpt lat="38.836879792383016" lon="16.259240580285994"><ele>27.0</ele><time>2026-04-19T13:24:33Z</time></trkpt><trkpt lat="38.83685722701231" lon="16.259344522443463"><ele>27.0</ele><time>2026-04-19T13:24:34Z</time></trkpt><trkpt lat="38.8368172343773" lon="16.259420260274045"><ele>27.0</ele><time>2026-04-19T13:24:35Z</time></trkpt><trkpt lat="38.83674385054554" lon="16.259477457967108"><ele>27.0</ele><time>2026-04-19T13:24:37Z</time></trkpt><trkpt lat="38.8366516236799" lon="16.25948167676958"><ele>29.0</ele><time>2026-04-19T13:24:40Z</time></trkpt><trkpt lat="38.83658356441308" lon="16.259505323875157"><ele>29.0</ele><time>2026-04-19T13:24:42Z</time></trkpt><trkpt lat="38.83654677875061" lon="16.259573616998598"><ele>29.0</ele><time>2026-04-19T13:24:51Z</time></trkpt></trkseg></trk></gpx>